<?xml version="1.0" encoding="UTF-8" standalone="no" ?>
<gpx xmlns="http://www.topografix.com/GPX/1/1" xmlns:xsi="http://www.w3.org/2001/XMLSchema-instance" xsi:schemaLocation="http://www.topografix.com/GPX/1/1 http://www.topografix.com/GPX/1/1/gpx.xsd" version="1.1" creator="VisuGPX - https://www.visugpx.com">
  <metadata>
    <name>grand Taillet Forclaz Ramaz</name>
    <desc><![CDATA[A faire essais]]></desc>
  </metadata>
  <trk>
    <name><![CDATA[Sorti avec les Monte-Tout]]></name>
    <extensions>
      <line xmlns="http://www.topografix.com/GPX/gpx_style/0/2">
        <color>FF0000</color>
        <width>4</width>
      </line>
    </extensions>
    <trkseg>
      <trkpt lat="46.19275" lon="6.25004">
        <ele>432.8</ele>
        <time>2021-04-03T11:08:29Z</time>
      </trkpt>
      <trkpt lat="46.19275" lon="6.25004">
        <ele>433</ele>
        <time>2021-04-03T11:08:38Z</time>
      </trkpt>
      <trkpt lat="46.19275" lon="6.25004">
        <ele>433</ele>
        <time>2021-04-03T11:08:46Z</time>
      </trkpt>
      <trkpt lat="46.19275" lon="6.25004">
        <ele>433.2</ele>
        <time>2021-04-03T11:08:54Z</time>
      </trkpt>
      <trkpt lat="46.19275" lon="6.25004">
        <ele>433.4</ele>
        <time>2021-04-03T11:09:02Z</time>
      </trkpt>
      <trkpt lat="46.19276" lon="6.25005">
        <ele>433.2</ele>
        <time>2021-04-03T11:09:10Z</time>
      </trkpt>
      <trkpt lat="46.19276" lon="6.25005">
        <ele>433</ele>
        <time>2021-04-03T11:09:11Z</time>
      </trkpt>
      <trkpt lat="46.19276" lon="6.25006">
        <ele>433</ele>
        <time>2021-04-03T11:09:13Z</time>
      </trkpt>
      <trkpt lat="46.19276" lon="6.25006">
        <ele>433</ele>
        <time>2021-04-03T11:09:14Z</time>
      </trkpt>
      <trkpt lat="46.19277" lon="6.25006">
        <ele>432.8</ele>
        <time>2021-04-03T11:09:15Z</time>
      </trkpt>
      <trkpt lat="46.19276" lon="6.25007">
        <ele>432.8</ele>
        <time>2021-04-03T11:09:16Z</time>
      </trkpt>
      <trkpt lat="46.19277" lon="6.25008">
        <ele>432.8</ele>
        <time>2021-04-03T11:09:17Z</time>
      </trkpt>
      <trkpt lat="46.19277" lon="6.25009">
        <ele>432.8</ele>
        <time>2021-04-03T11:09:18Z</time>
      </trkpt>
      <trkpt lat="46.19277" lon="6.25009">
        <ele>432.8</ele>
        <time>2021-04-03T11:09:19Z</time>
      </trkpt>
      <trkpt lat="46.19277" lon="6.2501">
        <ele>433</ele>
        <time>2021-04-03T11:09:20Z</time>
      </trkpt>
      <trkpt lat="46.19276" lon="6.25009">
        <ele>432.8</ele>
        <time>2021-04-03T11:09:21Z</time>
      </trkpt>
      <trkpt lat="46.19275" lon="6.25009">
        <ele>432.8</ele>
        <time>2021-04-03T11:09:22Z</time>
      </trkpt>
      <trkpt lat="46.19274" lon="6.25008">
        <ele>433</ele>
        <time>2021-04-03T11:09:23Z</time>
      </trkpt>
      <trkpt lat="46.19273" lon="6.25008">
        <ele>432.8</ele>
        <time>2021-04-03T11:09:24Z</time>
      </trkpt>
      <trkpt lat="46.19273" lon="6.25008">
        <ele>432.8</ele>
        <time>2021-04-03T11:09:25Z</time>
      </trkpt>
      <trkpt lat="46.19273" lon="6.25008">
        <ele>433</ele>
        <time>2021-04-03T11:09:26Z</time>
      </trkpt>
      <trkpt lat="46.19273" lon="6.25008">
        <ele>432.8</ele>
        <time>2021-04-03T11:09:27Z</time>
      </trkpt>
      <trkpt lat="46.19274" lon="6.25008">
        <ele>432.8</ele>
        <time>2021-04-03T11:09:28Z</time>
      </trkpt>
      <trkpt lat="46.19274" lon="6.25008">
        <ele>432.8</ele>
        <time>2021-04-03T11:09:29Z</time>
      </trkpt>
      <trkpt lat="46.19274" lon="6.25008">
        <ele>433.2</ele>
        <time>2021-04-03T11:09:30Z</time>
      </trkpt>
      <trkpt lat="46.19274" lon="6.25008">
        <ele>433</ele>
        <time>2021-04-03T11:09:31Z</time>
      </trkpt>
      <trkpt lat="46.19274" lon="6.25008">
        <ele>433.2</ele>
        <time>2021-04-03T11:09:32Z</time>
      </trkpt>
      <trkpt lat="46.19275" lon="6.25008">
        <ele>433.2</ele>
        <time>2021-04-03T11:09:33Z</time>
      </trkpt>
      <trkpt lat="46.19275" lon="6.25008">
        <ele>433.4</ele>
        <time>2021-04-03T11:09:34Z</time>
      </trkpt>
      <trkpt lat="46.19276" lon="6.25007">
        <ele>433.4</ele>
        <time>2021-04-03T11:09:35Z</time>
      </trkpt>
      <trkpt lat="46.19277" lon="6.25008">
        <ele>433.2</ele>
        <time>2021-04-03T11:09:36Z</time>
      </trkpt>
      <trkpt lat="46.19278" lon="6.25008">
        <ele>433.4</ele>
        <time>2021-04-03T11:09:37Z</time>
      </trkpt>
      <trkpt lat="46.19278" lon="6.25009">
        <ele>433.4</ele>
        <time>2021-04-03T11:09:38Z</time>
      </trkpt>
      <trkpt lat="46.19278" lon="6.25009">
        <ele>433.4</ele>
        <time>2021-04-03T11:09:39Z</time>
      </trkpt>
      <trkpt lat="46.19279" lon="6.2501">
        <ele>433.4</ele>
        <time>2021-04-03T11:09:40Z</time>
      </trkpt>
      <trkpt lat="46.19279" lon="6.2501">
        <ele>433.6</ele>
        <time>2021-04-03T11:09:41Z</time>
      </trkpt>
      <trkpt lat="46.19279" lon="6.25011">
        <ele>433.6</ele>
        <time>2021-04-03T11:09:42Z</time>
      </trkpt>
      <trkpt lat="46.19279" lon="6.25011">
        <ele>433.4</ele>
        <time>2021-04-03T11:09:43Z</time>
      </trkpt>
      <trkpt lat="46.19279" lon="6.25011">
        <ele>433.4</ele>
        <time>2021-04-03T11:09:44Z</time>
      </trkpt>
      <trkpt lat="46.19278" lon="6.2501">
        <ele>433.6</ele>
        <time>2021-04-03T11:09:45Z</time>
      </trkpt>
      <trkpt lat="46.19277" lon="6.2501">
        <ele>433.6</ele>
        <time>2021-04-03T11:09:46Z</time>
      </trkpt>
      <trkpt lat="46.19277" lon="6.25009">
        <ele>433.6</ele>
        <time>2021-04-03T11:09:47Z</time>
      </trkpt>
      <trkpt lat="46.19277" lon="6.25009">
        <ele>433.6</ele>
        <time>2021-04-03T11:09:48Z</time>
      </trkpt>
      <trkpt lat="46.19277" lon="6.25009">
        <ele>433.8</ele>
        <time>2021-04-03T11:09:49Z</time>
      </trkpt>
      <trkpt lat="46.19277" lon="6.25009">
        <ele>433.8</ele>
        <time>2021-04-03T11:09:50Z</time>
      </trkpt>
      <trkpt lat="46.19278" lon="6.25009">
        <ele>433.8</ele>
        <time>2021-04-03T11:09:51Z</time>
      </trkpt>
      <trkpt lat="46.19278" lon="6.25009">
        <ele>433.8</ele>
        <time>2021-04-03T11:09:52Z</time>
      </trkpt>
      <trkpt lat="46.19278" lon="6.25009">
        <ele>433.8</ele>
        <time>2021-04-03T11:09:53Z</time>
      </trkpt>
      <trkpt lat="46.19278" lon="6.2501">
        <ele>433.8</ele>
        <time>2021-04-03T11:09:54Z</time>
      </trkpt>
      <trkpt lat="46.19278" lon="6.2501">
        <ele>433.8</ele>
        <time>2021-04-03T11:09:55Z</time>
      </trkpt>
      <trkpt lat="46.19278" lon="6.2501">
        <ele>433.8</ele>
        <time>2021-04-03T11:09:56Z</time>
      </trkpt>
      <trkpt lat="46.19278" lon="6.25011">
        <ele>433.8</ele>
        <time>2021-04-03T11:09:57Z</time>
      </trkpt>
      <trkpt lat="46.19279" lon="6.25011">
        <ele>433.8</ele>
        <time>2021-04-03T11:09:58Z</time>
      </trkpt>
      <trkpt lat="46.19278" lon="6.25011">
        <ele>435</ele>
        <time>2021-04-03T11:09:59Z</time>
      </trkpt>
      <trkpt lat="46.19277" lon="6.25012">
        <ele>435</ele>
        <time>2021-04-03T11:10:00Z</time>
      </trkpt>
      <trkpt lat="46.19276" lon="6.25014">
        <ele>435</ele>
        <time>2021-04-03T11:10:01Z</time>
      </trkpt>
      <trkpt lat="46.19276" lon="6.25016">
        <ele>434.8</ele>
        <time>2021-04-03T11:10:02Z</time>
      </trkpt>
      <trkpt lat="46.19277" lon="6.25018">
        <ele>434.6</ele>
        <time>2021-04-03T11:10:03Z</time>
      </trkpt>
      <trkpt lat="46.19277" lon="6.25021">
        <ele>434.4</ele>
        <time>2021-04-03T11:10:04Z</time>
      </trkpt>
      <trkpt lat="46.19277" lon="6.25024">
        <ele>433.8</ele>
        <time>2021-04-03T11:10:05Z</time>
      </trkpt>
      <trkpt lat="46.19278" lon="6.25027">
        <ele>433.2</ele>
        <time>2021-04-03T11:10:06Z</time>
      </trkpt>
      <trkpt lat="46.19278" lon="6.25031">
        <ele>433.2</ele>
        <time>2021-04-03T11:10:07Z</time>
      </trkpt>
      <trkpt lat="46.19278" lon="6.25035">
        <ele>432.8</ele>
        <time>2021-04-03T11:10:08Z</time>
      </trkpt>
      <trkpt lat="46.19278" lon="6.25039">
        <ele>432.8</ele>
        <time>2021-04-03T11:10:09Z</time>
      </trkpt>
      <trkpt lat="46.19278" lon="6.25044">
        <ele>433</ele>
        <time>2021-04-03T11:10:10Z</time>
      </trkpt>
      <trkpt lat="46.19277" lon="6.25048">
        <ele>433.2</ele>
        <time>2021-04-03T11:10:11Z</time>
      </trkpt>
      <trkpt lat="46.19277" lon="6.25053">
        <ele>433.6</ele>
        <time>2021-04-03T11:10:12Z</time>
      </trkpt>
      <trkpt lat="46.19276" lon="6.25058">
        <ele>433.6</ele>
        <time>2021-04-03T11:10:13Z</time>
      </trkpt>
      <trkpt lat="46.19276" lon="6.25064">
        <ele>433</ele>
        <time>2021-04-03T11:10:14Z</time>
      </trkpt>
      <trkpt lat="46.19275" lon="6.25069">
        <ele>432.8</ele>
        <time>2021-04-03T11:10:15Z</time>
      </trkpt>
      <trkpt lat="46.19275" lon="6.25074">
        <ele>432.8</ele>
        <time>2021-04-03T11:10:16Z</time>
      </trkpt>
      <trkpt lat="46.19274" lon="6.25078">
        <ele>433.4</ele>
        <time>2021-04-03T11:10:17Z</time>
      </trkpt>
      <trkpt lat="46.19275" lon="6.25081">
        <ele>433.4</ele>
        <time>2021-04-03T11:10:18Z</time>
      </trkpt>
      <trkpt lat="46.19275" lon="6.25082">
        <ele>433.4</ele>
        <time>2021-04-03T11:10:19Z</time>
      </trkpt>
      <trkpt lat="46.19275" lon="6.25083">
        <ele>433.4</ele>
        <time>2021-04-03T11:10:20Z</time>
      </trkpt>
      <trkpt lat="46.19276" lon="6.25083">
        <ele>433.6</ele>
        <time>2021-04-03T11:10:21Z</time>
      </trkpt>
      <trkpt lat="46.19276" lon="6.25083">
        <ele>433.4</ele>
        <time>2021-04-03T11:10:22Z</time>
      </trkpt>
      <trkpt lat="46.19277" lon="6.25085">
        <ele>433.4</ele>
        <time>2021-04-03T11:10:23Z</time>
      </trkpt>
      <trkpt lat="46.19277" lon="6.25087">
        <ele>433.6</ele>
        <time>2021-04-03T11:10:24Z</time>
      </trkpt>
      <trkpt lat="46.19277" lon="6.25088">
        <ele>433.6</ele>
        <time>2021-04-03T11:10:25Z</time>
      </trkpt>
      <trkpt lat="46.19277" lon="6.2509">
        <ele>433.8</ele>
        <time>2021-04-03T11:10:26Z</time>
      </trkpt>
      <trkpt lat="46.19277" lon="6.25091">
        <ele>434</ele>
        <time>2021-04-03T11:10:27Z</time>
      </trkpt>
      <trkpt lat="46.19277" lon="6.25091">
        <ele>434.2</ele>
        <time>2021-04-03T11:10:28Z</time>
      </trkpt>
      <trkpt lat="46.19278" lon="6.25091">
        <ele>434.2</ele>
        <time>2021-04-03T11:10:29Z</time>
      </trkpt>
      <trkpt lat="46.19278" lon="6.25092">
        <ele>434.2</ele>
        <time>2021-04-03T11:10:30Z</time>
      </trkpt>
      <trkpt lat="46.19278" lon="6.25093">
        <ele>434.2</ele>
        <time>2021-04-03T11:10:31Z</time>
      </trkpt>
      <trkpt lat="46.19279" lon="6.25095">
        <ele>434.2</ele>
        <time>2021-04-03T11:10:32Z</time>
      </trkpt>
      <trkpt lat="46.19279" lon="6.25097">
        <ele>434.2</ele>
        <time>2021-04-03T11:10:33Z</time>
      </trkpt>
      <trkpt lat="46.1928" lon="6.25098">
        <ele>434.4</ele>
        <time>2021-04-03T11:10:34Z</time>
      </trkpt>
      <trkpt lat="46.1928" lon="6.251">
        <ele>434.6</ele>
        <time>2021-04-03T11:10:35Z</time>
      </trkpt>
      <trkpt lat="46.19279" lon="6.25101">
        <ele>434.6</ele>
        <time>2021-04-03T11:10:36Z</time>
      </trkpt>
      <trkpt lat="46.19277" lon="6.25103">
        <ele>434.8</ele>
        <time>2021-04-03T11:10:37Z</time>
      </trkpt>
      <trkpt lat="46.19275" lon="6.25104">
        <ele>434.8</ele>
        <time>2021-04-03T11:10:38Z</time>
      </trkpt>
      <trkpt lat="46.19272" lon="6.25104">
        <ele>434.8</ele>
        <time>2021-04-03T11:10:39Z</time>
      </trkpt>
      <trkpt lat="46.19269" lon="6.25104">
        <ele>434.8</ele>
        <time>2021-04-03T11:10:40Z</time>
      </trkpt>
      <trkpt lat="46.19266" lon="6.25104">
        <ele>435</ele>
        <time>2021-04-03T11:10:41Z</time>
      </trkpt>
      <trkpt lat="46.19262" lon="6.25104">
        <ele>434.8</ele>
        <time>2021-04-03T11:10:42Z</time>
      </trkpt>
      <trkpt lat="46.19257" lon="6.25104">
        <ele>435</ele>
        <time>2021-04-03T11:10:43Z</time>
      </trkpt>
      <trkpt lat="46.19253" lon="6.25104">
        <ele>435</ele>
        <time>2021-04-03T11:10:44Z</time>
      </trkpt>
      <trkpt lat="46.19248" lon="6.25105">
        <ele>435</ele>
        <time>2021-04-03T11:10:45Z</time>
      </trkpt>
      <trkpt lat="46.19243" lon="6.25105">
        <ele>435</ele>
        <time>2021-04-03T11:10:46Z</time>
      </trkpt>
      <trkpt lat="46.19238" lon="6.25105">
        <ele>435</ele>
        <time>2021-04-03T11:10:47Z</time>
      </trkpt>
      <trkpt lat="46.19233" lon="6.25105">
        <ele>435</ele>
        <time>2021-04-03T11:10:48Z</time>
      </trkpt>
      <trkpt lat="46.19228" lon="6.25105">
        <ele>435</ele>
        <time>2021-04-03T11:10:49Z</time>
      </trkpt>
      <trkpt lat="46.19223" lon="6.25106">
        <ele>435.2</ele>
        <time>2021-04-03T11:10:50Z</time>
      </trkpt>
      <trkpt lat="46.19219" lon="6.25105">
        <ele>435.2</ele>
        <time>2021-04-03T11:10:51Z</time>
      </trkpt>
      <trkpt lat="46.19214" lon="6.25104">
        <ele>435.2</ele>
        <time>2021-04-03T11:10:52Z</time>
      </trkpt>
      <trkpt lat="46.19209" lon="6.25101">
        <ele>435.4</ele>
        <time>2021-04-03T11:10:53Z</time>
      </trkpt>
      <trkpt lat="46.19205" lon="6.25097">
        <ele>435.4</ele>
        <time>2021-04-03T11:10:54Z</time>
      </trkpt>
      <trkpt lat="46.19202" lon="6.25091">
        <ele>435.6</ele>
        <time>2021-04-03T11:10:55Z</time>
      </trkpt>
      <trkpt lat="46.19199" lon="6.25085">
        <ele>435.8</ele>
        <time>2021-04-03T11:10:56Z</time>
      </trkpt>
      <trkpt lat="46.19196" lon="6.25079">
        <ele>436.2</ele>
        <time>2021-04-03T11:10:57Z</time>
      </trkpt>
      <trkpt lat="46.19192" lon="6.25074">
        <ele>436.4</ele>
        <time>2021-04-03T11:10:58Z</time>
      </trkpt>
      <trkpt lat="46.19189" lon="6.25069">
        <ele>436.4</ele>
        <time>2021-04-03T11:10:59Z</time>
      </trkpt>
      <trkpt lat="46.19185" lon="6.25065">
        <ele>436.6</ele>
        <time>2021-04-03T11:11:00Z</time>
      </trkpt>
      <trkpt lat="46.1918" lon="6.25063">
        <ele>437</ele>
        <time>2021-04-03T11:11:01Z</time>
      </trkpt>
      <trkpt lat="46.19176" lon="6.25061">
        <ele>437.2</ele>
        <time>2021-04-03T11:11:02Z</time>
      </trkpt>
      <trkpt lat="46.19172" lon="6.25059">
        <ele>437.4</ele>
        <time>2021-04-03T11:11:03Z</time>
      </trkpt>
      <trkpt lat="46.19167" lon="6.25056">
        <ele>437.4</ele>
        <time>2021-04-03T11:11:04Z</time>
      </trkpt>
      <trkpt lat="46.19162" lon="6.25052">
        <ele>437.4</ele>
        <time>2021-04-03T11:11:05Z</time>
      </trkpt>
      <trkpt lat="46.19156" lon="6.25049">
        <ele>437.4</ele>
        <time>2021-04-03T11:11:06Z</time>
      </trkpt>
      <trkpt lat="46.19149" lon="6.25047">
        <ele>437.6</ele>
        <time>2021-04-03T11:11:07Z</time>
      </trkpt>
      <trkpt lat="46.19142" lon="6.25048">
        <ele>437.6</ele>
        <time>2021-04-03T11:11:08Z</time>
      </trkpt>
      <trkpt lat="46.19136" lon="6.25051">
        <ele>437.6</ele>
        <time>2021-04-03T11:11:09Z</time>
      </trkpt>
      <trkpt lat="46.1913" lon="6.25056">
        <ele>437.6</ele>
        <time>2021-04-03T11:11:10Z</time>
      </trkpt>
      <trkpt lat="46.19122" lon="6.2507">
        <ele>437.8</ele>
        <time>2021-04-03T11:11:12Z</time>
      </trkpt>
      <trkpt lat="46.19118" lon="6.25085">
        <ele>437.8</ele>
        <time>2021-04-03T11:11:14Z</time>
      </trkpt>
      <trkpt lat="46.19114" lon="6.25093">
        <ele>437.8</ele>
        <time>2021-04-03T11:11:15Z</time>
      </trkpt>
      <trkpt lat="46.1911" lon="6.25099">
        <ele>437.8</ele>
        <time>2021-04-03T11:11:16Z</time>
      </trkpt>
      <trkpt lat="46.19105" lon="6.25105">
        <ele>438</ele>
        <time>2021-04-03T11:11:17Z</time>
      </trkpt>
      <trkpt lat="46.19098" lon="6.25109">
        <ele>437.8</ele>
        <time>2021-04-03T11:11:18Z</time>
      </trkpt>
      <trkpt lat="46.19091" lon="6.25112">
        <ele>437.8</ele>
        <time>2021-04-03T11:11:19Z</time>
      </trkpt>
      <trkpt lat="46.19083" lon="6.25114">
        <ele>437.8</ele>
        <time>2021-04-03T11:11:20Z</time>
      </trkpt>
      <trkpt lat="46.19074" lon="6.25114">
        <ele>437.8</ele>
        <time>2021-04-03T11:11:21Z</time>
      </trkpt>
      <trkpt lat="46.19067" lon="6.25112">
        <ele>437.8</ele>
        <time>2021-04-03T11:11:22Z</time>
      </trkpt>
      <trkpt lat="46.19059" lon="6.2511">
        <ele>437.8</ele>
        <time>2021-04-03T11:11:23Z</time>
      </trkpt>
      <trkpt lat="46.19053" lon="6.25106">
        <ele>437.6</ele>
        <time>2021-04-03T11:11:24Z</time>
      </trkpt>
      <trkpt lat="46.19048" lon="6.25103">
        <ele>437.6</ele>
        <time>2021-04-03T11:11:25Z</time>
      </trkpt>
      <trkpt lat="46.19043" lon="6.25098">
        <ele>437.4</ele>
        <time>2021-04-03T11:11:26Z</time>
      </trkpt>
      <trkpt lat="46.19039" lon="6.25093">
        <ele>436.8</ele>
        <time>2021-04-03T11:11:27Z</time>
      </trkpt>
      <trkpt lat="46.19035" lon="6.25087">
        <ele>436.4</ele>
        <time>2021-04-03T11:11:28Z</time>
      </trkpt>
      <trkpt lat="46.1903" lon="6.25083">
        <ele>436.2</ele>
        <time>2021-04-03T11:11:29Z</time>
      </trkpt>
      <trkpt lat="46.19025" lon="6.25081">
        <ele>436.2</ele>
        <time>2021-04-03T11:11:30Z</time>
      </trkpt>
      <trkpt lat="46.1902" lon="6.2508">
        <ele>436</ele>
        <time>2021-04-03T11:11:31Z</time>
      </trkpt>
      <trkpt lat="46.19015" lon="6.25078">
        <ele>436</ele>
        <time>2021-04-03T11:11:32Z</time>
      </trkpt>
      <trkpt lat="46.1901" lon="6.25076">
        <ele>435.8</ele>
        <time>2021-04-03T11:11:33Z</time>
      </trkpt>
      <trkpt lat="46.19005" lon="6.25073">
        <ele>436</ele>
        <time>2021-04-03T11:11:34Z</time>
      </trkpt>
      <trkpt lat="46.19" lon="6.25071">
        <ele>435.8</ele>
        <time>2021-04-03T11:11:35Z</time>
      </trkpt>
      <trkpt lat="46.18994" lon="6.25069">
        <ele>436</ele>
        <time>2021-04-03T11:11:36Z</time>
      </trkpt>
      <trkpt lat="46.18989" lon="6.25067">
        <ele>436</ele>
        <time>2021-04-03T11:11:37Z</time>
      </trkpt>
      <trkpt lat="46.18984" lon="6.25066">
        <ele>436</ele>
        <time>2021-04-03T11:11:38Z</time>
      </trkpt>
      <trkpt lat="46.18978" lon="6.25065">
        <ele>436</ele>
        <time>2021-04-03T11:11:39Z</time>
      </trkpt>
      <trkpt lat="46.18973" lon="6.25064">
        <ele>436</ele>
        <time>2021-04-03T11:11:40Z</time>
      </trkpt>
      <trkpt lat="46.18967" lon="6.25064">
        <ele>436.4</ele>
        <time>2021-04-03T11:11:41Z</time>
      </trkpt>
      <trkpt lat="46.18962" lon="6.25063">
        <ele>437</ele>
        <time>2021-04-03T11:11:42Z</time>
      </trkpt>
      <trkpt lat="46.18957" lon="6.25063">
        <ele>437.6</ele>
        <time>2021-04-03T11:11:43Z</time>
      </trkpt>
      <trkpt lat="46.18951" lon="6.25063">
        <ele>438</ele>
        <time>2021-04-03T11:11:44Z</time>
      </trkpt>
      <trkpt lat="46.18946" lon="6.25064">
        <ele>438.2</ele>
        <time>2021-04-03T11:11:45Z</time>
      </trkpt>
      <trkpt lat="46.1894" lon="6.25065">
        <ele>438.4</ele>
        <time>2021-04-03T11:11:46Z</time>
      </trkpt>
      <trkpt lat="46.18935" lon="6.25066">
        <ele>438.8</ele>
        <time>2021-04-03T11:11:47Z</time>
      </trkpt>
      <trkpt lat="46.1893" lon="6.25067">
        <ele>439</ele>
        <time>2021-04-03T11:11:48Z</time>
      </trkpt>
      <trkpt lat="46.18924" lon="6.25068">
        <ele>439.2</ele>
        <time>2021-04-03T11:11:49Z</time>
      </trkpt>
      <trkpt lat="46.18918" lon="6.25069">
        <ele>439.8</ele>
        <time>2021-04-03T11:11:50Z</time>
      </trkpt>
      <trkpt lat="46.18913" lon="6.2507">
        <ele>440.4</ele>
        <time>2021-04-03T11:11:51Z</time>
      </trkpt>
      <trkpt lat="46.18907" lon="6.25071">
        <ele>440.6</ele>
        <time>2021-04-03T11:11:52Z</time>
      </trkpt>
      <trkpt lat="46.18901" lon="6.25072">
        <ele>440.8</ele>
        <time>2021-04-03T11:11:53Z</time>
      </trkpt>
      <trkpt lat="46.18895" lon="6.25072">
        <ele>441</ele>
        <time>2021-04-03T11:11:54Z</time>
      </trkpt>
      <trkpt lat="46.18889" lon="6.25073">
        <ele>441</ele>
        <time>2021-04-03T11:11:55Z</time>
      </trkpt>
      <trkpt lat="46.18883" lon="6.25074">
        <ele>441</ele>
        <time>2021-04-03T11:11:56Z</time>
      </trkpt>
      <trkpt lat="46.18878" lon="6.25075">
        <ele>441.2</ele>
        <time>2021-04-03T11:11:57Z</time>
      </trkpt>
      <trkpt lat="46.18872" lon="6.25075">
        <ele>441.2</ele>
        <time>2021-04-03T11:11:58Z</time>
      </trkpt>
      <trkpt lat="46.18867" lon="6.25075">
        <ele>441.2</ele>
        <time>2021-04-03T11:11:59Z</time>
      </trkpt>
      <trkpt lat="46.18861" lon="6.25074">
        <ele>441.4</ele>
        <time>2021-04-03T11:12:00Z</time>
      </trkpt>
      <trkpt lat="46.18855" lon="6.25074">
        <ele>441.4</ele>
        <time>2021-04-03T11:12:01Z</time>
      </trkpt>
      <trkpt lat="46.1885" lon="6.25074">
        <ele>441.4</ele>
        <time>2021-04-03T11:12:02Z</time>
      </trkpt>
      <trkpt lat="46.18844" lon="6.25074">
        <ele>441.6</ele>
        <time>2021-04-03T11:12:03Z</time>
      </trkpt>
      <trkpt lat="46.18838" lon="6.25074">
        <ele>441.6</ele>
        <time>2021-04-03T11:12:04Z</time>
      </trkpt>
      <trkpt lat="46.18832" lon="6.25075">
        <ele>441.6</ele>
        <time>2021-04-03T11:12:05Z</time>
      </trkpt>
      <trkpt lat="46.18826" lon="6.25075">
        <ele>441.8</ele>
        <time>2021-04-03T11:12:06Z</time>
      </trkpt>
      <trkpt lat="46.1882" lon="6.25075">
        <ele>441.8</ele>
        <time>2021-04-03T11:12:07Z</time>
      </trkpt>
      <trkpt lat="46.18814" lon="6.25076">
        <ele>441.8</ele>
        <time>2021-04-03T11:12:08Z</time>
      </trkpt>
      <trkpt lat="46.18809" lon="6.25076">
        <ele>442</ele>
        <time>2021-04-03T11:12:09Z</time>
      </trkpt>
      <trkpt lat="46.18803" lon="6.25076">
        <ele>442</ele>
        <time>2021-04-03T11:12:10Z</time>
      </trkpt>
      <trkpt lat="46.18797" lon="6.25076">
        <ele>442.2</ele>
        <time>2021-04-03T11:12:11Z</time>
      </trkpt>
      <trkpt lat="46.18791" lon="6.25077">
        <ele>442.2</ele>
        <time>2021-04-03T11:12:12Z</time>
      </trkpt>
      <trkpt lat="46.18785" lon="6.25078">
        <ele>442.6</ele>
        <time>2021-04-03T11:12:13Z</time>
      </trkpt>
      <trkpt lat="46.18779" lon="6.25079">
        <ele>442.6</ele>
        <time>2021-04-03T11:12:14Z</time>
      </trkpt>
      <trkpt lat="46.18773" lon="6.2508">
        <ele>442.6</ele>
        <time>2021-04-03T11:12:15Z</time>
      </trkpt>
      <trkpt lat="46.18767" lon="6.25081">
        <ele>442.6</ele>
        <time>2021-04-03T11:12:16Z</time>
      </trkpt>
      <trkpt lat="46.18761" lon="6.25083">
        <ele>442.8</ele>
        <time>2021-04-03T11:12:17Z</time>
      </trkpt>
      <trkpt lat="46.18755" lon="6.25085">
        <ele>443</ele>
        <time>2021-04-03T11:12:18Z</time>
      </trkpt>
      <trkpt lat="46.1875" lon="6.25087">
        <ele>443</ele>
        <time>2021-04-03T11:12:19Z</time>
      </trkpt>
      <trkpt lat="46.18744" lon="6.25089">
        <ele>443</ele>
        <time>2021-04-03T11:12:20Z</time>
      </trkpt>
      <trkpt lat="46.18738" lon="6.25091">
        <ele>443.2</ele>
        <time>2021-04-03T11:12:21Z</time>
      </trkpt>
      <trkpt lat="46.18733" lon="6.25093">
        <ele>443.4</ele>
        <time>2021-04-03T11:12:22Z</time>
      </trkpt>
      <trkpt lat="46.18727" lon="6.25096">
        <ele>443.4</ele>
        <time>2021-04-03T11:12:23Z</time>
      </trkpt>
      <trkpt lat="46.18721" lon="6.25098">
        <ele>443.2</ele>
        <time>2021-04-03T11:12:24Z</time>
      </trkpt>
      <trkpt lat="46.18715" lon="6.251">
        <ele>443.4</ele>
        <time>2021-04-03T11:12:25Z</time>
      </trkpt>
      <trkpt lat="46.1871" lon="6.25103">
        <ele>443.4</ele>
        <time>2021-04-03T11:12:26Z</time>
      </trkpt>
      <trkpt lat="46.18704" lon="6.25105">
        <ele>443.4</ele>
        <time>2021-04-03T11:12:27Z</time>
      </trkpt>
      <trkpt lat="46.18698" lon="6.25108">
        <ele>443.6</ele>
        <time>2021-04-03T11:12:28Z</time>
      </trkpt>
      <trkpt lat="46.18692" lon="6.25111">
        <ele>443.4</ele>
        <time>2021-04-03T11:12:29Z</time>
      </trkpt>
      <trkpt lat="46.18687" lon="6.25113">
        <ele>443.6</ele>
        <time>2021-04-03T11:12:30Z</time>
      </trkpt>
      <trkpt lat="46.18682" lon="6.25116">
        <ele>444</ele>
        <time>2021-04-03T11:12:31Z</time>
      </trkpt>
      <trkpt lat="46.18676" lon="6.25118">
        <ele>444.6</ele>
        <time>2021-04-03T11:12:32Z</time>
      </trkpt>
      <trkpt lat="46.1867" lon="6.2512">
        <ele>444.8</ele>
        <time>2021-04-03T11:12:33Z</time>
      </trkpt>
      <trkpt lat="46.18664" lon="6.25122">
        <ele>445.2</ele>
        <time>2021-04-03T11:12:34Z</time>
      </trkpt>
      <trkpt lat="46.18659" lon="6.25124">
        <ele>445.2</ele>
        <time>2021-04-03T11:12:35Z</time>
      </trkpt>
      <trkpt lat="46.18653" lon="6.25126">
        <ele>445.4</ele>
        <time>2021-04-03T11:12:36Z</time>
      </trkpt>
      <trkpt lat="46.18648" lon="6.25128">
        <ele>445.6</ele>
        <time>2021-04-03T11:12:37Z</time>
      </trkpt>
      <trkpt lat="46.18643" lon="6.25131">
        <ele>445.8</ele>
        <time>2021-04-03T11:12:38Z</time>
      </trkpt>
      <trkpt lat="46.18638" lon="6.25131">
        <ele>446</ele>
        <time>2021-04-03T11:12:39Z</time>
      </trkpt>
      <trkpt lat="46.18632" lon="6.25133">
        <ele>446.4</ele>
        <time>2021-04-03T11:12:40Z</time>
      </trkpt>
      <trkpt lat="46.18627" lon="6.25136">
        <ele>446.6</ele>
        <time>2021-04-03T11:12:41Z</time>
      </trkpt>
      <trkpt lat="46.18621" lon="6.25138">
        <ele>446.8</ele>
        <time>2021-04-03T11:12:42Z</time>
      </trkpt>
      <trkpt lat="46.18616" lon="6.2514">
        <ele>447</ele>
        <time>2021-04-03T11:12:43Z</time>
      </trkpt>
      <trkpt lat="46.1861" lon="6.25142">
        <ele>447</ele>
        <time>2021-04-03T11:12:44Z</time>
      </trkpt>
      <trkpt lat="46.18604" lon="6.25143">
        <ele>447</ele>
        <time>2021-04-03T11:12:45Z</time>
      </trkpt>
      <trkpt lat="46.18599" lon="6.25144">
        <ele>447.2</ele>
        <time>2021-04-03T11:12:46Z</time>
      </trkpt>
      <trkpt lat="46.18593" lon="6.25145">
        <ele>447.4</ele>
        <time>2021-04-03T11:12:47Z</time>
      </trkpt>
      <trkpt lat="46.18588" lon="6.25146">
        <ele>447.4</ele>
        <time>2021-04-03T11:12:48Z</time>
      </trkpt>
      <trkpt lat="46.18583" lon="6.25147">
        <ele>447.6</ele>
        <time>2021-04-03T11:12:49Z</time>
      </trkpt>
      <trkpt lat="46.18579" lon="6.25147">
        <ele>447.6</ele>
        <time>2021-04-03T11:12:50Z</time>
      </trkpt>
      <trkpt lat="46.18574" lon="6.25148">
        <ele>447.6</ele>
        <time>2021-04-03T11:12:51Z</time>
      </trkpt>
      <trkpt lat="46.18569" lon="6.25148">
        <ele>447.8</ele>
        <time>2021-04-03T11:12:52Z</time>
      </trkpt>
      <trkpt lat="46.18563" lon="6.25149">
        <ele>448.2</ele>
        <time>2021-04-03T11:12:53Z</time>
      </trkpt>
      <trkpt lat="46.18558" lon="6.25151">
        <ele>448.6</ele>
        <time>2021-04-03T11:12:54Z</time>
      </trkpt>
      <trkpt lat="46.18553" lon="6.25152">
        <ele>448.8</ele>
        <time>2021-04-03T11:12:55Z</time>
      </trkpt>
      <trkpt lat="46.18547" lon="6.25154">
        <ele>449</ele>
        <time>2021-04-03T11:12:56Z</time>
      </trkpt>
      <trkpt lat="46.18542" lon="6.25155">
        <ele>449</ele>
        <time>2021-04-03T11:12:57Z</time>
      </trkpt>
      <trkpt lat="46.18537" lon="6.25157">
        <ele>449.2</ele>
        <time>2021-04-03T11:12:58Z</time>
      </trkpt>
      <trkpt lat="46.18532" lon="6.25158">
        <ele>449.2</ele>
        <time>2021-04-03T11:12:59Z</time>
      </trkpt>
      <trkpt lat="46.18526" lon="6.25159">
        <ele>449.2</ele>
        <time>2021-04-03T11:13:00Z</time>
      </trkpt>
      <trkpt lat="46.18521" lon="6.25161">
        <ele>449.2</ele>
        <time>2021-04-03T11:13:01Z</time>
      </trkpt>
      <trkpt lat="46.18515" lon="6.25162">
        <ele>449.2</ele>
        <time>2021-04-03T11:13:02Z</time>
      </trkpt>
      <trkpt lat="46.1851" lon="6.25165">
        <ele>449.4</ele>
        <time>2021-04-03T11:13:03Z</time>
      </trkpt>
      <trkpt lat="46.18504" lon="6.25167">
        <ele>449.4</ele>
        <time>2021-04-03T11:13:04Z</time>
      </trkpt>
      <trkpt lat="46.18498" lon="6.25168">
        <ele>449.4</ele>
        <time>2021-04-03T11:13:05Z</time>
      </trkpt>
      <trkpt lat="46.18493" lon="6.2517">
        <ele>449.6</ele>
        <time>2021-04-03T11:13:06Z</time>
      </trkpt>
      <trkpt lat="46.18487" lon="6.25172">
        <ele>449.4</ele>
        <time>2021-04-03T11:13:07Z</time>
      </trkpt>
      <trkpt lat="46.18482" lon="6.25174">
        <ele>449.6</ele>
        <time>2021-04-03T11:13:08Z</time>
      </trkpt>
      <trkpt lat="46.18476" lon="6.25176">
        <ele>449.6</ele>
        <time>2021-04-03T11:13:09Z</time>
      </trkpt>
      <trkpt lat="46.18471" lon="6.25177">
        <ele>449.8</ele>
        <time>2021-04-03T11:13:10Z</time>
      </trkpt>
      <trkpt lat="46.18466" lon="6.25179">
        <ele>449.8</ele>
        <time>2021-04-03T11:13:11Z</time>
      </trkpt>
      <trkpt lat="46.1846" lon="6.2518">
        <ele>449.8</ele>
        <time>2021-04-03T11:13:12Z</time>
      </trkpt>
      <trkpt lat="46.1845" lon="6.25184">
        <ele>450</ele>
        <time>2021-04-03T11:13:14Z</time>
      </trkpt>
      <trkpt lat="46.18444" lon="6.25186">
        <ele>450</ele>
        <time>2021-04-03T11:13:15Z</time>
      </trkpt>
      <trkpt lat="46.18439" lon="6.25188">
        <ele>450</ele>
        <time>2021-04-03T11:13:16Z</time>
      </trkpt>
      <trkpt lat="46.18435" lon="6.2519">
        <ele>450.4</ele>
        <time>2021-04-03T11:13:17Z</time>
      </trkpt>
      <trkpt lat="46.1843" lon="6.25192">
        <ele>450.6</ele>
        <time>2021-04-03T11:13:18Z</time>
      </trkpt>
      <trkpt lat="46.18424" lon="6.25195">
        <ele>450.6</ele>
        <time>2021-04-03T11:13:19Z</time>
      </trkpt>
      <trkpt lat="46.18419" lon="6.25198">
        <ele>450.6</ele>
        <time>2021-04-03T11:13:20Z</time>
      </trkpt>
      <trkpt lat="46.18413" lon="6.25201">
        <ele>450.6</ele>
        <time>2021-04-03T11:13:21Z</time>
      </trkpt>
      <trkpt lat="46.18408" lon="6.25204">
        <ele>450.8</ele>
        <time>2021-04-03T11:13:22Z</time>
      </trkpt>
      <trkpt lat="46.18403" lon="6.25207">
        <ele>450.8</ele>
        <time>2021-04-03T11:13:23Z</time>
      </trkpt>
      <trkpt lat="46.18398" lon="6.2521">
        <ele>451.2</ele>
        <time>2021-04-03T11:13:24Z</time>
      </trkpt>
      <trkpt lat="46.18393" lon="6.25213">
        <ele>451</ele>
        <time>2021-04-03T11:13:25Z</time>
      </trkpt>
      <trkpt lat="46.18388" lon="6.25216">
        <ele>451.4</ele>
        <time>2021-04-03T11:13:26Z</time>
      </trkpt>
      <trkpt lat="46.18383" lon="6.2522">
        <ele>451.8</ele>
        <time>2021-04-03T11:13:27Z</time>
      </trkpt>
      <trkpt lat="46.18378" lon="6.25224">
        <ele>451.8</ele>
        <time>2021-04-03T11:13:28Z</time>
      </trkpt>
      <trkpt lat="46.18373" lon="6.25227">
        <ele>452</ele>
        <time>2021-04-03T11:13:29Z</time>
      </trkpt>
      <trkpt lat="46.18369" lon="6.2523">
        <ele>452.2</ele>
        <time>2021-04-03T11:13:30Z</time>
      </trkpt>
      <trkpt lat="46.18364" lon="6.25233">
        <ele>452.2</ele>
        <time>2021-04-03T11:13:31Z</time>
      </trkpt>
      <trkpt lat="46.1836" lon="6.25236">
        <ele>452.2</ele>
        <time>2021-04-03T11:13:32Z</time>
      </trkpt>
      <trkpt lat="46.18355" lon="6.25239">
        <ele>452.2</ele>
        <time>2021-04-03T11:13:33Z</time>
      </trkpt>
      <trkpt lat="46.18351" lon="6.25242">
        <ele>452.4</ele>
        <time>2021-04-03T11:13:34Z</time>
      </trkpt>
      <trkpt lat="46.18346" lon="6.25245">
        <ele>452.6</ele>
        <time>2021-04-03T11:13:35Z</time>
      </trkpt>
      <trkpt lat="46.18342" lon="6.25248">
        <ele>453</ele>
        <time>2021-04-03T11:13:36Z</time>
      </trkpt>
      <trkpt lat="46.18337" lon="6.25252">
        <ele>453.2</ele>
        <time>2021-04-03T11:13:37Z</time>
      </trkpt>
      <trkpt lat="46.18333" lon="6.25255">
        <ele>453.2</ele>
        <time>2021-04-03T11:13:38Z</time>
      </trkpt>
      <trkpt lat="46.18329" lon="6.25258">
        <ele>453.4</ele>
        <time>2021-04-03T11:13:39Z</time>
      </trkpt>
      <trkpt lat="46.18324" lon="6.2526">
        <ele>453.6</ele>
        <time>2021-04-03T11:13:40Z</time>
      </trkpt>
      <trkpt lat="46.1832" lon="6.25263">
        <ele>453.6</ele>
        <time>2021-04-03T11:13:41Z</time>
      </trkpt>
      <trkpt lat="46.18316" lon="6.25266">
        <ele>454</ele>
        <time>2021-04-03T11:13:42Z</time>
      </trkpt>
      <trkpt lat="46.18311" lon="6.25269">
        <ele>454.2</ele>
        <time>2021-04-03T11:13:43Z</time>
      </trkpt>
      <trkpt lat="46.18307" lon="6.25272">
        <ele>454.4</ele>
        <time>2021-04-03T11:13:44Z</time>
      </trkpt>
      <trkpt lat="46.18303" lon="6.25275">
        <ele>454.6</ele>
        <time>2021-04-03T11:13:45Z</time>
      </trkpt>
      <trkpt lat="46.183" lon="6.25277">
        <ele>454.8</ele>
        <time>2021-04-03T11:13:46Z</time>
      </trkpt>
      <trkpt lat="46.18298" lon="6.25278">
        <ele>455</ele>
        <time>2021-04-03T11:13:47Z</time>
      </trkpt>
      <trkpt lat="46.18297" lon="6.25279">
        <ele>455.4</ele>
        <time>2021-04-03T11:13:48Z</time>
      </trkpt>
      <trkpt lat="46.18297" lon="6.25279">
        <ele>455.6</ele>
        <time>2021-04-03T11:13:49Z</time>
      </trkpt>
      <trkpt lat="46.18297" lon="6.25278">
        <ele>456.2</ele>
        <time>2021-04-03T11:13:50Z</time>
      </trkpt>
      <trkpt lat="46.18297" lon="6.25278">
        <ele>456.6</ele>
        <time>2021-04-03T11:13:51Z</time>
      </trkpt>
      <trkpt lat="46.18297" lon="6.25278">
        <ele>457.4</ele>
        <time>2021-04-03T11:13:53Z</time>
      </trkpt>
      <trkpt lat="46.18297" lon="6.25278">
        <ele>457.6</ele>
        <time>2021-04-03T11:13:54Z</time>
      </trkpt>
      <trkpt lat="46.18296" lon="6.25279">
        <ele>458</ele>
        <time>2021-04-03T11:13:55Z</time>
      </trkpt>
      <trkpt lat="46.18295" lon="6.2528">
        <ele>458.2</ele>
        <time>2021-04-03T11:13:56Z</time>
      </trkpt>
      <trkpt lat="46.18293" lon="6.25281">
        <ele>458.4</ele>
        <time>2021-04-03T11:13:57Z</time>
      </trkpt>
      <trkpt lat="46.18291" lon="6.25282">
        <ele>458.6</ele>
        <time>2021-04-03T11:13:58Z</time>
      </trkpt>
      <trkpt lat="46.18288" lon="6.25284">
        <ele>458.8</ele>
        <time>2021-04-03T11:13:59Z</time>
      </trkpt>
      <trkpt lat="46.18285" lon="6.25286">
        <ele>459</ele>
        <time>2021-04-03T11:14:00Z</time>
      </trkpt>
      <trkpt lat="46.18281" lon="6.25289">
        <ele>459.2</ele>
        <time>2021-04-03T11:14:01Z</time>
      </trkpt>
      <trkpt lat="46.18278" lon="6.25291">
        <ele>459.2</ele>
        <time>2021-04-03T11:14:02Z</time>
      </trkpt>
      <trkpt lat="46.18273" lon="6.25294">
        <ele>459.2</ele>
        <time>2021-04-03T11:14:03Z</time>
      </trkpt>
      <trkpt lat="46.18269" lon="6.25297">
        <ele>459.2</ele>
        <time>2021-04-03T11:14:04Z</time>
      </trkpt>
      <trkpt lat="46.18265" lon="6.253">
        <ele>459.4</ele>
        <time>2021-04-03T11:14:05Z</time>
      </trkpt>
      <trkpt lat="46.18261" lon="6.25303">
        <ele>459.6</ele>
        <time>2021-04-03T11:14:06Z</time>
      </trkpt>
      <trkpt lat="46.18257" lon="6.25306">
        <ele>459.4</ele>
        <time>2021-04-03T11:14:07Z</time>
      </trkpt>
      <trkpt lat="46.18252" lon="6.25309">
        <ele>459.6</ele>
        <time>2021-04-03T11:14:08Z</time>
      </trkpt>
      <trkpt lat="46.18248" lon="6.25311">
        <ele>459.6</ele>
        <time>2021-04-03T11:14:09Z</time>
      </trkpt>
      <trkpt lat="46.18243" lon="6.25314">
        <ele>459.8</ele>
        <time>2021-04-03T11:14:10Z</time>
      </trkpt>
      <trkpt lat="46.18238" lon="6.25316">
        <ele>460</ele>
        <time>2021-04-03T11:14:11Z</time>
      </trkpt>
      <trkpt lat="46.18233" lon="6.25319">
        <ele>459.8</ele>
        <time>2021-04-03T11:14:12Z</time>
      </trkpt>
      <trkpt lat="46.18228" lon="6.25323">
        <ele>460.2</ele>
        <time>2021-04-03T11:14:13Z</time>
      </trkpt>
      <trkpt lat="46.18223" lon="6.25326">
        <ele>460.2</ele>
        <time>2021-04-03T11:14:14Z</time>
      </trkpt>
      <trkpt lat="46.18218" lon="6.25329">
        <ele>460.2</ele>
        <time>2021-04-03T11:14:15Z</time>
      </trkpt>
      <trkpt lat="46.18213" lon="6.25332">
        <ele>460.2</ele>
        <time>2021-04-03T11:14:16Z</time>
      </trkpt>
      <trkpt lat="46.18208" lon="6.25336">
        <ele>460.4</ele>
        <time>2021-04-03T11:14:17Z</time>
      </trkpt>
      <trkpt lat="46.18202" lon="6.25339">
        <ele>460.4</ele>
        <time>2021-04-03T11:14:18Z</time>
      </trkpt>
      <trkpt lat="46.18197" lon="6.25343">
        <ele>460.6</ele>
        <time>2021-04-03T11:14:19Z</time>
      </trkpt>
      <trkpt lat="46.18192" lon="6.25346">
        <ele>460.6</ele>
        <time>2021-04-03T11:14:20Z</time>
      </trkpt>
      <trkpt lat="46.18187" lon="6.25349">
        <ele>460.6</ele>
        <time>2021-04-03T11:14:21Z</time>
      </trkpt>
      <trkpt lat="46.18182" lon="6.25353">
        <ele>460.6</ele>
        <time>2021-04-03T11:14:22Z</time>
      </trkpt>
      <trkpt lat="46.18177" lon="6.25356">
        <ele>460.8</ele>
        <time>2021-04-03T11:14:23Z</time>
      </trkpt>
      <trkpt lat="46.18172" lon="6.2536">
        <ele>460.6</ele>
        <time>2021-04-03T11:14:24Z</time>
      </trkpt>
      <trkpt lat="46.18167" lon="6.25363">
        <ele>460.8</ele>
        <time>2021-04-03T11:14:25Z</time>
      </trkpt>
      <trkpt lat="46.18162" lon="6.25367">
        <ele>460.8</ele>
        <time>2021-04-03T11:14:26Z</time>
      </trkpt>
      <trkpt lat="46.18157" lon="6.2537">
        <ele>460.8</ele>
        <time>2021-04-03T11:14:27Z</time>
      </trkpt>
      <trkpt lat="46.18152" lon="6.25373">
        <ele>461</ele>
        <time>2021-04-03T11:14:28Z</time>
      </trkpt>
      <trkpt lat="46.18147" lon="6.25376">
        <ele>460.8</ele>
        <time>2021-04-03T11:14:29Z</time>
      </trkpt>
      <trkpt lat="46.18141" lon="6.25379">
        <ele>461</ele>
        <time>2021-04-03T11:14:30Z</time>
      </trkpt>
      <trkpt lat="46.18136" lon="6.25382">
        <ele>461</ele>
        <time>2021-04-03T11:14:31Z</time>
      </trkpt>
      <trkpt lat="46.18131" lon="6.25385">
        <ele>461</ele>
        <time>2021-04-03T11:14:32Z</time>
      </trkpt>
      <trkpt lat="46.18126" lon="6.25388">
        <ele>461</ele>
        <time>2021-04-03T11:14:33Z</time>
      </trkpt>
      <trkpt lat="46.1812" lon="6.25392">
        <ele>461</ele>
        <time>2021-04-03T11:14:34Z</time>
      </trkpt>
      <trkpt lat="46.18115" lon="6.25395">
        <ele>461.2</ele>
        <time>2021-04-03T11:14:35Z</time>
      </trkpt>
      <trkpt lat="46.1811" lon="6.25398">
        <ele>461.2</ele>
        <time>2021-04-03T11:14:36Z</time>
      </trkpt>
      <trkpt lat="46.18105" lon="6.25402">
        <ele>461.4</ele>
        <time>2021-04-03T11:14:37Z</time>
      </trkpt>
      <trkpt lat="46.181" lon="6.25406">
        <ele>461.6</ele>
        <time>2021-04-03T11:14:38Z</time>
      </trkpt>
      <trkpt lat="46.18095" lon="6.2541">
        <ele>461.8</ele>
        <time>2021-04-03T11:14:39Z</time>
      </trkpt>
      <trkpt lat="46.1809" lon="6.25414">
        <ele>461.8</ele>
        <time>2021-04-03T11:14:40Z</time>
      </trkpt>
      <trkpt lat="46.18086" lon="6.25418">
        <ele>462</ele>
        <time>2021-04-03T11:14:41Z</time>
      </trkpt>
      <trkpt lat="46.18082" lon="6.25421">
        <ele>462.2</ele>
        <time>2021-04-03T11:14:42Z</time>
      </trkpt>
      <trkpt lat="46.18078" lon="6.25426">
        <ele>462.4</ele>
        <time>2021-04-03T11:14:43Z</time>
      </trkpt>
      <trkpt lat="46.18074" lon="6.2543">
        <ele>462.4</ele>
        <time>2021-04-03T11:14:44Z</time>
      </trkpt>
      <trkpt lat="46.18071" lon="6.25435">
        <ele>462.6</ele>
        <time>2021-04-03T11:14:45Z</time>
      </trkpt>
      <trkpt lat="46.18067" lon="6.25439">
        <ele>462.8</ele>
        <time>2021-04-03T11:14:46Z</time>
      </trkpt>
      <trkpt lat="46.18064" lon="6.25443">
        <ele>462.8</ele>
        <time>2021-04-03T11:14:47Z</time>
      </trkpt>
      <trkpt lat="46.18061" lon="6.25448">
        <ele>463.2</ele>
        <time>2021-04-03T11:14:48Z</time>
      </trkpt>
      <trkpt lat="46.18058" lon="6.25453">
        <ele>463.2</ele>
        <time>2021-04-03T11:14:49Z</time>
      </trkpt>
      <trkpt lat="46.18055" lon="6.25457">
        <ele>463.2</ele>
        <time>2021-04-03T11:14:50Z</time>
      </trkpt>
      <trkpt lat="46.18052" lon="6.25462">
        <ele>463.6</ele>
        <time>2021-04-03T11:14:51Z</time>
      </trkpt>
      <trkpt lat="46.18049" lon="6.25466">
        <ele>464</ele>
        <time>2021-04-03T11:14:52Z</time>
      </trkpt>
      <trkpt lat="46.18046" lon="6.25471">
        <ele>464.4</ele>
        <time>2021-04-03T11:14:53Z</time>
      </trkpt>
      <trkpt lat="46.18043" lon="6.25475">
        <ele>464.6</ele>
        <time>2021-04-03T11:14:54Z</time>
      </trkpt>
      <trkpt lat="46.1804" lon="6.2548">
        <ele>464.8</ele>
        <time>2021-04-03T11:14:55Z</time>
      </trkpt>
      <trkpt lat="46.18037" lon="6.25484">
        <ele>465</ele>
        <time>2021-04-03T11:14:56Z</time>
      </trkpt>
      <trkpt lat="46.18034" lon="6.25489">
        <ele>465.4</ele>
        <time>2021-04-03T11:14:57Z</time>
      </trkpt>
      <trkpt lat="46.1803" lon="6.25493">
        <ele>465.6</ele>
        <time>2021-04-03T11:14:58Z</time>
      </trkpt>
      <trkpt lat="46.18027" lon="6.25497">
        <ele>465.8</ele>
        <time>2021-04-03T11:14:59Z</time>
      </trkpt>
      <trkpt lat="46.18023" lon="6.25501">
        <ele>466.2</ele>
        <time>2021-04-03T11:15:00Z</time>
      </trkpt>
      <trkpt lat="46.18019" lon="6.25504">
        <ele>466.4</ele>
        <time>2021-04-03T11:15:01Z</time>
      </trkpt>
      <trkpt lat="46.18016" lon="6.25508">
        <ele>466.8</ele>
        <time>2021-04-03T11:15:02Z</time>
      </trkpt>
      <trkpt lat="46.18012" lon="6.25512">
        <ele>467.2</ele>
        <time>2021-04-03T11:15:03Z</time>
      </trkpt>
      <trkpt lat="46.18007" lon="6.25515">
        <ele>467.4</ele>
        <time>2021-04-03T11:15:04Z</time>
      </trkpt>
      <trkpt lat="46.18003" lon="6.25518">
        <ele>467.4</ele>
        <time>2021-04-03T11:15:05Z</time>
      </trkpt>
      <trkpt lat="46.17999" lon="6.25521">
        <ele>467.8</ele>
        <time>2021-04-03T11:15:06Z</time>
      </trkpt>
      <trkpt lat="46.17994" lon="6.25524">
        <ele>468.2</ele>
        <time>2021-04-03T11:15:07Z</time>
      </trkpt>
      <trkpt lat="46.17989" lon="6.25527">
        <ele>468.2</ele>
        <time>2021-04-03T11:15:08Z</time>
      </trkpt>
      <trkpt lat="46.17984" lon="6.2553">
        <ele>468.2</ele>
        <time>2021-04-03T11:15:09Z</time>
      </trkpt>
      <trkpt lat="46.17979" lon="6.25532">
        <ele>468.4</ele>
        <time>2021-04-03T11:15:10Z</time>
      </trkpt>
      <trkpt lat="46.17973" lon="6.25535">
        <ele>468.4</ele>
        <time>2021-04-03T11:15:11Z</time>
      </trkpt>
      <trkpt lat="46.17968" lon="6.25537">
        <ele>468.6</ele>
        <time>2021-04-03T11:15:12Z</time>
      </trkpt>
      <trkpt lat="46.17962" lon="6.25539">
        <ele>468.4</ele>
        <time>2021-04-03T11:15:13Z</time>
      </trkpt>
      <trkpt lat="46.17956" lon="6.25542">
        <ele>468.4</ele>
        <time>2021-04-03T11:15:14Z</time>
      </trkpt>
      <trkpt lat="46.1795" lon="6.25544">
        <ele>468.6</ele>
        <time>2021-04-03T11:15:15Z</time>
      </trkpt>
      <trkpt lat="46.17944" lon="6.25546">
        <ele>468.4</ele>
        <time>2021-04-03T11:15:16Z</time>
      </trkpt>
      <trkpt lat="46.17937" lon="6.25548">
        <ele>468.4</ele>
        <time>2021-04-03T11:15:17Z</time>
      </trkpt>
      <trkpt lat="46.1793" lon="6.25549">
        <ele>468.6</ele>
        <time>2021-04-03T11:15:18Z</time>
      </trkpt>
      <trkpt lat="46.17923" lon="6.25551">
        <ele>468.6</ele>
        <time>2021-04-03T11:15:19Z</time>
      </trkpt>
      <trkpt lat="46.17916" lon="6.25552">
        <ele>468.6</ele>
        <time>2021-04-03T11:15:20Z</time>
      </trkpt>
      <trkpt lat="46.17908" lon="6.25553">
        <ele>468.6</ele>
        <time>2021-04-03T11:15:21Z</time>
      </trkpt>
      <trkpt lat="46.179" lon="6.25554">
        <ele>468.4</ele>
        <time>2021-04-03T11:15:22Z</time>
      </trkpt>
      <trkpt lat="46.17892" lon="6.25554">
        <ele>468.4</ele>
        <time>2021-04-03T11:15:23Z</time>
      </trkpt>
      <trkpt lat="46.17884" lon="6.25554">
        <ele>468.2</ele>
        <time>2021-04-03T11:15:24Z</time>
      </trkpt>
      <trkpt lat="46.17876" lon="6.25554">
        <ele>468.2</ele>
        <time>2021-04-03T11:15:25Z</time>
      </trkpt>
      <trkpt lat="46.17867" lon="6.25553">
        <ele>468.2</ele>
        <time>2021-04-03T11:15:26Z</time>
      </trkpt>
      <trkpt lat="46.17858" lon="6.25552">
        <ele>468</ele>
        <time>2021-04-03T11:15:27Z</time>
      </trkpt>
      <trkpt lat="46.17849" lon="6.2555">
        <ele>467.6</ele>
        <time>2021-04-03T11:15:28Z</time>
      </trkpt>
      <trkpt lat="46.17839" lon="6.25549">
        <ele>467</ele>
        <time>2021-04-03T11:15:29Z</time>
      </trkpt>
      <trkpt lat="46.17829" lon="6.25548">
        <ele>466.2</ele>
        <time>2021-04-03T11:15:30Z</time>
      </trkpt>
      <trkpt lat="46.1782" lon="6.25548">
        <ele>465.6</ele>
        <time>2021-04-03T11:15:31Z</time>
      </trkpt>
      <trkpt lat="46.17811" lon="6.25548">
        <ele>465.2</ele>
        <time>2021-04-03T11:15:32Z</time>
      </trkpt>
      <trkpt lat="46.17802" lon="6.25549">
        <ele>464.8</ele>
        <time>2021-04-03T11:15:33Z</time>
      </trkpt>
      <trkpt lat="46.17792" lon="6.2555">
        <ele>464.6</ele>
        <time>2021-04-03T11:15:34Z</time>
      </trkpt>
      <trkpt lat="46.17783" lon="6.25551">
        <ele>464.2</ele>
        <time>2021-04-03T11:15:35Z</time>
      </trkpt>
      <trkpt lat="46.17774" lon="6.25552">
        <ele>464</ele>
        <time>2021-04-03T11:15:36Z</time>
      </trkpt>
      <trkpt lat="46.17765" lon="6.25553">
        <ele>463.6</ele>
        <time>2021-04-03T11:15:37Z</time>
      </trkpt>
      <trkpt lat="46.17756" lon="6.25556">
        <ele>463.2</ele>
        <time>2021-04-03T11:15:38Z</time>
      </trkpt>
      <trkpt lat="46.17748" lon="6.25558">
        <ele>463.2</ele>
        <time>2021-04-03T11:15:39Z</time>
      </trkpt>
      <trkpt lat="46.1774" lon="6.25562">
        <ele>462.8</ele>
        <time>2021-04-03T11:15:40Z</time>
      </trkpt>
      <trkpt lat="46.17733" lon="6.25566">
        <ele>462.8</ele>
        <time>2021-04-03T11:15:41Z</time>
      </trkpt>
      <trkpt lat="46.17725" lon="6.2557">
        <ele>462.4</ele>
        <time>2021-04-03T11:15:42Z</time>
      </trkpt>
      <trkpt lat="46.17717" lon="6.25574">
        <ele>462.4</ele>
        <time>2021-04-03T11:15:43Z</time>
      </trkpt>
      <trkpt lat="46.1771" lon="6.25578">
        <ele>462.4</ele>
        <time>2021-04-03T11:15:44Z</time>
      </trkpt>
      <trkpt lat="46.17702" lon="6.25582">
        <ele>462.4</ele>
        <time>2021-04-03T11:15:45Z</time>
      </trkpt>
      <trkpt lat="46.17695" lon="6.25586">
        <ele>462.4</ele>
        <time>2021-04-03T11:15:46Z</time>
      </trkpt>
      <trkpt lat="46.17688" lon="6.2559">
        <ele>462.4</ele>
        <time>2021-04-03T11:15:47Z</time>
      </trkpt>
      <trkpt lat="46.17681" lon="6.25594">
        <ele>462.4</ele>
        <time>2021-04-03T11:15:48Z</time>
      </trkpt>
      <trkpt lat="46.17674" lon="6.25598">
        <ele>462.4</ele>
        <time>2021-04-03T11:15:49Z</time>
      </trkpt>
      <trkpt lat="46.17666" lon="6.25602">
        <ele>462.4</ele>
        <time>2021-04-03T11:15:50Z</time>
      </trkpt>
      <trkpt lat="46.17659" lon="6.25605">
        <ele>462.6</ele>
        <time>2021-04-03T11:15:51Z</time>
      </trkpt>
      <trkpt lat="46.17652" lon="6.2561">
        <ele>462.8</ele>
        <time>2021-04-03T11:15:52Z</time>
      </trkpt>
      <trkpt lat="46.17645" lon="6.25614">
        <ele>463</ele>
        <time>2021-04-03T11:15:53Z</time>
      </trkpt>
      <trkpt lat="46.17637" lon="6.25618">
        <ele>463.2</ele>
        <time>2021-04-03T11:15:54Z</time>
      </trkpt>
      <trkpt lat="46.1763" lon="6.25621">
        <ele>463.4</ele>
        <time>2021-04-03T11:15:55Z</time>
      </trkpt>
      <trkpt lat="46.17623" lon="6.25625">
        <ele>463.6</ele>
        <time>2021-04-03T11:15:56Z</time>
      </trkpt>
      <trkpt lat="46.17616" lon="6.25629">
        <ele>464.2</ele>
        <time>2021-04-03T11:15:57Z</time>
      </trkpt>
      <trkpt lat="46.17609" lon="6.25633">
        <ele>464.4</ele>
        <time>2021-04-03T11:15:58Z</time>
      </trkpt>
      <trkpt lat="46.17602" lon="6.25637">
        <ele>464.6</ele>
        <time>2021-04-03T11:15:59Z</time>
      </trkpt>
      <trkpt lat="46.17595" lon="6.2564">
        <ele>464.8</ele>
        <time>2021-04-03T11:16:00Z</time>
      </trkpt>
      <trkpt lat="46.17589" lon="6.25644">
        <ele>464.8</ele>
        <time>2021-04-03T11:16:01Z</time>
      </trkpt>
      <trkpt lat="46.17582" lon="6.25648">
        <ele>465</ele>
        <time>2021-04-03T11:16:02Z</time>
      </trkpt>
      <trkpt lat="46.17575" lon="6.25651">
        <ele>465.2</ele>
        <time>2021-04-03T11:16:03Z</time>
      </trkpt>
      <trkpt lat="46.17569" lon="6.25655">
        <ele>465.2</ele>
        <time>2021-04-03T11:16:04Z</time>
      </trkpt>
      <trkpt lat="46.17562" lon="6.25659">
        <ele>465.4</ele>
        <time>2021-04-03T11:16:05Z</time>
      </trkpt>
      <trkpt lat="46.17556" lon="6.25662">
        <ele>465.2</ele>
        <time>2021-04-03T11:16:06Z</time>
      </trkpt>
      <trkpt lat="46.17551" lon="6.25666">
        <ele>465.4</ele>
        <time>2021-04-03T11:16:07Z</time>
      </trkpt>
      <trkpt lat="46.17545" lon="6.25671">
        <ele>465.6</ele>
        <time>2021-04-03T11:16:08Z</time>
      </trkpt>
      <trkpt lat="46.1754" lon="6.25675">
        <ele>465.6</ele>
        <time>2021-04-03T11:16:09Z</time>
      </trkpt>
      <trkpt lat="46.17536" lon="6.2568">
        <ele>466</ele>
        <time>2021-04-03T11:16:10Z</time>
      </trkpt>
      <trkpt lat="46.17531" lon="6.25684">
        <ele>466.2</ele>
        <time>2021-04-03T11:16:11Z</time>
      </trkpt>
      <trkpt lat="46.17527" lon="6.25688">
        <ele>466.4</ele>
        <time>2021-04-03T11:16:12Z</time>
      </trkpt>
      <trkpt lat="46.17523" lon="6.25692">
        <ele>466.4</ele>
        <time>2021-04-03T11:16:13Z</time>
      </trkpt>
      <trkpt lat="46.17519" lon="6.25696">
        <ele>466.6</ele>
        <time>2021-04-03T11:16:14Z</time>
      </trkpt>
      <trkpt lat="46.17515" lon="6.25699">
        <ele>467</ele>
        <time>2021-04-03T11:16:15Z</time>
      </trkpt>
      <trkpt lat="46.17511" lon="6.25703">
        <ele>467</ele>
        <time>2021-04-03T11:16:16Z</time>
      </trkpt>
      <trkpt lat="46.17507" lon="6.25707">
        <ele>467.4</ele>
        <time>2021-04-03T11:16:17Z</time>
      </trkpt>
      <trkpt lat="46.17503" lon="6.2571">
        <ele>468</ele>
        <time>2021-04-03T11:16:18Z</time>
      </trkpt>
      <trkpt lat="46.17499" lon="6.25714">
        <ele>468.4</ele>
        <time>2021-04-03T11:16:19Z</time>
      </trkpt>
      <trkpt lat="46.17495" lon="6.25717">
        <ele>468.6</ele>
        <time>2021-04-03T11:16:20Z</time>
      </trkpt>
      <trkpt lat="46.17491" lon="6.25721">
        <ele>469</ele>
        <time>2021-04-03T11:16:21Z</time>
      </trkpt>
      <trkpt lat="46.17487" lon="6.25724">
        <ele>469.4</ele>
        <time>2021-04-03T11:16:22Z</time>
      </trkpt>
      <trkpt lat="46.17484" lon="6.25727">
        <ele>469.6</ele>
        <time>2021-04-03T11:16:23Z</time>
      </trkpt>
      <trkpt lat="46.1748" lon="6.25731">
        <ele>469.6</ele>
        <time>2021-04-03T11:16:24Z</time>
      </trkpt>
      <trkpt lat="46.17476" lon="6.25734">
        <ele>470</ele>
        <time>2021-04-03T11:16:25Z</time>
      </trkpt>
      <trkpt lat="46.17472" lon="6.25737">
        <ele>470.6</ele>
        <time>2021-04-03T11:16:26Z</time>
      </trkpt>
      <trkpt lat="46.17468" lon="6.2574">
        <ele>471</ele>
        <time>2021-04-03T11:16:27Z</time>
      </trkpt>
      <trkpt lat="46.17465" lon="6.25742">
        <ele>471.2</ele>
        <time>2021-04-03T11:16:28Z</time>
      </trkpt>
      <trkpt lat="46.17461" lon="6.25746">
        <ele>471.8</ele>
        <time>2021-04-03T11:16:29Z</time>
      </trkpt>
      <trkpt lat="46.17457" lon="6.25749">
        <ele>472.2</ele>
        <time>2021-04-03T11:16:30Z</time>
      </trkpt>
      <trkpt lat="46.17453" lon="6.25752">
        <ele>472.6</ele>
        <time>2021-04-03T11:16:31Z</time>
      </trkpt>
      <trkpt lat="46.17449" lon="6.25755">
        <ele>473</ele>
        <time>2021-04-03T11:16:32Z</time>
      </trkpt>
      <trkpt lat="46.17446" lon="6.25758">
        <ele>473.4</ele>
        <time>2021-04-03T11:16:33Z</time>
      </trkpt>
      <trkpt lat="46.17442" lon="6.25762">
        <ele>473.6</ele>
        <time>2021-04-03T11:16:34Z</time>
      </trkpt>
      <trkpt lat="46.17439" lon="6.25766">
        <ele>474</ele>
        <time>2021-04-03T11:16:35Z</time>
      </trkpt>
      <trkpt lat="46.17436" lon="6.25771">
        <ele>474.2</ele>
        <time>2021-04-03T11:16:36Z</time>
      </trkpt>
      <trkpt lat="46.17433" lon="6.25776">
        <ele>474.6</ele>
        <time>2021-04-03T11:16:37Z</time>
      </trkpt>
      <trkpt lat="46.1743" lon="6.2578">
        <ele>475</ele>
        <time>2021-04-03T11:16:38Z</time>
      </trkpt>
      <trkpt lat="46.17427" lon="6.25783">
        <ele>475.2</ele>
        <time>2021-04-03T11:16:39Z</time>
      </trkpt>
      <trkpt lat="46.17424" lon="6.25786">
        <ele>475.4</ele>
        <time>2021-04-03T11:16:40Z</time>
      </trkpt>
      <trkpt lat="46.1742" lon="6.25788">
        <ele>475.8</ele>
        <time>2021-04-03T11:16:41Z</time>
      </trkpt>
      <trkpt lat="46.17417" lon="6.25791">
        <ele>476.2</ele>
        <time>2021-04-03T11:16:42Z</time>
      </trkpt>
      <trkpt lat="46.17416" lon="6.25795">
        <ele>476.2</ele>
        <time>2021-04-03T11:16:43Z</time>
      </trkpt>
      <trkpt lat="46.17415" lon="6.25801">
        <ele>476.4</ele>
        <time>2021-04-03T11:16:44Z</time>
      </trkpt>
      <trkpt lat="46.17415" lon="6.25807">
        <ele>476.4</ele>
        <time>2021-04-03T11:16:45Z</time>
      </trkpt>
      <trkpt lat="46.17414" lon="6.25812">
        <ele>476.4</ele>
        <time>2021-04-03T11:16:46Z</time>
      </trkpt>
      <trkpt lat="46.17414" lon="6.25818">
        <ele>476.4</ele>
        <time>2021-04-03T11:16:47Z</time>
      </trkpt>
      <trkpt lat="46.17414" lon="6.25823">
        <ele>476.4</ele>
        <time>2021-04-03T11:16:48Z</time>
      </trkpt>
      <trkpt lat="46.17413" lon="6.25828">
        <ele>476.4</ele>
        <time>2021-04-03T11:16:49Z</time>
      </trkpt>
      <trkpt lat="46.17412" lon="6.25832">
        <ele>476.6</ele>
        <time>2021-04-03T11:16:50Z</time>
      </trkpt>
      <trkpt lat="46.17411" lon="6.25835">
        <ele>476.6</ele>
        <time>2021-04-03T11:16:51Z</time>
      </trkpt>
      <trkpt lat="46.17411" lon="6.2584">
        <ele>476.6</ele>
        <time>2021-04-03T11:16:52Z</time>
      </trkpt>
      <trkpt lat="46.17412" lon="6.25844">
        <ele>476.4</ele>
        <time>2021-04-03T11:16:53Z</time>
      </trkpt>
      <trkpt lat="46.17415" lon="6.25847">
        <ele>476.6</ele>
        <time>2021-04-03T11:16:54Z</time>
      </trkpt>
      <trkpt lat="46.17418" lon="6.25851">
        <ele>476.4</ele>
        <time>2021-04-03T11:16:55Z</time>
      </trkpt>
      <trkpt lat="46.17421" lon="6.25854">
        <ele>476.2</ele>
        <time>2021-04-03T11:16:56Z</time>
      </trkpt>
      <trkpt lat="46.17424" lon="6.25857">
        <ele>476.4</ele>
        <time>2021-04-03T11:16:57Z</time>
      </trkpt>
      <trkpt lat="46.17428" lon="6.25859">
        <ele>476.2</ele>
        <time>2021-04-03T11:16:58Z</time>
      </trkpt>
      <trkpt lat="46.17432" lon="6.2586">
        <ele>476.2</ele>
        <time>2021-04-03T11:16:59Z</time>
      </trkpt>
      <trkpt lat="46.17435" lon="6.25859">
        <ele>476.4</ele>
        <time>2021-04-03T11:17:00Z</time>
      </trkpt>
      <trkpt lat="46.17437" lon="6.25856">
        <ele>476.2</ele>
        <time>2021-04-03T11:17:01Z</time>
      </trkpt>
      <trkpt lat="46.17437" lon="6.25852">
        <ele>476.2</ele>
        <time>2021-04-03T11:17:02Z</time>
      </trkpt>
      <trkpt lat="46.17438" lon="6.25848">
        <ele>476.2</ele>
        <time>2021-04-03T11:17:03Z</time>
      </trkpt>
      <trkpt lat="46.17439" lon="6.25844">
        <ele>476.4</ele>
        <time>2021-04-03T11:17:04Z</time>
      </trkpt>
      <trkpt lat="46.17439" lon="6.25841">
        <ele>476.4</ele>
        <time>2021-04-03T11:17:05Z</time>
      </trkpt>
      <trkpt lat="46.17438" lon="6.2584">
        <ele>476.4</ele>
        <time>2021-04-03T11:17:06Z</time>
      </trkpt>
      <trkpt lat="46.17438" lon="6.2584">
        <ele>476.6</ele>
        <time>2021-04-03T11:17:07Z</time>
      </trkpt>
      <trkpt lat="46.17437" lon="6.2584">
        <ele>476.4</ele>
        <time>2021-04-03T11:17:08Z</time>
      </trkpt>
      <trkpt lat="46.17437" lon="6.25839">
        <ele>476.8</ele>
        <time>2021-04-03T11:17:09Z</time>
      </trkpt>
      <trkpt lat="46.17438" lon="6.25839">
        <ele>477</ele>
        <time>2021-04-03T11:17:10Z</time>
      </trkpt>
      <trkpt lat="46.17438" lon="6.25839">
        <ele>477.4</ele>
        <time>2021-04-03T11:17:11Z</time>
      </trkpt>
      <trkpt lat="46.17438" lon="6.2584">
        <ele>477.6</ele>
        <time>2021-04-03T11:17:12Z</time>
      </trkpt>
      <trkpt lat="46.17438" lon="6.2584">
        <ele>477.8</ele>
        <time>2021-04-03T11:17:13Z</time>
      </trkpt>
      <trkpt lat="46.17438" lon="6.2584">
        <ele>478</ele>
        <time>2021-04-03T11:17:14Z</time>
      </trkpt>
      <trkpt lat="46.17438" lon="6.2584">
        <ele>478</ele>
        <time>2021-04-03T11:17:15Z</time>
      </trkpt>
      <trkpt lat="46.17439" lon="6.2584">
        <ele>478.2</ele>
        <time>2021-04-03T11:17:16Z</time>
      </trkpt>
      <trkpt lat="46.17439" lon="6.2584">
        <ele>478.6</ele>
        <time>2021-04-03T11:17:17Z</time>
      </trkpt>
      <trkpt lat="46.17439" lon="6.25841">
        <ele>478.8</ele>
        <time>2021-04-03T11:17:18Z</time>
      </trkpt>
      <trkpt lat="46.17439" lon="6.25841">
        <ele>478.8</ele>
        <time>2021-04-03T11:17:19Z</time>
      </trkpt>
      <trkpt lat="46.17439" lon="6.25842">
        <ele>479</ele>
        <time>2021-04-03T11:17:20Z</time>
      </trkpt>
      <trkpt lat="46.17439" lon="6.25842">
        <ele>479</ele>
        <time>2021-04-03T11:17:21Z</time>
      </trkpt>
      <trkpt lat="46.17439" lon="6.25842">
        <ele>479</ele>
        <time>2021-04-03T11:17:22Z</time>
      </trkpt>
      <trkpt lat="46.17439" lon="6.25843">
        <ele>479.2</ele>
        <time>2021-04-03T11:17:23Z</time>
      </trkpt>
      <trkpt lat="46.17439" lon="6.25843">
        <ele>479</ele>
        <time>2021-04-03T11:17:24Z</time>
      </trkpt>
      <trkpt lat="46.17439" lon="6.25843">
        <ele>479</ele>
        <time>2021-04-03T11:17:25Z</time>
      </trkpt>
      <trkpt lat="46.17439" lon="6.25843">
        <ele>479</ele>
        <time>2021-04-03T11:17:26Z</time>
      </trkpt>
      <trkpt lat="46.17439" lon="6.25844">
        <ele>479</ele>
        <time>2021-04-03T11:17:27Z</time>
      </trkpt>
      <trkpt lat="46.17439" lon="6.25844">
        <ele>478.8</ele>
        <time>2021-04-03T11:17:28Z</time>
      </trkpt>
      <trkpt lat="46.17439" lon="6.25844">
        <ele>478.8</ele>
        <time>2021-04-03T11:17:29Z</time>
      </trkpt>
      <trkpt lat="46.17439" lon="6.25844">
        <ele>479</ele>
        <time>2021-04-03T11:17:30Z</time>
      </trkpt>
      <trkpt lat="46.17439" lon="6.25844">
        <ele>478.8</ele>
        <time>2021-04-03T11:17:31Z</time>
      </trkpt>
      <trkpt lat="46.17439" lon="6.25844">
        <ele>478.8</ele>
        <time>2021-04-03T11:17:32Z</time>
      </trkpt>
      <trkpt lat="46.17439" lon="6.25844">
        <ele>478.8</ele>
        <time>2021-04-03T11:17:33Z</time>
      </trkpt>
      <trkpt lat="46.17439" lon="6.25844">
        <ele>478.8</ele>
        <time>2021-04-03T11:17:34Z</time>
      </trkpt>
      <trkpt lat="46.17439" lon="6.25845">
        <ele>478.8</ele>
        <time>2021-04-03T11:17:35Z</time>
      </trkpt>
      <trkpt lat="46.17439" lon="6.25845">
        <ele>478.8</ele>
        <time>2021-04-03T11:17:36Z</time>
      </trkpt>
      <trkpt lat="46.17439" lon="6.25845">
        <ele>478.6</ele>
        <time>2021-04-03T11:17:37Z</time>
      </trkpt>
      <trkpt lat="46.17439" lon="6.25845">
        <ele>478.6</ele>
        <time>2021-04-03T11:17:38Z</time>
      </trkpt>
      <trkpt lat="46.17439" lon="6.25845">
        <ele>478.6</ele>
        <time>2021-04-03T11:17:39Z</time>
      </trkpt>
      <trkpt lat="46.17439" lon="6.25846">
        <ele>478.6</ele>
        <time>2021-04-03T11:17:40Z</time>
      </trkpt>
      <trkpt lat="46.17439" lon="6.25846">
        <ele>478.4</ele>
        <time>2021-04-03T11:17:41Z</time>
      </trkpt>
      <trkpt lat="46.17439" lon="6.25846">
        <ele>478.4</ele>
        <time>2021-04-03T11:17:42Z</time>
      </trkpt>
      <trkpt lat="46.17439" lon="6.25846">
        <ele>478.4</ele>
        <time>2021-04-03T11:17:43Z</time>
      </trkpt>
      <trkpt lat="46.17439" lon="6.25847">
        <ele>478.6</ele>
        <time>2021-04-03T11:17:45Z</time>
      </trkpt>
      <trkpt lat="46.17439" lon="6.25847">
        <ele>478.4</ele>
        <time>2021-04-03T11:17:47Z</time>
      </trkpt>
      <trkpt lat="46.17439" lon="6.25847">
        <ele>478.6</ele>
        <time>2021-04-03T11:17:49Z</time>
      </trkpt>
      <trkpt lat="46.17439" lon="6.25847">
        <ele>478.6</ele>
        <time>2021-04-03T11:17:50Z</time>
      </trkpt>
      <trkpt lat="46.17439" lon="6.25847">
        <ele>478.6</ele>
        <time>2021-04-03T11:17:51Z</time>
      </trkpt>
      <trkpt lat="46.17439" lon="6.25847">
        <ele>478.6</ele>
        <time>2021-04-03T11:17:53Z</time>
      </trkpt>
      <trkpt lat="46.17439" lon="6.25847">
        <ele>478.4</ele>
        <time>2021-04-03T11:17:54Z</time>
      </trkpt>
      <trkpt lat="46.17439" lon="6.25847">
        <ele>478.4</ele>
        <time>2021-04-03T11:17:55Z</time>
      </trkpt>
      <trkpt lat="46.17439" lon="6.25847">
        <ele>478.6</ele>
        <time>2021-04-03T11:17:56Z</time>
      </trkpt>
      <trkpt lat="46.17439" lon="6.25847">
        <ele>478.6</ele>
        <time>2021-04-03T11:17:57Z</time>
      </trkpt>
      <trkpt lat="46.17439" lon="6.25847">
        <ele>478.4</ele>
        <time>2021-04-03T11:17:58Z</time>
      </trkpt>
      <trkpt lat="46.17439" lon="6.25847">
        <ele>478.4</ele>
        <time>2021-04-03T11:18:00Z</time>
      </trkpt>
      <trkpt lat="46.17438" lon="6.25847">
        <ele>478.4</ele>
        <time>2021-04-03T11:18:01Z</time>
      </trkpt>
      <trkpt lat="46.17438" lon="6.25847">
        <ele>478.8</ele>
        <time>2021-04-03T11:18:02Z</time>
      </trkpt>
      <trkpt lat="46.17438" lon="6.25847">
        <ele>478.6</ele>
        <time>2021-04-03T11:18:03Z</time>
      </trkpt>
      <trkpt lat="46.17438" lon="6.25847">
        <ele>478.6</ele>
        <time>2021-04-03T11:18:04Z</time>
      </trkpt>
      <trkpt lat="46.17438" lon="6.25847">
        <ele>478.4</ele>
        <time>2021-04-03T11:18:05Z</time>
      </trkpt>
      <trkpt lat="46.17437" lon="6.25847">
        <ele>478.6</ele>
        <time>2021-04-03T11:18:07Z</time>
      </trkpt>
      <trkpt lat="46.17438" lon="6.25847">
        <ele>478.6</ele>
        <time>2021-04-03T11:18:09Z</time>
      </trkpt>
      <trkpt lat="46.17438" lon="6.25847">
        <ele>478.6</ele>
        <time>2021-04-03T11:18:10Z</time>
      </trkpt>
      <trkpt lat="46.17438" lon="6.25847">
        <ele>478.6</ele>
        <time>2021-04-03T11:18:11Z</time>
      </trkpt>
      <trkpt lat="46.17437" lon="6.25848">
        <ele>478.8</ele>
        <time>2021-04-03T11:18:12Z</time>
      </trkpt>
      <trkpt lat="46.17437" lon="6.25848">
        <ele>478.8</ele>
        <time>2021-04-03T11:18:13Z</time>
      </trkpt>
      <trkpt lat="46.17437" lon="6.25848">
        <ele>478.8</ele>
        <time>2021-04-03T11:18:14Z</time>
      </trkpt>
      <trkpt lat="46.17437" lon="6.25848">
        <ele>478.8</ele>
        <time>2021-04-03T11:18:15Z</time>
      </trkpt>
      <trkpt lat="46.17437" lon="6.25848">
        <ele>478.8</ele>
        <time>2021-04-03T11:18:16Z</time>
      </trkpt>
      <trkpt lat="46.17437" lon="6.25848">
        <ele>479</ele>
        <time>2021-04-03T11:18:18Z</time>
      </trkpt>
      <trkpt lat="46.17437" lon="6.25848">
        <ele>478.8</ele>
        <time>2021-04-03T11:18:19Z</time>
      </trkpt>
      <trkpt lat="46.17437" lon="6.25848">
        <ele>478.8</ele>
        <time>2021-04-03T11:18:20Z</time>
      </trkpt>
      <trkpt lat="46.17437" lon="6.25848">
        <ele>478.8</ele>
        <time>2021-04-03T11:18:21Z</time>
      </trkpt>
      <trkpt lat="46.17437" lon="6.25849">
        <ele>478.8</ele>
        <time>2021-04-03T11:18:22Z</time>
      </trkpt>
      <trkpt lat="46.17437" lon="6.25849">
        <ele>478.8</ele>
        <time>2021-04-03T11:18:23Z</time>
      </trkpt>
      <trkpt lat="46.17437" lon="6.25849">
        <ele>478.8</ele>
        <time>2021-04-03T11:18:25Z</time>
      </trkpt>
      <trkpt lat="46.17437" lon="6.25849">
        <ele>478.8</ele>
        <time>2021-04-03T11:18:27Z</time>
      </trkpt>
      <trkpt lat="46.17437" lon="6.25849">
        <ele>478.8</ele>
        <time>2021-04-03T11:18:28Z</time>
      </trkpt>
      <trkpt lat="46.17437" lon="6.25849">
        <ele>478.8</ele>
        <time>2021-04-03T11:18:31Z</time>
      </trkpt>
      <trkpt lat="46.17437" lon="6.25849">
        <ele>478.6</ele>
        <time>2021-04-03T11:18:32Z</time>
      </trkpt>
      <trkpt lat="46.17437" lon="6.25849">
        <ele>478.6</ele>
        <time>2021-04-03T11:18:33Z</time>
      </trkpt>
      <trkpt lat="46.17437" lon="6.25849">
        <ele>478.8</ele>
        <time>2021-04-03T11:18:34Z</time>
      </trkpt>
      <trkpt lat="46.17437" lon="6.2585">
        <ele>478.6</ele>
        <time>2021-04-03T11:18:35Z</time>
      </trkpt>
      <trkpt lat="46.17437" lon="6.25849">
        <ele>478.8</ele>
        <time>2021-04-03T11:18:36Z</time>
      </trkpt>
      <trkpt lat="46.17437" lon="6.25849">
        <ele>478.6</ele>
        <time>2021-04-03T11:18:37Z</time>
      </trkpt>
      <trkpt lat="46.17437" lon="6.25849">
        <ele>478.6</ele>
        <time>2021-04-03T11:18:38Z</time>
      </trkpt>
      <trkpt lat="46.17437" lon="6.25849">
        <ele>478.8</ele>
        <time>2021-04-03T11:18:39Z</time>
      </trkpt>
      <trkpt lat="46.17436" lon="6.25849">
        <ele>478.6</ele>
        <time>2021-04-03T11:18:40Z</time>
      </trkpt>
      <trkpt lat="46.17436" lon="6.25849">
        <ele>478.8</ele>
        <time>2021-04-03T11:18:41Z</time>
      </trkpt>
      <trkpt lat="46.17436" lon="6.25849">
        <ele>478.8</ele>
        <time>2021-04-03T11:18:43Z</time>
      </trkpt>
      <trkpt lat="46.17436" lon="6.25849">
        <ele>479</ele>
        <time>2021-04-03T11:18:44Z</time>
      </trkpt>
      <trkpt lat="46.17436" lon="6.25849">
        <ele>479.2</ele>
        <time>2021-04-03T11:18:45Z</time>
      </trkpt>
      <trkpt lat="46.17436" lon="6.25849">
        <ele>479.2</ele>
        <time>2021-04-03T11:18:46Z</time>
      </trkpt>
      <trkpt lat="46.17435" lon="6.25849">
        <ele>479</ele>
        <time>2021-04-03T11:18:47Z</time>
      </trkpt>
      <trkpt lat="46.17434" lon="6.25848">
        <ele>479</ele>
        <time>2021-04-03T11:18:48Z</time>
      </trkpt>
      <trkpt lat="46.17434" lon="6.25848">
        <ele>479</ele>
        <time>2021-04-03T11:18:49Z</time>
      </trkpt>
      <trkpt lat="46.17434" lon="6.25847">
        <ele>479</ele>
        <time>2021-04-03T11:18:50Z</time>
      </trkpt>
      <trkpt lat="46.17434" lon="6.25847">
        <ele>479</ele>
        <time>2021-04-03T11:18:51Z</time>
      </trkpt>
      <trkpt lat="46.17434" lon="6.25847">
        <ele>479.2</ele>
        <time>2021-04-03T11:18:52Z</time>
      </trkpt>
      <trkpt lat="46.17434" lon="6.25847">
        <ele>479.2</ele>
        <time>2021-04-03T11:18:53Z</time>
      </trkpt>
      <trkpt lat="46.17433" lon="6.25847">
        <ele>479.2</ele>
        <time>2021-04-03T11:18:54Z</time>
      </trkpt>
      <trkpt lat="46.17433" lon="6.25847">
        <ele>479.2</ele>
        <time>2021-04-03T11:18:55Z</time>
      </trkpt>
      <trkpt lat="46.17433" lon="6.25847">
        <ele>479</ele>
        <time>2021-04-03T11:18:58Z</time>
      </trkpt>
      <trkpt lat="46.17433" lon="6.25847">
        <ele>479.2</ele>
        <time>2021-04-03T11:18:59Z</time>
      </trkpt>
      <trkpt lat="46.17433" lon="6.25847">
        <ele>479</ele>
        <time>2021-04-03T11:19:00Z</time>
      </trkpt>
      <trkpt lat="46.17433" lon="6.25847">
        <ele>479</ele>
        <time>2021-04-03T11:19:01Z</time>
      </trkpt>
      <trkpt lat="46.17433" lon="6.25847">
        <ele>478.8</ele>
        <time>2021-04-03T11:19:05Z</time>
      </trkpt>
      <trkpt lat="46.17433" lon="6.25847">
        <ele>478.6</ele>
        <time>2021-04-03T11:19:06Z</time>
      </trkpt>
      <trkpt lat="46.17433" lon="6.25847">
        <ele>478.8</ele>
        <time>2021-04-03T11:19:07Z</time>
      </trkpt>
      <trkpt lat="46.17433" lon="6.25847">
        <ele>478.6</ele>
        <time>2021-04-03T11:19:08Z</time>
      </trkpt>
      <trkpt lat="46.17433" lon="6.25847">
        <ele>478.8</ele>
        <time>2021-04-03T11:19:09Z</time>
      </trkpt>
      <trkpt lat="46.17433" lon="6.25847">
        <ele>478.6</ele>
        <time>2021-04-03T11:19:10Z</time>
      </trkpt>
      <trkpt lat="46.17433" lon="6.25847">
        <ele>478.6</ele>
        <time>2021-04-03T11:19:11Z</time>
      </trkpt>
      <trkpt lat="46.17433" lon="6.25847">
        <ele>478.6</ele>
        <time>2021-04-03T11:19:12Z</time>
      </trkpt>
      <trkpt lat="46.17433" lon="6.25847">
        <ele>478.6</ele>
        <time>2021-04-03T11:19:13Z</time>
      </trkpt>
      <trkpt lat="46.17432" lon="6.25847">
        <ele>478.4</ele>
        <time>2021-04-03T11:19:14Z</time>
      </trkpt>
      <trkpt lat="46.17432" lon="6.25847">
        <ele>478.4</ele>
        <time>2021-04-03T11:19:15Z</time>
      </trkpt>
      <trkpt lat="46.17432" lon="6.25846">
        <ele>478.6</ele>
        <time>2021-04-03T11:19:16Z</time>
      </trkpt>
      <trkpt lat="46.17432" lon="6.25845">
        <ele>478.6</ele>
        <time>2021-04-03T11:19:17Z</time>
      </trkpt>
      <trkpt lat="46.17432" lon="6.25843">
        <ele>478.6</ele>
        <time>2021-04-03T11:19:18Z</time>
      </trkpt>
      <trkpt lat="46.17432" lon="6.25841">
        <ele>478.6</ele>
        <time>2021-04-03T11:19:19Z</time>
      </trkpt>
      <trkpt lat="46.17432" lon="6.2584">
        <ele>478.4</ele>
        <time>2021-04-03T11:19:20Z</time>
      </trkpt>
      <trkpt lat="46.17432" lon="6.25839">
        <ele>478.6</ele>
        <time>2021-04-03T11:19:21Z</time>
      </trkpt>
      <trkpt lat="46.17432" lon="6.25839">
        <ele>478.4</ele>
        <time>2021-04-03T11:19:22Z</time>
      </trkpt>
      <trkpt lat="46.17432" lon="6.25838">
        <ele>478.6</ele>
        <time>2021-04-03T11:19:23Z</time>
      </trkpt>
      <trkpt lat="46.17433" lon="6.25838">
        <ele>478.6</ele>
        <time>2021-04-03T11:19:24Z</time>
      </trkpt>
      <trkpt lat="46.17433" lon="6.25838">
        <ele>478.6</ele>
        <time>2021-04-03T11:19:25Z</time>
      </trkpt>
      <trkpt lat="46.17432" lon="6.25838">
        <ele>478.6</ele>
        <time>2021-04-03T11:19:26Z</time>
      </trkpt>
      <trkpt lat="46.17433" lon="6.25838">
        <ele>478.6</ele>
        <time>2021-04-03T11:19:27Z</time>
      </trkpt>
      <trkpt lat="46.17433" lon="6.25838">
        <ele>478.6</ele>
        <time>2021-04-03T11:19:28Z</time>
      </trkpt>
      <trkpt lat="46.17433" lon="6.25837">
        <ele>478.6</ele>
        <time>2021-04-03T11:19:29Z</time>
      </trkpt>
      <trkpt lat="46.17433" lon="6.25837">
        <ele>478.6</ele>
        <time>2021-04-03T11:19:32Z</time>
      </trkpt>
      <trkpt lat="46.17433" lon="6.25837">
        <ele>478.6</ele>
        <time>2021-04-03T11:19:34Z</time>
      </trkpt>
      <trkpt lat="46.17433" lon="6.25837">
        <ele>479</ele>
        <time>2021-04-03T11:19:37Z</time>
      </trkpt>
      <trkpt lat="46.17433" lon="6.25837">
        <ele>478.8</ele>
        <time>2021-04-03T11:19:38Z</time>
      </trkpt>
      <trkpt lat="46.17433" lon="6.25837">
        <ele>479</ele>
        <time>2021-04-03T11:19:40Z</time>
      </trkpt>
      <trkpt lat="46.17433" lon="6.25837">
        <ele>479</ele>
        <time>2021-04-03T11:19:41Z</time>
      </trkpt>
      <trkpt lat="46.17433" lon="6.25837">
        <ele>479</ele>
        <time>2021-04-03T11:19:45Z</time>
      </trkpt>
      <trkpt lat="46.17433" lon="6.25837">
        <ele>478.8</ele>
        <time>2021-04-03T11:19:50Z</time>
      </trkpt>
      <trkpt lat="46.17433" lon="6.25837">
        <ele>478.8</ele>
        <time>2021-04-03T11:19:55Z</time>
      </trkpt>
      <trkpt lat="46.17433" lon="6.25837">
        <ele>478.6</ele>
        <time>2021-04-03T11:19:59Z</time>
      </trkpt>
      <trkpt lat="46.17433" lon="6.25837">
        <ele>478.6</ele>
        <time>2021-04-03T11:20:01Z</time>
      </trkpt>
      <trkpt lat="46.17433" lon="6.25837">
        <ele>478.6</ele>
        <time>2021-04-03T11:20:08Z</time>
      </trkpt>
      <trkpt lat="46.17433" lon="6.25837">
        <ele>478.8</ele>
        <time>2021-04-03T11:20:14Z</time>
      </trkpt>
      <trkpt lat="46.17433" lon="6.25837">
        <ele>479</ele>
        <time>2021-04-03T11:20:17Z</time>
      </trkpt>
      <trkpt lat="46.17433" lon="6.25837">
        <ele>479.4</ele>
        <time>2021-04-03T11:20:25Z</time>
      </trkpt>
      <trkpt lat="46.17433" lon="6.25837">
        <ele>479.4</ele>
        <time>2021-04-03T11:20:28Z</time>
      </trkpt>
      <trkpt lat="46.17433" lon="6.25837">
        <ele>479.4</ele>
        <time>2021-04-03T11:20:34Z</time>
      </trkpt>
      <trkpt lat="46.17433" lon="6.25837">
        <ele>479.4</ele>
        <time>2021-04-03T11:20:42Z</time>
      </trkpt>
      <trkpt lat="46.17433" lon="6.25837">
        <ele>479.4</ele>
        <time>2021-04-03T11:20:50Z</time>
      </trkpt>
      <trkpt lat="46.17433" lon="6.25837">
        <ele>479.4</ele>
        <time>2021-04-03T11:20:56Z</time>
      </trkpt>
      <trkpt lat="46.17433" lon="6.25837">
        <ele>479.2</ele>
        <time>2021-04-03T11:20:59Z</time>
      </trkpt>
      <trkpt lat="46.17433" lon="6.25837">
        <ele>479.4</ele>
        <time>2021-04-03T11:21:04Z</time>
      </trkpt>
      <trkpt lat="46.17433" lon="6.25837">
        <ele>479.4</ele>
        <time>2021-04-03T11:21:05Z</time>
      </trkpt>
      <trkpt lat="46.17433" lon="6.25837">
        <ele>479.2</ele>
        <time>2021-04-03T11:21:08Z</time>
      </trkpt>
      <trkpt lat="46.17433" lon="6.25837">
        <ele>479.2</ele>
        <time>2021-04-03T11:21:14Z</time>
      </trkpt>
      <trkpt lat="46.17433" lon="6.25837">
        <ele>479</ele>
        <time>2021-04-03T11:21:15Z</time>
      </trkpt>
      <trkpt lat="46.17433" lon="6.25837">
        <ele>479</ele>
        <time>2021-04-03T11:21:23Z</time>
      </trkpt>
      <trkpt lat="46.17433" lon="6.25837">
        <ele>478.8</ele>
        <time>2021-04-03T11:21:24Z</time>
      </trkpt>
      <trkpt lat="46.17433" lon="6.25837">
        <ele>478.8</ele>
        <time>2021-04-03T11:21:32Z</time>
      </trkpt>
      <trkpt lat="46.17433" lon="6.25837">
        <ele>478.6</ele>
        <time>2021-04-03T11:21:40Z</time>
      </trkpt>
      <trkpt lat="46.17433" lon="6.25837">
        <ele>478.6</ele>
        <time>2021-04-03T11:21:43Z</time>
      </trkpt>
      <trkpt lat="46.17433" lon="6.25837">
        <ele>478.4</ele>
        <time>2021-04-03T11:21:49Z</time>
      </trkpt>
      <trkpt lat="46.17433" lon="6.25837">
        <ele>478.4</ele>
        <time>2021-04-03T11:21:57Z</time>
      </trkpt>
      <trkpt lat="46.17433" lon="6.25837">
        <ele>478</ele>
        <time>2021-04-03T11:22:05Z</time>
      </trkpt>
      <trkpt lat="46.17433" lon="6.25837">
        <ele>477.8</ele>
        <time>2021-04-03T11:22:10Z</time>
      </trkpt>
      <trkpt lat="46.17433" lon="6.25837">
        <ele>478</ele>
        <time>2021-04-03T11:22:14Z</time>
      </trkpt>
      <trkpt lat="46.17433" lon="6.25836">
        <ele>477.8</ele>
        <time>2021-04-03T11:22:18Z</time>
      </trkpt>
      <trkpt lat="46.17433" lon="6.25836">
        <ele>478.2</ele>
        <time>2021-04-03T11:22:23Z</time>
      </trkpt>
      <trkpt lat="46.17433" lon="6.25836">
        <ele>478.2</ele>
        <time>2021-04-03T11:22:27Z</time>
      </trkpt>
      <trkpt lat="46.17433" lon="6.25836">
        <ele>478.2</ele>
        <time>2021-04-03T11:22:32Z</time>
      </trkpt>
      <trkpt lat="46.17433" lon="6.25836">
        <ele>478.2</ele>
        <time>2021-04-03T11:22:34Z</time>
      </trkpt>
      <trkpt lat="46.17433" lon="6.25836">
        <ele>478.4</ele>
        <time>2021-04-03T11:22:39Z</time>
      </trkpt>
      <trkpt lat="46.17433" lon="6.25836">
        <ele>478.2</ele>
        <time>2021-04-03T11:22:42Z</time>
      </trkpt>
      <trkpt lat="46.17433" lon="6.25836">
        <ele>478.2</ele>
        <time>2021-04-03T11:22:43Z</time>
      </trkpt>
      <trkpt lat="46.17433" lon="6.25836">
        <ele>478.2</ele>
        <time>2021-04-03T11:22:44Z</time>
      </trkpt>
      <trkpt lat="46.17433" lon="6.25836">
        <ele>478.2</ele>
        <time>2021-04-03T11:22:51Z</time>
      </trkpt>
      <trkpt lat="46.17433" lon="6.25836">
        <ele>478.2</ele>
        <time>2021-04-03T11:22:53Z</time>
      </trkpt>
      <trkpt lat="46.17433" lon="6.25836">
        <ele>478.2</ele>
        <time>2021-04-03T11:23:01Z</time>
      </trkpt>
      <trkpt lat="46.17433" lon="6.25836">
        <ele>478.2</ele>
        <time>2021-04-03T11:23:09Z</time>
      </trkpt>
      <trkpt lat="46.17433" lon="6.25836">
        <ele>478.6</ele>
        <time>2021-04-03T11:23:17Z</time>
      </trkpt>
      <trkpt lat="46.17433" lon="6.25836">
        <ele>478.4</ele>
        <time>2021-04-03T11:23:18Z</time>
      </trkpt>
      <trkpt lat="46.17433" lon="6.25836">
        <ele>478.6</ele>
        <time>2021-04-03T11:23:25Z</time>
      </trkpt>
      <trkpt lat="46.17433" lon="6.25836">
        <ele>478.6</ele>
        <time>2021-04-03T11:23:27Z</time>
      </trkpt>
      <trkpt lat="46.17433" lon="6.25836">
        <ele>479</ele>
        <time>2021-04-03T11:23:31Z</time>
      </trkpt>
      <trkpt lat="46.17433" lon="6.25836">
        <ele>479</ele>
        <time>2021-04-03T11:23:36Z</time>
      </trkpt>
      <trkpt lat="46.17433" lon="6.25836">
        <ele>478.8</ele>
        <time>2021-04-03T11:23:44Z</time>
      </trkpt>
      <trkpt lat="46.17433" lon="6.25836">
        <ele>478.8</ele>
        <time>2021-04-03T11:23:46Z</time>
      </trkpt>
      <trkpt lat="46.17433" lon="6.25836">
        <ele>478.6</ele>
        <time>2021-04-03T11:23:53Z</time>
      </trkpt>
      <trkpt lat="46.17433" lon="6.25835">
        <ele>479.4</ele>
        <time>2021-04-03T11:24:01Z</time>
      </trkpt>
      <trkpt lat="46.17433" lon="6.25835">
        <ele>479.6</ele>
        <time>2021-04-03T11:24:02Z</time>
      </trkpt>
      <trkpt lat="46.17433" lon="6.25835">
        <ele>479.4</ele>
        <time>2021-04-03T11:24:07Z</time>
      </trkpt>
      <trkpt lat="46.17433" lon="6.25835">
        <ele>479.6</ele>
        <time>2021-04-03T11:24:10Z</time>
      </trkpt>
      <trkpt lat="46.17433" lon="6.25835">
        <ele>479.6</ele>
        <time>2021-04-03T11:24:11Z</time>
      </trkpt>
      <trkpt lat="46.17433" lon="6.25835">
        <ele>479.2</ele>
        <time>2021-04-03T11:24:19Z</time>
      </trkpt>
      <trkpt lat="46.17433" lon="6.25835">
        <ele>478.8</ele>
        <time>2021-04-03T11:24:25Z</time>
      </trkpt>
      <trkpt lat="46.17433" lon="6.25835">
        <ele>478.8</ele>
        <time>2021-04-03T11:24:28Z</time>
      </trkpt>
      <trkpt lat="46.17433" lon="6.25835">
        <ele>478.8</ele>
        <time>2021-04-03T11:24:32Z</time>
      </trkpt>
      <trkpt lat="46.17433" lon="6.25835">
        <ele>478.8</ele>
        <time>2021-04-03T11:24:35Z</time>
      </trkpt>
      <trkpt lat="46.17433" lon="6.25835">
        <ele>478.8</ele>
        <time>2021-04-03T11:24:38Z</time>
      </trkpt>
      <trkpt lat="46.17433" lon="6.25835">
        <ele>478.8</ele>
        <time>2021-04-03T11:24:39Z</time>
      </trkpt>
      <trkpt lat="46.17434" lon="6.25835">
        <ele>478.6</ele>
        <time>2021-04-03T11:24:42Z</time>
      </trkpt>
      <trkpt lat="46.17434" lon="6.25835">
        <ele>478.6</ele>
        <time>2021-04-03T11:24:43Z</time>
      </trkpt>
      <trkpt lat="46.17434" lon="6.25835">
        <ele>478.6</ele>
        <time>2021-04-03T11:24:48Z</time>
      </trkpt>
      <trkpt lat="46.17434" lon="6.25835">
        <ele>478.6</ele>
        <time>2021-04-03T11:24:51Z</time>
      </trkpt>
      <trkpt lat="46.17434" lon="6.25835">
        <ele>478.6</ele>
        <time>2021-04-03T11:24:53Z</time>
      </trkpt>
      <trkpt lat="46.17434" lon="6.25835">
        <ele>478.2</ele>
        <time>2021-04-03T11:24:55Z</time>
      </trkpt>
      <trkpt lat="46.17434" lon="6.25835">
        <ele>478.2</ele>
        <time>2021-04-03T11:24:56Z</time>
      </trkpt>
      <trkpt lat="46.17434" lon="6.25834">
        <ele>478.2</ele>
        <time>2021-04-03T11:24:57Z</time>
      </trkpt>
      <trkpt lat="46.17434" lon="6.25834">
        <ele>478.2</ele>
        <time>2021-04-03T11:25:00Z</time>
      </trkpt>
      <trkpt lat="46.17434" lon="6.25834">
        <ele>478.2</ele>
        <time>2021-04-03T11:25:03Z</time>
      </trkpt>
      <trkpt lat="46.17434" lon="6.25834">
        <ele>478.2</ele>
        <time>2021-04-03T11:25:06Z</time>
      </trkpt>
      <trkpt lat="46.17434" lon="6.25834">
        <ele>478.2</ele>
        <time>2021-04-03T11:25:12Z</time>
      </trkpt>
      <trkpt lat="46.17434" lon="6.25834">
        <ele>478.2</ele>
        <time>2021-04-03T11:25:13Z</time>
      </trkpt>
      <trkpt lat="46.17434" lon="6.25834">
        <ele>478.4</ele>
        <time>2021-04-03T11:25:15Z</time>
      </trkpt>
      <trkpt lat="46.17434" lon="6.25834">
        <ele>478.2</ele>
        <time>2021-04-03T11:25:16Z</time>
      </trkpt>
      <trkpt lat="46.17434" lon="6.25834">
        <ele>478.2</ele>
        <time>2021-04-03T11:25:19Z</time>
      </trkpt>
      <trkpt lat="46.17434" lon="6.25834">
        <ele>478.2</ele>
        <time>2021-04-03T11:25:23Z</time>
      </trkpt>
      <trkpt lat="46.17434" lon="6.25834">
        <ele>478.4</ele>
        <time>2021-04-03T11:25:26Z</time>
      </trkpt>
      <trkpt lat="46.17434" lon="6.25834">
        <ele>478.6</ele>
        <time>2021-04-03T11:25:27Z</time>
      </trkpt>
      <trkpt lat="46.17434" lon="6.25834">
        <ele>478.6</ele>
        <time>2021-04-03T11:25:28Z</time>
      </trkpt>
      <trkpt lat="46.17434" lon="6.25834">
        <ele>478.8</ele>
        <time>2021-04-03T11:25:31Z</time>
      </trkpt>
      <trkpt lat="46.17434" lon="6.25833">
        <ele>478.8</ele>
        <time>2021-04-03T11:25:32Z</time>
      </trkpt>
      <trkpt lat="46.17434" lon="6.25833">
        <ele>478.6</ele>
        <time>2021-04-03T11:25:35Z</time>
      </trkpt>
      <trkpt lat="46.17434" lon="6.25833">
        <ele>478.8</ele>
        <time>2021-04-03T11:25:36Z</time>
      </trkpt>
      <trkpt lat="46.17434" lon="6.25833">
        <ele>479</ele>
        <time>2021-04-03T11:25:41Z</time>
      </trkpt>
      <trkpt lat="46.17434" lon="6.25833">
        <ele>478.6</ele>
        <time>2021-04-03T11:25:45Z</time>
      </trkpt>
      <trkpt lat="46.17434" lon="6.25833">
        <ele>478.8</ele>
        <time>2021-04-03T11:25:50Z</time>
      </trkpt>
      <trkpt lat="46.17434" lon="6.25833">
        <ele>478.8</ele>
        <time>2021-04-03T11:25:58Z</time>
      </trkpt>
      <trkpt lat="46.17434" lon="6.25833">
        <ele>478.8</ele>
        <time>2021-04-03T11:26:06Z</time>
      </trkpt>
      <trkpt lat="46.17434" lon="6.25833">
        <ele>478.6</ele>
        <time>2021-04-03T11:26:08Z</time>
      </trkpt>
      <trkpt lat="46.17434" lon="6.25833">
        <ele>478.6</ele>
        <time>2021-04-03T11:26:15Z</time>
      </trkpt>
      <trkpt lat="46.17434" lon="6.25833">
        <ele>478.6</ele>
        <time>2021-04-03T11:26:23Z</time>
      </trkpt>
      <trkpt lat="46.17434" lon="6.25833">
        <ele>478.6</ele>
        <time>2021-04-03T11:26:24Z</time>
      </trkpt>
      <trkpt lat="46.17434" lon="6.25833">
        <ele>478.6</ele>
        <time>2021-04-03T11:26:26Z</time>
      </trkpt>
      <trkpt lat="46.17434" lon="6.25833">
        <ele>478.6</ele>
        <time>2021-04-03T11:26:27Z</time>
      </trkpt>
      <trkpt lat="46.17434" lon="6.25833">
        <ele>478.2</ele>
        <time>2021-04-03T11:26:30Z</time>
      </trkpt>
      <trkpt lat="46.17434" lon="6.25833">
        <ele>478.2</ele>
        <time>2021-04-03T11:26:32Z</time>
      </trkpt>
      <trkpt lat="46.17434" lon="6.25833">
        <ele>478.2</ele>
        <time>2021-04-03T11:26:37Z</time>
      </trkpt>
      <trkpt lat="46.17434" lon="6.25833">
        <ele>478.2</ele>
        <time>2021-04-03T11:26:40Z</time>
      </trkpt>
      <trkpt lat="46.17434" lon="6.25833">
        <ele>478.6</ele>
        <time>2021-04-03T11:26:48Z</time>
      </trkpt>
      <trkpt lat="46.17434" lon="6.25833">
        <ele>478.6</ele>
        <time>2021-04-03T11:26:51Z</time>
      </trkpt>
      <trkpt lat="46.17434" lon="6.25833">
        <ele>478.8</ele>
        <time>2021-04-03T11:26:57Z</time>
      </trkpt>
      <trkpt lat="46.17434" lon="6.25833">
        <ele>478.8</ele>
        <time>2021-04-03T11:26:59Z</time>
      </trkpt>
      <trkpt lat="46.17434" lon="6.25833">
        <ele>478.8</ele>
        <time>2021-04-03T11:27:02Z</time>
      </trkpt>
      <trkpt lat="46.17434" lon="6.25833">
        <ele>478.8</ele>
        <time>2021-04-03T11:27:07Z</time>
      </trkpt>
      <trkpt lat="46.17434" lon="6.25832">
        <ele>478.8</ele>
        <time>2021-04-03T11:27:12Z</time>
      </trkpt>
      <trkpt lat="46.17434" lon="6.25832">
        <ele>478.8</ele>
        <time>2021-04-03T11:27:13Z</time>
      </trkpt>
      <trkpt lat="46.17434" lon="6.25832">
        <ele>478.6</ele>
        <time>2021-04-03T11:27:17Z</time>
      </trkpt>
      <trkpt lat="46.17434" lon="6.25832">
        <ele>478.6</ele>
        <time>2021-04-03T11:27:22Z</time>
      </trkpt>
      <trkpt lat="46.17434" lon="6.25832">
        <ele>478.2</ele>
        <time>2021-04-03T11:27:30Z</time>
      </trkpt>
      <trkpt lat="46.17434" lon="6.25832">
        <ele>478.2</ele>
        <time>2021-04-03T11:27:31Z</time>
      </trkpt>
      <trkpt lat="46.17434" lon="6.25832">
        <ele>478.2</ele>
        <time>2021-04-03T11:27:39Z</time>
      </trkpt>
      <trkpt lat="46.17434" lon="6.25832">
        <ele>477.8</ele>
        <time>2021-04-03T11:27:44Z</time>
      </trkpt>
      <trkpt lat="46.17434" lon="6.25832">
        <ele>477.8</ele>
        <time>2021-04-03T11:27:45Z</time>
      </trkpt>
      <trkpt lat="46.17434" lon="6.25832">
        <ele>477.8</ele>
        <time>2021-04-03T11:27:47Z</time>
      </trkpt>
      <trkpt lat="46.17434" lon="6.25832">
        <ele>477.8</ele>
        <time>2021-04-03T11:27:48Z</time>
      </trkpt>
      <trkpt lat="46.17434" lon="6.25832">
        <ele>477.8</ele>
        <time>2021-04-03T11:27:54Z</time>
      </trkpt>
      <trkpt lat="46.17434" lon="6.25832">
        <ele>477.8</ele>
        <time>2021-04-03T11:27:57Z</time>
      </trkpt>
      <trkpt lat="46.17434" lon="6.25832">
        <ele>477.6</ele>
        <time>2021-04-03T11:28:05Z</time>
      </trkpt>
      <trkpt lat="46.17434" lon="6.25832">
        <ele>477.6</ele>
        <time>2021-04-03T11:28:11Z</time>
      </trkpt>
      <trkpt lat="46.17434" lon="6.25832">
        <ele>477.4</ele>
        <time>2021-04-03T11:28:17Z</time>
      </trkpt>
      <trkpt lat="46.17434" lon="6.25832">
        <ele>477.4</ele>
        <time>2021-04-03T11:28:18Z</time>
      </trkpt>
      <trkpt lat="46.17434" lon="6.25832">
        <ele>477.4</ele>
        <time>2021-04-03T11:28:19Z</time>
      </trkpt>
      <trkpt lat="46.17434" lon="6.25832">
        <ele>477.2</ele>
        <time>2021-04-03T11:28:21Z</time>
      </trkpt>
      <trkpt lat="46.17434" lon="6.25832">
        <ele>477.2</ele>
        <time>2021-04-03T11:28:24Z</time>
      </trkpt>
      <trkpt lat="46.17434" lon="6.25832">
        <ele>477.2</ele>
        <time>2021-04-03T11:28:25Z</time>
      </trkpt>
      <trkpt lat="46.17434" lon="6.25832">
        <ele>477.2</ele>
        <time>2021-04-03T11:28:27Z</time>
      </trkpt>
      <trkpt lat="46.17434" lon="6.25832">
        <ele>477.2</ele>
        <time>2021-04-03T11:28:28Z</time>
      </trkpt>
      <trkpt lat="46.17434" lon="6.25832">
        <ele>477.2</ele>
        <time>2021-04-03T11:28:29Z</time>
      </trkpt>
      <trkpt lat="46.17434" lon="6.25831">
        <ele>477.6</ele>
        <time>2021-04-03T11:28:31Z</time>
      </trkpt>
      <trkpt lat="46.17434" lon="6.25831">
        <ele>477.6</ele>
        <time>2021-04-03T11:28:32Z</time>
      </trkpt>
      <trkpt lat="46.17434" lon="6.25831">
        <ele>477.8</ele>
        <time>2021-04-03T11:28:33Z</time>
      </trkpt>
      <trkpt lat="46.17434" lon="6.25831">
        <ele>477.8</ele>
        <time>2021-04-03T11:28:34Z</time>
      </trkpt>
      <trkpt lat="46.17435" lon="6.25831">
        <ele>477.8</ele>
        <time>2021-04-03T11:28:35Z</time>
      </trkpt>
      <trkpt lat="46.17435" lon="6.25831">
        <ele>477.8</ele>
        <time>2021-04-03T11:28:38Z</time>
      </trkpt>
      <trkpt lat="46.17435" lon="6.25831">
        <ele>478</ele>
        <time>2021-04-03T11:28:42Z</time>
      </trkpt>
      <trkpt lat="46.17435" lon="6.25831">
        <ele>478</ele>
        <time>2021-04-03T11:28:46Z</time>
      </trkpt>
      <trkpt lat="46.17435" lon="6.25831">
        <ele>478</ele>
        <time>2021-04-03T11:28:48Z</time>
      </trkpt>
      <trkpt lat="46.17435" lon="6.25831">
        <ele>478</ele>
        <time>2021-04-03T11:28:51Z</time>
      </trkpt>
      <trkpt lat="46.17435" lon="6.25831">
        <ele>478</ele>
        <time>2021-04-03T11:28:54Z</time>
      </trkpt>
      <trkpt lat="46.17435" lon="6.25831">
        <ele>477.8</ele>
        <time>2021-04-03T11:28:58Z</time>
      </trkpt>
      <trkpt lat="46.17435" lon="6.25831">
        <ele>478</ele>
        <time>2021-04-03T11:29:00Z</time>
      </trkpt>
      <trkpt lat="46.17435" lon="6.25831">
        <ele>478</ele>
        <time>2021-04-03T11:29:05Z</time>
      </trkpt>
      <trkpt lat="46.17435" lon="6.25831">
        <ele>478.2</ele>
        <time>2021-04-03T11:29:07Z</time>
      </trkpt>
      <trkpt lat="46.17435" lon="6.25831">
        <ele>478.2</ele>
        <time>2021-04-03T11:29:10Z</time>
      </trkpt>
      <trkpt lat="46.17435" lon="6.25831">
        <ele>478.2</ele>
        <time>2021-04-03T11:29:14Z</time>
      </trkpt>
      <trkpt lat="46.17435" lon="6.25831">
        <ele>478.4</ele>
        <time>2021-04-03T11:29:16Z</time>
      </trkpt>
      <trkpt lat="46.17435" lon="6.25831">
        <ele>478.4</ele>
        <time>2021-04-03T11:29:17Z</time>
      </trkpt>
      <trkpt lat="46.17435" lon="6.25831">
        <ele>478.2</ele>
        <time>2021-04-03T11:29:18Z</time>
      </trkpt>
      <trkpt lat="46.17435" lon="6.25831">
        <ele>478.2</ele>
        <time>2021-04-03T11:29:19Z</time>
      </trkpt>
      <trkpt lat="46.17435" lon="6.25831">
        <ele>478.2</ele>
        <time>2021-04-03T11:29:22Z</time>
      </trkpt>
      <trkpt lat="46.17435" lon="6.25831">
        <ele>478</ele>
        <time>2021-04-03T11:29:23Z</time>
      </trkpt>
      <trkpt lat="46.17435" lon="6.25831">
        <ele>478.2</ele>
        <time>2021-04-03T11:29:24Z</time>
      </trkpt>
      <trkpt lat="46.17435" lon="6.25831">
        <ele>478.2</ele>
        <time>2021-04-03T11:29:25Z</time>
      </trkpt>
      <trkpt lat="46.17435" lon="6.25831">
        <ele>478</ele>
        <time>2021-04-03T11:29:33Z</time>
      </trkpt>
      <trkpt lat="46.17435" lon="6.25831">
        <ele>478</ele>
        <time>2021-04-03T11:29:35Z</time>
      </trkpt>
      <trkpt lat="46.17435" lon="6.25831">
        <ele>478.2</ele>
        <time>2021-04-03T11:29:42Z</time>
      </trkpt>
      <trkpt lat="46.17435" lon="6.25831">
        <ele>478.8</ele>
        <time>2021-04-03T11:29:48Z</time>
      </trkpt>
      <trkpt lat="46.17435" lon="6.25831">
        <ele>479</ele>
        <time>2021-04-03T11:29:51Z</time>
      </trkpt>
      <trkpt lat="46.17435" lon="6.25831">
        <ele>479</ele>
        <time>2021-04-03T11:29:53Z</time>
      </trkpt>
      <trkpt lat="46.17435" lon="6.25831">
        <ele>478.4</ele>
        <time>2021-04-03T11:29:57Z</time>
      </trkpt>
      <trkpt lat="46.17435" lon="6.25831">
        <ele>477.8</ele>
        <time>2021-04-03T11:30:00Z</time>
      </trkpt>
      <trkpt lat="46.17435" lon="6.25831">
        <ele>477.8</ele>
        <time>2021-04-03T11:30:06Z</time>
      </trkpt>
      <trkpt lat="46.17435" lon="6.25831">
        <ele>477.6</ele>
        <time>2021-04-03T11:30:13Z</time>
      </trkpt>
      <trkpt lat="46.17435" lon="6.25831">
        <ele>477.6</ele>
        <time>2021-04-03T11:30:14Z</time>
      </trkpt>
      <trkpt lat="46.17435" lon="6.25832">
        <ele>477.6</ele>
        <time>2021-04-03T11:30:16Z</time>
      </trkpt>
      <trkpt lat="46.17435" lon="6.25832">
        <ele>477.6</ele>
        <time>2021-04-03T11:30:17Z</time>
      </trkpt>
      <trkpt lat="46.17434" lon="6.25832">
        <ele>477.6</ele>
        <time>2021-04-03T11:30:18Z</time>
      </trkpt>
      <trkpt lat="46.17434" lon="6.25832">
        <ele>477.6</ele>
        <time>2021-04-03T11:30:19Z</time>
      </trkpt>
      <trkpt lat="46.17434" lon="6.25832">
        <ele>477.8</ele>
        <time>2021-04-03T11:30:20Z</time>
      </trkpt>
      <trkpt lat="46.17434" lon="6.25832">
        <ele>477.8</ele>
        <time>2021-04-03T11:30:21Z</time>
      </trkpt>
      <trkpt lat="46.17434" lon="6.25832">
        <ele>477.8</ele>
        <time>2021-04-03T11:30:22Z</time>
      </trkpt>
      <trkpt lat="46.17434" lon="6.25832">
        <ele>477.8</ele>
        <time>2021-04-03T11:30:24Z</time>
      </trkpt>
      <trkpt lat="46.17434" lon="6.25832">
        <ele>478</ele>
        <time>2021-04-03T11:30:27Z</time>
      </trkpt>
      <trkpt lat="46.17434" lon="6.25832">
        <ele>478</ele>
        <time>2021-04-03T11:30:32Z</time>
      </trkpt>
      <trkpt lat="46.17434" lon="6.25832">
        <ele>478.2</ele>
        <time>2021-04-03T11:30:34Z</time>
      </trkpt>
      <trkpt lat="46.17434" lon="6.25832">
        <ele>478.4</ele>
        <time>2021-04-03T11:30:41Z</time>
      </trkpt>
      <trkpt lat="46.17434" lon="6.25832">
        <ele>478.4</ele>
        <time>2021-04-03T11:30:42Z</time>
      </trkpt>
      <trkpt lat="46.17434" lon="6.25833">
        <ele>478.6</ele>
        <time>2021-04-03T11:30:44Z</time>
      </trkpt>
      <trkpt lat="46.17434" lon="6.25833">
        <ele>478.6</ele>
        <time>2021-04-03T11:30:46Z</time>
      </trkpt>
      <trkpt lat="46.17434" lon="6.25833">
        <ele>478.6</ele>
        <time>2021-04-03T11:30:48Z</time>
      </trkpt>
      <trkpt lat="46.17434" lon="6.25833">
        <ele>478.6</ele>
        <time>2021-04-03T11:30:50Z</time>
      </trkpt>
      <trkpt lat="46.17434" lon="6.25833">
        <ele>478.6</ele>
        <time>2021-04-03T11:30:54Z</time>
      </trkpt>
      <trkpt lat="46.17434" lon="6.25833">
        <ele>478.6</ele>
        <time>2021-04-03T11:30:55Z</time>
      </trkpt>
      <trkpt lat="46.17434" lon="6.25833">
        <ele>478.6</ele>
        <time>2021-04-03T11:30:56Z</time>
      </trkpt>
      <trkpt lat="46.17434" lon="6.25833">
        <ele>478.6</ele>
        <time>2021-04-03T11:30:57Z</time>
      </trkpt>
      <trkpt lat="46.17434" lon="6.25833">
        <ele>478.6</ele>
        <time>2021-04-03T11:30:58Z</time>
      </trkpt>
      <trkpt lat="46.17434" lon="6.25833">
        <ele>478.8</ele>
        <time>2021-04-03T11:30:59Z</time>
      </trkpt>
      <trkpt lat="46.17434" lon="6.25833">
        <ele>478.6</ele>
        <time>2021-04-03T11:31:00Z</time>
      </trkpt>
      <trkpt lat="46.17434" lon="6.25833">
        <ele>478.6</ele>
        <time>2021-04-03T11:31:02Z</time>
      </trkpt>
      <trkpt lat="46.17433" lon="6.25832">
        <ele>478.8</ele>
        <time>2021-04-03T11:31:03Z</time>
      </trkpt>
      <trkpt lat="46.17433" lon="6.25831">
        <ele>479</ele>
        <time>2021-04-03T11:31:04Z</time>
      </trkpt>
      <trkpt lat="46.17433" lon="6.25831">
        <ele>479</ele>
        <time>2021-04-03T11:31:05Z</time>
      </trkpt>
      <trkpt lat="46.17433" lon="6.25831">
        <ele>479</ele>
        <time>2021-04-03T11:31:06Z</time>
      </trkpt>
      <trkpt lat="46.17433" lon="6.25831">
        <ele>479</ele>
        <time>2021-04-03T11:31:07Z</time>
      </trkpt>
      <trkpt lat="46.17433" lon="6.25831">
        <ele>479</ele>
        <time>2021-04-03T11:31:08Z</time>
      </trkpt>
      <trkpt lat="46.17433" lon="6.25831">
        <ele>479</ele>
        <time>2021-04-03T11:31:09Z</time>
      </trkpt>
      <trkpt lat="46.17433" lon="6.25832">
        <ele>479</ele>
        <time>2021-04-03T11:31:11Z</time>
      </trkpt>
      <trkpt lat="46.17433" lon="6.25832">
        <ele>479.2</ele>
        <time>2021-04-03T11:31:12Z</time>
      </trkpt>
      <trkpt lat="46.17433" lon="6.25833">
        <ele>479.4</ele>
        <time>2021-04-03T11:31:13Z</time>
      </trkpt>
      <trkpt lat="46.17433" lon="6.25835">
        <ele>479.2</ele>
        <time>2021-04-03T11:31:14Z</time>
      </trkpt>
      <trkpt lat="46.17433" lon="6.25836">
        <ele>479.4</ele>
        <time>2021-04-03T11:31:15Z</time>
      </trkpt>
      <trkpt lat="46.17433" lon="6.25839">
        <ele>479.2</ele>
        <time>2021-04-03T11:31:16Z</time>
      </trkpt>
      <trkpt lat="46.17434" lon="6.25842">
        <ele>479.2</ele>
        <time>2021-04-03T11:31:17Z</time>
      </trkpt>
      <trkpt lat="46.17435" lon="6.25845">
        <ele>479</ele>
        <time>2021-04-03T11:31:18Z</time>
      </trkpt>
      <trkpt lat="46.17436" lon="6.25847">
        <ele>479</ele>
        <time>2021-04-03T11:31:19Z</time>
      </trkpt>
      <trkpt lat="46.17437" lon="6.25849">
        <ele>479</ele>
        <time>2021-04-03T11:31:20Z</time>
      </trkpt>
      <trkpt lat="46.17437" lon="6.25852">
        <ele>479.2</ele>
        <time>2021-04-03T11:31:21Z</time>
      </trkpt>
      <trkpt lat="46.17436" lon="6.25855">
        <ele>479.2</ele>
        <time>2021-04-03T11:31:22Z</time>
      </trkpt>
      <trkpt lat="46.17434" lon="6.25857">
        <ele>479</ele>
        <time>2021-04-03T11:31:23Z</time>
      </trkpt>
      <trkpt lat="46.17432" lon="6.2586">
        <ele>479</ele>
        <time>2021-04-03T11:31:24Z</time>
      </trkpt>
      <trkpt lat="46.17429" lon="6.25862">
        <ele>478.8</ele>
        <time>2021-04-03T11:31:25Z</time>
      </trkpt>
      <trkpt lat="46.17427" lon="6.25865">
        <ele>478.8</ele>
        <time>2021-04-03T11:31:26Z</time>
      </trkpt>
      <trkpt lat="46.17425" lon="6.25869">
        <ele>478.6</ele>
        <time>2021-04-03T11:31:27Z</time>
      </trkpt>
      <trkpt lat="46.17424" lon="6.25873">
        <ele>478.6</ele>
        <time>2021-04-03T11:31:28Z</time>
      </trkpt>
      <trkpt lat="46.17423" lon="6.25878">
        <ele>478.6</ele>
        <time>2021-04-03T11:31:29Z</time>
      </trkpt>
      <trkpt lat="46.17423" lon="6.25884">
        <ele>478.6</ele>
        <time>2021-04-03T11:31:30Z</time>
      </trkpt>
      <trkpt lat="46.17423" lon="6.2589">
        <ele>478.6</ele>
        <time>2021-04-03T11:31:31Z</time>
      </trkpt>
      <trkpt lat="46.17424" lon="6.25897">
        <ele>478.6</ele>
        <time>2021-04-03T11:31:32Z</time>
      </trkpt>
      <trkpt lat="46.17425" lon="6.25904">
        <ele>478.6</ele>
        <time>2021-04-03T11:31:33Z</time>
      </trkpt>
      <trkpt lat="46.17425" lon="6.25911">
        <ele>478.6</ele>
        <time>2021-04-03T11:31:34Z</time>
      </trkpt>
      <trkpt lat="46.17425" lon="6.25918">
        <ele>478.4</ele>
        <time>2021-04-03T11:31:35Z</time>
      </trkpt>
      <trkpt lat="46.17426" lon="6.25926">
        <ele>478</ele>
        <time>2021-04-03T11:31:36Z</time>
      </trkpt>
      <trkpt lat="46.17426" lon="6.25933">
        <ele>478</ele>
        <time>2021-04-03T11:31:37Z</time>
      </trkpt>
      <trkpt lat="46.17426" lon="6.25941">
        <ele>477.6</ele>
        <time>2021-04-03T11:31:38Z</time>
      </trkpt>
      <trkpt lat="46.17427" lon="6.25948">
        <ele>477.6</ele>
        <time>2021-04-03T11:31:39Z</time>
      </trkpt>
      <trkpt lat="46.17427" lon="6.25956">
        <ele>477.6</ele>
        <time>2021-04-03T11:31:40Z</time>
      </trkpt>
      <trkpt lat="46.17427" lon="6.25964">
        <ele>477.6</ele>
        <time>2021-04-03T11:31:41Z</time>
      </trkpt>
      <trkpt lat="46.17427" lon="6.25971">
        <ele>477.6</ele>
        <time>2021-04-03T11:31:42Z</time>
      </trkpt>
      <trkpt lat="46.17427" lon="6.25979">
        <ele>477.6</ele>
        <time>2021-04-03T11:31:43Z</time>
      </trkpt>
      <trkpt lat="46.17427" lon="6.25987">
        <ele>477.6</ele>
        <time>2021-04-03T11:31:44Z</time>
      </trkpt>
      <trkpt lat="46.17427" lon="6.25994">
        <ele>477.8</ele>
        <time>2021-04-03T11:31:45Z</time>
      </trkpt>
      <trkpt lat="46.17427" lon="6.26002">
        <ele>477.8</ele>
        <time>2021-04-03T11:31:46Z</time>
      </trkpt>
      <trkpt lat="46.17427" lon="6.26009">
        <ele>478</ele>
        <time>2021-04-03T11:31:47Z</time>
      </trkpt>
      <trkpt lat="46.17427" lon="6.26016">
        <ele>478.2</ele>
        <time>2021-04-03T11:31:48Z</time>
      </trkpt>
      <trkpt lat="46.17427" lon="6.26022">
        <ele>478.4</ele>
        <time>2021-04-03T11:31:49Z</time>
      </trkpt>
      <trkpt lat="46.17427" lon="6.26029">
        <ele>478.4</ele>
        <time>2021-04-03T11:31:50Z</time>
      </trkpt>
      <trkpt lat="46.17427" lon="6.26035">
        <ele>478.4</ele>
        <time>2021-04-03T11:31:51Z</time>
      </trkpt>
      <trkpt lat="46.17427" lon="6.26042">
        <ele>478.4</ele>
        <time>2021-04-03T11:31:52Z</time>
      </trkpt>
      <trkpt lat="46.17426" lon="6.26049">
        <ele>478.6</ele>
        <time>2021-04-03T11:31:53Z</time>
      </trkpt>
      <trkpt lat="46.17426" lon="6.26056">
        <ele>478.6</ele>
        <time>2021-04-03T11:31:54Z</time>
      </trkpt>
      <trkpt lat="46.17425" lon="6.26063">
        <ele>478.8</ele>
        <time>2021-04-03T11:31:55Z</time>
      </trkpt>
      <trkpt lat="46.17424" lon="6.2607">
        <ele>479.2</ele>
        <time>2021-04-03T11:31:56Z</time>
      </trkpt>
      <trkpt lat="46.17423" lon="6.26076">
        <ele>479.2</ele>
        <time>2021-04-03T11:31:57Z</time>
      </trkpt>
      <trkpt lat="46.17422" lon="6.26082">
        <ele>479.4</ele>
        <time>2021-04-03T11:31:58Z</time>
      </trkpt>
      <trkpt lat="46.17422" lon="6.26088">
        <ele>479.4</ele>
        <time>2021-04-03T11:31:59Z</time>
      </trkpt>
      <trkpt lat="46.17422" lon="6.26094">
        <ele>479.4</ele>
        <time>2021-04-03T11:32:00Z</time>
      </trkpt>
      <trkpt lat="46.17421" lon="6.26101">
        <ele>479.4</ele>
        <time>2021-04-03T11:32:01Z</time>
      </trkpt>
      <trkpt lat="46.17421" lon="6.26107">
        <ele>479.4</ele>
        <time>2021-04-03T11:32:02Z</time>
      </trkpt>
      <trkpt lat="46.17421" lon="6.26113">
        <ele>479.6</ele>
        <time>2021-04-03T11:32:03Z</time>
      </trkpt>
      <trkpt lat="46.1742" lon="6.26119">
        <ele>479.4</ele>
        <time>2021-04-03T11:32:04Z</time>
      </trkpt>
      <trkpt lat="46.1742" lon="6.26125">
        <ele>479.4</ele>
        <time>2021-04-03T11:32:05Z</time>
      </trkpt>
      <trkpt lat="46.1742" lon="6.26132">
        <ele>479.6</ele>
        <time>2021-04-03T11:32:06Z</time>
      </trkpt>
      <trkpt lat="46.1742" lon="6.26138">
        <ele>479.6</ele>
        <time>2021-04-03T11:32:07Z</time>
      </trkpt>
      <trkpt lat="46.17421" lon="6.26144">
        <ele>479.4</ele>
        <time>2021-04-03T11:32:08Z</time>
      </trkpt>
      <trkpt lat="46.17421" lon="6.2615">
        <ele>479.4</ele>
        <time>2021-04-03T11:32:09Z</time>
      </trkpt>
      <trkpt lat="46.17421" lon="6.26156">
        <ele>479.4</ele>
        <time>2021-04-03T11:32:10Z</time>
      </trkpt>
      <trkpt lat="46.17422" lon="6.26162">
        <ele>479.4</ele>
        <time>2021-04-03T11:32:11Z</time>
      </trkpt>
      <trkpt lat="46.17423" lon="6.26167">
        <ele>479.6</ele>
        <time>2021-04-03T11:32:12Z</time>
      </trkpt>
      <trkpt lat="46.17423" lon="6.26173">
        <ele>479.6</ele>
        <time>2021-04-03T11:32:13Z</time>
      </trkpt>
      <trkpt lat="46.17423" lon="6.26178">
        <ele>479.6</ele>
        <time>2021-04-03T11:32:14Z</time>
      </trkpt>
      <trkpt lat="46.17423" lon="6.26184">
        <ele>479.6</ele>
        <time>2021-04-03T11:32:15Z</time>
      </trkpt>
      <trkpt lat="46.17422" lon="6.2619">
        <ele>479.4</ele>
        <time>2021-04-03T11:32:16Z</time>
      </trkpt>
      <trkpt lat="46.17421" lon="6.26195">
        <ele>479.6</ele>
        <time>2021-04-03T11:32:17Z</time>
      </trkpt>
      <trkpt lat="46.17421" lon="6.26201">
        <ele>479.4</ele>
        <time>2021-04-03T11:32:18Z</time>
      </trkpt>
      <trkpt lat="46.1742" lon="6.26207">
        <ele>479.6</ele>
        <time>2021-04-03T11:32:19Z</time>
      </trkpt>
      <trkpt lat="46.17419" lon="6.26212">
        <ele>479.6</ele>
        <time>2021-04-03T11:32:20Z</time>
      </trkpt>
      <trkpt lat="46.17418" lon="6.26217">
        <ele>479.6</ele>
        <time>2021-04-03T11:32:21Z</time>
      </trkpt>
      <trkpt lat="46.17417" lon="6.26221">
        <ele>479.6</ele>
        <time>2021-04-03T11:32:22Z</time>
      </trkpt>
      <trkpt lat="46.17416" lon="6.26227">
        <ele>479.8</ele>
        <time>2021-04-03T11:32:23Z</time>
      </trkpt>
      <trkpt lat="46.17415" lon="6.26233">
        <ele>479.6</ele>
        <time>2021-04-03T11:32:24Z</time>
      </trkpt>
      <trkpt lat="46.17414" lon="6.2624">
        <ele>479.8</ele>
        <time>2021-04-03T11:32:25Z</time>
      </trkpt>
      <trkpt lat="46.17414" lon="6.26246">
        <ele>479.8</ele>
        <time>2021-04-03T11:32:26Z</time>
      </trkpt>
      <trkpt lat="46.17414" lon="6.26253">
        <ele>479.6</ele>
        <time>2021-04-03T11:32:27Z</time>
      </trkpt>
      <trkpt lat="46.17414" lon="6.26259">
        <ele>479.6</ele>
        <time>2021-04-03T11:32:28Z</time>
      </trkpt>
      <trkpt lat="46.17414" lon="6.26265">
        <ele>479.8</ele>
        <time>2021-04-03T11:32:29Z</time>
      </trkpt>
      <trkpt lat="46.17414" lon="6.26271">
        <ele>479.6</ele>
        <time>2021-04-03T11:32:30Z</time>
      </trkpt>
      <trkpt lat="46.17415" lon="6.26277">
        <ele>479.6</ele>
        <time>2021-04-03T11:32:31Z</time>
      </trkpt>
      <trkpt lat="46.17416" lon="6.26283">
        <ele>479.6</ele>
        <time>2021-04-03T11:32:32Z</time>
      </trkpt>
      <trkpt lat="46.17418" lon="6.26289">
        <ele>479.8</ele>
        <time>2021-04-03T11:32:33Z</time>
      </trkpt>
      <trkpt lat="46.1742" lon="6.26294">
        <ele>480</ele>
        <time>2021-04-03T11:32:34Z</time>
      </trkpt>
      <trkpt lat="46.17423" lon="6.26298">
        <ele>480</ele>
        <time>2021-04-03T11:32:35Z</time>
      </trkpt>
      <trkpt lat="46.17425" lon="6.26303">
        <ele>480</ele>
        <time>2021-04-03T11:32:36Z</time>
      </trkpt>
      <trkpt lat="46.17427" lon="6.26307">
        <ele>480</ele>
        <time>2021-04-03T11:32:37Z</time>
      </trkpt>
      <trkpt lat="46.17429" lon="6.26312">
        <ele>480.4</ele>
        <time>2021-04-03T11:32:38Z</time>
      </trkpt>
      <trkpt lat="46.17432" lon="6.26316">
        <ele>480.4</ele>
        <time>2021-04-03T11:32:39Z</time>
      </trkpt>
      <trkpt lat="46.17434" lon="6.2632">
        <ele>480.4</ele>
        <time>2021-04-03T11:32:40Z</time>
      </trkpt>
      <trkpt lat="46.17437" lon="6.26324">
        <ele>480.8</ele>
        <time>2021-04-03T11:32:41Z</time>
      </trkpt>
      <trkpt lat="46.17439" lon="6.26328">
        <ele>480.8</ele>
        <time>2021-04-03T11:32:42Z</time>
      </trkpt>
      <trkpt lat="46.17442" lon="6.26332">
        <ele>480.8</ele>
        <time>2021-04-03T11:32:43Z</time>
      </trkpt>
      <trkpt lat="46.17445" lon="6.26337">
        <ele>480.8</ele>
        <time>2021-04-03T11:32:44Z</time>
      </trkpt>
      <trkpt lat="46.17447" lon="6.26341">
        <ele>481</ele>
        <time>2021-04-03T11:32:45Z</time>
      </trkpt>
      <trkpt lat="46.1745" lon="6.26346">
        <ele>481</ele>
        <time>2021-04-03T11:32:46Z</time>
      </trkpt>
      <trkpt lat="46.17453" lon="6.26351">
        <ele>481.4</ele>
        <time>2021-04-03T11:32:47Z</time>
      </trkpt>
      <trkpt lat="46.17455" lon="6.26355">
        <ele>481.4</ele>
        <time>2021-04-03T11:32:48Z</time>
      </trkpt>
      <trkpt lat="46.17458" lon="6.2636">
        <ele>481.6</ele>
        <time>2021-04-03T11:32:49Z</time>
      </trkpt>
      <trkpt lat="46.1746" lon="6.26364">
        <ele>481.8</ele>
        <time>2021-04-03T11:32:50Z</time>
      </trkpt>
      <trkpt lat="46.17463" lon="6.26368">
        <ele>481.8</ele>
        <time>2021-04-03T11:32:51Z</time>
      </trkpt>
      <trkpt lat="46.17465" lon="6.26372">
        <ele>482.2</ele>
        <time>2021-04-03T11:32:52Z</time>
      </trkpt>
      <trkpt lat="46.17468" lon="6.26377">
        <ele>482.2</ele>
        <time>2021-04-03T11:32:53Z</time>
      </trkpt>
      <trkpt lat="46.17471" lon="6.26381">
        <ele>482.4</ele>
        <time>2021-04-03T11:32:54Z</time>
      </trkpt>
      <trkpt lat="46.17473" lon="6.26384">
        <ele>482.6</ele>
        <time>2021-04-03T11:32:55Z</time>
      </trkpt>
      <trkpt lat="46.17476" lon="6.26388">
        <ele>482.6</ele>
        <time>2021-04-03T11:32:56Z</time>
      </trkpt>
      <trkpt lat="46.17479" lon="6.26392">
        <ele>482.6</ele>
        <time>2021-04-03T11:32:57Z</time>
      </trkpt>
      <trkpt lat="46.17482" lon="6.26396">
        <ele>482.6</ele>
        <time>2021-04-03T11:32:58Z</time>
      </trkpt>
      <trkpt lat="46.17484" lon="6.264">
        <ele>482.6</ele>
        <time>2021-04-03T11:32:59Z</time>
      </trkpt>
      <trkpt lat="46.17487" lon="6.26404">
        <ele>482.6</ele>
        <time>2021-04-03T11:33:00Z</time>
      </trkpt>
      <trkpt lat="46.1749" lon="6.26408">
        <ele>482.8</ele>
        <time>2021-04-03T11:33:01Z</time>
      </trkpt>
      <trkpt lat="46.17493" lon="6.26412">
        <ele>483</ele>
        <time>2021-04-03T11:33:02Z</time>
      </trkpt>
      <trkpt lat="46.17496" lon="6.26416">
        <ele>483</ele>
        <time>2021-04-03T11:33:03Z</time>
      </trkpt>
      <trkpt lat="46.17499" lon="6.2642">
        <ele>483</ele>
        <time>2021-04-03T11:33:04Z</time>
      </trkpt>
      <trkpt lat="46.17502" lon="6.26424">
        <ele>483.2</ele>
        <time>2021-04-03T11:33:05Z</time>
      </trkpt>
      <trkpt lat="46.17504" lon="6.26428">
        <ele>483.4</ele>
        <time>2021-04-03T11:33:06Z</time>
      </trkpt>
      <trkpt lat="46.17507" lon="6.26432">
        <ele>483.4</ele>
        <time>2021-04-03T11:33:07Z</time>
      </trkpt>
      <trkpt lat="46.1751" lon="6.26436">
        <ele>483.8</ele>
        <time>2021-04-03T11:33:08Z</time>
      </trkpt>
      <trkpt lat="46.17513" lon="6.2644">
        <ele>483.8</ele>
        <time>2021-04-03T11:33:09Z</time>
      </trkpt>
      <trkpt lat="46.17516" lon="6.26444">
        <ele>483.8</ele>
        <time>2021-04-03T11:33:10Z</time>
      </trkpt>
      <trkpt lat="46.17519" lon="6.26449">
        <ele>484.2</ele>
        <time>2021-04-03T11:33:11Z</time>
      </trkpt>
      <trkpt lat="46.17522" lon="6.26453">
        <ele>484.6</ele>
        <time>2021-04-03T11:33:12Z</time>
      </trkpt>
      <trkpt lat="46.17525" lon="6.26457">
        <ele>484.6</ele>
        <time>2021-04-03T11:33:13Z</time>
      </trkpt>
      <trkpt lat="46.17528" lon="6.26461">
        <ele>484.8</ele>
        <time>2021-04-03T11:33:14Z</time>
      </trkpt>
      <trkpt lat="46.17531" lon="6.26464">
        <ele>484.8</ele>
        <time>2021-04-03T11:33:15Z</time>
      </trkpt>
      <trkpt lat="46.17534" lon="6.26468">
        <ele>485</ele>
        <time>2021-04-03T11:33:16Z</time>
      </trkpt>
      <trkpt lat="46.17537" lon="6.26471">
        <ele>485.2</ele>
        <time>2021-04-03T11:33:17Z</time>
      </trkpt>
      <trkpt lat="46.17541" lon="6.26475">
        <ele>485.4</ele>
        <time>2021-04-03T11:33:18Z</time>
      </trkpt>
      <trkpt lat="46.17544" lon="6.26478">
        <ele>485.4</ele>
        <time>2021-04-03T11:33:19Z</time>
      </trkpt>
      <trkpt lat="46.17547" lon="6.26481">
        <ele>485.4</ele>
        <time>2021-04-03T11:33:20Z</time>
      </trkpt>
      <trkpt lat="46.1755" lon="6.26485">
        <ele>485.8</ele>
        <time>2021-04-03T11:33:21Z</time>
      </trkpt>
      <trkpt lat="46.17553" lon="6.26488">
        <ele>486</ele>
        <time>2021-04-03T11:33:22Z</time>
      </trkpt>
      <trkpt lat="46.17556" lon="6.26491">
        <ele>486.2</ele>
        <time>2021-04-03T11:33:23Z</time>
      </trkpt>
      <trkpt lat="46.17559" lon="6.26495">
        <ele>486.2</ele>
        <time>2021-04-03T11:33:24Z</time>
      </trkpt>
      <trkpt lat="46.17562" lon="6.26498">
        <ele>486.2</ele>
        <time>2021-04-03T11:33:25Z</time>
      </trkpt>
      <trkpt lat="46.17565" lon="6.26501">
        <ele>486.4</ele>
        <time>2021-04-03T11:33:26Z</time>
      </trkpt>
      <trkpt lat="46.17569" lon="6.26505">
        <ele>486.8</ele>
        <time>2021-04-03T11:33:27Z</time>
      </trkpt>
      <trkpt lat="46.17572" lon="6.26508">
        <ele>486.8</ele>
        <time>2021-04-03T11:33:28Z</time>
      </trkpt>
      <trkpt lat="46.17575" lon="6.26511">
        <ele>486.8</ele>
        <time>2021-04-03T11:33:29Z</time>
      </trkpt>
      <trkpt lat="46.17578" lon="6.26514">
        <ele>486.8</ele>
        <time>2021-04-03T11:33:30Z</time>
      </trkpt>
      <trkpt lat="46.17582" lon="6.26518">
        <ele>487.2</ele>
        <time>2021-04-03T11:33:31Z</time>
      </trkpt>
      <trkpt lat="46.17585" lon="6.26521">
        <ele>487</ele>
        <time>2021-04-03T11:33:32Z</time>
      </trkpt>
      <trkpt lat="46.17588" lon="6.26525">
        <ele>487.4</ele>
        <time>2021-04-03T11:33:33Z</time>
      </trkpt>
      <trkpt lat="46.17591" lon="6.26528">
        <ele>487.4</ele>
        <time>2021-04-03T11:33:34Z</time>
      </trkpt>
      <trkpt lat="46.17594" lon="6.26531">
        <ele>487.8</ele>
        <time>2021-04-03T11:33:35Z</time>
      </trkpt>
      <trkpt lat="46.17597" lon="6.26535">
        <ele>488</ele>
        <time>2021-04-03T11:33:36Z</time>
      </trkpt>
      <trkpt lat="46.176" lon="6.26538">
        <ele>488</ele>
        <time>2021-04-03T11:33:37Z</time>
      </trkpt>
      <trkpt lat="46.17604" lon="6.26542">
        <ele>488.4</ele>
        <time>2021-04-03T11:33:38Z</time>
      </trkpt>
      <trkpt lat="46.17607" lon="6.26545">
        <ele>488.6</ele>
        <time>2021-04-03T11:33:39Z</time>
      </trkpt>
      <trkpt lat="46.1761" lon="6.26548">
        <ele>488.8</ele>
        <time>2021-04-03T11:33:40Z</time>
      </trkpt>
      <trkpt lat="46.17614" lon="6.26552">
        <ele>489</ele>
        <time>2021-04-03T11:33:41Z</time>
      </trkpt>
      <trkpt lat="46.17617" lon="6.26555">
        <ele>489.2</ele>
        <time>2021-04-03T11:33:42Z</time>
      </trkpt>
      <trkpt lat="46.1762" lon="6.26558">
        <ele>489.4</ele>
        <time>2021-04-03T11:33:43Z</time>
      </trkpt>
      <trkpt lat="46.17624" lon="6.26561">
        <ele>489.4</ele>
        <time>2021-04-03T11:33:44Z</time>
      </trkpt>
      <trkpt lat="46.17627" lon="6.26564">
        <ele>489.6</ele>
        <time>2021-04-03T11:33:45Z</time>
      </trkpt>
      <trkpt lat="46.1763" lon="6.26567">
        <ele>489.8</ele>
        <time>2021-04-03T11:33:46Z</time>
      </trkpt>
      <trkpt lat="46.17633" lon="6.26571">
        <ele>489.6</ele>
        <time>2021-04-03T11:33:47Z</time>
      </trkpt>
      <trkpt lat="46.17636" lon="6.26574">
        <ele>489.8</ele>
        <time>2021-04-03T11:33:48Z</time>
      </trkpt>
      <trkpt lat="46.17639" lon="6.26577">
        <ele>490</ele>
        <time>2021-04-03T11:33:49Z</time>
      </trkpt>
      <trkpt lat="46.17643" lon="6.2658">
        <ele>490.2</ele>
        <time>2021-04-03T11:33:50Z</time>
      </trkpt>
      <trkpt lat="46.17646" lon="6.26584">
        <ele>490.6</ele>
        <time>2021-04-03T11:33:51Z</time>
      </trkpt>
      <trkpt lat="46.17649" lon="6.26587">
        <ele>490.6</ele>
        <time>2021-04-03T11:33:52Z</time>
      </trkpt>
      <trkpt lat="46.17652" lon="6.2659">
        <ele>490.8</ele>
        <time>2021-04-03T11:33:53Z</time>
      </trkpt>
      <trkpt lat="46.17655" lon="6.26593">
        <ele>490.8</ele>
        <time>2021-04-03T11:33:54Z</time>
      </trkpt>
      <trkpt lat="46.17658" lon="6.26596">
        <ele>491</ele>
        <time>2021-04-03T11:33:55Z</time>
      </trkpt>
      <trkpt lat="46.17661" lon="6.26599">
        <ele>491.2</ele>
        <time>2021-04-03T11:33:56Z</time>
      </trkpt>
      <trkpt lat="46.17664" lon="6.26602">
        <ele>491.4</ele>
        <time>2021-04-03T11:33:57Z</time>
      </trkpt>
      <trkpt lat="46.17667" lon="6.26605">
        <ele>491.4</ele>
        <time>2021-04-03T11:33:58Z</time>
      </trkpt>
      <trkpt lat="46.17671" lon="6.26609">
        <ele>491.6</ele>
        <time>2021-04-03T11:33:59Z</time>
      </trkpt>
      <trkpt lat="46.17674" lon="6.26612">
        <ele>491.6</ele>
        <time>2021-04-03T11:34:00Z</time>
      </trkpt>
      <trkpt lat="46.17677" lon="6.26616">
        <ele>491.8</ele>
        <time>2021-04-03T11:34:01Z</time>
      </trkpt>
      <trkpt lat="46.17679" lon="6.2662">
        <ele>491.8</ele>
        <time>2021-04-03T11:34:02Z</time>
      </trkpt>
      <trkpt lat="46.17682" lon="6.26625">
        <ele>492</ele>
        <time>2021-04-03T11:34:03Z</time>
      </trkpt>
      <trkpt lat="46.17685" lon="6.2663">
        <ele>491.8</ele>
        <time>2021-04-03T11:34:04Z</time>
      </trkpt>
      <trkpt lat="46.17688" lon="6.26636">
        <ele>491.8</ele>
        <time>2021-04-03T11:34:05Z</time>
      </trkpt>
      <trkpt lat="46.17691" lon="6.26642">
        <ele>492</ele>
        <time>2021-04-03T11:34:06Z</time>
      </trkpt>
      <trkpt lat="46.17694" lon="6.26649">
        <ele>492</ele>
        <time>2021-04-03T11:34:07Z</time>
      </trkpt>
      <trkpt lat="46.17697" lon="6.26656">
        <ele>491.8</ele>
        <time>2021-04-03T11:34:08Z</time>
      </trkpt>
      <trkpt lat="46.17699" lon="6.26665">
        <ele>491.8</ele>
        <time>2021-04-03T11:34:09Z</time>
      </trkpt>
      <trkpt lat="46.17701" lon="6.26674">
        <ele>492</ele>
        <time>2021-04-03T11:34:10Z</time>
      </trkpt>
      <trkpt lat="46.17702" lon="6.26684">
        <ele>491.8</ele>
        <time>2021-04-03T11:34:11Z</time>
      </trkpt>
      <trkpt lat="46.17703" lon="6.26694">
        <ele>492</ele>
        <time>2021-04-03T11:34:12Z</time>
      </trkpt>
      <trkpt lat="46.17704" lon="6.26704">
        <ele>491.8</ele>
        <time>2021-04-03T11:34:13Z</time>
      </trkpt>
      <trkpt lat="46.17704" lon="6.26715">
        <ele>491.2</ele>
        <time>2021-04-03T11:34:14Z</time>
      </trkpt>
      <trkpt lat="46.17706" lon="6.26725">
        <ele>490.8</ele>
        <time>2021-04-03T11:34:15Z</time>
      </trkpt>
      <trkpt lat="46.17708" lon="6.26735">
        <ele>490.8</ele>
        <time>2021-04-03T11:34:16Z</time>
      </trkpt>
      <trkpt lat="46.17711" lon="6.26744">
        <ele>490.4</ele>
        <time>2021-04-03T11:34:17Z</time>
      </trkpt>
      <trkpt lat="46.17714" lon="6.26753">
        <ele>490.4</ele>
        <time>2021-04-03T11:34:18Z</time>
      </trkpt>
      <trkpt lat="46.17718" lon="6.26761">
        <ele>490</ele>
        <time>2021-04-03T11:34:19Z</time>
      </trkpt>
      <trkpt lat="46.17721" lon="6.26769">
        <ele>490</ele>
        <time>2021-04-03T11:34:20Z</time>
      </trkpt>
      <trkpt lat="46.17725" lon="6.26776">
        <ele>489.6</ele>
        <time>2021-04-03T11:34:21Z</time>
      </trkpt>
      <trkpt lat="46.17728" lon="6.26783">
        <ele>489.4</ele>
        <time>2021-04-03T11:34:22Z</time>
      </trkpt>
      <trkpt lat="46.17731" lon="6.26789">
        <ele>489.2</ele>
        <time>2021-04-03T11:34:23Z</time>
      </trkpt>
      <trkpt lat="46.17735" lon="6.26794">
        <ele>489.2</ele>
        <time>2021-04-03T11:34:24Z</time>
      </trkpt>
      <trkpt lat="46.17738" lon="6.268">
        <ele>489.2</ele>
        <time>2021-04-03T11:34:25Z</time>
      </trkpt>
      <trkpt lat="46.1774" lon="6.26805">
        <ele>489.2</ele>
        <time>2021-04-03T11:34:26Z</time>
      </trkpt>
      <trkpt lat="46.17743" lon="6.26809">
        <ele>489.4</ele>
        <time>2021-04-03T11:34:27Z</time>
      </trkpt>
      <trkpt lat="46.17745" lon="6.26814">
        <ele>489.2</ele>
        <time>2021-04-03T11:34:28Z</time>
      </trkpt>
      <trkpt lat="46.17747" lon="6.26819">
        <ele>489.4</ele>
        <time>2021-04-03T11:34:29Z</time>
      </trkpt>
      <trkpt lat="46.17748" lon="6.26823">
        <ele>490</ele>
        <time>2021-04-03T11:34:30Z</time>
      </trkpt>
      <trkpt lat="46.1775" lon="6.26827">
        <ele>490</ele>
        <time>2021-04-03T11:34:31Z</time>
      </trkpt>
      <trkpt lat="46.17751" lon="6.26831">
        <ele>490.4</ele>
        <time>2021-04-03T11:34:32Z</time>
      </trkpt>
      <trkpt lat="46.17754" lon="6.26832">
        <ele>490.4</ele>
        <time>2021-04-03T11:34:33Z</time>
      </trkpt>
      <trkpt lat="46.17757" lon="6.26836">
        <ele>490.4</ele>
        <time>2021-04-03T11:34:34Z</time>
      </trkpt>
      <trkpt lat="46.1776" lon="6.26839">
        <ele>490.6</ele>
        <time>2021-04-03T11:34:35Z</time>
      </trkpt>
      <trkpt lat="46.17763" lon="6.26841">
        <ele>490.8</ele>
        <time>2021-04-03T11:34:36Z</time>
      </trkpt>
      <trkpt lat="46.17767" lon="6.26842">
        <ele>491</ele>
        <time>2021-04-03T11:34:37Z</time>
      </trkpt>
      <trkpt lat="46.1777" lon="6.26841">
        <ele>491.4</ele>
        <time>2021-04-03T11:34:38Z</time>
      </trkpt>
      <trkpt lat="46.17774" lon="6.2684">
        <ele>491.4</ele>
        <time>2021-04-03T11:34:39Z</time>
      </trkpt>
      <trkpt lat="46.17778" lon="6.26839">
        <ele>491.6</ele>
        <time>2021-04-03T11:34:40Z</time>
      </trkpt>
      <trkpt lat="46.17782" lon="6.26838">
        <ele>491.6</ele>
        <time>2021-04-03T11:34:41Z</time>
      </trkpt>
      <trkpt lat="46.17786" lon="6.26837">
        <ele>491.8</ele>
        <time>2021-04-03T11:34:42Z</time>
      </trkpt>
      <trkpt lat="46.17791" lon="6.26835">
        <ele>491.6</ele>
        <time>2021-04-03T11:34:43Z</time>
      </trkpt>
      <trkpt lat="46.17795" lon="6.26834">
        <ele>491.8</ele>
        <time>2021-04-03T11:34:44Z</time>
      </trkpt>
      <trkpt lat="46.17799" lon="6.26833">
        <ele>491.8</ele>
        <time>2021-04-03T11:34:45Z</time>
      </trkpt>
      <trkpt lat="46.17802" lon="6.26832">
        <ele>491.8</ele>
        <time>2021-04-03T11:34:46Z</time>
      </trkpt>
      <trkpt lat="46.17807" lon="6.2683">
        <ele>492</ele>
        <time>2021-04-03T11:34:47Z</time>
      </trkpt>
      <trkpt lat="46.17811" lon="6.2683">
        <ele>492</ele>
        <time>2021-04-03T11:34:48Z</time>
      </trkpt>
      <trkpt lat="46.17815" lon="6.2683">
        <ele>492</ele>
        <time>2021-04-03T11:34:49Z</time>
      </trkpt>
      <trkpt lat="46.17819" lon="6.2683">
        <ele>491.8</ele>
        <time>2021-04-03T11:34:50Z</time>
      </trkpt>
      <trkpt lat="46.17823" lon="6.2683">
        <ele>492</ele>
        <time>2021-04-03T11:34:51Z</time>
      </trkpt>
      <trkpt lat="46.17826" lon="6.26831">
        <ele>492</ele>
        <time>2021-04-03T11:34:52Z</time>
      </trkpt>
      <trkpt lat="46.17829" lon="6.26832">
        <ele>491.8</ele>
        <time>2021-04-03T11:34:53Z</time>
      </trkpt>
      <trkpt lat="46.17833" lon="6.26834">
        <ele>491.8</ele>
        <time>2021-04-03T11:34:54Z</time>
      </trkpt>
      <trkpt lat="46.17837" lon="6.26836">
        <ele>491.8</ele>
        <time>2021-04-03T11:34:55Z</time>
      </trkpt>
      <trkpt lat="46.17841" lon="6.26839">
        <ele>491.8</ele>
        <time>2021-04-03T11:34:56Z</time>
      </trkpt>
      <trkpt lat="46.17846" lon="6.26842">
        <ele>491.6</ele>
        <time>2021-04-03T11:34:57Z</time>
      </trkpt>
      <trkpt lat="46.17852" lon="6.26845">
        <ele>491.2</ele>
        <time>2021-04-03T11:34:58Z</time>
      </trkpt>
      <trkpt lat="46.17857" lon="6.26848">
        <ele>490.4</ele>
        <time>2021-04-03T11:34:59Z</time>
      </trkpt>
      <trkpt lat="46.17863" lon="6.2685">
        <ele>490</ele>
        <time>2021-04-03T11:35:00Z</time>
      </trkpt>
      <trkpt lat="46.17869" lon="6.26852">
        <ele>489.8</ele>
        <time>2021-04-03T11:35:01Z</time>
      </trkpt>
      <trkpt lat="46.17875" lon="6.26853">
        <ele>489.4</ele>
        <time>2021-04-03T11:35:02Z</time>
      </trkpt>
      <trkpt lat="46.1788" lon="6.26855">
        <ele>489.2</ele>
        <time>2021-04-03T11:35:03Z</time>
      </trkpt>
      <trkpt lat="46.17886" lon="6.26856">
        <ele>489.2</ele>
        <time>2021-04-03T11:35:04Z</time>
      </trkpt>
      <trkpt lat="46.17891" lon="6.26856">
        <ele>489.2</ele>
        <time>2021-04-03T11:35:05Z</time>
      </trkpt>
      <trkpt lat="46.17896" lon="6.26856">
        <ele>489</ele>
        <time>2021-04-03T11:35:06Z</time>
      </trkpt>
      <trkpt lat="46.17901" lon="6.26856">
        <ele>488.8</ele>
        <time>2021-04-03T11:35:07Z</time>
      </trkpt>
      <trkpt lat="46.17906" lon="6.26855">
        <ele>488.6</ele>
        <time>2021-04-03T11:35:08Z</time>
      </trkpt>
      <trkpt lat="46.17911" lon="6.26855">
        <ele>488.2</ele>
        <time>2021-04-03T11:35:09Z</time>
      </trkpt>
      <trkpt lat="46.17916" lon="6.26854">
        <ele>488</ele>
        <time>2021-04-03T11:35:10Z</time>
      </trkpt>
      <trkpt lat="46.17921" lon="6.26854">
        <ele>488</ele>
        <time>2021-04-03T11:35:11Z</time>
      </trkpt>
      <trkpt lat="46.17926" lon="6.26853">
        <ele>487.8</ele>
        <time>2021-04-03T11:35:12Z</time>
      </trkpt>
      <trkpt lat="46.17931" lon="6.26852">
        <ele>487.8</ele>
        <time>2021-04-03T11:35:13Z</time>
      </trkpt>
      <trkpt lat="46.17936" lon="6.26852">
        <ele>487.6</ele>
        <time>2021-04-03T11:35:14Z</time>
      </trkpt>
      <trkpt lat="46.17941" lon="6.26851">
        <ele>487.8</ele>
        <time>2021-04-03T11:35:15Z</time>
      </trkpt>
      <trkpt lat="46.17946" lon="6.26851">
        <ele>487.6</ele>
        <time>2021-04-03T11:35:16Z</time>
      </trkpt>
      <trkpt lat="46.17951" lon="6.2685">
        <ele>487.8</ele>
        <time>2021-04-03T11:35:17Z</time>
      </trkpt>
      <trkpt lat="46.17955" lon="6.26849">
        <ele>487.8</ele>
        <time>2021-04-03T11:35:18Z</time>
      </trkpt>
      <trkpt lat="46.1796" lon="6.26849">
        <ele>487.8</ele>
        <time>2021-04-03T11:35:19Z</time>
      </trkpt>
      <trkpt lat="46.17964" lon="6.26848">
        <ele>487.8</ele>
        <time>2021-04-03T11:35:20Z</time>
      </trkpt>
      <trkpt lat="46.17969" lon="6.26848">
        <ele>487.8</ele>
        <time>2021-04-03T11:35:21Z</time>
      </trkpt>
      <trkpt lat="46.17973" lon="6.26847">
        <ele>487.8</ele>
        <time>2021-04-03T11:35:22Z</time>
      </trkpt>
      <trkpt lat="46.17978" lon="6.26847">
        <ele>487.8</ele>
        <time>2021-04-03T11:35:23Z</time>
      </trkpt>
      <trkpt lat="46.17982" lon="6.26846">
        <ele>488</ele>
        <time>2021-04-03T11:35:24Z</time>
      </trkpt>
      <trkpt lat="46.17987" lon="6.26846">
        <ele>488.2</ele>
        <time>2021-04-03T11:35:25Z</time>
      </trkpt>
      <trkpt lat="46.17991" lon="6.26845">
        <ele>488.4</ele>
        <time>2021-04-03T11:35:26Z</time>
      </trkpt>
      <trkpt lat="46.17996" lon="6.26845">
        <ele>488.6</ele>
        <time>2021-04-03T11:35:27Z</time>
      </trkpt>
      <trkpt lat="46.18" lon="6.26844">
        <ele>488.6</ele>
        <time>2021-04-03T11:35:28Z</time>
      </trkpt>
      <trkpt lat="46.18005" lon="6.26844">
        <ele>488.8</ele>
        <time>2021-04-03T11:35:29Z</time>
      </trkpt>
      <trkpt lat="46.18009" lon="6.26843">
        <ele>488.8</ele>
        <time>2021-04-03T11:35:30Z</time>
      </trkpt>
      <trkpt lat="46.18014" lon="6.26843">
        <ele>488.8</ele>
        <time>2021-04-03T11:35:31Z</time>
      </trkpt>
      <trkpt lat="46.18018" lon="6.26843">
        <ele>488.8</ele>
        <time>2021-04-03T11:35:32Z</time>
      </trkpt>
      <trkpt lat="46.18023" lon="6.26843">
        <ele>488.8</ele>
        <time>2021-04-03T11:35:33Z</time>
      </trkpt>
      <trkpt lat="46.18027" lon="6.26844">
        <ele>489</ele>
        <time>2021-04-03T11:35:34Z</time>
      </trkpt>
      <trkpt lat="46.18032" lon="6.26844">
        <ele>488.8</ele>
        <time>2021-04-03T11:35:35Z</time>
      </trkpt>
      <trkpt lat="46.18036" lon="6.26845">
        <ele>488.6</ele>
        <time>2021-04-03T11:35:36Z</time>
      </trkpt>
      <trkpt lat="46.18041" lon="6.26846">
        <ele>489</ele>
        <time>2021-04-03T11:35:37Z</time>
      </trkpt>
      <trkpt lat="46.18045" lon="6.26847">
        <ele>489</ele>
        <time>2021-04-03T11:35:38Z</time>
      </trkpt>
      <trkpt lat="46.1805" lon="6.26848">
        <ele>489</ele>
        <time>2021-04-03T11:35:39Z</time>
      </trkpt>
      <trkpt lat="46.18055" lon="6.2685">
        <ele>488.8</ele>
        <time>2021-04-03T11:35:40Z</time>
      </trkpt>
      <trkpt lat="46.18059" lon="6.26851">
        <ele>489</ele>
        <time>2021-04-03T11:35:41Z</time>
      </trkpt>
      <trkpt lat="46.18064" lon="6.26853">
        <ele>488.8</ele>
        <time>2021-04-03T11:35:42Z</time>
      </trkpt>
      <trkpt lat="46.18069" lon="6.26855">
        <ele>489</ele>
        <time>2021-04-03T11:35:43Z</time>
      </trkpt>
      <trkpt lat="46.18074" lon="6.26857">
        <ele>488.8</ele>
        <time>2021-04-03T11:35:44Z</time>
      </trkpt>
      <trkpt lat="46.18079" lon="6.2686">
        <ele>488.8</ele>
        <time>2021-04-03T11:35:45Z</time>
      </trkpt>
      <trkpt lat="46.18084" lon="6.26862">
        <ele>488.8</ele>
        <time>2021-04-03T11:35:46Z</time>
      </trkpt>
      <trkpt lat="46.18089" lon="6.26864">
        <ele>488.8</ele>
        <time>2021-04-03T11:35:47Z</time>
      </trkpt>
      <trkpt lat="46.18094" lon="6.26866">
        <ele>488.8</ele>
        <time>2021-04-03T11:35:48Z</time>
      </trkpt>
      <trkpt lat="46.18099" lon="6.26869">
        <ele>488.6</ele>
        <time>2021-04-03T11:35:49Z</time>
      </trkpt>
      <trkpt lat="46.18105" lon="6.26872">
        <ele>488.4</ele>
        <time>2021-04-03T11:35:50Z</time>
      </trkpt>
      <trkpt lat="46.18111" lon="6.26874">
        <ele>488.4</ele>
        <time>2021-04-03T11:35:51Z</time>
      </trkpt>
      <trkpt lat="46.18117" lon="6.26877">
        <ele>488.4</ele>
        <time>2021-04-03T11:35:52Z</time>
      </trkpt>
      <trkpt lat="46.18123" lon="6.2688">
        <ele>488.2</ele>
        <time>2021-04-03T11:35:53Z</time>
      </trkpt>
      <trkpt lat="46.18129" lon="6.26883">
        <ele>487.6</ele>
        <time>2021-04-03T11:35:54Z</time>
      </trkpt>
      <trkpt lat="46.18136" lon="6.26887">
        <ele>487.4</ele>
        <time>2021-04-03T11:35:55Z</time>
      </trkpt>
      <trkpt lat="46.18142" lon="6.2689">
        <ele>487.2</ele>
        <time>2021-04-03T11:35:56Z</time>
      </trkpt>
      <trkpt lat="46.18149" lon="6.26894">
        <ele>487.2</ele>
        <time>2021-04-03T11:35:57Z</time>
      </trkpt>
      <trkpt lat="46.18157" lon="6.26897">
        <ele>486.8</ele>
        <time>2021-04-03T11:35:58Z</time>
      </trkpt>
      <trkpt lat="46.18164" lon="6.26901">
        <ele>486.2</ele>
        <time>2021-04-03T11:35:59Z</time>
      </trkpt>
      <trkpt lat="46.18172" lon="6.26904">
        <ele>486</ele>
        <time>2021-04-03T11:36:00Z</time>
      </trkpt>
      <trkpt lat="46.1818" lon="6.26908">
        <ele>485.2</ele>
        <time>2021-04-03T11:36:01Z</time>
      </trkpt>
      <trkpt lat="46.18188" lon="6.26912">
        <ele>484.4</ele>
        <time>2021-04-03T11:36:02Z</time>
      </trkpt>
      <trkpt lat="46.18204" lon="6.26922">
        <ele>483.4</ele>
        <time>2021-04-03T11:36:04Z</time>
      </trkpt>
      <trkpt lat="46.18212" lon="6.26929">
        <ele>482.8</ele>
        <time>2021-04-03T11:36:05Z</time>
      </trkpt>
      <trkpt lat="46.18218" lon="6.26938">
        <ele>482.8</ele>
        <time>2021-04-03T11:36:06Z</time>
      </trkpt>
      <trkpt lat="46.18224" lon="6.26949">
        <ele>482.4</ele>
        <time>2021-04-03T11:36:07Z</time>
      </trkpt>
      <trkpt lat="46.18228" lon="6.2696">
        <ele>482</ele>
        <time>2021-04-03T11:36:08Z</time>
      </trkpt>
      <trkpt lat="46.18232" lon="6.26972">
        <ele>481.6</ele>
        <time>2021-04-03T11:36:09Z</time>
      </trkpt>
      <trkpt lat="46.18235" lon="6.26984">
        <ele>481.6</ele>
        <time>2021-04-03T11:36:10Z</time>
      </trkpt>
      <trkpt lat="46.18236" lon="6.26995">
        <ele>480.2</ele>
        <time>2021-04-03T11:36:11Z</time>
      </trkpt>
      <trkpt lat="46.18238" lon="6.27006">
        <ele>479.6</ele>
        <time>2021-04-03T11:36:12Z</time>
      </trkpt>
      <trkpt lat="46.1824" lon="6.27016">
        <ele>478.6</ele>
        <time>2021-04-03T11:36:13Z</time>
      </trkpt>
      <trkpt lat="46.18242" lon="6.27025">
        <ele>477.6</ele>
        <time>2021-04-03T11:36:14Z</time>
      </trkpt>
      <trkpt lat="46.18245" lon="6.27033">
        <ele>477.2</ele>
        <time>2021-04-03T11:36:15Z</time>
      </trkpt>
      <trkpt lat="46.18248" lon="6.27041">
        <ele>477</ele>
        <time>2021-04-03T11:36:16Z</time>
      </trkpt>
      <trkpt lat="46.1825" lon="6.27047">
        <ele>476.6</ele>
        <time>2021-04-03T11:36:17Z</time>
      </trkpt>
      <trkpt lat="46.18252" lon="6.27054">
        <ele>476.4</ele>
        <time>2021-04-03T11:36:18Z</time>
      </trkpt>
      <trkpt lat="46.18252" lon="6.27061">
        <ele>476.2</ele>
        <time>2021-04-03T11:36:19Z</time>
      </trkpt>
      <trkpt lat="46.1825" lon="6.27068">
        <ele>476.2</ele>
        <time>2021-04-03T11:36:20Z</time>
      </trkpt>
      <trkpt lat="46.18248" lon="6.27075">
        <ele>475.8</ele>
        <time>2021-04-03T11:36:21Z</time>
      </trkpt>
      <trkpt lat="46.18245" lon="6.27083">
        <ele>475.2</ele>
        <time>2021-04-03T11:36:22Z</time>
      </trkpt>
      <trkpt lat="46.18244" lon="6.27091">
        <ele>474.6</ele>
        <time>2021-04-03T11:36:23Z</time>
      </trkpt>
      <trkpt lat="46.18243" lon="6.271">
        <ele>474.2</ele>
        <time>2021-04-03T11:36:24Z</time>
      </trkpt>
      <trkpt lat="46.18243" lon="6.2711">
        <ele>473.8</ele>
        <time>2021-04-03T11:36:25Z</time>
      </trkpt>
      <trkpt lat="46.18244" lon="6.2712">
        <ele>473.8</ele>
        <time>2021-04-03T11:36:26Z</time>
      </trkpt>
      <trkpt lat="46.18244" lon="6.27131">
        <ele>473.6</ele>
        <time>2021-04-03T11:36:27Z</time>
      </trkpt>
      <trkpt lat="46.18245" lon="6.27141">
        <ele>473.6</ele>
        <time>2021-04-03T11:36:28Z</time>
      </trkpt>
      <trkpt lat="46.18246" lon="6.27152">
        <ele>473.4</ele>
        <time>2021-04-03T11:36:29Z</time>
      </trkpt>
      <trkpt lat="46.18246" lon="6.27162">
        <ele>473.2</ele>
        <time>2021-04-03T11:36:30Z</time>
      </trkpt>
      <trkpt lat="46.18247" lon="6.27173">
        <ele>473</ele>
        <time>2021-04-03T11:36:31Z</time>
      </trkpt>
      <trkpt lat="46.18248" lon="6.27183">
        <ele>472.6</ele>
        <time>2021-04-03T11:36:32Z</time>
      </trkpt>
      <trkpt lat="46.18248" lon="6.27193">
        <ele>472.2</ele>
        <time>2021-04-03T11:36:33Z</time>
      </trkpt>
      <trkpt lat="46.18249" lon="6.27203">
        <ele>471.8</ele>
        <time>2021-04-03T11:36:34Z</time>
      </trkpt>
      <trkpt lat="46.1825" lon="6.27213">
        <ele>471.6</ele>
        <time>2021-04-03T11:36:35Z</time>
      </trkpt>
      <trkpt lat="46.1825" lon="6.27223">
        <ele>471.4</ele>
        <time>2021-04-03T11:36:36Z</time>
      </trkpt>
      <trkpt lat="46.18251" lon="6.27232">
        <ele>471.2</ele>
        <time>2021-04-03T11:36:37Z</time>
      </trkpt>
      <trkpt lat="46.18252" lon="6.27242">
        <ele>471</ele>
        <time>2021-04-03T11:36:38Z</time>
      </trkpt>
      <trkpt lat="46.18252" lon="6.27251">
        <ele>471</ele>
        <time>2021-04-03T11:36:39Z</time>
      </trkpt>
      <trkpt lat="46.18253" lon="6.2726">
        <ele>470.8</ele>
        <time>2021-04-03T11:36:40Z</time>
      </trkpt>
      <trkpt lat="46.18254" lon="6.2727">
        <ele>470.6</ele>
        <time>2021-04-03T11:36:41Z</time>
      </trkpt>
      <trkpt lat="46.18255" lon="6.27279">
        <ele>470.6</ele>
        <time>2021-04-03T11:36:42Z</time>
      </trkpt>
      <trkpt lat="46.18255" lon="6.27288">
        <ele>470.6</ele>
        <time>2021-04-03T11:36:43Z</time>
      </trkpt>
      <trkpt lat="46.18256" lon="6.27297">
        <ele>470.4</ele>
        <time>2021-04-03T11:36:44Z</time>
      </trkpt>
      <trkpt lat="46.18256" lon="6.27306">
        <ele>470.6</ele>
        <time>2021-04-03T11:36:45Z</time>
      </trkpt>
      <trkpt lat="46.18256" lon="6.27314">
        <ele>470.4</ele>
        <time>2021-04-03T11:36:46Z</time>
      </trkpt>
      <trkpt lat="46.18255" lon="6.27323">
        <ele>470.6</ele>
        <time>2021-04-03T11:36:47Z</time>
      </trkpt>
      <trkpt lat="46.18255" lon="6.2733">
        <ele>470.4</ele>
        <time>2021-04-03T11:36:48Z</time>
      </trkpt>
      <trkpt lat="46.18255" lon="6.27338">
        <ele>470.4</ele>
        <time>2021-04-03T11:36:49Z</time>
      </trkpt>
      <trkpt lat="46.18256" lon="6.27345">
        <ele>470.2</ele>
        <time>2021-04-03T11:36:50Z</time>
      </trkpt>
      <trkpt lat="46.18256" lon="6.27352">
        <ele>470.2</ele>
        <time>2021-04-03T11:36:51Z</time>
      </trkpt>
      <trkpt lat="46.18256" lon="6.27359">
        <ele>470.2</ele>
        <time>2021-04-03T11:36:52Z</time>
      </trkpt>
      <trkpt lat="46.18256" lon="6.27366">
        <ele>470.2</ele>
        <time>2021-04-03T11:36:53Z</time>
      </trkpt>
      <trkpt lat="46.18256" lon="6.27373">
        <ele>470.2</ele>
        <time>2021-04-03T11:36:54Z</time>
      </trkpt>
      <trkpt lat="46.18257" lon="6.2738">
        <ele>470.2</ele>
        <time>2021-04-03T11:36:55Z</time>
      </trkpt>
      <trkpt lat="46.18257" lon="6.27387">
        <ele>470.2</ele>
        <time>2021-04-03T11:36:56Z</time>
      </trkpt>
      <trkpt lat="46.18257" lon="6.27394">
        <ele>470.4</ele>
        <time>2021-04-03T11:36:57Z</time>
      </trkpt>
      <trkpt lat="46.18256" lon="6.27401">
        <ele>470.2</ele>
        <time>2021-04-03T11:36:58Z</time>
      </trkpt>
      <trkpt lat="46.18256" lon="6.27408">
        <ele>470.2</ele>
        <time>2021-04-03T11:36:59Z</time>
      </trkpt>
      <trkpt lat="46.18255" lon="6.27415">
        <ele>470.4</ele>
        <time>2021-04-03T11:37:00Z</time>
      </trkpt>
      <trkpt lat="46.18255" lon="6.27423">
        <ele>470.6</ele>
        <time>2021-04-03T11:37:01Z</time>
      </trkpt>
      <trkpt lat="46.18254" lon="6.2743">
        <ele>470.6</ele>
        <time>2021-04-03T11:37:02Z</time>
      </trkpt>
      <trkpt lat="46.18254" lon="6.27437">
        <ele>470.6</ele>
        <time>2021-04-03T11:37:03Z</time>
      </trkpt>
      <trkpt lat="46.18254" lon="6.27444">
        <ele>470.6</ele>
        <time>2021-04-03T11:37:04Z</time>
      </trkpt>
      <trkpt lat="46.18253" lon="6.27451">
        <ele>470.4</ele>
        <time>2021-04-03T11:37:05Z</time>
      </trkpt>
      <trkpt lat="46.18252" lon="6.27459">
        <ele>470.6</ele>
        <time>2021-04-03T11:37:06Z</time>
      </trkpt>
      <trkpt lat="46.18252" lon="6.27466">
        <ele>470.6</ele>
        <time>2021-04-03T11:37:07Z</time>
      </trkpt>
      <trkpt lat="46.18251" lon="6.27474">
        <ele>470.6</ele>
        <time>2021-04-03T11:37:08Z</time>
      </trkpt>
      <trkpt lat="46.1825" lon="6.27482">
        <ele>470.6</ele>
        <time>2021-04-03T11:37:09Z</time>
      </trkpt>
      <trkpt lat="46.18249" lon="6.2749">
        <ele>470.8</ele>
        <time>2021-04-03T11:37:10Z</time>
      </trkpt>
      <trkpt lat="46.18248" lon="6.27498">
        <ele>470.8</ele>
        <time>2021-04-03T11:37:11Z</time>
      </trkpt>
      <trkpt lat="46.18248" lon="6.27506">
        <ele>471</ele>
        <time>2021-04-03T11:37:12Z</time>
      </trkpt>
      <trkpt lat="46.18247" lon="6.27513">
        <ele>470.8</ele>
        <time>2021-04-03T11:37:13Z</time>
      </trkpt>
      <trkpt lat="46.18247" lon="6.27521">
        <ele>471</ele>
        <time>2021-04-03T11:37:14Z</time>
      </trkpt>
      <trkpt lat="46.18247" lon="6.27528">
        <ele>470.8</ele>
        <time>2021-04-03T11:37:15Z</time>
      </trkpt>
      <trkpt lat="46.18247" lon="6.27535">
        <ele>470.8</ele>
        <time>2021-04-03T11:37:16Z</time>
      </trkpt>
      <trkpt lat="46.18247" lon="6.27543">
        <ele>471</ele>
        <time>2021-04-03T11:37:17Z</time>
      </trkpt>
      <trkpt lat="46.18247" lon="6.2755">
        <ele>470.8</ele>
        <time>2021-04-03T11:37:18Z</time>
      </trkpt>
      <trkpt lat="46.18246" lon="6.27558">
        <ele>470.6</ele>
        <time>2021-04-03T11:37:19Z</time>
      </trkpt>
      <trkpt lat="46.18246" lon="6.27565">
        <ele>470.6</ele>
        <time>2021-04-03T11:37:20Z</time>
      </trkpt>
      <trkpt lat="46.18246" lon="6.27572">
        <ele>470.6</ele>
        <time>2021-04-03T11:37:21Z</time>
      </trkpt>
      <trkpt lat="46.18245" lon="6.2758">
        <ele>470.4</ele>
        <time>2021-04-03T11:37:22Z</time>
      </trkpt>
      <trkpt lat="46.18245" lon="6.27587">
        <ele>470.4</ele>
        <time>2021-04-03T11:37:23Z</time>
      </trkpt>
      <trkpt lat="46.18244" lon="6.27595">
        <ele>470.6</ele>
        <time>2021-04-03T11:37:24Z</time>
      </trkpt>
      <trkpt lat="46.18243" lon="6.27602">
        <ele>470.6</ele>
        <time>2021-04-03T11:37:25Z</time>
      </trkpt>
      <trkpt lat="46.18242" lon="6.2761">
        <ele>470.8</ele>
        <time>2021-04-03T11:37:26Z</time>
      </trkpt>
      <trkpt lat="46.18241" lon="6.27617">
        <ele>470.6</ele>
        <time>2021-04-03T11:37:27Z</time>
      </trkpt>
      <trkpt lat="46.1824" lon="6.27625">
        <ele>470.6</ele>
        <time>2021-04-03T11:37:28Z</time>
      </trkpt>
      <trkpt lat="46.18239" lon="6.27632">
        <ele>470.6</ele>
        <time>2021-04-03T11:37:29Z</time>
      </trkpt>
      <trkpt lat="46.18237" lon="6.2764">
        <ele>470.6</ele>
        <time>2021-04-03T11:37:30Z</time>
      </trkpt>
      <trkpt lat="46.18236" lon="6.27648">
        <ele>470.6</ele>
        <time>2021-04-03T11:37:31Z</time>
      </trkpt>
      <trkpt lat="46.18235" lon="6.27656">
        <ele>470.8</ele>
        <time>2021-04-03T11:37:32Z</time>
      </trkpt>
      <trkpt lat="46.18235" lon="6.27663">
        <ele>470.8</ele>
        <time>2021-04-03T11:37:33Z</time>
      </trkpt>
      <trkpt lat="46.18234" lon="6.2767">
        <ele>470.8</ele>
        <time>2021-04-03T11:37:34Z</time>
      </trkpt>
      <trkpt lat="46.18233" lon="6.27677">
        <ele>470.6</ele>
        <time>2021-04-03T11:37:35Z</time>
      </trkpt>
      <trkpt lat="46.18231" lon="6.27684">
        <ele>470.8</ele>
        <time>2021-04-03T11:37:36Z</time>
      </trkpt>
      <trkpt lat="46.18229" lon="6.27691">
        <ele>470.8</ele>
        <time>2021-04-03T11:37:37Z</time>
      </trkpt>
      <trkpt lat="46.18228" lon="6.27698">
        <ele>470.8</ele>
        <time>2021-04-03T11:37:38Z</time>
      </trkpt>
      <trkpt lat="46.18226" lon="6.27704">
        <ele>471</ele>
        <time>2021-04-03T11:37:39Z</time>
      </trkpt>
      <trkpt lat="46.18223" lon="6.27711">
        <ele>471</ele>
        <time>2021-04-03T11:37:40Z</time>
      </trkpt>
      <trkpt lat="46.18221" lon="6.27716">
        <ele>471</ele>
        <time>2021-04-03T11:37:41Z</time>
      </trkpt>
      <trkpt lat="46.18218" lon="6.27723">
        <ele>471.2</ele>
        <time>2021-04-03T11:37:42Z</time>
      </trkpt>
      <trkpt lat="46.18215" lon="6.27729">
        <ele>471.2</ele>
        <time>2021-04-03T11:37:43Z</time>
      </trkpt>
      <trkpt lat="46.18213" lon="6.27735">
        <ele>471.4</ele>
        <time>2021-04-03T11:37:44Z</time>
      </trkpt>
      <trkpt lat="46.18211" lon="6.27741">
        <ele>471.4</ele>
        <time>2021-04-03T11:37:45Z</time>
      </trkpt>
      <trkpt lat="46.18209" lon="6.27746">
        <ele>471.4</ele>
        <time>2021-04-03T11:37:46Z</time>
      </trkpt>
      <trkpt lat="46.18206" lon="6.27752">
        <ele>471.4</ele>
        <time>2021-04-03T11:37:47Z</time>
      </trkpt>
      <trkpt lat="46.18204" lon="6.27757">
        <ele>471.4</ele>
        <time>2021-04-03T11:37:48Z</time>
      </trkpt>
      <trkpt lat="46.18202" lon="6.27761">
        <ele>471.4</ele>
        <time>2021-04-03T11:37:49Z</time>
      </trkpt>
      <trkpt lat="46.182" lon="6.27765">
        <ele>471.4</ele>
        <time>2021-04-03T11:37:50Z</time>
      </trkpt>
      <trkpt lat="46.18197" lon="6.27769">
        <ele>471.6</ele>
        <time>2021-04-03T11:37:51Z</time>
      </trkpt>
      <trkpt lat="46.18195" lon="6.27774">
        <ele>471.4</ele>
        <time>2021-04-03T11:37:52Z</time>
      </trkpt>
      <trkpt lat="46.18194" lon="6.27779">
        <ele>471.4</ele>
        <time>2021-04-03T11:37:53Z</time>
      </trkpt>
      <trkpt lat="46.18195" lon="6.27784">
        <ele>471</ele>
        <time>2021-04-03T11:37:54Z</time>
      </trkpt>
      <trkpt lat="46.18197" lon="6.2779">
        <ele>470.6</ele>
        <time>2021-04-03T11:37:55Z</time>
      </trkpt>
      <trkpt lat="46.18201" lon="6.27794">
        <ele>470.2</ele>
        <time>2021-04-03T11:37:56Z</time>
      </trkpt>
      <trkpt lat="46.18205" lon="6.27798">
        <ele>470</ele>
        <time>2021-04-03T11:37:57Z</time>
      </trkpt>
      <trkpt lat="46.18209" lon="6.27801">
        <ele>469.8</ele>
        <time>2021-04-03T11:37:58Z</time>
      </trkpt>
      <trkpt lat="46.18213" lon="6.27805">
        <ele>469.6</ele>
        <time>2021-04-03T11:37:59Z</time>
      </trkpt>
      <trkpt lat="46.18218" lon="6.27808">
        <ele>469.8</ele>
        <time>2021-04-03T11:38:00Z</time>
      </trkpt>
      <trkpt lat="46.18222" lon="6.27811">
        <ele>469.6</ele>
        <time>2021-04-03T11:38:01Z</time>
      </trkpt>
      <trkpt lat="46.18226" lon="6.27815">
        <ele>469.6</ele>
        <time>2021-04-03T11:38:02Z</time>
      </trkpt>
      <trkpt lat="46.18229" lon="6.2782">
        <ele>469.6</ele>
        <time>2021-04-03T11:38:03Z</time>
      </trkpt>
      <trkpt lat="46.18232" lon="6.27825">
        <ele>469.6</ele>
        <time>2021-04-03T11:38:04Z</time>
      </trkpt>
      <trkpt lat="46.18235" lon="6.27831">
        <ele>469.4</ele>
        <time>2021-04-03T11:38:05Z</time>
      </trkpt>
      <trkpt lat="46.18237" lon="6.27837">
        <ele>469.4</ele>
        <time>2021-04-03T11:38:06Z</time>
      </trkpt>
      <trkpt lat="46.18239" lon="6.27843">
        <ele>469.4</ele>
        <time>2021-04-03T11:38:07Z</time>
      </trkpt>
      <trkpt lat="46.1824" lon="6.2785">
        <ele>469.4</ele>
        <time>2021-04-03T11:38:08Z</time>
      </trkpt>
      <trkpt lat="46.18241" lon="6.27856">
        <ele>469.4</ele>
        <time>2021-04-03T11:38:09Z</time>
      </trkpt>
      <trkpt lat="46.18241" lon="6.27863">
        <ele>469.4</ele>
        <time>2021-04-03T11:38:10Z</time>
      </trkpt>
      <trkpt lat="46.18241" lon="6.27869">
        <ele>469.4</ele>
        <time>2021-04-03T11:38:11Z</time>
      </trkpt>
      <trkpt lat="46.1824" lon="6.27876">
        <ele>469.4</ele>
        <time>2021-04-03T11:38:12Z</time>
      </trkpt>
      <trkpt lat="46.1824" lon="6.27882">
        <ele>469.6</ele>
        <time>2021-04-03T11:38:13Z</time>
      </trkpt>
      <trkpt lat="46.1824" lon="6.27889">
        <ele>469.6</ele>
        <time>2021-04-03T11:38:14Z</time>
      </trkpt>
      <trkpt lat="46.1824" lon="6.27895">
        <ele>469.6</ele>
        <time>2021-04-03T11:38:15Z</time>
      </trkpt>
      <trkpt lat="46.1824" lon="6.27902">
        <ele>469.8</ele>
        <time>2021-04-03T11:38:16Z</time>
      </trkpt>
      <trkpt lat="46.18242" lon="6.27909">
        <ele>469.8</ele>
        <time>2021-04-03T11:38:17Z</time>
      </trkpt>
      <trkpt lat="46.18243" lon="6.27915">
        <ele>470</ele>
        <time>2021-04-03T11:38:18Z</time>
      </trkpt>
      <trkpt lat="46.18246" lon="6.27921">
        <ele>470.2</ele>
        <time>2021-04-03T11:38:19Z</time>
      </trkpt>
      <trkpt lat="46.18248" lon="6.27927">
        <ele>470.2</ele>
        <time>2021-04-03T11:38:20Z</time>
      </trkpt>
      <trkpt lat="46.18251" lon="6.27932">
        <ele>470.4</ele>
        <time>2021-04-03T11:38:21Z</time>
      </trkpt>
      <trkpt lat="46.18255" lon="6.27937">
        <ele>470.8</ele>
        <time>2021-04-03T11:38:22Z</time>
      </trkpt>
      <trkpt lat="46.18259" lon="6.27941">
        <ele>470.8</ele>
        <time>2021-04-03T11:38:23Z</time>
      </trkpt>
      <trkpt lat="46.18263" lon="6.27945">
        <ele>471.4</ele>
        <time>2021-04-03T11:38:24Z</time>
      </trkpt>
      <trkpt lat="46.18268" lon="6.27948">
        <ele>471.8</ele>
        <time>2021-04-03T11:38:25Z</time>
      </trkpt>
      <trkpt lat="46.18272" lon="6.27951">
        <ele>471.8</ele>
        <time>2021-04-03T11:38:26Z</time>
      </trkpt>
      <trkpt lat="46.18276" lon="6.27954">
        <ele>472</ele>
        <time>2021-04-03T11:38:27Z</time>
      </trkpt>
      <trkpt lat="46.1828" lon="6.27957">
        <ele>472.2</ele>
        <time>2021-04-03T11:38:28Z</time>
      </trkpt>
      <trkpt lat="46.18284" lon="6.2796">
        <ele>472.2</ele>
        <time>2021-04-03T11:38:29Z</time>
      </trkpt>
      <trkpt lat="46.18288" lon="6.27963">
        <ele>472.4</ele>
        <time>2021-04-03T11:38:30Z</time>
      </trkpt>
      <trkpt lat="46.18293" lon="6.27966">
        <ele>472.6</ele>
        <time>2021-04-03T11:38:31Z</time>
      </trkpt>
      <trkpt lat="46.18297" lon="6.27969">
        <ele>472.8</ele>
        <time>2021-04-03T11:38:32Z</time>
      </trkpt>
      <trkpt lat="46.18301" lon="6.27972">
        <ele>472.8</ele>
        <time>2021-04-03T11:38:33Z</time>
      </trkpt>
      <trkpt lat="46.18304" lon="6.27976">
        <ele>472.8</ele>
        <time>2021-04-03T11:38:34Z</time>
      </trkpt>
      <trkpt lat="46.18308" lon="6.27979">
        <ele>473</ele>
        <time>2021-04-03T11:38:35Z</time>
      </trkpt>
      <trkpt lat="46.18312" lon="6.27982">
        <ele>472.8</ele>
        <time>2021-04-03T11:38:36Z</time>
      </trkpt>
      <trkpt lat="46.18317" lon="6.27984">
        <ele>473</ele>
        <time>2021-04-03T11:38:37Z</time>
      </trkpt>
      <trkpt lat="46.18321" lon="6.27987">
        <ele>473.2</ele>
        <time>2021-04-03T11:38:38Z</time>
      </trkpt>
      <trkpt lat="46.18325" lon="6.2799">
        <ele>473</ele>
        <time>2021-04-03T11:38:39Z</time>
      </trkpt>
      <trkpt lat="46.18328" lon="6.27993">
        <ele>473.2</ele>
        <time>2021-04-03T11:38:40Z</time>
      </trkpt>
      <trkpt lat="46.18332" lon="6.27996">
        <ele>473.2</ele>
        <time>2021-04-03T11:38:41Z</time>
      </trkpt>
      <trkpt lat="46.18336" lon="6.27999">
        <ele>473.4</ele>
        <time>2021-04-03T11:38:42Z</time>
      </trkpt>
      <trkpt lat="46.18339" lon="6.28002">
        <ele>473.2</ele>
        <time>2021-04-03T11:38:43Z</time>
      </trkpt>
      <trkpt lat="46.18343" lon="6.28005">
        <ele>473.2</ele>
        <time>2021-04-03T11:38:44Z</time>
      </trkpt>
      <trkpt lat="46.18346" lon="6.28008">
        <ele>473.4</ele>
        <time>2021-04-03T11:38:45Z</time>
      </trkpt>
      <trkpt lat="46.18349" lon="6.28011">
        <ele>473.4</ele>
        <time>2021-04-03T11:38:46Z</time>
      </trkpt>
      <trkpt lat="46.18352" lon="6.28015">
        <ele>473.6</ele>
        <time>2021-04-03T11:38:47Z</time>
      </trkpt>
      <trkpt lat="46.18354" lon="6.28019">
        <ele>473.4</ele>
        <time>2021-04-03T11:38:48Z</time>
      </trkpt>
      <trkpt lat="46.18356" lon="6.28023">
        <ele>473.6</ele>
        <time>2021-04-03T11:38:49Z</time>
      </trkpt>
      <trkpt lat="46.18358" lon="6.28026">
        <ele>473.8</ele>
        <time>2021-04-03T11:38:50Z</time>
      </trkpt>
      <trkpt lat="46.1836" lon="6.2803">
        <ele>473.6</ele>
        <time>2021-04-03T11:38:51Z</time>
      </trkpt>
      <trkpt lat="46.18361" lon="6.28034">
        <ele>473.8</ele>
        <time>2021-04-03T11:38:52Z</time>
      </trkpt>
      <trkpt lat="46.18362" lon="6.28038">
        <ele>474</ele>
        <time>2021-04-03T11:38:53Z</time>
      </trkpt>
      <trkpt lat="46.18362" lon="6.28042">
        <ele>474.2</ele>
        <time>2021-04-03T11:38:54Z</time>
      </trkpt>
      <trkpt lat="46.18361" lon="6.28046">
        <ele>474.6</ele>
        <time>2021-04-03T11:38:55Z</time>
      </trkpt>
      <trkpt lat="46.1836" lon="6.28051">
        <ele>474.8</ele>
        <time>2021-04-03T11:38:56Z</time>
      </trkpt>
      <trkpt lat="46.18359" lon="6.28056">
        <ele>475.2</ele>
        <time>2021-04-03T11:38:57Z</time>
      </trkpt>
      <trkpt lat="46.18357" lon="6.2806">
        <ele>475.4</ele>
        <time>2021-04-03T11:38:58Z</time>
      </trkpt>
      <trkpt lat="46.18355" lon="6.28066">
        <ele>475.8</ele>
        <time>2021-04-03T11:38:59Z</time>
      </trkpt>
      <trkpt lat="46.18353" lon="6.28071">
        <ele>475.8</ele>
        <time>2021-04-03T11:39:00Z</time>
      </trkpt>
      <trkpt lat="46.1835" lon="6.28076">
        <ele>476</ele>
        <time>2021-04-03T11:39:01Z</time>
      </trkpt>
      <trkpt lat="46.18348" lon="6.28081">
        <ele>476.2</ele>
        <time>2021-04-03T11:39:02Z</time>
      </trkpt>
      <trkpt lat="46.18345" lon="6.28086">
        <ele>476.2</ele>
        <time>2021-04-03T11:39:03Z</time>
      </trkpt>
      <trkpt lat="46.18342" lon="6.2809">
        <ele>476.2</ele>
        <time>2021-04-03T11:39:04Z</time>
      </trkpt>
      <trkpt lat="46.18338" lon="6.28094">
        <ele>476.2</ele>
        <time>2021-04-03T11:39:05Z</time>
      </trkpt>
      <trkpt lat="46.18334" lon="6.28097">
        <ele>476.2</ele>
        <time>2021-04-03T11:39:06Z</time>
      </trkpt>
      <trkpt lat="46.1833" lon="6.28101">
        <ele>476.4</ele>
        <time>2021-04-03T11:39:07Z</time>
      </trkpt>
      <trkpt lat="46.18326" lon="6.28106">
        <ele>476.4</ele>
        <time>2021-04-03T11:39:08Z</time>
      </trkpt>
      <trkpt lat="46.18324" lon="6.28112">
        <ele>476.4</ele>
        <time>2021-04-03T11:39:09Z</time>
      </trkpt>
      <trkpt lat="46.18323" lon="6.28118">
        <ele>476.6</ele>
        <time>2021-04-03T11:39:10Z</time>
      </trkpt>
      <trkpt lat="46.18323" lon="6.28125">
        <ele>476.8</ele>
        <time>2021-04-03T11:39:11Z</time>
      </trkpt>
      <trkpt lat="46.18322" lon="6.28133">
        <ele>476.8</ele>
        <time>2021-04-03T11:39:12Z</time>
      </trkpt>
      <trkpt lat="46.18321" lon="6.2814">
        <ele>477</ele>
        <time>2021-04-03T11:39:13Z</time>
      </trkpt>
      <trkpt lat="46.1832" lon="6.28147">
        <ele>477</ele>
        <time>2021-04-03T11:39:14Z</time>
      </trkpt>
      <trkpt lat="46.18317" lon="6.28154">
        <ele>477</ele>
        <time>2021-04-03T11:39:15Z</time>
      </trkpt>
      <trkpt lat="46.18314" lon="6.28162">
        <ele>477</ele>
        <time>2021-04-03T11:39:16Z</time>
      </trkpt>
      <trkpt lat="46.18311" lon="6.28169">
        <ele>477</ele>
        <time>2021-04-03T11:39:17Z</time>
      </trkpt>
      <trkpt lat="46.18308" lon="6.28176">
        <ele>477</ele>
        <time>2021-04-03T11:39:18Z</time>
      </trkpt>
      <trkpt lat="46.18305" lon="6.28183">
        <ele>477</ele>
        <time>2021-04-03T11:39:19Z</time>
      </trkpt>
      <trkpt lat="46.18302" lon="6.2819">
        <ele>477</ele>
        <time>2021-04-03T11:39:20Z</time>
      </trkpt>
      <trkpt lat="46.18299" lon="6.28197">
        <ele>477</ele>
        <time>2021-04-03T11:39:21Z</time>
      </trkpt>
      <trkpt lat="46.18296" lon="6.28203">
        <ele>477</ele>
        <time>2021-04-03T11:39:22Z</time>
      </trkpt>
      <trkpt lat="46.18293" lon="6.2821">
        <ele>477</ele>
        <time>2021-04-03T11:39:23Z</time>
      </trkpt>
      <trkpt lat="46.18288" lon="6.28222">
        <ele>477</ele>
        <time>2021-04-03T11:39:25Z</time>
      </trkpt>
      <trkpt lat="46.18285" lon="6.28228">
        <ele>476.8</ele>
        <time>2021-04-03T11:39:26Z</time>
      </trkpt>
      <trkpt lat="46.18282" lon="6.28235">
        <ele>476.8</ele>
        <time>2021-04-03T11:39:27Z</time>
      </trkpt>
      <trkpt lat="46.1828" lon="6.28241">
        <ele>476.8</ele>
        <time>2021-04-03T11:39:28Z</time>
      </trkpt>
      <trkpt lat="46.18277" lon="6.28248">
        <ele>476.8</ele>
        <time>2021-04-03T11:39:29Z</time>
      </trkpt>
      <trkpt lat="46.18275" lon="6.28254">
        <ele>476.8</ele>
        <time>2021-04-03T11:39:30Z</time>
      </trkpt>
      <trkpt lat="46.18272" lon="6.2826">
        <ele>476.8</ele>
        <time>2021-04-03T11:39:31Z</time>
      </trkpt>
      <trkpt lat="46.18269" lon="6.28267">
        <ele>477</ele>
        <time>2021-04-03T11:39:32Z</time>
      </trkpt>
      <trkpt lat="46.18267" lon="6.28273">
        <ele>477</ele>
        <time>2021-04-03T11:39:33Z</time>
      </trkpt>
      <trkpt lat="46.18264" lon="6.2828">
        <ele>477</ele>
        <time>2021-04-03T11:39:34Z</time>
      </trkpt>
      <trkpt lat="46.18261" lon="6.28286">
        <ele>477</ele>
        <time>2021-04-03T11:39:35Z</time>
      </trkpt>
      <trkpt lat="46.18258" lon="6.28292">
        <ele>477</ele>
        <time>2021-04-03T11:39:36Z</time>
      </trkpt>
      <trkpt lat="46.18256" lon="6.28299">
        <ele>477.2</ele>
        <time>2021-04-03T11:39:37Z</time>
      </trkpt>
      <trkpt lat="46.18253" lon="6.28305">
        <ele>477.4</ele>
        <time>2021-04-03T11:39:38Z</time>
      </trkpt>
      <trkpt lat="46.1825" lon="6.28311">
        <ele>477.8</ele>
        <time>2021-04-03T11:39:39Z</time>
      </trkpt>
      <trkpt lat="46.18247" lon="6.28318">
        <ele>477.8</ele>
        <time>2021-04-03T11:39:40Z</time>
      </trkpt>
      <trkpt lat="46.18245" lon="6.28324">
        <ele>478.2</ele>
        <time>2021-04-03T11:39:41Z</time>
      </trkpt>
      <trkpt lat="46.18242" lon="6.2833">
        <ele>478.4</ele>
        <time>2021-04-03T11:39:42Z</time>
      </trkpt>
      <trkpt lat="46.1824" lon="6.28337">
        <ele>478.4</ele>
        <time>2021-04-03T11:39:43Z</time>
      </trkpt>
      <trkpt lat="46.18237" lon="6.28343">
        <ele>478.4</ele>
        <time>2021-04-03T11:39:44Z</time>
      </trkpt>
      <trkpt lat="46.18235" lon="6.28349">
        <ele>478.4</ele>
        <time>2021-04-03T11:39:45Z</time>
      </trkpt>
      <trkpt lat="46.18232" lon="6.28355">
        <ele>478.6</ele>
        <time>2021-04-03T11:39:46Z</time>
      </trkpt>
      <trkpt lat="46.18229" lon="6.28362">
        <ele>478.4</ele>
        <time>2021-04-03T11:39:47Z</time>
      </trkpt>
      <trkpt lat="46.18226" lon="6.28368">
        <ele>478.6</ele>
        <time>2021-04-03T11:39:48Z</time>
      </trkpt>
      <trkpt lat="46.18224" lon="6.28374">
        <ele>478.6</ele>
        <time>2021-04-03T11:39:49Z</time>
      </trkpt>
      <trkpt lat="46.18221" lon="6.2838">
        <ele>478.6</ele>
        <time>2021-04-03T11:39:50Z</time>
      </trkpt>
      <trkpt lat="46.18218" lon="6.28387">
        <ele>478.6</ele>
        <time>2021-04-03T11:39:51Z</time>
      </trkpt>
      <trkpt lat="46.18215" lon="6.28393">
        <ele>478.6</ele>
        <time>2021-04-03T11:39:52Z</time>
      </trkpt>
      <trkpt lat="46.18213" lon="6.28399">
        <ele>478.6</ele>
        <time>2021-04-03T11:39:53Z</time>
      </trkpt>
      <trkpt lat="46.1821" lon="6.28406">
        <ele>479</ele>
        <time>2021-04-03T11:39:54Z</time>
      </trkpt>
      <trkpt lat="46.18208" lon="6.28412">
        <ele>479</ele>
        <time>2021-04-03T11:39:55Z</time>
      </trkpt>
      <trkpt lat="46.18205" lon="6.28418">
        <ele>479</ele>
        <time>2021-04-03T11:39:56Z</time>
      </trkpt>
      <trkpt lat="46.18203" lon="6.28424">
        <ele>479</ele>
        <time>2021-04-03T11:39:57Z</time>
      </trkpt>
      <trkpt lat="46.18201" lon="6.2843">
        <ele>479</ele>
        <time>2021-04-03T11:39:58Z</time>
      </trkpt>
      <trkpt lat="46.18198" lon="6.28436">
        <ele>479.2</ele>
        <time>2021-04-03T11:39:59Z</time>
      </trkpt>
      <trkpt lat="46.18196" lon="6.28442">
        <ele>479.2</ele>
        <time>2021-04-03T11:40:00Z</time>
      </trkpt>
      <trkpt lat="46.18193" lon="6.28448">
        <ele>479.6</ele>
        <time>2021-04-03T11:40:01Z</time>
      </trkpt>
      <trkpt lat="46.18191" lon="6.28454">
        <ele>480</ele>
        <time>2021-04-03T11:40:02Z</time>
      </trkpt>
      <trkpt lat="46.18189" lon="6.28459">
        <ele>480.2</ele>
        <time>2021-04-03T11:40:03Z</time>
      </trkpt>
      <trkpt lat="46.18186" lon="6.28465">
        <ele>480.4</ele>
        <time>2021-04-03T11:40:04Z</time>
      </trkpt>
      <trkpt lat="46.18184" lon="6.28471">
        <ele>480.4</ele>
        <time>2021-04-03T11:40:05Z</time>
      </trkpt>
      <trkpt lat="46.18181" lon="6.28477">
        <ele>480.4</ele>
        <time>2021-04-03T11:40:06Z</time>
      </trkpt>
      <trkpt lat="46.18179" lon="6.28483">
        <ele>480.8</ele>
        <time>2021-04-03T11:40:07Z</time>
      </trkpt>
      <trkpt lat="46.18177" lon="6.28489">
        <ele>481</ele>
        <time>2021-04-03T11:40:08Z</time>
      </trkpt>
      <trkpt lat="46.18174" lon="6.28495">
        <ele>481.2</ele>
        <time>2021-04-03T11:40:09Z</time>
      </trkpt>
      <trkpt lat="46.18172" lon="6.28501">
        <ele>481.2</ele>
        <time>2021-04-03T11:40:10Z</time>
      </trkpt>
      <trkpt lat="46.18171" lon="6.28507">
        <ele>481.6</ele>
        <time>2021-04-03T11:40:11Z</time>
      </trkpt>
      <trkpt lat="46.18169" lon="6.28512">
        <ele>481.6</ele>
        <time>2021-04-03T11:40:12Z</time>
      </trkpt>
      <trkpt lat="46.18168" lon="6.28519">
        <ele>481.8</ele>
        <time>2021-04-03T11:40:13Z</time>
      </trkpt>
      <trkpt lat="46.18166" lon="6.28525">
        <ele>482</ele>
        <time>2021-04-03T11:40:14Z</time>
      </trkpt>
      <trkpt lat="46.18164" lon="6.28531">
        <ele>482</ele>
        <time>2021-04-03T11:40:15Z</time>
      </trkpt>
      <trkpt lat="46.18162" lon="6.28538">
        <ele>482.4</ele>
        <time>2021-04-03T11:40:16Z</time>
      </trkpt>
      <trkpt lat="46.18159" lon="6.28544">
        <ele>482.6</ele>
        <time>2021-04-03T11:40:17Z</time>
      </trkpt>
      <trkpt lat="46.18157" lon="6.2855">
        <ele>483</ele>
        <time>2021-04-03T11:40:18Z</time>
      </trkpt>
      <trkpt lat="46.18154" lon="6.28556">
        <ele>483.2</ele>
        <time>2021-04-03T11:40:19Z</time>
      </trkpt>
      <trkpt lat="46.18152" lon="6.28561">
        <ele>483.2</ele>
        <time>2021-04-03T11:40:20Z</time>
      </trkpt>
      <trkpt lat="46.1815" lon="6.28567">
        <ele>483.4</ele>
        <time>2021-04-03T11:40:21Z</time>
      </trkpt>
      <trkpt lat="46.18148" lon="6.28572">
        <ele>483.6</ele>
        <time>2021-04-03T11:40:22Z</time>
      </trkpt>
      <trkpt lat="46.18145" lon="6.28577">
        <ele>483.8</ele>
        <time>2021-04-03T11:40:23Z</time>
      </trkpt>
      <trkpt lat="46.18142" lon="6.28582">
        <ele>483.8</ele>
        <time>2021-04-03T11:40:24Z</time>
      </trkpt>
      <trkpt lat="46.1814" lon="6.28587">
        <ele>484</ele>
        <time>2021-04-03T11:40:25Z</time>
      </trkpt>
      <trkpt lat="46.18137" lon="6.28592">
        <ele>484</ele>
        <time>2021-04-03T11:40:26Z</time>
      </trkpt>
      <trkpt lat="46.18135" lon="6.28598">
        <ele>484</ele>
        <time>2021-04-03T11:40:27Z</time>
      </trkpt>
      <trkpt lat="46.18132" lon="6.28603">
        <ele>484.4</ele>
        <time>2021-04-03T11:40:28Z</time>
      </trkpt>
      <trkpt lat="46.18129" lon="6.28608">
        <ele>484.6</ele>
        <time>2021-04-03T11:40:29Z</time>
      </trkpt>
      <trkpt lat="46.18126" lon="6.28613">
        <ele>484.8</ele>
        <time>2021-04-03T11:40:30Z</time>
      </trkpt>
      <trkpt lat="46.18123" lon="6.28619">
        <ele>485.2</ele>
        <time>2021-04-03T11:40:31Z</time>
      </trkpt>
      <trkpt lat="46.1812" lon="6.28624">
        <ele>485.4</ele>
        <time>2021-04-03T11:40:32Z</time>
      </trkpt>
      <trkpt lat="46.18117" lon="6.28629">
        <ele>485.6</ele>
        <time>2021-04-03T11:40:33Z</time>
      </trkpt>
      <trkpt lat="46.18113" lon="6.28635">
        <ele>485.6</ele>
        <time>2021-04-03T11:40:34Z</time>
      </trkpt>
      <trkpt lat="46.1811" lon="6.2864">
        <ele>485.8</ele>
        <time>2021-04-03T11:40:35Z</time>
      </trkpt>
      <trkpt lat="46.18107" lon="6.28645">
        <ele>485.8</ele>
        <time>2021-04-03T11:40:36Z</time>
      </trkpt>
      <trkpt lat="46.18104" lon="6.28649">
        <ele>485.8</ele>
        <time>2021-04-03T11:40:37Z</time>
      </trkpt>
      <trkpt lat="46.181" lon="6.28654">
        <ele>485.8</ele>
        <time>2021-04-03T11:40:38Z</time>
      </trkpt>
      <trkpt lat="46.18097" lon="6.28659">
        <ele>485.8</ele>
        <time>2021-04-03T11:40:39Z</time>
      </trkpt>
      <trkpt lat="46.18094" lon="6.28663">
        <ele>486</ele>
        <time>2021-04-03T11:40:40Z</time>
      </trkpt>
      <trkpt lat="46.18091" lon="6.28668">
        <ele>486</ele>
        <time>2021-04-03T11:40:41Z</time>
      </trkpt>
      <trkpt lat="46.18087" lon="6.28672">
        <ele>486</ele>
        <time>2021-04-03T11:40:42Z</time>
      </trkpt>
      <trkpt lat="46.18084" lon="6.28676">
        <ele>485.8</ele>
        <time>2021-04-03T11:40:43Z</time>
      </trkpt>
      <trkpt lat="46.18081" lon="6.2868">
        <ele>486</ele>
        <time>2021-04-03T11:40:44Z</time>
      </trkpt>
      <trkpt lat="46.18079" lon="6.28683">
        <ele>486</ele>
        <time>2021-04-03T11:40:45Z</time>
      </trkpt>
      <trkpt lat="46.18077" lon="6.28686">
        <ele>486</ele>
        <time>2021-04-03T11:40:46Z</time>
      </trkpt>
      <trkpt lat="46.18075" lon="6.28689">
        <ele>485.8</ele>
        <time>2021-04-03T11:40:47Z</time>
      </trkpt>
      <trkpt lat="46.18073" lon="6.28692">
        <ele>486</ele>
        <time>2021-04-03T11:40:48Z</time>
      </trkpt>
      <trkpt lat="46.18071" lon="6.28694">
        <ele>486</ele>
        <time>2021-04-03T11:40:49Z</time>
      </trkpt>
      <trkpt lat="46.1807" lon="6.28695">
        <ele>486</ele>
        <time>2021-04-03T11:40:50Z</time>
      </trkpt>
      <trkpt lat="46.18068" lon="6.28697">
        <ele>486</ele>
        <time>2021-04-03T11:40:51Z</time>
      </trkpt>
      <trkpt lat="46.18067" lon="6.28698">
        <ele>486.2</ele>
        <time>2021-04-03T11:40:52Z</time>
      </trkpt>
      <trkpt lat="46.18066" lon="6.287">
        <ele>486.2</ele>
        <time>2021-04-03T11:40:53Z</time>
      </trkpt>
      <trkpt lat="46.18066" lon="6.28701">
        <ele>486.2</ele>
        <time>2021-04-03T11:40:54Z</time>
      </trkpt>
      <trkpt lat="46.18065" lon="6.28702">
        <ele>486</ele>
        <time>2021-04-03T11:40:55Z</time>
      </trkpt>
      <trkpt lat="46.18064" lon="6.28703">
        <ele>486.2</ele>
        <time>2021-04-03T11:40:56Z</time>
      </trkpt>
      <trkpt lat="46.18063" lon="6.28704">
        <ele>486.2</ele>
        <time>2021-04-03T11:40:57Z</time>
      </trkpt>
      <trkpt lat="46.18062" lon="6.28705">
        <ele>486.4</ele>
        <time>2021-04-03T11:40:58Z</time>
      </trkpt>
      <trkpt lat="46.18062" lon="6.28706">
        <ele>486.4</ele>
        <time>2021-04-03T11:40:59Z</time>
      </trkpt>
      <trkpt lat="46.18062" lon="6.28706">
        <ele>486.2</ele>
        <time>2021-04-03T11:41:00Z</time>
      </trkpt>
      <trkpt lat="46.18062" lon="6.28706">
        <ele>486.2</ele>
        <time>2021-04-03T11:41:02Z</time>
      </trkpt>
      <trkpt lat="46.18062" lon="6.28706">
        <ele>486.2</ele>
        <time>2021-04-03T11:41:03Z</time>
      </trkpt>
      <trkpt lat="46.18062" lon="6.28707">
        <ele>486</ele>
        <time>2021-04-03T11:41:06Z</time>
      </trkpt>
      <trkpt lat="46.18062" lon="6.2871">
        <ele>485.8</ele>
        <time>2021-04-03T11:41:07Z</time>
      </trkpt>
      <trkpt lat="46.18062" lon="6.28713">
        <ele>485.8</ele>
        <time>2021-04-03T11:41:08Z</time>
      </trkpt>
      <trkpt lat="46.18063" lon="6.28717">
        <ele>485.8</ele>
        <time>2021-04-03T11:41:09Z</time>
      </trkpt>
      <trkpt lat="46.18063" lon="6.28722">
        <ele>485.6</ele>
        <time>2021-04-03T11:41:10Z</time>
      </trkpt>
      <trkpt lat="46.18064" lon="6.28728">
        <ele>485.6</ele>
        <time>2021-04-03T11:41:11Z</time>
      </trkpt>
      <trkpt lat="46.18065" lon="6.28734">
        <ele>485.6</ele>
        <time>2021-04-03T11:41:12Z</time>
      </trkpt>
      <trkpt lat="46.18066" lon="6.28739">
        <ele>485.6</ele>
        <time>2021-04-03T11:41:13Z</time>
      </trkpt>
      <trkpt lat="46.18066" lon="6.28745">
        <ele>485.6</ele>
        <time>2021-04-03T11:41:14Z</time>
      </trkpt>
      <trkpt lat="46.18066" lon="6.28751">
        <ele>485.6</ele>
        <time>2021-04-03T11:41:15Z</time>
      </trkpt>
      <trkpt lat="46.18066" lon="6.28757">
        <ele>485.6</ele>
        <time>2021-04-03T11:41:16Z</time>
      </trkpt>
      <trkpt lat="46.18064" lon="6.28763">
        <ele>485.6</ele>
        <time>2021-04-03T11:41:17Z</time>
      </trkpt>
      <trkpt lat="46.18063" lon="6.28768">
        <ele>485.6</ele>
        <time>2021-04-03T11:41:18Z</time>
      </trkpt>
      <trkpt lat="46.18061" lon="6.28773">
        <ele>485.6</ele>
        <time>2021-04-03T11:41:19Z</time>
      </trkpt>
      <trkpt lat="46.18059" lon="6.28778">
        <ele>486</ele>
        <time>2021-04-03T11:41:20Z</time>
      </trkpt>
      <trkpt lat="46.18057" lon="6.28783">
        <ele>486.4</ele>
        <time>2021-04-03T11:41:21Z</time>
      </trkpt>
      <trkpt lat="46.18055" lon="6.28788">
        <ele>486.8</ele>
        <time>2021-04-03T11:41:22Z</time>
      </trkpt>
      <trkpt lat="46.18053" lon="6.28793">
        <ele>486.8</ele>
        <time>2021-04-03T11:41:23Z</time>
      </trkpt>
      <trkpt lat="46.1805" lon="6.28798">
        <ele>487</ele>
        <time>2021-04-03T11:41:24Z</time>
      </trkpt>
      <trkpt lat="46.18048" lon="6.28803">
        <ele>487</ele>
        <time>2021-04-03T11:41:25Z</time>
      </trkpt>
      <trkpt lat="46.18045" lon="6.28809">
        <ele>487.2</ele>
        <time>2021-04-03T11:41:26Z</time>
      </trkpt>
      <trkpt lat="46.18043" lon="6.28814">
        <ele>487.2</ele>
        <time>2021-04-03T11:41:27Z</time>
      </trkpt>
      <trkpt lat="46.1804" lon="6.2882">
        <ele>487.4</ele>
        <time>2021-04-03T11:41:28Z</time>
      </trkpt>
      <trkpt lat="46.18038" lon="6.28826">
        <ele>487.4</ele>
        <time>2021-04-03T11:41:29Z</time>
      </trkpt>
      <trkpt lat="46.18035" lon="6.28832">
        <ele>487.2</ele>
        <time>2021-04-03T11:41:30Z</time>
      </trkpt>
      <trkpt lat="46.18032" lon="6.28838">
        <ele>487.2</ele>
        <time>2021-04-03T11:41:31Z</time>
      </trkpt>
      <trkpt lat="46.18029" lon="6.28845">
        <ele>487.2</ele>
        <time>2021-04-03T11:41:32Z</time>
      </trkpt>
      <trkpt lat="46.18026" lon="6.28853">
        <ele>487.4</ele>
        <time>2021-04-03T11:41:33Z</time>
      </trkpt>
      <trkpt lat="46.18023" lon="6.28861">
        <ele>487.4</ele>
        <time>2021-04-03T11:41:34Z</time>
      </trkpt>
      <trkpt lat="46.18021" lon="6.28868">
        <ele>487.2</ele>
        <time>2021-04-03T11:41:35Z</time>
      </trkpt>
      <trkpt lat="46.18019" lon="6.28877">
        <ele>487.2</ele>
        <time>2021-04-03T11:41:36Z</time>
      </trkpt>
      <trkpt lat="46.18017" lon="6.28885">
        <ele>487.2</ele>
        <time>2021-04-03T11:41:37Z</time>
      </trkpt>
      <trkpt lat="46.18015" lon="6.28895">
        <ele>487.2</ele>
        <time>2021-04-03T11:41:38Z</time>
      </trkpt>
      <trkpt lat="46.18015" lon="6.28904">
        <ele>487</ele>
        <time>2021-04-03T11:41:39Z</time>
      </trkpt>
      <trkpt lat="46.18015" lon="6.28914">
        <ele>487</ele>
        <time>2021-04-03T11:41:40Z</time>
      </trkpt>
      <trkpt lat="46.18017" lon="6.28924">
        <ele>486.6</ele>
        <time>2021-04-03T11:41:41Z</time>
      </trkpt>
      <trkpt lat="46.18019" lon="6.28934">
        <ele>486.2</ele>
        <time>2021-04-03T11:41:42Z</time>
      </trkpt>
      <trkpt lat="46.18022" lon="6.28943">
        <ele>486</ele>
        <time>2021-04-03T11:41:43Z</time>
      </trkpt>
      <trkpt lat="46.18024" lon="6.28953">
        <ele>485.8</ele>
        <time>2021-04-03T11:41:44Z</time>
      </trkpt>
      <trkpt lat="46.18027" lon="6.28962">
        <ele>485.8</ele>
        <time>2021-04-03T11:41:45Z</time>
      </trkpt>
      <trkpt lat="46.18029" lon="6.28972">
        <ele>485.6</ele>
        <time>2021-04-03T11:41:46Z</time>
      </trkpt>
      <trkpt lat="46.18032" lon="6.28982">
        <ele>485.2</ele>
        <time>2021-04-03T11:41:47Z</time>
      </trkpt>
      <trkpt lat="46.18034" lon="6.28992">
        <ele>484.8</ele>
        <time>2021-04-03T11:41:48Z</time>
      </trkpt>
      <trkpt lat="46.18037" lon="6.29001">
        <ele>484.6</ele>
        <time>2021-04-03T11:41:49Z</time>
      </trkpt>
      <trkpt lat="46.1804" lon="6.29009">
        <ele>484</ele>
        <time>2021-04-03T11:41:50Z</time>
      </trkpt>
      <trkpt lat="46.18044" lon="6.29017">
        <ele>483.6</ele>
        <time>2021-04-03T11:41:51Z</time>
      </trkpt>
      <trkpt lat="46.18049" lon="6.29024">
        <ele>482.8</ele>
        <time>2021-04-03T11:41:52Z</time>
      </trkpt>
      <trkpt lat="46.18053" lon="6.29032">
        <ele>481.8</ele>
        <time>2021-04-03T11:41:53Z</time>
      </trkpt>
      <trkpt lat="46.18058" lon="6.29039">
        <ele>481.4</ele>
        <time>2021-04-03T11:41:54Z</time>
      </trkpt>
      <trkpt lat="46.18063" lon="6.29046">
        <ele>481.2</ele>
        <time>2021-04-03T11:41:55Z</time>
      </trkpt>
      <trkpt lat="46.18067" lon="6.29054">
        <ele>481</ele>
        <time>2021-04-03T11:41:56Z</time>
      </trkpt>
      <trkpt lat="46.18073" lon="6.29062">
        <ele>480.8</ele>
        <time>2021-04-03T11:41:57Z</time>
      </trkpt>
      <trkpt lat="46.18078" lon="6.29069">
        <ele>480.8</ele>
        <time>2021-04-03T11:41:58Z</time>
      </trkpt>
      <trkpt lat="46.18084" lon="6.29077">
        <ele>480.6</ele>
        <time>2021-04-03T11:41:59Z</time>
      </trkpt>
      <trkpt lat="46.1809" lon="6.29085">
        <ele>480.4</ele>
        <time>2021-04-03T11:42:00Z</time>
      </trkpt>
      <trkpt lat="46.18096" lon="6.29093">
        <ele>480</ele>
        <time>2021-04-03T11:42:01Z</time>
      </trkpt>
      <trkpt lat="46.18102" lon="6.29101">
        <ele>479.8</ele>
        <time>2021-04-03T11:42:02Z</time>
      </trkpt>
      <trkpt lat="46.18107" lon="6.2911">
        <ele>479.6</ele>
        <time>2021-04-03T11:42:03Z</time>
      </trkpt>
      <trkpt lat="46.18112" lon="6.2912">
        <ele>479</ele>
        <time>2021-04-03T11:42:04Z</time>
      </trkpt>
      <trkpt lat="46.18117" lon="6.2913">
        <ele>478.4</ele>
        <time>2021-04-03T11:42:05Z</time>
      </trkpt>
      <trkpt lat="46.1812" lon="6.2914">
        <ele>478</ele>
        <time>2021-04-03T11:42:06Z</time>
      </trkpt>
      <trkpt lat="46.18123" lon="6.29151">
        <ele>477.8</ele>
        <time>2021-04-03T11:42:07Z</time>
      </trkpt>
      <trkpt lat="46.18126" lon="6.29162">
        <ele>477.6</ele>
        <time>2021-04-03T11:42:08Z</time>
      </trkpt>
      <trkpt lat="46.18128" lon="6.29173">
        <ele>477.6</ele>
        <time>2021-04-03T11:42:09Z</time>
      </trkpt>
      <trkpt lat="46.18129" lon="6.29185">
        <ele>477.4</ele>
        <time>2021-04-03T11:42:10Z</time>
      </trkpt>
      <trkpt lat="46.18128" lon="6.29197">
        <ele>477.2</ele>
        <time>2021-04-03T11:42:11Z</time>
      </trkpt>
      <trkpt lat="46.18128" lon="6.29209">
        <ele>475.8</ele>
        <time>2021-04-03T11:42:12Z</time>
      </trkpt>
      <trkpt lat="46.18126" lon="6.29221">
        <ele>475.2</ele>
        <time>2021-04-03T11:42:13Z</time>
      </trkpt>
      <trkpt lat="46.18123" lon="6.29233">
        <ele>474.6</ele>
        <time>2021-04-03T11:42:14Z</time>
      </trkpt>
      <trkpt lat="46.18119" lon="6.29244">
        <ele>474.6</ele>
        <time>2021-04-03T11:42:15Z</time>
      </trkpt>
      <trkpt lat="46.18115" lon="6.29254">
        <ele>474.2</ele>
        <time>2021-04-03T11:42:16Z</time>
      </trkpt>
      <trkpt lat="46.18111" lon="6.29263">
        <ele>474.2</ele>
        <time>2021-04-03T11:42:17Z</time>
      </trkpt>
      <trkpt lat="46.18106" lon="6.29272">
        <ele>474</ele>
        <time>2021-04-03T11:42:18Z</time>
      </trkpt>
      <trkpt lat="46.18101" lon="6.2928">
        <ele>474</ele>
        <time>2021-04-03T11:42:19Z</time>
      </trkpt>
      <trkpt lat="46.18097" lon="6.29288">
        <ele>473.4</ele>
        <time>2021-04-03T11:42:20Z</time>
      </trkpt>
      <trkpt lat="46.18092" lon="6.29295">
        <ele>473.4</ele>
        <time>2021-04-03T11:42:21Z</time>
      </trkpt>
      <trkpt lat="46.18088" lon="6.29303">
        <ele>473.4</ele>
        <time>2021-04-03T11:42:22Z</time>
      </trkpt>
      <trkpt lat="46.18084" lon="6.2931">
        <ele>473.2</ele>
        <time>2021-04-03T11:42:23Z</time>
      </trkpt>
      <trkpt lat="46.1808" lon="6.29316">
        <ele>473</ele>
        <time>2021-04-03T11:42:24Z</time>
      </trkpt>
      <trkpt lat="46.18076" lon="6.29323">
        <ele>473</ele>
        <time>2021-04-03T11:42:25Z</time>
      </trkpt>
      <trkpt lat="46.18072" lon="6.2933">
        <ele>473</ele>
        <time>2021-04-03T11:42:26Z</time>
      </trkpt>
      <trkpt lat="46.18068" lon="6.29338">
        <ele>473</ele>
        <time>2021-04-03T11:42:27Z</time>
      </trkpt>
      <trkpt lat="46.18065" lon="6.29345">
        <ele>473</ele>
        <time>2021-04-03T11:42:28Z</time>
      </trkpt>
      <trkpt lat="46.18062" lon="6.29352">
        <ele>473</ele>
        <time>2021-04-03T11:42:29Z</time>
      </trkpt>
      <trkpt lat="46.18059" lon="6.2936">
        <ele>473</ele>
        <time>2021-04-03T11:42:30Z</time>
      </trkpt>
      <trkpt lat="46.18056" lon="6.29368">
        <ele>473</ele>
        <time>2021-04-03T11:42:31Z</time>
      </trkpt>
      <trkpt lat="46.18054" lon="6.29376">
        <ele>473.2</ele>
        <time>2021-04-03T11:42:32Z</time>
      </trkpt>
      <trkpt lat="46.18052" lon="6.29383">
        <ele>473.4</ele>
        <time>2021-04-03T11:42:33Z</time>
      </trkpt>
      <trkpt lat="46.1805" lon="6.29391">
        <ele>474</ele>
        <time>2021-04-03T11:42:34Z</time>
      </trkpt>
      <trkpt lat="46.18048" lon="6.29399">
        <ele>474.2</ele>
        <time>2021-04-03T11:42:35Z</time>
      </trkpt>
      <trkpt lat="46.18046" lon="6.29406">
        <ele>474.6</ele>
        <time>2021-04-03T11:42:36Z</time>
      </trkpt>
      <trkpt lat="46.18044" lon="6.29414">
        <ele>474.6</ele>
        <time>2021-04-03T11:42:37Z</time>
      </trkpt>
      <trkpt lat="46.18043" lon="6.29422">
        <ele>475</ele>
        <time>2021-04-03T11:42:38Z</time>
      </trkpt>
      <trkpt lat="46.18042" lon="6.2943">
        <ele>475.2</ele>
        <time>2021-04-03T11:42:39Z</time>
      </trkpt>
      <trkpt lat="46.18042" lon="6.29437">
        <ele>475.6</ele>
        <time>2021-04-03T11:42:40Z</time>
      </trkpt>
      <trkpt lat="46.18041" lon="6.29443">
        <ele>475.8</ele>
        <time>2021-04-03T11:42:41Z</time>
      </trkpt>
      <trkpt lat="46.1804" lon="6.2945">
        <ele>476</ele>
        <time>2021-04-03T11:42:42Z</time>
      </trkpt>
      <trkpt lat="46.1804" lon="6.29457">
        <ele>476.2</ele>
        <time>2021-04-03T11:42:43Z</time>
      </trkpt>
      <trkpt lat="46.1804" lon="6.29465">
        <ele>476.6</ele>
        <time>2021-04-03T11:42:44Z</time>
      </trkpt>
      <trkpt lat="46.18039" lon="6.29472">
        <ele>476.8</ele>
        <time>2021-04-03T11:42:45Z</time>
      </trkpt>
      <trkpt lat="46.18039" lon="6.2948">
        <ele>477</ele>
        <time>2021-04-03T11:42:46Z</time>
      </trkpt>
      <trkpt lat="46.18039" lon="6.29487">
        <ele>477</ele>
        <time>2021-04-03T11:42:47Z</time>
      </trkpt>
      <trkpt lat="46.18039" lon="6.29495">
        <ele>477.4</ele>
        <time>2021-04-03T11:42:48Z</time>
      </trkpt>
      <trkpt lat="46.18039" lon="6.29502">
        <ele>477.4</ele>
        <time>2021-04-03T11:42:49Z</time>
      </trkpt>
      <trkpt lat="46.18039" lon="6.29508">
        <ele>477.4</ele>
        <time>2021-04-03T11:42:50Z</time>
      </trkpt>
      <trkpt lat="46.18039" lon="6.29515">
        <ele>477.4</ele>
        <time>2021-04-03T11:42:51Z</time>
      </trkpt>
      <trkpt lat="46.18039" lon="6.29522">
        <ele>477.6</ele>
        <time>2021-04-03T11:42:52Z</time>
      </trkpt>
      <trkpt lat="46.18039" lon="6.29529">
        <ele>477.6</ele>
        <time>2021-04-03T11:42:53Z</time>
      </trkpt>
      <trkpt lat="46.18039" lon="6.29536">
        <ele>477.6</ele>
        <time>2021-04-03T11:42:54Z</time>
      </trkpt>
      <trkpt lat="46.18039" lon="6.29543">
        <ele>477.8</ele>
        <time>2021-04-03T11:42:55Z</time>
      </trkpt>
      <trkpt lat="46.1804" lon="6.2955">
        <ele>478</ele>
        <time>2021-04-03T11:42:56Z</time>
      </trkpt>
      <trkpt lat="46.1804" lon="6.29557">
        <ele>478.2</ele>
        <time>2021-04-03T11:42:57Z</time>
      </trkpt>
      <trkpt lat="46.1804" lon="6.29564">
        <ele>478.4</ele>
        <time>2021-04-03T11:42:58Z</time>
      </trkpt>
      <trkpt lat="46.1804" lon="6.29571">
        <ele>478.6</ele>
        <time>2021-04-03T11:42:59Z</time>
      </trkpt>
      <trkpt lat="46.18041" lon="6.29578">
        <ele>478.8</ele>
        <time>2021-04-03T11:43:00Z</time>
      </trkpt>
      <trkpt lat="46.18041" lon="6.29585">
        <ele>479</ele>
        <time>2021-04-03T11:43:01Z</time>
      </trkpt>
      <trkpt lat="46.18042" lon="6.29592">
        <ele>479.4</ele>
        <time>2021-04-03T11:43:02Z</time>
      </trkpt>
      <trkpt lat="46.18042" lon="6.29599">
        <ele>479.4</ele>
        <time>2021-04-03T11:43:03Z</time>
      </trkpt>
      <trkpt lat="46.18043" lon="6.29606">
        <ele>479.8</ele>
        <time>2021-04-03T11:43:04Z</time>
      </trkpt>
      <trkpt lat="46.18044" lon="6.29613">
        <ele>480.2</ele>
        <time>2021-04-03T11:43:05Z</time>
      </trkpt>
      <trkpt lat="46.18045" lon="6.29619">
        <ele>480.4</ele>
        <time>2021-04-03T11:43:06Z</time>
      </trkpt>
      <trkpt lat="46.18046" lon="6.29626">
        <ele>480.8</ele>
        <time>2021-04-03T11:43:07Z</time>
      </trkpt>
      <trkpt lat="46.18047" lon="6.29633">
        <ele>481</ele>
        <time>2021-04-03T11:43:08Z</time>
      </trkpt>
      <trkpt lat="46.18047" lon="6.2964">
        <ele>481.4</ele>
        <time>2021-04-03T11:43:09Z</time>
      </trkpt>
      <trkpt lat="46.18048" lon="6.29647">
        <ele>481.6</ele>
        <time>2021-04-03T11:43:10Z</time>
      </trkpt>
      <trkpt lat="46.18049" lon="6.29654">
        <ele>482</ele>
        <time>2021-04-03T11:43:11Z</time>
      </trkpt>
      <trkpt lat="46.18049" lon="6.29661">
        <ele>482</ele>
        <time>2021-04-03T11:43:12Z</time>
      </trkpt>
      <trkpt lat="46.1805" lon="6.29667">
        <ele>482.2</ele>
        <time>2021-04-03T11:43:13Z</time>
      </trkpt>
      <trkpt lat="46.1805" lon="6.29674">
        <ele>482.4</ele>
        <time>2021-04-03T11:43:14Z</time>
      </trkpt>
      <trkpt lat="46.18051" lon="6.2968">
        <ele>482.6</ele>
        <time>2021-04-03T11:43:15Z</time>
      </trkpt>
      <trkpt lat="46.18051" lon="6.29687">
        <ele>482.8</ele>
        <time>2021-04-03T11:43:16Z</time>
      </trkpt>
      <trkpt lat="46.18051" lon="6.29693">
        <ele>483</ele>
        <time>2021-04-03T11:43:17Z</time>
      </trkpt>
      <trkpt lat="46.18051" lon="6.29699">
        <ele>483</ele>
        <time>2021-04-03T11:43:18Z</time>
      </trkpt>
      <trkpt lat="46.1805" lon="6.29705">
        <ele>483</ele>
        <time>2021-04-03T11:43:19Z</time>
      </trkpt>
      <trkpt lat="46.1805" lon="6.29711">
        <ele>483.2</ele>
        <time>2021-04-03T11:43:20Z</time>
      </trkpt>
      <trkpt lat="46.18049" lon="6.29716">
        <ele>483.2</ele>
        <time>2021-04-03T11:43:21Z</time>
      </trkpt>
      <trkpt lat="46.18048" lon="6.29723">
        <ele>483.2</ele>
        <time>2021-04-03T11:43:22Z</time>
      </trkpt>
      <trkpt lat="46.18047" lon="6.29728">
        <ele>483.4</ele>
        <time>2021-04-03T11:43:23Z</time>
      </trkpt>
      <trkpt lat="46.18046" lon="6.29734">
        <ele>483.8</ele>
        <time>2021-04-03T11:43:24Z</time>
      </trkpt>
      <trkpt lat="46.18044" lon="6.2974">
        <ele>484</ele>
        <time>2021-04-03T11:43:25Z</time>
      </trkpt>
      <trkpt lat="46.18043" lon="6.29746">
        <ele>484.2</ele>
        <time>2021-04-03T11:43:26Z</time>
      </trkpt>
      <trkpt lat="46.18042" lon="6.29752">
        <ele>484.4</ele>
        <time>2021-04-03T11:43:27Z</time>
      </trkpt>
      <trkpt lat="46.1804" lon="6.29757">
        <ele>484.4</ele>
        <time>2021-04-03T11:43:28Z</time>
      </trkpt>
      <trkpt lat="46.18039" lon="6.29763">
        <ele>484.8</ele>
        <time>2021-04-03T11:43:29Z</time>
      </trkpt>
      <trkpt lat="46.18037" lon="6.29769">
        <ele>485.2</ele>
        <time>2021-04-03T11:43:30Z</time>
      </trkpt>
      <trkpt lat="46.18035" lon="6.29775">
        <ele>485.2</ele>
        <time>2021-04-03T11:43:31Z</time>
      </trkpt>
      <trkpt lat="46.18034" lon="6.29781">
        <ele>485.2</ele>
        <time>2021-04-03T11:43:32Z</time>
      </trkpt>
      <trkpt lat="46.18033" lon="6.29787">
        <ele>485.4</ele>
        <time>2021-04-03T11:43:33Z</time>
      </trkpt>
      <trkpt lat="46.18032" lon="6.29793">
        <ele>485.6</ele>
        <time>2021-04-03T11:43:34Z</time>
      </trkpt>
      <trkpt lat="46.1803" lon="6.29798">
        <ele>485.8</ele>
        <time>2021-04-03T11:43:35Z</time>
      </trkpt>
      <trkpt lat="46.18029" lon="6.29804">
        <ele>485.8</ele>
        <time>2021-04-03T11:43:36Z</time>
      </trkpt>
      <trkpt lat="46.18027" lon="6.2981">
        <ele>486</ele>
        <time>2021-04-03T11:43:37Z</time>
      </trkpt>
      <trkpt lat="46.18026" lon="6.29816">
        <ele>486.4</ele>
        <time>2021-04-03T11:43:38Z</time>
      </trkpt>
      <trkpt lat="46.18024" lon="6.29822">
        <ele>486.6</ele>
        <time>2021-04-03T11:43:39Z</time>
      </trkpt>
      <trkpt lat="46.18023" lon="6.29827">
        <ele>486.8</ele>
        <time>2021-04-03T11:43:40Z</time>
      </trkpt>
      <trkpt lat="46.18021" lon="6.29833">
        <ele>486.8</ele>
        <time>2021-04-03T11:43:41Z</time>
      </trkpt>
      <trkpt lat="46.1802" lon="6.29839">
        <ele>486.8</ele>
        <time>2021-04-03T11:43:42Z</time>
      </trkpt>
      <trkpt lat="46.18019" lon="6.29845">
        <ele>487</ele>
        <time>2021-04-03T11:43:43Z</time>
      </trkpt>
      <trkpt lat="46.18017" lon="6.29851">
        <ele>487.2</ele>
        <time>2021-04-03T11:43:44Z</time>
      </trkpt>
      <trkpt lat="46.18016" lon="6.29857">
        <ele>487.4</ele>
        <time>2021-04-03T11:43:45Z</time>
      </trkpt>
      <trkpt lat="46.18014" lon="6.29863">
        <ele>487.8</ele>
        <time>2021-04-03T11:43:46Z</time>
      </trkpt>
      <trkpt lat="46.18013" lon="6.29869">
        <ele>488</ele>
        <time>2021-04-03T11:43:47Z</time>
      </trkpt>
      <trkpt lat="46.18011" lon="6.29875">
        <ele>488.6</ele>
        <time>2021-04-03T11:43:48Z</time>
      </trkpt>
      <trkpt lat="46.1801" lon="6.2988">
        <ele>489</ele>
        <time>2021-04-03T11:43:49Z</time>
      </trkpt>
      <trkpt lat="46.18008" lon="6.29886">
        <ele>489.2</ele>
        <time>2021-04-03T11:43:50Z</time>
      </trkpt>
      <trkpt lat="46.18007" lon="6.29892">
        <ele>489.4</ele>
        <time>2021-04-03T11:43:51Z</time>
      </trkpt>
      <trkpt lat="46.18005" lon="6.29898">
        <ele>489.6</ele>
        <time>2021-04-03T11:43:52Z</time>
      </trkpt>
      <trkpt lat="46.18004" lon="6.29904">
        <ele>489.8</ele>
        <time>2021-04-03T11:43:53Z</time>
      </trkpt>
      <trkpt lat="46.18002" lon="6.2991">
        <ele>489.8</ele>
        <time>2021-04-03T11:43:54Z</time>
      </trkpt>
      <trkpt lat="46.18001" lon="6.29916">
        <ele>490</ele>
        <time>2021-04-03T11:43:55Z</time>
      </trkpt>
      <trkpt lat="46.17999" lon="6.29922">
        <ele>490</ele>
        <time>2021-04-03T11:43:56Z</time>
      </trkpt>
      <trkpt lat="46.17998" lon="6.29928">
        <ele>490</ele>
        <time>2021-04-03T11:43:57Z</time>
      </trkpt>
      <trkpt lat="46.17996" lon="6.29934">
        <ele>490.2</ele>
        <time>2021-04-03T11:43:58Z</time>
      </trkpt>
      <trkpt lat="46.17995" lon="6.2994">
        <ele>490.2</ele>
        <time>2021-04-03T11:43:59Z</time>
      </trkpt>
      <trkpt lat="46.17993" lon="6.29946">
        <ele>490.6</ele>
        <time>2021-04-03T11:44:00Z</time>
      </trkpt>
      <trkpt lat="46.17992" lon="6.29951">
        <ele>490.6</ele>
        <time>2021-04-03T11:44:01Z</time>
      </trkpt>
      <trkpt lat="46.17991" lon="6.29957">
        <ele>490.8</ele>
        <time>2021-04-03T11:44:02Z</time>
      </trkpt>
      <trkpt lat="46.17989" lon="6.29963">
        <ele>490.8</ele>
        <time>2021-04-03T11:44:03Z</time>
      </trkpt>
      <trkpt lat="46.17988" lon="6.29969">
        <ele>491.2</ele>
        <time>2021-04-03T11:44:04Z</time>
      </trkpt>
      <trkpt lat="46.17986" lon="6.29975">
        <ele>491.6</ele>
        <time>2021-04-03T11:44:05Z</time>
      </trkpt>
      <trkpt lat="46.17985" lon="6.2998">
        <ele>491.6</ele>
        <time>2021-04-03T11:44:06Z</time>
      </trkpt>
      <trkpt lat="46.17984" lon="6.29986">
        <ele>491.8</ele>
        <time>2021-04-03T11:44:07Z</time>
      </trkpt>
      <trkpt lat="46.17982" lon="6.29991">
        <ele>492.4</ele>
        <time>2021-04-03T11:44:08Z</time>
      </trkpt>
      <trkpt lat="46.17981" lon="6.29997">
        <ele>492.8</ele>
        <time>2021-04-03T11:44:09Z</time>
      </trkpt>
      <trkpt lat="46.1798" lon="6.30003">
        <ele>493</ele>
        <time>2021-04-03T11:44:10Z</time>
      </trkpt>
      <trkpt lat="46.17978" lon="6.30008">
        <ele>493.2</ele>
        <time>2021-04-03T11:44:11Z</time>
      </trkpt>
      <trkpt lat="46.17977" lon="6.30014">
        <ele>493.4</ele>
        <time>2021-04-03T11:44:12Z</time>
      </trkpt>
      <trkpt lat="46.17976" lon="6.30019">
        <ele>493.4</ele>
        <time>2021-04-03T11:44:13Z</time>
      </trkpt>
      <trkpt lat="46.17975" lon="6.30025">
        <ele>493.4</ele>
        <time>2021-04-03T11:44:14Z</time>
      </trkpt>
      <trkpt lat="46.17973" lon="6.30031">
        <ele>493.8</ele>
        <time>2021-04-03T11:44:15Z</time>
      </trkpt>
      <trkpt lat="46.17972" lon="6.30037">
        <ele>494.2</ele>
        <time>2021-04-03T11:44:16Z</time>
      </trkpt>
      <trkpt lat="46.17971" lon="6.30042">
        <ele>494.2</ele>
        <time>2021-04-03T11:44:17Z</time>
      </trkpt>
      <trkpt lat="46.1797" lon="6.30048">
        <ele>494.4</ele>
        <time>2021-04-03T11:44:18Z</time>
      </trkpt>
      <trkpt lat="46.17969" lon="6.30054">
        <ele>494.4</ele>
        <time>2021-04-03T11:44:19Z</time>
      </trkpt>
      <trkpt lat="46.17969" lon="6.30059">
        <ele>494.6</ele>
        <time>2021-04-03T11:44:20Z</time>
      </trkpt>
      <trkpt lat="46.17968" lon="6.30065">
        <ele>494.6</ele>
        <time>2021-04-03T11:44:21Z</time>
      </trkpt>
      <trkpt lat="46.17967" lon="6.3007">
        <ele>494.6</ele>
        <time>2021-04-03T11:44:22Z</time>
      </trkpt>
      <trkpt lat="46.17966" lon="6.30075">
        <ele>494.8</ele>
        <time>2021-04-03T11:44:23Z</time>
      </trkpt>
      <trkpt lat="46.17965" lon="6.30081">
        <ele>495</ele>
        <time>2021-04-03T11:44:24Z</time>
      </trkpt>
      <trkpt lat="46.17964" lon="6.30086">
        <ele>495.4</ele>
        <time>2021-04-03T11:44:25Z</time>
      </trkpt>
      <trkpt lat="46.17963" lon="6.30092">
        <ele>495.4</ele>
        <time>2021-04-03T11:44:26Z</time>
      </trkpt>
      <trkpt lat="46.17962" lon="6.30097">
        <ele>495.4</ele>
        <time>2021-04-03T11:44:27Z</time>
      </trkpt>
      <trkpt lat="46.17961" lon="6.30103">
        <ele>495.4</ele>
        <time>2021-04-03T11:44:28Z</time>
      </trkpt>
      <trkpt lat="46.1796" lon="6.30109">
        <ele>495.4</ele>
        <time>2021-04-03T11:44:29Z</time>
      </trkpt>
      <trkpt lat="46.17959" lon="6.30114">
        <ele>495.4</ele>
        <time>2021-04-03T11:44:30Z</time>
      </trkpt>
      <trkpt lat="46.17958" lon="6.30119">
        <ele>495.4</ele>
        <time>2021-04-03T11:44:31Z</time>
      </trkpt>
      <trkpt lat="46.17957" lon="6.30124">
        <ele>495.6</ele>
        <time>2021-04-03T11:44:32Z</time>
      </trkpt>
      <trkpt lat="46.17956" lon="6.30129">
        <ele>495.8</ele>
        <time>2021-04-03T11:44:33Z</time>
      </trkpt>
      <trkpt lat="46.17955" lon="6.30134">
        <ele>495.6</ele>
        <time>2021-04-03T11:44:34Z</time>
      </trkpt>
      <trkpt lat="46.17955" lon="6.3014">
        <ele>495.8</ele>
        <time>2021-04-03T11:44:35Z</time>
      </trkpt>
      <trkpt lat="46.17955" lon="6.30145">
        <ele>495.8</ele>
        <time>2021-04-03T11:44:36Z</time>
      </trkpt>
      <trkpt lat="46.17957" lon="6.30151">
        <ele>495.8</ele>
        <time>2021-04-03T11:44:37Z</time>
      </trkpt>
      <trkpt lat="46.17958" lon="6.30157">
        <ele>496</ele>
        <time>2021-04-03T11:44:38Z</time>
      </trkpt>
      <trkpt lat="46.1796" lon="6.30163">
        <ele>496.4</ele>
        <time>2021-04-03T11:44:39Z</time>
      </trkpt>
      <trkpt lat="46.17961" lon="6.30169">
        <ele>497</ele>
        <time>2021-04-03T11:44:40Z</time>
      </trkpt>
      <trkpt lat="46.17963" lon="6.30175">
        <ele>497</ele>
        <time>2021-04-03T11:44:41Z</time>
      </trkpt>
      <trkpt lat="46.17964" lon="6.30181">
        <ele>497.2</ele>
        <time>2021-04-03T11:44:42Z</time>
      </trkpt>
      <trkpt lat="46.17965" lon="6.30188">
        <ele>497.4</ele>
        <time>2021-04-03T11:44:43Z</time>
      </trkpt>
      <trkpt lat="46.17966" lon="6.30194">
        <ele>497.4</ele>
        <time>2021-04-03T11:44:44Z</time>
      </trkpt>
      <trkpt lat="46.17967" lon="6.30201">
        <ele>497.6</ele>
        <time>2021-04-03T11:44:45Z</time>
      </trkpt>
      <trkpt lat="46.1797" lon="6.30206">
        <ele>497.4</ele>
        <time>2021-04-03T11:44:46Z</time>
      </trkpt>
      <trkpt lat="46.17973" lon="6.30212">
        <ele>497.6</ele>
        <time>2021-04-03T11:44:47Z</time>
      </trkpt>
      <trkpt lat="46.17976" lon="6.30216">
        <ele>497.8</ele>
        <time>2021-04-03T11:44:48Z</time>
      </trkpt>
      <trkpt lat="46.1798" lon="6.3022">
        <ele>497.8</ele>
        <time>2021-04-03T11:44:49Z</time>
      </trkpt>
      <trkpt lat="46.17984" lon="6.30223">
        <ele>497.8</ele>
        <time>2021-04-03T11:44:50Z</time>
      </trkpt>
      <trkpt lat="46.17988" lon="6.30225">
        <ele>498</ele>
        <time>2021-04-03T11:44:51Z</time>
      </trkpt>
      <trkpt lat="46.17992" lon="6.30227">
        <ele>498</ele>
        <time>2021-04-03T11:44:52Z</time>
      </trkpt>
      <trkpt lat="46.17996" lon="6.30229">
        <ele>498</ele>
        <time>2021-04-03T11:44:53Z</time>
      </trkpt>
      <trkpt lat="46.17999" lon="6.30231">
        <ele>498.2</ele>
        <time>2021-04-03T11:44:54Z</time>
      </trkpt>
      <trkpt lat="46.18002" lon="6.30232">
        <ele>498.2</ele>
        <time>2021-04-03T11:44:55Z</time>
      </trkpt>
      <trkpt lat="46.18004" lon="6.30234">
        <ele>498.2</ele>
        <time>2021-04-03T11:44:56Z</time>
      </trkpt>
      <trkpt lat="46.18007" lon="6.30235">
        <ele>498.2</ele>
        <time>2021-04-03T11:44:57Z</time>
      </trkpt>
      <trkpt lat="46.18009" lon="6.30237">
        <ele>498.2</ele>
        <time>2021-04-03T11:44:58Z</time>
      </trkpt>
      <trkpt lat="46.18012" lon="6.3024">
        <ele>498.4</ele>
        <time>2021-04-03T11:44:59Z</time>
      </trkpt>
      <trkpt lat="46.18014" lon="6.30242">
        <ele>498.6</ele>
        <time>2021-04-03T11:45:00Z</time>
      </trkpt>
      <trkpt lat="46.18017" lon="6.30245">
        <ele>498.8</ele>
        <time>2021-04-03T11:45:01Z</time>
      </trkpt>
      <trkpt lat="46.18019" lon="6.30248">
        <ele>498.8</ele>
        <time>2021-04-03T11:45:02Z</time>
      </trkpt>
      <trkpt lat="46.18021" lon="6.30251">
        <ele>498.8</ele>
        <time>2021-04-03T11:45:03Z</time>
      </trkpt>
      <trkpt lat="46.18024" lon="6.30254">
        <ele>498.8</ele>
        <time>2021-04-03T11:45:04Z</time>
      </trkpt>
      <trkpt lat="46.18026" lon="6.30257">
        <ele>499</ele>
        <time>2021-04-03T11:45:05Z</time>
      </trkpt>
      <trkpt lat="46.18029" lon="6.3026">
        <ele>499</ele>
        <time>2021-04-03T11:45:06Z</time>
      </trkpt>
      <trkpt lat="46.18032" lon="6.30263">
        <ele>499</ele>
        <time>2021-04-03T11:45:07Z</time>
      </trkpt>
      <trkpt lat="46.18035" lon="6.30266">
        <ele>499.2</ele>
        <time>2021-04-03T11:45:08Z</time>
      </trkpt>
      <trkpt lat="46.18037" lon="6.30269">
        <ele>499.2</ele>
        <time>2021-04-03T11:45:09Z</time>
      </trkpt>
      <trkpt lat="46.1804" lon="6.30273">
        <ele>499.4</ele>
        <time>2021-04-03T11:45:10Z</time>
      </trkpt>
      <trkpt lat="46.18042" lon="6.30277">
        <ele>499.4</ele>
        <time>2021-04-03T11:45:11Z</time>
      </trkpt>
      <trkpt lat="46.18045" lon="6.3028">
        <ele>499.4</ele>
        <time>2021-04-03T11:45:12Z</time>
      </trkpt>
      <trkpt lat="46.18047" lon="6.30284">
        <ele>499.4</ele>
        <time>2021-04-03T11:45:13Z</time>
      </trkpt>
      <trkpt lat="46.1805" lon="6.30287">
        <ele>499.4</ele>
        <time>2021-04-03T11:45:14Z</time>
      </trkpt>
      <trkpt lat="46.18052" lon="6.30291">
        <ele>499.6</ele>
        <time>2021-04-03T11:45:15Z</time>
      </trkpt>
      <trkpt lat="46.18055" lon="6.30295">
        <ele>500.2</ele>
        <time>2021-04-03T11:45:16Z</time>
      </trkpt>
      <trkpt lat="46.18057" lon="6.30299">
        <ele>500.6</ele>
        <time>2021-04-03T11:45:17Z</time>
      </trkpt>
      <trkpt lat="46.1806" lon="6.30302">
        <ele>501</ele>
        <time>2021-04-03T11:45:18Z</time>
      </trkpt>
      <trkpt lat="46.18062" lon="6.30306">
        <ele>501.6</ele>
        <time>2021-04-03T11:45:19Z</time>
      </trkpt>
      <trkpt lat="46.18064" lon="6.3031">
        <ele>501.8</ele>
        <time>2021-04-03T11:45:20Z</time>
      </trkpt>
      <trkpt lat="46.18067" lon="6.30314">
        <ele>502</ele>
        <time>2021-04-03T11:45:21Z</time>
      </trkpt>
      <trkpt lat="46.18069" lon="6.30318">
        <ele>502</ele>
        <time>2021-04-03T11:45:22Z</time>
      </trkpt>
      <trkpt lat="46.18071" lon="6.30322">
        <ele>502.2</ele>
        <time>2021-04-03T11:45:23Z</time>
      </trkpt>
      <trkpt lat="46.18073" lon="6.30325">
        <ele>502.2</ele>
        <time>2021-04-03T11:45:24Z</time>
      </trkpt>
      <trkpt lat="46.18075" lon="6.30329">
        <ele>502.2</ele>
        <time>2021-04-03T11:45:25Z</time>
      </trkpt>
      <trkpt lat="46.18077" lon="6.30332">
        <ele>502.4</ele>
        <time>2021-04-03T11:45:26Z</time>
      </trkpt>
      <trkpt lat="46.18079" lon="6.30335">
        <ele>502.8</ele>
        <time>2021-04-03T11:45:27Z</time>
      </trkpt>
      <trkpt lat="46.18081" lon="6.30339">
        <ele>503</ele>
        <time>2021-04-03T11:45:28Z</time>
      </trkpt>
      <trkpt lat="46.18083" lon="6.30343">
        <ele>503.4</ele>
        <time>2021-04-03T11:45:29Z</time>
      </trkpt>
      <trkpt lat="46.18086" lon="6.30346">
        <ele>503.6</ele>
        <time>2021-04-03T11:45:30Z</time>
      </trkpt>
      <trkpt lat="46.18088" lon="6.3035">
        <ele>503.8</ele>
        <time>2021-04-03T11:45:31Z</time>
      </trkpt>
      <trkpt lat="46.18091" lon="6.30353">
        <ele>504</ele>
        <time>2021-04-03T11:45:32Z</time>
      </trkpt>
      <trkpt lat="46.18093" lon="6.30357">
        <ele>504.4</ele>
        <time>2021-04-03T11:45:33Z</time>
      </trkpt>
      <trkpt lat="46.18095" lon="6.3036">
        <ele>504.6</ele>
        <time>2021-04-03T11:45:34Z</time>
      </trkpt>
      <trkpt lat="46.18098" lon="6.30364">
        <ele>505</ele>
        <time>2021-04-03T11:45:35Z</time>
      </trkpt>
      <trkpt lat="46.18101" lon="6.30368">
        <ele>505</ele>
        <time>2021-04-03T11:45:36Z</time>
      </trkpt>
      <trkpt lat="46.18103" lon="6.30371">
        <ele>505.2</ele>
        <time>2021-04-03T11:45:37Z</time>
      </trkpt>
      <trkpt lat="46.18106" lon="6.30375">
        <ele>505.2</ele>
        <time>2021-04-03T11:45:38Z</time>
      </trkpt>
      <trkpt lat="46.18109" lon="6.30379">
        <ele>505.2</ele>
        <time>2021-04-03T11:45:39Z</time>
      </trkpt>
      <trkpt lat="46.18112" lon="6.30383">
        <ele>505.4</ele>
        <time>2021-04-03T11:45:40Z</time>
      </trkpt>
      <trkpt lat="46.18115" lon="6.30387">
        <ele>505.4</ele>
        <time>2021-04-03T11:45:41Z</time>
      </trkpt>
      <trkpt lat="46.18118" lon="6.30391">
        <ele>505.4</ele>
        <time>2021-04-03T11:45:42Z</time>
      </trkpt>
      <trkpt lat="46.1812" lon="6.30395">
        <ele>505.4</ele>
        <time>2021-04-03T11:45:43Z</time>
      </trkpt>
      <trkpt lat="46.18123" lon="6.30399">
        <ele>505.4</ele>
        <time>2021-04-03T11:45:44Z</time>
      </trkpt>
      <trkpt lat="46.18126" lon="6.30403">
        <ele>505.4</ele>
        <time>2021-04-03T11:45:45Z</time>
      </trkpt>
      <trkpt lat="46.18128" lon="6.30407">
        <ele>505.4</ele>
        <time>2021-04-03T11:45:46Z</time>
      </trkpt>
      <trkpt lat="46.18131" lon="6.30412">
        <ele>505.4</ele>
        <time>2021-04-03T11:45:47Z</time>
      </trkpt>
      <trkpt lat="46.18134" lon="6.30416">
        <ele>505.4</ele>
        <time>2021-04-03T11:45:48Z</time>
      </trkpt>
      <trkpt lat="46.18137" lon="6.3042">
        <ele>505.4</ele>
        <time>2021-04-03T11:45:49Z</time>
      </trkpt>
      <trkpt lat="46.1814" lon="6.30424">
        <ele>505.6</ele>
        <time>2021-04-03T11:45:50Z</time>
      </trkpt>
      <trkpt lat="46.18143" lon="6.30429">
        <ele>505.6</ele>
        <time>2021-04-03T11:45:51Z</time>
      </trkpt>
      <trkpt lat="46.18146" lon="6.30433">
        <ele>505.8</ele>
        <time>2021-04-03T11:45:52Z</time>
      </trkpt>
      <trkpt lat="46.18149" lon="6.30437">
        <ele>505.8</ele>
        <time>2021-04-03T11:45:53Z</time>
      </trkpt>
      <trkpt lat="46.18151" lon="6.30441">
        <ele>506</ele>
        <time>2021-04-03T11:45:54Z</time>
      </trkpt>
      <trkpt lat="46.18154" lon="6.30445">
        <ele>506.2</ele>
        <time>2021-04-03T11:45:55Z</time>
      </trkpt>
      <trkpt lat="46.18157" lon="6.30449">
        <ele>506.2</ele>
        <time>2021-04-03T11:45:56Z</time>
      </trkpt>
      <trkpt lat="46.1816" lon="6.30453">
        <ele>506.4</ele>
        <time>2021-04-03T11:45:57Z</time>
      </trkpt>
      <trkpt lat="46.18162" lon="6.30457">
        <ele>506.4</ele>
        <time>2021-04-03T11:45:58Z</time>
      </trkpt>
      <trkpt lat="46.18165" lon="6.30461">
        <ele>506.4</ele>
        <time>2021-04-03T11:45:59Z</time>
      </trkpt>
      <trkpt lat="46.18168" lon="6.30464">
        <ele>506.4</ele>
        <time>2021-04-03T11:46:00Z</time>
      </trkpt>
      <trkpt lat="46.1817" lon="6.30468">
        <ele>506.4</ele>
        <time>2021-04-03T11:46:01Z</time>
      </trkpt>
      <trkpt lat="46.18172" lon="6.30472">
        <ele>506.6</ele>
        <time>2021-04-03T11:46:02Z</time>
      </trkpt>
      <trkpt lat="46.18174" lon="6.30475">
        <ele>506.8</ele>
        <time>2021-04-03T11:46:03Z</time>
      </trkpt>
      <trkpt lat="46.18176" lon="6.30479">
        <ele>506.8</ele>
        <time>2021-04-03T11:46:04Z</time>
      </trkpt>
      <trkpt lat="46.18178" lon="6.30483">
        <ele>506.8</ele>
        <time>2021-04-03T11:46:05Z</time>
      </trkpt>
      <trkpt lat="46.1818" lon="6.30487">
        <ele>506.8</ele>
        <time>2021-04-03T11:46:06Z</time>
      </trkpt>
      <trkpt lat="46.18182" lon="6.30491">
        <ele>507.2</ele>
        <time>2021-04-03T11:46:07Z</time>
      </trkpt>
      <trkpt lat="46.18184" lon="6.30495">
        <ele>507.4</ele>
        <time>2021-04-03T11:46:08Z</time>
      </trkpt>
      <trkpt lat="46.18185" lon="6.30499">
        <ele>507.6</ele>
        <time>2021-04-03T11:46:09Z</time>
      </trkpt>
      <trkpt lat="46.18187" lon="6.30503">
        <ele>508.2</ele>
        <time>2021-04-03T11:46:10Z</time>
      </trkpt>
      <trkpt lat="46.18188" lon="6.30507">
        <ele>508.6</ele>
        <time>2021-04-03T11:46:11Z</time>
      </trkpt>
      <trkpt lat="46.1819" lon="6.30511">
        <ele>508.6</ele>
        <time>2021-04-03T11:46:12Z</time>
      </trkpt>
      <trkpt lat="46.18191" lon="6.30515">
        <ele>508.8</ele>
        <time>2021-04-03T11:46:13Z</time>
      </trkpt>
      <trkpt lat="46.18192" lon="6.3052">
        <ele>509.2</ele>
        <time>2021-04-03T11:46:14Z</time>
      </trkpt>
      <trkpt lat="46.18194" lon="6.30524">
        <ele>509.4</ele>
        <time>2021-04-03T11:46:15Z</time>
      </trkpt>
      <trkpt lat="46.18195" lon="6.30528">
        <ele>509.8</ele>
        <time>2021-04-03T11:46:16Z</time>
      </trkpt>
      <trkpt lat="46.18196" lon="6.30533">
        <ele>510.2</ele>
        <time>2021-04-03T11:46:17Z</time>
      </trkpt>
      <trkpt lat="46.18198" lon="6.30537">
        <ele>510.4</ele>
        <time>2021-04-03T11:46:18Z</time>
      </trkpt>
      <trkpt lat="46.18199" lon="6.30541">
        <ele>510.6</ele>
        <time>2021-04-03T11:46:19Z</time>
      </trkpt>
      <trkpt lat="46.182" lon="6.30545">
        <ele>510.8</ele>
        <time>2021-04-03T11:46:20Z</time>
      </trkpt>
      <trkpt lat="46.18201" lon="6.30549">
        <ele>511</ele>
        <time>2021-04-03T11:46:21Z</time>
      </trkpt>
      <trkpt lat="46.18202" lon="6.30553">
        <ele>511.4</ele>
        <time>2021-04-03T11:46:22Z</time>
      </trkpt>
      <trkpt lat="46.18204" lon="6.30557">
        <ele>511.6</ele>
        <time>2021-04-03T11:46:23Z</time>
      </trkpt>
      <trkpt lat="46.18205" lon="6.30561">
        <ele>512</ele>
        <time>2021-04-03T11:46:24Z</time>
      </trkpt>
      <trkpt lat="46.18206" lon="6.30566">
        <ele>512</ele>
        <time>2021-04-03T11:46:25Z</time>
      </trkpt>
      <trkpt lat="46.18207" lon="6.3057">
        <ele>512.2</ele>
        <time>2021-04-03T11:46:26Z</time>
      </trkpt>
      <trkpt lat="46.18208" lon="6.30574">
        <ele>512.4</ele>
        <time>2021-04-03T11:46:27Z</time>
      </trkpt>
      <trkpt lat="46.18208" lon="6.30579">
        <ele>512.4</ele>
        <time>2021-04-03T11:46:28Z</time>
      </trkpt>
      <trkpt lat="46.18209" lon="6.30585">
        <ele>512.4</ele>
        <time>2021-04-03T11:46:29Z</time>
      </trkpt>
      <trkpt lat="46.18209" lon="6.30591">
        <ele>512.6</ele>
        <time>2021-04-03T11:46:30Z</time>
      </trkpt>
      <trkpt lat="46.1821" lon="6.30596">
        <ele>512.8</ele>
        <time>2021-04-03T11:46:31Z</time>
      </trkpt>
      <trkpt lat="46.18212" lon="6.30601">
        <ele>512.8</ele>
        <time>2021-04-03T11:46:32Z</time>
      </trkpt>
      <trkpt lat="46.18215" lon="6.30604">
        <ele>513</ele>
        <time>2021-04-03T11:46:33Z</time>
      </trkpt>
      <trkpt lat="46.18219" lon="6.30606">
        <ele>513</ele>
        <time>2021-04-03T11:46:34Z</time>
      </trkpt>
      <trkpt lat="46.18223" lon="6.30603">
        <ele>513.2</ele>
        <time>2021-04-03T11:46:35Z</time>
      </trkpt>
      <trkpt lat="46.18226" lon="6.30599">
        <ele>513.2</ele>
        <time>2021-04-03T11:46:36Z</time>
      </trkpt>
      <trkpt lat="46.18229" lon="6.30593">
        <ele>513.2</ele>
        <time>2021-04-03T11:46:37Z</time>
      </trkpt>
      <trkpt lat="46.18231" lon="6.30587">
        <ele>513.2</ele>
        <time>2021-04-03T11:46:38Z</time>
      </trkpt>
      <trkpt lat="46.18234" lon="6.3058">
        <ele>513.4</ele>
        <time>2021-04-03T11:46:39Z</time>
      </trkpt>
      <trkpt lat="46.18237" lon="6.30574">
        <ele>513.2</ele>
        <time>2021-04-03T11:46:40Z</time>
      </trkpt>
      <trkpt lat="46.18241" lon="6.30567">
        <ele>513.2</ele>
        <time>2021-04-03T11:46:41Z</time>
      </trkpt>
      <trkpt lat="46.18244" lon="6.30561">
        <ele>513.2</ele>
        <time>2021-04-03T11:46:42Z</time>
      </trkpt>
      <trkpt lat="46.18249" lon="6.30556">
        <ele>513.2</ele>
        <time>2021-04-03T11:46:43Z</time>
      </trkpt>
      <trkpt lat="46.18253" lon="6.30551">
        <ele>513.2</ele>
        <time>2021-04-03T11:46:44Z</time>
      </trkpt>
      <trkpt lat="46.18257" lon="6.30547">
        <ele>513.2</ele>
        <time>2021-04-03T11:46:45Z</time>
      </trkpt>
      <trkpt lat="46.18261" lon="6.30542">
        <ele>513.4</ele>
        <time>2021-04-03T11:46:46Z</time>
      </trkpt>
      <trkpt lat="46.18265" lon="6.30537">
        <ele>513.2</ele>
        <time>2021-04-03T11:46:47Z</time>
      </trkpt>
      <trkpt lat="46.18269" lon="6.30532">
        <ele>513</ele>
        <time>2021-04-03T11:46:48Z</time>
      </trkpt>
      <trkpt lat="46.18273" lon="6.30527">
        <ele>513</ele>
        <time>2021-04-03T11:46:49Z</time>
      </trkpt>
      <trkpt lat="46.18277" lon="6.30521">
        <ele>512.4</ele>
        <time>2021-04-03T11:46:50Z</time>
      </trkpt>
      <trkpt lat="46.18282" lon="6.30516">
        <ele>512</ele>
        <time>2021-04-03T11:46:51Z</time>
      </trkpt>
      <trkpt lat="46.18286" lon="6.3051">
        <ele>511.4</ele>
        <time>2021-04-03T11:46:52Z</time>
      </trkpt>
      <trkpt lat="46.18291" lon="6.30505">
        <ele>510.8</ele>
        <time>2021-04-03T11:46:53Z</time>
      </trkpt>
      <trkpt lat="46.18296" lon="6.30501">
        <ele>509.8</ele>
        <time>2021-04-03T11:46:54Z</time>
      </trkpt>
      <trkpt lat="46.18301" lon="6.30498">
        <ele>509.4</ele>
        <time>2021-04-03T11:46:55Z</time>
      </trkpt>
      <trkpt lat="46.18306" lon="6.30496">
        <ele>509</ele>
        <time>2021-04-03T11:46:56Z</time>
      </trkpt>
      <trkpt lat="46.18311" lon="6.30494">
        <ele>509</ele>
        <time>2021-04-03T11:46:57Z</time>
      </trkpt>
      <trkpt lat="46.18316" lon="6.30493">
        <ele>509</ele>
        <time>2021-04-03T11:46:58Z</time>
      </trkpt>
      <trkpt lat="46.18322" lon="6.30491">
        <ele>509</ele>
        <time>2021-04-03T11:46:59Z</time>
      </trkpt>
      <trkpt lat="46.18326" lon="6.3049">
        <ele>508.8</ele>
        <time>2021-04-03T11:47:00Z</time>
      </trkpt>
      <trkpt lat="46.18331" lon="6.3049">
        <ele>508.8</ele>
        <time>2021-04-03T11:47:01Z</time>
      </trkpt>
      <trkpt lat="46.18335" lon="6.30489">
        <ele>509</ele>
        <time>2021-04-03T11:47:02Z</time>
      </trkpt>
      <trkpt lat="46.18339" lon="6.30489">
        <ele>509</ele>
        <time>2021-04-03T11:47:03Z</time>
      </trkpt>
      <trkpt lat="46.18342" lon="6.30489">
        <ele>509</ele>
        <time>2021-04-03T11:47:04Z</time>
      </trkpt>
      <trkpt lat="46.18346" lon="6.30489">
        <ele>509.6</ele>
        <time>2021-04-03T11:47:05Z</time>
      </trkpt>
      <trkpt lat="46.18349" lon="6.30489">
        <ele>510</ele>
        <time>2021-04-03T11:47:06Z</time>
      </trkpt>
      <trkpt lat="46.18352" lon="6.30489">
        <ele>510.2</ele>
        <time>2021-04-03T11:47:07Z</time>
      </trkpt>
      <trkpt lat="46.18356" lon="6.30489">
        <ele>510.2</ele>
        <time>2021-04-03T11:47:08Z</time>
      </trkpt>
      <trkpt lat="46.1836" lon="6.30488">
        <ele>510.6</ele>
        <time>2021-04-03T11:47:09Z</time>
      </trkpt>
      <trkpt lat="46.18363" lon="6.30488">
        <ele>511</ele>
        <time>2021-04-03T11:47:10Z</time>
      </trkpt>
      <trkpt lat="46.18367" lon="6.30488">
        <ele>511.6</ele>
        <time>2021-04-03T11:47:11Z</time>
      </trkpt>
      <trkpt lat="46.1837" lon="6.30488">
        <ele>512.4</ele>
        <time>2021-04-03T11:47:12Z</time>
      </trkpt>
      <trkpt lat="46.18374" lon="6.30488">
        <ele>513</ele>
        <time>2021-04-03T11:47:13Z</time>
      </trkpt>
      <trkpt lat="46.18377" lon="6.30488">
        <ele>513.4</ele>
        <time>2021-04-03T11:47:14Z</time>
      </trkpt>
      <trkpt lat="46.1838" lon="6.30488">
        <ele>513.8</ele>
        <time>2021-04-03T11:47:15Z</time>
      </trkpt>
      <trkpt lat="46.18383" lon="6.30488">
        <ele>514.2</ele>
        <time>2021-04-03T11:47:16Z</time>
      </trkpt>
      <trkpt lat="46.18387" lon="6.30487">
        <ele>514.4</ele>
        <time>2021-04-03T11:47:17Z</time>
      </trkpt>
      <trkpt lat="46.1839" lon="6.30487">
        <ele>514.8</ele>
        <time>2021-04-03T11:47:18Z</time>
      </trkpt>
      <trkpt lat="46.18393" lon="6.30486">
        <ele>515</ele>
        <time>2021-04-03T11:47:19Z</time>
      </trkpt>
      <trkpt lat="46.18397" lon="6.30486">
        <ele>515.2</ele>
        <time>2021-04-03T11:47:20Z</time>
      </trkpt>
      <trkpt lat="46.184" lon="6.30485">
        <ele>515.4</ele>
        <time>2021-04-03T11:47:21Z</time>
      </trkpt>
      <trkpt lat="46.18403" lon="6.30484">
        <ele>515.8</ele>
        <time>2021-04-03T11:47:22Z</time>
      </trkpt>
      <trkpt lat="46.18406" lon="6.30483">
        <ele>516.2</ele>
        <time>2021-04-03T11:47:23Z</time>
      </trkpt>
      <trkpt lat="46.18409" lon="6.30481">
        <ele>516.2</ele>
        <time>2021-04-03T11:47:24Z</time>
      </trkpt>
      <trkpt lat="46.18412" lon="6.3048">
        <ele>516.4</ele>
        <time>2021-04-03T11:47:25Z</time>
      </trkpt>
      <trkpt lat="46.18415" lon="6.30479">
        <ele>516.8</ele>
        <time>2021-04-03T11:47:26Z</time>
      </trkpt>
      <trkpt lat="46.18418" lon="6.30477">
        <ele>516.8</ele>
        <time>2021-04-03T11:47:27Z</time>
      </trkpt>
      <trkpt lat="46.18421" lon="6.30475">
        <ele>517</ele>
        <time>2021-04-03T11:47:28Z</time>
      </trkpt>
      <trkpt lat="46.18423" lon="6.30473">
        <ele>517.4</ele>
        <time>2021-04-03T11:47:29Z</time>
      </trkpt>
      <trkpt lat="46.18426" lon="6.3047">
        <ele>517.6</ele>
        <time>2021-04-03T11:47:30Z</time>
      </trkpt>
      <trkpt lat="46.18429" lon="6.30468">
        <ele>517.6</ele>
        <time>2021-04-03T11:47:31Z</time>
      </trkpt>
      <trkpt lat="46.18431" lon="6.30465">
        <ele>517.6</ele>
        <time>2021-04-03T11:47:32Z</time>
      </trkpt>
      <trkpt lat="46.18434" lon="6.30462">
        <ele>517.8</ele>
        <time>2021-04-03T11:47:33Z</time>
      </trkpt>
      <trkpt lat="46.18437" lon="6.30459">
        <ele>517.8</ele>
        <time>2021-04-03T11:47:34Z</time>
      </trkpt>
      <trkpt lat="46.1844" lon="6.30457">
        <ele>518</ele>
        <time>2021-04-03T11:47:35Z</time>
      </trkpt>
      <trkpt lat="46.18442" lon="6.30454">
        <ele>518.2</ele>
        <time>2021-04-03T11:47:36Z</time>
      </trkpt>
      <trkpt lat="46.18445" lon="6.30451">
        <ele>518.2</ele>
        <time>2021-04-03T11:47:37Z</time>
      </trkpt>
      <trkpt lat="46.18448" lon="6.30449">
        <ele>518.4</ele>
        <time>2021-04-03T11:47:38Z</time>
      </trkpt>
      <trkpt lat="46.18451" lon="6.30446">
        <ele>518.4</ele>
        <time>2021-04-03T11:47:39Z</time>
      </trkpt>
      <trkpt lat="46.18454" lon="6.30444">
        <ele>518.6</ele>
        <time>2021-04-03T11:47:40Z</time>
      </trkpt>
      <trkpt lat="46.18457" lon="6.30441">
        <ele>518.6</ele>
        <time>2021-04-03T11:47:41Z</time>
      </trkpt>
      <trkpt lat="46.1846" lon="6.30438">
        <ele>519</ele>
        <time>2021-04-03T11:47:42Z</time>
      </trkpt>
      <trkpt lat="46.18463" lon="6.30436">
        <ele>519.4</ele>
        <time>2021-04-03T11:47:43Z</time>
      </trkpt>
      <trkpt lat="46.18466" lon="6.30432">
        <ele>519.6</ele>
        <time>2021-04-03T11:47:44Z</time>
      </trkpt>
      <trkpt lat="46.18469" lon="6.30429">
        <ele>519.8</ele>
        <time>2021-04-03T11:47:45Z</time>
      </trkpt>
      <trkpt lat="46.18471" lon="6.30427">
        <ele>520</ele>
        <time>2021-04-03T11:47:46Z</time>
      </trkpt>
      <trkpt lat="46.18474" lon="6.30424">
        <ele>520.4</ele>
        <time>2021-04-03T11:47:47Z</time>
      </trkpt>
      <trkpt lat="46.18477" lon="6.30422">
        <ele>520.8</ele>
        <time>2021-04-03T11:47:48Z</time>
      </trkpt>
      <trkpt lat="46.1848" lon="6.30419">
        <ele>521.4</ele>
        <time>2021-04-03T11:47:49Z</time>
      </trkpt>
      <trkpt lat="46.18483" lon="6.30416">
        <ele>521.6</ele>
        <time>2021-04-03T11:47:50Z</time>
      </trkpt>
      <trkpt lat="46.18486" lon="6.30414">
        <ele>521.8</ele>
        <time>2021-04-03T11:47:51Z</time>
      </trkpt>
      <trkpt lat="46.18488" lon="6.30411">
        <ele>521.6</ele>
        <time>2021-04-03T11:47:52Z</time>
      </trkpt>
      <trkpt lat="46.18491" lon="6.30409">
        <ele>522</ele>
        <time>2021-04-03T11:47:53Z</time>
      </trkpt>
      <trkpt lat="46.18494" lon="6.30406">
        <ele>522.2</ele>
        <time>2021-04-03T11:47:54Z</time>
      </trkpt>
      <trkpt lat="46.18497" lon="6.30403">
        <ele>522.4</ele>
        <time>2021-04-03T11:47:55Z</time>
      </trkpt>
      <trkpt lat="46.185" lon="6.304">
        <ele>522.6</ele>
        <time>2021-04-03T11:47:56Z</time>
      </trkpt>
      <trkpt lat="46.18503" lon="6.30398">
        <ele>523</ele>
        <time>2021-04-03T11:47:57Z</time>
      </trkpt>
      <trkpt lat="46.18506" lon="6.30395">
        <ele>523</ele>
        <time>2021-04-03T11:47:58Z</time>
      </trkpt>
      <trkpt lat="46.18509" lon="6.30393">
        <ele>523.2</ele>
        <time>2021-04-03T11:47:59Z</time>
      </trkpt>
      <trkpt lat="46.18512" lon="6.3039">
        <ele>523.4</ele>
        <time>2021-04-03T11:48:00Z</time>
      </trkpt>
      <trkpt lat="46.18515" lon="6.30388">
        <ele>524</ele>
        <time>2021-04-03T11:48:01Z</time>
      </trkpt>
      <trkpt lat="46.18518" lon="6.30385">
        <ele>524.2</ele>
        <time>2021-04-03T11:48:02Z</time>
      </trkpt>
      <trkpt lat="46.18521" lon="6.30383">
        <ele>524.6</ele>
        <time>2021-04-03T11:48:03Z</time>
      </trkpt>
      <trkpt lat="46.18524" lon="6.30381">
        <ele>524.8</ele>
        <time>2021-04-03T11:48:04Z</time>
      </trkpt>
      <trkpt lat="46.18527" lon="6.30378">
        <ele>524.8</ele>
        <time>2021-04-03T11:48:05Z</time>
      </trkpt>
      <trkpt lat="46.1853" lon="6.30376">
        <ele>525</ele>
        <time>2021-04-03T11:48:06Z</time>
      </trkpt>
      <trkpt lat="46.18533" lon="6.30374">
        <ele>525.2</ele>
        <time>2021-04-03T11:48:07Z</time>
      </trkpt>
      <trkpt lat="46.18536" lon="6.30371">
        <ele>525.2</ele>
        <time>2021-04-03T11:48:08Z</time>
      </trkpt>
      <trkpt lat="46.18539" lon="6.30369">
        <ele>525.2</ele>
        <time>2021-04-03T11:48:09Z</time>
      </trkpt>
      <trkpt lat="46.18542" lon="6.30367">
        <ele>525.4</ele>
        <time>2021-04-03T11:48:10Z</time>
      </trkpt>
      <trkpt lat="46.18545" lon="6.30365">
        <ele>525.6</ele>
        <time>2021-04-03T11:48:11Z</time>
      </trkpt>
      <trkpt lat="46.18548" lon="6.30363">
        <ele>525.6</ele>
        <time>2021-04-03T11:48:12Z</time>
      </trkpt>
      <trkpt lat="46.18551" lon="6.30361">
        <ele>525.8</ele>
        <time>2021-04-03T11:48:13Z</time>
      </trkpt>
      <trkpt lat="46.18554" lon="6.30358">
        <ele>525.8</ele>
        <time>2021-04-03T11:48:14Z</time>
      </trkpt>
      <trkpt lat="46.18557" lon="6.30355">
        <ele>526</ele>
        <time>2021-04-03T11:48:15Z</time>
      </trkpt>
      <trkpt lat="46.18561" lon="6.30352">
        <ele>526</ele>
        <time>2021-04-03T11:48:16Z</time>
      </trkpt>
      <trkpt lat="46.18565" lon="6.3035">
        <ele>526.2</ele>
        <time>2021-04-03T11:48:17Z</time>
      </trkpt>
      <trkpt lat="46.18569" lon="6.30347">
        <ele>526.2</ele>
        <time>2021-04-03T11:48:18Z</time>
      </trkpt>
      <trkpt lat="46.18573" lon="6.30344">
        <ele>526.4</ele>
        <time>2021-04-03T11:48:19Z</time>
      </trkpt>
      <trkpt lat="46.18577" lon="6.30341">
        <ele>526.4</ele>
        <time>2021-04-03T11:48:20Z</time>
      </trkpt>
      <trkpt lat="46.18581" lon="6.30338">
        <ele>526.4</ele>
        <time>2021-04-03T11:48:21Z</time>
      </trkpt>
      <trkpt lat="46.18585" lon="6.30336">
        <ele>526.6</ele>
        <time>2021-04-03T11:48:22Z</time>
      </trkpt>
      <trkpt lat="46.18589" lon="6.30333">
        <ele>526.6</ele>
        <time>2021-04-03T11:48:23Z</time>
      </trkpt>
      <trkpt lat="46.18593" lon="6.3033">
        <ele>526.6</ele>
        <time>2021-04-03T11:48:24Z</time>
      </trkpt>
      <trkpt lat="46.18597" lon="6.30328">
        <ele>526.8</ele>
        <time>2021-04-03T11:48:25Z</time>
      </trkpt>
      <trkpt lat="46.18601" lon="6.30326">
        <ele>526.8</ele>
        <time>2021-04-03T11:48:26Z</time>
      </trkpt>
      <trkpt lat="46.18605" lon="6.30324">
        <ele>527</ele>
        <time>2021-04-03T11:48:27Z</time>
      </trkpt>
      <trkpt lat="46.18608" lon="6.30322">
        <ele>527</ele>
        <time>2021-04-03T11:48:28Z</time>
      </trkpt>
      <trkpt lat="46.18612" lon="6.3032">
        <ele>527.2</ele>
        <time>2021-04-03T11:48:29Z</time>
      </trkpt>
      <trkpt lat="46.18615" lon="6.30319">
        <ele>527.4</ele>
        <time>2021-04-03T11:48:30Z</time>
      </trkpt>
      <trkpt lat="46.18619" lon="6.30317">
        <ele>527.4</ele>
        <time>2021-04-03T11:48:31Z</time>
      </trkpt>
      <trkpt lat="46.18622" lon="6.30316">
        <ele>527.8</ele>
        <time>2021-04-03T11:48:32Z</time>
      </trkpt>
      <trkpt lat="46.18626" lon="6.30315">
        <ele>528</ele>
        <time>2021-04-03T11:48:33Z</time>
      </trkpt>
      <trkpt lat="46.1863" lon="6.30313">
        <ele>528.2</ele>
        <time>2021-04-03T11:48:34Z</time>
      </trkpt>
      <trkpt lat="46.18633" lon="6.30312">
        <ele>528.2</ele>
        <time>2021-04-03T11:48:35Z</time>
      </trkpt>
      <trkpt lat="46.18637" lon="6.30311">
        <ele>528.6</ele>
        <time>2021-04-03T11:48:36Z</time>
      </trkpt>
      <trkpt lat="46.1864" lon="6.3031">
        <ele>528.8</ele>
        <time>2021-04-03T11:48:37Z</time>
      </trkpt>
      <trkpt lat="46.18643" lon="6.30309">
        <ele>529</ele>
        <time>2021-04-03T11:48:38Z</time>
      </trkpt>
      <trkpt lat="46.18647" lon="6.30307">
        <ele>529.2</ele>
        <time>2021-04-03T11:48:39Z</time>
      </trkpt>
      <trkpt lat="46.18651" lon="6.30306">
        <ele>529.4</ele>
        <time>2021-04-03T11:48:40Z</time>
      </trkpt>
      <trkpt lat="46.18654" lon="6.30305">
        <ele>529.8</ele>
        <time>2021-04-03T11:48:41Z</time>
      </trkpt>
      <trkpt lat="46.18657" lon="6.30304">
        <ele>530</ele>
        <time>2021-04-03T11:48:42Z</time>
      </trkpt>
      <trkpt lat="46.18661" lon="6.30302">
        <ele>530.4</ele>
        <time>2021-04-03T11:48:43Z</time>
      </trkpt>
      <trkpt lat="46.18664" lon="6.30301">
        <ele>530.6</ele>
        <time>2021-04-03T11:48:44Z</time>
      </trkpt>
      <trkpt lat="46.18668" lon="6.303">
        <ele>530.6</ele>
        <time>2021-04-03T11:48:45Z</time>
      </trkpt>
      <trkpt lat="46.18671" lon="6.30299">
        <ele>530.6</ele>
        <time>2021-04-03T11:48:46Z</time>
      </trkpt>
      <trkpt lat="46.18674" lon="6.30297">
        <ele>531</ele>
        <time>2021-04-03T11:48:47Z</time>
      </trkpt>
      <trkpt lat="46.18678" lon="6.30296">
        <ele>531</ele>
        <time>2021-04-03T11:48:48Z</time>
      </trkpt>
      <trkpt lat="46.18681" lon="6.30295">
        <ele>531.2</ele>
        <time>2021-04-03T11:48:49Z</time>
      </trkpt>
      <trkpt lat="46.18685" lon="6.30293">
        <ele>531.6</ele>
        <time>2021-04-03T11:48:50Z</time>
      </trkpt>
      <trkpt lat="46.18688" lon="6.30292">
        <ele>531.8</ele>
        <time>2021-04-03T11:48:51Z</time>
      </trkpt>
      <trkpt lat="46.18692" lon="6.3029">
        <ele>532</ele>
        <time>2021-04-03T11:48:52Z</time>
      </trkpt>
      <trkpt lat="46.18695" lon="6.30288">
        <ele>532.2</ele>
        <time>2021-04-03T11:48:53Z</time>
      </trkpt>
      <trkpt lat="46.18699" lon="6.30287">
        <ele>532.8</ele>
        <time>2021-04-03T11:48:54Z</time>
      </trkpt>
      <trkpt lat="46.18702" lon="6.30285">
        <ele>533</ele>
        <time>2021-04-03T11:48:55Z</time>
      </trkpt>
      <trkpt lat="46.18705" lon="6.30283">
        <ele>533.2</ele>
        <time>2021-04-03T11:48:56Z</time>
      </trkpt>
      <trkpt lat="46.18708" lon="6.30281">
        <ele>533.4</ele>
        <time>2021-04-03T11:48:57Z</time>
      </trkpt>
      <trkpt lat="46.18711" lon="6.30279">
        <ele>533.8</ele>
        <time>2021-04-03T11:48:58Z</time>
      </trkpt>
      <trkpt lat="46.18715" lon="6.30277">
        <ele>533.8</ele>
        <time>2021-04-03T11:48:59Z</time>
      </trkpt>
      <trkpt lat="46.18718" lon="6.30275">
        <ele>534</ele>
        <time>2021-04-03T11:49:00Z</time>
      </trkpt>
      <trkpt lat="46.18721" lon="6.30273">
        <ele>534.4</ele>
        <time>2021-04-03T11:49:01Z</time>
      </trkpt>
      <trkpt lat="46.18725" lon="6.30271">
        <ele>534.4</ele>
        <time>2021-04-03T11:49:02Z</time>
      </trkpt>
      <trkpt lat="46.18728" lon="6.30269">
        <ele>534.4</ele>
        <time>2021-04-03T11:49:03Z</time>
      </trkpt>
      <trkpt lat="46.18731" lon="6.30267">
        <ele>534.6</ele>
        <time>2021-04-03T11:49:04Z</time>
      </trkpt>
      <trkpt lat="46.18734" lon="6.30265">
        <ele>534.6</ele>
        <time>2021-04-03T11:49:05Z</time>
      </trkpt>
      <trkpt lat="46.18737" lon="6.30262">
        <ele>534.8</ele>
        <time>2021-04-03T11:49:06Z</time>
      </trkpt>
      <trkpt lat="46.1874" lon="6.3026">
        <ele>534.8</ele>
        <time>2021-04-03T11:49:07Z</time>
      </trkpt>
      <trkpt lat="46.18744" lon="6.30258">
        <ele>535</ele>
        <time>2021-04-03T11:49:08Z</time>
      </trkpt>
      <trkpt lat="46.18747" lon="6.30256">
        <ele>535.4</ele>
        <time>2021-04-03T11:49:09Z</time>
      </trkpt>
      <trkpt lat="46.1875" lon="6.30253">
        <ele>535.6</ele>
        <time>2021-04-03T11:49:10Z</time>
      </trkpt>
      <trkpt lat="46.18753" lon="6.30251">
        <ele>535.8</ele>
        <time>2021-04-03T11:49:11Z</time>
      </trkpt>
      <trkpt lat="46.18756" lon="6.30249">
        <ele>535.8</ele>
        <time>2021-04-03T11:49:12Z</time>
      </trkpt>
      <trkpt lat="46.18759" lon="6.30247">
        <ele>536</ele>
        <time>2021-04-03T11:49:13Z</time>
      </trkpt>
      <trkpt lat="46.18763" lon="6.30245">
        <ele>536</ele>
        <time>2021-04-03T11:49:14Z</time>
      </trkpt>
      <trkpt lat="46.18766" lon="6.30242">
        <ele>536.2</ele>
        <time>2021-04-03T11:49:15Z</time>
      </trkpt>
      <trkpt lat="46.18769" lon="6.3024">
        <ele>536.2</ele>
        <time>2021-04-03T11:49:16Z</time>
      </trkpt>
      <trkpt lat="46.18773" lon="6.30237">
        <ele>536.4</ele>
        <time>2021-04-03T11:49:17Z</time>
      </trkpt>
      <trkpt lat="46.18776" lon="6.30235">
        <ele>536.6</ele>
        <time>2021-04-03T11:49:18Z</time>
      </trkpt>
      <trkpt lat="46.18779" lon="6.30232">
        <ele>537</ele>
        <time>2021-04-03T11:49:19Z</time>
      </trkpt>
      <trkpt lat="46.18782" lon="6.30229">
        <ele>537.4</ele>
        <time>2021-04-03T11:49:20Z</time>
      </trkpt>
      <trkpt lat="46.18785" lon="6.30227">
        <ele>537.6</ele>
        <time>2021-04-03T11:49:21Z</time>
      </trkpt>
      <trkpt lat="46.18788" lon="6.30224">
        <ele>537.6</ele>
        <time>2021-04-03T11:49:22Z</time>
      </trkpt>
      <trkpt lat="46.18792" lon="6.30221">
        <ele>537.8</ele>
        <time>2021-04-03T11:49:23Z</time>
      </trkpt>
      <trkpt lat="46.18795" lon="6.30219">
        <ele>538.2</ele>
        <time>2021-04-03T11:49:24Z</time>
      </trkpt>
      <trkpt lat="46.18798" lon="6.30216">
        <ele>538.2</ele>
        <time>2021-04-03T11:49:25Z</time>
      </trkpt>
      <trkpt lat="46.18801" lon="6.30213">
        <ele>538.4</ele>
        <time>2021-04-03T11:49:26Z</time>
      </trkpt>
      <trkpt lat="46.18804" lon="6.30211">
        <ele>538.4</ele>
        <time>2021-04-03T11:49:27Z</time>
      </trkpt>
      <trkpt lat="46.18807" lon="6.30208">
        <ele>538.8</ele>
        <time>2021-04-03T11:49:28Z</time>
      </trkpt>
      <trkpt lat="46.1881" lon="6.30205">
        <ele>539</ele>
        <time>2021-04-03T11:49:29Z</time>
      </trkpt>
      <trkpt lat="46.18813" lon="6.30203">
        <ele>539.4</ele>
        <time>2021-04-03T11:49:30Z</time>
      </trkpt>
      <trkpt lat="46.18816" lon="6.302">
        <ele>539.8</ele>
        <time>2021-04-03T11:49:31Z</time>
      </trkpt>
      <trkpt lat="46.18818" lon="6.30197">
        <ele>540.2</ele>
        <time>2021-04-03T11:49:32Z</time>
      </trkpt>
      <trkpt lat="46.18821" lon="6.30194">
        <ele>540.4</ele>
        <time>2021-04-03T11:49:33Z</time>
      </trkpt>
      <trkpt lat="46.18824" lon="6.30192">
        <ele>540.6</ele>
        <time>2021-04-03T11:49:34Z</time>
      </trkpt>
      <trkpt lat="46.18827" lon="6.30189">
        <ele>540.8</ele>
        <time>2021-04-03T11:49:35Z</time>
      </trkpt>
      <trkpt lat="46.1883" lon="6.30186">
        <ele>540.8</ele>
        <time>2021-04-03T11:49:36Z</time>
      </trkpt>
      <trkpt lat="46.18833" lon="6.30183">
        <ele>541</ele>
        <time>2021-04-03T11:49:37Z</time>
      </trkpt>
      <trkpt lat="46.18836" lon="6.30181">
        <ele>541.2</ele>
        <time>2021-04-03T11:49:38Z</time>
      </trkpt>
      <trkpt lat="46.18839" lon="6.30178">
        <ele>541.6</ele>
        <time>2021-04-03T11:49:39Z</time>
      </trkpt>
      <trkpt lat="46.18841" lon="6.30176">
        <ele>541.8</ele>
        <time>2021-04-03T11:49:40Z</time>
      </trkpt>
      <trkpt lat="46.18844" lon="6.30173">
        <ele>541.8</ele>
        <time>2021-04-03T11:49:41Z</time>
      </trkpt>
      <trkpt lat="46.18846" lon="6.3017">
        <ele>542.2</ele>
        <time>2021-04-03T11:49:42Z</time>
      </trkpt>
      <trkpt lat="46.18849" lon="6.30167">
        <ele>542.2</ele>
        <time>2021-04-03T11:49:43Z</time>
      </trkpt>
      <trkpt lat="46.18852" lon="6.30164">
        <ele>542.6</ele>
        <time>2021-04-03T11:49:44Z</time>
      </trkpt>
      <trkpt lat="46.18854" lon="6.30161">
        <ele>542.6</ele>
        <time>2021-04-03T11:49:45Z</time>
      </trkpt>
      <trkpt lat="46.18857" lon="6.30158">
        <ele>543</ele>
        <time>2021-04-03T11:49:46Z</time>
      </trkpt>
      <trkpt lat="46.18859" lon="6.30155">
        <ele>543</ele>
        <time>2021-04-03T11:49:47Z</time>
      </trkpt>
      <trkpt lat="46.18862" lon="6.30152">
        <ele>543</ele>
        <time>2021-04-03T11:49:48Z</time>
      </trkpt>
      <trkpt lat="46.18865" lon="6.30149">
        <ele>543.6</ele>
        <time>2021-04-03T11:49:49Z</time>
      </trkpt>
      <trkpt lat="46.18867" lon="6.30145">
        <ele>543.8</ele>
        <time>2021-04-03T11:49:50Z</time>
      </trkpt>
      <trkpt lat="46.1887" lon="6.30142">
        <ele>544.2</ele>
        <time>2021-04-03T11:49:51Z</time>
      </trkpt>
      <trkpt lat="46.18872" lon="6.30139">
        <ele>544.4</ele>
        <time>2021-04-03T11:49:52Z</time>
      </trkpt>
      <trkpt lat="46.18875" lon="6.30135">
        <ele>544.6</ele>
        <time>2021-04-03T11:49:53Z</time>
      </trkpt>
      <trkpt lat="46.18877" lon="6.30132">
        <ele>544.6</ele>
        <time>2021-04-03T11:49:54Z</time>
      </trkpt>
      <trkpt lat="46.1888" lon="6.30129">
        <ele>544.6</ele>
        <time>2021-04-03T11:49:55Z</time>
      </trkpt>
      <trkpt lat="46.18882" lon="6.30125">
        <ele>545</ele>
        <time>2021-04-03T11:49:56Z</time>
      </trkpt>
      <trkpt lat="46.18885" lon="6.30122">
        <ele>545.2</ele>
        <time>2021-04-03T11:49:57Z</time>
      </trkpt>
      <trkpt lat="46.18888" lon="6.30118">
        <ele>545.6</ele>
        <time>2021-04-03T11:49:58Z</time>
      </trkpt>
      <trkpt lat="46.1889" lon="6.30115">
        <ele>545.8</ele>
        <time>2021-04-03T11:49:59Z</time>
      </trkpt>
      <trkpt lat="46.18893" lon="6.30112">
        <ele>545.8</ele>
        <time>2021-04-03T11:50:00Z</time>
      </trkpt>
      <trkpt lat="46.18895" lon="6.30109">
        <ele>545.8</ele>
        <time>2021-04-03T11:50:01Z</time>
      </trkpt>
      <trkpt lat="46.18898" lon="6.30106">
        <ele>546.2</ele>
        <time>2021-04-03T11:50:02Z</time>
      </trkpt>
      <trkpt lat="46.189" lon="6.30103">
        <ele>546.2</ele>
        <time>2021-04-03T11:50:03Z</time>
      </trkpt>
      <trkpt lat="46.18903" lon="6.301">
        <ele>546.4</ele>
        <time>2021-04-03T11:50:04Z</time>
      </trkpt>
      <trkpt lat="46.18906" lon="6.30096">
        <ele>546.6</ele>
        <time>2021-04-03T11:50:05Z</time>
      </trkpt>
      <trkpt lat="46.18908" lon="6.30094">
        <ele>546.4</ele>
        <time>2021-04-03T11:50:06Z</time>
      </trkpt>
      <trkpt lat="46.18911" lon="6.30091">
        <ele>546.6</ele>
        <time>2021-04-03T11:50:07Z</time>
      </trkpt>
      <trkpt lat="46.18914" lon="6.30089">
        <ele>546.8</ele>
        <time>2021-04-03T11:50:08Z</time>
      </trkpt>
      <trkpt lat="46.18917" lon="6.30086">
        <ele>546.8</ele>
        <time>2021-04-03T11:50:09Z</time>
      </trkpt>
      <trkpt lat="46.1892" lon="6.30084">
        <ele>547</ele>
        <time>2021-04-03T11:50:10Z</time>
      </trkpt>
      <trkpt lat="46.18923" lon="6.30081">
        <ele>547.2</ele>
        <time>2021-04-03T11:50:11Z</time>
      </trkpt>
      <trkpt lat="46.18926" lon="6.30079">
        <ele>547.2</ele>
        <time>2021-04-03T11:50:12Z</time>
      </trkpt>
      <trkpt lat="46.18929" lon="6.30077">
        <ele>547.4</ele>
        <time>2021-04-03T11:50:13Z</time>
      </trkpt>
      <trkpt lat="46.18932" lon="6.30075">
        <ele>547.6</ele>
        <time>2021-04-03T11:50:14Z</time>
      </trkpt>
      <trkpt lat="46.18935" lon="6.30073">
        <ele>547.8</ele>
        <time>2021-04-03T11:50:15Z</time>
      </trkpt>
      <trkpt lat="46.18938" lon="6.30072">
        <ele>548.2</ele>
        <time>2021-04-03T11:50:16Z</time>
      </trkpt>
      <trkpt lat="46.18941" lon="6.3007">
        <ele>548.4</ele>
        <time>2021-04-03T11:50:17Z</time>
      </trkpt>
      <trkpt lat="46.18944" lon="6.30069">
        <ele>548.4</ele>
        <time>2021-04-03T11:50:18Z</time>
      </trkpt>
      <trkpt lat="46.18947" lon="6.30068">
        <ele>548.6</ele>
        <time>2021-04-03T11:50:19Z</time>
      </trkpt>
      <trkpt lat="46.1895" lon="6.30066">
        <ele>548.8</ele>
        <time>2021-04-03T11:50:20Z</time>
      </trkpt>
      <trkpt lat="46.18953" lon="6.30065">
        <ele>549</ele>
        <time>2021-04-03T11:50:21Z</time>
      </trkpt>
      <trkpt lat="46.18956" lon="6.30063">
        <ele>549</ele>
        <time>2021-04-03T11:50:22Z</time>
      </trkpt>
      <trkpt lat="46.18959" lon="6.30061">
        <ele>549.4</ele>
        <time>2021-04-03T11:50:23Z</time>
      </trkpt>
      <trkpt lat="46.18963" lon="6.3006">
        <ele>549.4</ele>
        <time>2021-04-03T11:50:24Z</time>
      </trkpt>
      <trkpt lat="46.18966" lon="6.30058">
        <ele>549.6</ele>
        <time>2021-04-03T11:50:25Z</time>
      </trkpt>
      <trkpt lat="46.1897" lon="6.30057">
        <ele>549.6</ele>
        <time>2021-04-03T11:50:26Z</time>
      </trkpt>
      <trkpt lat="46.18973" lon="6.30055">
        <ele>550</ele>
        <time>2021-04-03T11:50:27Z</time>
      </trkpt>
      <trkpt lat="46.18976" lon="6.30054">
        <ele>550.4</ele>
        <time>2021-04-03T11:50:28Z</time>
      </trkpt>
      <trkpt lat="46.18979" lon="6.30052">
        <ele>550.8</ele>
        <time>2021-04-03T11:50:29Z</time>
      </trkpt>
      <trkpt lat="46.18982" lon="6.30051">
        <ele>551</ele>
        <time>2021-04-03T11:50:30Z</time>
      </trkpt>
      <trkpt lat="46.18986" lon="6.3005">
        <ele>551.4</ele>
        <time>2021-04-03T11:50:31Z</time>
      </trkpt>
      <trkpt lat="46.18988" lon="6.30048">
        <ele>551.6</ele>
        <time>2021-04-03T11:50:32Z</time>
      </trkpt>
      <trkpt lat="46.18991" lon="6.30047">
        <ele>551.6</ele>
        <time>2021-04-03T11:50:33Z</time>
      </trkpt>
      <trkpt lat="46.18995" lon="6.30046">
        <ele>551.8</ele>
        <time>2021-04-03T11:50:34Z</time>
      </trkpt>
      <trkpt lat="46.18998" lon="6.30044">
        <ele>552</ele>
        <time>2021-04-03T11:50:35Z</time>
      </trkpt>
      <trkpt lat="46.19001" lon="6.30043">
        <ele>552.2</ele>
        <time>2021-04-03T11:50:36Z</time>
      </trkpt>
      <trkpt lat="46.19004" lon="6.30041">
        <ele>552</ele>
        <time>2021-04-03T11:50:37Z</time>
      </trkpt>
      <trkpt lat="46.19007" lon="6.3004">
        <ele>552</ele>
        <time>2021-04-03T11:50:38Z</time>
      </trkpt>
      <trkpt lat="46.1901" lon="6.30039">
        <ele>552.2</ele>
        <time>2021-04-03T11:50:39Z</time>
      </trkpt>
      <trkpt lat="46.19013" lon="6.30038">
        <ele>552.4</ele>
        <time>2021-04-03T11:50:40Z</time>
      </trkpt>
      <trkpt lat="46.19017" lon="6.30036">
        <ele>552.6</ele>
        <time>2021-04-03T11:50:41Z</time>
      </trkpt>
      <trkpt lat="46.1902" lon="6.30035">
        <ele>552.8</ele>
        <time>2021-04-03T11:50:42Z</time>
      </trkpt>
      <trkpt lat="46.19023" lon="6.30034">
        <ele>553</ele>
        <time>2021-04-03T11:50:43Z</time>
      </trkpt>
      <trkpt lat="46.19026" lon="6.30032">
        <ele>553</ele>
        <time>2021-04-03T11:50:44Z</time>
      </trkpt>
      <trkpt lat="46.19029" lon="6.30031">
        <ele>553.4</ele>
        <time>2021-04-03T11:50:45Z</time>
      </trkpt>
      <trkpt lat="46.19032" lon="6.30029">
        <ele>553.6</ele>
        <time>2021-04-03T11:50:46Z</time>
      </trkpt>
      <trkpt lat="46.19036" lon="6.30027">
        <ele>553.8</ele>
        <time>2021-04-03T11:50:47Z</time>
      </trkpt>
      <trkpt lat="46.19039" lon="6.30026">
        <ele>554.2</ele>
        <time>2021-04-03T11:50:48Z</time>
      </trkpt>
      <trkpt lat="46.19042" lon="6.30024">
        <ele>554.4</ele>
        <time>2021-04-03T11:50:49Z</time>
      </trkpt>
      <trkpt lat="46.19046" lon="6.30023">
        <ele>554.6</ele>
        <time>2021-04-03T11:50:50Z</time>
      </trkpt>
      <trkpt lat="46.19049" lon="6.30021">
        <ele>554.6</ele>
        <time>2021-04-03T11:50:51Z</time>
      </trkpt>
      <trkpt lat="46.19053" lon="6.3002">
        <ele>554.8</ele>
        <time>2021-04-03T11:50:52Z</time>
      </trkpt>
      <trkpt lat="46.19056" lon="6.30018">
        <ele>555</ele>
        <time>2021-04-03T11:50:53Z</time>
      </trkpt>
      <trkpt lat="46.19059" lon="6.30017">
        <ele>555</ele>
        <time>2021-04-03T11:50:54Z</time>
      </trkpt>
      <trkpt lat="46.19063" lon="6.30015">
        <ele>555</ele>
        <time>2021-04-03T11:50:55Z</time>
      </trkpt>
      <trkpt lat="46.19066" lon="6.30014">
        <ele>555.2</ele>
        <time>2021-04-03T11:50:56Z</time>
      </trkpt>
      <trkpt lat="46.19069" lon="6.30012">
        <ele>555.2</ele>
        <time>2021-04-03T11:50:57Z</time>
      </trkpt>
      <trkpt lat="46.19072" lon="6.30011">
        <ele>555.2</ele>
        <time>2021-04-03T11:50:58Z</time>
      </trkpt>
      <trkpt lat="46.19076" lon="6.3001">
        <ele>555.4</ele>
        <time>2021-04-03T11:50:59Z</time>
      </trkpt>
      <trkpt lat="46.19079" lon="6.30009">
        <ele>555.4</ele>
        <time>2021-04-03T11:51:00Z</time>
      </trkpt>
      <trkpt lat="46.19082" lon="6.30008">
        <ele>555.6</ele>
        <time>2021-04-03T11:51:01Z</time>
      </trkpt>
      <trkpt lat="46.19086" lon="6.30007">
        <ele>555.6</ele>
        <time>2021-04-03T11:51:02Z</time>
      </trkpt>
      <trkpt lat="46.19089" lon="6.30007">
        <ele>555.6</ele>
        <time>2021-04-03T11:51:03Z</time>
      </trkpt>
      <trkpt lat="46.19093" lon="6.30007">
        <ele>555.6</ele>
        <time>2021-04-03T11:51:04Z</time>
      </trkpt>
      <trkpt lat="46.19096" lon="6.30007">
        <ele>555.6</ele>
        <time>2021-04-03T11:51:05Z</time>
      </trkpt>
      <trkpt lat="46.191" lon="6.30007">
        <ele>555.8</ele>
        <time>2021-04-03T11:51:06Z</time>
      </trkpt>
      <trkpt lat="46.19104" lon="6.30008">
        <ele>555.8</ele>
        <time>2021-04-03T11:51:07Z</time>
      </trkpt>
      <trkpt lat="46.19107" lon="6.3001">
        <ele>556</ele>
        <time>2021-04-03T11:51:08Z</time>
      </trkpt>
      <trkpt lat="46.19111" lon="6.30011">
        <ele>556.2</ele>
        <time>2021-04-03T11:51:09Z</time>
      </trkpt>
      <trkpt lat="46.19114" lon="6.30014">
        <ele>556.4</ele>
        <time>2021-04-03T11:51:10Z</time>
      </trkpt>
      <trkpt lat="46.19117" lon="6.30016">
        <ele>556.4</ele>
        <time>2021-04-03T11:51:11Z</time>
      </trkpt>
      <trkpt lat="46.1912" lon="6.30019">
        <ele>556.8</ele>
        <time>2021-04-03T11:51:12Z</time>
      </trkpt>
      <trkpt lat="46.19123" lon="6.30022">
        <ele>556.8</ele>
        <time>2021-04-03T11:51:13Z</time>
      </trkpt>
      <trkpt lat="46.19126" lon="6.30025">
        <ele>557</ele>
        <time>2021-04-03T11:51:14Z</time>
      </trkpt>
      <trkpt lat="46.19129" lon="6.30028">
        <ele>557.4</ele>
        <time>2021-04-03T11:51:15Z</time>
      </trkpt>
      <trkpt lat="46.19132" lon="6.3003">
        <ele>557.4</ele>
        <time>2021-04-03T11:51:16Z</time>
      </trkpt>
      <trkpt lat="46.19135" lon="6.30033">
        <ele>557.4</ele>
        <time>2021-04-03T11:51:17Z</time>
      </trkpt>
      <trkpt lat="46.19139" lon="6.30036">
        <ele>557.6</ele>
        <time>2021-04-03T11:51:18Z</time>
      </trkpt>
      <trkpt lat="46.19142" lon="6.30039">
        <ele>557.4</ele>
        <time>2021-04-03T11:51:19Z</time>
      </trkpt>
      <trkpt lat="46.19146" lon="6.30041">
        <ele>557.6</ele>
        <time>2021-04-03T11:51:20Z</time>
      </trkpt>
      <trkpt lat="46.1915" lon="6.30042">
        <ele>557.6</ele>
        <time>2021-04-03T11:51:21Z</time>
      </trkpt>
      <trkpt lat="46.19154" lon="6.30044">
        <ele>557.6</ele>
        <time>2021-04-03T11:51:22Z</time>
      </trkpt>
      <trkpt lat="46.19158" lon="6.30044">
        <ele>557.6</ele>
        <time>2021-04-03T11:51:23Z</time>
      </trkpt>
      <trkpt lat="46.19162" lon="6.30044">
        <ele>557.8</ele>
        <time>2021-04-03T11:51:24Z</time>
      </trkpt>
      <trkpt lat="46.19166" lon="6.30044">
        <ele>557.6</ele>
        <time>2021-04-03T11:51:25Z</time>
      </trkpt>
      <trkpt lat="46.1917" lon="6.30043">
        <ele>557.6</ele>
        <time>2021-04-03T11:51:26Z</time>
      </trkpt>
      <trkpt lat="46.19173" lon="6.30042">
        <ele>557.6</ele>
        <time>2021-04-03T11:51:27Z</time>
      </trkpt>
      <trkpt lat="46.19176" lon="6.3004">
        <ele>557.6</ele>
        <time>2021-04-03T11:51:28Z</time>
      </trkpt>
      <trkpt lat="46.1918" lon="6.30038">
        <ele>557.8</ele>
        <time>2021-04-03T11:51:29Z</time>
      </trkpt>
      <trkpt lat="46.19183" lon="6.30036">
        <ele>557.8</ele>
        <time>2021-04-03T11:51:30Z</time>
      </trkpt>
      <trkpt lat="46.19186" lon="6.30033">
        <ele>557.8</ele>
        <time>2021-04-03T11:51:31Z</time>
      </trkpt>
      <trkpt lat="46.19189" lon="6.30031">
        <ele>557.8</ele>
        <time>2021-04-03T11:51:32Z</time>
      </trkpt>
      <trkpt lat="46.19191" lon="6.30028">
        <ele>557.8</ele>
        <time>2021-04-03T11:51:33Z</time>
      </trkpt>
      <trkpt lat="46.19194" lon="6.30026">
        <ele>558</ele>
        <time>2021-04-03T11:51:34Z</time>
      </trkpt>
      <trkpt lat="46.19197" lon="6.30024">
        <ele>558.2</ele>
        <time>2021-04-03T11:51:35Z</time>
      </trkpt>
      <trkpt lat="46.19201" lon="6.30021">
        <ele>558.2</ele>
        <time>2021-04-03T11:51:36Z</time>
      </trkpt>
      <trkpt lat="46.19204" lon="6.30018">
        <ele>558.4</ele>
        <time>2021-04-03T11:51:37Z</time>
      </trkpt>
      <trkpt lat="46.19207" lon="6.30016">
        <ele>558.4</ele>
        <time>2021-04-03T11:51:38Z</time>
      </trkpt>
      <trkpt lat="46.19211" lon="6.30014">
        <ele>558.4</ele>
        <time>2021-04-03T11:51:39Z</time>
      </trkpt>
      <trkpt lat="46.19215" lon="6.30012">
        <ele>558.6</ele>
        <time>2021-04-03T11:51:40Z</time>
      </trkpt>
      <trkpt lat="46.19218" lon="6.3001">
        <ele>558.8</ele>
        <time>2021-04-03T11:51:41Z</time>
      </trkpt>
      <trkpt lat="46.19222" lon="6.30009">
        <ele>558.8</ele>
        <time>2021-04-03T11:51:42Z</time>
      </trkpt>
      <trkpt lat="46.19225" lon="6.30008">
        <ele>559</ele>
        <time>2021-04-03T11:51:43Z</time>
      </trkpt>
      <trkpt lat="46.19229" lon="6.30007">
        <ele>559</ele>
        <time>2021-04-03T11:51:44Z</time>
      </trkpt>
      <trkpt lat="46.19233" lon="6.30005">
        <ele>559.2</ele>
        <time>2021-04-03T11:51:45Z</time>
      </trkpt>
      <trkpt lat="46.19237" lon="6.30004">
        <ele>559.4</ele>
        <time>2021-04-03T11:51:46Z</time>
      </trkpt>
      <trkpt lat="46.19241" lon="6.30003">
        <ele>559.4</ele>
        <time>2021-04-03T11:51:47Z</time>
      </trkpt>
      <trkpt lat="46.19245" lon="6.30003">
        <ele>559.4</ele>
        <time>2021-04-03T11:51:48Z</time>
      </trkpt>
      <trkpt lat="46.19248" lon="6.30002">
        <ele>559.6</ele>
        <time>2021-04-03T11:51:49Z</time>
      </trkpt>
      <trkpt lat="46.19252" lon="6.30002">
        <ele>559.6</ele>
        <time>2021-04-03T11:51:50Z</time>
      </trkpt>
      <trkpt lat="46.19255" lon="6.30002">
        <ele>559.6</ele>
        <time>2021-04-03T11:51:51Z</time>
      </trkpt>
      <trkpt lat="46.19259" lon="6.30002">
        <ele>559.6</ele>
        <time>2021-04-03T11:51:52Z</time>
      </trkpt>
      <trkpt lat="46.19262" lon="6.30001">
        <ele>559.8</ele>
        <time>2021-04-03T11:51:53Z</time>
      </trkpt>
      <trkpt lat="46.19266" lon="6.30001">
        <ele>559.6</ele>
        <time>2021-04-03T11:51:54Z</time>
      </trkpt>
      <trkpt lat="46.1927" lon="6.3">
        <ele>559.8</ele>
        <time>2021-04-03T11:51:55Z</time>
      </trkpt>
      <trkpt lat="46.19273" lon="6.3">
        <ele>559.8</ele>
        <time>2021-04-03T11:51:56Z</time>
      </trkpt>
      <trkpt lat="46.19277" lon="6.29999">
        <ele>560</ele>
        <time>2021-04-03T11:51:57Z</time>
      </trkpt>
      <trkpt lat="46.19281" lon="6.29998">
        <ele>560.2</ele>
        <time>2021-04-03T11:51:58Z</time>
      </trkpt>
      <trkpt lat="46.19284" lon="6.29997">
        <ele>560.2</ele>
        <time>2021-04-03T11:51:59Z</time>
      </trkpt>
      <trkpt lat="46.19288" lon="6.29997">
        <ele>560.4</ele>
        <time>2021-04-03T11:52:00Z</time>
      </trkpt>
      <trkpt lat="46.19292" lon="6.29996">
        <ele>560.4</ele>
        <time>2021-04-03T11:52:01Z</time>
      </trkpt>
      <trkpt lat="46.19295" lon="6.29996">
        <ele>560.6</ele>
        <time>2021-04-03T11:52:02Z</time>
      </trkpt>
      <trkpt lat="46.19299" lon="6.29995">
        <ele>560.6</ele>
        <time>2021-04-03T11:52:03Z</time>
      </trkpt>
      <trkpt lat="46.19303" lon="6.29995">
        <ele>560.6</ele>
        <time>2021-04-03T11:52:04Z</time>
      </trkpt>
      <trkpt lat="46.19306" lon="6.29995">
        <ele>560.6</ele>
        <time>2021-04-03T11:52:05Z</time>
      </trkpt>
      <trkpt lat="46.1931" lon="6.29994">
        <ele>560.8</ele>
        <time>2021-04-03T11:52:06Z</time>
      </trkpt>
      <trkpt lat="46.19313" lon="6.29994">
        <ele>561.2</ele>
        <time>2021-04-03T11:52:07Z</time>
      </trkpt>
      <trkpt lat="46.19317" lon="6.29993">
        <ele>561.4</ele>
        <time>2021-04-03T11:52:08Z</time>
      </trkpt>
      <trkpt lat="46.1932" lon="6.29993">
        <ele>561.8</ele>
        <time>2021-04-03T11:52:09Z</time>
      </trkpt>
      <trkpt lat="46.19324" lon="6.29992">
        <ele>561.8</ele>
        <time>2021-04-03T11:52:10Z</time>
      </trkpt>
      <trkpt lat="46.19327" lon="6.29991">
        <ele>562.2</ele>
        <time>2021-04-03T11:52:11Z</time>
      </trkpt>
      <trkpt lat="46.19331" lon="6.29991">
        <ele>562.2</ele>
        <time>2021-04-03T11:52:12Z</time>
      </trkpt>
      <trkpt lat="46.19335" lon="6.2999">
        <ele>562.2</ele>
        <time>2021-04-03T11:52:13Z</time>
      </trkpt>
      <trkpt lat="46.19338" lon="6.29989">
        <ele>562.4</ele>
        <time>2021-04-03T11:52:14Z</time>
      </trkpt>
      <trkpt lat="46.19341" lon="6.29988">
        <ele>562.6</ele>
        <time>2021-04-03T11:52:15Z</time>
      </trkpt>
      <trkpt lat="46.19344" lon="6.29987">
        <ele>563</ele>
        <time>2021-04-03T11:52:16Z</time>
      </trkpt>
      <trkpt lat="46.19348" lon="6.29985">
        <ele>563.2</ele>
        <time>2021-04-03T11:52:17Z</time>
      </trkpt>
      <trkpt lat="46.19351" lon="6.29984">
        <ele>563.2</ele>
        <time>2021-04-03T11:52:18Z</time>
      </trkpt>
      <trkpt lat="46.19354" lon="6.29982">
        <ele>563.4</ele>
        <time>2021-04-03T11:52:19Z</time>
      </trkpt>
      <trkpt lat="46.19357" lon="6.29981">
        <ele>563.4</ele>
        <time>2021-04-03T11:52:20Z</time>
      </trkpt>
      <trkpt lat="46.1936" lon="6.29979">
        <ele>563.4</ele>
        <time>2021-04-03T11:52:21Z</time>
      </trkpt>
      <trkpt lat="46.19364" lon="6.29978">
        <ele>563.6</ele>
        <time>2021-04-03T11:52:22Z</time>
      </trkpt>
      <trkpt lat="46.19367" lon="6.29976">
        <ele>563.8</ele>
        <time>2021-04-03T11:52:23Z</time>
      </trkpt>
      <trkpt lat="46.1937" lon="6.29974">
        <ele>563.8</ele>
        <time>2021-04-03T11:52:24Z</time>
      </trkpt>
      <trkpt lat="46.19373" lon="6.29973">
        <ele>564</ele>
        <time>2021-04-03T11:52:25Z</time>
      </trkpt>
      <trkpt lat="46.19376" lon="6.29971">
        <ele>564</ele>
        <time>2021-04-03T11:52:26Z</time>
      </trkpt>
      <trkpt lat="46.1938" lon="6.29969">
        <ele>564.2</ele>
        <time>2021-04-03T11:52:27Z</time>
      </trkpt>
      <trkpt lat="46.19383" lon="6.29967">
        <ele>564.4</ele>
        <time>2021-04-03T11:52:28Z</time>
      </trkpt>
      <trkpt lat="46.19386" lon="6.29965">
        <ele>564.4</ele>
        <time>2021-04-03T11:52:29Z</time>
      </trkpt>
      <trkpt lat="46.1939" lon="6.29963">
        <ele>564.6</ele>
        <time>2021-04-03T11:52:30Z</time>
      </trkpt>
      <trkpt lat="46.19393" lon="6.29961">
        <ele>564.8</ele>
        <time>2021-04-03T11:52:31Z</time>
      </trkpt>
      <trkpt lat="46.19397" lon="6.29959">
        <ele>565</ele>
        <time>2021-04-03T11:52:32Z</time>
      </trkpt>
      <trkpt lat="46.194" lon="6.29957">
        <ele>565.4</ele>
        <time>2021-04-03T11:52:33Z</time>
      </trkpt>
      <trkpt lat="46.19404" lon="6.29955">
        <ele>565.4</ele>
        <time>2021-04-03T11:52:34Z</time>
      </trkpt>
      <trkpt lat="46.19407" lon="6.29953">
        <ele>565.4</ele>
        <time>2021-04-03T11:52:35Z</time>
      </trkpt>
      <trkpt lat="46.1941" lon="6.29951">
        <ele>565.4</ele>
        <time>2021-04-03T11:52:36Z</time>
      </trkpt>
      <trkpt lat="46.19414" lon="6.29948">
        <ele>565.4</ele>
        <time>2021-04-03T11:52:37Z</time>
      </trkpt>
      <trkpt lat="46.19417" lon="6.29946">
        <ele>565.6</ele>
        <time>2021-04-03T11:52:38Z</time>
      </trkpt>
      <trkpt lat="46.19421" lon="6.29944">
        <ele>565.6</ele>
        <time>2021-04-03T11:52:39Z</time>
      </trkpt>
      <trkpt lat="46.19424" lon="6.29941">
        <ele>565.8</ele>
        <time>2021-04-03T11:52:40Z</time>
      </trkpt>
      <trkpt lat="46.19428" lon="6.29939">
        <ele>565.8</ele>
        <time>2021-04-03T11:52:41Z</time>
      </trkpt>
      <trkpt lat="46.19431" lon="6.29937">
        <ele>565.8</ele>
        <time>2021-04-03T11:52:42Z</time>
      </trkpt>
      <trkpt lat="46.19435" lon="6.29934">
        <ele>565.8</ele>
        <time>2021-04-03T11:52:43Z</time>
      </trkpt>
      <trkpt lat="46.19438" lon="6.29931">
        <ele>566</ele>
        <time>2021-04-03T11:52:44Z</time>
      </trkpt>
      <trkpt lat="46.19442" lon="6.29929">
        <ele>566</ele>
        <time>2021-04-03T11:52:45Z</time>
      </trkpt>
      <trkpt lat="46.19445" lon="6.29926">
        <ele>566.2</ele>
        <time>2021-04-03T11:52:46Z</time>
      </trkpt>
      <trkpt lat="46.19449" lon="6.29924">
        <ele>566.4</ele>
        <time>2021-04-03T11:52:47Z</time>
      </trkpt>
      <trkpt lat="46.19452" lon="6.29922">
        <ele>566.6</ele>
        <time>2021-04-03T11:52:48Z</time>
      </trkpt>
      <trkpt lat="46.19455" lon="6.29919">
        <ele>566.8</ele>
        <time>2021-04-03T11:52:49Z</time>
      </trkpt>
      <trkpt lat="46.19459" lon="6.29917">
        <ele>566.6</ele>
        <time>2021-04-03T11:52:50Z</time>
      </trkpt>
      <trkpt lat="46.19462" lon="6.29915">
        <ele>566.8</ele>
        <time>2021-04-03T11:52:51Z</time>
      </trkpt>
      <trkpt lat="46.19466" lon="6.29913">
        <ele>567</ele>
        <time>2021-04-03T11:52:52Z</time>
      </trkpt>
      <trkpt lat="46.1947" lon="6.2991">
        <ele>567</ele>
        <time>2021-04-03T11:52:53Z</time>
      </trkpt>
      <trkpt lat="46.19473" lon="6.29908">
        <ele>567.2</ele>
        <time>2021-04-03T11:52:54Z</time>
      </trkpt>
      <trkpt lat="46.19477" lon="6.29905">
        <ele>567.4</ele>
        <time>2021-04-03T11:52:55Z</time>
      </trkpt>
      <trkpt lat="46.1948" lon="6.29903">
        <ele>567.4</ele>
        <time>2021-04-03T11:52:56Z</time>
      </trkpt>
      <trkpt lat="46.19484" lon="6.29901">
        <ele>567.6</ele>
        <time>2021-04-03T11:52:57Z</time>
      </trkpt>
      <trkpt lat="46.19488" lon="6.29899">
        <ele>568</ele>
        <time>2021-04-03T11:52:58Z</time>
      </trkpt>
      <trkpt lat="46.19492" lon="6.29896">
        <ele>568</ele>
        <time>2021-04-03T11:52:59Z</time>
      </trkpt>
      <trkpt lat="46.19496" lon="6.29894">
        <ele>568</ele>
        <time>2021-04-03T11:53:00Z</time>
      </trkpt>
      <trkpt lat="46.19499" lon="6.29892">
        <ele>568.2</ele>
        <time>2021-04-03T11:53:01Z</time>
      </trkpt>
      <trkpt lat="46.19503" lon="6.2989">
        <ele>568.2</ele>
        <time>2021-04-03T11:53:02Z</time>
      </trkpt>
      <trkpt lat="46.19507" lon="6.29888">
        <ele>568.6</ele>
        <time>2021-04-03T11:53:03Z</time>
      </trkpt>
      <trkpt lat="46.19511" lon="6.29886">
        <ele>568.8</ele>
        <time>2021-04-03T11:53:04Z</time>
      </trkpt>
      <trkpt lat="46.19515" lon="6.29884">
        <ele>568.8</ele>
        <time>2021-04-03T11:53:05Z</time>
      </trkpt>
      <trkpt lat="46.19519" lon="6.29882">
        <ele>569</ele>
        <time>2021-04-03T11:53:06Z</time>
      </trkpt>
      <trkpt lat="46.19523" lon="6.29881">
        <ele>569.2</ele>
        <time>2021-04-03T11:53:07Z</time>
      </trkpt>
      <trkpt lat="46.19527" lon="6.2988">
        <ele>569.2</ele>
        <time>2021-04-03T11:53:08Z</time>
      </trkpt>
      <trkpt lat="46.19531" lon="6.29879">
        <ele>569.2</ele>
        <time>2021-04-03T11:53:09Z</time>
      </trkpt>
      <trkpt lat="46.19535" lon="6.29878">
        <ele>569.2</ele>
        <time>2021-04-03T11:53:10Z</time>
      </trkpt>
      <trkpt lat="46.19539" lon="6.29877">
        <ele>569.2</ele>
        <time>2021-04-03T11:53:11Z</time>
      </trkpt>
      <trkpt lat="46.19543" lon="6.29877">
        <ele>569.2</ele>
        <time>2021-04-03T11:53:12Z</time>
      </trkpt>
      <trkpt lat="46.19546" lon="6.29876">
        <ele>569.2</ele>
        <time>2021-04-03T11:53:13Z</time>
      </trkpt>
      <trkpt lat="46.1955" lon="6.29875">
        <ele>569.2</ele>
        <time>2021-04-03T11:53:14Z</time>
      </trkpt>
      <trkpt lat="46.19554" lon="6.29874">
        <ele>569.4</ele>
        <time>2021-04-03T11:53:15Z</time>
      </trkpt>
      <trkpt lat="46.19558" lon="6.29874">
        <ele>569.4</ele>
        <time>2021-04-03T11:53:16Z</time>
      </trkpt>
      <trkpt lat="46.19562" lon="6.29873">
        <ele>569.4</ele>
        <time>2021-04-03T11:53:17Z</time>
      </trkpt>
      <trkpt lat="46.19567" lon="6.29872">
        <ele>569.4</ele>
        <time>2021-04-03T11:53:18Z</time>
      </trkpt>
      <trkpt lat="46.19571" lon="6.29872">
        <ele>569.4</ele>
        <time>2021-04-03T11:53:19Z</time>
      </trkpt>
      <trkpt lat="46.19575" lon="6.29871">
        <ele>569.4</ele>
        <time>2021-04-03T11:53:20Z</time>
      </trkpt>
      <trkpt lat="46.19578" lon="6.2987">
        <ele>569.4</ele>
        <time>2021-04-03T11:53:21Z</time>
      </trkpt>
      <trkpt lat="46.19582" lon="6.29869">
        <ele>570</ele>
        <time>2021-04-03T11:53:22Z</time>
      </trkpt>
      <trkpt lat="46.19586" lon="6.29868">
        <ele>570.2</ele>
        <time>2021-04-03T11:53:23Z</time>
      </trkpt>
      <trkpt lat="46.19589" lon="6.29867">
        <ele>570.4</ele>
        <time>2021-04-03T11:53:24Z</time>
      </trkpt>
      <trkpt lat="46.19593" lon="6.29866">
        <ele>570.6</ele>
        <time>2021-04-03T11:53:25Z</time>
      </trkpt>
      <trkpt lat="46.19596" lon="6.29865">
        <ele>570.6</ele>
        <time>2021-04-03T11:53:26Z</time>
      </trkpt>
      <trkpt lat="46.196" lon="6.29865">
        <ele>570.8</ele>
        <time>2021-04-03T11:53:27Z</time>
      </trkpt>
      <trkpt lat="46.19603" lon="6.29864">
        <ele>571</ele>
        <time>2021-04-03T11:53:28Z</time>
      </trkpt>
      <trkpt lat="46.19607" lon="6.29863">
        <ele>571</ele>
        <time>2021-04-03T11:53:29Z</time>
      </trkpt>
      <trkpt lat="46.1961" lon="6.29861">
        <ele>571</ele>
        <time>2021-04-03T11:53:30Z</time>
      </trkpt>
      <trkpt lat="46.19613" lon="6.2986">
        <ele>571</ele>
        <time>2021-04-03T11:53:31Z</time>
      </trkpt>
      <trkpt lat="46.19616" lon="6.29858">
        <ele>570.8</ele>
        <time>2021-04-03T11:53:32Z</time>
      </trkpt>
      <trkpt lat="46.19619" lon="6.29856">
        <ele>571</ele>
        <time>2021-04-03T11:53:33Z</time>
      </trkpt>
      <trkpt lat="46.19621" lon="6.29854">
        <ele>571</ele>
        <time>2021-04-03T11:53:34Z</time>
      </trkpt>
      <trkpt lat="46.19624" lon="6.29852">
        <ele>571.2</ele>
        <time>2021-04-03T11:53:35Z</time>
      </trkpt>
      <trkpt lat="46.19627" lon="6.29849">
        <ele>571.4</ele>
        <time>2021-04-03T11:53:36Z</time>
      </trkpt>
      <trkpt lat="46.1963" lon="6.29846">
        <ele>571.6</ele>
        <time>2021-04-03T11:53:37Z</time>
      </trkpt>
      <trkpt lat="46.19633" lon="6.29843">
        <ele>571.8</ele>
        <time>2021-04-03T11:53:38Z</time>
      </trkpt>
      <trkpt lat="46.19636" lon="6.2984">
        <ele>572.4</ele>
        <time>2021-04-03T11:53:39Z</time>
      </trkpt>
      <trkpt lat="46.19639" lon="6.29837">
        <ele>572.4</ele>
        <time>2021-04-03T11:53:40Z</time>
      </trkpt>
      <trkpt lat="46.19641" lon="6.29835">
        <ele>572.8</ele>
        <time>2021-04-03T11:53:41Z</time>
      </trkpt>
      <trkpt lat="46.19644" lon="6.29832">
        <ele>572.8</ele>
        <time>2021-04-03T11:53:42Z</time>
      </trkpt>
      <trkpt lat="46.19647" lon="6.29829">
        <ele>573.2</ele>
        <time>2021-04-03T11:53:43Z</time>
      </trkpt>
      <trkpt lat="46.1965" lon="6.29825">
        <ele>573.4</ele>
        <time>2021-04-03T11:53:44Z</time>
      </trkpt>
      <trkpt lat="46.19654" lon="6.29822">
        <ele>573.6</ele>
        <time>2021-04-03T11:53:45Z</time>
      </trkpt>
      <trkpt lat="46.19657" lon="6.29819">
        <ele>573.6</ele>
        <time>2021-04-03T11:53:46Z</time>
      </trkpt>
      <trkpt lat="46.1966" lon="6.29816">
        <ele>574.4</ele>
        <time>2021-04-03T11:53:47Z</time>
      </trkpt>
      <trkpt lat="46.19663" lon="6.29813">
        <ele>575.2</ele>
        <time>2021-04-03T11:53:48Z</time>
      </trkpt>
      <trkpt lat="46.19667" lon="6.2981">
        <ele>575.8</ele>
        <time>2021-04-03T11:53:49Z</time>
      </trkpt>
      <trkpt lat="46.1967" lon="6.29807">
        <ele>575.8</ele>
        <time>2021-04-03T11:53:50Z</time>
      </trkpt>
      <trkpt lat="46.19673" lon="6.29803">
        <ele>576</ele>
        <time>2021-04-03T11:53:51Z</time>
      </trkpt>
      <trkpt lat="46.19675" lon="6.298">
        <ele>576.6</ele>
        <time>2021-04-03T11:53:52Z</time>
      </trkpt>
      <trkpt lat="46.19677" lon="6.29796">
        <ele>577</ele>
        <time>2021-04-03T11:53:53Z</time>
      </trkpt>
      <trkpt lat="46.19679" lon="6.29792">
        <ele>577.2</ele>
        <time>2021-04-03T11:53:54Z</time>
      </trkpt>
      <trkpt lat="46.19681" lon="6.29789">
        <ele>577.2</ele>
        <time>2021-04-03T11:53:55Z</time>
      </trkpt>
      <trkpt lat="46.19683" lon="6.29785">
        <ele>577.4</ele>
        <time>2021-04-03T11:53:56Z</time>
      </trkpt>
      <trkpt lat="46.19685" lon="6.2978">
        <ele>577.4</ele>
        <time>2021-04-03T11:53:57Z</time>
      </trkpt>
      <trkpt lat="46.19687" lon="6.29776">
        <ele>577.6</ele>
        <time>2021-04-03T11:53:58Z</time>
      </trkpt>
      <trkpt lat="46.19689" lon="6.29772">
        <ele>577.6</ele>
        <time>2021-04-03T11:53:59Z</time>
      </trkpt>
      <trkpt lat="46.1969" lon="6.2977">
        <ele>577.6</ele>
        <time>2021-04-03T11:54:00Z</time>
      </trkpt>
      <trkpt lat="46.19691" lon="6.29767">
        <ele>577.6</ele>
        <time>2021-04-03T11:54:01Z</time>
      </trkpt>
      <trkpt lat="46.19691" lon="6.29766">
        <ele>577.8</ele>
        <time>2021-04-03T11:54:02Z</time>
      </trkpt>
      <trkpt lat="46.19691" lon="6.29765">
        <ele>577.8</ele>
        <time>2021-04-03T11:54:03Z</time>
      </trkpt>
      <trkpt lat="46.19691" lon="6.29765">
        <ele>577.6</ele>
        <time>2021-04-03T11:54:04Z</time>
      </trkpt>
      <trkpt lat="46.19691" lon="6.29765">
        <ele>577.6</ele>
        <time>2021-04-03T11:54:05Z</time>
      </trkpt>
      <trkpt lat="46.19691" lon="6.29765">
        <ele>577.6</ele>
        <time>2021-04-03T11:54:06Z</time>
      </trkpt>
      <trkpt lat="46.19691" lon="6.29765">
        <ele>577.4</ele>
        <time>2021-04-03T11:54:07Z</time>
      </trkpt>
      <trkpt lat="46.19691" lon="6.29765">
        <ele>577.4</ele>
        <time>2021-04-03T11:54:08Z</time>
      </trkpt>
      <trkpt lat="46.19691" lon="6.29765">
        <ele>577.4</ele>
        <time>2021-04-03T11:54:10Z</time>
      </trkpt>
      <trkpt lat="46.19691" lon="6.29765">
        <ele>577.4</ele>
        <time>2021-04-03T11:54:17Z</time>
      </trkpt>
      <trkpt lat="46.19691" lon="6.29765">
        <ele>577.4</ele>
        <time>2021-04-03T11:54:19Z</time>
      </trkpt>
      <trkpt lat="46.19691" lon="6.29765">
        <ele>577.2</ele>
        <time>2021-04-03T11:54:20Z</time>
      </trkpt>
      <trkpt lat="46.19691" lon="6.29765">
        <ele>577.2</ele>
        <time>2021-04-03T11:54:28Z</time>
      </trkpt>
      <trkpt lat="46.19691" lon="6.29765">
        <ele>577.2</ele>
        <time>2021-04-03T11:54:32Z</time>
      </trkpt>
      <trkpt lat="46.19691" lon="6.29765">
        <ele>577.2</ele>
        <time>2021-04-03T11:54:34Z</time>
      </trkpt>
      <trkpt lat="46.19691" lon="6.29765">
        <ele>577.2</ele>
        <time>2021-04-03T11:54:37Z</time>
      </trkpt>
      <trkpt lat="46.19691" lon="6.29765">
        <ele>577.4</ele>
        <time>2021-04-03T11:54:38Z</time>
      </trkpt>
      <trkpt lat="46.1969" lon="6.29763">
        <ele>577.4</ele>
        <time>2021-04-03T11:54:39Z</time>
      </trkpt>
      <trkpt lat="46.19689" lon="6.2976">
        <ele>577.4</ele>
        <time>2021-04-03T11:54:40Z</time>
      </trkpt>
      <trkpt lat="46.19689" lon="6.29757">
        <ele>577.2</ele>
        <time>2021-04-03T11:54:41Z</time>
      </trkpt>
      <trkpt lat="46.19688" lon="6.29753">
        <ele>577.2</ele>
        <time>2021-04-03T11:54:42Z</time>
      </trkpt>
      <trkpt lat="46.19686" lon="6.29748">
        <ele>577.2</ele>
        <time>2021-04-03T11:54:43Z</time>
      </trkpt>
      <trkpt lat="46.19685" lon="6.29744">
        <ele>577.4</ele>
        <time>2021-04-03T11:54:44Z</time>
      </trkpt>
      <trkpt lat="46.19685" lon="6.29739">
        <ele>577.2</ele>
        <time>2021-04-03T11:54:45Z</time>
      </trkpt>
      <trkpt lat="46.19687" lon="6.29734">
        <ele>577</ele>
        <time>2021-04-03T11:54:46Z</time>
      </trkpt>
      <trkpt lat="46.1969" lon="6.2973">
        <ele>577</ele>
        <time>2021-04-03T11:54:47Z</time>
      </trkpt>
      <trkpt lat="46.19693" lon="6.29728">
        <ele>576.8</ele>
        <time>2021-04-03T11:54:48Z</time>
      </trkpt>
      <trkpt lat="46.19695" lon="6.29726">
        <ele>576.8</ele>
        <time>2021-04-03T11:54:49Z</time>
      </trkpt>
      <trkpt lat="46.19698" lon="6.29724">
        <ele>576.8</ele>
        <time>2021-04-03T11:54:50Z</time>
      </trkpt>
      <trkpt lat="46.197" lon="6.29722">
        <ele>576.6</ele>
        <time>2021-04-03T11:54:51Z</time>
      </trkpt>
      <trkpt lat="46.19703" lon="6.29722">
        <ele>576.4</ele>
        <time>2021-04-03T11:54:52Z</time>
      </trkpt>
      <trkpt lat="46.19706" lon="6.29721">
        <ele>576.4</ele>
        <time>2021-04-03T11:54:53Z</time>
      </trkpt>
      <trkpt lat="46.19708" lon="6.2972">
        <ele>576.6</ele>
        <time>2021-04-03T11:54:54Z</time>
      </trkpt>
      <trkpt lat="46.19711" lon="6.29719">
        <ele>576.4</ele>
        <time>2021-04-03T11:54:55Z</time>
      </trkpt>
      <trkpt lat="46.19714" lon="6.29717">
        <ele>576.4</ele>
        <time>2021-04-03T11:54:56Z</time>
      </trkpt>
      <trkpt lat="46.19717" lon="6.29715">
        <ele>576.4</ele>
        <time>2021-04-03T11:54:57Z</time>
      </trkpt>
      <trkpt lat="46.1972" lon="6.29713">
        <ele>576.4</ele>
        <time>2021-04-03T11:54:58Z</time>
      </trkpt>
      <trkpt lat="46.19724" lon="6.29711">
        <ele>576.6</ele>
        <time>2021-04-03T11:54:59Z</time>
      </trkpt>
      <trkpt lat="46.19728" lon="6.2971">
        <ele>576.6</ele>
        <time>2021-04-03T11:55:00Z</time>
      </trkpt>
      <trkpt lat="46.19732" lon="6.29708">
        <ele>576.6</ele>
        <time>2021-04-03T11:55:01Z</time>
      </trkpt>
      <trkpt lat="46.19735" lon="6.29707">
        <ele>576.8</ele>
        <time>2021-04-03T11:55:02Z</time>
      </trkpt>
      <trkpt lat="46.19738" lon="6.29707">
        <ele>577</ele>
        <time>2021-04-03T11:55:03Z</time>
      </trkpt>
      <trkpt lat="46.19741" lon="6.29706">
        <ele>577.2</ele>
        <time>2021-04-03T11:55:04Z</time>
      </trkpt>
      <trkpt lat="46.19744" lon="6.29705">
        <ele>577.4</ele>
        <time>2021-04-03T11:55:05Z</time>
      </trkpt>
      <trkpt lat="46.19747" lon="6.29705">
        <ele>577.6</ele>
        <time>2021-04-03T11:55:06Z</time>
      </trkpt>
      <trkpt lat="46.19751" lon="6.29705">
        <ele>577.6</ele>
        <time>2021-04-03T11:55:07Z</time>
      </trkpt>
      <trkpt lat="46.19755" lon="6.29703">
        <ele>577.8</ele>
        <time>2021-04-03T11:55:08Z</time>
      </trkpt>
      <trkpt lat="46.19758" lon="6.29703">
        <ele>578</ele>
        <time>2021-04-03T11:55:09Z</time>
      </trkpt>
      <trkpt lat="46.19762" lon="6.29703">
        <ele>578.2</ele>
        <time>2021-04-03T11:55:10Z</time>
      </trkpt>
      <trkpt lat="46.19766" lon="6.29704">
        <ele>578.4</ele>
        <time>2021-04-03T11:55:11Z</time>
      </trkpt>
      <trkpt lat="46.1977" lon="6.29704">
        <ele>578.4</ele>
        <time>2021-04-03T11:55:12Z</time>
      </trkpt>
      <trkpt lat="46.19774" lon="6.29704">
        <ele>578.6</ele>
        <time>2021-04-03T11:55:13Z</time>
      </trkpt>
      <trkpt lat="46.19778" lon="6.29705">
        <ele>578.6</ele>
        <time>2021-04-03T11:55:14Z</time>
      </trkpt>
      <trkpt lat="46.19783" lon="6.29705">
        <ele>578.8</ele>
        <time>2021-04-03T11:55:15Z</time>
      </trkpt>
      <trkpt lat="46.19787" lon="6.29705">
        <ele>579</ele>
        <time>2021-04-03T11:55:16Z</time>
      </trkpt>
      <trkpt lat="46.19791" lon="6.29704">
        <ele>579</ele>
        <time>2021-04-03T11:55:17Z</time>
      </trkpt>
      <trkpt lat="46.19796" lon="6.29703">
        <ele>579</ele>
        <time>2021-04-03T11:55:18Z</time>
      </trkpt>
      <trkpt lat="46.198" lon="6.29703">
        <ele>579</ele>
        <time>2021-04-03T11:55:19Z</time>
      </trkpt>
      <trkpt lat="46.19805" lon="6.29703">
        <ele>579</ele>
        <time>2021-04-03T11:55:20Z</time>
      </trkpt>
      <trkpt lat="46.1981" lon="6.29702">
        <ele>579</ele>
        <time>2021-04-03T11:55:21Z</time>
      </trkpt>
      <trkpt lat="46.19815" lon="6.29702">
        <ele>579</ele>
        <time>2021-04-03T11:55:22Z</time>
      </trkpt>
      <trkpt lat="46.1982" lon="6.29702">
        <ele>579</ele>
        <time>2021-04-03T11:55:23Z</time>
      </trkpt>
      <trkpt lat="46.19826" lon="6.29701">
        <ele>578.8</ele>
        <time>2021-04-03T11:55:24Z</time>
      </trkpt>
      <trkpt lat="46.19832" lon="6.29701">
        <ele>578.6</ele>
        <time>2021-04-03T11:55:25Z</time>
      </trkpt>
      <trkpt lat="46.19838" lon="6.29701">
        <ele>578.6</ele>
        <time>2021-04-03T11:55:26Z</time>
      </trkpt>
      <trkpt lat="46.19844" lon="6.297">
        <ele>578.6</ele>
        <time>2021-04-03T11:55:27Z</time>
      </trkpt>
      <trkpt lat="46.1985" lon="6.29699">
        <ele>578.6</ele>
        <time>2021-04-03T11:55:28Z</time>
      </trkpt>
      <trkpt lat="46.19857" lon="6.29698">
        <ele>578.4</ele>
        <time>2021-04-03T11:55:29Z</time>
      </trkpt>
      <trkpt lat="46.19863" lon="6.29697">
        <ele>578.2</ele>
        <time>2021-04-03T11:55:30Z</time>
      </trkpt>
      <trkpt lat="46.19869" lon="6.29696">
        <ele>577.4</ele>
        <time>2021-04-03T11:55:31Z</time>
      </trkpt>
      <trkpt lat="46.19875" lon="6.29695">
        <ele>577</ele>
        <time>2021-04-03T11:55:32Z</time>
      </trkpt>
      <trkpt lat="46.19881" lon="6.29695">
        <ele>576.6</ele>
        <time>2021-04-03T11:55:33Z</time>
      </trkpt>
      <trkpt lat="46.19888" lon="6.29694">
        <ele>576.2</ele>
        <time>2021-04-03T11:55:34Z</time>
      </trkpt>
      <trkpt lat="46.19894" lon="6.29693">
        <ele>576</ele>
        <time>2021-04-03T11:55:35Z</time>
      </trkpt>
      <trkpt lat="46.19901" lon="6.29692">
        <ele>576</ele>
        <time>2021-04-03T11:55:36Z</time>
      </trkpt>
      <trkpt lat="46.19907" lon="6.29691">
        <ele>575.8</ele>
        <time>2021-04-03T11:55:37Z</time>
      </trkpt>
      <trkpt lat="46.19914" lon="6.29691">
        <ele>575.6</ele>
        <time>2021-04-03T11:55:38Z</time>
      </trkpt>
      <trkpt lat="46.19921" lon="6.29691">
        <ele>575</ele>
        <time>2021-04-03T11:55:39Z</time>
      </trkpt>
      <trkpt lat="46.19928" lon="6.2969">
        <ele>574.4</ele>
        <time>2021-04-03T11:55:40Z</time>
      </trkpt>
      <trkpt lat="46.19935" lon="6.29689">
        <ele>573.8</ele>
        <time>2021-04-03T11:55:41Z</time>
      </trkpt>
      <trkpt lat="46.19942" lon="6.29688">
        <ele>573.8</ele>
        <time>2021-04-03T11:55:42Z</time>
      </trkpt>
      <trkpt lat="46.19948" lon="6.29686">
        <ele>573.2</ele>
        <time>2021-04-03T11:55:43Z</time>
      </trkpt>
      <trkpt lat="46.19955" lon="6.29685">
        <ele>573</ele>
        <time>2021-04-03T11:55:44Z</time>
      </trkpt>
      <trkpt lat="46.19963" lon="6.29683">
        <ele>572.8</ele>
        <time>2021-04-03T11:55:45Z</time>
      </trkpt>
      <trkpt lat="46.1997" lon="6.29682">
        <ele>572.6</ele>
        <time>2021-04-03T11:55:46Z</time>
      </trkpt>
      <trkpt lat="46.19977" lon="6.29681">
        <ele>572.4</ele>
        <time>2021-04-03T11:55:47Z</time>
      </trkpt>
      <trkpt lat="46.19985" lon="6.2968">
        <ele>572.2</ele>
        <time>2021-04-03T11:55:48Z</time>
      </trkpt>
      <trkpt lat="46.19992" lon="6.29679">
        <ele>571.8</ele>
        <time>2021-04-03T11:55:49Z</time>
      </trkpt>
      <trkpt lat="46.2" lon="6.2968">
        <ele>571.6</ele>
        <time>2021-04-03T11:55:50Z</time>
      </trkpt>
      <trkpt lat="46.20008" lon="6.2968">
        <ele>571.4</ele>
        <time>2021-04-03T11:55:51Z</time>
      </trkpt>
      <trkpt lat="46.20015" lon="6.29681">
        <ele>571.2</ele>
        <time>2021-04-03T11:55:52Z</time>
      </trkpt>
      <trkpt lat="46.20023" lon="6.29682">
        <ele>571.2</ele>
        <time>2021-04-03T11:55:53Z</time>
      </trkpt>
      <trkpt lat="46.20031" lon="6.29684">
        <ele>570.8</ele>
        <time>2021-04-03T11:55:54Z</time>
      </trkpt>
      <trkpt lat="46.20039" lon="6.29686">
        <ele>570.6</ele>
        <time>2021-04-03T11:55:55Z</time>
      </trkpt>
      <trkpt lat="46.20047" lon="6.29687">
        <ele>570.4</ele>
        <time>2021-04-03T11:55:56Z</time>
      </trkpt>
      <trkpt lat="46.20055" lon="6.29689">
        <ele>570.2</ele>
        <time>2021-04-03T11:55:57Z</time>
      </trkpt>
      <trkpt lat="46.20062" lon="6.29691">
        <ele>569.6</ele>
        <time>2021-04-03T11:55:58Z</time>
      </trkpt>
      <trkpt lat="46.2007" lon="6.29692">
        <ele>569.2</ele>
        <time>2021-04-03T11:55:59Z</time>
      </trkpt>
      <trkpt lat="46.20078" lon="6.29694">
        <ele>569</ele>
        <time>2021-04-03T11:56:00Z</time>
      </trkpt>
      <trkpt lat="46.20086" lon="6.29695">
        <ele>568.8</ele>
        <time>2021-04-03T11:56:01Z</time>
      </trkpt>
      <trkpt lat="46.20095" lon="6.29697">
        <ele>568.8</ele>
        <time>2021-04-03T11:56:02Z</time>
      </trkpt>
      <trkpt lat="46.20103" lon="6.29699">
        <ele>568.2</ele>
        <time>2021-04-03T11:56:03Z</time>
      </trkpt>
      <trkpt lat="46.20112" lon="6.29701">
        <ele>567.8</ele>
        <time>2021-04-03T11:56:04Z</time>
      </trkpt>
      <trkpt lat="46.2012" lon="6.29703">
        <ele>567.4</ele>
        <time>2021-04-03T11:56:05Z</time>
      </trkpt>
      <trkpt lat="46.20129" lon="6.29705">
        <ele>566.8</ele>
        <time>2021-04-03T11:56:06Z</time>
      </trkpt>
      <trkpt lat="46.20138" lon="6.29706">
        <ele>566.4</ele>
        <time>2021-04-03T11:56:07Z</time>
      </trkpt>
      <trkpt lat="46.20147" lon="6.29707">
        <ele>566</ele>
        <time>2021-04-03T11:56:08Z</time>
      </trkpt>
      <trkpt lat="46.20156" lon="6.29709">
        <ele>565.8</ele>
        <time>2021-04-03T11:56:09Z</time>
      </trkpt>
      <trkpt lat="46.20165" lon="6.29711">
        <ele>565.6</ele>
        <time>2021-04-03T11:56:10Z</time>
      </trkpt>
      <trkpt lat="46.20174" lon="6.29713">
        <ele>565.2</ele>
        <time>2021-04-03T11:56:11Z</time>
      </trkpt>
      <trkpt lat="46.20182" lon="6.29716">
        <ele>565</ele>
        <time>2021-04-03T11:56:12Z</time>
      </trkpt>
      <trkpt lat="46.20192" lon="6.29719">
        <ele>564.8</ele>
        <time>2021-04-03T11:56:13Z</time>
      </trkpt>
      <trkpt lat="46.20202" lon="6.29723">
        <ele>564</ele>
        <time>2021-04-03T11:56:14Z</time>
      </trkpt>
      <trkpt lat="46.20212" lon="6.29726">
        <ele>563.6</ele>
        <time>2021-04-03T11:56:15Z</time>
      </trkpt>
      <trkpt lat="46.20222" lon="6.29727">
        <ele>563.4</ele>
        <time>2021-04-03T11:56:16Z</time>
      </trkpt>
      <trkpt lat="46.20233" lon="6.29726">
        <ele>563.2</ele>
        <time>2021-04-03T11:56:17Z</time>
      </trkpt>
      <trkpt lat="46.20243" lon="6.29721">
        <ele>562.8</ele>
        <time>2021-04-03T11:56:18Z</time>
      </trkpt>
      <trkpt lat="46.20254" lon="6.29716">
        <ele>562.6</ele>
        <time>2021-04-03T11:56:19Z</time>
      </trkpt>
      <trkpt lat="46.20267" lon="6.29713">
        <ele>562.4</ele>
        <time>2021-04-03T11:56:20Z</time>
      </trkpt>
      <trkpt lat="46.2028" lon="6.29711">
        <ele>561.6</ele>
        <time>2021-04-03T11:56:21Z</time>
      </trkpt>
      <trkpt lat="46.20293" lon="6.2971">
        <ele>560.2</ele>
        <time>2021-04-03T11:56:22Z</time>
      </trkpt>
      <trkpt lat="46.20307" lon="6.29708">
        <ele>558.2</ele>
        <time>2021-04-03T11:56:23Z</time>
      </trkpt>
      <trkpt lat="46.20321" lon="6.29707">
        <ele>556</ele>
        <time>2021-04-03T11:56:24Z</time>
      </trkpt>
      <trkpt lat="46.20336" lon="6.29707">
        <ele>554.4</ele>
        <time>2021-04-03T11:56:25Z</time>
      </trkpt>
      <trkpt lat="46.2035" lon="6.29708">
        <ele>553.6</ele>
        <time>2021-04-03T11:56:26Z</time>
      </trkpt>
      <trkpt lat="46.20365" lon="6.29709">
        <ele>552.4</ele>
        <time>2021-04-03T11:56:27Z</time>
      </trkpt>
      <trkpt lat="46.20379" lon="6.2971">
        <ele>550.6</ele>
        <time>2021-04-03T11:56:28Z</time>
      </trkpt>
      <trkpt lat="46.20393" lon="6.29712">
        <ele>549</ele>
        <time>2021-04-03T11:56:29Z</time>
      </trkpt>
      <trkpt lat="46.20407" lon="6.29714">
        <ele>547.4</ele>
        <time>2021-04-03T11:56:30Z</time>
      </trkpt>
      <trkpt lat="46.20421" lon="6.29716">
        <ele>545.8</ele>
        <time>2021-04-03T11:56:31Z</time>
      </trkpt>
      <trkpt lat="46.20435" lon="6.29717">
        <ele>543.6</ele>
        <time>2021-04-03T11:56:32Z</time>
      </trkpt>
      <trkpt lat="46.20449" lon="6.29718">
        <ele>542</ele>
        <time>2021-04-03T11:56:33Z</time>
      </trkpt>
      <trkpt lat="46.20462" lon="6.29718">
        <ele>541.2</ele>
        <time>2021-04-03T11:56:34Z</time>
      </trkpt>
      <trkpt lat="46.20475" lon="6.29717">
        <ele>540.4</ele>
        <time>2021-04-03T11:56:35Z</time>
      </trkpt>
      <trkpt lat="46.20488" lon="6.29716">
        <ele>538.8</ele>
        <time>2021-04-03T11:56:36Z</time>
      </trkpt>
      <trkpt lat="46.205" lon="6.29713">
        <ele>537</ele>
        <time>2021-04-03T11:56:37Z</time>
      </trkpt>
      <trkpt lat="46.20512" lon="6.29712">
        <ele>534.8</ele>
        <time>2021-04-03T11:56:38Z</time>
      </trkpt>
      <trkpt lat="46.20525" lon="6.2971">
        <ele>532.8</ele>
        <time>2021-04-03T11:56:39Z</time>
      </trkpt>
      <trkpt lat="46.20537" lon="6.29708">
        <ele>531.4</ele>
        <time>2021-04-03T11:56:40Z</time>
      </trkpt>
      <trkpt lat="46.20549" lon="6.29707">
        <ele>530.4</ele>
        <time>2021-04-03T11:56:41Z</time>
      </trkpt>
      <trkpt lat="46.2056" lon="6.29707">
        <ele>529.2</ele>
        <time>2021-04-03T11:56:42Z</time>
      </trkpt>
      <trkpt lat="46.20572" lon="6.29709">
        <ele>528.4</ele>
        <time>2021-04-03T11:56:43Z</time>
      </trkpt>
      <trkpt lat="46.20583" lon="6.2971">
        <ele>525.8</ele>
        <time>2021-04-03T11:56:44Z</time>
      </trkpt>
      <trkpt lat="46.20595" lon="6.29712">
        <ele>524.6</ele>
        <time>2021-04-03T11:56:45Z</time>
      </trkpt>
      <trkpt lat="46.20607" lon="6.29714">
        <ele>523.6</ele>
        <time>2021-04-03T11:56:46Z</time>
      </trkpt>
      <trkpt lat="46.20618" lon="6.29715">
        <ele>522.6</ele>
        <time>2021-04-03T11:56:47Z</time>
      </trkpt>
      <trkpt lat="46.2063" lon="6.29716">
        <ele>521.4</ele>
        <time>2021-04-03T11:56:48Z</time>
      </trkpt>
      <trkpt lat="46.20642" lon="6.29717">
        <ele>520.2</ele>
        <time>2021-04-03T11:56:49Z</time>
      </trkpt>
      <trkpt lat="46.20653" lon="6.29719">
        <ele>518.6</ele>
        <time>2021-04-03T11:56:50Z</time>
      </trkpt>
      <trkpt lat="46.20665" lon="6.29719">
        <ele>517.2</ele>
        <time>2021-04-03T11:56:51Z</time>
      </trkpt>
      <trkpt lat="46.20676" lon="6.2972">
        <ele>516.2</ele>
        <time>2021-04-03T11:56:52Z</time>
      </trkpt>
      <trkpt lat="46.20687" lon="6.29721">
        <ele>515.6</ele>
        <time>2021-04-03T11:56:53Z</time>
      </trkpt>
      <trkpt lat="46.20697" lon="6.29721">
        <ele>514.8</ele>
        <time>2021-04-03T11:56:54Z</time>
      </trkpt>
      <trkpt lat="46.20707" lon="6.29722">
        <ele>514.4</ele>
        <time>2021-04-03T11:56:55Z</time>
      </trkpt>
      <trkpt lat="46.20717" lon="6.29723">
        <ele>513.8</ele>
        <time>2021-04-03T11:56:56Z</time>
      </trkpt>
      <trkpt lat="46.20726" lon="6.29724">
        <ele>513.2</ele>
        <time>2021-04-03T11:56:57Z</time>
      </trkpt>
      <trkpt lat="46.20735" lon="6.29725">
        <ele>512.2</ele>
        <time>2021-04-03T11:56:58Z</time>
      </trkpt>
      <trkpt lat="46.20744" lon="6.29725">
        <ele>511.8</ele>
        <time>2021-04-03T11:56:59Z</time>
      </trkpt>
      <trkpt lat="46.20753" lon="6.29726">
        <ele>511.6</ele>
        <time>2021-04-03T11:57:00Z</time>
      </trkpt>
      <trkpt lat="46.20761" lon="6.29727">
        <ele>511.4</ele>
        <time>2021-04-03T11:57:01Z</time>
      </trkpt>
      <trkpt lat="46.2077" lon="6.29727">
        <ele>511.4</ele>
        <time>2021-04-03T11:57:02Z</time>
      </trkpt>
      <trkpt lat="46.20779" lon="6.29728">
        <ele>511.2</ele>
        <time>2021-04-03T11:57:03Z</time>
      </trkpt>
      <trkpt lat="46.20788" lon="6.29728">
        <ele>511.2</ele>
        <time>2021-04-03T11:57:04Z</time>
      </trkpt>
      <trkpt lat="46.20797" lon="6.29729">
        <ele>511.2</ele>
        <time>2021-04-03T11:57:05Z</time>
      </trkpt>
      <trkpt lat="46.20805" lon="6.2973">
        <ele>511</ele>
        <time>2021-04-03T11:57:06Z</time>
      </trkpt>
      <trkpt lat="46.20814" lon="6.29731">
        <ele>510.8</ele>
        <time>2021-04-03T11:57:07Z</time>
      </trkpt>
      <trkpt lat="46.20822" lon="6.29732">
        <ele>510.6</ele>
        <time>2021-04-03T11:57:08Z</time>
      </trkpt>
      <trkpt lat="46.2083" lon="6.29734">
        <ele>510.6</ele>
        <time>2021-04-03T11:57:09Z</time>
      </trkpt>
      <trkpt lat="46.20838" lon="6.29736">
        <ele>510.6</ele>
        <time>2021-04-03T11:57:10Z</time>
      </trkpt>
      <trkpt lat="46.20846" lon="6.29738">
        <ele>510.8</ele>
        <time>2021-04-03T11:57:11Z</time>
      </trkpt>
      <trkpt lat="46.20854" lon="6.29741">
        <ele>510.8</ele>
        <time>2021-04-03T11:57:12Z</time>
      </trkpt>
      <trkpt lat="46.20861" lon="6.29744">
        <ele>511</ele>
        <time>2021-04-03T11:57:13Z</time>
      </trkpt>
      <trkpt lat="46.20868" lon="6.29747">
        <ele>511</ele>
        <time>2021-04-03T11:57:14Z</time>
      </trkpt>
      <trkpt lat="46.20875" lon="6.2975">
        <ele>511</ele>
        <time>2021-04-03T11:57:15Z</time>
      </trkpt>
      <trkpt lat="46.20882" lon="6.29753">
        <ele>511</ele>
        <time>2021-04-03T11:57:16Z</time>
      </trkpt>
      <trkpt lat="46.20889" lon="6.29756">
        <ele>511.2</ele>
        <time>2021-04-03T11:57:17Z</time>
      </trkpt>
      <trkpt lat="46.20895" lon="6.2976">
        <ele>511.2</ele>
        <time>2021-04-03T11:57:18Z</time>
      </trkpt>
      <trkpt lat="46.20902" lon="6.29763">
        <ele>511.2</ele>
        <time>2021-04-03T11:57:19Z</time>
      </trkpt>
      <trkpt lat="46.20909" lon="6.29766">
        <ele>511.2</ele>
        <time>2021-04-03T11:57:20Z</time>
      </trkpt>
      <trkpt lat="46.20915" lon="6.2977">
        <ele>511.2</ele>
        <time>2021-04-03T11:57:21Z</time>
      </trkpt>
      <trkpt lat="46.20921" lon="6.29775">
        <ele>511.4</ele>
        <time>2021-04-03T11:57:22Z</time>
      </trkpt>
      <trkpt lat="46.20927" lon="6.2978">
        <ele>511.2</ele>
        <time>2021-04-03T11:57:23Z</time>
      </trkpt>
      <trkpt lat="46.20932" lon="6.29785">
        <ele>511.2</ele>
        <time>2021-04-03T11:57:24Z</time>
      </trkpt>
      <trkpt lat="46.20937" lon="6.29791">
        <ele>511.2</ele>
        <time>2021-04-03T11:57:25Z</time>
      </trkpt>
      <trkpt lat="46.20941" lon="6.29797">
        <ele>511.2</ele>
        <time>2021-04-03T11:57:26Z</time>
      </trkpt>
      <trkpt lat="46.20946" lon="6.29803">
        <ele>511.4</ele>
        <time>2021-04-03T11:57:27Z</time>
      </trkpt>
      <trkpt lat="46.2095" lon="6.29809">
        <ele>511.4</ele>
        <time>2021-04-03T11:57:28Z</time>
      </trkpt>
      <trkpt lat="46.20955" lon="6.29814">
        <ele>511.6</ele>
        <time>2021-04-03T11:57:29Z</time>
      </trkpt>
      <trkpt lat="46.20959" lon="6.29818">
        <ele>511.8</ele>
        <time>2021-04-03T11:57:30Z</time>
      </trkpt>
      <trkpt lat="46.20965" lon="6.29822">
        <ele>511.8</ele>
        <time>2021-04-03T11:57:31Z</time>
      </trkpt>
      <trkpt lat="46.2097" lon="6.29826">
        <ele>512</ele>
        <time>2021-04-03T11:57:32Z</time>
      </trkpt>
      <trkpt lat="46.20976" lon="6.2983">
        <ele>512</ele>
        <time>2021-04-03T11:57:33Z</time>
      </trkpt>
      <trkpt lat="46.20981" lon="6.29834">
        <ele>512.2</ele>
        <time>2021-04-03T11:57:34Z</time>
      </trkpt>
      <trkpt lat="46.20987" lon="6.29837">
        <ele>512.4</ele>
        <time>2021-04-03T11:57:35Z</time>
      </trkpt>
      <trkpt lat="46.20992" lon="6.29841">
        <ele>512.6</ele>
        <time>2021-04-03T11:57:36Z</time>
      </trkpt>
      <trkpt lat="46.20998" lon="6.29845">
        <ele>512.6</ele>
        <time>2021-04-03T11:57:37Z</time>
      </trkpt>
      <trkpt lat="46.21003" lon="6.2985">
        <ele>512.8</ele>
        <time>2021-04-03T11:57:38Z</time>
      </trkpt>
      <trkpt lat="46.21008" lon="6.29855">
        <ele>512.8</ele>
        <time>2021-04-03T11:57:39Z</time>
      </trkpt>
      <trkpt lat="46.21013" lon="6.2986">
        <ele>513</ele>
        <time>2021-04-03T11:57:40Z</time>
      </trkpt>
      <trkpt lat="46.21017" lon="6.29866">
        <ele>513</ele>
        <time>2021-04-03T11:57:41Z</time>
      </trkpt>
      <trkpt lat="46.21022" lon="6.29871">
        <ele>513</ele>
        <time>2021-04-03T11:57:42Z</time>
      </trkpt>
      <trkpt lat="46.21026" lon="6.29876">
        <ele>513</ele>
        <time>2021-04-03T11:57:43Z</time>
      </trkpt>
      <trkpt lat="46.2103" lon="6.29881">
        <ele>513.2</ele>
        <time>2021-04-03T11:57:44Z</time>
      </trkpt>
      <trkpt lat="46.21034" lon="6.29886">
        <ele>513.2</ele>
        <time>2021-04-03T11:57:45Z</time>
      </trkpt>
      <trkpt lat="46.21038" lon="6.29891">
        <ele>513.4</ele>
        <time>2021-04-03T11:57:46Z</time>
      </trkpt>
      <trkpt lat="46.21042" lon="6.29897">
        <ele>513.2</ele>
        <time>2021-04-03T11:57:47Z</time>
      </trkpt>
      <trkpt lat="46.21046" lon="6.29902">
        <ele>513.4</ele>
        <time>2021-04-03T11:57:48Z</time>
      </trkpt>
      <trkpt lat="46.2105" lon="6.29907">
        <ele>513.2</ele>
        <time>2021-04-03T11:57:49Z</time>
      </trkpt>
      <trkpt lat="46.21053" lon="6.29912">
        <ele>513.2</ele>
        <time>2021-04-03T11:57:50Z</time>
      </trkpt>
      <trkpt lat="46.21057" lon="6.29917">
        <ele>513.2</ele>
        <time>2021-04-03T11:57:51Z</time>
      </trkpt>
      <trkpt lat="46.21061" lon="6.29922">
        <ele>513</ele>
        <time>2021-04-03T11:57:52Z</time>
      </trkpt>
      <trkpt lat="46.21064" lon="6.29927">
        <ele>513</ele>
        <time>2021-04-03T11:57:53Z</time>
      </trkpt>
      <trkpt lat="46.21068" lon="6.29933">
        <ele>513</ele>
        <time>2021-04-03T11:57:54Z</time>
      </trkpt>
      <trkpt lat="46.21071" lon="6.29938">
        <ele>512.8</ele>
        <time>2021-04-03T11:57:55Z</time>
      </trkpt>
      <trkpt lat="46.21074" lon="6.29944">
        <ele>513</ele>
        <time>2021-04-03T11:57:56Z</time>
      </trkpt>
      <trkpt lat="46.21077" lon="6.29949">
        <ele>512.8</ele>
        <time>2021-04-03T11:57:57Z</time>
      </trkpt>
      <trkpt lat="46.21081" lon="6.29954">
        <ele>512.8</ele>
        <time>2021-04-03T11:57:58Z</time>
      </trkpt>
      <trkpt lat="46.21085" lon="6.29959">
        <ele>512.8</ele>
        <time>2021-04-03T11:57:59Z</time>
      </trkpt>
      <trkpt lat="46.21089" lon="6.29964">
        <ele>512.8</ele>
        <time>2021-04-03T11:58:00Z</time>
      </trkpt>
      <trkpt lat="46.21093" lon="6.2997">
        <ele>512.8</ele>
        <time>2021-04-03T11:58:01Z</time>
      </trkpt>
      <trkpt lat="46.21097" lon="6.29975">
        <ele>512.8</ele>
        <time>2021-04-03T11:58:02Z</time>
      </trkpt>
      <trkpt lat="46.21101" lon="6.2998">
        <ele>512.8</ele>
        <time>2021-04-03T11:58:03Z</time>
      </trkpt>
      <trkpt lat="46.21105" lon="6.29984">
        <ele>512.6</ele>
        <time>2021-04-03T11:58:04Z</time>
      </trkpt>
      <trkpt lat="46.2111" lon="6.29988">
        <ele>512.4</ele>
        <time>2021-04-03T11:58:05Z</time>
      </trkpt>
      <trkpt lat="46.21114" lon="6.29992">
        <ele>512.4</ele>
        <time>2021-04-03T11:58:06Z</time>
      </trkpt>
      <trkpt lat="46.21118" lon="6.29996">
        <ele>512.2</ele>
        <time>2021-04-03T11:58:07Z</time>
      </trkpt>
      <trkpt lat="46.21122" lon="6.3">
        <ele>512.2</ele>
        <time>2021-04-03T11:58:08Z</time>
      </trkpt>
      <trkpt lat="46.21126" lon="6.30004">
        <ele>512.2</ele>
        <time>2021-04-03T11:58:09Z</time>
      </trkpt>
      <trkpt lat="46.2113" lon="6.30008">
        <ele>512.2</ele>
        <time>2021-04-03T11:58:10Z</time>
      </trkpt>
      <trkpt lat="46.21134" lon="6.30011">
        <ele>512.4</ele>
        <time>2021-04-03T11:58:11Z</time>
      </trkpt>
      <trkpt lat="46.21138" lon="6.30015">
        <ele>512.4</ele>
        <time>2021-04-03T11:58:12Z</time>
      </trkpt>
      <trkpt lat="46.21142" lon="6.30018">
        <ele>512.4</ele>
        <time>2021-04-03T11:58:13Z</time>
      </trkpt>
      <trkpt lat="46.21146" lon="6.30022">
        <ele>512.4</ele>
        <time>2021-04-03T11:58:14Z</time>
      </trkpt>
      <trkpt lat="46.21149" lon="6.30026">
        <ele>512.2</ele>
        <time>2021-04-03T11:58:15Z</time>
      </trkpt>
      <trkpt lat="46.21154" lon="6.30029">
        <ele>512.4</ele>
        <time>2021-04-03T11:58:16Z</time>
      </trkpt>
      <trkpt lat="46.21158" lon="6.30032">
        <ele>512.4</ele>
        <time>2021-04-03T11:58:17Z</time>
      </trkpt>
      <trkpt lat="46.21163" lon="6.30035">
        <ele>512.2</ele>
        <time>2021-04-03T11:58:18Z</time>
      </trkpt>
      <trkpt lat="46.21167" lon="6.30037">
        <ele>512.2</ele>
        <time>2021-04-03T11:58:19Z</time>
      </trkpt>
      <trkpt lat="46.21171" lon="6.30039">
        <ele>512.2</ele>
        <time>2021-04-03T11:58:20Z</time>
      </trkpt>
      <trkpt lat="46.21176" lon="6.30041">
        <ele>512.2</ele>
        <time>2021-04-03T11:58:21Z</time>
      </trkpt>
      <trkpt lat="46.2118" lon="6.30042">
        <ele>512</ele>
        <time>2021-04-03T11:58:22Z</time>
      </trkpt>
      <trkpt lat="46.21184" lon="6.30043">
        <ele>511.8</ele>
        <time>2021-04-03T11:58:23Z</time>
      </trkpt>
      <trkpt lat="46.21188" lon="6.30045">
        <ele>511.8</ele>
        <time>2021-04-03T11:58:24Z</time>
      </trkpt>
      <trkpt lat="46.21192" lon="6.30047">
        <ele>511.8</ele>
        <time>2021-04-03T11:58:25Z</time>
      </trkpt>
      <trkpt lat="46.21196" lon="6.3005">
        <ele>511.8</ele>
        <time>2021-04-03T11:58:26Z</time>
      </trkpt>
      <trkpt lat="46.21198" lon="6.30055">
        <ele>512</ele>
        <time>2021-04-03T11:58:27Z</time>
      </trkpt>
      <trkpt lat="46.212" lon="6.30062">
        <ele>512</ele>
        <time>2021-04-03T11:58:28Z</time>
      </trkpt>
      <trkpt lat="46.21202" lon="6.30068">
        <ele>512.2</ele>
        <time>2021-04-03T11:58:29Z</time>
      </trkpt>
      <trkpt lat="46.21204" lon="6.30074">
        <ele>512</ele>
        <time>2021-04-03T11:58:30Z</time>
      </trkpt>
      <trkpt lat="46.21206" lon="6.3008">
        <ele>512.2</ele>
        <time>2021-04-03T11:58:31Z</time>
      </trkpt>
      <trkpt lat="46.21208" lon="6.30086">
        <ele>512.4</ele>
        <time>2021-04-03T11:58:32Z</time>
      </trkpt>
      <trkpt lat="46.2121" lon="6.30091">
        <ele>512.6</ele>
        <time>2021-04-03T11:58:33Z</time>
      </trkpt>
      <trkpt lat="46.21213" lon="6.30097">
        <ele>512.2</ele>
        <time>2021-04-03T11:58:34Z</time>
      </trkpt>
      <trkpt lat="46.21216" lon="6.30102">
        <ele>512.4</ele>
        <time>2021-04-03T11:58:35Z</time>
      </trkpt>
      <trkpt lat="46.21219" lon="6.30107">
        <ele>512.4</ele>
        <time>2021-04-03T11:58:36Z</time>
      </trkpt>
      <trkpt lat="46.21222" lon="6.30112">
        <ele>512.6</ele>
        <time>2021-04-03T11:58:37Z</time>
      </trkpt>
      <trkpt lat="46.21225" lon="6.30117">
        <ele>512.6</ele>
        <time>2021-04-03T11:58:38Z</time>
      </trkpt>
      <trkpt lat="46.21228" lon="6.30122">
        <ele>513</ele>
        <time>2021-04-03T11:58:39Z</time>
      </trkpt>
      <trkpt lat="46.21231" lon="6.30126">
        <ele>513.2</ele>
        <time>2021-04-03T11:58:40Z</time>
      </trkpt>
      <trkpt lat="46.21234" lon="6.30131">
        <ele>513.2</ele>
        <time>2021-04-03T11:58:41Z</time>
      </trkpt>
      <trkpt lat="46.21237" lon="6.30135">
        <ele>513.2</ele>
        <time>2021-04-03T11:58:42Z</time>
      </trkpt>
      <trkpt lat="46.21239" lon="6.3014">
        <ele>513.2</ele>
        <time>2021-04-03T11:58:43Z</time>
      </trkpt>
      <trkpt lat="46.21242" lon="6.30144">
        <ele>513.2</ele>
        <time>2021-04-03T11:58:44Z</time>
      </trkpt>
      <trkpt lat="46.21245" lon="6.30148">
        <ele>513.4</ele>
        <time>2021-04-03T11:58:45Z</time>
      </trkpt>
      <trkpt lat="46.21248" lon="6.30153">
        <ele>513.2</ele>
        <time>2021-04-03T11:58:46Z</time>
      </trkpt>
      <trkpt lat="46.21251" lon="6.30157">
        <ele>513.2</ele>
        <time>2021-04-03T11:58:47Z</time>
      </trkpt>
      <trkpt lat="46.21254" lon="6.30162">
        <ele>513.4</ele>
        <time>2021-04-03T11:58:48Z</time>
      </trkpt>
      <trkpt lat="46.21257" lon="6.30166">
        <ele>513.4</ele>
        <time>2021-04-03T11:58:49Z</time>
      </trkpt>
      <trkpt lat="46.21259" lon="6.30171">
        <ele>513.4</ele>
        <time>2021-04-03T11:58:50Z</time>
      </trkpt>
      <trkpt lat="46.21262" lon="6.30175">
        <ele>513.4</ele>
        <time>2021-04-03T11:58:51Z</time>
      </trkpt>
      <trkpt lat="46.21265" lon="6.3018">
        <ele>513.8</ele>
        <time>2021-04-03T11:58:52Z</time>
      </trkpt>
      <trkpt lat="46.21267" lon="6.30184">
        <ele>513.8</ele>
        <time>2021-04-03T11:58:53Z</time>
      </trkpt>
      <trkpt lat="46.2127" lon="6.30189">
        <ele>513.8</ele>
        <time>2021-04-03T11:58:54Z</time>
      </trkpt>
      <trkpt lat="46.21273" lon="6.30194">
        <ele>514</ele>
        <time>2021-04-03T11:58:55Z</time>
      </trkpt>
      <trkpt lat="46.21275" lon="6.30199">
        <ele>514</ele>
        <time>2021-04-03T11:58:56Z</time>
      </trkpt>
      <trkpt lat="46.21278" lon="6.30203">
        <ele>513.8</ele>
        <time>2021-04-03T11:58:57Z</time>
      </trkpt>
      <trkpt lat="46.21281" lon="6.30208">
        <ele>514</ele>
        <time>2021-04-03T11:58:58Z</time>
      </trkpt>
      <trkpt lat="46.21283" lon="6.30212">
        <ele>514</ele>
        <time>2021-04-03T11:58:59Z</time>
      </trkpt>
      <trkpt lat="46.21285" lon="6.30217">
        <ele>514.2</ele>
        <time>2021-04-03T11:59:00Z</time>
      </trkpt>
      <trkpt lat="46.21288" lon="6.30222">
        <ele>514.2</ele>
        <time>2021-04-03T11:59:01Z</time>
      </trkpt>
      <trkpt lat="46.2129" lon="6.30226">
        <ele>514.4</ele>
        <time>2021-04-03T11:59:02Z</time>
      </trkpt>
      <trkpt lat="46.21293" lon="6.30231">
        <ele>514.6</ele>
        <time>2021-04-03T11:59:03Z</time>
      </trkpt>
      <trkpt lat="46.21296" lon="6.30237">
        <ele>514.6</ele>
        <time>2021-04-03T11:59:04Z</time>
      </trkpt>
      <trkpt lat="46.21299" lon="6.30241">
        <ele>514.8</ele>
        <time>2021-04-03T11:59:05Z</time>
      </trkpt>
      <trkpt lat="46.21302" lon="6.30247">
        <ele>515.2</ele>
        <time>2021-04-03T11:59:06Z</time>
      </trkpt>
      <trkpt lat="46.21305" lon="6.30252">
        <ele>515.2</ele>
        <time>2021-04-03T11:59:07Z</time>
      </trkpt>
      <trkpt lat="46.21308" lon="6.30256">
        <ele>515.2</ele>
        <time>2021-04-03T11:59:08Z</time>
      </trkpt>
      <trkpt lat="46.21312" lon="6.30261">
        <ele>515.4</ele>
        <time>2021-04-03T11:59:09Z</time>
      </trkpt>
      <trkpt lat="46.21315" lon="6.30266">
        <ele>515.4</ele>
        <time>2021-04-03T11:59:10Z</time>
      </trkpt>
      <trkpt lat="46.21319" lon="6.3027">
        <ele>515.6</ele>
        <time>2021-04-03T11:59:11Z</time>
      </trkpt>
      <trkpt lat="46.21323" lon="6.30275">
        <ele>515.6</ele>
        <time>2021-04-03T11:59:12Z</time>
      </trkpt>
      <trkpt lat="46.21327" lon="6.30279">
        <ele>515.8</ele>
        <time>2021-04-03T11:59:13Z</time>
      </trkpt>
      <trkpt lat="46.21331" lon="6.30283">
        <ele>516</ele>
        <time>2021-04-03T11:59:14Z</time>
      </trkpt>
      <trkpt lat="46.21335" lon="6.30288">
        <ele>516</ele>
        <time>2021-04-03T11:59:15Z</time>
      </trkpt>
      <trkpt lat="46.2134" lon="6.30292">
        <ele>516</ele>
        <time>2021-04-03T11:59:16Z</time>
      </trkpt>
      <trkpt lat="46.21345" lon="6.30296">
        <ele>516</ele>
        <time>2021-04-03T11:59:17Z</time>
      </trkpt>
      <trkpt lat="46.21349" lon="6.30299">
        <ele>516.2</ele>
        <time>2021-04-03T11:59:18Z</time>
      </trkpt>
      <trkpt lat="46.21354" lon="6.30303">
        <ele>516.4</ele>
        <time>2021-04-03T11:59:19Z</time>
      </trkpt>
      <trkpt lat="46.21359" lon="6.30306">
        <ele>516.6</ele>
        <time>2021-04-03T11:59:20Z</time>
      </trkpt>
      <trkpt lat="46.21363" lon="6.30309">
        <ele>516.6</ele>
        <time>2021-04-03T11:59:21Z</time>
      </trkpt>
      <trkpt lat="46.21368" lon="6.30312">
        <ele>516.8</ele>
        <time>2021-04-03T11:59:22Z</time>
      </trkpt>
      <trkpt lat="46.21372" lon="6.30315">
        <ele>516.8</ele>
        <time>2021-04-03T11:59:23Z</time>
      </trkpt>
      <trkpt lat="46.21376" lon="6.30317">
        <ele>517</ele>
        <time>2021-04-03T11:59:24Z</time>
      </trkpt>
      <trkpt lat="46.2138" lon="6.3032">
        <ele>517</ele>
        <time>2021-04-03T11:59:25Z</time>
      </trkpt>
      <trkpt lat="46.21384" lon="6.30323">
        <ele>517.2</ele>
        <time>2021-04-03T11:59:26Z</time>
      </trkpt>
      <trkpt lat="46.21388" lon="6.30326">
        <ele>517.2</ele>
        <time>2021-04-03T11:59:27Z</time>
      </trkpt>
      <trkpt lat="46.21393" lon="6.30329">
        <ele>517.2</ele>
        <time>2021-04-03T11:59:28Z</time>
      </trkpt>
      <trkpt lat="46.21398" lon="6.30332">
        <ele>517.4</ele>
        <time>2021-04-03T11:59:29Z</time>
      </trkpt>
      <trkpt lat="46.21402" lon="6.30335">
        <ele>517.4</ele>
        <time>2021-04-03T11:59:30Z</time>
      </trkpt>
      <trkpt lat="46.21407" lon="6.30338">
        <ele>517.2</ele>
        <time>2021-04-03T11:59:31Z</time>
      </trkpt>
      <trkpt lat="46.21411" lon="6.3034">
        <ele>517.4</ele>
        <time>2021-04-03T11:59:32Z</time>
      </trkpt>
      <trkpt lat="46.21417" lon="6.30343">
        <ele>517.4</ele>
        <time>2021-04-03T11:59:33Z</time>
      </trkpt>
      <trkpt lat="46.21422" lon="6.30344">
        <ele>517.2</ele>
        <time>2021-04-03T11:59:34Z</time>
      </trkpt>
      <trkpt lat="46.21428" lon="6.30345">
        <ele>517.4</ele>
        <time>2021-04-03T11:59:35Z</time>
      </trkpt>
      <trkpt lat="46.21434" lon="6.30345">
        <ele>517.4</ele>
        <time>2021-04-03T11:59:36Z</time>
      </trkpt>
      <trkpt lat="46.2144" lon="6.30344">
        <ele>517.4</ele>
        <time>2021-04-03T11:59:37Z</time>
      </trkpt>
      <trkpt lat="46.21446" lon="6.30341">
        <ele>517.4</ele>
        <time>2021-04-03T11:59:38Z</time>
      </trkpt>
      <trkpt lat="46.21452" lon="6.30338">
        <ele>517.2</ele>
        <time>2021-04-03T11:59:39Z</time>
      </trkpt>
      <trkpt lat="46.21458" lon="6.30335">
        <ele>517.2</ele>
        <time>2021-04-03T11:59:40Z</time>
      </trkpt>
      <trkpt lat="46.21465" lon="6.30332">
        <ele>517.2</ele>
        <time>2021-04-03T11:59:41Z</time>
      </trkpt>
      <trkpt lat="46.21472" lon="6.30331">
        <ele>517</ele>
        <time>2021-04-03T11:59:42Z</time>
      </trkpt>
      <trkpt lat="46.21478" lon="6.30331">
        <ele>516.8</ele>
        <time>2021-04-03T11:59:43Z</time>
      </trkpt>
      <trkpt lat="46.21484" lon="6.30332">
        <ele>516.6</ele>
        <time>2021-04-03T11:59:44Z</time>
      </trkpt>
      <trkpt lat="46.2149" lon="6.30335">
        <ele>516.4</ele>
        <time>2021-04-03T11:59:45Z</time>
      </trkpt>
      <trkpt lat="46.21496" lon="6.3034">
        <ele>516</ele>
        <time>2021-04-03T11:59:46Z</time>
      </trkpt>
      <trkpt lat="46.21501" lon="6.30346">
        <ele>515.8</ele>
        <time>2021-04-03T11:59:47Z</time>
      </trkpt>
      <trkpt lat="46.21506" lon="6.30352">
        <ele>515.4</ele>
        <time>2021-04-03T11:59:48Z</time>
      </trkpt>
      <trkpt lat="46.21511" lon="6.30358">
        <ele>515.4</ele>
        <time>2021-04-03T11:59:49Z</time>
      </trkpt>
      <trkpt lat="46.21515" lon="6.30365">
        <ele>515</ele>
        <time>2021-04-03T11:59:50Z</time>
      </trkpt>
      <trkpt lat="46.21519" lon="6.30373">
        <ele>514.6</ele>
        <time>2021-04-03T11:59:51Z</time>
      </trkpt>
      <trkpt lat="46.21523" lon="6.3038">
        <ele>513.6</ele>
        <time>2021-04-03T11:59:52Z</time>
      </trkpt>
      <trkpt lat="46.21527" lon="6.30387">
        <ele>513</ele>
        <time>2021-04-03T11:59:53Z</time>
      </trkpt>
      <trkpt lat="46.21531" lon="6.30393">
        <ele>512.8</ele>
        <time>2021-04-03T11:59:54Z</time>
      </trkpt>
      <trkpt lat="46.21536" lon="6.30399">
        <ele>512.4</ele>
        <time>2021-04-03T11:59:55Z</time>
      </trkpt>
      <trkpt lat="46.2154" lon="6.30405">
        <ele>512.2</ele>
        <time>2021-04-03T11:59:56Z</time>
      </trkpt>
      <trkpt lat="46.21544" lon="6.30411">
        <ele>511.8</ele>
        <time>2021-04-03T11:59:57Z</time>
      </trkpt>
      <trkpt lat="46.21549" lon="6.30417">
        <ele>511.8</ele>
        <time>2021-04-03T11:59:58Z</time>
      </trkpt>
      <trkpt lat="46.21553" lon="6.30423">
        <ele>511.8</ele>
        <time>2021-04-03T11:59:59Z</time>
      </trkpt>
      <trkpt lat="46.21557" lon="6.30429">
        <ele>511.6</ele>
        <time>2021-04-03T12:00:00Z</time>
      </trkpt>
      <trkpt lat="46.21562" lon="6.30435">
        <ele>511.6</ele>
        <time>2021-04-03T12:00:01Z</time>
      </trkpt>
      <trkpt lat="46.21566" lon="6.30441">
        <ele>511.6</ele>
        <time>2021-04-03T12:00:02Z</time>
      </trkpt>
      <trkpt lat="46.2157" lon="6.30447">
        <ele>511.4</ele>
        <time>2021-04-03T12:00:03Z</time>
      </trkpt>
      <trkpt lat="46.21575" lon="6.30453">
        <ele>511.6</ele>
        <time>2021-04-03T12:00:04Z</time>
      </trkpt>
      <trkpt lat="46.2158" lon="6.30459">
        <ele>511.4</ele>
        <time>2021-04-03T12:00:05Z</time>
      </trkpt>
      <trkpt lat="46.21584" lon="6.30464">
        <ele>511.4</ele>
        <time>2021-04-03T12:00:06Z</time>
      </trkpt>
      <trkpt lat="46.21589" lon="6.3047">
        <ele>511.4</ele>
        <time>2021-04-03T12:00:07Z</time>
      </trkpt>
      <trkpt lat="46.21593" lon="6.30476">
        <ele>511.4</ele>
        <time>2021-04-03T12:00:08Z</time>
      </trkpt>
      <trkpt lat="46.21598" lon="6.30482">
        <ele>511.4</ele>
        <time>2021-04-03T12:00:09Z</time>
      </trkpt>
      <trkpt lat="46.21602" lon="6.30487">
        <ele>511.4</ele>
        <time>2021-04-03T12:00:10Z</time>
      </trkpt>
      <trkpt lat="46.21606" lon="6.30492">
        <ele>511.2</ele>
        <time>2021-04-03T12:00:11Z</time>
      </trkpt>
      <trkpt lat="46.21611" lon="6.30498">
        <ele>511.2</ele>
        <time>2021-04-03T12:00:12Z</time>
      </trkpt>
      <trkpt lat="46.21615" lon="6.30503">
        <ele>511.2</ele>
        <time>2021-04-03T12:00:13Z</time>
      </trkpt>
      <trkpt lat="46.21619" lon="6.30509">
        <ele>511.2</ele>
        <time>2021-04-03T12:00:14Z</time>
      </trkpt>
      <trkpt lat="46.21624" lon="6.30514">
        <ele>511.2</ele>
        <time>2021-04-03T12:00:15Z</time>
      </trkpt>
      <trkpt lat="46.21628" lon="6.3052">
        <ele>511.2</ele>
        <time>2021-04-03T12:00:16Z</time>
      </trkpt>
      <trkpt lat="46.21632" lon="6.30525">
        <ele>511.2</ele>
        <time>2021-04-03T12:00:17Z</time>
      </trkpt>
      <trkpt lat="46.21637" lon="6.30531">
        <ele>511.2</ele>
        <time>2021-04-03T12:00:18Z</time>
      </trkpt>
      <trkpt lat="46.21641" lon="6.30537">
        <ele>511.2</ele>
        <time>2021-04-03T12:00:19Z</time>
      </trkpt>
      <trkpt lat="46.21646" lon="6.30542">
        <ele>511.2</ele>
        <time>2021-04-03T12:00:20Z</time>
      </trkpt>
      <trkpt lat="46.2165" lon="6.30548">
        <ele>511.2</ele>
        <time>2021-04-03T12:00:21Z</time>
      </trkpt>
      <trkpt lat="46.21654" lon="6.30554">
        <ele>511</ele>
        <time>2021-04-03T12:00:22Z</time>
      </trkpt>
      <trkpt lat="46.21658" lon="6.30559">
        <ele>511</ele>
        <time>2021-04-03T12:00:23Z</time>
      </trkpt>
      <trkpt lat="46.21663" lon="6.30565">
        <ele>511</ele>
        <time>2021-04-03T12:00:24Z</time>
      </trkpt>
      <trkpt lat="46.21667" lon="6.30571">
        <ele>511</ele>
        <time>2021-04-03T12:00:25Z</time>
      </trkpt>
      <trkpt lat="46.21671" lon="6.30577">
        <ele>511</ele>
        <time>2021-04-03T12:00:26Z</time>
      </trkpt>
      <trkpt lat="46.21676" lon="6.30582">
        <ele>511</ele>
        <time>2021-04-03T12:00:27Z</time>
      </trkpt>
      <trkpt lat="46.2168" lon="6.30588">
        <ele>510.8</ele>
        <time>2021-04-03T12:00:28Z</time>
      </trkpt>
      <trkpt lat="46.21684" lon="6.30594">
        <ele>510.6</ele>
        <time>2021-04-03T12:00:29Z</time>
      </trkpt>
      <trkpt lat="46.21688" lon="6.306">
        <ele>510.4</ele>
        <time>2021-04-03T12:00:30Z</time>
      </trkpt>
      <trkpt lat="46.21693" lon="6.30605">
        <ele>510.4</ele>
        <time>2021-04-03T12:00:31Z</time>
      </trkpt>
      <trkpt lat="46.21697" lon="6.30611">
        <ele>510.2</ele>
        <time>2021-04-03T12:00:32Z</time>
      </trkpt>
      <trkpt lat="46.21701" lon="6.30616">
        <ele>509.8</ele>
        <time>2021-04-03T12:00:33Z</time>
      </trkpt>
      <trkpt lat="46.21705" lon="6.30621">
        <ele>509.8</ele>
        <time>2021-04-03T12:00:34Z</time>
      </trkpt>
      <trkpt lat="46.21709" lon="6.30626">
        <ele>509.8</ele>
        <time>2021-04-03T12:00:35Z</time>
      </trkpt>
      <trkpt lat="46.21713" lon="6.30631">
        <ele>509.4</ele>
        <time>2021-04-03T12:00:36Z</time>
      </trkpt>
      <trkpt lat="46.21717" lon="6.30636">
        <ele>509.4</ele>
        <time>2021-04-03T12:00:37Z</time>
      </trkpt>
      <trkpt lat="46.2172" lon="6.30641">
        <ele>509.2</ele>
        <time>2021-04-03T12:00:38Z</time>
      </trkpt>
      <trkpt lat="46.21724" lon="6.30646">
        <ele>509.4</ele>
        <time>2021-04-03T12:00:39Z</time>
      </trkpt>
      <trkpt lat="46.21729" lon="6.30651">
        <ele>509.2</ele>
        <time>2021-04-03T12:00:40Z</time>
      </trkpt>
      <trkpt lat="46.21733" lon="6.30656">
        <ele>509.2</ele>
        <time>2021-04-03T12:00:41Z</time>
      </trkpt>
      <trkpt lat="46.21737" lon="6.30661">
        <ele>509.2</ele>
        <time>2021-04-03T12:00:42Z</time>
      </trkpt>
      <trkpt lat="46.21741" lon="6.30666">
        <ele>509.2</ele>
        <time>2021-04-03T12:00:43Z</time>
      </trkpt>
      <trkpt lat="46.21745" lon="6.30671">
        <ele>509</ele>
        <time>2021-04-03T12:00:44Z</time>
      </trkpt>
      <trkpt lat="46.2175" lon="6.30676">
        <ele>509.2</ele>
        <time>2021-04-03T12:00:45Z</time>
      </trkpt>
      <trkpt lat="46.21754" lon="6.30681">
        <ele>509.4</ele>
        <time>2021-04-03T12:00:46Z</time>
      </trkpt>
      <trkpt lat="46.21758" lon="6.30686">
        <ele>509.4</ele>
        <time>2021-04-03T12:00:47Z</time>
      </trkpt>
      <trkpt lat="46.21763" lon="6.30691">
        <ele>509.4</ele>
        <time>2021-04-03T12:00:48Z</time>
      </trkpt>
      <trkpt lat="46.21767" lon="6.30696">
        <ele>509.6</ele>
        <time>2021-04-03T12:00:49Z</time>
      </trkpt>
      <trkpt lat="46.21771" lon="6.30701">
        <ele>509.6</ele>
        <time>2021-04-03T12:00:50Z</time>
      </trkpt>
      <trkpt lat="46.21775" lon="6.30706">
        <ele>509.8</ele>
        <time>2021-04-03T12:00:51Z</time>
      </trkpt>
      <trkpt lat="46.21779" lon="6.30711">
        <ele>509.6</ele>
        <time>2021-04-03T12:00:52Z</time>
      </trkpt>
      <trkpt lat="46.21784" lon="6.30716">
        <ele>510</ele>
        <time>2021-04-03T12:00:53Z</time>
      </trkpt>
      <trkpt lat="46.21788" lon="6.30721">
        <ele>510</ele>
        <time>2021-04-03T12:00:54Z</time>
      </trkpt>
      <trkpt lat="46.21792" lon="6.30725">
        <ele>510</ele>
        <time>2021-04-03T12:00:55Z</time>
      </trkpt>
      <trkpt lat="46.21797" lon="6.3073">
        <ele>510</ele>
        <time>2021-04-03T12:00:56Z</time>
      </trkpt>
      <trkpt lat="46.21801" lon="6.30735">
        <ele>510</ele>
        <time>2021-04-03T12:00:57Z</time>
      </trkpt>
      <trkpt lat="46.21805" lon="6.3074">
        <ele>510</ele>
        <time>2021-04-03T12:00:58Z</time>
      </trkpt>
      <trkpt lat="46.21809" lon="6.30745">
        <ele>510.2</ele>
        <time>2021-04-03T12:00:59Z</time>
      </trkpt>
      <trkpt lat="46.21813" lon="6.3075">
        <ele>510.2</ele>
        <time>2021-04-03T12:01:00Z</time>
      </trkpt>
      <trkpt lat="46.21817" lon="6.30755">
        <ele>510.2</ele>
        <time>2021-04-03T12:01:01Z</time>
      </trkpt>
      <trkpt lat="46.21821" lon="6.30759">
        <ele>510.4</ele>
        <time>2021-04-03T12:01:02Z</time>
      </trkpt>
      <trkpt lat="46.21824" lon="6.30763">
        <ele>510.4</ele>
        <time>2021-04-03T12:01:03Z</time>
      </trkpt>
      <trkpt lat="46.21828" lon="6.30768">
        <ele>510.6</ele>
        <time>2021-04-03T12:01:04Z</time>
      </trkpt>
      <trkpt lat="46.21832" lon="6.30772">
        <ele>510.8</ele>
        <time>2021-04-03T12:01:05Z</time>
      </trkpt>
      <trkpt lat="46.21835" lon="6.30776">
        <ele>511</ele>
        <time>2021-04-03T12:01:06Z</time>
      </trkpt>
      <trkpt lat="46.21839" lon="6.3078">
        <ele>511.2</ele>
        <time>2021-04-03T12:01:07Z</time>
      </trkpt>
      <trkpt lat="46.21842" lon="6.30784">
        <ele>511.2</ele>
        <time>2021-04-03T12:01:08Z</time>
      </trkpt>
      <trkpt lat="46.21846" lon="6.30788">
        <ele>511.2</ele>
        <time>2021-04-03T12:01:09Z</time>
      </trkpt>
      <trkpt lat="46.21849" lon="6.30792">
        <ele>511.2</ele>
        <time>2021-04-03T12:01:10Z</time>
      </trkpt>
      <trkpt lat="46.21852" lon="6.30797">
        <ele>511.6</ele>
        <time>2021-04-03T12:01:11Z</time>
      </trkpt>
      <trkpt lat="46.21856" lon="6.30801">
        <ele>512</ele>
        <time>2021-04-03T12:01:12Z</time>
      </trkpt>
      <trkpt lat="46.21859" lon="6.30805">
        <ele>512</ele>
        <time>2021-04-03T12:01:13Z</time>
      </trkpt>
      <trkpt lat="46.21863" lon="6.30809">
        <ele>512</ele>
        <time>2021-04-03T12:01:14Z</time>
      </trkpt>
      <trkpt lat="46.21867" lon="6.30813">
        <ele>512.4</ele>
        <time>2021-04-03T12:01:15Z</time>
      </trkpt>
      <trkpt lat="46.2187" lon="6.30817">
        <ele>512.4</ele>
        <time>2021-04-03T12:01:16Z</time>
      </trkpt>
      <trkpt lat="46.21874" lon="6.30821">
        <ele>512.8</ele>
        <time>2021-04-03T12:01:17Z</time>
      </trkpt>
      <trkpt lat="46.21877" lon="6.30825">
        <ele>513.2</ele>
        <time>2021-04-03T12:01:18Z</time>
      </trkpt>
      <trkpt lat="46.21881" lon="6.30829">
        <ele>513.4</ele>
        <time>2021-04-03T12:01:19Z</time>
      </trkpt>
      <trkpt lat="46.21884" lon="6.30833">
        <ele>513.4</ele>
        <time>2021-04-03T12:01:20Z</time>
      </trkpt>
      <trkpt lat="46.21888" lon="6.30838">
        <ele>513.6</ele>
        <time>2021-04-03T12:01:21Z</time>
      </trkpt>
      <trkpt lat="46.21891" lon="6.30841">
        <ele>514.2</ele>
        <time>2021-04-03T12:01:22Z</time>
      </trkpt>
      <trkpt lat="46.21894" lon="6.30845">
        <ele>514.6</ele>
        <time>2021-04-03T12:01:23Z</time>
      </trkpt>
      <trkpt lat="46.21898" lon="6.30849">
        <ele>514.8</ele>
        <time>2021-04-03T12:01:24Z</time>
      </trkpt>
      <trkpt lat="46.21901" lon="6.30853">
        <ele>515</ele>
        <time>2021-04-03T12:01:25Z</time>
      </trkpt>
      <trkpt lat="46.21904" lon="6.30857">
        <ele>515.2</ele>
        <time>2021-04-03T12:01:26Z</time>
      </trkpt>
      <trkpt lat="46.21908" lon="6.3086">
        <ele>515.4</ele>
        <time>2021-04-03T12:01:27Z</time>
      </trkpt>
      <trkpt lat="46.21911" lon="6.30864">
        <ele>515.4</ele>
        <time>2021-04-03T12:01:28Z</time>
      </trkpt>
      <trkpt lat="46.21915" lon="6.30868">
        <ele>515.4</ele>
        <time>2021-04-03T12:01:29Z</time>
      </trkpt>
      <trkpt lat="46.21919" lon="6.30872">
        <ele>515.8</ele>
        <time>2021-04-03T12:01:30Z</time>
      </trkpt>
      <trkpt lat="46.21922" lon="6.30876">
        <ele>515.8</ele>
        <time>2021-04-03T12:01:31Z</time>
      </trkpt>
      <trkpt lat="46.21926" lon="6.3088">
        <ele>516</ele>
        <time>2021-04-03T12:01:32Z</time>
      </trkpt>
      <trkpt lat="46.2193" lon="6.30884">
        <ele>516</ele>
        <time>2021-04-03T12:01:33Z</time>
      </trkpt>
      <trkpt lat="46.21933" lon="6.30888">
        <ele>516.2</ele>
        <time>2021-04-03T12:01:34Z</time>
      </trkpt>
      <trkpt lat="46.21937" lon="6.30892">
        <ele>516.2</ele>
        <time>2021-04-03T12:01:35Z</time>
      </trkpt>
      <trkpt lat="46.2194" lon="6.30896">
        <ele>516.2</ele>
        <time>2021-04-03T12:01:36Z</time>
      </trkpt>
      <trkpt lat="46.21943" lon="6.309">
        <ele>516.4</ele>
        <time>2021-04-03T12:01:37Z</time>
      </trkpt>
      <trkpt lat="46.21947" lon="6.30904">
        <ele>516.4</ele>
        <time>2021-04-03T12:01:38Z</time>
      </trkpt>
      <trkpt lat="46.2195" lon="6.30908">
        <ele>516.6</ele>
        <time>2021-04-03T12:01:39Z</time>
      </trkpt>
      <trkpt lat="46.21954" lon="6.30912">
        <ele>516.4</ele>
        <time>2021-04-03T12:01:40Z</time>
      </trkpt>
      <trkpt lat="46.21958" lon="6.30916">
        <ele>516.4</ele>
        <time>2021-04-03T12:01:41Z</time>
      </trkpt>
      <trkpt lat="46.21961" lon="6.3092">
        <ele>516.6</ele>
        <time>2021-04-03T12:01:42Z</time>
      </trkpt>
      <trkpt lat="46.21964" lon="6.30924">
        <ele>516.6</ele>
        <time>2021-04-03T12:01:43Z</time>
      </trkpt>
      <trkpt lat="46.21968" lon="6.30928">
        <ele>516.6</ele>
        <time>2021-04-03T12:01:44Z</time>
      </trkpt>
      <trkpt lat="46.21973" lon="6.30932">
        <ele>516.6</ele>
        <time>2021-04-03T12:01:45Z</time>
      </trkpt>
      <trkpt lat="46.21977" lon="6.30936">
        <ele>516.6</ele>
        <time>2021-04-03T12:01:46Z</time>
      </trkpt>
      <trkpt lat="46.21982" lon="6.3094">
        <ele>516.6</ele>
        <time>2021-04-03T12:01:47Z</time>
      </trkpt>
      <trkpt lat="46.21986" lon="6.30945">
        <ele>516.8</ele>
        <time>2021-04-03T12:01:48Z</time>
      </trkpt>
      <trkpt lat="46.2199" lon="6.3095">
        <ele>516.8</ele>
        <time>2021-04-03T12:01:49Z</time>
      </trkpt>
      <trkpt lat="46.21995" lon="6.30954">
        <ele>516.6</ele>
        <time>2021-04-03T12:01:50Z</time>
      </trkpt>
      <trkpt lat="46.21999" lon="6.30958">
        <ele>516.6</ele>
        <time>2021-04-03T12:01:51Z</time>
      </trkpt>
      <trkpt lat="46.22004" lon="6.30962">
        <ele>516.6</ele>
        <time>2021-04-03T12:01:52Z</time>
      </trkpt>
      <trkpt lat="46.22008" lon="6.30966">
        <ele>516.6</ele>
        <time>2021-04-03T12:01:53Z</time>
      </trkpt>
      <trkpt lat="46.22012" lon="6.3097">
        <ele>516.6</ele>
        <time>2021-04-03T12:01:54Z</time>
      </trkpt>
      <trkpt lat="46.22016" lon="6.30974">
        <ele>516.6</ele>
        <time>2021-04-03T12:01:55Z</time>
      </trkpt>
      <trkpt lat="46.2202" lon="6.30978">
        <ele>516.2</ele>
        <time>2021-04-03T12:01:56Z</time>
      </trkpt>
      <trkpt lat="46.22024" lon="6.30983">
        <ele>516.2</ele>
        <time>2021-04-03T12:01:57Z</time>
      </trkpt>
      <trkpt lat="46.22028" lon="6.30988">
        <ele>516.2</ele>
        <time>2021-04-03T12:01:58Z</time>
      </trkpt>
      <trkpt lat="46.22031" lon="6.30993">
        <ele>516</ele>
        <time>2021-04-03T12:01:59Z</time>
      </trkpt>
      <trkpt lat="46.22034" lon="6.30999">
        <ele>516</ele>
        <time>2021-04-03T12:02:00Z</time>
      </trkpt>
      <trkpt lat="46.22036" lon="6.31004">
        <ele>516.2</ele>
        <time>2021-04-03T12:02:01Z</time>
      </trkpt>
      <trkpt lat="46.22039" lon="6.3101">
        <ele>516.4</ele>
        <time>2021-04-03T12:02:02Z</time>
      </trkpt>
      <trkpt lat="46.22041" lon="6.31016">
        <ele>516.4</ele>
        <time>2021-04-03T12:02:03Z</time>
      </trkpt>
      <trkpt lat="46.22043" lon="6.31022">
        <ele>516.4</ele>
        <time>2021-04-03T12:02:04Z</time>
      </trkpt>
      <trkpt lat="46.22044" lon="6.31028">
        <ele>516.4</ele>
        <time>2021-04-03T12:02:05Z</time>
      </trkpt>
      <trkpt lat="46.22047" lon="6.31034">
        <ele>516.4</ele>
        <time>2021-04-03T12:02:06Z</time>
      </trkpt>
      <trkpt lat="46.22048" lon="6.31039">
        <ele>516.4</ele>
        <time>2021-04-03T12:02:07Z</time>
      </trkpt>
      <trkpt lat="46.2205" lon="6.31045">
        <ele>516.6</ele>
        <time>2021-04-03T12:02:08Z</time>
      </trkpt>
      <trkpt lat="46.22051" lon="6.31051">
        <ele>516.6</ele>
        <time>2021-04-03T12:02:09Z</time>
      </trkpt>
      <trkpt lat="46.22053" lon="6.31057">
        <ele>516.6</ele>
        <time>2021-04-03T12:02:10Z</time>
      </trkpt>
      <trkpt lat="46.22054" lon="6.31063">
        <ele>516.8</ele>
        <time>2021-04-03T12:02:11Z</time>
      </trkpt>
      <trkpt lat="46.22056" lon="6.3107">
        <ele>517.4</ele>
        <time>2021-04-03T12:02:12Z</time>
      </trkpt>
      <trkpt lat="46.22058" lon="6.31076">
        <ele>517.8</ele>
        <time>2021-04-03T12:02:13Z</time>
      </trkpt>
      <trkpt lat="46.22061" lon="6.31082">
        <ele>518</ele>
        <time>2021-04-03T12:02:14Z</time>
      </trkpt>
      <trkpt lat="46.22064" lon="6.31088">
        <ele>518.4</ele>
        <time>2021-04-03T12:02:15Z</time>
      </trkpt>
      <trkpt lat="46.22066" lon="6.31094">
        <ele>518.4</ele>
        <time>2021-04-03T12:02:16Z</time>
      </trkpt>
      <trkpt lat="46.22068" lon="6.31101">
        <ele>518.4</ele>
        <time>2021-04-03T12:02:17Z</time>
      </trkpt>
      <trkpt lat="46.2207" lon="6.31107">
        <ele>518.4</ele>
        <time>2021-04-03T12:02:18Z</time>
      </trkpt>
      <trkpt lat="46.22072" lon="6.31113">
        <ele>518.6</ele>
        <time>2021-04-03T12:02:19Z</time>
      </trkpt>
      <trkpt lat="46.22074" lon="6.31119">
        <ele>518.4</ele>
        <time>2021-04-03T12:02:20Z</time>
      </trkpt>
      <trkpt lat="46.22076" lon="6.31125">
        <ele>518.6</ele>
        <time>2021-04-03T12:02:21Z</time>
      </trkpt>
      <trkpt lat="46.22078" lon="6.31132">
        <ele>518.6</ele>
        <time>2021-04-03T12:02:22Z</time>
      </trkpt>
      <trkpt lat="46.22079" lon="6.31138">
        <ele>518.4</ele>
        <time>2021-04-03T12:02:23Z</time>
      </trkpt>
      <trkpt lat="46.22081" lon="6.31145">
        <ele>518.6</ele>
        <time>2021-04-03T12:02:24Z</time>
      </trkpt>
      <trkpt lat="46.22082" lon="6.31151">
        <ele>518.6</ele>
        <time>2021-04-03T12:02:25Z</time>
      </trkpt>
      <trkpt lat="46.22084" lon="6.31157">
        <ele>518.6</ele>
        <time>2021-04-03T12:02:26Z</time>
      </trkpt>
      <trkpt lat="46.22085" lon="6.31163">
        <ele>518.6</ele>
        <time>2021-04-03T12:02:27Z</time>
      </trkpt>
      <trkpt lat="46.22086" lon="6.3117">
        <ele>518.6</ele>
        <time>2021-04-03T12:02:28Z</time>
      </trkpt>
      <trkpt lat="46.22087" lon="6.31176">
        <ele>518.6</ele>
        <time>2021-04-03T12:02:29Z</time>
      </trkpt>
      <trkpt lat="46.22089" lon="6.31182">
        <ele>518.6</ele>
        <time>2021-04-03T12:02:30Z</time>
      </trkpt>
      <trkpt lat="46.2209" lon="6.31188">
        <ele>518.6</ele>
        <time>2021-04-03T12:02:31Z</time>
      </trkpt>
      <trkpt lat="46.22091" lon="6.31194">
        <ele>518.8</ele>
        <time>2021-04-03T12:02:32Z</time>
      </trkpt>
      <trkpt lat="46.22092" lon="6.31199">
        <ele>518.6</ele>
        <time>2021-04-03T12:02:33Z</time>
      </trkpt>
      <trkpt lat="46.22094" lon="6.31205">
        <ele>518.8</ele>
        <time>2021-04-03T12:02:34Z</time>
      </trkpt>
      <trkpt lat="46.22095" lon="6.31211">
        <ele>518.8</ele>
        <time>2021-04-03T12:02:35Z</time>
      </trkpt>
      <trkpt lat="46.22098" lon="6.31216">
        <ele>519</ele>
        <time>2021-04-03T12:02:36Z</time>
      </trkpt>
      <trkpt lat="46.221" lon="6.31222">
        <ele>519</ele>
        <time>2021-04-03T12:02:37Z</time>
      </trkpt>
      <trkpt lat="46.22104" lon="6.31227">
        <ele>519.2</ele>
        <time>2021-04-03T12:02:38Z</time>
      </trkpt>
      <trkpt lat="46.22107" lon="6.31233">
        <ele>519.4</ele>
        <time>2021-04-03T12:02:39Z</time>
      </trkpt>
      <trkpt lat="46.22111" lon="6.31238">
        <ele>519.6</ele>
        <time>2021-04-03T12:02:40Z</time>
      </trkpt>
      <trkpt lat="46.22115" lon="6.31243">
        <ele>519.8</ele>
        <time>2021-04-03T12:02:41Z</time>
      </trkpt>
      <trkpt lat="46.22119" lon="6.31249">
        <ele>519.8</ele>
        <time>2021-04-03T12:02:42Z</time>
      </trkpt>
      <trkpt lat="46.22123" lon="6.31254">
        <ele>519.8</ele>
        <time>2021-04-03T12:02:43Z</time>
      </trkpt>
      <trkpt lat="46.22127" lon="6.31259">
        <ele>520</ele>
        <time>2021-04-03T12:02:44Z</time>
      </trkpt>
      <trkpt lat="46.22131" lon="6.31264">
        <ele>520</ele>
        <time>2021-04-03T12:02:45Z</time>
      </trkpt>
      <trkpt lat="46.22135" lon="6.31269">
        <ele>519.8</ele>
        <time>2021-04-03T12:02:46Z</time>
      </trkpt>
      <trkpt lat="46.22139" lon="6.31274">
        <ele>520</ele>
        <time>2021-04-03T12:02:47Z</time>
      </trkpt>
      <trkpt lat="46.22143" lon="6.31279">
        <ele>519.8</ele>
        <time>2021-04-03T12:02:48Z</time>
      </trkpt>
      <trkpt lat="46.22147" lon="6.31284">
        <ele>520</ele>
        <time>2021-04-03T12:02:49Z</time>
      </trkpt>
      <trkpt lat="46.2215" lon="6.31289">
        <ele>520</ele>
        <time>2021-04-03T12:02:50Z</time>
      </trkpt>
      <trkpt lat="46.22154" lon="6.31293">
        <ele>520</ele>
        <time>2021-04-03T12:02:51Z</time>
      </trkpt>
      <trkpt lat="46.22158" lon="6.31298">
        <ele>520</ele>
        <time>2021-04-03T12:02:52Z</time>
      </trkpt>
      <trkpt lat="46.22161" lon="6.31303">
        <ele>520.2</ele>
        <time>2021-04-03T12:02:53Z</time>
      </trkpt>
      <trkpt lat="46.22165" lon="6.31307">
        <ele>520.2</ele>
        <time>2021-04-03T12:02:54Z</time>
      </trkpt>
      <trkpt lat="46.22168" lon="6.31312">
        <ele>520</ele>
        <time>2021-04-03T12:02:55Z</time>
      </trkpt>
      <trkpt lat="46.22172" lon="6.31317">
        <ele>520.2</ele>
        <time>2021-04-03T12:02:56Z</time>
      </trkpt>
      <trkpt lat="46.22175" lon="6.31322">
        <ele>520</ele>
        <time>2021-04-03T12:02:57Z</time>
      </trkpt>
      <trkpt lat="46.22179" lon="6.31326">
        <ele>520.2</ele>
        <time>2021-04-03T12:02:58Z</time>
      </trkpt>
      <trkpt lat="46.22183" lon="6.31331">
        <ele>520.2</ele>
        <time>2021-04-03T12:02:59Z</time>
      </trkpt>
      <trkpt lat="46.22187" lon="6.31335">
        <ele>520.4</ele>
        <time>2021-04-03T12:03:00Z</time>
      </trkpt>
      <trkpt lat="46.2219" lon="6.3134">
        <ele>520.2</ele>
        <time>2021-04-03T12:03:01Z</time>
      </trkpt>
      <trkpt lat="46.22194" lon="6.31344">
        <ele>520.4</ele>
        <time>2021-04-03T12:03:02Z</time>
      </trkpt>
      <trkpt lat="46.22197" lon="6.31349">
        <ele>520.4</ele>
        <time>2021-04-03T12:03:03Z</time>
      </trkpt>
      <trkpt lat="46.22201" lon="6.31354">
        <ele>520.6</ele>
        <time>2021-04-03T12:03:04Z</time>
      </trkpt>
      <trkpt lat="46.22204" lon="6.31358">
        <ele>520.6</ele>
        <time>2021-04-03T12:03:05Z</time>
      </trkpt>
      <trkpt lat="46.22208" lon="6.31363">
        <ele>520.6</ele>
        <time>2021-04-03T12:03:06Z</time>
      </trkpt>
      <trkpt lat="46.22211" lon="6.31367">
        <ele>520.6</ele>
        <time>2021-04-03T12:03:07Z</time>
      </trkpt>
      <trkpt lat="46.22214" lon="6.31372">
        <ele>520.8</ele>
        <time>2021-04-03T12:03:08Z</time>
      </trkpt>
      <trkpt lat="46.22217" lon="6.31376">
        <ele>520.6</ele>
        <time>2021-04-03T12:03:09Z</time>
      </trkpt>
      <trkpt lat="46.2222" lon="6.3138">
        <ele>520.8</ele>
        <time>2021-04-03T12:03:10Z</time>
      </trkpt>
      <trkpt lat="46.22223" lon="6.31384">
        <ele>520.8</ele>
        <time>2021-04-03T12:03:11Z</time>
      </trkpt>
      <trkpt lat="46.22226" lon="6.31388">
        <ele>521</ele>
        <time>2021-04-03T12:03:12Z</time>
      </trkpt>
      <trkpt lat="46.22229" lon="6.31392">
        <ele>521.2</ele>
        <time>2021-04-03T12:03:13Z</time>
      </trkpt>
      <trkpt lat="46.22232" lon="6.31395">
        <ele>521.6</ele>
        <time>2021-04-03T12:03:14Z</time>
      </trkpt>
      <trkpt lat="46.22235" lon="6.31399">
        <ele>522</ele>
        <time>2021-04-03T12:03:15Z</time>
      </trkpt>
      <trkpt lat="46.22238" lon="6.31403">
        <ele>522.4</ele>
        <time>2021-04-03T12:03:16Z</time>
      </trkpt>
      <trkpt lat="46.22241" lon="6.31407">
        <ele>522.4</ele>
        <time>2021-04-03T12:03:17Z</time>
      </trkpt>
      <trkpt lat="46.22244" lon="6.31411">
        <ele>522.4</ele>
        <time>2021-04-03T12:03:18Z</time>
      </trkpt>
      <trkpt lat="46.22247" lon="6.31414">
        <ele>522.6</ele>
        <time>2021-04-03T12:03:19Z</time>
      </trkpt>
      <trkpt lat="46.2225" lon="6.31418">
        <ele>522.4</ele>
        <time>2021-04-03T12:03:20Z</time>
      </trkpt>
      <trkpt lat="46.22254" lon="6.31421">
        <ele>522.6</ele>
        <time>2021-04-03T12:03:21Z</time>
      </trkpt>
      <trkpt lat="46.22258" lon="6.31424">
        <ele>522.6</ele>
        <time>2021-04-03T12:03:22Z</time>
      </trkpt>
      <trkpt lat="46.22262" lon="6.31427">
        <ele>522.6</ele>
        <time>2021-04-03T12:03:23Z</time>
      </trkpt>
      <trkpt lat="46.22266" lon="6.3143">
        <ele>522.6</ele>
        <time>2021-04-03T12:03:24Z</time>
      </trkpt>
      <trkpt lat="46.2227" lon="6.31433">
        <ele>522.8</ele>
        <time>2021-04-03T12:03:25Z</time>
      </trkpt>
      <trkpt lat="46.22274" lon="6.31435">
        <ele>523</ele>
        <time>2021-04-03T12:03:26Z</time>
      </trkpt>
      <trkpt lat="46.22279" lon="6.31437">
        <ele>522.8</ele>
        <time>2021-04-03T12:03:27Z</time>
      </trkpt>
      <trkpt lat="46.22283" lon="6.31439">
        <ele>523</ele>
        <time>2021-04-03T12:03:28Z</time>
      </trkpt>
      <trkpt lat="46.22287" lon="6.31442">
        <ele>523</ele>
        <time>2021-04-03T12:03:29Z</time>
      </trkpt>
      <trkpt lat="46.22292" lon="6.31444">
        <ele>523</ele>
        <time>2021-04-03T12:03:30Z</time>
      </trkpt>
      <trkpt lat="46.22296" lon="6.31446">
        <ele>523.2</ele>
        <time>2021-04-03T12:03:31Z</time>
      </trkpt>
      <trkpt lat="46.223" lon="6.31447">
        <ele>523.2</ele>
        <time>2021-04-03T12:03:32Z</time>
      </trkpt>
      <trkpt lat="46.22304" lon="6.31449">
        <ele>523</ele>
        <time>2021-04-03T12:03:33Z</time>
      </trkpt>
      <trkpt lat="46.22309" lon="6.3145">
        <ele>523</ele>
        <time>2021-04-03T12:03:34Z</time>
      </trkpt>
      <trkpt lat="46.22313" lon="6.31452">
        <ele>522.8</ele>
        <time>2021-04-03T12:03:35Z</time>
      </trkpt>
      <trkpt lat="46.22317" lon="6.31453">
        <ele>523</ele>
        <time>2021-04-03T12:03:36Z</time>
      </trkpt>
      <trkpt lat="46.22321" lon="6.31453">
        <ele>522.8</ele>
        <time>2021-04-03T12:03:37Z</time>
      </trkpt>
      <trkpt lat="46.22325" lon="6.31454">
        <ele>522.8</ele>
        <time>2021-04-03T12:03:38Z</time>
      </trkpt>
      <trkpt lat="46.22329" lon="6.31455">
        <ele>523</ele>
        <time>2021-04-03T12:03:39Z</time>
      </trkpt>
      <trkpt lat="46.22334" lon="6.31455">
        <ele>523.4</ele>
        <time>2021-04-03T12:03:40Z</time>
      </trkpt>
      <trkpt lat="46.22338" lon="6.31456">
        <ele>523.2</ele>
        <time>2021-04-03T12:03:41Z</time>
      </trkpt>
      <trkpt lat="46.22343" lon="6.31456">
        <ele>523.6</ele>
        <time>2021-04-03T12:03:42Z</time>
      </trkpt>
      <trkpt lat="46.22348" lon="6.31456">
        <ele>523.6</ele>
        <time>2021-04-03T12:03:43Z</time>
      </trkpt>
      <trkpt lat="46.22353" lon="6.31456">
        <ele>523.8</ele>
        <time>2021-04-03T12:03:44Z</time>
      </trkpt>
      <trkpt lat="46.22357" lon="6.31456">
        <ele>523.8</ele>
        <time>2021-04-03T12:03:45Z</time>
      </trkpt>
      <trkpt lat="46.22362" lon="6.31456">
        <ele>523.8</ele>
        <time>2021-04-03T12:03:46Z</time>
      </trkpt>
      <trkpt lat="46.22367" lon="6.31456">
        <ele>524.2</ele>
        <time>2021-04-03T12:03:47Z</time>
      </trkpt>
      <trkpt lat="46.22372" lon="6.31456">
        <ele>524.2</ele>
        <time>2021-04-03T12:03:48Z</time>
      </trkpt>
      <trkpt lat="46.22376" lon="6.31455">
        <ele>524.2</ele>
        <time>2021-04-03T12:03:49Z</time>
      </trkpt>
      <trkpt lat="46.22381" lon="6.31455">
        <ele>524.2</ele>
        <time>2021-04-03T12:03:50Z</time>
      </trkpt>
      <trkpt lat="46.22386" lon="6.31455">
        <ele>524</ele>
        <time>2021-04-03T12:03:51Z</time>
      </trkpt>
      <trkpt lat="46.2239" lon="6.31455">
        <ele>524.2</ele>
        <time>2021-04-03T12:03:52Z</time>
      </trkpt>
      <trkpt lat="46.22395" lon="6.31454">
        <ele>524.4</ele>
        <time>2021-04-03T12:03:53Z</time>
      </trkpt>
      <trkpt lat="46.224" lon="6.31454">
        <ele>524.2</ele>
        <time>2021-04-03T12:03:54Z</time>
      </trkpt>
      <trkpt lat="46.22404" lon="6.31453">
        <ele>524.4</ele>
        <time>2021-04-03T12:03:55Z</time>
      </trkpt>
      <trkpt lat="46.22409" lon="6.31453">
        <ele>524.2</ele>
        <time>2021-04-03T12:03:56Z</time>
      </trkpt>
      <trkpt lat="46.22414" lon="6.31453">
        <ele>524.2</ele>
        <time>2021-04-03T12:03:57Z</time>
      </trkpt>
      <trkpt lat="46.22418" lon="6.31453">
        <ele>524.2</ele>
        <time>2021-04-03T12:03:58Z</time>
      </trkpt>
      <trkpt lat="46.22423" lon="6.31453">
        <ele>524.4</ele>
        <time>2021-04-03T12:03:59Z</time>
      </trkpt>
      <trkpt lat="46.22428" lon="6.31452">
        <ele>524.4</ele>
        <time>2021-04-03T12:04:00Z</time>
      </trkpt>
      <trkpt lat="46.22432" lon="6.31452">
        <ele>524.6</ele>
        <time>2021-04-03T12:04:01Z</time>
      </trkpt>
      <trkpt lat="46.22437" lon="6.31453">
        <ele>524.6</ele>
        <time>2021-04-03T12:04:02Z</time>
      </trkpt>
      <trkpt lat="46.22442" lon="6.31453">
        <ele>524.6</ele>
        <time>2021-04-03T12:04:03Z</time>
      </trkpt>
      <trkpt lat="46.22446" lon="6.31453">
        <ele>524.8</ele>
        <time>2021-04-03T12:04:04Z</time>
      </trkpt>
      <trkpt lat="46.22451" lon="6.31454">
        <ele>525</ele>
        <time>2021-04-03T12:04:05Z</time>
      </trkpt>
      <trkpt lat="46.22456" lon="6.31454">
        <ele>524.6</ele>
        <time>2021-04-03T12:04:06Z</time>
      </trkpt>
      <trkpt lat="46.22461" lon="6.31454">
        <ele>524.8</ele>
        <time>2021-04-03T12:04:07Z</time>
      </trkpt>
      <trkpt lat="46.22466" lon="6.31455">
        <ele>524.8</ele>
        <time>2021-04-03T12:04:08Z</time>
      </trkpt>
      <trkpt lat="46.22471" lon="6.31455">
        <ele>524.8</ele>
        <time>2021-04-03T12:04:09Z</time>
      </trkpt>
      <trkpt lat="46.22475" lon="6.31456">
        <ele>524.8</ele>
        <time>2021-04-03T12:04:10Z</time>
      </trkpt>
      <trkpt lat="46.2248" lon="6.31456">
        <ele>524.6</ele>
        <time>2021-04-03T12:04:11Z</time>
      </trkpt>
      <trkpt lat="46.22484" lon="6.31457">
        <ele>524.4</ele>
        <time>2021-04-03T12:04:12Z</time>
      </trkpt>
      <trkpt lat="46.22489" lon="6.31457">
        <ele>524.4</ele>
        <time>2021-04-03T12:04:13Z</time>
      </trkpt>
      <trkpt lat="46.22493" lon="6.31458">
        <ele>524.4</ele>
        <time>2021-04-03T12:04:14Z</time>
      </trkpt>
      <trkpt lat="46.22498" lon="6.31458">
        <ele>524.4</ele>
        <time>2021-04-03T12:04:15Z</time>
      </trkpt>
      <trkpt lat="46.22503" lon="6.31458">
        <ele>524.4</ele>
        <time>2021-04-03T12:04:16Z</time>
      </trkpt>
      <trkpt lat="46.22508" lon="6.31459">
        <ele>524.4</ele>
        <time>2021-04-03T12:04:17Z</time>
      </trkpt>
      <trkpt lat="46.22513" lon="6.31459">
        <ele>524.2</ele>
        <time>2021-04-03T12:04:18Z</time>
      </trkpt>
      <trkpt lat="46.22518" lon="6.3146">
        <ele>524.2</ele>
        <time>2021-04-03T12:04:19Z</time>
      </trkpt>
      <trkpt lat="46.22523" lon="6.31461">
        <ele>524</ele>
        <time>2021-04-03T12:04:20Z</time>
      </trkpt>
      <trkpt lat="46.22527" lon="6.31461">
        <ele>523.8</ele>
        <time>2021-04-03T12:04:21Z</time>
      </trkpt>
      <trkpt lat="46.22532" lon="6.31462">
        <ele>523.8</ele>
        <time>2021-04-03T12:04:22Z</time>
      </trkpt>
      <trkpt lat="46.22537" lon="6.31463">
        <ele>523.8</ele>
        <time>2021-04-03T12:04:23Z</time>
      </trkpt>
      <trkpt lat="46.22542" lon="6.31463">
        <ele>523.6</ele>
        <time>2021-04-03T12:04:24Z</time>
      </trkpt>
      <trkpt lat="46.22547" lon="6.31464">
        <ele>523.6</ele>
        <time>2021-04-03T12:04:25Z</time>
      </trkpt>
      <trkpt lat="46.22552" lon="6.31465">
        <ele>523.8</ele>
        <time>2021-04-03T12:04:26Z</time>
      </trkpt>
      <trkpt lat="46.22557" lon="6.31466">
        <ele>523.6</ele>
        <time>2021-04-03T12:04:27Z</time>
      </trkpt>
      <trkpt lat="46.22562" lon="6.31466">
        <ele>523.6</ele>
        <time>2021-04-03T12:04:28Z</time>
      </trkpt>
      <trkpt lat="46.22567" lon="6.31467">
        <ele>523.8</ele>
        <time>2021-04-03T12:04:29Z</time>
      </trkpt>
      <trkpt lat="46.22572" lon="6.31468">
        <ele>523.8</ele>
        <time>2021-04-03T12:04:30Z</time>
      </trkpt>
      <trkpt lat="46.22577" lon="6.31468">
        <ele>523.8</ele>
        <time>2021-04-03T12:04:31Z</time>
      </trkpt>
      <trkpt lat="46.22582" lon="6.31469">
        <ele>523.6</ele>
        <time>2021-04-03T12:04:32Z</time>
      </trkpt>
      <trkpt lat="46.22586" lon="6.3147">
        <ele>523.8</ele>
        <time>2021-04-03T12:04:33Z</time>
      </trkpt>
      <trkpt lat="46.22591" lon="6.31471">
        <ele>523.8</ele>
        <time>2021-04-03T12:04:34Z</time>
      </trkpt>
      <trkpt lat="46.22596" lon="6.31472">
        <ele>524</ele>
        <time>2021-04-03T12:04:35Z</time>
      </trkpt>
      <trkpt lat="46.226" lon="6.31473">
        <ele>524.2</ele>
        <time>2021-04-03T12:04:36Z</time>
      </trkpt>
      <trkpt lat="46.22605" lon="6.31474">
        <ele>524.2</ele>
        <time>2021-04-03T12:04:37Z</time>
      </trkpt>
      <trkpt lat="46.22609" lon="6.31474">
        <ele>524.2</ele>
        <time>2021-04-03T12:04:38Z</time>
      </trkpt>
      <trkpt lat="46.22614" lon="6.31475">
        <ele>524.4</ele>
        <time>2021-04-03T12:04:39Z</time>
      </trkpt>
      <trkpt lat="46.22619" lon="6.31475">
        <ele>524.4</ele>
        <time>2021-04-03T12:04:40Z</time>
      </trkpt>
      <trkpt lat="46.22623" lon="6.31475">
        <ele>524.6</ele>
        <time>2021-04-03T12:04:41Z</time>
      </trkpt>
      <trkpt lat="46.22628" lon="6.31475">
        <ele>524.8</ele>
        <time>2021-04-03T12:04:42Z</time>
      </trkpt>
      <trkpt lat="46.22632" lon="6.31475">
        <ele>524.8</ele>
        <time>2021-04-03T12:04:43Z</time>
      </trkpt>
      <trkpt lat="46.22635" lon="6.31475">
        <ele>525.2</ele>
        <time>2021-04-03T12:04:44Z</time>
      </trkpt>
      <trkpt lat="46.22639" lon="6.31475">
        <ele>525.2</ele>
        <time>2021-04-03T12:04:45Z</time>
      </trkpt>
      <trkpt lat="46.22643" lon="6.31476">
        <ele>525.4</ele>
        <time>2021-04-03T12:04:46Z</time>
      </trkpt>
      <trkpt lat="46.22647" lon="6.31477">
        <ele>525.4</ele>
        <time>2021-04-03T12:04:47Z</time>
      </trkpt>
      <trkpt lat="46.22652" lon="6.31478">
        <ele>525.4</ele>
        <time>2021-04-03T12:04:48Z</time>
      </trkpt>
      <trkpt lat="46.22656" lon="6.31479">
        <ele>525.4</ele>
        <time>2021-04-03T12:04:49Z</time>
      </trkpt>
      <trkpt lat="46.22661" lon="6.3148">
        <ele>525.4</ele>
        <time>2021-04-03T12:04:50Z</time>
      </trkpt>
      <trkpt lat="46.22666" lon="6.31481">
        <ele>525.6</ele>
        <time>2021-04-03T12:04:51Z</time>
      </trkpt>
      <trkpt lat="46.22671" lon="6.31481">
        <ele>525.6</ele>
        <time>2021-04-03T12:04:52Z</time>
      </trkpt>
      <trkpt lat="46.22676" lon="6.31482">
        <ele>525.6</ele>
        <time>2021-04-03T12:04:53Z</time>
      </trkpt>
      <trkpt lat="46.22681" lon="6.31482">
        <ele>525.4</ele>
        <time>2021-04-03T12:04:54Z</time>
      </trkpt>
      <trkpt lat="46.22686" lon="6.31483">
        <ele>525.6</ele>
        <time>2021-04-03T12:04:55Z</time>
      </trkpt>
      <trkpt lat="46.22691" lon="6.31484">
        <ele>525.4</ele>
        <time>2021-04-03T12:04:56Z</time>
      </trkpt>
      <trkpt lat="46.22696" lon="6.31484">
        <ele>525.4</ele>
        <time>2021-04-03T12:04:57Z</time>
      </trkpt>
      <trkpt lat="46.22701" lon="6.31486">
        <ele>525.4</ele>
        <time>2021-04-03T12:04:58Z</time>
      </trkpt>
      <trkpt lat="46.22705" lon="6.31487">
        <ele>525.4</ele>
        <time>2021-04-03T12:04:59Z</time>
      </trkpt>
      <trkpt lat="46.22711" lon="6.31489">
        <ele>525.4</ele>
        <time>2021-04-03T12:05:00Z</time>
      </trkpt>
      <trkpt lat="46.22716" lon="6.3149">
        <ele>525.2</ele>
        <time>2021-04-03T12:05:01Z</time>
      </trkpt>
      <trkpt lat="46.22721" lon="6.31492">
        <ele>525.2</ele>
        <time>2021-04-03T12:05:02Z</time>
      </trkpt>
      <trkpt lat="46.22726" lon="6.31494">
        <ele>525.2</ele>
        <time>2021-04-03T12:05:03Z</time>
      </trkpt>
      <trkpt lat="46.22731" lon="6.31496">
        <ele>525.2</ele>
        <time>2021-04-03T12:05:04Z</time>
      </trkpt>
      <trkpt lat="46.22736" lon="6.31498">
        <ele>525.2</ele>
        <time>2021-04-03T12:05:05Z</time>
      </trkpt>
      <trkpt lat="46.2274" lon="6.31499">
        <ele>525.2</ele>
        <time>2021-04-03T12:05:06Z</time>
      </trkpt>
      <trkpt lat="46.22745" lon="6.31502">
        <ele>525.2</ele>
        <time>2021-04-03T12:05:07Z</time>
      </trkpt>
      <trkpt lat="46.2275" lon="6.31504">
        <ele>525.2</ele>
        <time>2021-04-03T12:05:08Z</time>
      </trkpt>
      <trkpt lat="46.22755" lon="6.31506">
        <ele>525.4</ele>
        <time>2021-04-03T12:05:09Z</time>
      </trkpt>
      <trkpt lat="46.2276" lon="6.31508">
        <ele>525.4</ele>
        <time>2021-04-03T12:05:10Z</time>
      </trkpt>
      <trkpt lat="46.22765" lon="6.31511">
        <ele>525.4</ele>
        <time>2021-04-03T12:05:11Z</time>
      </trkpt>
      <trkpt lat="46.22769" lon="6.31514">
        <ele>525.6</ele>
        <time>2021-04-03T12:05:12Z</time>
      </trkpt>
      <trkpt lat="46.22774" lon="6.31517">
        <ele>525.6</ele>
        <time>2021-04-03T12:05:13Z</time>
      </trkpt>
      <trkpt lat="46.22779" lon="6.31519">
        <ele>525.6</ele>
        <time>2021-04-03T12:05:14Z</time>
      </trkpt>
      <trkpt lat="46.22784" lon="6.31522">
        <ele>525.8</ele>
        <time>2021-04-03T12:05:15Z</time>
      </trkpt>
      <trkpt lat="46.22789" lon="6.31525">
        <ele>526</ele>
        <time>2021-04-03T12:05:16Z</time>
      </trkpt>
      <trkpt lat="46.22794" lon="6.31528">
        <ele>525.8</ele>
        <time>2021-04-03T12:05:17Z</time>
      </trkpt>
      <trkpt lat="46.22799" lon="6.31531">
        <ele>526</ele>
        <time>2021-04-03T12:05:18Z</time>
      </trkpt>
      <trkpt lat="46.22804" lon="6.31534">
        <ele>526</ele>
        <time>2021-04-03T12:05:19Z</time>
      </trkpt>
      <trkpt lat="46.22809" lon="6.31538">
        <ele>526.2</ele>
        <time>2021-04-03T12:05:20Z</time>
      </trkpt>
      <trkpt lat="46.22814" lon="6.31541">
        <ele>526.2</ele>
        <time>2021-04-03T12:05:21Z</time>
      </trkpt>
      <trkpt lat="46.22819" lon="6.31545">
        <ele>526.2</ele>
        <time>2021-04-03T12:05:22Z</time>
      </trkpt>
      <trkpt lat="46.22823" lon="6.31548">
        <ele>526</ele>
        <time>2021-04-03T12:05:23Z</time>
      </trkpt>
      <trkpt lat="46.22828" lon="6.31551">
        <ele>526.2</ele>
        <time>2021-04-03T12:05:24Z</time>
      </trkpt>
      <trkpt lat="46.22832" lon="6.31554">
        <ele>526.2</ele>
        <time>2021-04-03T12:05:25Z</time>
      </trkpt>
      <trkpt lat="46.22837" lon="6.31558">
        <ele>526.2</ele>
        <time>2021-04-03T12:05:26Z</time>
      </trkpt>
      <trkpt lat="46.22841" lon="6.31561">
        <ele>526</ele>
        <time>2021-04-03T12:05:27Z</time>
      </trkpt>
      <trkpt lat="46.22845" lon="6.31564">
        <ele>526.4</ele>
        <time>2021-04-03T12:05:28Z</time>
      </trkpt>
      <trkpt lat="46.22849" lon="6.31568">
        <ele>526.4</ele>
        <time>2021-04-03T12:05:29Z</time>
      </trkpt>
      <trkpt lat="46.22854" lon="6.31571">
        <ele>526.4</ele>
        <time>2021-04-03T12:05:30Z</time>
      </trkpt>
      <trkpt lat="46.22858" lon="6.31575">
        <ele>526.4</ele>
        <time>2021-04-03T12:05:31Z</time>
      </trkpt>
      <trkpt lat="46.22863" lon="6.31579">
        <ele>526.4</ele>
        <time>2021-04-03T12:05:32Z</time>
      </trkpt>
      <trkpt lat="46.22867" lon="6.31583">
        <ele>526.4</ele>
        <time>2021-04-03T12:05:33Z</time>
      </trkpt>
      <trkpt lat="46.22872" lon="6.31587">
        <ele>526.4</ele>
        <time>2021-04-03T12:05:34Z</time>
      </trkpt>
      <trkpt lat="46.22877" lon="6.31592">
        <ele>526.2</ele>
        <time>2021-04-03T12:05:35Z</time>
      </trkpt>
      <trkpt lat="46.22882" lon="6.31596">
        <ele>526.2</ele>
        <time>2021-04-03T12:05:36Z</time>
      </trkpt>
      <trkpt lat="46.22887" lon="6.31601">
        <ele>526</ele>
        <time>2021-04-03T12:05:37Z</time>
      </trkpt>
      <trkpt lat="46.22892" lon="6.31607">
        <ele>525.8</ele>
        <time>2021-04-03T12:05:38Z</time>
      </trkpt>
      <trkpt lat="46.22897" lon="6.31613">
        <ele>526</ele>
        <time>2021-04-03T12:05:39Z</time>
      </trkpt>
      <trkpt lat="46.22901" lon="6.3162">
        <ele>525.8</ele>
        <time>2021-04-03T12:05:40Z</time>
      </trkpt>
      <trkpt lat="46.22905" lon="6.31627">
        <ele>525.8</ele>
        <time>2021-04-03T12:05:41Z</time>
      </trkpt>
      <trkpt lat="46.2291" lon="6.31634">
        <ele>525.8</ele>
        <time>2021-04-03T12:05:42Z</time>
      </trkpt>
      <trkpt lat="46.22914" lon="6.31641">
        <ele>525.4</ele>
        <time>2021-04-03T12:05:43Z</time>
      </trkpt>
      <trkpt lat="46.22918" lon="6.31648">
        <ele>525</ele>
        <time>2021-04-03T12:05:44Z</time>
      </trkpt>
      <trkpt lat="46.22922" lon="6.31654">
        <ele>524.8</ele>
        <time>2021-04-03T12:05:45Z</time>
      </trkpt>
      <trkpt lat="46.22927" lon="6.31659">
        <ele>524.6</ele>
        <time>2021-04-03T12:05:46Z</time>
      </trkpt>
      <trkpt lat="46.2293" lon="6.31665">
        <ele>524.4</ele>
        <time>2021-04-03T12:05:47Z</time>
      </trkpt>
      <trkpt lat="46.22934" lon="6.3167">
        <ele>524</ele>
        <time>2021-04-03T12:05:48Z</time>
      </trkpt>
      <trkpt lat="46.22938" lon="6.31675">
        <ele>523.8</ele>
        <time>2021-04-03T12:05:49Z</time>
      </trkpt>
      <trkpt lat="46.22942" lon="6.3168">
        <ele>523.6</ele>
        <time>2021-04-03T12:05:50Z</time>
      </trkpt>
      <trkpt lat="46.22946" lon="6.31685">
        <ele>523.6</ele>
        <time>2021-04-03T12:05:51Z</time>
      </trkpt>
      <trkpt lat="46.2295" lon="6.31689">
        <ele>523.4</ele>
        <time>2021-04-03T12:05:52Z</time>
      </trkpt>
      <trkpt lat="46.22954" lon="6.31693">
        <ele>523.6</ele>
        <time>2021-04-03T12:05:53Z</time>
      </trkpt>
      <trkpt lat="46.22959" lon="6.31697">
        <ele>523.4</ele>
        <time>2021-04-03T12:05:54Z</time>
      </trkpt>
      <trkpt lat="46.22963" lon="6.31701">
        <ele>523.4</ele>
        <time>2021-04-03T12:05:55Z</time>
      </trkpt>
      <trkpt lat="46.22968" lon="6.31704">
        <ele>523.4</ele>
        <time>2021-04-03T12:05:56Z</time>
      </trkpt>
      <trkpt lat="46.22972" lon="6.31708">
        <ele>523.4</ele>
        <time>2021-04-03T12:05:57Z</time>
      </trkpt>
      <trkpt lat="46.22976" lon="6.31711">
        <ele>523.4</ele>
        <time>2021-04-03T12:05:58Z</time>
      </trkpt>
      <trkpt lat="46.2298" lon="6.31714">
        <ele>523.6</ele>
        <time>2021-04-03T12:05:59Z</time>
      </trkpt>
      <trkpt lat="46.22984" lon="6.31718">
        <ele>523.6</ele>
        <time>2021-04-03T12:06:00Z</time>
      </trkpt>
      <trkpt lat="46.22988" lon="6.31721">
        <ele>523.8</ele>
        <time>2021-04-03T12:06:01Z</time>
      </trkpt>
      <trkpt lat="46.22993" lon="6.31725">
        <ele>524</ele>
        <time>2021-04-03T12:06:02Z</time>
      </trkpt>
      <trkpt lat="46.22997" lon="6.31728">
        <ele>524.2</ele>
        <time>2021-04-03T12:06:03Z</time>
      </trkpt>
      <trkpt lat="46.23001" lon="6.31731">
        <ele>524.6</ele>
        <time>2021-04-03T12:06:04Z</time>
      </trkpt>
      <trkpt lat="46.23005" lon="6.31735">
        <ele>524.8</ele>
        <time>2021-04-03T12:06:05Z</time>
      </trkpt>
      <trkpt lat="46.23008" lon="6.31739">
        <ele>524.8</ele>
        <time>2021-04-03T12:06:06Z</time>
      </trkpt>
      <trkpt lat="46.23012" lon="6.31743">
        <ele>524.8</ele>
        <time>2021-04-03T12:06:07Z</time>
      </trkpt>
      <trkpt lat="46.23016" lon="6.31746">
        <ele>524.8</ele>
        <time>2021-04-03T12:06:08Z</time>
      </trkpt>
      <trkpt lat="46.2302" lon="6.3175">
        <ele>525</ele>
        <time>2021-04-03T12:06:09Z</time>
      </trkpt>
      <trkpt lat="46.23024" lon="6.31754">
        <ele>525.2</ele>
        <time>2021-04-03T12:06:10Z</time>
      </trkpt>
      <trkpt lat="46.23028" lon="6.31757">
        <ele>525.4</ele>
        <time>2021-04-03T12:06:11Z</time>
      </trkpt>
      <trkpt lat="46.23031" lon="6.31761">
        <ele>525.6</ele>
        <time>2021-04-03T12:06:12Z</time>
      </trkpt>
      <trkpt lat="46.23035" lon="6.31764">
        <ele>525.8</ele>
        <time>2021-04-03T12:06:13Z</time>
      </trkpt>
      <trkpt lat="46.23039" lon="6.31767">
        <ele>525.8</ele>
        <time>2021-04-03T12:06:14Z</time>
      </trkpt>
      <trkpt lat="46.23042" lon="6.31771">
        <ele>526</ele>
        <time>2021-04-03T12:06:15Z</time>
      </trkpt>
      <trkpt lat="46.23045" lon="6.31775">
        <ele>526.2</ele>
        <time>2021-04-03T12:06:16Z</time>
      </trkpt>
      <trkpt lat="46.23048" lon="6.31778">
        <ele>526.8</ele>
        <time>2021-04-03T12:06:17Z</time>
      </trkpt>
      <trkpt lat="46.23051" lon="6.31782">
        <ele>527.2</ele>
        <time>2021-04-03T12:06:18Z</time>
      </trkpt>
      <trkpt lat="46.23055" lon="6.31786">
        <ele>527.6</ele>
        <time>2021-04-03T12:06:19Z</time>
      </trkpt>
      <trkpt lat="46.23058" lon="6.3179">
        <ele>528</ele>
        <time>2021-04-03T12:06:20Z</time>
      </trkpt>
      <trkpt lat="46.23062" lon="6.31793">
        <ele>528</ele>
        <time>2021-04-03T12:06:21Z</time>
      </trkpt>
      <trkpt lat="46.23066" lon="6.31797">
        <ele>528.6</ele>
        <time>2021-04-03T12:06:22Z</time>
      </trkpt>
      <trkpt lat="46.2307" lon="6.318">
        <ele>528.6</ele>
        <time>2021-04-03T12:06:23Z</time>
      </trkpt>
      <trkpt lat="46.23073" lon="6.31803">
        <ele>528.8</ele>
        <time>2021-04-03T12:06:24Z</time>
      </trkpt>
      <trkpt lat="46.23077" lon="6.31807">
        <ele>529</ele>
        <time>2021-04-03T12:06:25Z</time>
      </trkpt>
      <trkpt lat="46.23081" lon="6.3181">
        <ele>529.2</ele>
        <time>2021-04-03T12:06:26Z</time>
      </trkpt>
      <trkpt lat="46.23086" lon="6.31814">
        <ele>529.4</ele>
        <time>2021-04-03T12:06:27Z</time>
      </trkpt>
      <trkpt lat="46.2309" lon="6.31817">
        <ele>529.8</ele>
        <time>2021-04-03T12:06:28Z</time>
      </trkpt>
      <trkpt lat="46.23094" lon="6.31821">
        <ele>530</ele>
        <time>2021-04-03T12:06:29Z</time>
      </trkpt>
      <trkpt lat="46.23098" lon="6.31824">
        <ele>530.2</ele>
        <time>2021-04-03T12:06:30Z</time>
      </trkpt>
      <trkpt lat="46.23102" lon="6.31828">
        <ele>530.4</ele>
        <time>2021-04-03T12:06:31Z</time>
      </trkpt>
      <trkpt lat="46.23106" lon="6.31831">
        <ele>530.4</ele>
        <time>2021-04-03T12:06:32Z</time>
      </trkpt>
      <trkpt lat="46.2311" lon="6.31835">
        <ele>530.6</ele>
        <time>2021-04-03T12:06:33Z</time>
      </trkpt>
      <trkpt lat="46.23114" lon="6.31838">
        <ele>530.8</ele>
        <time>2021-04-03T12:06:34Z</time>
      </trkpt>
      <trkpt lat="46.23118" lon="6.31842">
        <ele>530.8</ele>
        <time>2021-04-03T12:06:35Z</time>
      </trkpt>
      <trkpt lat="46.23122" lon="6.31845">
        <ele>530.8</ele>
        <time>2021-04-03T12:06:36Z</time>
      </trkpt>
      <trkpt lat="46.23126" lon="6.31849">
        <ele>530.8</ele>
        <time>2021-04-03T12:06:37Z</time>
      </trkpt>
      <trkpt lat="46.23129" lon="6.31853">
        <ele>530.8</ele>
        <time>2021-04-03T12:06:38Z</time>
      </trkpt>
      <trkpt lat="46.23133" lon="6.31857">
        <ele>530.8</ele>
        <time>2021-04-03T12:06:39Z</time>
      </trkpt>
      <trkpt lat="46.23136" lon="6.3186">
        <ele>531</ele>
        <time>2021-04-03T12:06:40Z</time>
      </trkpt>
      <trkpt lat="46.2314" lon="6.31861">
        <ele>531</ele>
        <time>2021-04-03T12:06:41Z</time>
      </trkpt>
      <trkpt lat="46.23144" lon="6.31862">
        <ele>531.2</ele>
        <time>2021-04-03T12:06:42Z</time>
      </trkpt>
      <trkpt lat="46.23149" lon="6.31863">
        <ele>531</ele>
        <time>2021-04-03T12:06:43Z</time>
      </trkpt>
      <trkpt lat="46.23154" lon="6.31864">
        <ele>531</ele>
        <time>2021-04-03T12:06:44Z</time>
      </trkpt>
      <trkpt lat="46.23159" lon="6.31866">
        <ele>531</ele>
        <time>2021-04-03T12:06:45Z</time>
      </trkpt>
      <trkpt lat="46.23165" lon="6.31869">
        <ele>530.8</ele>
        <time>2021-04-03T12:06:46Z</time>
      </trkpt>
      <trkpt lat="46.2317" lon="6.31871">
        <ele>531</ele>
        <time>2021-04-03T12:06:47Z</time>
      </trkpt>
      <trkpt lat="46.23175" lon="6.31874">
        <ele>530.8</ele>
        <time>2021-04-03T12:06:48Z</time>
      </trkpt>
      <trkpt lat="46.2318" lon="6.31877">
        <ele>530.8</ele>
        <time>2021-04-03T12:06:49Z</time>
      </trkpt>
      <trkpt lat="46.23186" lon="6.3188">
        <ele>530.6</ele>
        <time>2021-04-03T12:06:50Z</time>
      </trkpt>
      <trkpt lat="46.23191" lon="6.31883">
        <ele>530.6</ele>
        <time>2021-04-03T12:06:51Z</time>
      </trkpt>
      <trkpt lat="46.23196" lon="6.31886">
        <ele>530.4</ele>
        <time>2021-04-03T12:06:52Z</time>
      </trkpt>
      <trkpt lat="46.23202" lon="6.3189">
        <ele>530.2</ele>
        <time>2021-04-03T12:06:53Z</time>
      </trkpt>
      <trkpt lat="46.23207" lon="6.31893">
        <ele>530.2</ele>
        <time>2021-04-03T12:06:54Z</time>
      </trkpt>
      <trkpt lat="46.23213" lon="6.31897">
        <ele>530</ele>
        <time>2021-04-03T12:06:55Z</time>
      </trkpt>
      <trkpt lat="46.23218" lon="6.31901">
        <ele>530</ele>
        <time>2021-04-03T12:06:56Z</time>
      </trkpt>
      <trkpt lat="46.23223" lon="6.31905">
        <ele>529.8</ele>
        <time>2021-04-03T12:06:57Z</time>
      </trkpt>
      <trkpt lat="46.23227" lon="6.31909">
        <ele>529.4</ele>
        <time>2021-04-03T12:06:58Z</time>
      </trkpt>
      <trkpt lat="46.23232" lon="6.31913">
        <ele>529.2</ele>
        <time>2021-04-03T12:06:59Z</time>
      </trkpt>
      <trkpt lat="46.23237" lon="6.31917">
        <ele>529.2</ele>
        <time>2021-04-03T12:07:00Z</time>
      </trkpt>
      <trkpt lat="46.23242" lon="6.3192">
        <ele>529.2</ele>
        <time>2021-04-03T12:07:01Z</time>
      </trkpt>
      <trkpt lat="46.23247" lon="6.31923">
        <ele>529</ele>
        <time>2021-04-03T12:07:02Z</time>
      </trkpt>
      <trkpt lat="46.23253" lon="6.31926">
        <ele>529</ele>
        <time>2021-04-03T12:07:03Z</time>
      </trkpt>
      <trkpt lat="46.23258" lon="6.31928">
        <ele>529</ele>
        <time>2021-04-03T12:07:04Z</time>
      </trkpt>
      <trkpt lat="46.23264" lon="6.31931">
        <ele>528.8</ele>
        <time>2021-04-03T12:07:05Z</time>
      </trkpt>
      <trkpt lat="46.23269" lon="6.31934">
        <ele>528.6</ele>
        <time>2021-04-03T12:07:06Z</time>
      </trkpt>
      <trkpt lat="46.23274" lon="6.31936">
        <ele>528.6</ele>
        <time>2021-04-03T12:07:07Z</time>
      </trkpt>
      <trkpt lat="46.23279" lon="6.31939">
        <ele>528.6</ele>
        <time>2021-04-03T12:07:08Z</time>
      </trkpt>
      <trkpt lat="46.23284" lon="6.31941">
        <ele>528.8</ele>
        <time>2021-04-03T12:07:09Z</time>
      </trkpt>
      <trkpt lat="46.23289" lon="6.31944">
        <ele>528.8</ele>
        <time>2021-04-03T12:07:10Z</time>
      </trkpt>
      <trkpt lat="46.23293" lon="6.31947">
        <ele>528.6</ele>
        <time>2021-04-03T12:07:11Z</time>
      </trkpt>
      <trkpt lat="46.23298" lon="6.31949">
        <ele>528.8</ele>
        <time>2021-04-03T12:07:12Z</time>
      </trkpt>
      <trkpt lat="46.23302" lon="6.31952">
        <ele>528.8</ele>
        <time>2021-04-03T12:07:13Z</time>
      </trkpt>
      <trkpt lat="46.23305" lon="6.31955">
        <ele>529</ele>
        <time>2021-04-03T12:07:14Z</time>
      </trkpt>
      <trkpt lat="46.23309" lon="6.31957">
        <ele>529</ele>
        <time>2021-04-03T12:07:15Z</time>
      </trkpt>
      <trkpt lat="46.23313" lon="6.3196">
        <ele>529</ele>
        <time>2021-04-03T12:07:16Z</time>
      </trkpt>
      <trkpt lat="46.23317" lon="6.31963">
        <ele>529.2</ele>
        <time>2021-04-03T12:07:17Z</time>
      </trkpt>
      <trkpt lat="46.23321" lon="6.31966">
        <ele>529.4</ele>
        <time>2021-04-03T12:07:18Z</time>
      </trkpt>
      <trkpt lat="46.23324" lon="6.31968">
        <ele>529.4</ele>
        <time>2021-04-03T12:07:19Z</time>
      </trkpt>
      <trkpt lat="46.23328" lon="6.31971">
        <ele>529.4</ele>
        <time>2021-04-03T12:07:20Z</time>
      </trkpt>
      <trkpt lat="46.23332" lon="6.31975">
        <ele>529.6</ele>
        <time>2021-04-03T12:07:21Z</time>
      </trkpt>
      <trkpt lat="46.23335" lon="6.31978">
        <ele>529.8</ele>
        <time>2021-04-03T12:07:22Z</time>
      </trkpt>
      <trkpt lat="46.23339" lon="6.31981">
        <ele>529.8</ele>
        <time>2021-04-03T12:07:23Z</time>
      </trkpt>
      <trkpt lat="46.23342" lon="6.31985">
        <ele>530</ele>
        <time>2021-04-03T12:07:24Z</time>
      </trkpt>
      <trkpt lat="46.23346" lon="6.31989">
        <ele>530</ele>
        <time>2021-04-03T12:07:25Z</time>
      </trkpt>
      <trkpt lat="46.2335" lon="6.31992">
        <ele>530</ele>
        <time>2021-04-03T12:07:26Z</time>
      </trkpt>
      <trkpt lat="46.23354" lon="6.31996">
        <ele>530.2</ele>
        <time>2021-04-03T12:07:27Z</time>
      </trkpt>
      <trkpt lat="46.23357" lon="6.32">
        <ele>530.2</ele>
        <time>2021-04-03T12:07:28Z</time>
      </trkpt>
      <trkpt lat="46.23361" lon="6.32004">
        <ele>530.4</ele>
        <time>2021-04-03T12:07:29Z</time>
      </trkpt>
      <trkpt lat="46.23365" lon="6.32008">
        <ele>530.4</ele>
        <time>2021-04-03T12:07:30Z</time>
      </trkpt>
      <trkpt lat="46.23369" lon="6.32012">
        <ele>530.4</ele>
        <time>2021-04-03T12:07:31Z</time>
      </trkpt>
      <trkpt lat="46.23373" lon="6.32016">
        <ele>530.6</ele>
        <time>2021-04-03T12:07:32Z</time>
      </trkpt>
      <trkpt lat="46.23377" lon="6.3202">
        <ele>530.8</ele>
        <time>2021-04-03T12:07:33Z</time>
      </trkpt>
      <trkpt lat="46.23382" lon="6.32024">
        <ele>531</ele>
        <time>2021-04-03T12:07:34Z</time>
      </trkpt>
      <trkpt lat="46.23386" lon="6.32029">
        <ele>530.8</ele>
        <time>2021-04-03T12:07:35Z</time>
      </trkpt>
      <trkpt lat="46.2339" lon="6.32032">
        <ele>531</ele>
        <time>2021-04-03T12:07:36Z</time>
      </trkpt>
      <trkpt lat="46.23394" lon="6.32036">
        <ele>530.8</ele>
        <time>2021-04-03T12:07:37Z</time>
      </trkpt>
      <trkpt lat="46.23398" lon="6.3204">
        <ele>531.2</ele>
        <time>2021-04-03T12:07:38Z</time>
      </trkpt>
      <trkpt lat="46.23401" lon="6.32044">
        <ele>531.2</ele>
        <time>2021-04-03T12:07:39Z</time>
      </trkpt>
      <trkpt lat="46.23405" lon="6.32047">
        <ele>531.4</ele>
        <time>2021-04-03T12:07:40Z</time>
      </trkpt>
      <trkpt lat="46.23409" lon="6.3205">
        <ele>531.6</ele>
        <time>2021-04-03T12:07:41Z</time>
      </trkpt>
      <trkpt lat="46.23413" lon="6.32052">
        <ele>531.4</ele>
        <time>2021-04-03T12:07:42Z</time>
      </trkpt>
      <trkpt lat="46.23418" lon="6.32053">
        <ele>531.8</ele>
        <time>2021-04-03T12:07:43Z</time>
      </trkpt>
      <trkpt lat="46.23423" lon="6.32054">
        <ele>532</ele>
        <time>2021-04-03T12:07:44Z</time>
      </trkpt>
      <trkpt lat="46.23428" lon="6.32055">
        <ele>532</ele>
        <time>2021-04-03T12:07:45Z</time>
      </trkpt>
      <trkpt lat="46.23433" lon="6.32057">
        <ele>532.2</ele>
        <time>2021-04-03T12:07:46Z</time>
      </trkpt>
      <trkpt lat="46.23438" lon="6.32059">
        <ele>532.4</ele>
        <time>2021-04-03T12:07:47Z</time>
      </trkpt>
      <trkpt lat="46.23443" lon="6.32061">
        <ele>532.6</ele>
        <time>2021-04-03T12:07:48Z</time>
      </trkpt>
      <trkpt lat="46.23448" lon="6.32063">
        <ele>532.8</ele>
        <time>2021-04-03T12:07:49Z</time>
      </trkpt>
      <trkpt lat="46.23452" lon="6.32065">
        <ele>532.8</ele>
        <time>2021-04-03T12:07:50Z</time>
      </trkpt>
      <trkpt lat="46.23457" lon="6.32066">
        <ele>532.8</ele>
        <time>2021-04-03T12:07:51Z</time>
      </trkpt>
      <trkpt lat="46.23461" lon="6.32068">
        <ele>533</ele>
        <time>2021-04-03T12:07:52Z</time>
      </trkpt>
      <trkpt lat="46.23466" lon="6.3207">
        <ele>532.8</ele>
        <time>2021-04-03T12:07:53Z</time>
      </trkpt>
      <trkpt lat="46.2347" lon="6.32072">
        <ele>533</ele>
        <time>2021-04-03T12:07:54Z</time>
      </trkpt>
      <trkpt lat="46.23475" lon="6.32073">
        <ele>533</ele>
        <time>2021-04-03T12:07:55Z</time>
      </trkpt>
      <trkpt lat="46.23479" lon="6.32075">
        <ele>533.2</ele>
        <time>2021-04-03T12:07:56Z</time>
      </trkpt>
      <trkpt lat="46.23484" lon="6.32077">
        <ele>533.2</ele>
        <time>2021-04-03T12:07:57Z</time>
      </trkpt>
      <trkpt lat="46.23489" lon="6.32079">
        <ele>533.4</ele>
        <time>2021-04-03T12:07:58Z</time>
      </trkpt>
      <trkpt lat="46.23493" lon="6.32082">
        <ele>533.8</ele>
        <time>2021-04-03T12:07:59Z</time>
      </trkpt>
      <trkpt lat="46.23498" lon="6.32084">
        <ele>533.8</ele>
        <time>2021-04-03T12:08:00Z</time>
      </trkpt>
      <trkpt lat="46.23502" lon="6.32087">
        <ele>534</ele>
        <time>2021-04-03T12:08:01Z</time>
      </trkpt>
      <trkpt lat="46.23506" lon="6.3209">
        <ele>534</ele>
        <time>2021-04-03T12:08:02Z</time>
      </trkpt>
      <trkpt lat="46.23511" lon="6.32092">
        <ele>534.4</ele>
        <time>2021-04-03T12:08:03Z</time>
      </trkpt>
      <trkpt lat="46.23515" lon="6.32095">
        <ele>534.6</ele>
        <time>2021-04-03T12:08:04Z</time>
      </trkpt>
      <trkpt lat="46.23519" lon="6.32098">
        <ele>534.6</ele>
        <time>2021-04-03T12:08:05Z</time>
      </trkpt>
      <trkpt lat="46.23523" lon="6.32101">
        <ele>534.6</ele>
        <time>2021-04-03T12:08:06Z</time>
      </trkpt>
      <trkpt lat="46.23527" lon="6.32103">
        <ele>535</ele>
        <time>2021-04-03T12:08:07Z</time>
      </trkpt>
      <trkpt lat="46.23531" lon="6.32106">
        <ele>534.8</ele>
        <time>2021-04-03T12:08:08Z</time>
      </trkpt>
      <trkpt lat="46.23535" lon="6.32109">
        <ele>535</ele>
        <time>2021-04-03T12:08:09Z</time>
      </trkpt>
      <trkpt lat="46.23539" lon="6.32112">
        <ele>535.2</ele>
        <time>2021-04-03T12:08:10Z</time>
      </trkpt>
      <trkpt lat="46.23543" lon="6.32115">
        <ele>535.2</ele>
        <time>2021-04-03T12:08:11Z</time>
      </trkpt>
      <trkpt lat="46.23546" lon="6.32118">
        <ele>535.2</ele>
        <time>2021-04-03T12:08:12Z</time>
      </trkpt>
      <trkpt lat="46.2355" lon="6.32121">
        <ele>535.4</ele>
        <time>2021-04-03T12:08:13Z</time>
      </trkpt>
      <trkpt lat="46.23554" lon="6.32124">
        <ele>535.4</ele>
        <time>2021-04-03T12:08:14Z</time>
      </trkpt>
      <trkpt lat="46.23558" lon="6.32127">
        <ele>535.6</ele>
        <time>2021-04-03T12:08:15Z</time>
      </trkpt>
      <trkpt lat="46.23561" lon="6.3213">
        <ele>535.8</ele>
        <time>2021-04-03T12:08:16Z</time>
      </trkpt>
      <trkpt lat="46.23565" lon="6.32133">
        <ele>536</ele>
        <time>2021-04-03T12:08:17Z</time>
      </trkpt>
      <trkpt lat="46.23569" lon="6.32136">
        <ele>536</ele>
        <time>2021-04-03T12:08:18Z</time>
      </trkpt>
      <trkpt lat="46.23572" lon="6.32139">
        <ele>536.2</ele>
        <time>2021-04-03T12:08:19Z</time>
      </trkpt>
      <trkpt lat="46.23576" lon="6.32142">
        <ele>536.4</ele>
        <time>2021-04-03T12:08:20Z</time>
      </trkpt>
      <trkpt lat="46.23579" lon="6.32145">
        <ele>536.8</ele>
        <time>2021-04-03T12:08:21Z</time>
      </trkpt>
      <trkpt lat="46.23582" lon="6.32148">
        <ele>537</ele>
        <time>2021-04-03T12:08:22Z</time>
      </trkpt>
      <trkpt lat="46.23585" lon="6.32151">
        <ele>537.2</ele>
        <time>2021-04-03T12:08:23Z</time>
      </trkpt>
      <trkpt lat="46.23589" lon="6.32154">
        <ele>537.2</ele>
        <time>2021-04-03T12:08:24Z</time>
      </trkpt>
      <trkpt lat="46.23593" lon="6.32157">
        <ele>537.2</ele>
        <time>2021-04-03T12:08:25Z</time>
      </trkpt>
      <trkpt lat="46.23597" lon="6.32161">
        <ele>537.4</ele>
        <time>2021-04-03T12:08:26Z</time>
      </trkpt>
      <trkpt lat="46.236" lon="6.32164">
        <ele>537.6</ele>
        <time>2021-04-03T12:08:27Z</time>
      </trkpt>
      <trkpt lat="46.23604" lon="6.32168">
        <ele>537.4</ele>
        <time>2021-04-03T12:08:28Z</time>
      </trkpt>
      <trkpt lat="46.23608" lon="6.32171">
        <ele>537.6</ele>
        <time>2021-04-03T12:08:29Z</time>
      </trkpt>
      <trkpt lat="46.23612" lon="6.32174">
        <ele>537.4</ele>
        <time>2021-04-03T12:08:30Z</time>
      </trkpt>
      <trkpt lat="46.23615" lon="6.32178">
        <ele>537.6</ele>
        <time>2021-04-03T12:08:31Z</time>
      </trkpt>
      <trkpt lat="46.23619" lon="6.32181">
        <ele>537.6</ele>
        <time>2021-04-03T12:08:32Z</time>
      </trkpt>
      <trkpt lat="46.23623" lon="6.32185">
        <ele>537.6</ele>
        <time>2021-04-03T12:08:33Z</time>
      </trkpt>
      <trkpt lat="46.23627" lon="6.32188">
        <ele>537.6</ele>
        <time>2021-04-03T12:08:34Z</time>
      </trkpt>
      <trkpt lat="46.2363" lon="6.32192">
        <ele>537.6</ele>
        <time>2021-04-03T12:08:35Z</time>
      </trkpt>
      <trkpt lat="46.23634" lon="6.32195">
        <ele>537.8</ele>
        <time>2021-04-03T12:08:36Z</time>
      </trkpt>
      <trkpt lat="46.23637" lon="6.32199">
        <ele>537.6</ele>
        <time>2021-04-03T12:08:37Z</time>
      </trkpt>
      <trkpt lat="46.23641" lon="6.32202">
        <ele>537.6</ele>
        <time>2021-04-03T12:08:38Z</time>
      </trkpt>
      <trkpt lat="46.23645" lon="6.32205">
        <ele>537.4</ele>
        <time>2021-04-03T12:08:39Z</time>
      </trkpt>
      <trkpt lat="46.23648" lon="6.32208">
        <ele>537.4</ele>
        <time>2021-04-03T12:08:40Z</time>
      </trkpt>
      <trkpt lat="46.23652" lon="6.32212">
        <ele>537.6</ele>
        <time>2021-04-03T12:08:41Z</time>
      </trkpt>
      <trkpt lat="46.23656" lon="6.32215">
        <ele>537.4</ele>
        <time>2021-04-03T12:08:42Z</time>
      </trkpt>
      <trkpt lat="46.23659" lon="6.32218">
        <ele>537.4</ele>
        <time>2021-04-03T12:08:43Z</time>
      </trkpt>
      <trkpt lat="46.23663" lon="6.32221">
        <ele>537.2</ele>
        <time>2021-04-03T12:08:44Z</time>
      </trkpt>
      <trkpt lat="46.23666" lon="6.32224">
        <ele>537</ele>
        <time>2021-04-03T12:08:45Z</time>
      </trkpt>
      <trkpt lat="46.2367" lon="6.32227">
        <ele>537</ele>
        <time>2021-04-03T12:08:46Z</time>
      </trkpt>
      <trkpt lat="46.23674" lon="6.3223">
        <ele>536.8</ele>
        <time>2021-04-03T12:08:47Z</time>
      </trkpt>
      <trkpt lat="46.23679" lon="6.32233">
        <ele>536.8</ele>
        <time>2021-04-03T12:08:48Z</time>
      </trkpt>
      <trkpt lat="46.23683" lon="6.32237">
        <ele>536.4</ele>
        <time>2021-04-03T12:08:49Z</time>
      </trkpt>
      <trkpt lat="46.23688" lon="6.32242">
        <ele>536.4</ele>
        <time>2021-04-03T12:08:50Z</time>
      </trkpt>
      <trkpt lat="46.23692" lon="6.32246">
        <ele>536.4</ele>
        <time>2021-04-03T12:08:51Z</time>
      </trkpt>
      <trkpt lat="46.23696" lon="6.32251">
        <ele>536.2</ele>
        <time>2021-04-03T12:08:52Z</time>
      </trkpt>
      <trkpt lat="46.23701" lon="6.32255">
        <ele>536.2</ele>
        <time>2021-04-03T12:08:53Z</time>
      </trkpt>
      <trkpt lat="46.23705" lon="6.3226">
        <ele>536.2</ele>
        <time>2021-04-03T12:08:54Z</time>
      </trkpt>
      <trkpt lat="46.2371" lon="6.32264">
        <ele>536.2</ele>
        <time>2021-04-03T12:08:55Z</time>
      </trkpt>
      <trkpt lat="46.23714" lon="6.32268">
        <ele>536.4</ele>
        <time>2021-04-03T12:08:56Z</time>
      </trkpt>
      <trkpt lat="46.23718" lon="6.32273">
        <ele>536.6</ele>
        <time>2021-04-03T12:08:57Z</time>
      </trkpt>
      <trkpt lat="46.23722" lon="6.32277">
        <ele>536.6</ele>
        <time>2021-04-03T12:08:58Z</time>
      </trkpt>
      <trkpt lat="46.23727" lon="6.32281">
        <ele>536.8</ele>
        <time>2021-04-03T12:08:59Z</time>
      </trkpt>
      <trkpt lat="46.23731" lon="6.32285">
        <ele>536.8</ele>
        <time>2021-04-03T12:09:00Z</time>
      </trkpt>
      <trkpt lat="46.23736" lon="6.3229">
        <ele>536.8</ele>
        <time>2021-04-03T12:09:01Z</time>
      </trkpt>
      <trkpt lat="46.2374" lon="6.32294">
        <ele>537</ele>
        <time>2021-04-03T12:09:02Z</time>
      </trkpt>
      <trkpt lat="46.23745" lon="6.32298">
        <ele>537</ele>
        <time>2021-04-03T12:09:03Z</time>
      </trkpt>
      <trkpt lat="46.2375" lon="6.32303">
        <ele>537.2</ele>
        <time>2021-04-03T12:09:04Z</time>
      </trkpt>
      <trkpt lat="46.23754" lon="6.32307">
        <ele>537.2</ele>
        <time>2021-04-03T12:09:05Z</time>
      </trkpt>
      <trkpt lat="46.23759" lon="6.32312">
        <ele>537.4</ele>
        <time>2021-04-03T12:09:06Z</time>
      </trkpt>
      <trkpt lat="46.23764" lon="6.32316">
        <ele>537.8</ele>
        <time>2021-04-03T12:09:07Z</time>
      </trkpt>
      <trkpt lat="46.23768" lon="6.3232">
        <ele>538</ele>
        <time>2021-04-03T12:09:08Z</time>
      </trkpt>
      <trkpt lat="46.23772" lon="6.32324">
        <ele>538</ele>
        <time>2021-04-03T12:09:09Z</time>
      </trkpt>
      <trkpt lat="46.23776" lon="6.32328">
        <ele>538.4</ele>
        <time>2021-04-03T12:09:10Z</time>
      </trkpt>
      <trkpt lat="46.2378" lon="6.32331">
        <ele>538.2</ele>
        <time>2021-04-03T12:09:11Z</time>
      </trkpt>
      <trkpt lat="46.23784" lon="6.32335">
        <ele>538.4</ele>
        <time>2021-04-03T12:09:12Z</time>
      </trkpt>
      <trkpt lat="46.23788" lon="6.32339">
        <ele>538.6</ele>
        <time>2021-04-03T12:09:13Z</time>
      </trkpt>
      <trkpt lat="46.23792" lon="6.32343">
        <ele>538.6</ele>
        <time>2021-04-03T12:09:14Z</time>
      </trkpt>
      <trkpt lat="46.23797" lon="6.32347">
        <ele>539</ele>
        <time>2021-04-03T12:09:15Z</time>
      </trkpt>
      <trkpt lat="46.23801" lon="6.32351">
        <ele>539</ele>
        <time>2021-04-03T12:09:16Z</time>
      </trkpt>
      <trkpt lat="46.23805" lon="6.32355">
        <ele>539.2</ele>
        <time>2021-04-03T12:09:17Z</time>
      </trkpt>
      <trkpt lat="46.23809" lon="6.32358">
        <ele>539.2</ele>
        <time>2021-04-03T12:09:18Z</time>
      </trkpt>
      <trkpt lat="46.23813" lon="6.32361">
        <ele>539.4</ele>
        <time>2021-04-03T12:09:19Z</time>
      </trkpt>
      <trkpt lat="46.23817" lon="6.32364">
        <ele>539.4</ele>
        <time>2021-04-03T12:09:20Z</time>
      </trkpt>
      <trkpt lat="46.23821" lon="6.32367">
        <ele>539.6</ele>
        <time>2021-04-03T12:09:21Z</time>
      </trkpt>
      <trkpt lat="46.23825" lon="6.32371">
        <ele>539.6</ele>
        <time>2021-04-03T12:09:22Z</time>
      </trkpt>
      <trkpt lat="46.23829" lon="6.32375">
        <ele>539.6</ele>
        <time>2021-04-03T12:09:23Z</time>
      </trkpt>
      <trkpt lat="46.23833" lon="6.32378">
        <ele>539.8</ele>
        <time>2021-04-03T12:09:24Z</time>
      </trkpt>
      <trkpt lat="46.23837" lon="6.32382">
        <ele>539.8</ele>
        <time>2021-04-03T12:09:25Z</time>
      </trkpt>
      <trkpt lat="46.23841" lon="6.32386">
        <ele>540</ele>
        <time>2021-04-03T12:09:26Z</time>
      </trkpt>
      <trkpt lat="46.23845" lon="6.3239">
        <ele>540.2</ele>
        <time>2021-04-03T12:09:27Z</time>
      </trkpt>
      <trkpt lat="46.23849" lon="6.32394">
        <ele>540.4</ele>
        <time>2021-04-03T12:09:28Z</time>
      </trkpt>
      <trkpt lat="46.23853" lon="6.32397">
        <ele>540.4</ele>
        <time>2021-04-03T12:09:29Z</time>
      </trkpt>
      <trkpt lat="46.23858" lon="6.324">
        <ele>540.6</ele>
        <time>2021-04-03T12:09:30Z</time>
      </trkpt>
      <trkpt lat="46.23862" lon="6.32403">
        <ele>540.8</ele>
        <time>2021-04-03T12:09:31Z</time>
      </trkpt>
      <trkpt lat="46.23866" lon="6.32406">
        <ele>541</ele>
        <time>2021-04-03T12:09:32Z</time>
      </trkpt>
      <trkpt lat="46.2387" lon="6.32409">
        <ele>541.2</ele>
        <time>2021-04-03T12:09:33Z</time>
      </trkpt>
      <trkpt lat="46.23875" lon="6.32411">
        <ele>541.4</ele>
        <time>2021-04-03T12:09:34Z</time>
      </trkpt>
      <trkpt lat="46.23879" lon="6.32414">
        <ele>541.4</ele>
        <time>2021-04-03T12:09:35Z</time>
      </trkpt>
      <trkpt lat="46.23883" lon="6.32416">
        <ele>541.4</ele>
        <time>2021-04-03T12:09:36Z</time>
      </trkpt>
      <trkpt lat="46.23887" lon="6.32418">
        <ele>541.8</ele>
        <time>2021-04-03T12:09:37Z</time>
      </trkpt>
      <trkpt lat="46.2389" lon="6.3242">
        <ele>541.8</ele>
        <time>2021-04-03T12:09:38Z</time>
      </trkpt>
      <trkpt lat="46.23894" lon="6.32422">
        <ele>542.2</ele>
        <time>2021-04-03T12:09:39Z</time>
      </trkpt>
      <trkpt lat="46.23898" lon="6.32425">
        <ele>542.2</ele>
        <time>2021-04-03T12:09:40Z</time>
      </trkpt>
      <trkpt lat="46.23903" lon="6.32427">
        <ele>542.2</ele>
        <time>2021-04-03T12:09:41Z</time>
      </trkpt>
      <trkpt lat="46.23907" lon="6.3243">
        <ele>542.8</ele>
        <time>2021-04-03T12:09:42Z</time>
      </trkpt>
      <trkpt lat="46.23911" lon="6.32432">
        <ele>543.2</ele>
        <time>2021-04-03T12:09:43Z</time>
      </trkpt>
      <trkpt lat="46.23915" lon="6.32435">
        <ele>543.4</ele>
        <time>2021-04-03T12:09:44Z</time>
      </trkpt>
      <trkpt lat="46.23919" lon="6.32438">
        <ele>543.6</ele>
        <time>2021-04-03T12:09:45Z</time>
      </trkpt>
      <trkpt lat="46.23923" lon="6.32442">
        <ele>543.8</ele>
        <time>2021-04-03T12:09:46Z</time>
      </trkpt>
      <trkpt lat="46.23927" lon="6.32445">
        <ele>544</ele>
        <time>2021-04-03T12:09:47Z</time>
      </trkpt>
      <trkpt lat="46.23931" lon="6.32448">
        <ele>544.2</ele>
        <time>2021-04-03T12:09:48Z</time>
      </trkpt>
      <trkpt lat="46.23935" lon="6.3245">
        <ele>544.2</ele>
        <time>2021-04-03T12:09:49Z</time>
      </trkpt>
      <trkpt lat="46.23938" lon="6.32453">
        <ele>544.2</ele>
        <time>2021-04-03T12:09:50Z</time>
      </trkpt>
      <trkpt lat="46.23943" lon="6.32456">
        <ele>544.2</ele>
        <time>2021-04-03T12:09:51Z</time>
      </trkpt>
      <trkpt lat="46.23947" lon="6.32459">
        <ele>544.2</ele>
        <time>2021-04-03T12:09:52Z</time>
      </trkpt>
      <trkpt lat="46.2395" lon="6.32463">
        <ele>544.4</ele>
        <time>2021-04-03T12:09:53Z</time>
      </trkpt>
      <trkpt lat="46.23954" lon="6.32466">
        <ele>544.2</ele>
        <time>2021-04-03T12:09:54Z</time>
      </trkpt>
      <trkpt lat="46.23958" lon="6.32469">
        <ele>544.2</ele>
        <time>2021-04-03T12:09:55Z</time>
      </trkpt>
      <trkpt lat="46.23963" lon="6.32471">
        <ele>544.2</ele>
        <time>2021-04-03T12:09:56Z</time>
      </trkpt>
      <trkpt lat="46.23967" lon="6.32473">
        <ele>544.4</ele>
        <time>2021-04-03T12:09:57Z</time>
      </trkpt>
      <trkpt lat="46.23972" lon="6.32475">
        <ele>544.4</ele>
        <time>2021-04-03T12:09:58Z</time>
      </trkpt>
      <trkpt lat="46.23977" lon="6.32477">
        <ele>544.4</ele>
        <time>2021-04-03T12:09:59Z</time>
      </trkpt>
      <trkpt lat="46.23981" lon="6.32478">
        <ele>544.4</ele>
        <time>2021-04-03T12:10:00Z</time>
      </trkpt>
      <trkpt lat="46.23986" lon="6.3248">
        <ele>544.6</ele>
        <time>2021-04-03T12:10:01Z</time>
      </trkpt>
      <trkpt lat="46.23991" lon="6.32482">
        <ele>544.4</ele>
        <time>2021-04-03T12:10:02Z</time>
      </trkpt>
      <trkpt lat="46.23995" lon="6.32484">
        <ele>544.4</ele>
        <time>2021-04-03T12:10:03Z</time>
      </trkpt>
      <trkpt lat="46.24" lon="6.32486">
        <ele>544.4</ele>
        <time>2021-04-03T12:10:04Z</time>
      </trkpt>
      <trkpt lat="46.24004" lon="6.32488">
        <ele>544.4</ele>
        <time>2021-04-03T12:10:05Z</time>
      </trkpt>
      <trkpt lat="46.24009" lon="6.32489">
        <ele>544.4</ele>
        <time>2021-04-03T12:10:06Z</time>
      </trkpt>
      <trkpt lat="46.24014" lon="6.32491">
        <ele>544.4</ele>
        <time>2021-04-03T12:10:07Z</time>
      </trkpt>
      <trkpt lat="46.24019" lon="6.32492">
        <ele>544.4</ele>
        <time>2021-04-03T12:10:08Z</time>
      </trkpt>
      <trkpt lat="46.24025" lon="6.32493">
        <ele>544.4</ele>
        <time>2021-04-03T12:10:09Z</time>
      </trkpt>
      <trkpt lat="46.2403" lon="6.32495">
        <ele>544.4</ele>
        <time>2021-04-03T12:10:10Z</time>
      </trkpt>
      <trkpt lat="46.24036" lon="6.32496">
        <ele>544.4</ele>
        <time>2021-04-03T12:10:11Z</time>
      </trkpt>
      <trkpt lat="46.24042" lon="6.32499">
        <ele>544.2</ele>
        <time>2021-04-03T12:10:12Z</time>
      </trkpt>
      <trkpt lat="46.24048" lon="6.32502">
        <ele>544</ele>
        <time>2021-04-03T12:10:13Z</time>
      </trkpt>
      <trkpt lat="46.24054" lon="6.32505">
        <ele>543.8</ele>
        <time>2021-04-03T12:10:14Z</time>
      </trkpt>
      <trkpt lat="46.2406" lon="6.32509">
        <ele>543.8</ele>
        <time>2021-04-03T12:10:15Z</time>
      </trkpt>
      <trkpt lat="46.24066" lon="6.32513">
        <ele>543.6</ele>
        <time>2021-04-03T12:10:16Z</time>
      </trkpt>
      <trkpt lat="46.24071" lon="6.32516">
        <ele>543.4</ele>
        <time>2021-04-03T12:10:17Z</time>
      </trkpt>
      <trkpt lat="46.24077" lon="6.3252">
        <ele>543</ele>
        <time>2021-04-03T12:10:18Z</time>
      </trkpt>
      <trkpt lat="46.24082" lon="6.32524">
        <ele>542.8</ele>
        <time>2021-04-03T12:10:19Z</time>
      </trkpt>
      <trkpt lat="46.24088" lon="6.32528">
        <ele>542.6</ele>
        <time>2021-04-03T12:10:20Z</time>
      </trkpt>
      <trkpt lat="46.24093" lon="6.32532">
        <ele>542.4</ele>
        <time>2021-04-03T12:10:21Z</time>
      </trkpt>
      <trkpt lat="46.24098" lon="6.32535">
        <ele>541.8</ele>
        <time>2021-04-03T12:10:22Z</time>
      </trkpt>
      <trkpt lat="46.24105" lon="6.32538">
        <ele>541.6</ele>
        <time>2021-04-03T12:10:23Z</time>
      </trkpt>
      <trkpt lat="46.24111" lon="6.3254">
        <ele>541.4</ele>
        <time>2021-04-03T12:10:24Z</time>
      </trkpt>
      <trkpt lat="46.24117" lon="6.32542">
        <ele>541.4</ele>
        <time>2021-04-03T12:10:25Z</time>
      </trkpt>
      <trkpt lat="46.24124" lon="6.32544">
        <ele>541</ele>
        <time>2021-04-03T12:10:26Z</time>
      </trkpt>
      <trkpt lat="46.24131" lon="6.32545">
        <ele>540.8</ele>
        <time>2021-04-03T12:10:27Z</time>
      </trkpt>
      <trkpt lat="46.24139" lon="6.32546">
        <ele>540.6</ele>
        <time>2021-04-03T12:10:28Z</time>
      </trkpt>
      <trkpt lat="46.24146" lon="6.32548">
        <ele>540.6</ele>
        <time>2021-04-03T12:10:29Z</time>
      </trkpt>
      <trkpt lat="46.24153" lon="6.32549">
        <ele>540.4</ele>
        <time>2021-04-03T12:10:30Z</time>
      </trkpt>
      <trkpt lat="46.24159" lon="6.32551">
        <ele>540</ele>
        <time>2021-04-03T12:10:31Z</time>
      </trkpt>
      <trkpt lat="46.24166" lon="6.32554">
        <ele>539.8</ele>
        <time>2021-04-03T12:10:32Z</time>
      </trkpt>
      <trkpt lat="46.24172" lon="6.32556">
        <ele>539.4</ele>
        <time>2021-04-03T12:10:33Z</time>
      </trkpt>
      <trkpt lat="46.24177" lon="6.32559">
        <ele>539.2</ele>
        <time>2021-04-03T12:10:34Z</time>
      </trkpt>
      <trkpt lat="46.24183" lon="6.32562">
        <ele>538.4</ele>
        <time>2021-04-03T12:10:35Z</time>
      </trkpt>
      <trkpt lat="46.24189" lon="6.32566">
        <ele>536.6</ele>
        <time>2021-04-03T12:10:36Z</time>
      </trkpt>
      <trkpt lat="46.24194" lon="6.32569">
        <ele>535.6</ele>
        <time>2021-04-03T12:10:37Z</time>
      </trkpt>
      <trkpt lat="46.24199" lon="6.32572">
        <ele>535</ele>
        <time>2021-04-03T12:10:38Z</time>
      </trkpt>
      <trkpt lat="46.24205" lon="6.32575">
        <ele>534.8</ele>
        <time>2021-04-03T12:10:39Z</time>
      </trkpt>
      <trkpt lat="46.2421" lon="6.32578">
        <ele>534.2</ele>
        <time>2021-04-03T12:10:40Z</time>
      </trkpt>
      <trkpt lat="46.24214" lon="6.32581">
        <ele>534</ele>
        <time>2021-04-03T12:10:41Z</time>
      </trkpt>
      <trkpt lat="46.24219" lon="6.32585">
        <ele>533.8</ele>
        <time>2021-04-03T12:10:42Z</time>
      </trkpt>
      <trkpt lat="46.24224" lon="6.32588">
        <ele>533.8</ele>
        <time>2021-04-03T12:10:43Z</time>
      </trkpt>
      <trkpt lat="46.24229" lon="6.32591">
        <ele>533.6</ele>
        <time>2021-04-03T12:10:44Z</time>
      </trkpt>
      <trkpt lat="46.24234" lon="6.32595">
        <ele>533.6</ele>
        <time>2021-04-03T12:10:45Z</time>
      </trkpt>
      <trkpt lat="46.24238" lon="6.32598">
        <ele>533.6</ele>
        <time>2021-04-03T12:10:46Z</time>
      </trkpt>
      <trkpt lat="46.24243" lon="6.32601">
        <ele>533.6</ele>
        <time>2021-04-03T12:10:47Z</time>
      </trkpt>
      <trkpt lat="46.24247" lon="6.32604">
        <ele>533.6</ele>
        <time>2021-04-03T12:10:48Z</time>
      </trkpt>
      <trkpt lat="46.24252" lon="6.32607">
        <ele>533.6</ele>
        <time>2021-04-03T12:10:49Z</time>
      </trkpt>
      <trkpt lat="46.24257" lon="6.3261">
        <ele>533.4</ele>
        <time>2021-04-03T12:10:50Z</time>
      </trkpt>
      <trkpt lat="46.24261" lon="6.32614">
        <ele>533.4</ele>
        <time>2021-04-03T12:10:51Z</time>
      </trkpt>
      <trkpt lat="46.24266" lon="6.32617">
        <ele>533.4</ele>
        <time>2021-04-03T12:10:52Z</time>
      </trkpt>
      <trkpt lat="46.24272" lon="6.3262">
        <ele>533.2</ele>
        <time>2021-04-03T12:10:53Z</time>
      </trkpt>
      <trkpt lat="46.24277" lon="6.32623">
        <ele>533.2</ele>
        <time>2021-04-03T12:10:54Z</time>
      </trkpt>
      <trkpt lat="46.24282" lon="6.32626">
        <ele>533</ele>
        <time>2021-04-03T12:10:55Z</time>
      </trkpt>
      <trkpt lat="46.24288" lon="6.32628">
        <ele>533</ele>
        <time>2021-04-03T12:10:56Z</time>
      </trkpt>
      <trkpt lat="46.24293" lon="6.32631">
        <ele>533</ele>
        <time>2021-04-03T12:10:57Z</time>
      </trkpt>
      <trkpt lat="46.24298" lon="6.32634">
        <ele>532.8</ele>
        <time>2021-04-03T12:10:58Z</time>
      </trkpt>
      <trkpt lat="46.24303" lon="6.32637">
        <ele>532.8</ele>
        <time>2021-04-03T12:10:59Z</time>
      </trkpt>
      <trkpt lat="46.24309" lon="6.3264">
        <ele>532.6</ele>
        <time>2021-04-03T12:11:00Z</time>
      </trkpt>
      <trkpt lat="46.24314" lon="6.32643">
        <ele>532.8</ele>
        <time>2021-04-03T12:11:01Z</time>
      </trkpt>
      <trkpt lat="46.2432" lon="6.32646">
        <ele>532.4</ele>
        <time>2021-04-03T12:11:02Z</time>
      </trkpt>
      <trkpt lat="46.24325" lon="6.3265">
        <ele>532.6</ele>
        <time>2021-04-03T12:11:03Z</time>
      </trkpt>
      <trkpt lat="46.24331" lon="6.32653">
        <ele>532.6</ele>
        <time>2021-04-03T12:11:04Z</time>
      </trkpt>
      <trkpt lat="46.24337" lon="6.32657">
        <ele>532.4</ele>
        <time>2021-04-03T12:11:05Z</time>
      </trkpt>
      <trkpt lat="46.24343" lon="6.32661">
        <ele>532.4</ele>
        <time>2021-04-03T12:11:06Z</time>
      </trkpt>
      <trkpt lat="46.24348" lon="6.32667">
        <ele>532.4</ele>
        <time>2021-04-03T12:11:07Z</time>
      </trkpt>
      <trkpt lat="46.24354" lon="6.32674">
        <ele>532</ele>
        <time>2021-04-03T12:11:08Z</time>
      </trkpt>
      <trkpt lat="46.24359" lon="6.32682">
        <ele>531.6</ele>
        <time>2021-04-03T12:11:09Z</time>
      </trkpt>
      <trkpt lat="46.24363" lon="6.3269">
        <ele>531.6</ele>
        <time>2021-04-03T12:11:10Z</time>
      </trkpt>
      <trkpt lat="46.24368" lon="6.32697">
        <ele>531.4</ele>
        <time>2021-04-03T12:11:11Z</time>
      </trkpt>
      <trkpt lat="46.24376" lon="6.3271">
        <ele>530.6</ele>
        <time>2021-04-03T12:11:13Z</time>
      </trkpt>
      <trkpt lat="46.2438" lon="6.32715">
        <ele>530.2</ele>
        <time>2021-04-03T12:11:14Z</time>
      </trkpt>
      <trkpt lat="46.24384" lon="6.32719">
        <ele>530</ele>
        <time>2021-04-03T12:11:15Z</time>
      </trkpt>
      <trkpt lat="46.24387" lon="6.32721">
        <ele>529.6</ele>
        <time>2021-04-03T12:11:16Z</time>
      </trkpt>
      <trkpt lat="46.24391" lon="6.32723">
        <ele>529.6</ele>
        <time>2021-04-03T12:11:17Z</time>
      </trkpt>
      <trkpt lat="46.24394" lon="6.32724">
        <ele>529.6</ele>
        <time>2021-04-03T12:11:18Z</time>
      </trkpt>
      <trkpt lat="46.24397" lon="6.32725">
        <ele>529.6</ele>
        <time>2021-04-03T12:11:19Z</time>
      </trkpt>
      <trkpt lat="46.244" lon="6.32725">
        <ele>529.6</ele>
        <time>2021-04-03T12:11:20Z</time>
      </trkpt>
      <trkpt lat="46.24403" lon="6.32724">
        <ele>529.6</ele>
        <time>2021-04-03T12:11:21Z</time>
      </trkpt>
      <trkpt lat="46.24406" lon="6.32723">
        <ele>529.6</ele>
        <time>2021-04-03T12:11:22Z</time>
      </trkpt>
      <trkpt lat="46.24409" lon="6.32722">
        <ele>529.4</ele>
        <time>2021-04-03T12:11:23Z</time>
      </trkpt>
      <trkpt lat="46.2441" lon="6.32722">
        <ele>529.4</ele>
        <time>2021-04-03T12:11:24Z</time>
      </trkpt>
      <trkpt lat="46.24412" lon="6.32721">
        <ele>529.4</ele>
        <time>2021-04-03T12:11:25Z</time>
      </trkpt>
      <trkpt lat="46.24413" lon="6.32721">
        <ele>529.4</ele>
        <time>2021-04-03T12:11:26Z</time>
      </trkpt>
      <trkpt lat="46.24413" lon="6.3272">
        <ele>529.6</ele>
        <time>2021-04-03T12:11:27Z</time>
      </trkpt>
      <trkpt lat="46.24414" lon="6.3272">
        <ele>529.4</ele>
        <time>2021-04-03T12:11:28Z</time>
      </trkpt>
      <trkpt lat="46.24415" lon="6.3272">
        <ele>529.4</ele>
        <time>2021-04-03T12:11:29Z</time>
      </trkpt>
      <trkpt lat="46.24416" lon="6.3272">
        <ele>529.4</ele>
        <time>2021-04-03T12:11:30Z</time>
      </trkpt>
      <trkpt lat="46.24417" lon="6.32721">
        <ele>529.4</ele>
        <time>2021-04-03T12:11:31Z</time>
      </trkpt>
      <trkpt lat="46.24419" lon="6.32722">
        <ele>529.4</ele>
        <time>2021-04-03T12:11:32Z</time>
      </trkpt>
      <trkpt lat="46.24422" lon="6.32723">
        <ele>529.6</ele>
        <time>2021-04-03T12:11:33Z</time>
      </trkpt>
      <trkpt lat="46.24425" lon="6.32724">
        <ele>529.6</ele>
        <time>2021-04-03T12:11:34Z</time>
      </trkpt>
      <trkpt lat="46.24429" lon="6.32725">
        <ele>529.4</ele>
        <time>2021-04-03T12:11:35Z</time>
      </trkpt>
      <trkpt lat="46.24434" lon="6.32725">
        <ele>529.2</ele>
        <time>2021-04-03T12:11:36Z</time>
      </trkpt>
      <trkpt lat="46.2444" lon="6.32724">
        <ele>529.2</ele>
        <time>2021-04-03T12:11:37Z</time>
      </trkpt>
      <trkpt lat="46.24445" lon="6.3272">
        <ele>529.4</ele>
        <time>2021-04-03T12:11:38Z</time>
      </trkpt>
      <trkpt lat="46.24451" lon="6.32715">
        <ele>529.2</ele>
        <time>2021-04-03T12:11:39Z</time>
      </trkpt>
      <trkpt lat="46.24456" lon="6.32709">
        <ele>529.2</ele>
        <time>2021-04-03T12:11:40Z</time>
      </trkpt>
      <trkpt lat="46.24462" lon="6.32704">
        <ele>529.2</ele>
        <time>2021-04-03T12:11:41Z</time>
      </trkpt>
      <trkpt lat="46.24467" lon="6.32699">
        <ele>529.2</ele>
        <time>2021-04-03T12:11:42Z</time>
      </trkpt>
      <trkpt lat="46.24474" lon="6.32695">
        <ele>529</ele>
        <time>2021-04-03T12:11:43Z</time>
      </trkpt>
      <trkpt lat="46.24481" lon="6.32691">
        <ele>529</ele>
        <time>2021-04-03T12:11:44Z</time>
      </trkpt>
      <trkpt lat="46.24488" lon="6.32689">
        <ele>528.8</ele>
        <time>2021-04-03T12:11:45Z</time>
      </trkpt>
      <trkpt lat="46.24496" lon="6.32687">
        <ele>528.8</ele>
        <time>2021-04-03T12:11:46Z</time>
      </trkpt>
      <trkpt lat="46.24504" lon="6.32686">
        <ele>528.4</ele>
        <time>2021-04-03T12:11:47Z</time>
      </trkpt>
      <trkpt lat="46.24512" lon="6.32687">
        <ele>528.2</ele>
        <time>2021-04-03T12:11:48Z</time>
      </trkpt>
      <trkpt lat="46.24521" lon="6.32688">
        <ele>528.4</ele>
        <time>2021-04-03T12:11:49Z</time>
      </trkpt>
      <trkpt lat="46.24529" lon="6.32689">
        <ele>528</ele>
        <time>2021-04-03T12:11:50Z</time>
      </trkpt>
      <trkpt lat="46.24537" lon="6.32691">
        <ele>527.8</ele>
        <time>2021-04-03T12:11:51Z</time>
      </trkpt>
      <trkpt lat="46.24545" lon="6.32693">
        <ele>527.2</ele>
        <time>2021-04-03T12:11:52Z</time>
      </trkpt>
      <trkpt lat="46.24553" lon="6.32695">
        <ele>526.2</ele>
        <time>2021-04-03T12:11:53Z</time>
      </trkpt>
      <trkpt lat="46.24561" lon="6.32697">
        <ele>524.6</ele>
        <time>2021-04-03T12:11:54Z</time>
      </trkpt>
      <trkpt lat="46.24569" lon="6.32698">
        <ele>523.6</ele>
        <time>2021-04-03T12:11:55Z</time>
      </trkpt>
      <trkpt lat="46.24577" lon="6.327">
        <ele>522.6</ele>
        <time>2021-04-03T12:11:56Z</time>
      </trkpt>
      <trkpt lat="46.24585" lon="6.32702">
        <ele>522.2</ele>
        <time>2021-04-03T12:11:57Z</time>
      </trkpt>
      <trkpt lat="46.24593" lon="6.32703">
        <ele>521.4</ele>
        <time>2021-04-03T12:11:58Z</time>
      </trkpt>
      <trkpt lat="46.246" lon="6.32705">
        <ele>520.8</ele>
        <time>2021-04-03T12:11:59Z</time>
      </trkpt>
      <trkpt lat="46.24608" lon="6.32708">
        <ele>520.4</ele>
        <time>2021-04-03T12:12:00Z</time>
      </trkpt>
      <trkpt lat="46.24616" lon="6.3271">
        <ele>520.2</ele>
        <time>2021-04-03T12:12:01Z</time>
      </trkpt>
      <trkpt lat="46.24624" lon="6.32712">
        <ele>519.8</ele>
        <time>2021-04-03T12:12:02Z</time>
      </trkpt>
      <trkpt lat="46.24632" lon="6.32714">
        <ele>519.6</ele>
        <time>2021-04-03T12:12:03Z</time>
      </trkpt>
      <trkpt lat="46.2464" lon="6.32717">
        <ele>519.2</ele>
        <time>2021-04-03T12:12:04Z</time>
      </trkpt>
      <trkpt lat="46.24648" lon="6.32719">
        <ele>518.8</ele>
        <time>2021-04-03T12:12:05Z</time>
      </trkpt>
      <trkpt lat="46.24657" lon="6.32722">
        <ele>518.4</ele>
        <time>2021-04-03T12:12:06Z</time>
      </trkpt>
      <trkpt lat="46.24665" lon="6.32725">
        <ele>518.2</ele>
        <time>2021-04-03T12:12:07Z</time>
      </trkpt>
      <trkpt lat="46.24673" lon="6.32727">
        <ele>517.8</ele>
        <time>2021-04-03T12:12:08Z</time>
      </trkpt>
      <trkpt lat="46.24681" lon="6.3273">
        <ele>517.8</ele>
        <time>2021-04-03T12:12:09Z</time>
      </trkpt>
      <trkpt lat="46.24689" lon="6.32733">
        <ele>517.6</ele>
        <time>2021-04-03T12:12:10Z</time>
      </trkpt>
      <trkpt lat="46.24697" lon="6.32737">
        <ele>516.6</ele>
        <time>2021-04-03T12:12:11Z</time>
      </trkpt>
      <trkpt lat="46.24704" lon="6.3274">
        <ele>515.8</ele>
        <time>2021-04-03T12:12:12Z</time>
      </trkpt>
      <trkpt lat="46.24711" lon="6.32744">
        <ele>515</ele>
        <time>2021-04-03T12:12:13Z</time>
      </trkpt>
      <trkpt lat="46.24718" lon="6.32748">
        <ele>514.4</ele>
        <time>2021-04-03T12:12:14Z</time>
      </trkpt>
      <trkpt lat="46.24725" lon="6.32752">
        <ele>514</ele>
        <time>2021-04-03T12:12:15Z</time>
      </trkpt>
      <trkpt lat="46.24732" lon="6.32755">
        <ele>513.4</ele>
        <time>2021-04-03T12:12:16Z</time>
      </trkpt>
      <trkpt lat="46.24738" lon="6.32759">
        <ele>512.2</ele>
        <time>2021-04-03T12:12:17Z</time>
      </trkpt>
      <trkpt lat="46.24744" lon="6.32762">
        <ele>511.4</ele>
        <time>2021-04-03T12:12:18Z</time>
      </trkpt>
      <trkpt lat="46.2475" lon="6.32766">
        <ele>511</ele>
        <time>2021-04-03T12:12:19Z</time>
      </trkpt>
      <trkpt lat="46.24756" lon="6.3277">
        <ele>510.4</ele>
        <time>2021-04-03T12:12:20Z</time>
      </trkpt>
      <trkpt lat="46.24761" lon="6.32773">
        <ele>510.2</ele>
        <time>2021-04-03T12:12:21Z</time>
      </trkpt>
      <trkpt lat="46.24767" lon="6.32777">
        <ele>509.8</ele>
        <time>2021-04-03T12:12:22Z</time>
      </trkpt>
      <trkpt lat="46.24773" lon="6.3278">
        <ele>509.6</ele>
        <time>2021-04-03T12:12:23Z</time>
      </trkpt>
      <trkpt lat="46.24779" lon="6.32784">
        <ele>509.4</ele>
        <time>2021-04-03T12:12:24Z</time>
      </trkpt>
      <trkpt lat="46.24785" lon="6.32787">
        <ele>509.2</ele>
        <time>2021-04-03T12:12:25Z</time>
      </trkpt>
      <trkpt lat="46.24791" lon="6.3279">
        <ele>509.2</ele>
        <time>2021-04-03T12:12:26Z</time>
      </trkpt>
      <trkpt lat="46.24798" lon="6.32794">
        <ele>509.2</ele>
        <time>2021-04-03T12:12:27Z</time>
      </trkpt>
      <trkpt lat="46.24805" lon="6.32798">
        <ele>509</ele>
        <time>2021-04-03T12:12:28Z</time>
      </trkpt>
      <trkpt lat="46.24812" lon="6.32801">
        <ele>508.8</ele>
        <time>2021-04-03T12:12:29Z</time>
      </trkpt>
      <trkpt lat="46.24819" lon="6.32805">
        <ele>508.8</ele>
        <time>2021-04-03T12:12:30Z</time>
      </trkpt>
      <trkpt lat="46.24825" lon="6.32809">
        <ele>508.8</ele>
        <time>2021-04-03T12:12:31Z</time>
      </trkpt>
      <trkpt lat="46.24831" lon="6.32812">
        <ele>508.8</ele>
        <time>2021-04-03T12:12:32Z</time>
      </trkpt>
      <trkpt lat="46.24838" lon="6.32816">
        <ele>508.6</ele>
        <time>2021-04-03T12:12:33Z</time>
      </trkpt>
      <trkpt lat="46.24845" lon="6.3282">
        <ele>508.6</ele>
        <time>2021-04-03T12:12:34Z</time>
      </trkpt>
      <trkpt lat="46.24851" lon="6.32823">
        <ele>508.4</ele>
        <time>2021-04-03T12:12:35Z</time>
      </trkpt>
      <trkpt lat="46.24858" lon="6.32827">
        <ele>508.4</ele>
        <time>2021-04-03T12:12:36Z</time>
      </trkpt>
      <trkpt lat="46.24865" lon="6.3283">
        <ele>508.4</ele>
        <time>2021-04-03T12:12:37Z</time>
      </trkpt>
      <trkpt lat="46.24872" lon="6.32834">
        <ele>508.2</ele>
        <time>2021-04-03T12:12:38Z</time>
      </trkpt>
      <trkpt lat="46.24879" lon="6.32837">
        <ele>508</ele>
        <time>2021-04-03T12:12:39Z</time>
      </trkpt>
      <trkpt lat="46.24886" lon="6.3284">
        <ele>507.8</ele>
        <time>2021-04-03T12:12:40Z</time>
      </trkpt>
      <trkpt lat="46.24892" lon="6.32844">
        <ele>507.6</ele>
        <time>2021-04-03T12:12:41Z</time>
      </trkpt>
      <trkpt lat="46.24899" lon="6.32847">
        <ele>507.6</ele>
        <time>2021-04-03T12:12:42Z</time>
      </trkpt>
      <trkpt lat="46.24905" lon="6.3285">
        <ele>507.6</ele>
        <time>2021-04-03T12:12:43Z</time>
      </trkpt>
      <trkpt lat="46.24911" lon="6.32854">
        <ele>507.6</ele>
        <time>2021-04-03T12:12:44Z</time>
      </trkpt>
      <trkpt lat="46.24917" lon="6.32856">
        <ele>507.4</ele>
        <time>2021-04-03T12:12:45Z</time>
      </trkpt>
      <trkpt lat="46.24923" lon="6.32859">
        <ele>507</ele>
        <time>2021-04-03T12:12:46Z</time>
      </trkpt>
      <trkpt lat="46.24929" lon="6.32862">
        <ele>506.2</ele>
        <time>2021-04-03T12:12:47Z</time>
      </trkpt>
      <trkpt lat="46.24935" lon="6.32865">
        <ele>505.6</ele>
        <time>2021-04-03T12:12:48Z</time>
      </trkpt>
      <trkpt lat="46.24941" lon="6.32869">
        <ele>505</ele>
        <time>2021-04-03T12:12:49Z</time>
      </trkpt>
      <trkpt lat="46.24948" lon="6.32872">
        <ele>504.6</ele>
        <time>2021-04-03T12:12:50Z</time>
      </trkpt>
      <trkpt lat="46.24954" lon="6.32875">
        <ele>504</ele>
        <time>2021-04-03T12:12:51Z</time>
      </trkpt>
      <trkpt lat="46.2496" lon="6.32879">
        <ele>503.4</ele>
        <time>2021-04-03T12:12:52Z</time>
      </trkpt>
      <trkpt lat="46.24966" lon="6.32882">
        <ele>503.2</ele>
        <time>2021-04-03T12:12:53Z</time>
      </trkpt>
      <trkpt lat="46.24973" lon="6.32885">
        <ele>502.8</ele>
        <time>2021-04-03T12:12:54Z</time>
      </trkpt>
      <trkpt lat="46.24979" lon="6.32889">
        <ele>502.8</ele>
        <time>2021-04-03T12:12:55Z</time>
      </trkpt>
      <trkpt lat="46.24985" lon="6.32892">
        <ele>502.8</ele>
        <time>2021-04-03T12:12:56Z</time>
      </trkpt>
      <trkpt lat="46.24991" lon="6.32895">
        <ele>502.4</ele>
        <time>2021-04-03T12:12:57Z</time>
      </trkpt>
      <trkpt lat="46.24997" lon="6.32898">
        <ele>502.2</ele>
        <time>2021-04-03T12:12:58Z</time>
      </trkpt>
      <trkpt lat="46.25004" lon="6.32901">
        <ele>502</ele>
        <time>2021-04-03T12:12:59Z</time>
      </trkpt>
      <trkpt lat="46.2501" lon="6.32905">
        <ele>502</ele>
        <time>2021-04-03T12:13:00Z</time>
      </trkpt>
      <trkpt lat="46.25022" lon="6.32911">
        <ele>501.8</ele>
        <time>2021-04-03T12:13:02Z</time>
      </trkpt>
      <trkpt lat="46.25028" lon="6.32914">
        <ele>502</ele>
        <time>2021-04-03T12:13:03Z</time>
      </trkpt>
      <trkpt lat="46.25034" lon="6.32918">
        <ele>501.8</ele>
        <time>2021-04-03T12:13:04Z</time>
      </trkpt>
      <trkpt lat="46.2504" lon="6.32921">
        <ele>501.8</ele>
        <time>2021-04-03T12:13:05Z</time>
      </trkpt>
      <trkpt lat="46.25046" lon="6.32924">
        <ele>501.8</ele>
        <time>2021-04-03T12:13:06Z</time>
      </trkpt>
      <trkpt lat="46.25052" lon="6.32926">
        <ele>501.8</ele>
        <time>2021-04-03T12:13:07Z</time>
      </trkpt>
      <trkpt lat="46.25057" lon="6.32929">
        <ele>501.6</ele>
        <time>2021-04-03T12:13:08Z</time>
      </trkpt>
      <trkpt lat="46.25063" lon="6.32932">
        <ele>501.6</ele>
        <time>2021-04-03T12:13:09Z</time>
      </trkpt>
      <trkpt lat="46.25074" lon="6.32938">
        <ele>501.4</ele>
        <time>2021-04-03T12:13:11Z</time>
      </trkpt>
      <trkpt lat="46.2508" lon="6.3294">
        <ele>501.4</ele>
        <time>2021-04-03T12:13:12Z</time>
      </trkpt>
      <trkpt lat="46.25085" lon="6.32942">
        <ele>501.4</ele>
        <time>2021-04-03T12:13:13Z</time>
      </trkpt>
      <trkpt lat="46.2509" lon="6.32943">
        <ele>501.4</ele>
        <time>2021-04-03T12:13:14Z</time>
      </trkpt>
      <trkpt lat="46.25096" lon="6.32944">
        <ele>501.4</ele>
        <time>2021-04-03T12:13:15Z</time>
      </trkpt>
      <trkpt lat="46.25105" lon="6.32943">
        <ele>501.4</ele>
        <time>2021-04-03T12:13:17Z</time>
      </trkpt>
      <trkpt lat="46.25109" lon="6.32941">
        <ele>501.6</ele>
        <time>2021-04-03T12:13:18Z</time>
      </trkpt>
      <trkpt lat="46.25113" lon="6.3294">
        <ele>501.2</ele>
        <time>2021-04-03T12:13:19Z</time>
      </trkpt>
      <trkpt lat="46.25116" lon="6.32938">
        <ele>501.2</ele>
        <time>2021-04-03T12:13:20Z</time>
      </trkpt>
      <trkpt lat="46.25119" lon="6.32937">
        <ele>501</ele>
        <time>2021-04-03T12:13:21Z</time>
      </trkpt>
      <trkpt lat="46.25122" lon="6.32937">
        <ele>500.8</ele>
        <time>2021-04-03T12:13:22Z</time>
      </trkpt>
      <trkpt lat="46.25124" lon="6.32937">
        <ele>500.8</ele>
        <time>2021-04-03T12:13:23Z</time>
      </trkpt>
      <trkpt lat="46.25127" lon="6.32934">
        <ele>501</ele>
        <time>2021-04-03T12:13:24Z</time>
      </trkpt>
      <trkpt lat="46.25129" lon="6.32929">
        <ele>501</ele>
        <time>2021-04-03T12:13:25Z</time>
      </trkpt>
      <trkpt lat="46.2513" lon="6.32923">
        <ele>501</ele>
        <time>2021-04-03T12:13:26Z</time>
      </trkpt>
      <trkpt lat="46.25133" lon="6.32909">
        <ele>501.2</ele>
        <time>2021-04-03T12:13:28Z</time>
      </trkpt>
      <trkpt lat="46.25135" lon="6.32902">
        <ele>501.2</ele>
        <time>2021-04-03T12:13:29Z</time>
      </trkpt>
      <trkpt lat="46.25137" lon="6.32895">
        <ele>501</ele>
        <time>2021-04-03T12:13:30Z</time>
      </trkpt>
      <trkpt lat="46.25139" lon="6.32887">
        <ele>501</ele>
        <time>2021-04-03T12:13:31Z</time>
      </trkpt>
      <trkpt lat="46.25141" lon="6.3288">
        <ele>501</ele>
        <time>2021-04-03T12:13:32Z</time>
      </trkpt>
      <trkpt lat="46.25142" lon="6.32872">
        <ele>500.8</ele>
        <time>2021-04-03T12:13:33Z</time>
      </trkpt>
      <trkpt lat="46.25143" lon="6.32864">
        <ele>500.6</ele>
        <time>2021-04-03T12:13:34Z</time>
      </trkpt>
      <trkpt lat="46.25144" lon="6.32857">
        <ele>500.6</ele>
        <time>2021-04-03T12:13:35Z</time>
      </trkpt>
      <trkpt lat="46.25145" lon="6.32849">
        <ele>500.6</ele>
        <time>2021-04-03T12:13:36Z</time>
      </trkpt>
      <trkpt lat="46.25147" lon="6.32842">
        <ele>500.6</ele>
        <time>2021-04-03T12:13:37Z</time>
      </trkpt>
      <trkpt lat="46.25148" lon="6.32835">
        <ele>500.6</ele>
        <time>2021-04-03T12:13:38Z</time>
      </trkpt>
      <trkpt lat="46.25149" lon="6.32828">
        <ele>500.8</ele>
        <time>2021-04-03T12:13:39Z</time>
      </trkpt>
      <trkpt lat="46.2515" lon="6.32821">
        <ele>500.8</ele>
        <time>2021-04-03T12:13:40Z</time>
      </trkpt>
      <trkpt lat="46.2515" lon="6.32815">
        <ele>500.8</ele>
        <time>2021-04-03T12:13:41Z</time>
      </trkpt>
      <trkpt lat="46.25151" lon="6.32809">
        <ele>501.4</ele>
        <time>2021-04-03T12:13:42Z</time>
      </trkpt>
      <trkpt lat="46.25152" lon="6.32802">
        <ele>501.6</ele>
        <time>2021-04-03T12:13:43Z</time>
      </trkpt>
      <trkpt lat="46.25154" lon="6.32795">
        <ele>501.6</ele>
        <time>2021-04-03T12:13:44Z</time>
      </trkpt>
      <trkpt lat="46.25156" lon="6.32789">
        <ele>501.6</ele>
        <time>2021-04-03T12:13:45Z</time>
      </trkpt>
      <trkpt lat="46.2516" lon="6.32784">
        <ele>501.6</ele>
        <time>2021-04-03T12:13:46Z</time>
      </trkpt>
      <trkpt lat="46.25164" lon="6.3278">
        <ele>501.6</ele>
        <time>2021-04-03T12:13:47Z</time>
      </trkpt>
      <trkpt lat="46.25168" lon="6.32777">
        <ele>501.6</ele>
        <time>2021-04-03T12:13:48Z</time>
      </trkpt>
      <trkpt lat="46.25173" lon="6.32774">
        <ele>501.8</ele>
        <time>2021-04-03T12:13:49Z</time>
      </trkpt>
      <trkpt lat="46.25177" lon="6.32773">
        <ele>501.8</ele>
        <time>2021-04-03T12:13:50Z</time>
      </trkpt>
      <trkpt lat="46.25181" lon="6.32771">
        <ele>502</ele>
        <time>2021-04-03T12:13:51Z</time>
      </trkpt>
      <trkpt lat="46.25185" lon="6.3277">
        <ele>502</ele>
        <time>2021-04-03T12:13:52Z</time>
      </trkpt>
      <trkpt lat="46.2519" lon="6.32768">
        <ele>502</ele>
        <time>2021-04-03T12:13:53Z</time>
      </trkpt>
      <trkpt lat="46.25194" lon="6.32766">
        <ele>502.2</ele>
        <time>2021-04-03T12:13:54Z</time>
      </trkpt>
      <trkpt lat="46.25198" lon="6.32764">
        <ele>502.2</ele>
        <time>2021-04-03T12:13:55Z</time>
      </trkpt>
      <trkpt lat="46.25202" lon="6.32763">
        <ele>502.6</ele>
        <time>2021-04-03T12:13:56Z</time>
      </trkpt>
      <trkpt lat="46.25207" lon="6.32761">
        <ele>502.4</ele>
        <time>2021-04-03T12:13:57Z</time>
      </trkpt>
      <trkpt lat="46.25211" lon="6.32758">
        <ele>502.6</ele>
        <time>2021-04-03T12:13:58Z</time>
      </trkpt>
      <trkpt lat="46.25216" lon="6.32755">
        <ele>502.8</ele>
        <time>2021-04-03T12:13:59Z</time>
      </trkpt>
      <trkpt lat="46.2522" lon="6.32752">
        <ele>502.8</ele>
        <time>2021-04-03T12:14:00Z</time>
      </trkpt>
      <trkpt lat="46.25224" lon="6.32749">
        <ele>502.8</ele>
        <time>2021-04-03T12:14:01Z</time>
      </trkpt>
      <trkpt lat="46.25228" lon="6.32746">
        <ele>502.6</ele>
        <time>2021-04-03T12:14:02Z</time>
      </trkpt>
      <trkpt lat="46.25232" lon="6.32743">
        <ele>503</ele>
        <time>2021-04-03T12:14:03Z</time>
      </trkpt>
      <trkpt lat="46.25236" lon="6.32739">
        <ele>503</ele>
        <time>2021-04-03T12:14:04Z</time>
      </trkpt>
      <trkpt lat="46.25239" lon="6.32736">
        <ele>503.2</ele>
        <time>2021-04-03T12:14:05Z</time>
      </trkpt>
      <trkpt lat="46.25243" lon="6.32733">
        <ele>503.6</ele>
        <time>2021-04-03T12:14:06Z</time>
      </trkpt>
      <trkpt lat="46.25247" lon="6.3273">
        <ele>503.6</ele>
        <time>2021-04-03T12:14:07Z</time>
      </trkpt>
      <trkpt lat="46.2525" lon="6.32726">
        <ele>503.8</ele>
        <time>2021-04-03T12:14:08Z</time>
      </trkpt>
      <trkpt lat="46.25254" lon="6.32723">
        <ele>503.8</ele>
        <time>2021-04-03T12:14:09Z</time>
      </trkpt>
      <trkpt lat="46.25258" lon="6.3272">
        <ele>503.8</ele>
        <time>2021-04-03T12:14:10Z</time>
      </trkpt>
      <trkpt lat="46.25261" lon="6.32716">
        <ele>504</ele>
        <time>2021-04-03T12:14:11Z</time>
      </trkpt>
      <trkpt lat="46.25265" lon="6.32713">
        <ele>504</ele>
        <time>2021-04-03T12:14:12Z</time>
      </trkpt>
      <trkpt lat="46.25269" lon="6.32709">
        <ele>504.2</ele>
        <time>2021-04-03T12:14:13Z</time>
      </trkpt>
      <trkpt lat="46.25273" lon="6.32706">
        <ele>504.6</ele>
        <time>2021-04-03T12:14:14Z</time>
      </trkpt>
      <trkpt lat="46.25277" lon="6.32703">
        <ele>504.6</ele>
        <time>2021-04-03T12:14:15Z</time>
      </trkpt>
      <trkpt lat="46.25281" lon="6.327">
        <ele>504.8</ele>
        <time>2021-04-03T12:14:16Z</time>
      </trkpt>
      <trkpt lat="46.25285" lon="6.32696">
        <ele>504.8</ele>
        <time>2021-04-03T12:14:17Z</time>
      </trkpt>
      <trkpt lat="46.25288" lon="6.32693">
        <ele>505</ele>
        <time>2021-04-03T12:14:18Z</time>
      </trkpt>
      <trkpt lat="46.25292" lon="6.3269">
        <ele>505</ele>
        <time>2021-04-03T12:14:19Z</time>
      </trkpt>
      <trkpt lat="46.25296" lon="6.32687">
        <ele>505</ele>
        <time>2021-04-03T12:14:20Z</time>
      </trkpt>
      <trkpt lat="46.25299" lon="6.32684">
        <ele>505.2</ele>
        <time>2021-04-03T12:14:21Z</time>
      </trkpt>
      <trkpt lat="46.25303" lon="6.32681">
        <ele>505.4</ele>
        <time>2021-04-03T12:14:22Z</time>
      </trkpt>
      <trkpt lat="46.25307" lon="6.32678">
        <ele>505.4</ele>
        <time>2021-04-03T12:14:23Z</time>
      </trkpt>
      <trkpt lat="46.25311" lon="6.32675">
        <ele>505.6</ele>
        <time>2021-04-03T12:14:24Z</time>
      </trkpt>
      <trkpt lat="46.25315" lon="6.32672">
        <ele>505.4</ele>
        <time>2021-04-03T12:14:25Z</time>
      </trkpt>
      <trkpt lat="46.25319" lon="6.32669">
        <ele>505.6</ele>
        <time>2021-04-03T12:14:26Z</time>
      </trkpt>
      <trkpt lat="46.25323" lon="6.32666">
        <ele>505.6</ele>
        <time>2021-04-03T12:14:27Z</time>
      </trkpt>
      <trkpt lat="46.25327" lon="6.32664">
        <ele>505.6</ele>
        <time>2021-04-03T12:14:28Z</time>
      </trkpt>
      <trkpt lat="46.25331" lon="6.32661">
        <ele>505.6</ele>
        <time>2021-04-03T12:14:29Z</time>
      </trkpt>
      <trkpt lat="46.25335" lon="6.32659">
        <ele>505.8</ele>
        <time>2021-04-03T12:14:30Z</time>
      </trkpt>
      <trkpt lat="46.25339" lon="6.32656">
        <ele>506</ele>
        <time>2021-04-03T12:14:31Z</time>
      </trkpt>
      <trkpt lat="46.25343" lon="6.32654">
        <ele>506.8</ele>
        <time>2021-04-03T12:14:32Z</time>
      </trkpt>
      <trkpt lat="46.25347" lon="6.32651">
        <ele>507</ele>
        <time>2021-04-03T12:14:33Z</time>
      </trkpt>
      <trkpt lat="46.25351" lon="6.32648">
        <ele>507.2</ele>
        <time>2021-04-03T12:14:34Z</time>
      </trkpt>
      <trkpt lat="46.25354" lon="6.32646">
        <ele>507.4</ele>
        <time>2021-04-03T12:14:35Z</time>
      </trkpt>
      <trkpt lat="46.25358" lon="6.32643">
        <ele>507.6</ele>
        <time>2021-04-03T12:14:36Z</time>
      </trkpt>
      <trkpt lat="46.25362" lon="6.3264">
        <ele>507.8</ele>
        <time>2021-04-03T12:14:37Z</time>
      </trkpt>
      <trkpt lat="46.25365" lon="6.32637">
        <ele>507.8</ele>
        <time>2021-04-03T12:14:38Z</time>
      </trkpt>
      <trkpt lat="46.25369" lon="6.32634">
        <ele>507.6</ele>
        <time>2021-04-03T12:14:39Z</time>
      </trkpt>
      <trkpt lat="46.25372" lon="6.32631">
        <ele>507.8</ele>
        <time>2021-04-03T12:14:40Z</time>
      </trkpt>
      <trkpt lat="46.25376" lon="6.32627">
        <ele>507.8</ele>
        <time>2021-04-03T12:14:41Z</time>
      </trkpt>
      <trkpt lat="46.25379" lon="6.32624">
        <ele>507.8</ele>
        <time>2021-04-03T12:14:42Z</time>
      </trkpt>
      <trkpt lat="46.25382" lon="6.3262">
        <ele>507.8</ele>
        <time>2021-04-03T12:14:43Z</time>
      </trkpt>
      <trkpt lat="46.25385" lon="6.32616">
        <ele>508</ele>
        <time>2021-04-03T12:14:44Z</time>
      </trkpt>
      <trkpt lat="46.25388" lon="6.32611">
        <ele>508</ele>
        <time>2021-04-03T12:14:45Z</time>
      </trkpt>
      <trkpt lat="46.25391" lon="6.32607">
        <ele>508</ele>
        <time>2021-04-03T12:14:46Z</time>
      </trkpt>
      <trkpt lat="46.25394" lon="6.32602">
        <ele>508.2</ele>
        <time>2021-04-03T12:14:47Z</time>
      </trkpt>
      <trkpt lat="46.25396" lon="6.32597">
        <ele>508</ele>
        <time>2021-04-03T12:14:48Z</time>
      </trkpt>
      <trkpt lat="46.25399" lon="6.32591">
        <ele>508.2</ele>
        <time>2021-04-03T12:14:49Z</time>
      </trkpt>
      <trkpt lat="46.25401" lon="6.32586">
        <ele>508.2</ele>
        <time>2021-04-03T12:14:50Z</time>
      </trkpt>
      <trkpt lat="46.25403" lon="6.3258">
        <ele>508.2</ele>
        <time>2021-04-03T12:14:51Z</time>
      </trkpt>
      <trkpt lat="46.25405" lon="6.32575">
        <ele>508.4</ele>
        <time>2021-04-03T12:14:52Z</time>
      </trkpt>
      <trkpt lat="46.25407" lon="6.32569">
        <ele>508.8</ele>
        <time>2021-04-03T12:14:53Z</time>
      </trkpt>
      <trkpt lat="46.25409" lon="6.32563">
        <ele>508.8</ele>
        <time>2021-04-03T12:14:54Z</time>
      </trkpt>
      <trkpt lat="46.25411" lon="6.32557">
        <ele>509.2</ele>
        <time>2021-04-03T12:14:55Z</time>
      </trkpt>
      <trkpt lat="46.25413" lon="6.32551">
        <ele>509.6</ele>
        <time>2021-04-03T12:14:56Z</time>
      </trkpt>
      <trkpt lat="46.25415" lon="6.32545">
        <ele>510.2</ele>
        <time>2021-04-03T12:14:57Z</time>
      </trkpt>
      <trkpt lat="46.25417" lon="6.32539">
        <ele>511</ele>
        <time>2021-04-03T12:14:58Z</time>
      </trkpt>
      <trkpt lat="46.25419" lon="6.32533">
        <ele>511.8</ele>
        <time>2021-04-03T12:14:59Z</time>
      </trkpt>
      <trkpt lat="46.25421" lon="6.32527">
        <ele>512.2</ele>
        <time>2021-04-03T12:15:00Z</time>
      </trkpt>
      <trkpt lat="46.25423" lon="6.32521">
        <ele>513</ele>
        <time>2021-04-03T12:15:01Z</time>
      </trkpt>
      <trkpt lat="46.25426" lon="6.32516">
        <ele>513.4</ele>
        <time>2021-04-03T12:15:02Z</time>
      </trkpt>
      <trkpt lat="46.25428" lon="6.3251">
        <ele>513.8</ele>
        <time>2021-04-03T12:15:03Z</time>
      </trkpt>
      <trkpt lat="46.25431" lon="6.32506">
        <ele>514</ele>
        <time>2021-04-03T12:15:04Z</time>
      </trkpt>
      <trkpt lat="46.25435" lon="6.32502">
        <ele>514</ele>
        <time>2021-04-03T12:15:05Z</time>
      </trkpt>
      <trkpt lat="46.25439" lon="6.32499">
        <ele>514.2</ele>
        <time>2021-04-03T12:15:06Z</time>
      </trkpt>
      <trkpt lat="46.25443" lon="6.32496">
        <ele>514.4</ele>
        <time>2021-04-03T12:15:07Z</time>
      </trkpt>
      <trkpt lat="46.25447" lon="6.32494">
        <ele>514.2</ele>
        <time>2021-04-03T12:15:08Z</time>
      </trkpt>
      <trkpt lat="46.25451" lon="6.32492">
        <ele>514.2</ele>
        <time>2021-04-03T12:15:09Z</time>
      </trkpt>
      <trkpt lat="46.25455" lon="6.32491">
        <ele>514.2</ele>
        <time>2021-04-03T12:15:10Z</time>
      </trkpt>
      <trkpt lat="46.2546" lon="6.3249">
        <ele>514.2</ele>
        <time>2021-04-03T12:15:11Z</time>
      </trkpt>
      <trkpt lat="46.25464" lon="6.32489">
        <ele>514.2</ele>
        <time>2021-04-03T12:15:12Z</time>
      </trkpt>
      <trkpt lat="46.25469" lon="6.32487">
        <ele>514.2</ele>
        <time>2021-04-03T12:15:13Z</time>
      </trkpt>
      <trkpt lat="46.25473" lon="6.32486">
        <ele>514.2</ele>
        <time>2021-04-03T12:15:14Z</time>
      </trkpt>
      <trkpt lat="46.25478" lon="6.32484">
        <ele>514.4</ele>
        <time>2021-04-03T12:15:15Z</time>
      </trkpt>
      <trkpt lat="46.25483" lon="6.32483">
        <ele>514.4</ele>
        <time>2021-04-03T12:15:16Z</time>
      </trkpt>
      <trkpt lat="46.25487" lon="6.32482">
        <ele>514.4</ele>
        <time>2021-04-03T12:15:17Z</time>
      </trkpt>
      <trkpt lat="46.25492" lon="6.3248">
        <ele>514.4</ele>
        <time>2021-04-03T12:15:18Z</time>
      </trkpt>
      <trkpt lat="46.25497" lon="6.32478">
        <ele>514.6</ele>
        <time>2021-04-03T12:15:19Z</time>
      </trkpt>
      <trkpt lat="46.25502" lon="6.32476">
        <ele>514.4</ele>
        <time>2021-04-03T12:15:20Z</time>
      </trkpt>
      <trkpt lat="46.25506" lon="6.32474">
        <ele>514.6</ele>
        <time>2021-04-03T12:15:21Z</time>
      </trkpt>
      <trkpt lat="46.25511" lon="6.32472">
        <ele>514.6</ele>
        <time>2021-04-03T12:15:22Z</time>
      </trkpt>
      <trkpt lat="46.25516" lon="6.3247">
        <ele>514.2</ele>
        <time>2021-04-03T12:15:23Z</time>
      </trkpt>
      <trkpt lat="46.2552" lon="6.32468">
        <ele>514.4</ele>
        <time>2021-04-03T12:15:24Z</time>
      </trkpt>
      <trkpt lat="46.25524" lon="6.32465">
        <ele>514.4</ele>
        <time>2021-04-03T12:15:25Z</time>
      </trkpt>
      <trkpt lat="46.25529" lon="6.32463">
        <ele>514.6</ele>
        <time>2021-04-03T12:15:26Z</time>
      </trkpt>
      <trkpt lat="46.25533" lon="6.32462">
        <ele>514.8</ele>
        <time>2021-04-03T12:15:27Z</time>
      </trkpt>
      <trkpt lat="46.25538" lon="6.3246">
        <ele>514.8</ele>
        <time>2021-04-03T12:15:28Z</time>
      </trkpt>
      <trkpt lat="46.25542" lon="6.32459">
        <ele>514.8</ele>
        <time>2021-04-03T12:15:29Z</time>
      </trkpt>
      <trkpt lat="46.25547" lon="6.32457">
        <ele>514.8</ele>
        <time>2021-04-03T12:15:30Z</time>
      </trkpt>
      <trkpt lat="46.25551" lon="6.32456">
        <ele>515</ele>
        <time>2021-04-03T12:15:31Z</time>
      </trkpt>
      <trkpt lat="46.25556" lon="6.32455">
        <ele>515.2</ele>
        <time>2021-04-03T12:15:32Z</time>
      </trkpt>
      <trkpt lat="46.2556" lon="6.32454">
        <ele>515.2</ele>
        <time>2021-04-03T12:15:33Z</time>
      </trkpt>
      <trkpt lat="46.25565" lon="6.32453">
        <ele>515.4</ele>
        <time>2021-04-03T12:15:34Z</time>
      </trkpt>
      <trkpt lat="46.25569" lon="6.32453">
        <ele>515.6</ele>
        <time>2021-04-03T12:15:35Z</time>
      </trkpt>
      <trkpt lat="46.25574" lon="6.32453">
        <ele>515.6</ele>
        <time>2021-04-03T12:15:36Z</time>
      </trkpt>
      <trkpt lat="46.25578" lon="6.32453">
        <ele>515.8</ele>
        <time>2021-04-03T12:15:37Z</time>
      </trkpt>
      <trkpt lat="46.25583" lon="6.32453">
        <ele>516.2</ele>
        <time>2021-04-03T12:15:38Z</time>
      </trkpt>
      <trkpt lat="46.25587" lon="6.32453">
        <ele>516.4</ele>
        <time>2021-04-03T12:15:39Z</time>
      </trkpt>
      <trkpt lat="46.25591" lon="6.32453">
        <ele>516.6</ele>
        <time>2021-04-03T12:15:40Z</time>
      </trkpt>
      <trkpt lat="46.25596" lon="6.32453">
        <ele>516.6</ele>
        <time>2021-04-03T12:15:41Z</time>
      </trkpt>
      <trkpt lat="46.256" lon="6.32453">
        <ele>516.8</ele>
        <time>2021-04-03T12:15:42Z</time>
      </trkpt>
      <trkpt lat="46.25605" lon="6.32453">
        <ele>516.6</ele>
        <time>2021-04-03T12:15:43Z</time>
      </trkpt>
      <trkpt lat="46.25609" lon="6.32453">
        <ele>516.8</ele>
        <time>2021-04-03T12:15:44Z</time>
      </trkpt>
      <trkpt lat="46.25613" lon="6.32453">
        <ele>516.8</ele>
        <time>2021-04-03T12:15:45Z</time>
      </trkpt>
      <trkpt lat="46.25618" lon="6.32452">
        <ele>516.8</ele>
        <time>2021-04-03T12:15:46Z</time>
      </trkpt>
      <trkpt lat="46.25622" lon="6.32453">
        <ele>517</ele>
        <time>2021-04-03T12:15:47Z</time>
      </trkpt>
      <trkpt lat="46.25627" lon="6.32453">
        <ele>517</ele>
        <time>2021-04-03T12:15:48Z</time>
      </trkpt>
      <trkpt lat="46.25631" lon="6.32454">
        <ele>517.2</ele>
        <time>2021-04-03T12:15:49Z</time>
      </trkpt>
      <trkpt lat="46.25636" lon="6.32454">
        <ele>517.2</ele>
        <time>2021-04-03T12:15:50Z</time>
      </trkpt>
      <trkpt lat="46.25641" lon="6.32455">
        <ele>517</ele>
        <time>2021-04-03T12:15:51Z</time>
      </trkpt>
      <trkpt lat="46.25645" lon="6.32457">
        <ele>517</ele>
        <time>2021-04-03T12:15:52Z</time>
      </trkpt>
      <trkpt lat="46.2565" lon="6.32459">
        <ele>517</ele>
        <time>2021-04-03T12:15:53Z</time>
      </trkpt>
      <trkpt lat="46.25655" lon="6.3246">
        <ele>517.2</ele>
        <time>2021-04-03T12:15:54Z</time>
      </trkpt>
      <trkpt lat="46.25659" lon="6.32463">
        <ele>517.2</ele>
        <time>2021-04-03T12:15:55Z</time>
      </trkpt>
      <trkpt lat="46.25664" lon="6.32465">
        <ele>517.2</ele>
        <time>2021-04-03T12:15:56Z</time>
      </trkpt>
      <trkpt lat="46.25668" lon="6.32468">
        <ele>517.2</ele>
        <time>2021-04-03T12:15:57Z</time>
      </trkpt>
      <trkpt lat="46.25673" lon="6.32472">
        <ele>517.2</ele>
        <time>2021-04-03T12:15:58Z</time>
      </trkpt>
      <trkpt lat="46.25677" lon="6.32475">
        <ele>517</ele>
        <time>2021-04-03T12:15:59Z</time>
      </trkpt>
      <trkpt lat="46.25681" lon="6.32478">
        <ele>517</ele>
        <time>2021-04-03T12:16:00Z</time>
      </trkpt>
      <trkpt lat="46.25685" lon="6.32481">
        <ele>517.2</ele>
        <time>2021-04-03T12:16:01Z</time>
      </trkpt>
      <trkpt lat="46.25689" lon="6.32484">
        <ele>517.2</ele>
        <time>2021-04-03T12:16:02Z</time>
      </trkpt>
      <trkpt lat="46.25692" lon="6.32487">
        <ele>517.2</ele>
        <time>2021-04-03T12:16:03Z</time>
      </trkpt>
      <trkpt lat="46.25695" lon="6.32491">
        <ele>517.4</ele>
        <time>2021-04-03T12:16:04Z</time>
      </trkpt>
      <trkpt lat="46.25698" lon="6.32495">
        <ele>517.2</ele>
        <time>2021-04-03T12:16:05Z</time>
      </trkpt>
      <trkpt lat="46.25701" lon="6.325">
        <ele>517.4</ele>
        <time>2021-04-03T12:16:06Z</time>
      </trkpt>
      <trkpt lat="46.25704" lon="6.32504">
        <ele>517.4</ele>
        <time>2021-04-03T12:16:07Z</time>
      </trkpt>
      <trkpt lat="46.25707" lon="6.32508">
        <ele>517.6</ele>
        <time>2021-04-03T12:16:08Z</time>
      </trkpt>
      <trkpt lat="46.25711" lon="6.32512">
        <ele>517.8</ele>
        <time>2021-04-03T12:16:09Z</time>
      </trkpt>
      <trkpt lat="46.25714" lon="6.32516">
        <ele>518</ele>
        <time>2021-04-03T12:16:10Z</time>
      </trkpt>
      <trkpt lat="46.25717" lon="6.32519">
        <ele>518</ele>
        <time>2021-04-03T12:16:11Z</time>
      </trkpt>
      <trkpt lat="46.2572" lon="6.32523">
        <ele>518.2</ele>
        <time>2021-04-03T12:16:12Z</time>
      </trkpt>
      <trkpt lat="46.25722" lon="6.32527">
        <ele>518.4</ele>
        <time>2021-04-03T12:16:13Z</time>
      </trkpt>
      <trkpt lat="46.25725" lon="6.32531">
        <ele>518.6</ele>
        <time>2021-04-03T12:16:14Z</time>
      </trkpt>
      <trkpt lat="46.25728" lon="6.32535">
        <ele>518.6</ele>
        <time>2021-04-03T12:16:15Z</time>
      </trkpt>
      <trkpt lat="46.25731" lon="6.32539">
        <ele>518.8</ele>
        <time>2021-04-03T12:16:16Z</time>
      </trkpt>
      <trkpt lat="46.25734" lon="6.32543">
        <ele>519</ele>
        <time>2021-04-03T12:16:17Z</time>
      </trkpt>
      <trkpt lat="46.25737" lon="6.32547">
        <ele>519.4</ele>
        <time>2021-04-03T12:16:18Z</time>
      </trkpt>
      <trkpt lat="46.2574" lon="6.32551">
        <ele>519.4</ele>
        <time>2021-04-03T12:16:19Z</time>
      </trkpt>
      <trkpt lat="46.25742" lon="6.32556">
        <ele>519.8</ele>
        <time>2021-04-03T12:16:20Z</time>
      </trkpt>
      <trkpt lat="46.25745" lon="6.3256">
        <ele>520</ele>
        <time>2021-04-03T12:16:21Z</time>
      </trkpt>
      <trkpt lat="46.25747" lon="6.32564">
        <ele>520</ele>
        <time>2021-04-03T12:16:22Z</time>
      </trkpt>
      <trkpt lat="46.25749" lon="6.32569">
        <ele>520.2</ele>
        <time>2021-04-03T12:16:23Z</time>
      </trkpt>
      <trkpt lat="46.2575" lon="6.32574">
        <ele>520.4</ele>
        <time>2021-04-03T12:16:24Z</time>
      </trkpt>
      <trkpt lat="46.25752" lon="6.32578">
        <ele>520.6</ele>
        <time>2021-04-03T12:16:25Z</time>
      </trkpt>
      <trkpt lat="46.25753" lon="6.32583">
        <ele>520.6</ele>
        <time>2021-04-03T12:16:26Z</time>
      </trkpt>
      <trkpt lat="46.25754" lon="6.32588">
        <ele>521</ele>
        <time>2021-04-03T12:16:27Z</time>
      </trkpt>
      <trkpt lat="46.25756" lon="6.32593">
        <ele>521</ele>
        <time>2021-04-03T12:16:28Z</time>
      </trkpt>
      <trkpt lat="46.25758" lon="6.32598">
        <ele>521</ele>
        <time>2021-04-03T12:16:29Z</time>
      </trkpt>
      <trkpt lat="46.2576" lon="6.32602">
        <ele>521.2</ele>
        <time>2021-04-03T12:16:30Z</time>
      </trkpt>
      <trkpt lat="46.25763" lon="6.32606">
        <ele>521.2</ele>
        <time>2021-04-03T12:16:31Z</time>
      </trkpt>
      <trkpt lat="46.25767" lon="6.3261">
        <ele>521.2</ele>
        <time>2021-04-03T12:16:32Z</time>
      </trkpt>
      <trkpt lat="46.2577" lon="6.32614">
        <ele>521.4</ele>
        <time>2021-04-03T12:16:33Z</time>
      </trkpt>
      <trkpt lat="46.25774" lon="6.32618">
        <ele>521.6</ele>
        <time>2021-04-03T12:16:34Z</time>
      </trkpt>
      <trkpt lat="46.25777" lon="6.32621">
        <ele>521.6</ele>
        <time>2021-04-03T12:16:35Z</time>
      </trkpt>
      <trkpt lat="46.25781" lon="6.32625">
        <ele>521.8</ele>
        <time>2021-04-03T12:16:36Z</time>
      </trkpt>
      <trkpt lat="46.25784" lon="6.32629">
        <ele>522</ele>
        <time>2021-04-03T12:16:37Z</time>
      </trkpt>
      <trkpt lat="46.25788" lon="6.32633">
        <ele>522.2</ele>
        <time>2021-04-03T12:16:38Z</time>
      </trkpt>
      <trkpt lat="46.25791" lon="6.32637">
        <ele>522.2</ele>
        <time>2021-04-03T12:16:39Z</time>
      </trkpt>
      <trkpt lat="46.25794" lon="6.32641">
        <ele>522.6</ele>
        <time>2021-04-03T12:16:40Z</time>
      </trkpt>
      <trkpt lat="46.25798" lon="6.32645">
        <ele>522.6</ele>
        <time>2021-04-03T12:16:41Z</time>
      </trkpt>
      <trkpt lat="46.25801" lon="6.32649">
        <ele>522.8</ele>
        <time>2021-04-03T12:16:42Z</time>
      </trkpt>
      <trkpt lat="46.25805" lon="6.32652">
        <ele>522.8</ele>
        <time>2021-04-03T12:16:43Z</time>
      </trkpt>
      <trkpt lat="46.25809" lon="6.32656">
        <ele>522.8</ele>
        <time>2021-04-03T12:16:44Z</time>
      </trkpt>
      <trkpt lat="46.25812" lon="6.32659">
        <ele>523</ele>
        <time>2021-04-03T12:16:45Z</time>
      </trkpt>
      <trkpt lat="46.25816" lon="6.32662">
        <ele>523</ele>
        <time>2021-04-03T12:16:46Z</time>
      </trkpt>
      <trkpt lat="46.2582" lon="6.32665">
        <ele>523.2</ele>
        <time>2021-04-03T12:16:47Z</time>
      </trkpt>
      <trkpt lat="46.25823" lon="6.32669">
        <ele>523.4</ele>
        <time>2021-04-03T12:16:48Z</time>
      </trkpt>
      <trkpt lat="46.25827" lon="6.32672">
        <ele>523.8</ele>
        <time>2021-04-03T12:16:49Z</time>
      </trkpt>
      <trkpt lat="46.2583" lon="6.32675">
        <ele>524</ele>
        <time>2021-04-03T12:16:50Z</time>
      </trkpt>
      <trkpt lat="46.25834" lon="6.32677">
        <ele>524.2</ele>
        <time>2021-04-03T12:16:51Z</time>
      </trkpt>
      <trkpt lat="46.25838" lon="6.3268">
        <ele>524.2</ele>
        <time>2021-04-03T12:16:52Z</time>
      </trkpt>
      <trkpt lat="46.25842" lon="6.32682">
        <ele>524.6</ele>
        <time>2021-04-03T12:16:53Z</time>
      </trkpt>
      <trkpt lat="46.25846" lon="6.32684">
        <ele>524.6</ele>
        <time>2021-04-03T12:16:54Z</time>
      </trkpt>
      <trkpt lat="46.2585" lon="6.32686">
        <ele>525</ele>
        <time>2021-04-03T12:16:55Z</time>
      </trkpt>
      <trkpt lat="46.25855" lon="6.32689">
        <ele>525.2</ele>
        <time>2021-04-03T12:16:56Z</time>
      </trkpt>
      <trkpt lat="46.25859" lon="6.32691">
        <ele>525.6</ele>
        <time>2021-04-03T12:16:57Z</time>
      </trkpt>
      <trkpt lat="46.25862" lon="6.32694">
        <ele>525.6</ele>
        <time>2021-04-03T12:16:58Z</time>
      </trkpt>
      <trkpt lat="46.25866" lon="6.32697">
        <ele>525.6</ele>
        <time>2021-04-03T12:16:59Z</time>
      </trkpt>
      <trkpt lat="46.2587" lon="6.32699">
        <ele>525.8</ele>
        <time>2021-04-03T12:17:00Z</time>
      </trkpt>
      <trkpt lat="46.25875" lon="6.32703">
        <ele>525.8</ele>
        <time>2021-04-03T12:17:01Z</time>
      </trkpt>
      <trkpt lat="46.25879" lon="6.32706">
        <ele>526</ele>
        <time>2021-04-03T12:17:02Z</time>
      </trkpt>
      <trkpt lat="46.25883" lon="6.32709">
        <ele>526</ele>
        <time>2021-04-03T12:17:03Z</time>
      </trkpt>
      <trkpt lat="46.25887" lon="6.32712">
        <ele>526</ele>
        <time>2021-04-03T12:17:04Z</time>
      </trkpt>
      <trkpt lat="46.25891" lon="6.32715">
        <ele>526.2</ele>
        <time>2021-04-03T12:17:05Z</time>
      </trkpt>
      <trkpt lat="46.25895" lon="6.32718">
        <ele>526.2</ele>
        <time>2021-04-03T12:17:06Z</time>
      </trkpt>
      <trkpt lat="46.25898" lon="6.32721">
        <ele>526.4</ele>
        <time>2021-04-03T12:17:07Z</time>
      </trkpt>
      <trkpt lat="46.25902" lon="6.32724">
        <ele>526.4</ele>
        <time>2021-04-03T12:17:08Z</time>
      </trkpt>
      <trkpt lat="46.25906" lon="6.32727">
        <ele>526.4</ele>
        <time>2021-04-03T12:17:09Z</time>
      </trkpt>
      <trkpt lat="46.2591" lon="6.3273">
        <ele>526.4</ele>
        <time>2021-04-03T12:17:10Z</time>
      </trkpt>
      <trkpt lat="46.25914" lon="6.32733">
        <ele>526.6</ele>
        <time>2021-04-03T12:17:11Z</time>
      </trkpt>
      <trkpt lat="46.25918" lon="6.32736">
        <ele>526.8</ele>
        <time>2021-04-03T12:17:12Z</time>
      </trkpt>
      <trkpt lat="46.25921" lon="6.32739">
        <ele>527.2</ele>
        <time>2021-04-03T12:17:13Z</time>
      </trkpt>
      <trkpt lat="46.25925" lon="6.32742">
        <ele>527</ele>
        <time>2021-04-03T12:17:14Z</time>
      </trkpt>
      <trkpt lat="46.25929" lon="6.32745">
        <ele>527.6</ele>
        <time>2021-04-03T12:17:15Z</time>
      </trkpt>
      <trkpt lat="46.25933" lon="6.32748">
        <ele>527.6</ele>
        <time>2021-04-03T12:17:16Z</time>
      </trkpt>
      <trkpt lat="46.25936" lon="6.3275">
        <ele>528</ele>
        <time>2021-04-03T12:17:17Z</time>
      </trkpt>
      <trkpt lat="46.2594" lon="6.32753">
        <ele>528</ele>
        <time>2021-04-03T12:17:18Z</time>
      </trkpt>
      <trkpt lat="46.25943" lon="6.32756">
        <ele>528.2</ele>
        <time>2021-04-03T12:17:19Z</time>
      </trkpt>
      <trkpt lat="46.25946" lon="6.3276">
        <ele>528.2</ele>
        <time>2021-04-03T12:17:20Z</time>
      </trkpt>
      <trkpt lat="46.25948" lon="6.32765">
        <ele>528.4</ele>
        <time>2021-04-03T12:17:21Z</time>
      </trkpt>
      <trkpt lat="46.25949" lon="6.3277">
        <ele>528.4</ele>
        <time>2021-04-03T12:17:22Z</time>
      </trkpt>
      <trkpt lat="46.2595" lon="6.32776">
        <ele>528.4</ele>
        <time>2021-04-03T12:17:23Z</time>
      </trkpt>
      <trkpt lat="46.25951" lon="6.32781">
        <ele>528.4</ele>
        <time>2021-04-03T12:17:24Z</time>
      </trkpt>
      <trkpt lat="46.25952" lon="6.32787">
        <ele>528.6</ele>
        <time>2021-04-03T12:17:25Z</time>
      </trkpt>
      <trkpt lat="46.25953" lon="6.32793">
        <ele>528.6</ele>
        <time>2021-04-03T12:17:26Z</time>
      </trkpt>
      <trkpt lat="46.25953" lon="6.32799">
        <ele>528.8</ele>
        <time>2021-04-03T12:17:27Z</time>
      </trkpt>
      <trkpt lat="46.25954" lon="6.32805">
        <ele>528.8</ele>
        <time>2021-04-03T12:17:28Z</time>
      </trkpt>
      <trkpt lat="46.25955" lon="6.32811">
        <ele>529</ele>
        <time>2021-04-03T12:17:29Z</time>
      </trkpt>
      <trkpt lat="46.25957" lon="6.32816">
        <ele>529</ele>
        <time>2021-04-03T12:17:30Z</time>
      </trkpt>
      <trkpt lat="46.25959" lon="6.32822">
        <ele>529.2</ele>
        <time>2021-04-03T12:17:31Z</time>
      </trkpt>
      <trkpt lat="46.25961" lon="6.32827">
        <ele>529.4</ele>
        <time>2021-04-03T12:17:32Z</time>
      </trkpt>
      <trkpt lat="46.25963" lon="6.32832">
        <ele>529.4</ele>
        <time>2021-04-03T12:17:33Z</time>
      </trkpt>
      <trkpt lat="46.25965" lon="6.32837">
        <ele>529.6</ele>
        <time>2021-04-03T12:17:34Z</time>
      </trkpt>
      <trkpt lat="46.25967" lon="6.32842">
        <ele>529.4</ele>
        <time>2021-04-03T12:17:35Z</time>
      </trkpt>
      <trkpt lat="46.25969" lon="6.32847">
        <ele>529.8</ele>
        <time>2021-04-03T12:17:36Z</time>
      </trkpt>
      <trkpt lat="46.25971" lon="6.32851">
        <ele>530</ele>
        <time>2021-04-03T12:17:37Z</time>
      </trkpt>
      <trkpt lat="46.25973" lon="6.32856">
        <ele>530.2</ele>
        <time>2021-04-03T12:17:38Z</time>
      </trkpt>
      <trkpt lat="46.25976" lon="6.3286">
        <ele>530.4</ele>
        <time>2021-04-03T12:17:39Z</time>
      </trkpt>
      <trkpt lat="46.25979" lon="6.32864">
        <ele>530.6</ele>
        <time>2021-04-03T12:17:40Z</time>
      </trkpt>
      <trkpt lat="46.25982" lon="6.32869">
        <ele>530.8</ele>
        <time>2021-04-03T12:17:41Z</time>
      </trkpt>
      <trkpt lat="46.25984" lon="6.32872">
        <ele>530.8</ele>
        <time>2021-04-03T12:17:42Z</time>
      </trkpt>
      <trkpt lat="46.25987" lon="6.32876">
        <ele>531</ele>
        <time>2021-04-03T12:17:43Z</time>
      </trkpt>
      <trkpt lat="46.2599" lon="6.3288">
        <ele>531</ele>
        <time>2021-04-03T12:17:44Z</time>
      </trkpt>
      <trkpt lat="46.25993" lon="6.32883">
        <ele>531.4</ele>
        <time>2021-04-03T12:17:45Z</time>
      </trkpt>
      <trkpt lat="46.25997" lon="6.32886">
        <ele>531.4</ele>
        <time>2021-04-03T12:17:46Z</time>
      </trkpt>
      <trkpt lat="46.26" lon="6.32889">
        <ele>531.4</ele>
        <time>2021-04-03T12:17:47Z</time>
      </trkpt>
      <trkpt lat="46.26003" lon="6.32892">
        <ele>531.6</ele>
        <time>2021-04-03T12:17:48Z</time>
      </trkpt>
      <trkpt lat="46.26006" lon="6.32896">
        <ele>531.6</ele>
        <time>2021-04-03T12:17:49Z</time>
      </trkpt>
      <trkpt lat="46.26008" lon="6.32899">
        <ele>531.6</ele>
        <time>2021-04-03T12:17:50Z</time>
      </trkpt>
      <trkpt lat="46.2601" lon="6.32903">
        <ele>531.6</ele>
        <time>2021-04-03T12:17:51Z</time>
      </trkpt>
      <trkpt lat="46.26012" lon="6.32906">
        <ele>531.8</ele>
        <time>2021-04-03T12:17:52Z</time>
      </trkpt>
      <trkpt lat="46.26015" lon="6.32909">
        <ele>531.8</ele>
        <time>2021-04-03T12:17:53Z</time>
      </trkpt>
      <trkpt lat="46.26017" lon="6.32912">
        <ele>532.2</ele>
        <time>2021-04-03T12:17:54Z</time>
      </trkpt>
      <trkpt lat="46.2602" lon="6.32914">
        <ele>532.2</ele>
        <time>2021-04-03T12:17:55Z</time>
      </trkpt>
      <trkpt lat="46.26023" lon="6.32917">
        <ele>532.4</ele>
        <time>2021-04-03T12:17:56Z</time>
      </trkpt>
      <trkpt lat="46.26026" lon="6.3292">
        <ele>532.4</ele>
        <time>2021-04-03T12:17:57Z</time>
      </trkpt>
      <trkpt lat="46.26029" lon="6.32922">
        <ele>532.6</ele>
        <time>2021-04-03T12:17:58Z</time>
      </trkpt>
      <trkpt lat="46.26032" lon="6.32925">
        <ele>532.6</ele>
        <time>2021-04-03T12:17:59Z</time>
      </trkpt>
      <trkpt lat="46.26035" lon="6.32927">
        <ele>532.8</ele>
        <time>2021-04-03T12:18:00Z</time>
      </trkpt>
      <trkpt lat="46.26038" lon="6.3293">
        <ele>532.8</ele>
        <time>2021-04-03T12:18:01Z</time>
      </trkpt>
      <trkpt lat="46.26041" lon="6.32932">
        <ele>533</ele>
        <time>2021-04-03T12:18:02Z</time>
      </trkpt>
      <trkpt lat="46.26044" lon="6.32935">
        <ele>533.4</ele>
        <time>2021-04-03T12:18:03Z</time>
      </trkpt>
      <trkpt lat="46.26047" lon="6.32938">
        <ele>533.4</ele>
        <time>2021-04-03T12:18:04Z</time>
      </trkpt>
      <trkpt lat="46.2605" lon="6.3294">
        <ele>533.6</ele>
        <time>2021-04-03T12:18:05Z</time>
      </trkpt>
      <trkpt lat="46.26052" lon="6.32942">
        <ele>533.6</ele>
        <time>2021-04-03T12:18:06Z</time>
      </trkpt>
      <trkpt lat="46.26055" lon="6.32945">
        <ele>533.8</ele>
        <time>2021-04-03T12:18:07Z</time>
      </trkpt>
      <trkpt lat="46.26058" lon="6.32947">
        <ele>534</ele>
        <time>2021-04-03T12:18:08Z</time>
      </trkpt>
      <trkpt lat="46.26061" lon="6.3295">
        <ele>534.2</ele>
        <time>2021-04-03T12:18:09Z</time>
      </trkpt>
      <trkpt lat="46.26064" lon="6.32952">
        <ele>534.2</ele>
        <time>2021-04-03T12:18:10Z</time>
      </trkpt>
      <trkpt lat="46.26067" lon="6.32954">
        <ele>534.2</ele>
        <time>2021-04-03T12:18:11Z</time>
      </trkpt>
      <trkpt lat="46.2607" lon="6.32956">
        <ele>534.6</ele>
        <time>2021-04-03T12:18:12Z</time>
      </trkpt>
      <trkpt lat="46.26073" lon="6.32958">
        <ele>534.8</ele>
        <time>2021-04-03T12:18:13Z</time>
      </trkpt>
      <trkpt lat="46.26076" lon="6.32961">
        <ele>535.4</ele>
        <time>2021-04-03T12:18:14Z</time>
      </trkpt>
      <trkpt lat="46.26079" lon="6.32963">
        <ele>535.6</ele>
        <time>2021-04-03T12:18:15Z</time>
      </trkpt>
      <trkpt lat="46.26082" lon="6.32965">
        <ele>535.6</ele>
        <time>2021-04-03T12:18:16Z</time>
      </trkpt>
      <trkpt lat="46.26085" lon="6.32967">
        <ele>535.8</ele>
        <time>2021-04-03T12:18:17Z</time>
      </trkpt>
      <trkpt lat="46.26088" lon="6.32969">
        <ele>535.8</ele>
        <time>2021-04-03T12:18:18Z</time>
      </trkpt>
      <trkpt lat="46.26091" lon="6.32971">
        <ele>535.8</ele>
        <time>2021-04-03T12:18:19Z</time>
      </trkpt>
      <trkpt lat="46.26094" lon="6.32973">
        <ele>536</ele>
        <time>2021-04-03T12:18:20Z</time>
      </trkpt>
      <trkpt lat="46.26097" lon="6.32975">
        <ele>536</ele>
        <time>2021-04-03T12:18:21Z</time>
      </trkpt>
      <trkpt lat="46.261" lon="6.32977">
        <ele>536.2</ele>
        <time>2021-04-03T12:18:22Z</time>
      </trkpt>
      <trkpt lat="46.26103" lon="6.32979">
        <ele>536.4</ele>
        <time>2021-04-03T12:18:23Z</time>
      </trkpt>
      <trkpt lat="46.26106" lon="6.32981">
        <ele>536.8</ele>
        <time>2021-04-03T12:18:24Z</time>
      </trkpt>
      <trkpt lat="46.26109" lon="6.32983">
        <ele>536.8</ele>
        <time>2021-04-03T12:18:25Z</time>
      </trkpt>
      <trkpt lat="46.26112" lon="6.32984">
        <ele>537</ele>
        <time>2021-04-03T12:18:26Z</time>
      </trkpt>
      <trkpt lat="46.26116" lon="6.32986">
        <ele>537</ele>
        <time>2021-04-03T12:18:27Z</time>
      </trkpt>
      <trkpt lat="46.26119" lon="6.32988">
        <ele>537</ele>
        <time>2021-04-03T12:18:28Z</time>
      </trkpt>
      <trkpt lat="46.26122" lon="6.32989">
        <ele>537</ele>
        <time>2021-04-03T12:18:29Z</time>
      </trkpt>
      <trkpt lat="46.26125" lon="6.32991">
        <ele>537.2</ele>
        <time>2021-04-03T12:18:30Z</time>
      </trkpt>
      <trkpt lat="46.26128" lon="6.32992">
        <ele>537.4</ele>
        <time>2021-04-03T12:18:31Z</time>
      </trkpt>
      <trkpt lat="46.26132" lon="6.32993">
        <ele>537.6</ele>
        <time>2021-04-03T12:18:32Z</time>
      </trkpt>
      <trkpt lat="46.26135" lon="6.32994">
        <ele>537.8</ele>
        <time>2021-04-03T12:18:33Z</time>
      </trkpt>
      <trkpt lat="46.26138" lon="6.32996">
        <ele>538</ele>
        <time>2021-04-03T12:18:34Z</time>
      </trkpt>
      <trkpt lat="46.26141" lon="6.32997">
        <ele>538.2</ele>
        <time>2021-04-03T12:18:35Z</time>
      </trkpt>
      <trkpt lat="46.26145" lon="6.32998">
        <ele>538.4</ele>
        <time>2021-04-03T12:18:36Z</time>
      </trkpt>
      <trkpt lat="46.2615" lon="6.33">
        <ele>538.6</ele>
        <time>2021-04-03T12:18:37Z</time>
      </trkpt>
      <trkpt lat="46.26154" lon="6.33002">
        <ele>538.4</ele>
        <time>2021-04-03T12:18:38Z</time>
      </trkpt>
      <trkpt lat="46.26159" lon="6.33005">
        <ele>538.4</ele>
        <time>2021-04-03T12:18:39Z</time>
      </trkpt>
      <trkpt lat="46.26163" lon="6.33008">
        <ele>538.6</ele>
        <time>2021-04-03T12:18:40Z</time>
      </trkpt>
      <trkpt lat="46.26167" lon="6.33011">
        <ele>538.2</ele>
        <time>2021-04-03T12:18:41Z</time>
      </trkpt>
      <trkpt lat="46.26172" lon="6.33013">
        <ele>538.2</ele>
        <time>2021-04-03T12:18:42Z</time>
      </trkpt>
      <trkpt lat="46.26177" lon="6.33015">
        <ele>538</ele>
        <time>2021-04-03T12:18:43Z</time>
      </trkpt>
      <trkpt lat="46.26181" lon="6.33017">
        <ele>537.8</ele>
        <time>2021-04-03T12:18:44Z</time>
      </trkpt>
      <trkpt lat="46.26186" lon="6.3302">
        <ele>537.6</ele>
        <time>2021-04-03T12:18:45Z</time>
      </trkpt>
      <trkpt lat="46.2619" lon="6.33022">
        <ele>538</ele>
        <time>2021-04-03T12:18:46Z</time>
      </trkpt>
      <trkpt lat="46.26195" lon="6.33024">
        <ele>538.2</ele>
        <time>2021-04-03T12:18:47Z</time>
      </trkpt>
      <trkpt lat="46.262" lon="6.33026">
        <ele>538.2</ele>
        <time>2021-04-03T12:18:48Z</time>
      </trkpt>
      <trkpt lat="46.26204" lon="6.33028">
        <ele>538</ele>
        <time>2021-04-03T12:18:49Z</time>
      </trkpt>
      <trkpt lat="46.26209" lon="6.33029">
        <ele>538.2</ele>
        <time>2021-04-03T12:18:50Z</time>
      </trkpt>
      <trkpt lat="46.26214" lon="6.33031">
        <ele>538.2</ele>
        <time>2021-04-03T12:18:51Z</time>
      </trkpt>
      <trkpt lat="46.26219" lon="6.33033">
        <ele>538.2</ele>
        <time>2021-04-03T12:18:52Z</time>
      </trkpt>
      <trkpt lat="46.26224" lon="6.33036">
        <ele>538.2</ele>
        <time>2021-04-03T12:18:53Z</time>
      </trkpt>
      <trkpt lat="46.26229" lon="6.33038">
        <ele>538.2</ele>
        <time>2021-04-03T12:18:54Z</time>
      </trkpt>
      <trkpt lat="46.26233" lon="6.3304">
        <ele>538.2</ele>
        <time>2021-04-03T12:18:55Z</time>
      </trkpt>
      <trkpt lat="46.26238" lon="6.33043">
        <ele>538.4</ele>
        <time>2021-04-03T12:18:56Z</time>
      </trkpt>
      <trkpt lat="46.26242" lon="6.33045">
        <ele>538.4</ele>
        <time>2021-04-03T12:18:57Z</time>
      </trkpt>
      <trkpt lat="46.26246" lon="6.33048">
        <ele>538.4</ele>
        <time>2021-04-03T12:18:58Z</time>
      </trkpt>
      <trkpt lat="46.2625" lon="6.3305">
        <ele>538.6</ele>
        <time>2021-04-03T12:18:59Z</time>
      </trkpt>
      <trkpt lat="46.26253" lon="6.33053">
        <ele>539</ele>
        <time>2021-04-03T12:19:00Z</time>
      </trkpt>
      <trkpt lat="46.26257" lon="6.33055">
        <ele>539.2</ele>
        <time>2021-04-03T12:19:01Z</time>
      </trkpt>
      <trkpt lat="46.2626" lon="6.33058">
        <ele>539.4</ele>
        <time>2021-04-03T12:19:02Z</time>
      </trkpt>
      <trkpt lat="46.26264" lon="6.3306">
        <ele>539.6</ele>
        <time>2021-04-03T12:19:03Z</time>
      </trkpt>
      <trkpt lat="46.26267" lon="6.33063">
        <ele>540</ele>
        <time>2021-04-03T12:19:04Z</time>
      </trkpt>
      <trkpt lat="46.26271" lon="6.33066">
        <ele>540</ele>
        <time>2021-04-03T12:19:05Z</time>
      </trkpt>
      <trkpt lat="46.26274" lon="6.33069">
        <ele>540.2</ele>
        <time>2021-04-03T12:19:06Z</time>
      </trkpt>
      <trkpt lat="46.26277" lon="6.33072">
        <ele>540.4</ele>
        <time>2021-04-03T12:19:07Z</time>
      </trkpt>
      <trkpt lat="46.26281" lon="6.33076">
        <ele>540.4</ele>
        <time>2021-04-03T12:19:08Z</time>
      </trkpt>
      <trkpt lat="46.26284" lon="6.33079">
        <ele>540.6</ele>
        <time>2021-04-03T12:19:09Z</time>
      </trkpt>
      <trkpt lat="46.26287" lon="6.33083">
        <ele>541.8</ele>
        <time>2021-04-03T12:19:10Z</time>
      </trkpt>
      <trkpt lat="46.26291" lon="6.33087">
        <ele>542.8</ele>
        <time>2021-04-03T12:19:11Z</time>
      </trkpt>
      <trkpt lat="46.26294" lon="6.33091">
        <ele>543.2</ele>
        <time>2021-04-03T12:19:12Z</time>
      </trkpt>
      <trkpt lat="46.26297" lon="6.33095">
        <ele>543.8</ele>
        <time>2021-04-03T12:19:13Z</time>
      </trkpt>
      <trkpt lat="46.26301" lon="6.331">
        <ele>544.2</ele>
        <time>2021-04-03T12:19:14Z</time>
      </trkpt>
      <trkpt lat="46.26304" lon="6.33104">
        <ele>544.2</ele>
        <time>2021-04-03T12:19:15Z</time>
      </trkpt>
      <trkpt lat="46.26307" lon="6.33109">
        <ele>544.8</ele>
        <time>2021-04-03T12:19:16Z</time>
      </trkpt>
      <trkpt lat="46.2631" lon="6.33113">
        <ele>545</ele>
        <time>2021-04-03T12:19:17Z</time>
      </trkpt>
      <trkpt lat="46.26314" lon="6.33117">
        <ele>545.2</ele>
        <time>2021-04-03T12:19:18Z</time>
      </trkpt>
      <trkpt lat="46.26317" lon="6.33121">
        <ele>545.6</ele>
        <time>2021-04-03T12:19:19Z</time>
      </trkpt>
      <trkpt lat="46.2632" lon="6.33125">
        <ele>545.8</ele>
        <time>2021-04-03T12:19:20Z</time>
      </trkpt>
      <trkpt lat="46.26323" lon="6.3313">
        <ele>545.6</ele>
        <time>2021-04-03T12:19:21Z</time>
      </trkpt>
      <trkpt lat="46.26327" lon="6.33134">
        <ele>545.6</ele>
        <time>2021-04-03T12:19:22Z</time>
      </trkpt>
      <trkpt lat="46.2633" lon="6.33138">
        <ele>545.6</ele>
        <time>2021-04-03T12:19:23Z</time>
      </trkpt>
      <trkpt lat="46.26333" lon="6.33142">
        <ele>545.6</ele>
        <time>2021-04-03T12:19:24Z</time>
      </trkpt>
      <trkpt lat="46.26336" lon="6.33147">
        <ele>545.8</ele>
        <time>2021-04-03T12:19:25Z</time>
      </trkpt>
      <trkpt lat="46.2634" lon="6.33151">
        <ele>546</ele>
        <time>2021-04-03T12:19:26Z</time>
      </trkpt>
      <trkpt lat="46.26343" lon="6.33155">
        <ele>546</ele>
        <time>2021-04-03T12:19:27Z</time>
      </trkpt>
      <trkpt lat="46.26346" lon="6.33159">
        <ele>546</ele>
        <time>2021-04-03T12:19:28Z</time>
      </trkpt>
      <trkpt lat="46.26349" lon="6.33164">
        <ele>546</ele>
        <time>2021-04-03T12:19:29Z</time>
      </trkpt>
      <trkpt lat="46.26353" lon="6.33168">
        <ele>546</ele>
        <time>2021-04-03T12:19:30Z</time>
      </trkpt>
      <trkpt lat="46.26356" lon="6.33172">
        <ele>546</ele>
        <time>2021-04-03T12:19:31Z</time>
      </trkpt>
      <trkpt lat="46.26359" lon="6.33176">
        <ele>545.8</ele>
        <time>2021-04-03T12:19:32Z</time>
      </trkpt>
      <trkpt lat="46.26363" lon="6.3318">
        <ele>546</ele>
        <time>2021-04-03T12:19:33Z</time>
      </trkpt>
      <trkpt lat="46.26366" lon="6.33185">
        <ele>545.8</ele>
        <time>2021-04-03T12:19:34Z</time>
      </trkpt>
      <trkpt lat="46.26369" lon="6.33189">
        <ele>545.6</ele>
        <time>2021-04-03T12:19:35Z</time>
      </trkpt>
      <trkpt lat="46.26373" lon="6.33194">
        <ele>545.4</ele>
        <time>2021-04-03T12:19:36Z</time>
      </trkpt>
      <trkpt lat="46.26376" lon="6.33198">
        <ele>545.2</ele>
        <time>2021-04-03T12:19:37Z</time>
      </trkpt>
      <trkpt lat="46.2638" lon="6.33202">
        <ele>545.2</ele>
        <time>2021-04-03T12:19:38Z</time>
      </trkpt>
      <trkpt lat="46.26383" lon="6.33207">
        <ele>545</ele>
        <time>2021-04-03T12:19:39Z</time>
      </trkpt>
      <trkpt lat="46.26387" lon="6.33211">
        <ele>545</ele>
        <time>2021-04-03T12:19:40Z</time>
      </trkpt>
      <trkpt lat="46.2639" lon="6.33216">
        <ele>545</ele>
        <time>2021-04-03T12:19:41Z</time>
      </trkpt>
      <trkpt lat="46.26393" lon="6.3322">
        <ele>545</ele>
        <time>2021-04-03T12:19:42Z</time>
      </trkpt>
      <trkpt lat="46.26396" lon="6.33224">
        <ele>545</ele>
        <time>2021-04-03T12:19:43Z</time>
      </trkpt>
      <trkpt lat="46.26399" lon="6.33228">
        <ele>545</ele>
        <time>2021-04-03T12:19:44Z</time>
      </trkpt>
      <trkpt lat="46.26402" lon="6.33232">
        <ele>545</ele>
        <time>2021-04-03T12:19:45Z</time>
      </trkpt>
      <trkpt lat="46.26404" lon="6.33237">
        <ele>545</ele>
        <time>2021-04-03T12:19:46Z</time>
      </trkpt>
      <trkpt lat="46.26407" lon="6.33241">
        <ele>545</ele>
        <time>2021-04-03T12:19:47Z</time>
      </trkpt>
      <trkpt lat="46.2641" lon="6.33246">
        <ele>545</ele>
        <time>2021-04-03T12:19:48Z</time>
      </trkpt>
      <trkpt lat="46.26413" lon="6.3325">
        <ele>545</ele>
        <time>2021-04-03T12:19:49Z</time>
      </trkpt>
      <trkpt lat="46.26416" lon="6.33255">
        <ele>545</ele>
        <time>2021-04-03T12:19:50Z</time>
      </trkpt>
      <trkpt lat="46.26419" lon="6.33259">
        <ele>545</ele>
        <time>2021-04-03T12:19:51Z</time>
      </trkpt>
      <trkpt lat="46.26422" lon="6.33264">
        <ele>545</ele>
        <time>2021-04-03T12:19:52Z</time>
      </trkpt>
      <trkpt lat="46.26425" lon="6.33268">
        <ele>545.2</ele>
        <time>2021-04-03T12:19:53Z</time>
      </trkpt>
      <trkpt lat="46.26427" lon="6.33273">
        <ele>545.4</ele>
        <time>2021-04-03T12:19:54Z</time>
      </trkpt>
      <trkpt lat="46.2643" lon="6.33278">
        <ele>545.4</ele>
        <time>2021-04-03T12:19:55Z</time>
      </trkpt>
      <trkpt lat="46.26432" lon="6.33284">
        <ele>545.6</ele>
        <time>2021-04-03T12:19:56Z</time>
      </trkpt>
      <trkpt lat="46.26434" lon="6.33289">
        <ele>545.8</ele>
        <time>2021-04-03T12:19:57Z</time>
      </trkpt>
      <trkpt lat="46.26437" lon="6.33294">
        <ele>546</ele>
        <time>2021-04-03T12:19:58Z</time>
      </trkpt>
      <trkpt lat="46.26439" lon="6.33299">
        <ele>546.2</ele>
        <time>2021-04-03T12:19:59Z</time>
      </trkpt>
      <trkpt lat="46.26441" lon="6.33305">
        <ele>546.2</ele>
        <time>2021-04-03T12:20:00Z</time>
      </trkpt>
      <trkpt lat="46.26443" lon="6.3331">
        <ele>546.4</ele>
        <time>2021-04-03T12:20:01Z</time>
      </trkpt>
      <trkpt lat="46.26445" lon="6.33316">
        <ele>546.4</ele>
        <time>2021-04-03T12:20:02Z</time>
      </trkpt>
      <trkpt lat="46.26447" lon="6.33321">
        <ele>546.6</ele>
        <time>2021-04-03T12:20:03Z</time>
      </trkpt>
      <trkpt lat="46.26448" lon="6.33326">
        <ele>546.8</ele>
        <time>2021-04-03T12:20:04Z</time>
      </trkpt>
      <trkpt lat="46.2645" lon="6.33332">
        <ele>547</ele>
        <time>2021-04-03T12:20:05Z</time>
      </trkpt>
      <trkpt lat="46.26452" lon="6.33337">
        <ele>547.2</ele>
        <time>2021-04-03T12:20:06Z</time>
      </trkpt>
      <trkpt lat="46.26453" lon="6.33343">
        <ele>547.8</ele>
        <time>2021-04-03T12:20:07Z</time>
      </trkpt>
      <trkpt lat="46.26455" lon="6.33348">
        <ele>548</ele>
        <time>2021-04-03T12:20:08Z</time>
      </trkpt>
      <trkpt lat="46.26456" lon="6.33354">
        <ele>548.4</ele>
        <time>2021-04-03T12:20:09Z</time>
      </trkpt>
      <trkpt lat="46.26458" lon="6.3336">
        <ele>548.4</ele>
        <time>2021-04-03T12:20:10Z</time>
      </trkpt>
      <trkpt lat="46.2646" lon="6.33365">
        <ele>548.6</ele>
        <time>2021-04-03T12:20:11Z</time>
      </trkpt>
      <trkpt lat="46.26462" lon="6.3337">
        <ele>548.6</ele>
        <time>2021-04-03T12:20:12Z</time>
      </trkpt>
      <trkpt lat="46.26464" lon="6.33375">
        <ele>548.6</ele>
        <time>2021-04-03T12:20:13Z</time>
      </trkpt>
      <trkpt lat="46.26466" lon="6.3338">
        <ele>548.8</ele>
        <time>2021-04-03T12:20:14Z</time>
      </trkpt>
      <trkpt lat="46.26467" lon="6.33385">
        <ele>548.8</ele>
        <time>2021-04-03T12:20:15Z</time>
      </trkpt>
      <trkpt lat="46.26467" lon="6.3339">
        <ele>548.8</ele>
        <time>2021-04-03T12:20:16Z</time>
      </trkpt>
      <trkpt lat="46.26467" lon="6.33395">
        <ele>548.8</ele>
        <time>2021-04-03T12:20:17Z</time>
      </trkpt>
      <trkpt lat="46.26467" lon="6.33401">
        <ele>549</ele>
        <time>2021-04-03T12:20:18Z</time>
      </trkpt>
      <trkpt lat="46.26466" lon="6.33406">
        <ele>549.2</ele>
        <time>2021-04-03T12:20:19Z</time>
      </trkpt>
      <trkpt lat="46.26464" lon="6.33411">
        <ele>549.2</ele>
        <time>2021-04-03T12:20:20Z</time>
      </trkpt>
      <trkpt lat="46.26463" lon="6.33416">
        <ele>549.2</ele>
        <time>2021-04-03T12:20:21Z</time>
      </trkpt>
      <trkpt lat="46.26462" lon="6.3342">
        <ele>549.4</ele>
        <time>2021-04-03T12:20:22Z</time>
      </trkpt>
      <trkpt lat="46.26461" lon="6.33424">
        <ele>549.6</ele>
        <time>2021-04-03T12:20:23Z</time>
      </trkpt>
      <trkpt lat="46.2646" lon="6.33427">
        <ele>550.2</ele>
        <time>2021-04-03T12:20:24Z</time>
      </trkpt>
      <trkpt lat="46.26459" lon="6.33431">
        <ele>550.4</ele>
        <time>2021-04-03T12:20:25Z</time>
      </trkpt>
      <trkpt lat="46.26458" lon="6.33435">
        <ele>550.6</ele>
        <time>2021-04-03T12:20:26Z</time>
      </trkpt>
      <trkpt lat="46.26458" lon="6.33439">
        <ele>551</ele>
        <time>2021-04-03T12:20:27Z</time>
      </trkpt>
      <trkpt lat="46.26457" lon="6.33442">
        <ele>551</ele>
        <time>2021-04-03T12:20:28Z</time>
      </trkpt>
      <trkpt lat="46.26456" lon="6.33446">
        <ele>551</ele>
        <time>2021-04-03T12:20:29Z</time>
      </trkpt>
      <trkpt lat="46.26455" lon="6.33449">
        <ele>551</ele>
        <time>2021-04-03T12:20:30Z</time>
      </trkpt>
      <trkpt lat="46.26454" lon="6.33453">
        <ele>551</ele>
        <time>2021-04-03T12:20:31Z</time>
      </trkpt>
      <trkpt lat="46.26453" lon="6.33456">
        <ele>551</ele>
        <time>2021-04-03T12:20:32Z</time>
      </trkpt>
      <trkpt lat="46.26452" lon="6.3346">
        <ele>551.2</ele>
        <time>2021-04-03T12:20:33Z</time>
      </trkpt>
      <trkpt lat="46.26452" lon="6.33463">
        <ele>551.4</ele>
        <time>2021-04-03T12:20:34Z</time>
      </trkpt>
      <trkpt lat="46.26451" lon="6.33467">
        <ele>551.2</ele>
        <time>2021-04-03T12:20:35Z</time>
      </trkpt>
      <trkpt lat="46.2645" lon="6.3347">
        <ele>551.4</ele>
        <time>2021-04-03T12:20:36Z</time>
      </trkpt>
      <trkpt lat="46.2645" lon="6.33473">
        <ele>551.4</ele>
        <time>2021-04-03T12:20:37Z</time>
      </trkpt>
      <trkpt lat="46.26449" lon="6.33477">
        <ele>551.4</ele>
        <time>2021-04-03T12:20:38Z</time>
      </trkpt>
      <trkpt lat="46.26449" lon="6.33479">
        <ele>551.6</ele>
        <time>2021-04-03T12:20:39Z</time>
      </trkpt>
      <trkpt lat="46.26448" lon="6.33482">
        <ele>551.6</ele>
        <time>2021-04-03T12:20:40Z</time>
      </trkpt>
      <trkpt lat="46.26448" lon="6.33486">
        <ele>551.6</ele>
        <time>2021-04-03T12:20:41Z</time>
      </trkpt>
      <trkpt lat="46.26447" lon="6.33489">
        <ele>551.6</ele>
        <time>2021-04-03T12:20:42Z</time>
      </trkpt>
      <trkpt lat="46.26447" lon="6.33493">
        <ele>551.6</ele>
        <time>2021-04-03T12:20:43Z</time>
      </trkpt>
      <trkpt lat="46.26446" lon="6.33496">
        <ele>551.8</ele>
        <time>2021-04-03T12:20:44Z</time>
      </trkpt>
      <trkpt lat="46.26446" lon="6.335">
        <ele>551.6</ele>
        <time>2021-04-03T12:20:45Z</time>
      </trkpt>
      <trkpt lat="46.26445" lon="6.33503">
        <ele>551.6</ele>
        <time>2021-04-03T12:20:46Z</time>
      </trkpt>
      <trkpt lat="46.26444" lon="6.33507">
        <ele>551.6</ele>
        <time>2021-04-03T12:20:47Z</time>
      </trkpt>
      <trkpt lat="46.26443" lon="6.33511">
        <ele>551.6</ele>
        <time>2021-04-03T12:20:48Z</time>
      </trkpt>
      <trkpt lat="46.26442" lon="6.33515">
        <ele>551.6</ele>
        <time>2021-04-03T12:20:49Z</time>
      </trkpt>
      <trkpt lat="46.26442" lon="6.33519">
        <ele>551.6</ele>
        <time>2021-04-03T12:20:50Z</time>
      </trkpt>
      <trkpt lat="46.26441" lon="6.33522">
        <ele>551.2</ele>
        <time>2021-04-03T12:20:51Z</time>
      </trkpt>
      <trkpt lat="46.26441" lon="6.33526">
        <ele>551.2</ele>
        <time>2021-04-03T12:20:52Z</time>
      </trkpt>
      <trkpt lat="46.2644" lon="6.3353">
        <ele>551</ele>
        <time>2021-04-03T12:20:53Z</time>
      </trkpt>
      <trkpt lat="46.26439" lon="6.33534">
        <ele>551.2</ele>
        <time>2021-04-03T12:20:54Z</time>
      </trkpt>
      <trkpt lat="46.26438" lon="6.33538">
        <ele>550.8</ele>
        <time>2021-04-03T12:20:55Z</time>
      </trkpt>
      <trkpt lat="46.26438" lon="6.33542">
        <ele>550.8</ele>
        <time>2021-04-03T12:20:56Z</time>
      </trkpt>
      <trkpt lat="46.26437" lon="6.33546">
        <ele>550.8</ele>
        <time>2021-04-03T12:20:57Z</time>
      </trkpt>
      <trkpt lat="46.26436" lon="6.33549">
        <ele>550.8</ele>
        <time>2021-04-03T12:20:58Z</time>
      </trkpt>
      <trkpt lat="46.26436" lon="6.33553">
        <ele>550.8</ele>
        <time>2021-04-03T12:20:59Z</time>
      </trkpt>
      <trkpt lat="46.26435" lon="6.33557">
        <ele>550.6</ele>
        <time>2021-04-03T12:21:00Z</time>
      </trkpt>
      <trkpt lat="46.26434" lon="6.33561">
        <ele>550.8</ele>
        <time>2021-04-03T12:21:01Z</time>
      </trkpt>
      <trkpt lat="46.26434" lon="6.33565">
        <ele>550.8</ele>
        <time>2021-04-03T12:21:02Z</time>
      </trkpt>
      <trkpt lat="46.26433" lon="6.33569">
        <ele>550.8</ele>
        <time>2021-04-03T12:21:03Z</time>
      </trkpt>
      <trkpt lat="46.26432" lon="6.33573">
        <ele>550.8</ele>
        <time>2021-04-03T12:21:04Z</time>
      </trkpt>
      <trkpt lat="46.26432" lon="6.33576">
        <ele>550.6</ele>
        <time>2021-04-03T12:21:05Z</time>
      </trkpt>
      <trkpt lat="46.26431" lon="6.33581">
        <ele>550.6</ele>
        <time>2021-04-03T12:21:06Z</time>
      </trkpt>
      <trkpt lat="46.2643" lon="6.33585">
        <ele>550.6</ele>
        <time>2021-04-03T12:21:07Z</time>
      </trkpt>
      <trkpt lat="46.2643" lon="6.33589">
        <ele>550.8</ele>
        <time>2021-04-03T12:21:08Z</time>
      </trkpt>
      <trkpt lat="46.26429" lon="6.33592">
        <ele>550.6</ele>
        <time>2021-04-03T12:21:09Z</time>
      </trkpt>
      <trkpt lat="46.26428" lon="6.33597">
        <ele>550.8</ele>
        <time>2021-04-03T12:21:10Z</time>
      </trkpt>
      <trkpt lat="46.26427" lon="6.33601">
        <ele>551</ele>
        <time>2021-04-03T12:21:11Z</time>
      </trkpt>
      <trkpt lat="46.26426" lon="6.33605">
        <ele>550.8</ele>
        <time>2021-04-03T12:21:12Z</time>
      </trkpt>
      <trkpt lat="46.26426" lon="6.3361">
        <ele>551</ele>
        <time>2021-04-03T12:21:13Z</time>
      </trkpt>
      <trkpt lat="46.26425" lon="6.33614">
        <ele>551</ele>
        <time>2021-04-03T12:21:14Z</time>
      </trkpt>
      <trkpt lat="46.26425" lon="6.33618">
        <ele>551.2</ele>
        <time>2021-04-03T12:21:15Z</time>
      </trkpt>
      <trkpt lat="46.26424" lon="6.33623">
        <ele>551.4</ele>
        <time>2021-04-03T12:21:16Z</time>
      </trkpt>
      <trkpt lat="46.26423" lon="6.33627">
        <ele>551.4</ele>
        <time>2021-04-03T12:21:17Z</time>
      </trkpt>
      <trkpt lat="46.26422" lon="6.33632">
        <ele>551.4</ele>
        <time>2021-04-03T12:21:18Z</time>
      </trkpt>
      <trkpt lat="46.26421" lon="6.33637">
        <ele>551.6</ele>
        <time>2021-04-03T12:21:19Z</time>
      </trkpt>
      <trkpt lat="46.2642" lon="6.33643">
        <ele>551.8</ele>
        <time>2021-04-03T12:21:20Z</time>
      </trkpt>
      <trkpt lat="46.26419" lon="6.33648">
        <ele>552</ele>
        <time>2021-04-03T12:21:21Z</time>
      </trkpt>
      <trkpt lat="46.26419" lon="6.33653">
        <ele>552.2</ele>
        <time>2021-04-03T12:21:22Z</time>
      </trkpt>
      <trkpt lat="46.26418" lon="6.33659">
        <ele>552.2</ele>
        <time>2021-04-03T12:21:23Z</time>
      </trkpt>
      <trkpt lat="46.26417" lon="6.33665">
        <ele>552.4</ele>
        <time>2021-04-03T12:21:24Z</time>
      </trkpt>
      <trkpt lat="46.26416" lon="6.3367">
        <ele>552.4</ele>
        <time>2021-04-03T12:21:25Z</time>
      </trkpt>
      <trkpt lat="46.26415" lon="6.33676">
        <ele>552.6</ele>
        <time>2021-04-03T12:21:26Z</time>
      </trkpt>
      <trkpt lat="46.26414" lon="6.33682">
        <ele>552.6</ele>
        <time>2021-04-03T12:21:27Z</time>
      </trkpt>
      <trkpt lat="46.26413" lon="6.33687">
        <ele>552.6</ele>
        <time>2021-04-03T12:21:28Z</time>
      </trkpt>
      <trkpt lat="46.26412" lon="6.33693">
        <ele>552.6</ele>
        <time>2021-04-03T12:21:29Z</time>
      </trkpt>
      <trkpt lat="46.26411" lon="6.33699">
        <ele>552.6</ele>
        <time>2021-04-03T12:21:30Z</time>
      </trkpt>
      <trkpt lat="46.2641" lon="6.33704">
        <ele>552.6</ele>
        <time>2021-04-03T12:21:31Z</time>
      </trkpt>
      <trkpt lat="46.2641" lon="6.3371">
        <ele>552.6</ele>
        <time>2021-04-03T12:21:32Z</time>
      </trkpt>
      <trkpt lat="46.26409" lon="6.33716">
        <ele>552.4</ele>
        <time>2021-04-03T12:21:33Z</time>
      </trkpt>
      <trkpt lat="46.26407" lon="6.33722">
        <ele>552.4</ele>
        <time>2021-04-03T12:21:34Z</time>
      </trkpt>
      <trkpt lat="46.26406" lon="6.33728">
        <ele>552.2</ele>
        <time>2021-04-03T12:21:35Z</time>
      </trkpt>
      <trkpt lat="46.26405" lon="6.33734">
        <ele>552.2</ele>
        <time>2021-04-03T12:21:36Z</time>
      </trkpt>
      <trkpt lat="46.26404" lon="6.33741">
        <ele>552</ele>
        <time>2021-04-03T12:21:37Z</time>
      </trkpt>
      <trkpt lat="46.26404" lon="6.33747">
        <ele>552</ele>
        <time>2021-04-03T12:21:38Z</time>
      </trkpt>
      <trkpt lat="46.26402" lon="6.33753">
        <ele>551.8</ele>
        <time>2021-04-03T12:21:39Z</time>
      </trkpt>
      <trkpt lat="46.26401" lon="6.3376">
        <ele>551.8</ele>
        <time>2021-04-03T12:21:40Z</time>
      </trkpt>
      <trkpt lat="46.264" lon="6.33766">
        <ele>551.8</ele>
        <time>2021-04-03T12:21:41Z</time>
      </trkpt>
      <trkpt lat="46.26399" lon="6.33773">
        <ele>551.8</ele>
        <time>2021-04-03T12:21:42Z</time>
      </trkpt>
      <trkpt lat="46.26398" lon="6.33779">
        <ele>551.6</ele>
        <time>2021-04-03T12:21:43Z</time>
      </trkpt>
      <trkpt lat="46.26397" lon="6.33785">
        <ele>551.6</ele>
        <time>2021-04-03T12:21:44Z</time>
      </trkpt>
      <trkpt lat="46.26396" lon="6.33791">
        <ele>551.6</ele>
        <time>2021-04-03T12:21:45Z</time>
      </trkpt>
      <trkpt lat="46.26396" lon="6.33797">
        <ele>551.6</ele>
        <time>2021-04-03T12:21:46Z</time>
      </trkpt>
      <trkpt lat="46.26395" lon="6.33803">
        <ele>551.6</ele>
        <time>2021-04-03T12:21:47Z</time>
      </trkpt>
      <trkpt lat="46.26394" lon="6.3381">
        <ele>551.6</ele>
        <time>2021-04-03T12:21:48Z</time>
      </trkpt>
      <trkpt lat="46.26393" lon="6.33816">
        <ele>551.6</ele>
        <time>2021-04-03T12:21:49Z</time>
      </trkpt>
      <trkpt lat="46.26392" lon="6.33823">
        <ele>551.6</ele>
        <time>2021-04-03T12:21:50Z</time>
      </trkpt>
      <trkpt lat="46.26391" lon="6.3383">
        <ele>551.6</ele>
        <time>2021-04-03T12:21:51Z</time>
      </trkpt>
      <trkpt lat="46.2639" lon="6.33837">
        <ele>551.6</ele>
        <time>2021-04-03T12:21:52Z</time>
      </trkpt>
      <trkpt lat="46.26389" lon="6.33843">
        <ele>551.6</ele>
        <time>2021-04-03T12:21:53Z</time>
      </trkpt>
      <trkpt lat="46.26388" lon="6.3385">
        <ele>551.6</ele>
        <time>2021-04-03T12:21:54Z</time>
      </trkpt>
      <trkpt lat="46.26387" lon="6.33856">
        <ele>551.4</ele>
        <time>2021-04-03T12:21:55Z</time>
      </trkpt>
      <trkpt lat="46.26385" lon="6.33863">
        <ele>551.6</ele>
        <time>2021-04-03T12:21:56Z</time>
      </trkpt>
      <trkpt lat="46.26384" lon="6.3387">
        <ele>551.4</ele>
        <time>2021-04-03T12:21:57Z</time>
      </trkpt>
      <trkpt lat="46.26383" lon="6.33877">
        <ele>551.4</ele>
        <time>2021-04-03T12:21:58Z</time>
      </trkpt>
      <trkpt lat="46.26382" lon="6.33883">
        <ele>551.4</ele>
        <time>2021-04-03T12:21:59Z</time>
      </trkpt>
      <trkpt lat="46.26381" lon="6.3389">
        <ele>551.4</ele>
        <time>2021-04-03T12:22:00Z</time>
      </trkpt>
      <trkpt lat="46.2638" lon="6.33896">
        <ele>551.4</ele>
        <time>2021-04-03T12:22:01Z</time>
      </trkpt>
      <trkpt lat="46.26379" lon="6.33902">
        <ele>551.2</ele>
        <time>2021-04-03T12:22:02Z</time>
      </trkpt>
      <trkpt lat="46.26378" lon="6.33908">
        <ele>551.2</ele>
        <time>2021-04-03T12:22:03Z</time>
      </trkpt>
      <trkpt lat="46.26377" lon="6.33914">
        <ele>551</ele>
        <time>2021-04-03T12:22:04Z</time>
      </trkpt>
      <trkpt lat="46.26377" lon="6.3392">
        <ele>551.2</ele>
        <time>2021-04-03T12:22:05Z</time>
      </trkpt>
      <trkpt lat="46.26377" lon="6.33926">
        <ele>551.2</ele>
        <time>2021-04-03T12:22:06Z</time>
      </trkpt>
      <trkpt lat="46.26377" lon="6.33932">
        <ele>550.8</ele>
        <time>2021-04-03T12:22:07Z</time>
      </trkpt>
      <trkpt lat="46.26377" lon="6.33938">
        <ele>550.8</ele>
        <time>2021-04-03T12:22:08Z</time>
      </trkpt>
      <trkpt lat="46.26377" lon="6.33944">
        <ele>550.8</ele>
        <time>2021-04-03T12:22:09Z</time>
      </trkpt>
      <trkpt lat="46.26378" lon="6.3395">
        <ele>550.8</ele>
        <time>2021-04-03T12:22:10Z</time>
      </trkpt>
      <trkpt lat="46.26379" lon="6.33955">
        <ele>550.6</ele>
        <time>2021-04-03T12:22:11Z</time>
      </trkpt>
      <trkpt lat="46.26379" lon="6.33961">
        <ele>550.8</ele>
        <time>2021-04-03T12:22:12Z</time>
      </trkpt>
      <trkpt lat="46.2638" lon="6.33966">
        <ele>550.8</ele>
        <time>2021-04-03T12:22:13Z</time>
      </trkpt>
      <trkpt lat="46.26382" lon="6.33971">
        <ele>550.8</ele>
        <time>2021-04-03T12:22:14Z</time>
      </trkpt>
      <trkpt lat="46.26384" lon="6.33976">
        <ele>550.6</ele>
        <time>2021-04-03T12:22:15Z</time>
      </trkpt>
      <trkpt lat="46.26386" lon="6.3398">
        <ele>550.6</ele>
        <time>2021-04-03T12:22:16Z</time>
      </trkpt>
      <trkpt lat="46.26388" lon="6.33984">
        <ele>550.8</ele>
        <time>2021-04-03T12:22:17Z</time>
      </trkpt>
      <trkpt lat="46.26391" lon="6.33989">
        <ele>550.8</ele>
        <time>2021-04-03T12:22:18Z</time>
      </trkpt>
      <trkpt lat="46.26394" lon="6.33993">
        <ele>550.8</ele>
        <time>2021-04-03T12:22:19Z</time>
      </trkpt>
      <trkpt lat="46.26397" lon="6.33997">
        <ele>550.8</ele>
        <time>2021-04-03T12:22:20Z</time>
      </trkpt>
      <trkpt lat="46.264" lon="6.34001">
        <ele>550.6</ele>
        <time>2021-04-03T12:22:21Z</time>
      </trkpt>
      <trkpt lat="46.26403" lon="6.34005">
        <ele>550.8</ele>
        <time>2021-04-03T12:22:22Z</time>
      </trkpt>
      <trkpt lat="46.26406" lon="6.34009">
        <ele>550.6</ele>
        <time>2021-04-03T12:22:23Z</time>
      </trkpt>
      <trkpt lat="46.26409" lon="6.34013">
        <ele>550.6</ele>
        <time>2021-04-03T12:22:24Z</time>
      </trkpt>
      <trkpt lat="46.26411" lon="6.34016">
        <ele>550.6</ele>
        <time>2021-04-03T12:22:25Z</time>
      </trkpt>
      <trkpt lat="46.26414" lon="6.3402">
        <ele>550.6</ele>
        <time>2021-04-03T12:22:26Z</time>
      </trkpt>
      <trkpt lat="46.26417" lon="6.34024">
        <ele>550.6</ele>
        <time>2021-04-03T12:22:27Z</time>
      </trkpt>
      <trkpt lat="46.2642" lon="6.34028">
        <ele>550.8</ele>
        <time>2021-04-03T12:22:28Z</time>
      </trkpt>
      <trkpt lat="46.26422" lon="6.34031">
        <ele>550.8</ele>
        <time>2021-04-03T12:22:29Z</time>
      </trkpt>
      <trkpt lat="46.26425" lon="6.34035">
        <ele>550.8</ele>
        <time>2021-04-03T12:22:30Z</time>
      </trkpt>
      <trkpt lat="46.26428" lon="6.34039">
        <ele>550.8</ele>
        <time>2021-04-03T12:22:31Z</time>
      </trkpt>
      <trkpt lat="46.26431" lon="6.34043">
        <ele>551</ele>
        <time>2021-04-03T12:22:32Z</time>
      </trkpt>
      <trkpt lat="46.26434" lon="6.34047">
        <ele>551.2</ele>
        <time>2021-04-03T12:22:33Z</time>
      </trkpt>
      <trkpt lat="46.26437" lon="6.34051">
        <ele>551.2</ele>
        <time>2021-04-03T12:22:34Z</time>
      </trkpt>
      <trkpt lat="46.2644" lon="6.34055">
        <ele>551.6</ele>
        <time>2021-04-03T12:22:35Z</time>
      </trkpt>
      <trkpt lat="46.26443" lon="6.34059">
        <ele>551.6</ele>
        <time>2021-04-03T12:22:36Z</time>
      </trkpt>
      <trkpt lat="46.26446" lon="6.34063">
        <ele>551.6</ele>
        <time>2021-04-03T12:22:37Z</time>
      </trkpt>
      <trkpt lat="46.26449" lon="6.34067">
        <ele>551.8</ele>
        <time>2021-04-03T12:22:38Z</time>
      </trkpt>
      <trkpt lat="46.26452" lon="6.34071">
        <ele>552</ele>
        <time>2021-04-03T12:22:39Z</time>
      </trkpt>
      <trkpt lat="46.26455" lon="6.34075">
        <ele>552</ele>
        <time>2021-04-03T12:22:40Z</time>
      </trkpt>
      <trkpt lat="46.26458" lon="6.34079">
        <ele>552</ele>
        <time>2021-04-03T12:22:41Z</time>
      </trkpt>
      <trkpt lat="46.26461" lon="6.34083">
        <ele>552.2</ele>
        <time>2021-04-03T12:22:42Z</time>
      </trkpt>
      <trkpt lat="46.26464" lon="6.34087">
        <ele>552.4</ele>
        <time>2021-04-03T12:22:43Z</time>
      </trkpt>
      <trkpt lat="46.26467" lon="6.34091">
        <ele>552.2</ele>
        <time>2021-04-03T12:22:44Z</time>
      </trkpt>
      <trkpt lat="46.2647" lon="6.34095">
        <ele>552.4</ele>
        <time>2021-04-03T12:22:45Z</time>
      </trkpt>
      <trkpt lat="46.26473" lon="6.34099">
        <ele>552.4</ele>
        <time>2021-04-03T12:22:46Z</time>
      </trkpt>
      <trkpt lat="46.26476" lon="6.34104">
        <ele>552.4</ele>
        <time>2021-04-03T12:22:47Z</time>
      </trkpt>
      <trkpt lat="46.26479" lon="6.34109">
        <ele>552.4</ele>
        <time>2021-04-03T12:22:48Z</time>
      </trkpt>
      <trkpt lat="46.26481" lon="6.34114">
        <ele>552.4</ele>
        <time>2021-04-03T12:22:49Z</time>
      </trkpt>
      <trkpt lat="46.26484" lon="6.34119">
        <ele>552.2</ele>
        <time>2021-04-03T12:22:50Z</time>
      </trkpt>
      <trkpt lat="46.26486" lon="6.34125">
        <ele>552.4</ele>
        <time>2021-04-03T12:22:51Z</time>
      </trkpt>
      <trkpt lat="46.26489" lon="6.34131">
        <ele>552.2</ele>
        <time>2021-04-03T12:22:52Z</time>
      </trkpt>
      <trkpt lat="46.26492" lon="6.34137">
        <ele>552.2</ele>
        <time>2021-04-03T12:22:53Z</time>
      </trkpt>
      <trkpt lat="46.26494" lon="6.34144">
        <ele>552</ele>
        <time>2021-04-03T12:22:54Z</time>
      </trkpt>
      <trkpt lat="46.26497" lon="6.3415">
        <ele>552.2</ele>
        <time>2021-04-03T12:22:55Z</time>
      </trkpt>
      <trkpt lat="46.265" lon="6.34155">
        <ele>552.2</ele>
        <time>2021-04-03T12:22:56Z</time>
      </trkpt>
      <trkpt lat="46.26502" lon="6.34161">
        <ele>552</ele>
        <time>2021-04-03T12:22:57Z</time>
      </trkpt>
      <trkpt lat="46.26505" lon="6.34166">
        <ele>551.8</ele>
        <time>2021-04-03T12:22:58Z</time>
      </trkpt>
      <trkpt lat="46.26507" lon="6.34171">
        <ele>551.8</ele>
        <time>2021-04-03T12:22:59Z</time>
      </trkpt>
      <trkpt lat="46.2651" lon="6.34176">
        <ele>551.6</ele>
        <time>2021-04-03T12:23:00Z</time>
      </trkpt>
      <trkpt lat="46.26513" lon="6.34181">
        <ele>551.6</ele>
        <time>2021-04-03T12:23:01Z</time>
      </trkpt>
      <trkpt lat="46.26516" lon="6.34187">
        <ele>551.4</ele>
        <time>2021-04-03T12:23:02Z</time>
      </trkpt>
      <trkpt lat="46.26518" lon="6.34193">
        <ele>551.4</ele>
        <time>2021-04-03T12:23:03Z</time>
      </trkpt>
      <trkpt lat="46.26521" lon="6.34199">
        <ele>551.4</ele>
        <time>2021-04-03T12:23:04Z</time>
      </trkpt>
      <trkpt lat="46.26523" lon="6.34206">
        <ele>551.4</ele>
        <time>2021-04-03T12:23:05Z</time>
      </trkpt>
      <trkpt lat="46.26525" lon="6.34212">
        <ele>551.4</ele>
        <time>2021-04-03T12:23:06Z</time>
      </trkpt>
      <trkpt lat="46.26526" lon="6.34218">
        <ele>551.4</ele>
        <time>2021-04-03T12:23:07Z</time>
      </trkpt>
      <trkpt lat="46.26528" lon="6.34225">
        <ele>551.4</ele>
        <time>2021-04-03T12:23:08Z</time>
      </trkpt>
      <trkpt lat="46.26529" lon="6.34231">
        <ele>551.2</ele>
        <time>2021-04-03T12:23:09Z</time>
      </trkpt>
      <trkpt lat="46.2653" lon="6.34238">
        <ele>551.2</ele>
        <time>2021-04-03T12:23:10Z</time>
      </trkpt>
      <trkpt lat="46.26532" lon="6.34244">
        <ele>551.2</ele>
        <time>2021-04-03T12:23:11Z</time>
      </trkpt>
      <trkpt lat="46.26533" lon="6.34251">
        <ele>551</ele>
        <time>2021-04-03T12:23:12Z</time>
      </trkpt>
      <trkpt lat="46.26534" lon="6.34257">
        <ele>551</ele>
        <time>2021-04-03T12:23:13Z</time>
      </trkpt>
      <trkpt lat="46.26535" lon="6.34263">
        <ele>551</ele>
        <time>2021-04-03T12:23:14Z</time>
      </trkpt>
      <trkpt lat="46.26536" lon="6.3427">
        <ele>551</ele>
        <time>2021-04-03T12:23:15Z</time>
      </trkpt>
      <trkpt lat="46.26538" lon="6.34277">
        <ele>550.8</ele>
        <time>2021-04-03T12:23:16Z</time>
      </trkpt>
      <trkpt lat="46.2654" lon="6.34283">
        <ele>550.6</ele>
        <time>2021-04-03T12:23:17Z</time>
      </trkpt>
      <trkpt lat="46.26542" lon="6.3429">
        <ele>550.8</ele>
        <time>2021-04-03T12:23:18Z</time>
      </trkpt>
      <trkpt lat="46.26545" lon="6.34296">
        <ele>550.8</ele>
        <time>2021-04-03T12:23:19Z</time>
      </trkpt>
      <trkpt lat="46.26548" lon="6.34302">
        <ele>550.8</ele>
        <time>2021-04-03T12:23:20Z</time>
      </trkpt>
      <trkpt lat="46.26552" lon="6.34307">
        <ele>550.6</ele>
        <time>2021-04-03T12:23:21Z</time>
      </trkpt>
      <trkpt lat="46.26556" lon="6.34313">
        <ele>550.8</ele>
        <time>2021-04-03T12:23:22Z</time>
      </trkpt>
      <trkpt lat="46.2656" lon="6.34318">
        <ele>550.6</ele>
        <time>2021-04-03T12:23:23Z</time>
      </trkpt>
      <trkpt lat="46.26564" lon="6.34323">
        <ele>550.8</ele>
        <time>2021-04-03T12:23:24Z</time>
      </trkpt>
      <trkpt lat="46.26568" lon="6.34328">
        <ele>550.6</ele>
        <time>2021-04-03T12:23:25Z</time>
      </trkpt>
      <trkpt lat="46.26572" lon="6.34333">
        <ele>550.4</ele>
        <time>2021-04-03T12:23:26Z</time>
      </trkpt>
      <trkpt lat="46.26576" lon="6.34338">
        <ele>550.6</ele>
        <time>2021-04-03T12:23:27Z</time>
      </trkpt>
      <trkpt lat="46.2658" lon="6.34342">
        <ele>550.8</ele>
        <time>2021-04-03T12:23:28Z</time>
      </trkpt>
      <trkpt lat="46.26584" lon="6.34347">
        <ele>550.8</ele>
        <time>2021-04-03T12:23:29Z</time>
      </trkpt>
      <trkpt lat="46.26588" lon="6.34352">
        <ele>551</ele>
        <time>2021-04-03T12:23:30Z</time>
      </trkpt>
      <trkpt lat="46.26591" lon="6.34356">
        <ele>551</ele>
        <time>2021-04-03T12:23:31Z</time>
      </trkpt>
      <trkpt lat="46.26596" lon="6.34361">
        <ele>551</ele>
        <time>2021-04-03T12:23:32Z</time>
      </trkpt>
      <trkpt lat="46.26599" lon="6.34366">
        <ele>551.2</ele>
        <time>2021-04-03T12:23:33Z</time>
      </trkpt>
      <trkpt lat="46.26603" lon="6.34371">
        <ele>551.2</ele>
        <time>2021-04-03T12:23:34Z</time>
      </trkpt>
      <trkpt lat="46.26606" lon="6.34376">
        <ele>551.4</ele>
        <time>2021-04-03T12:23:35Z</time>
      </trkpt>
      <trkpt lat="46.2661" lon="6.34382">
        <ele>551.2</ele>
        <time>2021-04-03T12:23:36Z</time>
      </trkpt>
      <trkpt lat="46.26614" lon="6.34387">
        <ele>551.4</ele>
        <time>2021-04-03T12:23:37Z</time>
      </trkpt>
      <trkpt lat="46.26618" lon="6.34393">
        <ele>551.2</ele>
        <time>2021-04-03T12:23:38Z</time>
      </trkpt>
      <trkpt lat="46.26622" lon="6.344">
        <ele>550.8</ele>
        <time>2021-04-03T12:23:39Z</time>
      </trkpt>
      <trkpt lat="46.26626" lon="6.34407">
        <ele>550.8</ele>
        <time>2021-04-03T12:23:40Z</time>
      </trkpt>
      <trkpt lat="46.2663" lon="6.34414">
        <ele>550.6</ele>
        <time>2021-04-03T12:23:41Z</time>
      </trkpt>
      <trkpt lat="46.26634" lon="6.34423">
        <ele>550.6</ele>
        <time>2021-04-03T12:23:42Z</time>
      </trkpt>
      <trkpt lat="46.26637" lon="6.34431">
        <ele>550.6</ele>
        <time>2021-04-03T12:23:43Z</time>
      </trkpt>
      <trkpt lat="46.26641" lon="6.3444">
        <ele>550.6</ele>
        <time>2021-04-03T12:23:44Z</time>
      </trkpt>
      <trkpt lat="46.26644" lon="6.34449">
        <ele>550.4</ele>
        <time>2021-04-03T12:23:45Z</time>
      </trkpt>
      <trkpt lat="46.26648" lon="6.34457">
        <ele>549.4</ele>
        <time>2021-04-03T12:23:46Z</time>
      </trkpt>
      <trkpt lat="46.26651" lon="6.34466">
        <ele>549</ele>
        <time>2021-04-03T12:23:47Z</time>
      </trkpt>
      <trkpt lat="46.26654" lon="6.34475">
        <ele>548.4</ele>
        <time>2021-04-03T12:23:48Z</time>
      </trkpt>
      <trkpt lat="46.26658" lon="6.34484">
        <ele>548.2</ele>
        <time>2021-04-03T12:23:49Z</time>
      </trkpt>
      <trkpt lat="46.26661" lon="6.34493">
        <ele>548</ele>
        <time>2021-04-03T12:23:50Z</time>
      </trkpt>
      <trkpt lat="46.26665" lon="6.34502">
        <ele>547.4</ele>
        <time>2021-04-03T12:23:51Z</time>
      </trkpt>
      <trkpt lat="46.26669" lon="6.3451">
        <ele>546.4</ele>
        <time>2021-04-03T12:23:52Z</time>
      </trkpt>
      <trkpt lat="46.26674" lon="6.34518">
        <ele>546</ele>
        <time>2021-04-03T12:23:53Z</time>
      </trkpt>
      <trkpt lat="46.26681" lon="6.34522">
        <ele>545.4</ele>
        <time>2021-04-03T12:23:54Z</time>
      </trkpt>
      <trkpt lat="46.26688" lon="6.34524">
        <ele>545</ele>
        <time>2021-04-03T12:23:55Z</time>
      </trkpt>
      <trkpt lat="46.26696" lon="6.34526">
        <ele>544.4</ele>
        <time>2021-04-03T12:23:56Z</time>
      </trkpt>
      <trkpt lat="46.26703" lon="6.34527">
        <ele>543.6</ele>
        <time>2021-04-03T12:23:57Z</time>
      </trkpt>
      <trkpt lat="46.26711" lon="6.34528">
        <ele>543.4</ele>
        <time>2021-04-03T12:23:58Z</time>
      </trkpt>
      <trkpt lat="46.26719" lon="6.34529">
        <ele>543.2</ele>
        <time>2021-04-03T12:23:59Z</time>
      </trkpt>
      <trkpt lat="46.26728" lon="6.34531">
        <ele>542.8</ele>
        <time>2021-04-03T12:24:00Z</time>
      </trkpt>
      <trkpt lat="46.26736" lon="6.34533">
        <ele>542.8</ele>
        <time>2021-04-03T12:24:01Z</time>
      </trkpt>
      <trkpt lat="46.26744" lon="6.34538">
        <ele>542.4</ele>
        <time>2021-04-03T12:24:02Z</time>
      </trkpt>
      <trkpt lat="46.26751" lon="6.34544">
        <ele>541.8</ele>
        <time>2021-04-03T12:24:03Z</time>
      </trkpt>
      <trkpt lat="46.26759" lon="6.3455">
        <ele>541.2</ele>
        <time>2021-04-03T12:24:04Z</time>
      </trkpt>
      <trkpt lat="46.26766" lon="6.34557">
        <ele>540.4</ele>
        <time>2021-04-03T12:24:05Z</time>
      </trkpt>
      <trkpt lat="46.26772" lon="6.34563">
        <ele>539.6</ele>
        <time>2021-04-03T12:24:06Z</time>
      </trkpt>
      <trkpt lat="46.26779" lon="6.3457">
        <ele>538.8</ele>
        <time>2021-04-03T12:24:07Z</time>
      </trkpt>
      <trkpt lat="46.26785" lon="6.34577">
        <ele>538.4</ele>
        <time>2021-04-03T12:24:08Z</time>
      </trkpt>
      <trkpt lat="46.26789" lon="6.34585">
        <ele>537</ele>
        <time>2021-04-03T12:24:09Z</time>
      </trkpt>
      <trkpt lat="46.26792" lon="6.34594">
        <ele>536.2</ele>
        <time>2021-04-03T12:24:10Z</time>
      </trkpt>
      <trkpt lat="46.26794" lon="6.34604">
        <ele>536.2</ele>
        <time>2021-04-03T12:24:11Z</time>
      </trkpt>
      <trkpt lat="46.26793" lon="6.34613">
        <ele>535.8</ele>
        <time>2021-04-03T12:24:12Z</time>
      </trkpt>
      <trkpt lat="46.26792" lon="6.34621">
        <ele>535.4</ele>
        <time>2021-04-03T12:24:13Z</time>
      </trkpt>
      <trkpt lat="46.2679" lon="6.34629">
        <ele>535.2</ele>
        <time>2021-04-03T12:24:14Z</time>
      </trkpt>
      <trkpt lat="46.26786" lon="6.34636">
        <ele>535</ele>
        <time>2021-04-03T12:24:15Z</time>
      </trkpt>
      <trkpt lat="46.26781" lon="6.34643">
        <ele>534.8</ele>
        <time>2021-04-03T12:24:16Z</time>
      </trkpt>
      <trkpt lat="46.26777" lon="6.3465">
        <ele>534</ele>
        <time>2021-04-03T12:24:17Z</time>
      </trkpt>
      <trkpt lat="46.26772" lon="6.34656">
        <ele>533.2</ele>
        <time>2021-04-03T12:24:18Z</time>
      </trkpt>
      <trkpt lat="46.26767" lon="6.34663">
        <ele>532.6</ele>
        <time>2021-04-03T12:24:19Z</time>
      </trkpt>
      <trkpt lat="46.26762" lon="6.3467">
        <ele>532.2</ele>
        <time>2021-04-03T12:24:20Z</time>
      </trkpt>
      <trkpt lat="46.26757" lon="6.34677">
        <ele>532.2</ele>
        <time>2021-04-03T12:24:21Z</time>
      </trkpt>
      <trkpt lat="46.26751" lon="6.34684">
        <ele>532</ele>
        <time>2021-04-03T12:24:22Z</time>
      </trkpt>
      <trkpt lat="46.26746" lon="6.34692">
        <ele>532</ele>
        <time>2021-04-03T12:24:23Z</time>
      </trkpt>
      <trkpt lat="46.2674" lon="6.34699">
        <ele>532</ele>
        <time>2021-04-03T12:24:24Z</time>
      </trkpt>
      <trkpt lat="46.26735" lon="6.34707">
        <ele>531.8</ele>
        <time>2021-04-03T12:24:25Z</time>
      </trkpt>
      <trkpt lat="46.26729" lon="6.34713">
        <ele>531.4</ele>
        <time>2021-04-03T12:24:26Z</time>
      </trkpt>
      <trkpt lat="46.26722" lon="6.34719">
        <ele>531.4</ele>
        <time>2021-04-03T12:24:27Z</time>
      </trkpt>
      <trkpt lat="46.26715" lon="6.34724">
        <ele>531.2</ele>
        <time>2021-04-03T12:24:28Z</time>
      </trkpt>
      <trkpt lat="46.26707" lon="6.34726">
        <ele>531.4</ele>
        <time>2021-04-03T12:24:29Z</time>
      </trkpt>
      <trkpt lat="46.26699" lon="6.34726">
        <ele>531</ele>
        <time>2021-04-03T12:24:30Z</time>
      </trkpt>
      <trkpt lat="46.2669" lon="6.34724">
        <ele>531</ele>
        <time>2021-04-03T12:24:31Z</time>
      </trkpt>
      <trkpt lat="46.26681" lon="6.34721">
        <ele>530.4</ele>
        <time>2021-04-03T12:24:32Z</time>
      </trkpt>
      <trkpt lat="46.26673" lon="6.34718">
        <ele>529.8</ele>
        <time>2021-04-03T12:24:33Z</time>
      </trkpt>
      <trkpt lat="46.26664" lon="6.34714">
        <ele>529.4</ele>
        <time>2021-04-03T12:24:34Z</time>
      </trkpt>
      <trkpt lat="46.26655" lon="6.3471">
        <ele>529</ele>
        <time>2021-04-03T12:24:35Z</time>
      </trkpt>
      <trkpt lat="46.26645" lon="6.34705">
        <ele>528.8</ele>
        <time>2021-04-03T12:24:36Z</time>
      </trkpt>
      <trkpt lat="46.26636" lon="6.34701">
        <ele>528.6</ele>
        <time>2021-04-03T12:24:37Z</time>
      </trkpt>
      <trkpt lat="46.26628" lon="6.34697">
        <ele>528.4</ele>
        <time>2021-04-03T12:24:38Z</time>
      </trkpt>
      <trkpt lat="46.26619" lon="6.34694">
        <ele>528</ele>
        <time>2021-04-03T12:24:39Z</time>
      </trkpt>
      <trkpt lat="46.26611" lon="6.34693">
        <ele>527.8</ele>
        <time>2021-04-03T12:24:40Z</time>
      </trkpt>
      <trkpt lat="46.26603" lon="6.34696">
        <ele>527.6</ele>
        <time>2021-04-03T12:24:41Z</time>
      </trkpt>
      <trkpt lat="46.26596" lon="6.347">
        <ele>527.4</ele>
        <time>2021-04-03T12:24:42Z</time>
      </trkpt>
      <trkpt lat="46.2659" lon="6.34707">
        <ele>527.2</ele>
        <time>2021-04-03T12:24:43Z</time>
      </trkpt>
      <trkpt lat="46.26585" lon="6.34715">
        <ele>526.6</ele>
        <time>2021-04-03T12:24:44Z</time>
      </trkpt>
      <trkpt lat="46.2658" lon="6.34724">
        <ele>526.2</ele>
        <time>2021-04-03T12:24:45Z</time>
      </trkpt>
      <trkpt lat="46.26576" lon="6.34733">
        <ele>525.6</ele>
        <time>2021-04-03T12:24:46Z</time>
      </trkpt>
      <trkpt lat="46.26572" lon="6.34743">
        <ele>525</ele>
        <time>2021-04-03T12:24:47Z</time>
      </trkpt>
      <trkpt lat="46.26568" lon="6.34753">
        <ele>524.8</ele>
        <time>2021-04-03T12:24:48Z</time>
      </trkpt>
      <trkpt lat="46.26564" lon="6.34763">
        <ele>524.2</ele>
        <time>2021-04-03T12:24:49Z</time>
      </trkpt>
      <trkpt lat="46.26561" lon="6.34774">
        <ele>523.6</ele>
        <time>2021-04-03T12:24:50Z</time>
      </trkpt>
      <trkpt lat="46.26558" lon="6.34785">
        <ele>523.2</ele>
        <time>2021-04-03T12:24:51Z</time>
      </trkpt>
      <trkpt lat="46.26557" lon="6.34797">
        <ele>522.6</ele>
        <time>2021-04-03T12:24:52Z</time>
      </trkpt>
      <trkpt lat="46.26556" lon="6.34809">
        <ele>522</ele>
        <time>2021-04-03T12:24:53Z</time>
      </trkpt>
      <trkpt lat="46.26556" lon="6.34821">
        <ele>521.8</ele>
        <time>2021-04-03T12:24:54Z</time>
      </trkpt>
      <trkpt lat="46.26556" lon="6.34833">
        <ele>521.6</ele>
        <time>2021-04-03T12:24:55Z</time>
      </trkpt>
      <trkpt lat="46.26556" lon="6.34845">
        <ele>521.2</ele>
        <time>2021-04-03T12:24:56Z</time>
      </trkpt>
      <trkpt lat="46.26556" lon="6.34856">
        <ele>521.2</ele>
        <time>2021-04-03T12:24:57Z</time>
      </trkpt>
      <trkpt lat="46.26555" lon="6.34868">
        <ele>520.8</ele>
        <time>2021-04-03T12:24:58Z</time>
      </trkpt>
      <trkpt lat="46.26554" lon="6.34878">
        <ele>520.2</ele>
        <time>2021-04-03T12:24:59Z</time>
      </trkpt>
      <trkpt lat="46.26552" lon="6.34888">
        <ele>519.4</ele>
        <time>2021-04-03T12:25:00Z</time>
      </trkpt>
      <trkpt lat="46.2655" lon="6.34897">
        <ele>519.2</ele>
        <time>2021-04-03T12:25:01Z</time>
      </trkpt>
      <trkpt lat="46.26547" lon="6.34905">
        <ele>519</ele>
        <time>2021-04-03T12:25:02Z</time>
      </trkpt>
      <trkpt lat="46.26545" lon="6.34913">
        <ele>518.8</ele>
        <time>2021-04-03T12:25:03Z</time>
      </trkpt>
      <trkpt lat="46.26542" lon="6.34921">
        <ele>518.8</ele>
        <time>2021-04-03T12:25:04Z</time>
      </trkpt>
      <trkpt lat="46.2654" lon="6.34928">
        <ele>518.8</ele>
        <time>2021-04-03T12:25:05Z</time>
      </trkpt>
      <trkpt lat="46.26538" lon="6.34936">
        <ele>518.8</ele>
        <time>2021-04-03T12:25:06Z</time>
      </trkpt>
      <trkpt lat="46.26535" lon="6.34943">
        <ele>518.6</ele>
        <time>2021-04-03T12:25:07Z</time>
      </trkpt>
      <trkpt lat="46.26533" lon="6.34951">
        <ele>518.8</ele>
        <time>2021-04-03T12:25:08Z</time>
      </trkpt>
      <trkpt lat="46.2653" lon="6.34958">
        <ele>518.6</ele>
        <time>2021-04-03T12:25:09Z</time>
      </trkpt>
      <trkpt lat="46.26528" lon="6.34966">
        <ele>518.8</ele>
        <time>2021-04-03T12:25:10Z</time>
      </trkpt>
      <trkpt lat="46.26525" lon="6.34974">
        <ele>519</ele>
        <time>2021-04-03T12:25:11Z</time>
      </trkpt>
      <trkpt lat="46.26523" lon="6.34981">
        <ele>519.2</ele>
        <time>2021-04-03T12:25:12Z</time>
      </trkpt>
      <trkpt lat="46.26521" lon="6.34989">
        <ele>519.4</ele>
        <time>2021-04-03T12:25:13Z</time>
      </trkpt>
      <trkpt lat="46.26518" lon="6.34997">
        <ele>519.4</ele>
        <time>2021-04-03T12:25:14Z</time>
      </trkpt>
      <trkpt lat="46.26516" lon="6.35005">
        <ele>519.4</ele>
        <time>2021-04-03T12:25:15Z</time>
      </trkpt>
      <trkpt lat="46.26514" lon="6.35012">
        <ele>519.4</ele>
        <time>2021-04-03T12:25:16Z</time>
      </trkpt>
      <trkpt lat="46.26512" lon="6.3502">
        <ele>519.8</ele>
        <time>2021-04-03T12:25:17Z</time>
      </trkpt>
      <trkpt lat="46.26509" lon="6.35028">
        <ele>519.8</ele>
        <time>2021-04-03T12:25:18Z</time>
      </trkpt>
      <trkpt lat="46.26507" lon="6.35035">
        <ele>520</ele>
        <time>2021-04-03T12:25:19Z</time>
      </trkpt>
      <trkpt lat="46.26505" lon="6.35042">
        <ele>520.2</ele>
        <time>2021-04-03T12:25:20Z</time>
      </trkpt>
      <trkpt lat="46.26503" lon="6.3505">
        <ele>520.4</ele>
        <time>2021-04-03T12:25:21Z</time>
      </trkpt>
      <trkpt lat="46.26501" lon="6.35057">
        <ele>520.6</ele>
        <time>2021-04-03T12:25:22Z</time>
      </trkpt>
      <trkpt lat="46.26499" lon="6.35064">
        <ele>520.8</ele>
        <time>2021-04-03T12:25:23Z</time>
      </trkpt>
      <trkpt lat="46.26497" lon="6.35071">
        <ele>520.8</ele>
        <time>2021-04-03T12:25:24Z</time>
      </trkpt>
      <trkpt lat="46.26495" lon="6.35077">
        <ele>521</ele>
        <time>2021-04-03T12:25:25Z</time>
      </trkpt>
      <trkpt lat="46.26493" lon="6.35084">
        <ele>521</ele>
        <time>2021-04-03T12:25:26Z</time>
      </trkpt>
      <trkpt lat="46.2649" lon="6.35091">
        <ele>521.2</ele>
        <time>2021-04-03T12:25:27Z</time>
      </trkpt>
      <trkpt lat="46.26488" lon="6.35098">
        <ele>521.2</ele>
        <time>2021-04-03T12:25:28Z</time>
      </trkpt>
      <trkpt lat="46.26486" lon="6.35104">
        <ele>521.2</ele>
        <time>2021-04-03T12:25:29Z</time>
      </trkpt>
      <trkpt lat="46.26484" lon="6.35111">
        <ele>521.4</ele>
        <time>2021-04-03T12:25:30Z</time>
      </trkpt>
      <trkpt lat="46.26482" lon="6.35117">
        <ele>521.4</ele>
        <time>2021-04-03T12:25:31Z</time>
      </trkpt>
      <trkpt lat="46.26481" lon="6.35122">
        <ele>521.6</ele>
        <time>2021-04-03T12:25:32Z</time>
      </trkpt>
      <trkpt lat="46.2648" lon="6.35127">
        <ele>521.8</ele>
        <time>2021-04-03T12:25:33Z</time>
      </trkpt>
      <trkpt lat="46.26478" lon="6.35132">
        <ele>521.8</ele>
        <time>2021-04-03T12:25:34Z</time>
      </trkpt>
      <trkpt lat="46.26476" lon="6.35137">
        <ele>521.8</ele>
        <time>2021-04-03T12:25:35Z</time>
      </trkpt>
      <trkpt lat="46.26474" lon="6.35143">
        <ele>522</ele>
        <time>2021-04-03T12:25:36Z</time>
      </trkpt>
      <trkpt lat="46.26472" lon="6.35148">
        <ele>522</ele>
        <time>2021-04-03T12:25:37Z</time>
      </trkpt>
      <trkpt lat="46.26469" lon="6.35152">
        <ele>522.2</ele>
        <time>2021-04-03T12:25:38Z</time>
      </trkpt>
      <trkpt lat="46.26466" lon="6.35157">
        <ele>522.2</ele>
        <time>2021-04-03T12:25:39Z</time>
      </trkpt>
      <trkpt lat="46.26463" lon="6.35162">
        <ele>522.4</ele>
        <time>2021-04-03T12:25:40Z</time>
      </trkpt>
      <trkpt lat="46.26461" lon="6.35166">
        <ele>522.4</ele>
        <time>2021-04-03T12:25:41Z</time>
      </trkpt>
      <trkpt lat="46.26458" lon="6.35169">
        <ele>522.6</ele>
        <time>2021-04-03T12:25:42Z</time>
      </trkpt>
      <trkpt lat="46.26456" lon="6.35173">
        <ele>522.6</ele>
        <time>2021-04-03T12:25:43Z</time>
      </trkpt>
      <trkpt lat="46.26453" lon="6.35176">
        <ele>522.6</ele>
        <time>2021-04-03T12:25:44Z</time>
      </trkpt>
      <trkpt lat="46.2645" lon="6.35179">
        <ele>522.8</ele>
        <time>2021-04-03T12:25:45Z</time>
      </trkpt>
      <trkpt lat="46.26447" lon="6.35181">
        <ele>522.8</ele>
        <time>2021-04-03T12:25:46Z</time>
      </trkpt>
      <trkpt lat="46.26444" lon="6.35184">
        <ele>523.2</ele>
        <time>2021-04-03T12:25:47Z</time>
      </trkpt>
      <trkpt lat="46.26441" lon="6.35187">
        <ele>523.2</ele>
        <time>2021-04-03T12:25:48Z</time>
      </trkpt>
      <trkpt lat="46.26438" lon="6.35189">
        <ele>523.6</ele>
        <time>2021-04-03T12:25:49Z</time>
      </trkpt>
      <trkpt lat="46.26435" lon="6.35192">
        <ele>524.2</ele>
        <time>2021-04-03T12:25:50Z</time>
      </trkpt>
      <trkpt lat="46.26432" lon="6.35194">
        <ele>524.2</ele>
        <time>2021-04-03T12:25:51Z</time>
      </trkpt>
      <trkpt lat="46.26429" lon="6.35197">
        <ele>524.4</ele>
        <time>2021-04-03T12:25:52Z</time>
      </trkpt>
      <trkpt lat="46.26425" lon="6.35199">
        <ele>524.6</ele>
        <time>2021-04-03T12:25:53Z</time>
      </trkpt>
      <trkpt lat="46.26422" lon="6.35202">
        <ele>524.8</ele>
        <time>2021-04-03T12:25:54Z</time>
      </trkpt>
      <trkpt lat="46.26419" lon="6.35205">
        <ele>525</ele>
        <time>2021-04-03T12:25:55Z</time>
      </trkpt>
      <trkpt lat="46.26416" lon="6.35207">
        <ele>525.4</ele>
        <time>2021-04-03T12:25:56Z</time>
      </trkpt>
      <trkpt lat="46.26413" lon="6.3521">
        <ele>525.8</ele>
        <time>2021-04-03T12:25:57Z</time>
      </trkpt>
      <trkpt lat="46.2641" lon="6.35212">
        <ele>526</ele>
        <time>2021-04-03T12:25:58Z</time>
      </trkpt>
      <trkpt lat="46.26407" lon="6.35215">
        <ele>526.4</ele>
        <time>2021-04-03T12:25:59Z</time>
      </trkpt>
      <trkpt lat="46.26404" lon="6.35217">
        <ele>526.6</ele>
        <time>2021-04-03T12:26:00Z</time>
      </trkpt>
      <trkpt lat="46.26401" lon="6.3522">
        <ele>527</ele>
        <time>2021-04-03T12:26:01Z</time>
      </trkpt>
      <trkpt lat="46.26397" lon="6.35222">
        <ele>527.4</ele>
        <time>2021-04-03T12:26:02Z</time>
      </trkpt>
      <trkpt lat="46.26394" lon="6.35225">
        <ele>527.6</ele>
        <time>2021-04-03T12:26:03Z</time>
      </trkpt>
      <trkpt lat="46.26392" lon="6.35227">
        <ele>527.6</ele>
        <time>2021-04-03T12:26:04Z</time>
      </trkpt>
      <trkpt lat="46.26389" lon="6.35229">
        <ele>527.8</ele>
        <time>2021-04-03T12:26:05Z</time>
      </trkpt>
      <trkpt lat="46.26387" lon="6.35231">
        <ele>528</ele>
        <time>2021-04-03T12:26:06Z</time>
      </trkpt>
      <trkpt lat="46.26384" lon="6.35233">
        <ele>528.4</ele>
        <time>2021-04-03T12:26:07Z</time>
      </trkpt>
      <trkpt lat="46.26382" lon="6.35235">
        <ele>528.6</ele>
        <time>2021-04-03T12:26:08Z</time>
      </trkpt>
      <trkpt lat="46.26379" lon="6.35238">
        <ele>528.8</ele>
        <time>2021-04-03T12:26:09Z</time>
      </trkpt>
      <trkpt lat="46.26376" lon="6.3524">
        <ele>529</ele>
        <time>2021-04-03T12:26:10Z</time>
      </trkpt>
      <trkpt lat="46.26373" lon="6.35243">
        <ele>529.2</ele>
        <time>2021-04-03T12:26:11Z</time>
      </trkpt>
      <trkpt lat="46.26371" lon="6.35245">
        <ele>529.4</ele>
        <time>2021-04-03T12:26:12Z</time>
      </trkpt>
      <trkpt lat="46.26368" lon="6.35247">
        <ele>529.6</ele>
        <time>2021-04-03T12:26:13Z</time>
      </trkpt>
      <trkpt lat="46.26366" lon="6.3525">
        <ele>529.8</ele>
        <time>2021-04-03T12:26:14Z</time>
      </trkpt>
      <trkpt lat="46.26363" lon="6.35252">
        <ele>530</ele>
        <time>2021-04-03T12:26:15Z</time>
      </trkpt>
      <trkpt lat="46.2636" lon="6.35255">
        <ele>530.2</ele>
        <time>2021-04-03T12:26:16Z</time>
      </trkpt>
      <trkpt lat="46.26358" lon="6.35258">
        <ele>530.2</ele>
        <time>2021-04-03T12:26:17Z</time>
      </trkpt>
      <trkpt lat="46.26355" lon="6.35261">
        <ele>530.4</ele>
        <time>2021-04-03T12:26:18Z</time>
      </trkpt>
      <trkpt lat="46.26352" lon="6.35263">
        <ele>530.6</ele>
        <time>2021-04-03T12:26:19Z</time>
      </trkpt>
      <trkpt lat="46.26349" lon="6.35266">
        <ele>531</ele>
        <time>2021-04-03T12:26:20Z</time>
      </trkpt>
      <trkpt lat="46.26346" lon="6.3527">
        <ele>531.2</ele>
        <time>2021-04-03T12:26:21Z</time>
      </trkpt>
      <trkpt lat="46.26343" lon="6.35273">
        <ele>531.4</ele>
        <time>2021-04-03T12:26:22Z</time>
      </trkpt>
      <trkpt lat="46.26341" lon="6.35276">
        <ele>531.6</ele>
        <time>2021-04-03T12:26:23Z</time>
      </trkpt>
      <trkpt lat="46.26338" lon="6.35279">
        <ele>531.8</ele>
        <time>2021-04-03T12:26:24Z</time>
      </trkpt>
      <trkpt lat="46.26335" lon="6.35283">
        <ele>532.2</ele>
        <time>2021-04-03T12:26:25Z</time>
      </trkpt>
      <trkpt lat="46.26333" lon="6.35287">
        <ele>532.2</ele>
        <time>2021-04-03T12:26:26Z</time>
      </trkpt>
      <trkpt lat="46.26331" lon="6.3529">
        <ele>532.4</ele>
        <time>2021-04-03T12:26:27Z</time>
      </trkpt>
      <trkpt lat="46.26328" lon="6.35293">
        <ele>532.4</ele>
        <time>2021-04-03T12:26:28Z</time>
      </trkpt>
      <trkpt lat="46.26326" lon="6.35296">
        <ele>532.8</ele>
        <time>2021-04-03T12:26:29Z</time>
      </trkpt>
      <trkpt lat="46.26323" lon="6.35299">
        <ele>532.8</ele>
        <time>2021-04-03T12:26:30Z</time>
      </trkpt>
      <trkpt lat="46.26321" lon="6.35302">
        <ele>533.2</ele>
        <time>2021-04-03T12:26:31Z</time>
      </trkpt>
      <trkpt lat="46.26319" lon="6.35305">
        <ele>533.6</ele>
        <time>2021-04-03T12:26:32Z</time>
      </trkpt>
      <trkpt lat="46.26317" lon="6.35308">
        <ele>533.8</ele>
        <time>2021-04-03T12:26:33Z</time>
      </trkpt>
      <trkpt lat="46.26314" lon="6.35311">
        <ele>534</ele>
        <time>2021-04-03T12:26:34Z</time>
      </trkpt>
      <trkpt lat="46.26312" lon="6.35313">
        <ele>534.2</ele>
        <time>2021-04-03T12:26:35Z</time>
      </trkpt>
      <trkpt lat="46.2631" lon="6.35317">
        <ele>534.2</ele>
        <time>2021-04-03T12:26:36Z</time>
      </trkpt>
      <trkpt lat="46.26308" lon="6.3532">
        <ele>534.4</ele>
        <time>2021-04-03T12:26:37Z</time>
      </trkpt>
      <trkpt lat="46.26306" lon="6.35323">
        <ele>534.6</ele>
        <time>2021-04-03T12:26:38Z</time>
      </trkpt>
      <trkpt lat="46.26304" lon="6.35326">
        <ele>534.8</ele>
        <time>2021-04-03T12:26:39Z</time>
      </trkpt>
      <trkpt lat="46.26301" lon="6.35329">
        <ele>535</ele>
        <time>2021-04-03T12:26:40Z</time>
      </trkpt>
      <trkpt lat="46.26299" lon="6.35332">
        <ele>535.4</ele>
        <time>2021-04-03T12:26:41Z</time>
      </trkpt>
      <trkpt lat="46.26297" lon="6.35335">
        <ele>535.6</ele>
        <time>2021-04-03T12:26:42Z</time>
      </trkpt>
      <trkpt lat="46.26294" lon="6.35338">
        <ele>536</ele>
        <time>2021-04-03T12:26:43Z</time>
      </trkpt>
      <trkpt lat="46.26292" lon="6.35341">
        <ele>536.2</ele>
        <time>2021-04-03T12:26:44Z</time>
      </trkpt>
      <trkpt lat="46.26289" lon="6.35344">
        <ele>536.2</ele>
        <time>2021-04-03T12:26:45Z</time>
      </trkpt>
      <trkpt lat="46.26287" lon="6.35347">
        <ele>536.6</ele>
        <time>2021-04-03T12:26:46Z</time>
      </trkpt>
      <trkpt lat="46.26284" lon="6.35351">
        <ele>536.6</ele>
        <time>2021-04-03T12:26:47Z</time>
      </trkpt>
      <trkpt lat="46.26282" lon="6.35354">
        <ele>537</ele>
        <time>2021-04-03T12:26:48Z</time>
      </trkpt>
      <trkpt lat="46.26279" lon="6.35358">
        <ele>537.4</ele>
        <time>2021-04-03T12:26:49Z</time>
      </trkpt>
      <trkpt lat="46.26277" lon="6.35361">
        <ele>537.8</ele>
        <time>2021-04-03T12:26:50Z</time>
      </trkpt>
      <trkpt lat="46.26274" lon="6.35365">
        <ele>538</ele>
        <time>2021-04-03T12:26:51Z</time>
      </trkpt>
      <trkpt lat="46.26272" lon="6.35368">
        <ele>538.2</ele>
        <time>2021-04-03T12:26:52Z</time>
      </trkpt>
      <trkpt lat="46.2627" lon="6.35371">
        <ele>538.6</ele>
        <time>2021-04-03T12:26:53Z</time>
      </trkpt>
      <trkpt lat="46.26267" lon="6.35375">
        <ele>538.8</ele>
        <time>2021-04-03T12:26:54Z</time>
      </trkpt>
      <trkpt lat="46.26266" lon="6.35379">
        <ele>539.2</ele>
        <time>2021-04-03T12:26:55Z</time>
      </trkpt>
      <trkpt lat="46.26264" lon="6.35383">
        <ele>539.4</ele>
        <time>2021-04-03T12:26:56Z</time>
      </trkpt>
      <trkpt lat="46.26262" lon="6.35387">
        <ele>539.4</ele>
        <time>2021-04-03T12:26:57Z</time>
      </trkpt>
      <trkpt lat="46.2626" lon="6.35391">
        <ele>539.8</ele>
        <time>2021-04-03T12:26:58Z</time>
      </trkpt>
      <trkpt lat="46.26258" lon="6.35395">
        <ele>540</ele>
        <time>2021-04-03T12:26:59Z</time>
      </trkpt>
      <trkpt lat="46.26257" lon="6.35399">
        <ele>540.4</ele>
        <time>2021-04-03T12:27:00Z</time>
      </trkpt>
      <trkpt lat="46.26255" lon="6.35403">
        <ele>540.6</ele>
        <time>2021-04-03T12:27:01Z</time>
      </trkpt>
      <trkpt lat="46.26254" lon="6.35408">
        <ele>540.6</ele>
        <time>2021-04-03T12:27:02Z</time>
      </trkpt>
      <trkpt lat="46.26253" lon="6.35412">
        <ele>540.8</ele>
        <time>2021-04-03T12:27:03Z</time>
      </trkpt>
      <trkpt lat="46.26252" lon="6.35415">
        <ele>540.8</ele>
        <time>2021-04-03T12:27:04Z</time>
      </trkpt>
      <trkpt lat="46.26251" lon="6.3542">
        <ele>541</ele>
        <time>2021-04-03T12:27:05Z</time>
      </trkpt>
      <trkpt lat="46.26249" lon="6.35428">
        <ele>541.6</ele>
        <time>2021-04-03T12:27:07Z</time>
      </trkpt>
      <trkpt lat="46.26248" lon="6.35432">
        <ele>541.6</ele>
        <time>2021-04-03T12:27:08Z</time>
      </trkpt>
      <trkpt lat="46.26247" lon="6.35436">
        <ele>541.8</ele>
        <time>2021-04-03T12:27:09Z</time>
      </trkpt>
      <trkpt lat="46.26246" lon="6.35441">
        <ele>542</ele>
        <time>2021-04-03T12:27:10Z</time>
      </trkpt>
      <trkpt lat="46.26245" lon="6.35445">
        <ele>542</ele>
        <time>2021-04-03T12:27:11Z</time>
      </trkpt>
      <trkpt lat="46.26245" lon="6.35449">
        <ele>542.2</ele>
        <time>2021-04-03T12:27:12Z</time>
      </trkpt>
      <trkpt lat="46.26244" lon="6.35453">
        <ele>542.4</ele>
        <time>2021-04-03T12:27:13Z</time>
      </trkpt>
      <trkpt lat="46.26243" lon="6.35458">
        <ele>542.6</ele>
        <time>2021-04-03T12:27:14Z</time>
      </trkpt>
      <trkpt lat="46.26241" lon="6.35462">
        <ele>543</ele>
        <time>2021-04-03T12:27:15Z</time>
      </trkpt>
      <trkpt lat="46.2624" lon="6.35467">
        <ele>543.2</ele>
        <time>2021-04-03T12:27:16Z</time>
      </trkpt>
      <trkpt lat="46.26239" lon="6.35471">
        <ele>543.4</ele>
        <time>2021-04-03T12:27:17Z</time>
      </trkpt>
      <trkpt lat="46.26238" lon="6.35475">
        <ele>543.4</ele>
        <time>2021-04-03T12:27:18Z</time>
      </trkpt>
      <trkpt lat="46.26237" lon="6.3548">
        <ele>543.6</ele>
        <time>2021-04-03T12:27:19Z</time>
      </trkpt>
      <trkpt lat="46.26236" lon="6.35484">
        <ele>543.8</ele>
        <time>2021-04-03T12:27:20Z</time>
      </trkpt>
      <trkpt lat="46.26235" lon="6.35489">
        <ele>544</ele>
        <time>2021-04-03T12:27:21Z</time>
      </trkpt>
      <trkpt lat="46.26233" lon="6.35494">
        <ele>544.2</ele>
        <time>2021-04-03T12:27:22Z</time>
      </trkpt>
      <trkpt lat="46.26232" lon="6.35499">
        <ele>544.2</ele>
        <time>2021-04-03T12:27:23Z</time>
      </trkpt>
      <trkpt lat="46.2623" lon="6.35504">
        <ele>544.2</ele>
        <time>2021-04-03T12:27:24Z</time>
      </trkpt>
      <trkpt lat="46.26228" lon="6.35509">
        <ele>544.2</ele>
        <time>2021-04-03T12:27:25Z</time>
      </trkpt>
      <trkpt lat="46.26227" lon="6.35514">
        <ele>544.2</ele>
        <time>2021-04-03T12:27:26Z</time>
      </trkpt>
      <trkpt lat="46.26226" lon="6.35519">
        <ele>544.4</ele>
        <time>2021-04-03T12:27:27Z</time>
      </trkpt>
      <trkpt lat="46.26224" lon="6.35524">
        <ele>544.4</ele>
        <time>2021-04-03T12:27:28Z</time>
      </trkpt>
      <trkpt lat="46.26222" lon="6.35529">
        <ele>544.6</ele>
        <time>2021-04-03T12:27:29Z</time>
      </trkpt>
      <trkpt lat="46.26221" lon="6.35534">
        <ele>544.6</ele>
        <time>2021-04-03T12:27:30Z</time>
      </trkpt>
      <trkpt lat="46.2622" lon="6.35539">
        <ele>544.8</ele>
        <time>2021-04-03T12:27:31Z</time>
      </trkpt>
      <trkpt lat="46.26219" lon="6.35545">
        <ele>545</ele>
        <time>2021-04-03T12:27:32Z</time>
      </trkpt>
      <trkpt lat="46.26217" lon="6.3555">
        <ele>545.2</ele>
        <time>2021-04-03T12:27:33Z</time>
      </trkpt>
      <trkpt lat="46.26216" lon="6.35555">
        <ele>545.4</ele>
        <time>2021-04-03T12:27:34Z</time>
      </trkpt>
      <trkpt lat="46.26215" lon="6.3556">
        <ele>545.8</ele>
        <time>2021-04-03T12:27:35Z</time>
      </trkpt>
      <trkpt lat="46.26213" lon="6.35565">
        <ele>546</ele>
        <time>2021-04-03T12:27:36Z</time>
      </trkpt>
      <trkpt lat="46.26212" lon="6.3557">
        <ele>546</ele>
        <time>2021-04-03T12:27:37Z</time>
      </trkpt>
      <trkpt lat="46.2621" lon="6.35575">
        <ele>546.2</ele>
        <time>2021-04-03T12:27:38Z</time>
      </trkpt>
      <trkpt lat="46.26209" lon="6.3558">
        <ele>546.4</ele>
        <time>2021-04-03T12:27:39Z</time>
      </trkpt>
      <trkpt lat="46.26208" lon="6.35585">
        <ele>546.6</ele>
        <time>2021-04-03T12:27:40Z</time>
      </trkpt>
      <trkpt lat="46.26206" lon="6.3559">
        <ele>546.8</ele>
        <time>2021-04-03T12:27:41Z</time>
      </trkpt>
      <trkpt lat="46.26204" lon="6.35595">
        <ele>547</ele>
        <time>2021-04-03T12:27:42Z</time>
      </trkpt>
      <trkpt lat="46.26203" lon="6.356">
        <ele>547</ele>
        <time>2021-04-03T12:27:43Z</time>
      </trkpt>
      <trkpt lat="46.26202" lon="6.35604">
        <ele>547</ele>
        <time>2021-04-03T12:27:44Z</time>
      </trkpt>
      <trkpt lat="46.26201" lon="6.35609">
        <ele>547.2</ele>
        <time>2021-04-03T12:27:45Z</time>
      </trkpt>
      <trkpt lat="46.262" lon="6.35613">
        <ele>547.2</ele>
        <time>2021-04-03T12:27:46Z</time>
      </trkpt>
      <trkpt lat="46.26199" lon="6.35617">
        <ele>547.2</ele>
        <time>2021-04-03T12:27:47Z</time>
      </trkpt>
      <trkpt lat="46.26198" lon="6.35622">
        <ele>547.2</ele>
        <time>2021-04-03T12:27:48Z</time>
      </trkpt>
      <trkpt lat="46.26197" lon="6.35626">
        <ele>547.6</ele>
        <time>2021-04-03T12:27:49Z</time>
      </trkpt>
      <trkpt lat="46.26196" lon="6.3563">
        <ele>547.6</ele>
        <time>2021-04-03T12:27:50Z</time>
      </trkpt>
      <trkpt lat="46.26195" lon="6.35634">
        <ele>547.6</ele>
        <time>2021-04-03T12:27:51Z</time>
      </trkpt>
      <trkpt lat="46.26194" lon="6.35638">
        <ele>547.8</ele>
        <time>2021-04-03T12:27:52Z</time>
      </trkpt>
      <trkpt lat="46.26193" lon="6.35641">
        <ele>547.8</ele>
        <time>2021-04-03T12:27:53Z</time>
      </trkpt>
      <trkpt lat="46.26192" lon="6.35645">
        <ele>547.8</ele>
        <time>2021-04-03T12:27:54Z</time>
      </trkpt>
      <trkpt lat="46.2619" lon="6.35648">
        <ele>548</ele>
        <time>2021-04-03T12:27:55Z</time>
      </trkpt>
      <trkpt lat="46.26189" lon="6.3565">
        <ele>548.2</ele>
        <time>2021-04-03T12:27:56Z</time>
      </trkpt>
      <trkpt lat="46.26187" lon="6.35652">
        <ele>548.6</ele>
        <time>2021-04-03T12:27:57Z</time>
      </trkpt>
      <trkpt lat="46.26185" lon="6.35654">
        <ele>549</ele>
        <time>2021-04-03T12:27:58Z</time>
      </trkpt>
      <trkpt lat="46.26183" lon="6.35656">
        <ele>549.6</ele>
        <time>2021-04-03T12:27:59Z</time>
      </trkpt>
      <trkpt lat="46.26183" lon="6.35657">
        <ele>549.8</ele>
        <time>2021-04-03T12:28:00Z</time>
      </trkpt>
      <trkpt lat="46.26182" lon="6.35657">
        <ele>550</ele>
        <time>2021-04-03T12:28:01Z</time>
      </trkpt>
      <trkpt lat="46.26182" lon="6.35657">
        <ele>550.2</ele>
        <time>2021-04-03T12:28:02Z</time>
      </trkpt>
      <trkpt lat="46.26182" lon="6.35657">
        <ele>550.4</ele>
        <time>2021-04-03T12:28:03Z</time>
      </trkpt>
      <trkpt lat="46.26182" lon="6.35658">
        <ele>550.8</ele>
        <time>2021-04-03T12:28:04Z</time>
      </trkpt>
      <trkpt lat="46.26182" lon="6.35658">
        <ele>551.2</ele>
        <time>2021-04-03T12:28:05Z</time>
      </trkpt>
      <trkpt lat="46.26182" lon="6.35658">
        <ele>551.8</ele>
        <time>2021-04-03T12:28:07Z</time>
      </trkpt>
      <trkpt lat="46.26182" lon="6.35658">
        <ele>551.8</ele>
        <time>2021-04-03T12:28:08Z</time>
      </trkpt>
      <trkpt lat="46.26182" lon="6.35658">
        <ele>551.8</ele>
        <time>2021-04-03T12:28:09Z</time>
      </trkpt>
      <trkpt lat="46.26182" lon="6.35658">
        <ele>552</ele>
        <time>2021-04-03T12:28:10Z</time>
      </trkpt>
      <trkpt lat="46.26182" lon="6.35659">
        <ele>552</ele>
        <time>2021-04-03T12:28:11Z</time>
      </trkpt>
      <trkpt lat="46.26182" lon="6.35659">
        <ele>552</ele>
        <time>2021-04-03T12:28:12Z</time>
      </trkpt>
      <trkpt lat="46.26182" lon="6.35659">
        <ele>552</ele>
        <time>2021-04-03T12:28:13Z</time>
      </trkpt>
      <trkpt lat="46.26182" lon="6.35659">
        <ele>552.2</ele>
        <time>2021-04-03T12:28:14Z</time>
      </trkpt>
      <trkpt lat="46.26182" lon="6.35659">
        <ele>552.2</ele>
        <time>2021-04-03T12:28:15Z</time>
      </trkpt>
      <trkpt lat="46.26182" lon="6.35659">
        <ele>552.2</ele>
        <time>2021-04-03T12:28:22Z</time>
      </trkpt>
      <trkpt lat="46.26181" lon="6.35661">
        <ele>552</ele>
        <time>2021-04-03T12:28:23Z</time>
      </trkpt>
      <trkpt lat="46.26181" lon="6.35664">
        <ele>552.2</ele>
        <time>2021-04-03T12:28:24Z</time>
      </trkpt>
      <trkpt lat="46.26181" lon="6.35667">
        <ele>552.2</ele>
        <time>2021-04-03T12:28:25Z</time>
      </trkpt>
      <trkpt lat="46.26181" lon="6.35672">
        <ele>552</ele>
        <time>2021-04-03T12:28:26Z</time>
      </trkpt>
      <trkpt lat="46.26181" lon="6.35677">
        <ele>552</ele>
        <time>2021-04-03T12:28:27Z</time>
      </trkpt>
      <trkpt lat="46.26182" lon="6.35681">
        <ele>552</ele>
        <time>2021-04-03T12:28:28Z</time>
      </trkpt>
      <trkpt lat="46.26181" lon="6.35686">
        <ele>552</ele>
        <time>2021-04-03T12:28:29Z</time>
      </trkpt>
      <trkpt lat="46.2618" lon="6.3569">
        <ele>552</ele>
        <time>2021-04-03T12:28:30Z</time>
      </trkpt>
      <trkpt lat="46.26179" lon="6.35693">
        <ele>552</ele>
        <time>2021-04-03T12:28:31Z</time>
      </trkpt>
      <trkpt lat="46.26178" lon="6.35696">
        <ele>552</ele>
        <time>2021-04-03T12:28:32Z</time>
      </trkpt>
      <trkpt lat="46.26176" lon="6.35698">
        <ele>551.6</ele>
        <time>2021-04-03T12:28:33Z</time>
      </trkpt>
      <trkpt lat="46.26175" lon="6.35701">
        <ele>551.2</ele>
        <time>2021-04-03T12:28:34Z</time>
      </trkpt>
      <trkpt lat="46.26173" lon="6.35703">
        <ele>551.2</ele>
        <time>2021-04-03T12:28:35Z</time>
      </trkpt>
      <trkpt lat="46.26172" lon="6.35705">
        <ele>551</ele>
        <time>2021-04-03T12:28:36Z</time>
      </trkpt>
      <trkpt lat="46.26171" lon="6.35706">
        <ele>551</ele>
        <time>2021-04-03T12:28:37Z</time>
      </trkpt>
      <trkpt lat="46.2617" lon="6.35708">
        <ele>550.8</ele>
        <time>2021-04-03T12:28:38Z</time>
      </trkpt>
      <trkpt lat="46.26171" lon="6.35709">
        <ele>551</ele>
        <time>2021-04-03T12:28:39Z</time>
      </trkpt>
      <trkpt lat="46.26172" lon="6.3571">
        <ele>551</ele>
        <time>2021-04-03T12:28:40Z</time>
      </trkpt>
      <trkpt lat="46.26173" lon="6.35708">
        <ele>550.8</ele>
        <time>2021-04-03T12:28:41Z</time>
      </trkpt>
      <trkpt lat="46.26174" lon="6.35707">
        <ele>551</ele>
        <time>2021-04-03T12:28:42Z</time>
      </trkpt>
      <trkpt lat="46.26175" lon="6.35705">
        <ele>550.8</ele>
        <time>2021-04-03T12:28:43Z</time>
      </trkpt>
      <trkpt lat="46.26176" lon="6.35703">
        <ele>550.8</ele>
        <time>2021-04-03T12:28:44Z</time>
      </trkpt>
      <trkpt lat="46.26177" lon="6.35702">
        <ele>551</ele>
        <time>2021-04-03T12:28:45Z</time>
      </trkpt>
      <trkpt lat="46.26178" lon="6.357">
        <ele>551.2</ele>
        <time>2021-04-03T12:28:46Z</time>
      </trkpt>
      <trkpt lat="46.2618" lon="6.35698">
        <ele>551</ele>
        <time>2021-04-03T12:28:47Z</time>
      </trkpt>
      <trkpt lat="46.26181" lon="6.35697">
        <ele>551</ele>
        <time>2021-04-03T12:28:48Z</time>
      </trkpt>
      <trkpt lat="46.26182" lon="6.35695">
        <ele>551</ele>
        <time>2021-04-03T12:28:49Z</time>
      </trkpt>
      <trkpt lat="46.26181" lon="6.35693">
        <ele>551</ele>
        <time>2021-04-03T12:28:50Z</time>
      </trkpt>
      <trkpt lat="46.2618" lon="6.35692">
        <ele>551.2</ele>
        <time>2021-04-03T12:28:51Z</time>
      </trkpt>
      <trkpt lat="46.26178" lon="6.35694">
        <ele>551.2</ele>
        <time>2021-04-03T12:28:52Z</time>
      </trkpt>
      <trkpt lat="46.26176" lon="6.35698">
        <ele>551.2</ele>
        <time>2021-04-03T12:28:53Z</time>
      </trkpt>
      <trkpt lat="46.26174" lon="6.35703">
        <ele>551</ele>
        <time>2021-04-03T12:28:54Z</time>
      </trkpt>
      <trkpt lat="46.26172" lon="6.35707">
        <ele>551</ele>
        <time>2021-04-03T12:28:55Z</time>
      </trkpt>
      <trkpt lat="46.26169" lon="6.3571">
        <ele>551.2</ele>
        <time>2021-04-03T12:28:56Z</time>
      </trkpt>
      <trkpt lat="46.26166" lon="6.35714">
        <ele>551</ele>
        <time>2021-04-03T12:28:57Z</time>
      </trkpt>
      <trkpt lat="46.26163" lon="6.35717">
        <ele>551</ele>
        <time>2021-04-03T12:28:58Z</time>
      </trkpt>
      <trkpt lat="46.2616" lon="6.3572">
        <ele>551.2</ele>
        <time>2021-04-03T12:28:59Z</time>
      </trkpt>
      <trkpt lat="46.26156" lon="6.35724">
        <ele>551.2</ele>
        <time>2021-04-03T12:29:00Z</time>
      </trkpt>
      <trkpt lat="46.26153" lon="6.35727">
        <ele>551.2</ele>
        <time>2021-04-03T12:29:01Z</time>
      </trkpt>
      <trkpt lat="46.2615" lon="6.3573">
        <ele>551.2</ele>
        <time>2021-04-03T12:29:02Z</time>
      </trkpt>
      <trkpt lat="46.26147" lon="6.35733">
        <ele>551.2</ele>
        <time>2021-04-03T12:29:03Z</time>
      </trkpt>
      <trkpt lat="46.26143" lon="6.35737">
        <ele>551.2</ele>
        <time>2021-04-03T12:29:04Z</time>
      </trkpt>
      <trkpt lat="46.2614" lon="6.3574">
        <ele>551.2</ele>
        <time>2021-04-03T12:29:05Z</time>
      </trkpt>
      <trkpt lat="46.26137" lon="6.35744">
        <ele>551.4</ele>
        <time>2021-04-03T12:29:06Z</time>
      </trkpt>
      <trkpt lat="46.26133" lon="6.35747">
        <ele>551.4</ele>
        <time>2021-04-03T12:29:07Z</time>
      </trkpt>
      <trkpt lat="46.2613" lon="6.3575">
        <ele>551.4</ele>
        <time>2021-04-03T12:29:08Z</time>
      </trkpt>
      <trkpt lat="46.26127" lon="6.35753">
        <ele>551.6</ele>
        <time>2021-04-03T12:29:09Z</time>
      </trkpt>
      <trkpt lat="46.26123" lon="6.35756">
        <ele>552</ele>
        <time>2021-04-03T12:29:10Z</time>
      </trkpt>
      <trkpt lat="46.2612" lon="6.35759">
        <ele>552</ele>
        <time>2021-04-03T12:29:11Z</time>
      </trkpt>
      <trkpt lat="46.26117" lon="6.35761">
        <ele>552.2</ele>
        <time>2021-04-03T12:29:12Z</time>
      </trkpt>
      <trkpt lat="46.26113" lon="6.35764">
        <ele>552.4</ele>
        <time>2021-04-03T12:29:13Z</time>
      </trkpt>
      <trkpt lat="46.2611" lon="6.35767">
        <ele>552.6</ele>
        <time>2021-04-03T12:29:14Z</time>
      </trkpt>
      <trkpt lat="46.26107" lon="6.3577">
        <ele>552.6</ele>
        <time>2021-04-03T12:29:15Z</time>
      </trkpt>
      <trkpt lat="46.26104" lon="6.35773">
        <ele>552.6</ele>
        <time>2021-04-03T12:29:16Z</time>
      </trkpt>
      <trkpt lat="46.26101" lon="6.35776">
        <ele>553</ele>
        <time>2021-04-03T12:29:17Z</time>
      </trkpt>
      <trkpt lat="46.26098" lon="6.35779">
        <ele>553.4</ele>
        <time>2021-04-03T12:29:18Z</time>
      </trkpt>
      <trkpt lat="46.26095" lon="6.35782">
        <ele>553.6</ele>
        <time>2021-04-03T12:29:19Z</time>
      </trkpt>
      <trkpt lat="46.26092" lon="6.35785">
        <ele>554</ele>
        <time>2021-04-03T12:29:20Z</time>
      </trkpt>
      <trkpt lat="46.26088" lon="6.35788">
        <ele>554.2</ele>
        <time>2021-04-03T12:29:21Z</time>
      </trkpt>
      <trkpt lat="46.26085" lon="6.35792">
        <ele>554.4</ele>
        <time>2021-04-03T12:29:22Z</time>
      </trkpt>
      <trkpt lat="46.26082" lon="6.35796">
        <ele>554.6</ele>
        <time>2021-04-03T12:29:23Z</time>
      </trkpt>
      <trkpt lat="46.26079" lon="6.358">
        <ele>554.6</ele>
        <time>2021-04-03T12:29:24Z</time>
      </trkpt>
      <trkpt lat="46.26077" lon="6.35804">
        <ele>554.8</ele>
        <time>2021-04-03T12:29:25Z</time>
      </trkpt>
      <trkpt lat="46.26074" lon="6.35808">
        <ele>554.6</ele>
        <time>2021-04-03T12:29:26Z</time>
      </trkpt>
      <trkpt lat="46.26071" lon="6.35812">
        <ele>555</ele>
        <time>2021-04-03T12:29:27Z</time>
      </trkpt>
      <trkpt lat="46.26068" lon="6.35816">
        <ele>555.2</ele>
        <time>2021-04-03T12:29:28Z</time>
      </trkpt>
      <trkpt lat="46.26066" lon="6.3582">
        <ele>555.6</ele>
        <time>2021-04-03T12:29:29Z</time>
      </trkpt>
      <trkpt lat="46.26063" lon="6.35824">
        <ele>555.6</ele>
        <time>2021-04-03T12:29:30Z</time>
      </trkpt>
      <trkpt lat="46.26061" lon="6.35827">
        <ele>555.8</ele>
        <time>2021-04-03T12:29:31Z</time>
      </trkpt>
      <trkpt lat="46.26058" lon="6.35829">
        <ele>555.8</ele>
        <time>2021-04-03T12:29:32Z</time>
      </trkpt>
      <trkpt lat="46.26056" lon="6.35832">
        <ele>556</ele>
        <time>2021-04-03T12:29:33Z</time>
      </trkpt>
      <trkpt lat="46.26053" lon="6.35834">
        <ele>556.2</ele>
        <time>2021-04-03T12:29:34Z</time>
      </trkpt>
      <trkpt lat="46.2605" lon="6.35836">
        <ele>556.6</ele>
        <time>2021-04-03T12:29:35Z</time>
      </trkpt>
      <trkpt lat="46.26047" lon="6.35839">
        <ele>556.6</ele>
        <time>2021-04-03T12:29:36Z</time>
      </trkpt>
      <trkpt lat="46.26044" lon="6.35841">
        <ele>556.8</ele>
        <time>2021-04-03T12:29:37Z</time>
      </trkpt>
      <trkpt lat="46.26041" lon="6.35843">
        <ele>557</ele>
        <time>2021-04-03T12:29:38Z</time>
      </trkpt>
      <trkpt lat="46.26038" lon="6.35845">
        <ele>557.4</ele>
        <time>2021-04-03T12:29:39Z</time>
      </trkpt>
      <trkpt lat="46.26035" lon="6.35847">
        <ele>557.6</ele>
        <time>2021-04-03T12:29:40Z</time>
      </trkpt>
      <trkpt lat="46.26032" lon="6.35848">
        <ele>557.6</ele>
        <time>2021-04-03T12:29:41Z</time>
      </trkpt>
      <trkpt lat="46.26029" lon="6.3585">
        <ele>558</ele>
        <time>2021-04-03T12:29:42Z</time>
      </trkpt>
      <trkpt lat="46.26025" lon="6.35852">
        <ele>558.2</ele>
        <time>2021-04-03T12:29:43Z</time>
      </trkpt>
      <trkpt lat="46.26022" lon="6.35854">
        <ele>558.4</ele>
        <time>2021-04-03T12:29:44Z</time>
      </trkpt>
      <trkpt lat="46.26019" lon="6.35857">
        <ele>558.6</ele>
        <time>2021-04-03T12:29:45Z</time>
      </trkpt>
      <trkpt lat="46.26016" lon="6.35859">
        <ele>558.8</ele>
        <time>2021-04-03T12:29:46Z</time>
      </trkpt>
      <trkpt lat="46.26013" lon="6.35861">
        <ele>559.2</ele>
        <time>2021-04-03T12:29:47Z</time>
      </trkpt>
      <trkpt lat="46.2601" lon="6.35863">
        <ele>559.6</ele>
        <time>2021-04-03T12:29:48Z</time>
      </trkpt>
      <trkpt lat="46.26007" lon="6.35865">
        <ele>559.8</ele>
        <time>2021-04-03T12:29:49Z</time>
      </trkpt>
      <trkpt lat="46.26004" lon="6.35866">
        <ele>560</ele>
        <time>2021-04-03T12:29:50Z</time>
      </trkpt>
      <trkpt lat="46.26001" lon="6.35868">
        <ele>560</ele>
        <time>2021-04-03T12:29:51Z</time>
      </trkpt>
      <trkpt lat="46.25999" lon="6.3587">
        <ele>560.4</ele>
        <time>2021-04-03T12:29:52Z</time>
      </trkpt>
      <trkpt lat="46.25996" lon="6.35871">
        <ele>560.8</ele>
        <time>2021-04-03T12:29:53Z</time>
      </trkpt>
      <trkpt lat="46.25994" lon="6.35873">
        <ele>561</ele>
        <time>2021-04-03T12:29:54Z</time>
      </trkpt>
      <trkpt lat="46.25991" lon="6.35875">
        <ele>561.2</ele>
        <time>2021-04-03T12:29:55Z</time>
      </trkpt>
      <trkpt lat="46.25988" lon="6.35877">
        <ele>561.4</ele>
        <time>2021-04-03T12:29:56Z</time>
      </trkpt>
      <trkpt lat="46.25985" lon="6.35879">
        <ele>561.4</ele>
        <time>2021-04-03T12:29:57Z</time>
      </trkpt>
      <trkpt lat="46.25982" lon="6.35881">
        <ele>561.6</ele>
        <time>2021-04-03T12:29:58Z</time>
      </trkpt>
      <trkpt lat="46.25979" lon="6.35883">
        <ele>562</ele>
        <time>2021-04-03T12:29:59Z</time>
      </trkpt>
      <trkpt lat="46.25977" lon="6.35885">
        <ele>562.2</ele>
        <time>2021-04-03T12:30:00Z</time>
      </trkpt>
      <trkpt lat="46.25973" lon="6.35887">
        <ele>562.2</ele>
        <time>2021-04-03T12:30:01Z</time>
      </trkpt>
      <trkpt lat="46.25971" lon="6.35889">
        <ele>562.4</ele>
        <time>2021-04-03T12:30:02Z</time>
      </trkpt>
      <trkpt lat="46.25968" lon="6.35892">
        <ele>562.6</ele>
        <time>2021-04-03T12:30:03Z</time>
      </trkpt>
      <trkpt lat="46.25966" lon="6.35895">
        <ele>562.8</ele>
        <time>2021-04-03T12:30:04Z</time>
      </trkpt>
      <trkpt lat="46.25966" lon="6.35898">
        <ele>563</ele>
        <time>2021-04-03T12:30:05Z</time>
      </trkpt>
      <trkpt lat="46.25967" lon="6.35902">
        <ele>563</ele>
        <time>2021-04-03T12:30:06Z</time>
      </trkpt>
      <trkpt lat="46.25969" lon="6.35905">
        <ele>563.4</ele>
        <time>2021-04-03T12:30:07Z</time>
      </trkpt>
      <trkpt lat="46.25971" lon="6.35909">
        <ele>563.6</ele>
        <time>2021-04-03T12:30:08Z</time>
      </trkpt>
      <trkpt lat="46.25973" lon="6.35914">
        <ele>563.6</ele>
        <time>2021-04-03T12:30:09Z</time>
      </trkpt>
      <trkpt lat="46.25975" lon="6.35918">
        <ele>564</ele>
        <time>2021-04-03T12:30:10Z</time>
      </trkpt>
      <trkpt lat="46.25977" lon="6.35923">
        <ele>564.2</ele>
        <time>2021-04-03T12:30:11Z</time>
      </trkpt>
      <trkpt lat="46.25979" lon="6.35928">
        <ele>564.4</ele>
        <time>2021-04-03T12:30:12Z</time>
      </trkpt>
      <trkpt lat="46.2598" lon="6.35934">
        <ele>564.4</ele>
        <time>2021-04-03T12:30:13Z</time>
      </trkpt>
      <trkpt lat="46.25982" lon="6.35939">
        <ele>564.6</ele>
        <time>2021-04-03T12:30:14Z</time>
      </trkpt>
      <trkpt lat="46.25984" lon="6.35945">
        <ele>564.6</ele>
        <time>2021-04-03T12:30:15Z</time>
      </trkpt>
      <trkpt lat="46.25985" lon="6.35951">
        <ele>564.8</ele>
        <time>2021-04-03T12:30:16Z</time>
      </trkpt>
      <trkpt lat="46.25987" lon="6.35957">
        <ele>564.6</ele>
        <time>2021-04-03T12:30:17Z</time>
      </trkpt>
      <trkpt lat="46.25988" lon="6.35964">
        <ele>564.6</ele>
        <time>2021-04-03T12:30:18Z</time>
      </trkpt>
      <trkpt lat="46.2599" lon="6.3597">
        <ele>564.8</ele>
        <time>2021-04-03T12:30:19Z</time>
      </trkpt>
      <trkpt lat="46.25992" lon="6.35976">
        <ele>564.8</ele>
        <time>2021-04-03T12:30:20Z</time>
      </trkpt>
      <trkpt lat="46.25993" lon="6.35982">
        <ele>565</ele>
        <time>2021-04-03T12:30:21Z</time>
      </trkpt>
      <trkpt lat="46.25995" lon="6.35989">
        <ele>565.2</ele>
        <time>2021-04-03T12:30:22Z</time>
      </trkpt>
      <trkpt lat="46.25997" lon="6.35995">
        <ele>565.2</ele>
        <time>2021-04-03T12:30:23Z</time>
      </trkpt>
      <trkpt lat="46.25998" lon="6.36001">
        <ele>565</ele>
        <time>2021-04-03T12:30:24Z</time>
      </trkpt>
      <trkpt lat="46.26" lon="6.36008">
        <ele>565.2</ele>
        <time>2021-04-03T12:30:25Z</time>
      </trkpt>
      <trkpt lat="46.26002" lon="6.36014">
        <ele>565</ele>
        <time>2021-04-03T12:30:26Z</time>
      </trkpt>
      <trkpt lat="46.26004" lon="6.36021">
        <ele>565</ele>
        <time>2021-04-03T12:30:27Z</time>
      </trkpt>
      <trkpt lat="46.26006" lon="6.36028">
        <ele>564.8</ele>
        <time>2021-04-03T12:30:28Z</time>
      </trkpt>
      <trkpt lat="46.26009" lon="6.36036">
        <ele>564.8</ele>
        <time>2021-04-03T12:30:29Z</time>
      </trkpt>
      <trkpt lat="46.26011" lon="6.36043">
        <ele>564.6</ele>
        <time>2021-04-03T12:30:30Z</time>
      </trkpt>
      <trkpt lat="46.26014" lon="6.3605">
        <ele>564.6</ele>
        <time>2021-04-03T12:30:31Z</time>
      </trkpt>
      <trkpt lat="46.26017" lon="6.36058">
        <ele>564.4</ele>
        <time>2021-04-03T12:30:32Z</time>
      </trkpt>
      <trkpt lat="46.26019" lon="6.36066">
        <ele>564.4</ele>
        <time>2021-04-03T12:30:33Z</time>
      </trkpt>
      <trkpt lat="46.26022" lon="6.36074">
        <ele>564.2</ele>
        <time>2021-04-03T12:30:34Z</time>
      </trkpt>
      <trkpt lat="46.26025" lon="6.36082">
        <ele>564.2</ele>
        <time>2021-04-03T12:30:35Z</time>
      </trkpt>
      <trkpt lat="46.26028" lon="6.3609">
        <ele>564.2</ele>
        <time>2021-04-03T12:30:36Z</time>
      </trkpt>
      <trkpt lat="46.2603" lon="6.36097">
        <ele>564.2</ele>
        <time>2021-04-03T12:30:37Z</time>
      </trkpt>
      <trkpt lat="46.26033" lon="6.36105">
        <ele>564</ele>
        <time>2021-04-03T12:30:38Z</time>
      </trkpt>
      <trkpt lat="46.26035" lon="6.36113">
        <ele>563.8</ele>
        <time>2021-04-03T12:30:39Z</time>
      </trkpt>
      <trkpt lat="46.26038" lon="6.36121">
        <ele>563.8</ele>
        <time>2021-04-03T12:30:40Z</time>
      </trkpt>
      <trkpt lat="46.2604" lon="6.36128">
        <ele>563.8</ele>
        <time>2021-04-03T12:30:41Z</time>
      </trkpt>
      <trkpt lat="46.26042" lon="6.36135">
        <ele>563.8</ele>
        <time>2021-04-03T12:30:42Z</time>
      </trkpt>
      <trkpt lat="46.26045" lon="6.36142">
        <ele>564</ele>
        <time>2021-04-03T12:30:43Z</time>
      </trkpt>
      <trkpt lat="46.26047" lon="6.3615">
        <ele>564</ele>
        <time>2021-04-03T12:30:44Z</time>
      </trkpt>
      <trkpt lat="46.2605" lon="6.36157">
        <ele>564</ele>
        <time>2021-04-03T12:30:45Z</time>
      </trkpt>
      <trkpt lat="46.26052" lon="6.36164">
        <ele>564</ele>
        <time>2021-04-03T12:30:46Z</time>
      </trkpt>
      <trkpt lat="46.26055" lon="6.36171">
        <ele>564.2</ele>
        <time>2021-04-03T12:30:47Z</time>
      </trkpt>
      <trkpt lat="46.26057" lon="6.36177">
        <ele>564</ele>
        <time>2021-04-03T12:30:48Z</time>
      </trkpt>
      <trkpt lat="46.2606" lon="6.36184">
        <ele>564.2</ele>
        <time>2021-04-03T12:30:49Z</time>
      </trkpt>
      <trkpt lat="46.26062" lon="6.3619">
        <ele>564.2</ele>
        <time>2021-04-03T12:30:50Z</time>
      </trkpt>
      <trkpt lat="46.26065" lon="6.36196">
        <ele>564.4</ele>
        <time>2021-04-03T12:30:51Z</time>
      </trkpt>
      <trkpt lat="46.26068" lon="6.36202">
        <ele>564.4</ele>
        <time>2021-04-03T12:30:52Z</time>
      </trkpt>
      <trkpt lat="46.26071" lon="6.36208">
        <ele>564.4</ele>
        <time>2021-04-03T12:30:53Z</time>
      </trkpt>
      <trkpt lat="46.26073" lon="6.36213">
        <ele>564.4</ele>
        <time>2021-04-03T12:30:54Z</time>
      </trkpt>
      <trkpt lat="46.26076" lon="6.36219">
        <ele>564.6</ele>
        <time>2021-04-03T12:30:55Z</time>
      </trkpt>
      <trkpt lat="46.2608" lon="6.36225">
        <ele>564.8</ele>
        <time>2021-04-03T12:30:56Z</time>
      </trkpt>
      <trkpt lat="46.26083" lon="6.3623">
        <ele>565.2</ele>
        <time>2021-04-03T12:30:57Z</time>
      </trkpt>
      <trkpt lat="46.26086" lon="6.36235">
        <ele>565.2</ele>
        <time>2021-04-03T12:30:58Z</time>
      </trkpt>
      <trkpt lat="46.2609" lon="6.36241">
        <ele>565.2</ele>
        <time>2021-04-03T12:30:59Z</time>
      </trkpt>
      <trkpt lat="46.26093" lon="6.36247">
        <ele>565.2</ele>
        <time>2021-04-03T12:31:00Z</time>
      </trkpt>
      <trkpt lat="46.26097" lon="6.36253">
        <ele>565.2</ele>
        <time>2021-04-03T12:31:01Z</time>
      </trkpt>
      <trkpt lat="46.261" lon="6.36258">
        <ele>565.4</ele>
        <time>2021-04-03T12:31:02Z</time>
      </trkpt>
      <trkpt lat="46.26103" lon="6.36264">
        <ele>565.2</ele>
        <time>2021-04-03T12:31:03Z</time>
      </trkpt>
      <trkpt lat="46.26107" lon="6.3627">
        <ele>565.2</ele>
        <time>2021-04-03T12:31:04Z</time>
      </trkpt>
      <trkpt lat="46.26111" lon="6.36276">
        <ele>565.2</ele>
        <time>2021-04-03T12:31:05Z</time>
      </trkpt>
      <trkpt lat="46.26114" lon="6.36282">
        <ele>565.4</ele>
        <time>2021-04-03T12:31:06Z</time>
      </trkpt>
      <trkpt lat="46.26118" lon="6.36289">
        <ele>565.2</ele>
        <time>2021-04-03T12:31:07Z</time>
      </trkpt>
      <trkpt lat="46.26122" lon="6.36295">
        <ele>565.2</ele>
        <time>2021-04-03T12:31:08Z</time>
      </trkpt>
      <trkpt lat="46.26126" lon="6.36301">
        <ele>565</ele>
        <time>2021-04-03T12:31:09Z</time>
      </trkpt>
      <trkpt lat="46.26129" lon="6.36308">
        <ele>564.8</ele>
        <time>2021-04-03T12:31:10Z</time>
      </trkpt>
      <trkpt lat="46.26132" lon="6.36314">
        <ele>564.6</ele>
        <time>2021-04-03T12:31:11Z</time>
      </trkpt>
      <trkpt lat="46.26136" lon="6.3632">
        <ele>564.6</ele>
        <time>2021-04-03T12:31:12Z</time>
      </trkpt>
      <trkpt lat="46.26139" lon="6.36327">
        <ele>564.6</ele>
        <time>2021-04-03T12:31:13Z</time>
      </trkpt>
      <trkpt lat="46.26142" lon="6.36334">
        <ele>564.4</ele>
        <time>2021-04-03T12:31:14Z</time>
      </trkpt>
      <trkpt lat="46.26145" lon="6.36341">
        <ele>564.4</ele>
        <time>2021-04-03T12:31:15Z</time>
      </trkpt>
      <trkpt lat="46.26148" lon="6.36349">
        <ele>564.2</ele>
        <time>2021-04-03T12:31:16Z</time>
      </trkpt>
      <trkpt lat="46.26151" lon="6.36357">
        <ele>564.2</ele>
        <time>2021-04-03T12:31:17Z</time>
      </trkpt>
      <trkpt lat="46.26154" lon="6.36365">
        <ele>564.2</ele>
        <time>2021-04-03T12:31:18Z</time>
      </trkpt>
      <trkpt lat="46.26156" lon="6.36372">
        <ele>564</ele>
        <time>2021-04-03T12:31:19Z</time>
      </trkpt>
      <trkpt lat="46.26158" lon="6.36379">
        <ele>564</ele>
        <time>2021-04-03T12:31:20Z</time>
      </trkpt>
      <trkpt lat="46.26161" lon="6.36386">
        <ele>564</ele>
        <time>2021-04-03T12:31:21Z</time>
      </trkpt>
      <trkpt lat="46.26163" lon="6.36393">
        <ele>563.8</ele>
        <time>2021-04-03T12:31:22Z</time>
      </trkpt>
      <trkpt lat="46.26165" lon="6.364">
        <ele>563.6</ele>
        <time>2021-04-03T12:31:23Z</time>
      </trkpt>
      <trkpt lat="46.26167" lon="6.36407">
        <ele>563.4</ele>
        <time>2021-04-03T12:31:24Z</time>
      </trkpt>
      <trkpt lat="46.26169" lon="6.36413">
        <ele>563.4</ele>
        <time>2021-04-03T12:31:25Z</time>
      </trkpt>
      <trkpt lat="46.26171" lon="6.3642">
        <ele>563.2</ele>
        <time>2021-04-03T12:31:26Z</time>
      </trkpt>
      <trkpt lat="46.26173" lon="6.36427">
        <ele>563</ele>
        <time>2021-04-03T12:31:27Z</time>
      </trkpt>
      <trkpt lat="46.26174" lon="6.36433">
        <ele>563.2</ele>
        <time>2021-04-03T12:31:28Z</time>
      </trkpt>
      <trkpt lat="46.26175" lon="6.3644">
        <ele>563</ele>
        <time>2021-04-03T12:31:29Z</time>
      </trkpt>
      <trkpt lat="46.26176" lon="6.36447">
        <ele>562.8</ele>
        <time>2021-04-03T12:31:30Z</time>
      </trkpt>
      <trkpt lat="46.26176" lon="6.36454">
        <ele>562.6</ele>
        <time>2021-04-03T12:31:31Z</time>
      </trkpt>
      <trkpt lat="46.26177" lon="6.36461">
        <ele>562.6</ele>
        <time>2021-04-03T12:31:32Z</time>
      </trkpt>
      <trkpt lat="46.26177" lon="6.36468">
        <ele>562.6</ele>
        <time>2021-04-03T12:31:33Z</time>
      </trkpt>
      <trkpt lat="46.26178" lon="6.36475">
        <ele>562.6</ele>
        <time>2021-04-03T12:31:34Z</time>
      </trkpt>
      <trkpt lat="46.26178" lon="6.36482">
        <ele>562.6</ele>
        <time>2021-04-03T12:31:35Z</time>
      </trkpt>
      <trkpt lat="46.26179" lon="6.3649">
        <ele>562.6</ele>
        <time>2021-04-03T12:31:36Z</time>
      </trkpt>
      <trkpt lat="46.26179" lon="6.36496">
        <ele>562.6</ele>
        <time>2021-04-03T12:31:37Z</time>
      </trkpt>
      <trkpt lat="46.26179" lon="6.36503">
        <ele>562.6</ele>
        <time>2021-04-03T12:31:38Z</time>
      </trkpt>
      <trkpt lat="46.26178" lon="6.36511">
        <ele>562.6</ele>
        <time>2021-04-03T12:31:39Z</time>
      </trkpt>
      <trkpt lat="46.26176" lon="6.36518">
        <ele>562.6</ele>
        <time>2021-04-03T12:31:40Z</time>
      </trkpt>
      <trkpt lat="46.26174" lon="6.36526">
        <ele>562.6</ele>
        <time>2021-04-03T12:31:41Z</time>
      </trkpt>
      <trkpt lat="46.26171" lon="6.36533">
        <ele>562.6</ele>
        <time>2021-04-03T12:31:42Z</time>
      </trkpt>
      <trkpt lat="46.26168" lon="6.3654">
        <ele>562.4</ele>
        <time>2021-04-03T12:31:43Z</time>
      </trkpt>
      <trkpt lat="46.26165" lon="6.36548">
        <ele>562.4</ele>
        <time>2021-04-03T12:31:44Z</time>
      </trkpt>
      <trkpt lat="46.26163" lon="6.36555">
        <ele>562.4</ele>
        <time>2021-04-03T12:31:45Z</time>
      </trkpt>
      <trkpt lat="46.2616" lon="6.36562">
        <ele>562.4</ele>
        <time>2021-04-03T12:31:46Z</time>
      </trkpt>
      <trkpt lat="46.26157" lon="6.36569">
        <ele>562.4</ele>
        <time>2021-04-03T12:31:47Z</time>
      </trkpt>
      <trkpt lat="46.26155" lon="6.36576">
        <ele>562.4</ele>
        <time>2021-04-03T12:31:48Z</time>
      </trkpt>
      <trkpt lat="46.26153" lon="6.36582">
        <ele>562.4</ele>
        <time>2021-04-03T12:31:49Z</time>
      </trkpt>
      <trkpt lat="46.26151" lon="6.36589">
        <ele>562.4</ele>
        <time>2021-04-03T12:31:50Z</time>
      </trkpt>
      <trkpt lat="46.26148" lon="6.36596">
        <ele>562.2</ele>
        <time>2021-04-03T12:31:51Z</time>
      </trkpt>
      <trkpt lat="46.26146" lon="6.36602">
        <ele>562.2</ele>
        <time>2021-04-03T12:31:52Z</time>
      </trkpt>
      <trkpt lat="46.26143" lon="6.36608">
        <ele>562</ele>
        <time>2021-04-03T12:31:53Z</time>
      </trkpt>
      <trkpt lat="46.26141" lon="6.36613">
        <ele>562</ele>
        <time>2021-04-03T12:31:54Z</time>
      </trkpt>
      <trkpt lat="46.2614" lon="6.36619">
        <ele>562</ele>
        <time>2021-04-03T12:31:55Z</time>
      </trkpt>
      <trkpt lat="46.26138" lon="6.36624">
        <ele>561.8</ele>
        <time>2021-04-03T12:31:56Z</time>
      </trkpt>
      <trkpt lat="46.26136" lon="6.36629">
        <ele>561.8</ele>
        <time>2021-04-03T12:31:57Z</time>
      </trkpt>
      <trkpt lat="46.26136" lon="6.36636">
        <ele>561.8</ele>
        <time>2021-04-03T12:31:58Z</time>
      </trkpt>
      <trkpt lat="46.26136" lon="6.36643">
        <ele>561.8</ele>
        <time>2021-04-03T12:31:59Z</time>
      </trkpt>
      <trkpt lat="46.26138" lon="6.3665">
        <ele>561.8</ele>
        <time>2021-04-03T12:32:00Z</time>
      </trkpt>
      <trkpt lat="46.26141" lon="6.36658">
        <ele>561.8</ele>
        <time>2021-04-03T12:32:01Z</time>
      </trkpt>
      <trkpt lat="46.26144" lon="6.36666">
        <ele>561.6</ele>
        <time>2021-04-03T12:32:02Z</time>
      </trkpt>
      <trkpt lat="46.26147" lon="6.36673">
        <ele>561.4</ele>
        <time>2021-04-03T12:32:03Z</time>
      </trkpt>
      <trkpt lat="46.26152" lon="6.3668">
        <ele>561.4</ele>
        <time>2021-04-03T12:32:04Z</time>
      </trkpt>
      <trkpt lat="46.26158" lon="6.36686">
        <ele>561.2</ele>
        <time>2021-04-03T12:32:05Z</time>
      </trkpt>
      <trkpt lat="46.26163" lon="6.36691">
        <ele>561</ele>
        <time>2021-04-03T12:32:06Z</time>
      </trkpt>
      <trkpt lat="46.26169" lon="6.36695">
        <ele>560.6</ele>
        <time>2021-04-03T12:32:07Z</time>
      </trkpt>
      <trkpt lat="46.26175" lon="6.36698">
        <ele>560.4</ele>
        <time>2021-04-03T12:32:08Z</time>
      </trkpt>
      <trkpt lat="46.2618" lon="6.36703">
        <ele>559.8</ele>
        <time>2021-04-03T12:32:09Z</time>
      </trkpt>
      <trkpt lat="46.26186" lon="6.36708">
        <ele>559.4</ele>
        <time>2021-04-03T12:32:10Z</time>
      </trkpt>
      <trkpt lat="46.26191" lon="6.36713">
        <ele>559.2</ele>
        <time>2021-04-03T12:32:11Z</time>
      </trkpt>
      <trkpt lat="46.26196" lon="6.3672">
        <ele>559</ele>
        <time>2021-04-03T12:32:12Z</time>
      </trkpt>
      <trkpt lat="46.262" lon="6.36728">
        <ele>558.8</ele>
        <time>2021-04-03T12:32:13Z</time>
      </trkpt>
      <trkpt lat="46.26203" lon="6.36737">
        <ele>558.4</ele>
        <time>2021-04-03T12:32:14Z</time>
      </trkpt>
      <trkpt lat="46.26205" lon="6.36747">
        <ele>558</ele>
        <time>2021-04-03T12:32:15Z</time>
      </trkpt>
      <trkpt lat="46.26206" lon="6.36758">
        <ele>557.6</ele>
        <time>2021-04-03T12:32:16Z</time>
      </trkpt>
      <trkpt lat="46.26206" lon="6.36768">
        <ele>557.4</ele>
        <time>2021-04-03T12:32:17Z</time>
      </trkpt>
      <trkpt lat="46.26206" lon="6.36779">
        <ele>557</ele>
        <time>2021-04-03T12:32:18Z</time>
      </trkpt>
      <trkpt lat="46.26206" lon="6.36788">
        <ele>556.6</ele>
        <time>2021-04-03T12:32:19Z</time>
      </trkpt>
      <trkpt lat="46.26206" lon="6.36799">
        <ele>556.2</ele>
        <time>2021-04-03T12:32:20Z</time>
      </trkpt>
      <trkpt lat="46.26205" lon="6.36808">
        <ele>555.4</ele>
        <time>2021-04-03T12:32:21Z</time>
      </trkpt>
      <trkpt lat="46.26204" lon="6.36818">
        <ele>555.4</ele>
        <time>2021-04-03T12:32:22Z</time>
      </trkpt>
      <trkpt lat="46.26204" lon="6.36827">
        <ele>555</ele>
        <time>2021-04-03T12:32:23Z</time>
      </trkpt>
      <trkpt lat="46.26204" lon="6.36837">
        <ele>554.6</ele>
        <time>2021-04-03T12:32:24Z</time>
      </trkpt>
      <trkpt lat="46.26206" lon="6.36845">
        <ele>554.2</ele>
        <time>2021-04-03T12:32:25Z</time>
      </trkpt>
      <trkpt lat="46.26209" lon="6.36852">
        <ele>553.8</ele>
        <time>2021-04-03T12:32:26Z</time>
      </trkpt>
      <trkpt lat="46.26212" lon="6.36858">
        <ele>553.6</ele>
        <time>2021-04-03T12:32:27Z</time>
      </trkpt>
      <trkpt lat="46.26217" lon="6.36862">
        <ele>553.4</ele>
        <time>2021-04-03T12:32:28Z</time>
      </trkpt>
      <trkpt lat="46.26223" lon="6.36864">
        <ele>553.2</ele>
        <time>2021-04-03T12:32:29Z</time>
      </trkpt>
      <trkpt lat="46.26229" lon="6.36867">
        <ele>552.8</ele>
        <time>2021-04-03T12:32:30Z</time>
      </trkpt>
      <trkpt lat="46.26236" lon="6.3687">
        <ele>552.6</ele>
        <time>2021-04-03T12:32:31Z</time>
      </trkpt>
      <trkpt lat="46.26242" lon="6.36872">
        <ele>552</ele>
        <time>2021-04-03T12:32:32Z</time>
      </trkpt>
      <trkpt lat="46.26248" lon="6.36876">
        <ele>551.6</ele>
        <time>2021-04-03T12:32:33Z</time>
      </trkpt>
      <trkpt lat="46.26253" lon="6.3688">
        <ele>551.2</ele>
        <time>2021-04-03T12:32:34Z</time>
      </trkpt>
      <trkpt lat="46.26257" lon="6.36886">
        <ele>550.6</ele>
        <time>2021-04-03T12:32:35Z</time>
      </trkpt>
      <trkpt lat="46.2626" lon="6.36893">
        <ele>550.4</ele>
        <time>2021-04-03T12:32:36Z</time>
      </trkpt>
      <trkpt lat="46.26262" lon="6.36902">
        <ele>550.2</ele>
        <time>2021-04-03T12:32:37Z</time>
      </trkpt>
      <trkpt lat="46.26262" lon="6.3691">
        <ele>550</ele>
        <time>2021-04-03T12:32:38Z</time>
      </trkpt>
      <trkpt lat="46.26262" lon="6.36918">
        <ele>549.8</ele>
        <time>2021-04-03T12:32:39Z</time>
      </trkpt>
      <trkpt lat="46.26262" lon="6.36925">
        <ele>549.4</ele>
        <time>2021-04-03T12:32:40Z</time>
      </trkpt>
      <trkpt lat="46.26262" lon="6.36932">
        <ele>549.2</ele>
        <time>2021-04-03T12:32:41Z</time>
      </trkpt>
      <trkpt lat="46.26262" lon="6.36937">
        <ele>549</ele>
        <time>2021-04-03T12:32:42Z</time>
      </trkpt>
      <trkpt lat="46.26262" lon="6.36942">
        <ele>549</ele>
        <time>2021-04-03T12:32:43Z</time>
      </trkpt>
      <trkpt lat="46.26262" lon="6.36947">
        <ele>548.8</ele>
        <time>2021-04-03T12:32:44Z</time>
      </trkpt>
      <trkpt lat="46.26262" lon="6.36951">
        <ele>548.4</ele>
        <time>2021-04-03T12:32:45Z</time>
      </trkpt>
      <trkpt lat="46.26262" lon="6.36955">
        <ele>548.2</ele>
        <time>2021-04-03T12:32:46Z</time>
      </trkpt>
      <trkpt lat="46.2626" lon="6.3696">
        <ele>548</ele>
        <time>2021-04-03T12:32:47Z</time>
      </trkpt>
      <trkpt lat="46.26258" lon="6.36965">
        <ele>547.8</ele>
        <time>2021-04-03T12:32:48Z</time>
      </trkpt>
      <trkpt lat="46.26256" lon="6.36971">
        <ele>547.8</ele>
        <time>2021-04-03T12:32:49Z</time>
      </trkpt>
      <trkpt lat="46.26253" lon="6.36977">
        <ele>547.8</ele>
        <time>2021-04-03T12:32:50Z</time>
      </trkpt>
      <trkpt lat="46.26251" lon="6.36983">
        <ele>547.6</ele>
        <time>2021-04-03T12:32:51Z</time>
      </trkpt>
      <trkpt lat="46.26249" lon="6.36989">
        <ele>547.8</ele>
        <time>2021-04-03T12:32:52Z</time>
      </trkpt>
      <trkpt lat="46.26247" lon="6.36996">
        <ele>547.4</ele>
        <time>2021-04-03T12:32:53Z</time>
      </trkpt>
      <trkpt lat="46.26245" lon="6.37003">
        <ele>547.4</ele>
        <time>2021-04-03T12:32:54Z</time>
      </trkpt>
      <trkpt lat="46.26244" lon="6.37011">
        <ele>547.2</ele>
        <time>2021-04-03T12:32:55Z</time>
      </trkpt>
      <trkpt lat="46.26243" lon="6.37019">
        <ele>547.2</ele>
        <time>2021-04-03T12:32:56Z</time>
      </trkpt>
      <trkpt lat="46.26242" lon="6.37027">
        <ele>547.2</ele>
        <time>2021-04-03T12:32:57Z</time>
      </trkpt>
      <trkpt lat="46.26242" lon="6.37035">
        <ele>547.4</ele>
        <time>2021-04-03T12:32:58Z</time>
      </trkpt>
      <trkpt lat="46.26243" lon="6.37043">
        <ele>547.4</ele>
        <time>2021-04-03T12:32:59Z</time>
      </trkpt>
      <trkpt lat="46.26244" lon="6.37051">
        <ele>547.4</ele>
        <time>2021-04-03T12:33:00Z</time>
      </trkpt>
      <trkpt lat="46.26244" lon="6.37059">
        <ele>547.6</ele>
        <time>2021-04-03T12:33:01Z</time>
      </trkpt>
      <trkpt lat="46.26245" lon="6.37067">
        <ele>547.4</ele>
        <time>2021-04-03T12:33:02Z</time>
      </trkpt>
      <trkpt lat="46.26246" lon="6.37075">
        <ele>547.2</ele>
        <time>2021-04-03T12:33:03Z</time>
      </trkpt>
      <trkpt lat="46.26248" lon="6.37082">
        <ele>547.4</ele>
        <time>2021-04-03T12:33:04Z</time>
      </trkpt>
      <trkpt lat="46.26249" lon="6.37088">
        <ele>547.4</ele>
        <time>2021-04-03T12:33:05Z</time>
      </trkpt>
      <trkpt lat="46.2625" lon="6.37093">
        <ele>547.4</ele>
        <time>2021-04-03T12:33:06Z</time>
      </trkpt>
      <trkpt lat="46.26251" lon="6.37097">
        <ele>547.4</ele>
        <time>2021-04-03T12:33:07Z</time>
      </trkpt>
      <trkpt lat="46.26251" lon="6.371">
        <ele>547.4</ele>
        <time>2021-04-03T12:33:08Z</time>
      </trkpt>
      <trkpt lat="46.26252" lon="6.37104">
        <ele>547.6</ele>
        <time>2021-04-03T12:33:09Z</time>
      </trkpt>
      <trkpt lat="46.26253" lon="6.37108">
        <ele>547.6</ele>
        <time>2021-04-03T12:33:10Z</time>
      </trkpt>
      <trkpt lat="46.26253" lon="6.37112">
        <ele>547.8</ele>
        <time>2021-04-03T12:33:11Z</time>
      </trkpt>
      <trkpt lat="46.26254" lon="6.37116">
        <ele>547.6</ele>
        <time>2021-04-03T12:33:12Z</time>
      </trkpt>
      <trkpt lat="46.26254" lon="6.37121">
        <ele>547.6</ele>
        <time>2021-04-03T12:33:13Z</time>
      </trkpt>
      <trkpt lat="46.26256" lon="6.37126">
        <ele>547.6</ele>
        <time>2021-04-03T12:33:14Z</time>
      </trkpt>
      <trkpt lat="46.26257" lon="6.3713">
        <ele>547.8</ele>
        <time>2021-04-03T12:33:15Z</time>
      </trkpt>
      <trkpt lat="46.26259" lon="6.37136">
        <ele>548</ele>
        <time>2021-04-03T12:33:16Z</time>
      </trkpt>
      <trkpt lat="46.26262" lon="6.37142">
        <ele>548</ele>
        <time>2021-04-03T12:33:17Z</time>
      </trkpt>
      <trkpt lat="46.26264" lon="6.37149">
        <ele>548</ele>
        <time>2021-04-03T12:33:18Z</time>
      </trkpt>
      <trkpt lat="46.26267" lon="6.37155">
        <ele>548</ele>
        <time>2021-04-03T12:33:19Z</time>
      </trkpt>
      <trkpt lat="46.2627" lon="6.37162">
        <ele>548</ele>
        <time>2021-04-03T12:33:20Z</time>
      </trkpt>
      <trkpt lat="46.26274" lon="6.37169">
        <ele>548</ele>
        <time>2021-04-03T12:33:21Z</time>
      </trkpt>
      <trkpt lat="46.26278" lon="6.37175">
        <ele>548</ele>
        <time>2021-04-03T12:33:22Z</time>
      </trkpt>
      <trkpt lat="46.26282" lon="6.37181">
        <ele>548</ele>
        <time>2021-04-03T12:33:23Z</time>
      </trkpt>
      <trkpt lat="46.26286" lon="6.37187">
        <ele>548</ele>
        <time>2021-04-03T12:33:24Z</time>
      </trkpt>
      <trkpt lat="46.26289" lon="6.37194">
        <ele>548</ele>
        <time>2021-04-03T12:33:25Z</time>
      </trkpt>
      <trkpt lat="46.26292" lon="6.372">
        <ele>547.8</ele>
        <time>2021-04-03T12:33:26Z</time>
      </trkpt>
      <trkpt lat="46.26295" lon="6.37206">
        <ele>547.8</ele>
        <time>2021-04-03T12:33:27Z</time>
      </trkpt>
      <trkpt lat="46.26298" lon="6.37212">
        <ele>547.6</ele>
        <time>2021-04-03T12:33:28Z</time>
      </trkpt>
      <trkpt lat="46.263" lon="6.37218">
        <ele>547.4</ele>
        <time>2021-04-03T12:33:29Z</time>
      </trkpt>
      <trkpt lat="46.26302" lon="6.37224">
        <ele>547.4</ele>
        <time>2021-04-03T12:33:30Z</time>
      </trkpt>
      <trkpt lat="46.26304" lon="6.3723">
        <ele>547.6</ele>
        <time>2021-04-03T12:33:31Z</time>
      </trkpt>
      <trkpt lat="46.26307" lon="6.37237">
        <ele>547.4</ele>
        <time>2021-04-03T12:33:32Z</time>
      </trkpt>
      <trkpt lat="46.26309" lon="6.37244">
        <ele>547.2</ele>
        <time>2021-04-03T12:33:33Z</time>
      </trkpt>
      <trkpt lat="46.26311" lon="6.3725">
        <ele>547.2</ele>
        <time>2021-04-03T12:33:34Z</time>
      </trkpt>
      <trkpt lat="46.26313" lon="6.37256">
        <ele>547.2</ele>
        <time>2021-04-03T12:33:35Z</time>
      </trkpt>
      <trkpt lat="46.26315" lon="6.37262">
        <ele>547.2</ele>
        <time>2021-04-03T12:33:36Z</time>
      </trkpt>
      <trkpt lat="46.26317" lon="6.37268">
        <ele>547.2</ele>
        <time>2021-04-03T12:33:37Z</time>
      </trkpt>
      <trkpt lat="46.26318" lon="6.37274">
        <ele>547.2</ele>
        <time>2021-04-03T12:33:38Z</time>
      </trkpt>
      <trkpt lat="46.2632" lon="6.37279">
        <ele>547.4</ele>
        <time>2021-04-03T12:33:39Z</time>
      </trkpt>
      <trkpt lat="46.26322" lon="6.37284">
        <ele>547.4</ele>
        <time>2021-04-03T12:33:40Z</time>
      </trkpt>
      <trkpt lat="46.26325" lon="6.37287">
        <ele>547.4</ele>
        <time>2021-04-03T12:33:41Z</time>
      </trkpt>
      <trkpt lat="46.26327" lon="6.37293">
        <ele>547.4</ele>
        <time>2021-04-03T12:33:42Z</time>
      </trkpt>
      <trkpt lat="46.26329" lon="6.37298">
        <ele>547.4</ele>
        <time>2021-04-03T12:33:43Z</time>
      </trkpt>
      <trkpt lat="46.26333" lon="6.37304">
        <ele>547.4</ele>
        <time>2021-04-03T12:33:44Z</time>
      </trkpt>
      <trkpt lat="46.26337" lon="6.37309">
        <ele>547.4</ele>
        <time>2021-04-03T12:33:45Z</time>
      </trkpt>
      <trkpt lat="46.2634" lon="6.37316">
        <ele>547.4</ele>
        <time>2021-04-03T12:33:46Z</time>
      </trkpt>
      <trkpt lat="46.26342" lon="6.37323">
        <ele>547.4</ele>
        <time>2021-04-03T12:33:47Z</time>
      </trkpt>
      <trkpt lat="46.26344" lon="6.37331">
        <ele>547.4</ele>
        <time>2021-04-03T12:33:48Z</time>
      </trkpt>
      <trkpt lat="46.26347" lon="6.37338">
        <ele>547.4</ele>
        <time>2021-04-03T12:33:49Z</time>
      </trkpt>
      <trkpt lat="46.2635" lon="6.37345">
        <ele>547.2</ele>
        <time>2021-04-03T12:33:50Z</time>
      </trkpt>
      <trkpt lat="46.26353" lon="6.37352">
        <ele>547</ele>
        <time>2021-04-03T12:33:51Z</time>
      </trkpt>
      <trkpt lat="46.26355" lon="6.37359">
        <ele>546.6</ele>
        <time>2021-04-03T12:33:52Z</time>
      </trkpt>
      <trkpt lat="46.26357" lon="6.37365">
        <ele>546.4</ele>
        <time>2021-04-03T12:33:53Z</time>
      </trkpt>
      <trkpt lat="46.26359" lon="6.37372">
        <ele>546.4</ele>
        <time>2021-04-03T12:33:54Z</time>
      </trkpt>
      <trkpt lat="46.2636" lon="6.37379">
        <ele>546.2</ele>
        <time>2021-04-03T12:33:55Z</time>
      </trkpt>
      <trkpt lat="46.26362" lon="6.37385">
        <ele>546.2</ele>
        <time>2021-04-03T12:33:56Z</time>
      </trkpt>
      <trkpt lat="46.26365" lon="6.37392">
        <ele>546.4</ele>
        <time>2021-04-03T12:33:57Z</time>
      </trkpt>
      <trkpt lat="46.26367" lon="6.37398">
        <ele>546.4</ele>
        <time>2021-04-03T12:33:58Z</time>
      </trkpt>
      <trkpt lat="46.26369" lon="6.37406">
        <ele>546.4</ele>
        <time>2021-04-03T12:33:59Z</time>
      </trkpt>
      <trkpt lat="46.26371" lon="6.37413">
        <ele>546.4</ele>
        <time>2021-04-03T12:34:00Z</time>
      </trkpt>
      <trkpt lat="46.26373" lon="6.37421">
        <ele>546.4</ele>
        <time>2021-04-03T12:34:01Z</time>
      </trkpt>
      <trkpt lat="46.26374" lon="6.37428">
        <ele>546.4</ele>
        <time>2021-04-03T12:34:02Z</time>
      </trkpt>
      <trkpt lat="46.26376" lon="6.37435">
        <ele>547</ele>
        <time>2021-04-03T12:34:03Z</time>
      </trkpt>
      <trkpt lat="46.26377" lon="6.37443">
        <ele>547.4</ele>
        <time>2021-04-03T12:34:04Z</time>
      </trkpt>
      <trkpt lat="46.26379" lon="6.3745">
        <ele>547.6</ele>
        <time>2021-04-03T12:34:05Z</time>
      </trkpt>
      <trkpt lat="46.2638" lon="6.37458">
        <ele>548</ele>
        <time>2021-04-03T12:34:06Z</time>
      </trkpt>
      <trkpt lat="46.26382" lon="6.37466">
        <ele>548</ele>
        <time>2021-04-03T12:34:07Z</time>
      </trkpt>
      <trkpt lat="46.26384" lon="6.37474">
        <ele>548.2</ele>
        <time>2021-04-03T12:34:08Z</time>
      </trkpt>
      <trkpt lat="46.26385" lon="6.37482">
        <ele>548.2</ele>
        <time>2021-04-03T12:34:09Z</time>
      </trkpt>
      <trkpt lat="46.26387" lon="6.37489">
        <ele>548.4</ele>
        <time>2021-04-03T12:34:10Z</time>
      </trkpt>
      <trkpt lat="46.26389" lon="6.37497">
        <ele>548.6</ele>
        <time>2021-04-03T12:34:11Z</time>
      </trkpt>
      <trkpt lat="46.26391" lon="6.37505">
        <ele>548.8</ele>
        <time>2021-04-03T12:34:12Z</time>
      </trkpt>
      <trkpt lat="46.26392" lon="6.37512">
        <ele>548.8</ele>
        <time>2021-04-03T12:34:13Z</time>
      </trkpt>
      <trkpt lat="46.26394" lon="6.3752">
        <ele>549</ele>
        <time>2021-04-03T12:34:14Z</time>
      </trkpt>
      <trkpt lat="46.26395" lon="6.37528">
        <ele>549</ele>
        <time>2021-04-03T12:34:15Z</time>
      </trkpt>
      <trkpt lat="46.26397" lon="6.37536">
        <ele>549.2</ele>
        <time>2021-04-03T12:34:16Z</time>
      </trkpt>
      <trkpt lat="46.26399" lon="6.37544">
        <ele>549.2</ele>
        <time>2021-04-03T12:34:17Z</time>
      </trkpt>
      <trkpt lat="46.26401" lon="6.37552">
        <ele>549.4</ele>
        <time>2021-04-03T12:34:18Z</time>
      </trkpt>
      <trkpt lat="46.26402" lon="6.3756">
        <ele>549.4</ele>
        <time>2021-04-03T12:34:19Z</time>
      </trkpt>
      <trkpt lat="46.26404" lon="6.37567">
        <ele>549.4</ele>
        <time>2021-04-03T12:34:20Z</time>
      </trkpt>
      <trkpt lat="46.26405" lon="6.37574">
        <ele>549.4</ele>
        <time>2021-04-03T12:34:21Z</time>
      </trkpt>
      <trkpt lat="46.26407" lon="6.37581">
        <ele>549.4</ele>
        <time>2021-04-03T12:34:22Z</time>
      </trkpt>
      <trkpt lat="46.26408" lon="6.37588">
        <ele>549.4</ele>
        <time>2021-04-03T12:34:23Z</time>
      </trkpt>
      <trkpt lat="46.2641" lon="6.37595">
        <ele>549.2</ele>
        <time>2021-04-03T12:34:24Z</time>
      </trkpt>
      <trkpt lat="46.26411" lon="6.37602">
        <ele>549.2</ele>
        <time>2021-04-03T12:34:25Z</time>
      </trkpt>
      <trkpt lat="46.26412" lon="6.37609">
        <ele>549.2</ele>
        <time>2021-04-03T12:34:26Z</time>
      </trkpt>
      <trkpt lat="46.26413" lon="6.37617">
        <ele>549</ele>
        <time>2021-04-03T12:34:27Z</time>
      </trkpt>
      <trkpt lat="46.26413" lon="6.37625">
        <ele>549.2</ele>
        <time>2021-04-03T12:34:28Z</time>
      </trkpt>
      <trkpt lat="46.26414" lon="6.37633">
        <ele>549</ele>
        <time>2021-04-03T12:34:29Z</time>
      </trkpt>
      <trkpt lat="46.26415" lon="6.37642">
        <ele>549</ele>
        <time>2021-04-03T12:34:30Z</time>
      </trkpt>
      <trkpt lat="46.26416" lon="6.37651">
        <ele>549</ele>
        <time>2021-04-03T12:34:31Z</time>
      </trkpt>
      <trkpt lat="46.26417" lon="6.3766">
        <ele>548.6</ele>
        <time>2021-04-03T12:34:32Z</time>
      </trkpt>
      <trkpt lat="46.26417" lon="6.37669">
        <ele>548.8</ele>
        <time>2021-04-03T12:34:33Z</time>
      </trkpt>
      <trkpt lat="46.26418" lon="6.37678">
        <ele>548.6</ele>
        <time>2021-04-03T12:34:34Z</time>
      </trkpt>
      <trkpt lat="46.26418" lon="6.37688">
        <ele>548.6</ele>
        <time>2021-04-03T12:34:35Z</time>
      </trkpt>
      <trkpt lat="46.26418" lon="6.37697">
        <ele>548.4</ele>
        <time>2021-04-03T12:34:36Z</time>
      </trkpt>
      <trkpt lat="46.26418" lon="6.37706">
        <ele>548.6</ele>
        <time>2021-04-03T12:34:37Z</time>
      </trkpt>
      <trkpt lat="46.26419" lon="6.37715">
        <ele>548.6</ele>
        <time>2021-04-03T12:34:38Z</time>
      </trkpt>
      <trkpt lat="46.26419" lon="6.37724">
        <ele>548.4</ele>
        <time>2021-04-03T12:34:39Z</time>
      </trkpt>
      <trkpt lat="46.2642" lon="6.37734">
        <ele>548.4</ele>
        <time>2021-04-03T12:34:40Z</time>
      </trkpt>
      <trkpt lat="46.26421" lon="6.37743">
        <ele>548.2</ele>
        <time>2021-04-03T12:34:41Z</time>
      </trkpt>
      <trkpt lat="46.26421" lon="6.37751">
        <ele>547.8</ele>
        <time>2021-04-03T12:34:42Z</time>
      </trkpt>
      <trkpt lat="46.26423" lon="6.3776">
        <ele>547.6</ele>
        <time>2021-04-03T12:34:43Z</time>
      </trkpt>
      <trkpt lat="46.26424" lon="6.37769">
        <ele>547.4</ele>
        <time>2021-04-03T12:34:44Z</time>
      </trkpt>
      <trkpt lat="46.26424" lon="6.37777">
        <ele>547.4</ele>
        <time>2021-04-03T12:34:45Z</time>
      </trkpt>
      <trkpt lat="46.26425" lon="6.37785">
        <ele>547.2</ele>
        <time>2021-04-03T12:34:46Z</time>
      </trkpt>
      <trkpt lat="46.26427" lon="6.37793">
        <ele>547.2</ele>
        <time>2021-04-03T12:34:47Z</time>
      </trkpt>
      <trkpt lat="46.26427" lon="6.37802">
        <ele>547.4</ele>
        <time>2021-04-03T12:34:48Z</time>
      </trkpt>
      <trkpt lat="46.26429" lon="6.37809">
        <ele>547.2</ele>
        <time>2021-04-03T12:34:49Z</time>
      </trkpt>
      <trkpt lat="46.2643" lon="6.37817">
        <ele>547.4</ele>
        <time>2021-04-03T12:34:50Z</time>
      </trkpt>
      <trkpt lat="46.26431" lon="6.37825">
        <ele>547.4</ele>
        <time>2021-04-03T12:34:51Z</time>
      </trkpt>
      <trkpt lat="46.26432" lon="6.37833">
        <ele>547.4</ele>
        <time>2021-04-03T12:34:52Z</time>
      </trkpt>
      <trkpt lat="46.26432" lon="6.37842">
        <ele>547.4</ele>
        <time>2021-04-03T12:34:53Z</time>
      </trkpt>
      <trkpt lat="46.26433" lon="6.3785">
        <ele>547.2</ele>
        <time>2021-04-03T12:34:54Z</time>
      </trkpt>
      <trkpt lat="46.26434" lon="6.37858">
        <ele>547.2</ele>
        <time>2021-04-03T12:34:55Z</time>
      </trkpt>
      <trkpt lat="46.26434" lon="6.37866">
        <ele>547.2</ele>
        <time>2021-04-03T12:34:56Z</time>
      </trkpt>
      <trkpt lat="46.26434" lon="6.37874">
        <ele>547.2</ele>
        <time>2021-04-03T12:34:57Z</time>
      </trkpt>
      <trkpt lat="46.26434" lon="6.37882">
        <ele>547.2</ele>
        <time>2021-04-03T12:34:58Z</time>
      </trkpt>
      <trkpt lat="46.26434" lon="6.3789">
        <ele>547.2</ele>
        <time>2021-04-03T12:34:59Z</time>
      </trkpt>
      <trkpt lat="46.26434" lon="6.37898">
        <ele>547.2</ele>
        <time>2021-04-03T12:35:00Z</time>
      </trkpt>
      <trkpt lat="46.26435" lon="6.37907">
        <ele>547.2</ele>
        <time>2021-04-03T12:35:01Z</time>
      </trkpt>
      <trkpt lat="46.26435" lon="6.37915">
        <ele>547</ele>
        <time>2021-04-03T12:35:02Z</time>
      </trkpt>
      <trkpt lat="46.26435" lon="6.37924">
        <ele>547</ele>
        <time>2021-04-03T12:35:03Z</time>
      </trkpt>
      <trkpt lat="46.26436" lon="6.37933">
        <ele>547</ele>
        <time>2021-04-03T12:35:04Z</time>
      </trkpt>
      <trkpt lat="46.26436" lon="6.37941">
        <ele>547</ele>
        <time>2021-04-03T12:35:05Z</time>
      </trkpt>
      <trkpt lat="46.26436" lon="6.3795">
        <ele>546.8</ele>
        <time>2021-04-03T12:35:06Z</time>
      </trkpt>
      <trkpt lat="46.26436" lon="6.37959">
        <ele>546.8</ele>
        <time>2021-04-03T12:35:07Z</time>
      </trkpt>
      <trkpt lat="46.26437" lon="6.37968">
        <ele>546.6</ele>
        <time>2021-04-03T12:35:08Z</time>
      </trkpt>
      <trkpt lat="46.26437" lon="6.37976">
        <ele>546.2</ele>
        <time>2021-04-03T12:35:09Z</time>
      </trkpt>
      <trkpt lat="46.26437" lon="6.37985">
        <ele>546</ele>
        <time>2021-04-03T12:35:10Z</time>
      </trkpt>
      <trkpt lat="46.26438" lon="6.37994">
        <ele>546</ele>
        <time>2021-04-03T12:35:11Z</time>
      </trkpt>
      <trkpt lat="46.26438" lon="6.38002">
        <ele>545.8</ele>
        <time>2021-04-03T12:35:12Z</time>
      </trkpt>
      <trkpt lat="46.26438" lon="6.3801">
        <ele>545.8</ele>
        <time>2021-04-03T12:35:13Z</time>
      </trkpt>
      <trkpt lat="46.26438" lon="6.38019">
        <ele>545.6</ele>
        <time>2021-04-03T12:35:14Z</time>
      </trkpt>
      <trkpt lat="46.26439" lon="6.38027">
        <ele>545.6</ele>
        <time>2021-04-03T12:35:15Z</time>
      </trkpt>
      <trkpt lat="46.26439" lon="6.38036">
        <ele>545.6</ele>
        <time>2021-04-03T12:35:16Z</time>
      </trkpt>
      <trkpt lat="46.2644" lon="6.38044">
        <ele>545.6</ele>
        <time>2021-04-03T12:35:17Z</time>
      </trkpt>
      <trkpt lat="46.26441" lon="6.38053">
        <ele>545.6</ele>
        <time>2021-04-03T12:35:18Z</time>
      </trkpt>
      <trkpt lat="46.26443" lon="6.38062">
        <ele>545.6</ele>
        <time>2021-04-03T12:35:19Z</time>
      </trkpt>
      <trkpt lat="46.26445" lon="6.3807">
        <ele>545.6</ele>
        <time>2021-04-03T12:35:20Z</time>
      </trkpt>
      <trkpt lat="46.26447" lon="6.38079">
        <ele>545.6</ele>
        <time>2021-04-03T12:35:21Z</time>
      </trkpt>
      <trkpt lat="46.26449" lon="6.38088">
        <ele>545.6</ele>
        <time>2021-04-03T12:35:22Z</time>
      </trkpt>
      <trkpt lat="46.26451" lon="6.38096">
        <ele>545.6</ele>
        <time>2021-04-03T12:35:23Z</time>
      </trkpt>
      <trkpt lat="46.26454" lon="6.38105">
        <ele>545.6</ele>
        <time>2021-04-03T12:35:24Z</time>
      </trkpt>
      <trkpt lat="46.26456" lon="6.38114">
        <ele>545.4</ele>
        <time>2021-04-03T12:35:25Z</time>
      </trkpt>
      <trkpt lat="46.26458" lon="6.38123">
        <ele>545.2</ele>
        <time>2021-04-03T12:35:26Z</time>
      </trkpt>
      <trkpt lat="46.26459" lon="6.38132">
        <ele>545</ele>
        <time>2021-04-03T12:35:27Z</time>
      </trkpt>
      <trkpt lat="46.26459" lon="6.38141">
        <ele>545</ele>
        <time>2021-04-03T12:35:28Z</time>
      </trkpt>
      <trkpt lat="46.26458" lon="6.38151">
        <ele>544.6</ele>
        <time>2021-04-03T12:35:29Z</time>
      </trkpt>
      <trkpt lat="46.26457" lon="6.3816">
        <ele>544.6</ele>
        <time>2021-04-03T12:35:30Z</time>
      </trkpt>
      <trkpt lat="46.26454" lon="6.38168">
        <ele>544.8</ele>
        <time>2021-04-03T12:35:31Z</time>
      </trkpt>
      <trkpt lat="46.26451" lon="6.38176">
        <ele>544.6</ele>
        <time>2021-04-03T12:35:32Z</time>
      </trkpt>
      <trkpt lat="46.26447" lon="6.38184">
        <ele>544.6</ele>
        <time>2021-04-03T12:35:33Z</time>
      </trkpt>
      <trkpt lat="46.26444" lon="6.38191">
        <ele>544.8</ele>
        <time>2021-04-03T12:35:34Z</time>
      </trkpt>
      <trkpt lat="46.26441" lon="6.38198">
        <ele>544.6</ele>
        <time>2021-04-03T12:35:35Z</time>
      </trkpt>
      <trkpt lat="46.26438" lon="6.38205">
        <ele>544.6</ele>
        <time>2021-04-03T12:35:36Z</time>
      </trkpt>
      <trkpt lat="46.26435" lon="6.38211">
        <ele>544.8</ele>
        <time>2021-04-03T12:35:37Z</time>
      </trkpt>
      <trkpt lat="46.26432" lon="6.38218">
        <ele>544.8</ele>
        <time>2021-04-03T12:35:38Z</time>
      </trkpt>
      <trkpt lat="46.2643" lon="6.38225">
        <ele>545</ele>
        <time>2021-04-03T12:35:39Z</time>
      </trkpt>
      <trkpt lat="46.26427" lon="6.38232">
        <ele>545.2</ele>
        <time>2021-04-03T12:35:40Z</time>
      </trkpt>
      <trkpt lat="46.26424" lon="6.38239">
        <ele>545.4</ele>
        <time>2021-04-03T12:35:41Z</time>
      </trkpt>
      <trkpt lat="46.26421" lon="6.38245">
        <ele>545.4</ele>
        <time>2021-04-03T12:35:42Z</time>
      </trkpt>
      <trkpt lat="46.26418" lon="6.38251">
        <ele>545.4</ele>
        <time>2021-04-03T12:35:43Z</time>
      </trkpt>
      <trkpt lat="46.26416" lon="6.38258">
        <ele>545.6</ele>
        <time>2021-04-03T12:35:44Z</time>
      </trkpt>
      <trkpt lat="46.26413" lon="6.38264">
        <ele>545.4</ele>
        <time>2021-04-03T12:35:45Z</time>
      </trkpt>
      <trkpt lat="46.2641" lon="6.3827">
        <ele>545.6</ele>
        <time>2021-04-03T12:35:46Z</time>
      </trkpt>
      <trkpt lat="46.26408" lon="6.38276">
        <ele>545.6</ele>
        <time>2021-04-03T12:35:47Z</time>
      </trkpt>
      <trkpt lat="46.26405" lon="6.38283">
        <ele>545.6</ele>
        <time>2021-04-03T12:35:48Z</time>
      </trkpt>
      <trkpt lat="46.26402" lon="6.38289">
        <ele>545.6</ele>
        <time>2021-04-03T12:35:49Z</time>
      </trkpt>
      <trkpt lat="46.264" lon="6.38296">
        <ele>545.6</ele>
        <time>2021-04-03T12:35:50Z</time>
      </trkpt>
      <trkpt lat="46.26398" lon="6.38302">
        <ele>545.6</ele>
        <time>2021-04-03T12:35:51Z</time>
      </trkpt>
      <trkpt lat="46.26395" lon="6.38308">
        <ele>546</ele>
        <time>2021-04-03T12:35:52Z</time>
      </trkpt>
      <trkpt lat="46.26393" lon="6.38314">
        <ele>546.2</ele>
        <time>2021-04-03T12:35:53Z</time>
      </trkpt>
      <trkpt lat="46.26392" lon="6.3832">
        <ele>546.6</ele>
        <time>2021-04-03T12:35:54Z</time>
      </trkpt>
      <trkpt lat="46.2639" lon="6.38327">
        <ele>546.8</ele>
        <time>2021-04-03T12:35:55Z</time>
      </trkpt>
      <trkpt lat="46.26389" lon="6.38333">
        <ele>546.8</ele>
        <time>2021-04-03T12:35:56Z</time>
      </trkpt>
      <trkpt lat="46.26388" lon="6.3834">
        <ele>547</ele>
        <time>2021-04-03T12:35:57Z</time>
      </trkpt>
      <trkpt lat="46.26387" lon="6.38347">
        <ele>547.4</ele>
        <time>2021-04-03T12:35:58Z</time>
      </trkpt>
      <trkpt lat="46.26386" lon="6.38354">
        <ele>547.4</ele>
        <time>2021-04-03T12:35:59Z</time>
      </trkpt>
      <trkpt lat="46.26385" lon="6.38361">
        <ele>547.6</ele>
        <time>2021-04-03T12:36:00Z</time>
      </trkpt>
      <trkpt lat="46.26383" lon="6.38367">
        <ele>547.6</ele>
        <time>2021-04-03T12:36:01Z</time>
      </trkpt>
      <trkpt lat="46.26381" lon="6.38374">
        <ele>547.8</ele>
        <time>2021-04-03T12:36:02Z</time>
      </trkpt>
      <trkpt lat="46.26378" lon="6.3838">
        <ele>548</ele>
        <time>2021-04-03T12:36:03Z</time>
      </trkpt>
      <trkpt lat="46.26374" lon="6.38385">
        <ele>547.8</ele>
        <time>2021-04-03T12:36:04Z</time>
      </trkpt>
      <trkpt lat="46.2637" lon="6.38389">
        <ele>548</ele>
        <time>2021-04-03T12:36:05Z</time>
      </trkpt>
      <trkpt lat="46.26366" lon="6.38392">
        <ele>548</ele>
        <time>2021-04-03T12:36:06Z</time>
      </trkpt>
      <trkpt lat="46.26362" lon="6.38394">
        <ele>548.2</ele>
        <time>2021-04-03T12:36:07Z</time>
      </trkpt>
      <trkpt lat="46.26358" lon="6.38396">
        <ele>548</ele>
        <time>2021-04-03T12:36:08Z</time>
      </trkpt>
      <trkpt lat="46.26355" lon="6.38397">
        <ele>548.2</ele>
        <time>2021-04-03T12:36:09Z</time>
      </trkpt>
      <trkpt lat="46.26351" lon="6.38398">
        <ele>548.4</ele>
        <time>2021-04-03T12:36:10Z</time>
      </trkpt>
      <trkpt lat="46.26348" lon="6.38399">
        <ele>548.4</ele>
        <time>2021-04-03T12:36:11Z</time>
      </trkpt>
      <trkpt lat="46.26346" lon="6.384">
        <ele>549</ele>
        <time>2021-04-03T12:36:12Z</time>
      </trkpt>
      <trkpt lat="46.26343" lon="6.38401">
        <ele>549.2</ele>
        <time>2021-04-03T12:36:13Z</time>
      </trkpt>
      <trkpt lat="46.26341" lon="6.38401">
        <ele>549.6</ele>
        <time>2021-04-03T12:36:14Z</time>
      </trkpt>
      <trkpt lat="46.26338" lon="6.38402">
        <ele>549.8</ele>
        <time>2021-04-03T12:36:15Z</time>
      </trkpt>
      <trkpt lat="46.26336" lon="6.38404">
        <ele>550</ele>
        <time>2021-04-03T12:36:16Z</time>
      </trkpt>
      <trkpt lat="46.26333" lon="6.38405">
        <ele>549.8</ele>
        <time>2021-04-03T12:36:17Z</time>
      </trkpt>
      <trkpt lat="46.26331" lon="6.38406">
        <ele>550.2</ele>
        <time>2021-04-03T12:36:18Z</time>
      </trkpt>
      <trkpt lat="46.26328" lon="6.38407">
        <ele>550.4</ele>
        <time>2021-04-03T12:36:19Z</time>
      </trkpt>
      <trkpt lat="46.26326" lon="6.38409">
        <ele>551</ele>
        <time>2021-04-03T12:36:20Z</time>
      </trkpt>
      <trkpt lat="46.26323" lon="6.38411">
        <ele>551</ele>
        <time>2021-04-03T12:36:21Z</time>
      </trkpt>
      <trkpt lat="46.2632" lon="6.38413">
        <ele>551.6</ele>
        <time>2021-04-03T12:36:22Z</time>
      </trkpt>
      <trkpt lat="46.26318" lon="6.38414">
        <ele>552</ele>
        <time>2021-04-03T12:36:23Z</time>
      </trkpt>
      <trkpt lat="46.26315" lon="6.38416">
        <ele>552.2</ele>
        <time>2021-04-03T12:36:24Z</time>
      </trkpt>
      <trkpt lat="46.26312" lon="6.38419">
        <ele>552.8</ele>
        <time>2021-04-03T12:36:25Z</time>
      </trkpt>
      <trkpt lat="46.2631" lon="6.38421">
        <ele>553.2</ele>
        <time>2021-04-03T12:36:26Z</time>
      </trkpt>
      <trkpt lat="46.26307" lon="6.38423">
        <ele>553.4</ele>
        <time>2021-04-03T12:36:27Z</time>
      </trkpt>
      <trkpt lat="46.26305" lon="6.38425">
        <ele>553.6</ele>
        <time>2021-04-03T12:36:28Z</time>
      </trkpt>
      <trkpt lat="46.26302" lon="6.38428">
        <ele>554</ele>
        <time>2021-04-03T12:36:29Z</time>
      </trkpt>
      <trkpt lat="46.26299" lon="6.3843">
        <ele>554.2</ele>
        <time>2021-04-03T12:36:30Z</time>
      </trkpt>
      <trkpt lat="46.26296" lon="6.38433">
        <ele>554.4</ele>
        <time>2021-04-03T12:36:31Z</time>
      </trkpt>
      <trkpt lat="46.26293" lon="6.38435">
        <ele>554.6</ele>
        <time>2021-04-03T12:36:32Z</time>
      </trkpt>
      <trkpt lat="46.2629" lon="6.38438">
        <ele>555</ele>
        <time>2021-04-03T12:36:33Z</time>
      </trkpt>
      <trkpt lat="46.26287" lon="6.38441">
        <ele>555.4</ele>
        <time>2021-04-03T12:36:34Z</time>
      </trkpt>
      <trkpt lat="46.26285" lon="6.38443">
        <ele>555.6</ele>
        <time>2021-04-03T12:36:35Z</time>
      </trkpt>
      <trkpt lat="46.26282" lon="6.38446">
        <ele>556</ele>
        <time>2021-04-03T12:36:36Z</time>
      </trkpt>
      <trkpt lat="46.26279" lon="6.38449">
        <ele>556.4</ele>
        <time>2021-04-03T12:36:37Z</time>
      </trkpt>
      <trkpt lat="46.26276" lon="6.38452">
        <ele>556.4</ele>
        <time>2021-04-03T12:36:38Z</time>
      </trkpt>
      <trkpt lat="46.26273" lon="6.38455">
        <ele>557</ele>
        <time>2021-04-03T12:36:39Z</time>
      </trkpt>
      <trkpt lat="46.2627" lon="6.38458">
        <ele>557</ele>
        <time>2021-04-03T12:36:40Z</time>
      </trkpt>
      <trkpt lat="46.26267" lon="6.38461">
        <ele>557.4</ele>
        <time>2021-04-03T12:36:41Z</time>
      </trkpt>
      <trkpt lat="46.26265" lon="6.38464">
        <ele>557.6</ele>
        <time>2021-04-03T12:36:42Z</time>
      </trkpt>
      <trkpt lat="46.26262" lon="6.38467">
        <ele>557.8</ele>
        <time>2021-04-03T12:36:43Z</time>
      </trkpt>
      <trkpt lat="46.2626" lon="6.38471">
        <ele>558</ele>
        <time>2021-04-03T12:36:44Z</time>
      </trkpt>
      <trkpt lat="46.26258" lon="6.38474">
        <ele>558.2</ele>
        <time>2021-04-03T12:36:45Z</time>
      </trkpt>
      <trkpt lat="46.26256" lon="6.38478">
        <ele>558.4</ele>
        <time>2021-04-03T12:36:46Z</time>
      </trkpt>
      <trkpt lat="46.26254" lon="6.38483">
        <ele>558.8</ele>
        <time>2021-04-03T12:36:47Z</time>
      </trkpt>
      <trkpt lat="46.26253" lon="6.38487">
        <ele>558.8</ele>
        <time>2021-04-03T12:36:48Z</time>
      </trkpt>
      <trkpt lat="46.26252" lon="6.38493">
        <ele>559</ele>
        <time>2021-04-03T12:36:49Z</time>
      </trkpt>
      <trkpt lat="46.26252" lon="6.38498">
        <ele>559.2</ele>
        <time>2021-04-03T12:36:50Z</time>
      </trkpt>
      <trkpt lat="46.26252" lon="6.38504">
        <ele>559.6</ele>
        <time>2021-04-03T12:36:51Z</time>
      </trkpt>
      <trkpt lat="46.26252" lon="6.38509">
        <ele>559.6</ele>
        <time>2021-04-03T12:36:52Z</time>
      </trkpt>
      <trkpt lat="46.26253" lon="6.38515">
        <ele>559.6</ele>
        <time>2021-04-03T12:36:53Z</time>
      </trkpt>
      <trkpt lat="46.26253" lon="6.3852">
        <ele>559.8</ele>
        <time>2021-04-03T12:36:54Z</time>
      </trkpt>
      <trkpt lat="46.26253" lon="6.38526">
        <ele>559.8</ele>
        <time>2021-04-03T12:36:55Z</time>
      </trkpt>
      <trkpt lat="46.26254" lon="6.38531">
        <ele>559.8</ele>
        <time>2021-04-03T12:36:56Z</time>
      </trkpt>
      <trkpt lat="46.26254" lon="6.38536">
        <ele>559.8</ele>
        <time>2021-04-03T12:36:57Z</time>
      </trkpt>
      <trkpt lat="46.26254" lon="6.38541">
        <ele>559.8</ele>
        <time>2021-04-03T12:36:58Z</time>
      </trkpt>
      <trkpt lat="46.26255" lon="6.38546">
        <ele>560</ele>
        <time>2021-04-03T12:36:59Z</time>
      </trkpt>
      <trkpt lat="46.26255" lon="6.38551">
        <ele>560</ele>
        <time>2021-04-03T12:37:00Z</time>
      </trkpt>
      <trkpt lat="46.26256" lon="6.38557">
        <ele>560.2</ele>
        <time>2021-04-03T12:37:01Z</time>
      </trkpt>
      <trkpt lat="46.26256" lon="6.38562">
        <ele>560.6</ele>
        <time>2021-04-03T12:37:02Z</time>
      </trkpt>
      <trkpt lat="46.26256" lon="6.38568">
        <ele>560.6</ele>
        <time>2021-04-03T12:37:03Z</time>
      </trkpt>
      <trkpt lat="46.26256" lon="6.38574">
        <ele>560.6</ele>
        <time>2021-04-03T12:37:04Z</time>
      </trkpt>
      <trkpt lat="46.26256" lon="6.38579">
        <ele>560.8</ele>
        <time>2021-04-03T12:37:05Z</time>
      </trkpt>
      <trkpt lat="46.26255" lon="6.38585">
        <ele>560.8</ele>
        <time>2021-04-03T12:37:06Z</time>
      </trkpt>
      <trkpt lat="46.26254" lon="6.3859">
        <ele>561.2</ele>
        <time>2021-04-03T12:37:07Z</time>
      </trkpt>
      <trkpt lat="46.26253" lon="6.38596">
        <ele>561.4</ele>
        <time>2021-04-03T12:37:08Z</time>
      </trkpt>
      <trkpt lat="46.2625" lon="6.38601">
        <ele>561.6</ele>
        <time>2021-04-03T12:37:09Z</time>
      </trkpt>
      <trkpt lat="46.26247" lon="6.38606">
        <ele>561.8</ele>
        <time>2021-04-03T12:37:10Z</time>
      </trkpt>
      <trkpt lat="46.26244" lon="6.38611">
        <ele>561.6</ele>
        <time>2021-04-03T12:37:11Z</time>
      </trkpt>
      <trkpt lat="46.26241" lon="6.38616">
        <ele>561.8</ele>
        <time>2021-04-03T12:37:12Z</time>
      </trkpt>
      <trkpt lat="46.26239" lon="6.38622">
        <ele>561.8</ele>
        <time>2021-04-03T12:37:13Z</time>
      </trkpt>
      <trkpt lat="46.26236" lon="6.38628">
        <ele>561.8</ele>
        <time>2021-04-03T12:37:14Z</time>
      </trkpt>
      <trkpt lat="46.26234" lon="6.38634">
        <ele>561.6</ele>
        <time>2021-04-03T12:37:15Z</time>
      </trkpt>
      <trkpt lat="46.26233" lon="6.38639">
        <ele>561.8</ele>
        <time>2021-04-03T12:37:16Z</time>
      </trkpt>
      <trkpt lat="46.26231" lon="6.38645">
        <ele>561.8</ele>
        <time>2021-04-03T12:37:17Z</time>
      </trkpt>
      <trkpt lat="46.2623" lon="6.3865">
        <ele>561.8</ele>
        <time>2021-04-03T12:37:18Z</time>
      </trkpt>
      <trkpt lat="46.26228" lon="6.38656">
        <ele>562</ele>
        <time>2021-04-03T12:37:19Z</time>
      </trkpt>
      <trkpt lat="46.26227" lon="6.38661">
        <ele>561.8</ele>
        <time>2021-04-03T12:37:20Z</time>
      </trkpt>
      <trkpt lat="46.26225" lon="6.38666">
        <ele>561.8</ele>
        <time>2021-04-03T12:37:21Z</time>
      </trkpt>
      <trkpt lat="46.26223" lon="6.3867">
        <ele>561.8</ele>
        <time>2021-04-03T12:37:22Z</time>
      </trkpt>
      <trkpt lat="46.26222" lon="6.38675">
        <ele>561.8</ele>
        <time>2021-04-03T12:37:23Z</time>
      </trkpt>
      <trkpt lat="46.2622" lon="6.38679">
        <ele>561.8</ele>
        <time>2021-04-03T12:37:24Z</time>
      </trkpt>
      <trkpt lat="46.26218" lon="6.38684">
        <ele>561.8</ele>
        <time>2021-04-03T12:37:25Z</time>
      </trkpt>
      <trkpt lat="46.26216" lon="6.38688">
        <ele>562</ele>
        <time>2021-04-03T12:37:26Z</time>
      </trkpt>
      <trkpt lat="46.26214" lon="6.38693">
        <ele>562</ele>
        <time>2021-04-03T12:37:27Z</time>
      </trkpt>
      <trkpt lat="46.26213" lon="6.38697">
        <ele>562.4</ele>
        <time>2021-04-03T12:37:28Z</time>
      </trkpt>
      <trkpt lat="46.26211" lon="6.38702">
        <ele>562.4</ele>
        <time>2021-04-03T12:37:29Z</time>
      </trkpt>
      <trkpt lat="46.26209" lon="6.38706">
        <ele>562.8</ele>
        <time>2021-04-03T12:37:30Z</time>
      </trkpt>
      <trkpt lat="46.26207" lon="6.38711">
        <ele>562.8</ele>
        <time>2021-04-03T12:37:31Z</time>
      </trkpt>
      <trkpt lat="46.26205" lon="6.38715">
        <ele>563</ele>
        <time>2021-04-03T12:37:32Z</time>
      </trkpt>
      <trkpt lat="46.26203" lon="6.38719">
        <ele>563.4</ele>
        <time>2021-04-03T12:37:33Z</time>
      </trkpt>
      <trkpt lat="46.26201" lon="6.38723">
        <ele>563.4</ele>
        <time>2021-04-03T12:37:34Z</time>
      </trkpt>
      <trkpt lat="46.26198" lon="6.38727">
        <ele>563.8</ele>
        <time>2021-04-03T12:37:35Z</time>
      </trkpt>
      <trkpt lat="46.26196" lon="6.38731">
        <ele>564</ele>
        <time>2021-04-03T12:37:36Z</time>
      </trkpt>
      <trkpt lat="46.26195" lon="6.38735">
        <ele>564.4</ele>
        <time>2021-04-03T12:37:37Z</time>
      </trkpt>
      <trkpt lat="46.26193" lon="6.38739">
        <ele>564.6</ele>
        <time>2021-04-03T12:37:38Z</time>
      </trkpt>
      <trkpt lat="46.26192" lon="6.38742">
        <ele>564.6</ele>
        <time>2021-04-03T12:37:39Z</time>
      </trkpt>
      <trkpt lat="46.2619" lon="6.38745">
        <ele>565</ele>
        <time>2021-04-03T12:37:40Z</time>
      </trkpt>
      <trkpt lat="46.26189" lon="6.38748">
        <ele>565.4</ele>
        <time>2021-04-03T12:37:41Z</time>
      </trkpt>
      <trkpt lat="46.26188" lon="6.3875">
        <ele>565.6</ele>
        <time>2021-04-03T12:37:42Z</time>
      </trkpt>
      <trkpt lat="46.26187" lon="6.38753">
        <ele>565.8</ele>
        <time>2021-04-03T12:37:43Z</time>
      </trkpt>
      <trkpt lat="46.26186" lon="6.38756">
        <ele>566.2</ele>
        <time>2021-04-03T12:37:44Z</time>
      </trkpt>
      <trkpt lat="46.26184" lon="6.38759">
        <ele>566.4</ele>
        <time>2021-04-03T12:37:45Z</time>
      </trkpt>
      <trkpt lat="46.26183" lon="6.38762">
        <ele>566.6</ele>
        <time>2021-04-03T12:37:46Z</time>
      </trkpt>
      <trkpt lat="46.26183" lon="6.38766">
        <ele>567</ele>
        <time>2021-04-03T12:37:47Z</time>
      </trkpt>
      <trkpt lat="46.26182" lon="6.38771">
        <ele>567.2</ele>
        <time>2021-04-03T12:37:48Z</time>
      </trkpt>
      <trkpt lat="46.26182" lon="6.38775">
        <ele>567.6</ele>
        <time>2021-04-03T12:37:49Z</time>
      </trkpt>
      <trkpt lat="46.26182" lon="6.38779">
        <ele>568</ele>
        <time>2021-04-03T12:37:50Z</time>
      </trkpt>
      <trkpt lat="46.26182" lon="6.38784">
        <ele>568.4</ele>
        <time>2021-04-03T12:37:51Z</time>
      </trkpt>
      <trkpt lat="46.26182" lon="6.38788">
        <ele>568.8</ele>
        <time>2021-04-03T12:37:52Z</time>
      </trkpt>
      <trkpt lat="46.26183" lon="6.38793">
        <ele>568.8</ele>
        <time>2021-04-03T12:37:53Z</time>
      </trkpt>
      <trkpt lat="46.26183" lon="6.38799">
        <ele>569</ele>
        <time>2021-04-03T12:37:54Z</time>
      </trkpt>
      <trkpt lat="46.26183" lon="6.38804">
        <ele>569.2</ele>
        <time>2021-04-03T12:37:55Z</time>
      </trkpt>
      <trkpt lat="46.26184" lon="6.38809">
        <ele>569.4</ele>
        <time>2021-04-03T12:37:56Z</time>
      </trkpt>
      <trkpt lat="46.26184" lon="6.38814">
        <ele>569.4</ele>
        <time>2021-04-03T12:37:57Z</time>
      </trkpt>
      <trkpt lat="46.26184" lon="6.38819">
        <ele>569.6</ele>
        <time>2021-04-03T12:37:58Z</time>
      </trkpt>
      <trkpt lat="46.26184" lon="6.38824">
        <ele>569.6</ele>
        <time>2021-04-03T12:37:59Z</time>
      </trkpt>
      <trkpt lat="46.26184" lon="6.38828">
        <ele>569.6</ele>
        <time>2021-04-03T12:38:00Z</time>
      </trkpt>
      <trkpt lat="46.26183" lon="6.38831">
        <ele>569.6</ele>
        <time>2021-04-03T12:38:01Z</time>
      </trkpt>
      <trkpt lat="46.26183" lon="6.38833">
        <ele>569.8</ele>
        <time>2021-04-03T12:38:02Z</time>
      </trkpt>
      <trkpt lat="46.26182" lon="6.38835">
        <ele>569.8</ele>
        <time>2021-04-03T12:38:03Z</time>
      </trkpt>
      <trkpt lat="46.26182" lon="6.38837">
        <ele>570.2</ele>
        <time>2021-04-03T12:38:04Z</time>
      </trkpt>
      <trkpt lat="46.26182" lon="6.38838">
        <ele>570.2</ele>
        <time>2021-04-03T12:38:05Z</time>
      </trkpt>
      <trkpt lat="46.26182" lon="6.38838">
        <ele>570.2</ele>
        <time>2021-04-03T12:38:06Z</time>
      </trkpt>
      <trkpt lat="46.26182" lon="6.38838">
        <ele>570.4</ele>
        <time>2021-04-03T12:38:07Z</time>
      </trkpt>
      <trkpt lat="46.26183" lon="6.38838">
        <ele>570.8</ele>
        <time>2021-04-03T12:38:08Z</time>
      </trkpt>
      <trkpt lat="46.26183" lon="6.38839">
        <ele>571.2</ele>
        <time>2021-04-03T12:38:09Z</time>
      </trkpt>
      <trkpt lat="46.26183" lon="6.3884">
        <ele>571.2</ele>
        <time>2021-04-03T12:38:10Z</time>
      </trkpt>
      <trkpt lat="46.26184" lon="6.38841">
        <ele>571.2</ele>
        <time>2021-04-03T12:38:11Z</time>
      </trkpt>
      <trkpt lat="46.26186" lon="6.38843">
        <ele>571.2</ele>
        <time>2021-04-03T12:38:12Z</time>
      </trkpt>
      <trkpt lat="46.26189" lon="6.38844">
        <ele>571.4</ele>
        <time>2021-04-03T12:38:13Z</time>
      </trkpt>
      <trkpt lat="46.26192" lon="6.38845">
        <ele>571.2</ele>
        <time>2021-04-03T12:38:14Z</time>
      </trkpt>
      <trkpt lat="46.26195" lon="6.38847">
        <ele>571.2</ele>
        <time>2021-04-03T12:38:15Z</time>
      </trkpt>
      <trkpt lat="46.26199" lon="6.38849">
        <ele>571.2</ele>
        <time>2021-04-03T12:38:16Z</time>
      </trkpt>
      <trkpt lat="46.26202" lon="6.38852">
        <ele>571.4</ele>
        <time>2021-04-03T12:38:17Z</time>
      </trkpt>
      <trkpt lat="46.26206" lon="6.38855">
        <ele>571.2</ele>
        <time>2021-04-03T12:38:18Z</time>
      </trkpt>
      <trkpt lat="46.2621" lon="6.38858">
        <ele>571.2</ele>
        <time>2021-04-03T12:38:19Z</time>
      </trkpt>
      <trkpt lat="46.26213" lon="6.38861">
        <ele>571</ele>
        <time>2021-04-03T12:38:20Z</time>
      </trkpt>
      <trkpt lat="46.26217" lon="6.38863">
        <ele>570.6</ele>
        <time>2021-04-03T12:38:21Z</time>
      </trkpt>
      <trkpt lat="46.26221" lon="6.38866">
        <ele>570.2</ele>
        <time>2021-04-03T12:38:22Z</time>
      </trkpt>
      <trkpt lat="46.26225" lon="6.38869">
        <ele>570</ele>
        <time>2021-04-03T12:38:23Z</time>
      </trkpt>
      <trkpt lat="46.26229" lon="6.3887">
        <ele>569.8</ele>
        <time>2021-04-03T12:38:24Z</time>
      </trkpt>
      <trkpt lat="46.26234" lon="6.3887">
        <ele>569.6</ele>
        <time>2021-04-03T12:38:25Z</time>
      </trkpt>
      <trkpt lat="46.26239" lon="6.38869">
        <ele>569.4</ele>
        <time>2021-04-03T12:38:26Z</time>
      </trkpt>
      <trkpt lat="46.26245" lon="6.38867">
        <ele>569.2</ele>
        <time>2021-04-03T12:38:27Z</time>
      </trkpt>
      <trkpt lat="46.26251" lon="6.38865">
        <ele>568.8</ele>
        <time>2021-04-03T12:38:28Z</time>
      </trkpt>
      <trkpt lat="46.26257" lon="6.38864">
        <ele>568.4</ele>
        <time>2021-04-03T12:38:29Z</time>
      </trkpt>
      <trkpt lat="46.26265" lon="6.38863">
        <ele>568.2</ele>
        <time>2021-04-03T12:38:30Z</time>
      </trkpt>
      <trkpt lat="46.26271" lon="6.38866">
        <ele>568</ele>
        <time>2021-04-03T12:38:31Z</time>
      </trkpt>
      <trkpt lat="46.26278" lon="6.3887">
        <ele>567.6</ele>
        <time>2021-04-03T12:38:32Z</time>
      </trkpt>
      <trkpt lat="46.26284" lon="6.38876">
        <ele>567.2</ele>
        <time>2021-04-03T12:38:33Z</time>
      </trkpt>
      <trkpt lat="46.2629" lon="6.38883">
        <ele>567</ele>
        <time>2021-04-03T12:38:34Z</time>
      </trkpt>
      <trkpt lat="46.26295" lon="6.3889">
        <ele>566.8</ele>
        <time>2021-04-03T12:38:35Z</time>
      </trkpt>
      <trkpt lat="46.263" lon="6.38898">
        <ele>566.6</ele>
        <time>2021-04-03T12:38:36Z</time>
      </trkpt>
      <trkpt lat="46.26305" lon="6.38905">
        <ele>566.4</ele>
        <time>2021-04-03T12:38:37Z</time>
      </trkpt>
      <trkpt lat="46.2631" lon="6.38912">
        <ele>566.2</ele>
        <time>2021-04-03T12:38:38Z</time>
      </trkpt>
      <trkpt lat="46.26315" lon="6.38919">
        <ele>566</ele>
        <time>2021-04-03T12:38:39Z</time>
      </trkpt>
      <trkpt lat="46.2632" lon="6.38926">
        <ele>565.4</ele>
        <time>2021-04-03T12:38:40Z</time>
      </trkpt>
      <trkpt lat="46.26325" lon="6.38932">
        <ele>564.4</ele>
        <time>2021-04-03T12:38:41Z</time>
      </trkpt>
      <trkpt lat="46.2633" lon="6.38938">
        <ele>564</ele>
        <time>2021-04-03T12:38:42Z</time>
      </trkpt>
      <trkpt lat="46.26334" lon="6.38944">
        <ele>563.8</ele>
        <time>2021-04-03T12:38:43Z</time>
      </trkpt>
      <trkpt lat="46.26339" lon="6.3895">
        <ele>563.4</ele>
        <time>2021-04-03T12:38:44Z</time>
      </trkpt>
      <trkpt lat="46.26343" lon="6.38956">
        <ele>563.4</ele>
        <time>2021-04-03T12:38:45Z</time>
      </trkpt>
      <trkpt lat="46.26347" lon="6.38963">
        <ele>563.4</ele>
        <time>2021-04-03T12:38:46Z</time>
      </trkpt>
      <trkpt lat="46.26351" lon="6.3897">
        <ele>563.2</ele>
        <time>2021-04-03T12:38:47Z</time>
      </trkpt>
      <trkpt lat="46.26354" lon="6.38977">
        <ele>563</ele>
        <time>2021-04-03T12:38:48Z</time>
      </trkpt>
      <trkpt lat="46.26357" lon="6.38985">
        <ele>563.2</ele>
        <time>2021-04-03T12:38:49Z</time>
      </trkpt>
      <trkpt lat="46.26361" lon="6.39003">
        <ele>562.8</ele>
        <time>2021-04-03T12:38:51Z</time>
      </trkpt>
      <trkpt lat="46.26361" lon="6.39013">
        <ele>562.8</ele>
        <time>2021-04-03T12:38:52Z</time>
      </trkpt>
      <trkpt lat="46.26362" lon="6.39023">
        <ele>562.8</ele>
        <time>2021-04-03T12:38:53Z</time>
      </trkpt>
      <trkpt lat="46.26362" lon="6.39032">
        <ele>562.8</ele>
        <time>2021-04-03T12:38:54Z</time>
      </trkpt>
      <trkpt lat="46.26363" lon="6.3905">
        <ele>562.6</ele>
        <time>2021-04-03T12:38:56Z</time>
      </trkpt>
      <trkpt lat="46.26366" lon="6.39065">
        <ele>562.4</ele>
        <time>2021-04-03T12:38:58Z</time>
      </trkpt>
      <trkpt lat="46.26368" lon="6.39072">
        <ele>562</ele>
        <time>2021-04-03T12:38:59Z</time>
      </trkpt>
      <trkpt lat="46.2637" lon="6.39079">
        <ele>561.8</ele>
        <time>2021-04-03T12:39:00Z</time>
      </trkpt>
      <trkpt lat="46.26373" lon="6.39084">
        <ele>561.8</ele>
        <time>2021-04-03T12:39:01Z</time>
      </trkpt>
      <trkpt lat="46.26379" lon="6.39095">
        <ele>561.8</ele>
        <time>2021-04-03T12:39:03Z</time>
      </trkpt>
      <trkpt lat="46.26386" lon="6.39105">
        <ele>561.6</ele>
        <time>2021-04-03T12:39:05Z</time>
      </trkpt>
      <trkpt lat="46.26389" lon="6.39111">
        <ele>561.6</ele>
        <time>2021-04-03T12:39:06Z</time>
      </trkpt>
      <trkpt lat="46.26392" lon="6.39116">
        <ele>561.8</ele>
        <time>2021-04-03T12:39:07Z</time>
      </trkpt>
      <trkpt lat="46.26396" lon="6.3912">
        <ele>561.6</ele>
        <time>2021-04-03T12:39:08Z</time>
      </trkpt>
      <trkpt lat="46.26401" lon="6.39122">
        <ele>561.6</ele>
        <time>2021-04-03T12:39:09Z</time>
      </trkpt>
      <trkpt lat="46.26405" lon="6.39123">
        <ele>561.6</ele>
        <time>2021-04-03T12:39:10Z</time>
      </trkpt>
      <trkpt lat="46.26415" lon="6.39118">
        <ele>561.4</ele>
        <time>2021-04-03T12:39:12Z</time>
      </trkpt>
      <trkpt lat="46.26419" lon="6.39113">
        <ele>561.4</ele>
        <time>2021-04-03T12:39:13Z</time>
      </trkpt>
      <trkpt lat="46.26423" lon="6.39108">
        <ele>561.4</ele>
        <time>2021-04-03T12:39:14Z</time>
      </trkpt>
      <trkpt lat="46.26427" lon="6.39102">
        <ele>561.4</ele>
        <time>2021-04-03T12:39:15Z</time>
      </trkpt>
      <trkpt lat="46.26432" lon="6.39095">
        <ele>561.2</ele>
        <time>2021-04-03T12:39:16Z</time>
      </trkpt>
      <trkpt lat="46.26442" lon="6.39081">
        <ele>561.4</ele>
        <time>2021-04-03T12:39:18Z</time>
      </trkpt>
      <trkpt lat="46.26452" lon="6.39066">
        <ele>560.8</ele>
        <time>2021-04-03T12:39:20Z</time>
      </trkpt>
      <trkpt lat="46.26457" lon="6.39058">
        <ele>560.6</ele>
        <time>2021-04-03T12:39:21Z</time>
      </trkpt>
      <trkpt lat="46.26467" lon="6.39045">
        <ele>560</ele>
        <time>2021-04-03T12:39:23Z</time>
      </trkpt>
      <trkpt lat="46.26471" lon="6.39038">
        <ele>559.6</ele>
        <time>2021-04-03T12:39:24Z</time>
      </trkpt>
      <trkpt lat="46.26475" lon="6.39033">
        <ele>559</ele>
        <time>2021-04-03T12:39:25Z</time>
      </trkpt>
      <trkpt lat="46.2648" lon="6.39029">
        <ele>558.4</ele>
        <time>2021-04-03T12:39:26Z</time>
      </trkpt>
      <trkpt lat="46.26484" lon="6.39026">
        <ele>558.2</ele>
        <time>2021-04-03T12:39:27Z</time>
      </trkpt>
      <trkpt lat="46.26489" lon="6.39026">
        <ele>558</ele>
        <time>2021-04-03T12:39:28Z</time>
      </trkpt>
      <trkpt lat="46.26494" lon="6.39029">
        <ele>558</ele>
        <time>2021-04-03T12:39:29Z</time>
      </trkpt>
      <trkpt lat="46.26499" lon="6.39032">
        <ele>558</ele>
        <time>2021-04-03T12:39:30Z</time>
      </trkpt>
      <trkpt lat="46.26504" lon="6.39036">
        <ele>557.8</ele>
        <time>2021-04-03T12:39:31Z</time>
      </trkpt>
      <trkpt lat="46.26507" lon="6.39041">
        <ele>557.6</ele>
        <time>2021-04-03T12:39:32Z</time>
      </trkpt>
      <trkpt lat="46.26511" lon="6.39046">
        <ele>557.6</ele>
        <time>2021-04-03T12:39:33Z</time>
      </trkpt>
      <trkpt lat="46.26515" lon="6.3905">
        <ele>557.4</ele>
        <time>2021-04-03T12:39:34Z</time>
      </trkpt>
      <trkpt lat="46.26519" lon="6.39055">
        <ele>557.6</ele>
        <time>2021-04-03T12:39:35Z</time>
      </trkpt>
      <trkpt lat="46.26523" lon="6.3906">
        <ele>557.4</ele>
        <time>2021-04-03T12:39:36Z</time>
      </trkpt>
      <trkpt lat="46.26527" lon="6.39064">
        <ele>557.4</ele>
        <time>2021-04-03T12:39:37Z</time>
      </trkpt>
      <trkpt lat="46.26531" lon="6.39068">
        <ele>557.2</ele>
        <time>2021-04-03T12:39:38Z</time>
      </trkpt>
      <trkpt lat="46.26535" lon="6.39072">
        <ele>557.4</ele>
        <time>2021-04-03T12:39:39Z</time>
      </trkpt>
      <trkpt lat="46.26539" lon="6.39076">
        <ele>557.4</ele>
        <time>2021-04-03T12:39:40Z</time>
      </trkpt>
      <trkpt lat="46.26544" lon="6.39078">
        <ele>557.4</ele>
        <time>2021-04-03T12:39:41Z</time>
      </trkpt>
      <trkpt lat="46.26549" lon="6.39079">
        <ele>557.4</ele>
        <time>2021-04-03T12:39:42Z</time>
      </trkpt>
      <trkpt lat="46.26554" lon="6.39078">
        <ele>557.2</ele>
        <time>2021-04-03T12:39:43Z</time>
      </trkpt>
      <trkpt lat="46.26559" lon="6.39075">
        <ele>557.2</ele>
        <time>2021-04-03T12:39:44Z</time>
      </trkpt>
      <trkpt lat="46.26565" lon="6.39072">
        <ele>557.2</ele>
        <time>2021-04-03T12:39:45Z</time>
      </trkpt>
      <trkpt lat="46.26571" lon="6.39069">
        <ele>557</ele>
        <time>2021-04-03T12:39:46Z</time>
      </trkpt>
      <trkpt lat="46.26578" lon="6.39067">
        <ele>557</ele>
        <time>2021-04-03T12:39:47Z</time>
      </trkpt>
      <trkpt lat="46.26584" lon="6.39068">
        <ele>556.6</ele>
        <time>2021-04-03T12:39:48Z</time>
      </trkpt>
      <trkpt lat="46.2659" lon="6.39071">
        <ele>556.2</ele>
        <time>2021-04-03T12:39:49Z</time>
      </trkpt>
      <trkpt lat="46.26595" lon="6.39077">
        <ele>556</ele>
        <time>2021-04-03T12:39:50Z</time>
      </trkpt>
      <trkpt lat="46.26598" lon="6.39083">
        <ele>555.8</ele>
        <time>2021-04-03T12:39:51Z</time>
      </trkpt>
      <trkpt lat="46.26601" lon="6.39089">
        <ele>555.8</ele>
        <time>2021-04-03T12:39:52Z</time>
      </trkpt>
      <trkpt lat="46.26605" lon="6.39095">
        <ele>555.6</ele>
        <time>2021-04-03T12:39:53Z</time>
      </trkpt>
      <trkpt lat="46.26608" lon="6.391">
        <ele>555.6</ele>
        <time>2021-04-03T12:39:54Z</time>
      </trkpt>
      <trkpt lat="46.26612" lon="6.39105">
        <ele>555.6</ele>
        <time>2021-04-03T12:39:55Z</time>
      </trkpt>
      <trkpt lat="46.26615" lon="6.3911">
        <ele>555.6</ele>
        <time>2021-04-03T12:39:56Z</time>
      </trkpt>
      <trkpt lat="46.26618" lon="6.39115">
        <ele>555.6</ele>
        <time>2021-04-03T12:39:57Z</time>
      </trkpt>
      <trkpt lat="46.26621" lon="6.3912">
        <ele>555.6</ele>
        <time>2021-04-03T12:39:58Z</time>
      </trkpt>
      <trkpt lat="46.26624" lon="6.39124">
        <ele>555.6</ele>
        <time>2021-04-03T12:39:59Z</time>
      </trkpt>
      <trkpt lat="46.26627" lon="6.39129">
        <ele>555.8</ele>
        <time>2021-04-03T12:40:00Z</time>
      </trkpt>
      <trkpt lat="46.2663" lon="6.39134">
        <ele>556</ele>
        <time>2021-04-03T12:40:01Z</time>
      </trkpt>
      <trkpt lat="46.26634" lon="6.39139">
        <ele>556.4</ele>
        <time>2021-04-03T12:40:02Z</time>
      </trkpt>
      <trkpt lat="46.26637" lon="6.39144">
        <ele>556.6</ele>
        <time>2021-04-03T12:40:03Z</time>
      </trkpt>
      <trkpt lat="46.26641" lon="6.39149">
        <ele>556.8</ele>
        <time>2021-04-03T12:40:04Z</time>
      </trkpt>
      <trkpt lat="46.26644" lon="6.39154">
        <ele>557.2</ele>
        <time>2021-04-03T12:40:05Z</time>
      </trkpt>
      <trkpt lat="46.26647" lon="6.39158">
        <ele>557.2</ele>
        <time>2021-04-03T12:40:06Z</time>
      </trkpt>
      <trkpt lat="46.26651" lon="6.39164">
        <ele>557.6</ele>
        <time>2021-04-03T12:40:07Z</time>
      </trkpt>
      <trkpt lat="46.26654" lon="6.39169">
        <ele>557.8</ele>
        <time>2021-04-03T12:40:08Z</time>
      </trkpt>
      <trkpt lat="46.26658" lon="6.39174">
        <ele>557.8</ele>
        <time>2021-04-03T12:40:09Z</time>
      </trkpt>
      <trkpt lat="46.26661" lon="6.39179">
        <ele>557.8</ele>
        <time>2021-04-03T12:40:10Z</time>
      </trkpt>
      <trkpt lat="46.26665" lon="6.39185">
        <ele>557.8</ele>
        <time>2021-04-03T12:40:11Z</time>
      </trkpt>
      <trkpt lat="46.26668" lon="6.39191">
        <ele>557.8</ele>
        <time>2021-04-03T12:40:12Z</time>
      </trkpt>
      <trkpt lat="46.26671" lon="6.39197">
        <ele>557.8</ele>
        <time>2021-04-03T12:40:13Z</time>
      </trkpt>
      <trkpt lat="46.26675" lon="6.39203">
        <ele>558</ele>
        <time>2021-04-03T12:40:14Z</time>
      </trkpt>
      <trkpt lat="46.26677" lon="6.39209">
        <ele>557.8</ele>
        <time>2021-04-03T12:40:15Z</time>
      </trkpt>
      <trkpt lat="46.2668" lon="6.39216">
        <ele>558</ele>
        <time>2021-04-03T12:40:16Z</time>
      </trkpt>
      <trkpt lat="46.26682" lon="6.39223">
        <ele>558</ele>
        <time>2021-04-03T12:40:17Z</time>
      </trkpt>
      <trkpt lat="46.26684" lon="6.3923">
        <ele>558</ele>
        <time>2021-04-03T12:40:18Z</time>
      </trkpt>
      <trkpt lat="46.26687" lon="6.39238">
        <ele>558</ele>
        <time>2021-04-03T12:40:19Z</time>
      </trkpt>
      <trkpt lat="46.26689" lon="6.39245">
        <ele>558.2</ele>
        <time>2021-04-03T12:40:20Z</time>
      </trkpt>
      <trkpt lat="46.26692" lon="6.39253">
        <ele>558.2</ele>
        <time>2021-04-03T12:40:21Z</time>
      </trkpt>
      <trkpt lat="46.26694" lon="6.39261">
        <ele>558</ele>
        <time>2021-04-03T12:40:22Z</time>
      </trkpt>
      <trkpt lat="46.26697" lon="6.39269">
        <ele>558</ele>
        <time>2021-04-03T12:40:23Z</time>
      </trkpt>
      <trkpt lat="46.267" lon="6.39278">
        <ele>558</ele>
        <time>2021-04-03T12:40:24Z</time>
      </trkpt>
      <trkpt lat="46.26703" lon="6.39286">
        <ele>558</ele>
        <time>2021-04-03T12:40:25Z</time>
      </trkpt>
      <trkpt lat="46.26706" lon="6.39295">
        <ele>558</ele>
        <time>2021-04-03T12:40:26Z</time>
      </trkpt>
      <trkpt lat="46.26709" lon="6.39304">
        <ele>558</ele>
        <time>2021-04-03T12:40:27Z</time>
      </trkpt>
      <trkpt lat="46.26712" lon="6.39313">
        <ele>557.8</ele>
        <time>2021-04-03T12:40:28Z</time>
      </trkpt>
      <trkpt lat="46.26715" lon="6.39322">
        <ele>557.8</ele>
        <time>2021-04-03T12:40:29Z</time>
      </trkpt>
      <trkpt lat="46.26718" lon="6.39332">
        <ele>558</ele>
        <time>2021-04-03T12:40:30Z</time>
      </trkpt>
      <trkpt lat="46.26721" lon="6.39342">
        <ele>557.6</ele>
        <time>2021-04-03T12:40:31Z</time>
      </trkpt>
      <trkpt lat="46.26723" lon="6.39351">
        <ele>557.4</ele>
        <time>2021-04-03T12:40:32Z</time>
      </trkpt>
      <trkpt lat="46.26726" lon="6.3936">
        <ele>557.2</ele>
        <time>2021-04-03T12:40:33Z</time>
      </trkpt>
      <trkpt lat="46.26729" lon="6.39369">
        <ele>556.8</ele>
        <time>2021-04-03T12:40:34Z</time>
      </trkpt>
      <trkpt lat="46.26732" lon="6.39378">
        <ele>556.6</ele>
        <time>2021-04-03T12:40:35Z</time>
      </trkpt>
      <trkpt lat="46.26735" lon="6.39386">
        <ele>556</ele>
        <time>2021-04-03T12:40:36Z</time>
      </trkpt>
      <trkpt lat="46.26738" lon="6.39395">
        <ele>556</ele>
        <time>2021-04-03T12:40:37Z</time>
      </trkpt>
      <trkpt lat="46.26741" lon="6.39403">
        <ele>555.6</ele>
        <time>2021-04-03T12:40:38Z</time>
      </trkpt>
      <trkpt lat="46.26745" lon="6.39411">
        <ele>555.4</ele>
        <time>2021-04-03T12:40:39Z</time>
      </trkpt>
      <trkpt lat="46.26748" lon="6.39419">
        <ele>555.4</ele>
        <time>2021-04-03T12:40:40Z</time>
      </trkpt>
      <trkpt lat="46.26752" lon="6.39427">
        <ele>555.2</ele>
        <time>2021-04-03T12:40:41Z</time>
      </trkpt>
      <trkpt lat="46.26755" lon="6.39435">
        <ele>555</ele>
        <time>2021-04-03T12:40:42Z</time>
      </trkpt>
      <trkpt lat="46.26758" lon="6.39443">
        <ele>555.2</ele>
        <time>2021-04-03T12:40:43Z</time>
      </trkpt>
      <trkpt lat="46.26761" lon="6.39451">
        <ele>555</ele>
        <time>2021-04-03T12:40:44Z</time>
      </trkpt>
      <trkpt lat="46.26764" lon="6.39459">
        <ele>554.8</ele>
        <time>2021-04-03T12:40:45Z</time>
      </trkpt>
      <trkpt lat="46.26766" lon="6.39467">
        <ele>555</ele>
        <time>2021-04-03T12:40:46Z</time>
      </trkpt>
      <trkpt lat="46.26769" lon="6.39475">
        <ele>554.8</ele>
        <time>2021-04-03T12:40:47Z</time>
      </trkpt>
      <trkpt lat="46.26771" lon="6.39483">
        <ele>554.8</ele>
        <time>2021-04-03T12:40:48Z</time>
      </trkpt>
      <trkpt lat="46.26773" lon="6.39491">
        <ele>554.8</ele>
        <time>2021-04-03T12:40:49Z</time>
      </trkpt>
      <trkpt lat="46.26775" lon="6.39499">
        <ele>555</ele>
        <time>2021-04-03T12:40:50Z</time>
      </trkpt>
      <trkpt lat="46.26777" lon="6.39507">
        <ele>555</ele>
        <time>2021-04-03T12:40:51Z</time>
      </trkpt>
      <trkpt lat="46.26779" lon="6.39514">
        <ele>555</ele>
        <time>2021-04-03T12:40:52Z</time>
      </trkpt>
      <trkpt lat="46.26781" lon="6.39522">
        <ele>555</ele>
        <time>2021-04-03T12:40:53Z</time>
      </trkpt>
      <trkpt lat="46.26783" lon="6.3953">
        <ele>555</ele>
        <time>2021-04-03T12:40:54Z</time>
      </trkpt>
      <trkpt lat="46.26784" lon="6.39537">
        <ele>555</ele>
        <time>2021-04-03T12:40:55Z</time>
      </trkpt>
      <trkpt lat="46.26785" lon="6.39545">
        <ele>555</ele>
        <time>2021-04-03T12:40:56Z</time>
      </trkpt>
      <trkpt lat="46.26787" lon="6.39553">
        <ele>555</ele>
        <time>2021-04-03T12:40:57Z</time>
      </trkpt>
      <trkpt lat="46.26787" lon="6.3956">
        <ele>555.2</ele>
        <time>2021-04-03T12:40:58Z</time>
      </trkpt>
      <trkpt lat="46.26788" lon="6.39568">
        <ele>555.2</ele>
        <time>2021-04-03T12:40:59Z</time>
      </trkpt>
      <trkpt lat="46.26789" lon="6.39576">
        <ele>555.2</ele>
        <time>2021-04-03T12:41:00Z</time>
      </trkpt>
      <trkpt lat="46.26791" lon="6.39585">
        <ele>555.4</ele>
        <time>2021-04-03T12:41:01Z</time>
      </trkpt>
      <trkpt lat="46.26793" lon="6.39593">
        <ele>555.4</ele>
        <time>2021-04-03T12:41:02Z</time>
      </trkpt>
      <trkpt lat="46.26796" lon="6.39601">
        <ele>555.4</ele>
        <time>2021-04-03T12:41:03Z</time>
      </trkpt>
      <trkpt lat="46.26798" lon="6.39609">
        <ele>555.2</ele>
        <time>2021-04-03T12:41:04Z</time>
      </trkpt>
      <trkpt lat="46.268" lon="6.39617">
        <ele>555.4</ele>
        <time>2021-04-03T12:41:05Z</time>
      </trkpt>
      <trkpt lat="46.26803" lon="6.39624">
        <ele>555.6</ele>
        <time>2021-04-03T12:41:06Z</time>
      </trkpt>
      <trkpt lat="46.26805" lon="6.39632">
        <ele>555.4</ele>
        <time>2021-04-03T12:41:07Z</time>
      </trkpt>
      <trkpt lat="46.26807" lon="6.3964">
        <ele>555.4</ele>
        <time>2021-04-03T12:41:08Z</time>
      </trkpt>
      <trkpt lat="46.2681" lon="6.39648">
        <ele>555.4</ele>
        <time>2021-04-03T12:41:09Z</time>
      </trkpt>
      <trkpt lat="46.26813" lon="6.39656">
        <ele>555.4</ele>
        <time>2021-04-03T12:41:10Z</time>
      </trkpt>
      <trkpt lat="46.26816" lon="6.39663">
        <ele>555.4</ele>
        <time>2021-04-03T12:41:11Z</time>
      </trkpt>
      <trkpt lat="46.26819" lon="6.39671">
        <ele>555.4</ele>
        <time>2021-04-03T12:41:12Z</time>
      </trkpt>
      <trkpt lat="46.26821" lon="6.39678">
        <ele>555.4</ele>
        <time>2021-04-03T12:41:13Z</time>
      </trkpt>
      <trkpt lat="46.26824" lon="6.39685">
        <ele>555.2</ele>
        <time>2021-04-03T12:41:14Z</time>
      </trkpt>
      <trkpt lat="46.26827" lon="6.39692">
        <ele>555.2</ele>
        <time>2021-04-03T12:41:15Z</time>
      </trkpt>
      <trkpt lat="46.2683" lon="6.397">
        <ele>555.2</ele>
        <time>2021-04-03T12:41:16Z</time>
      </trkpt>
      <trkpt lat="46.26833" lon="6.39707">
        <ele>555.4</ele>
        <time>2021-04-03T12:41:17Z</time>
      </trkpt>
      <trkpt lat="46.26836" lon="6.39714">
        <ele>555.2</ele>
        <time>2021-04-03T12:41:18Z</time>
      </trkpt>
      <trkpt lat="46.26839" lon="6.39721">
        <ele>555</ele>
        <time>2021-04-03T12:41:19Z</time>
      </trkpt>
      <trkpt lat="46.26841" lon="6.39728">
        <ele>555</ele>
        <time>2021-04-03T12:41:20Z</time>
      </trkpt>
      <trkpt lat="46.26844" lon="6.39735">
        <ele>554.8</ele>
        <time>2021-04-03T12:41:21Z</time>
      </trkpt>
      <trkpt lat="46.26847" lon="6.39742">
        <ele>555</ele>
        <time>2021-04-03T12:41:22Z</time>
      </trkpt>
      <trkpt lat="46.2685" lon="6.39749">
        <ele>555</ele>
        <time>2021-04-03T12:41:23Z</time>
      </trkpt>
      <trkpt lat="46.26853" lon="6.39756">
        <ele>555</ele>
        <time>2021-04-03T12:41:24Z</time>
      </trkpt>
      <trkpt lat="46.26856" lon="6.39763">
        <ele>555</ele>
        <time>2021-04-03T12:41:25Z</time>
      </trkpt>
      <trkpt lat="46.26859" lon="6.39769">
        <ele>555.2</ele>
        <time>2021-04-03T12:41:26Z</time>
      </trkpt>
      <trkpt lat="46.26862" lon="6.39776">
        <ele>555.2</ele>
        <time>2021-04-03T12:41:27Z</time>
      </trkpt>
      <trkpt lat="46.26865" lon="6.39782">
        <ele>555.2</ele>
        <time>2021-04-03T12:41:28Z</time>
      </trkpt>
      <trkpt lat="46.26868" lon="6.39788">
        <ele>555.4</ele>
        <time>2021-04-03T12:41:29Z</time>
      </trkpt>
      <trkpt lat="46.26871" lon="6.39794">
        <ele>555.6</ele>
        <time>2021-04-03T12:41:30Z</time>
      </trkpt>
      <trkpt lat="46.26874" lon="6.398">
        <ele>555.6</ele>
        <time>2021-04-03T12:41:31Z</time>
      </trkpt>
      <trkpt lat="46.26878" lon="6.39806">
        <ele>556</ele>
        <time>2021-04-03T12:41:32Z</time>
      </trkpt>
      <trkpt lat="46.26882" lon="6.39812">
        <ele>556</ele>
        <time>2021-04-03T12:41:33Z</time>
      </trkpt>
      <trkpt lat="46.26887" lon="6.39817">
        <ele>556</ele>
        <time>2021-04-03T12:41:34Z</time>
      </trkpt>
      <trkpt lat="46.26892" lon="6.39822">
        <ele>556</ele>
        <time>2021-04-03T12:41:35Z</time>
      </trkpt>
      <trkpt lat="46.26897" lon="6.39826">
        <ele>555.8</ele>
        <time>2021-04-03T12:41:36Z</time>
      </trkpt>
      <trkpt lat="46.26903" lon="6.39831">
        <ele>556</ele>
        <time>2021-04-03T12:41:37Z</time>
      </trkpt>
      <trkpt lat="46.26909" lon="6.39834">
        <ele>556</ele>
        <time>2021-04-03T12:41:38Z</time>
      </trkpt>
      <trkpt lat="46.26915" lon="6.39838">
        <ele>555.8</ele>
        <time>2021-04-03T12:41:39Z</time>
      </trkpt>
      <trkpt lat="46.26921" lon="6.39841">
        <ele>556</ele>
        <time>2021-04-03T12:41:40Z</time>
      </trkpt>
      <trkpt lat="46.26927" lon="6.39845">
        <ele>555.8</ele>
        <time>2021-04-03T12:41:41Z</time>
      </trkpt>
      <trkpt lat="46.26933" lon="6.39849">
        <ele>556</ele>
        <time>2021-04-03T12:41:42Z</time>
      </trkpt>
      <trkpt lat="46.26939" lon="6.39854">
        <ele>555.6</ele>
        <time>2021-04-03T12:41:43Z</time>
      </trkpt>
      <trkpt lat="46.26945" lon="6.39859">
        <ele>554.8</ele>
        <time>2021-04-03T12:41:44Z</time>
      </trkpt>
      <trkpt lat="46.2695" lon="6.39865">
        <ele>554.4</ele>
        <time>2021-04-03T12:41:45Z</time>
      </trkpt>
      <trkpt lat="46.26955" lon="6.39871">
        <ele>554.4</ele>
        <time>2021-04-03T12:41:46Z</time>
      </trkpt>
      <trkpt lat="46.2696" lon="6.39878">
        <ele>553.8</ele>
        <time>2021-04-03T12:41:47Z</time>
      </trkpt>
      <trkpt lat="46.26964" lon="6.39885">
        <ele>553.4</ele>
        <time>2021-04-03T12:41:48Z</time>
      </trkpt>
      <trkpt lat="46.26967" lon="6.39893">
        <ele>553.4</ele>
        <time>2021-04-03T12:41:49Z</time>
      </trkpt>
      <trkpt lat="46.26971" lon="6.39902">
        <ele>553.4</ele>
        <time>2021-04-03T12:41:50Z</time>
      </trkpt>
      <trkpt lat="46.26974" lon="6.3991">
        <ele>553.2</ele>
        <time>2021-04-03T12:41:51Z</time>
      </trkpt>
      <trkpt lat="46.26977" lon="6.39918">
        <ele>553.2</ele>
        <time>2021-04-03T12:41:52Z</time>
      </trkpt>
      <trkpt lat="46.2698" lon="6.39926">
        <ele>553.2</ele>
        <time>2021-04-03T12:41:53Z</time>
      </trkpt>
      <trkpt lat="46.26984" lon="6.39935">
        <ele>553</ele>
        <time>2021-04-03T12:41:54Z</time>
      </trkpt>
      <trkpt lat="46.26987" lon="6.39943">
        <ele>553</ele>
        <time>2021-04-03T12:41:55Z</time>
      </trkpt>
      <trkpt lat="46.2699" lon="6.39952">
        <ele>553</ele>
        <time>2021-04-03T12:41:56Z</time>
      </trkpt>
      <trkpt lat="46.26993" lon="6.39961">
        <ele>553</ele>
        <time>2021-04-03T12:41:57Z</time>
      </trkpt>
      <trkpt lat="46.26997" lon="6.39969">
        <ele>552.8</ele>
        <time>2021-04-03T12:41:58Z</time>
      </trkpt>
      <trkpt lat="46.27" lon="6.39978">
        <ele>552.8</ele>
        <time>2021-04-03T12:41:59Z</time>
      </trkpt>
      <trkpt lat="46.27004" lon="6.39986">
        <ele>552.6</ele>
        <time>2021-04-03T12:42:00Z</time>
      </trkpt>
      <trkpt lat="46.27007" lon="6.39995">
        <ele>552.6</ele>
        <time>2021-04-03T12:42:01Z</time>
      </trkpt>
      <trkpt lat="46.2701" lon="6.40003">
        <ele>552.6</ele>
        <time>2021-04-03T12:42:02Z</time>
      </trkpt>
      <trkpt lat="46.27013" lon="6.40012">
        <ele>552.6</ele>
        <time>2021-04-03T12:42:03Z</time>
      </trkpt>
      <trkpt lat="46.27017" lon="6.40021">
        <ele>552.4</ele>
        <time>2021-04-03T12:42:04Z</time>
      </trkpt>
      <trkpt lat="46.2702" lon="6.40029">
        <ele>552.2</ele>
        <time>2021-04-03T12:42:05Z</time>
      </trkpt>
      <trkpt lat="46.27023" lon="6.40037">
        <ele>552.2</ele>
        <time>2021-04-03T12:42:06Z</time>
      </trkpt>
      <trkpt lat="46.27026" lon="6.40045">
        <ele>552</ele>
        <time>2021-04-03T12:42:07Z</time>
      </trkpt>
      <trkpt lat="46.27029" lon="6.40054">
        <ele>551.8</ele>
        <time>2021-04-03T12:42:08Z</time>
      </trkpt>
      <trkpt lat="46.27032" lon="6.40062">
        <ele>551.6</ele>
        <time>2021-04-03T12:42:09Z</time>
      </trkpt>
      <trkpt lat="46.27035" lon="6.4007">
        <ele>551.4</ele>
        <time>2021-04-03T12:42:10Z</time>
      </trkpt>
      <trkpt lat="46.27039" lon="6.40078">
        <ele>551.4</ele>
        <time>2021-04-03T12:42:11Z</time>
      </trkpt>
      <trkpt lat="46.27042" lon="6.40086">
        <ele>551.2</ele>
        <time>2021-04-03T12:42:12Z</time>
      </trkpt>
      <trkpt lat="46.27045" lon="6.40093">
        <ele>551.4</ele>
        <time>2021-04-03T12:42:13Z</time>
      </trkpt>
      <trkpt lat="46.27048" lon="6.40101">
        <ele>551.2</ele>
        <time>2021-04-03T12:42:14Z</time>
      </trkpt>
      <trkpt lat="46.27051" lon="6.40109">
        <ele>551.2</ele>
        <time>2021-04-03T12:42:15Z</time>
      </trkpt>
      <trkpt lat="46.27054" lon="6.40117">
        <ele>551.2</ele>
        <time>2021-04-03T12:42:16Z</time>
      </trkpt>
      <trkpt lat="46.27057" lon="6.40126">
        <ele>551.2</ele>
        <time>2021-04-03T12:42:17Z</time>
      </trkpt>
      <trkpt lat="46.27061" lon="6.40134">
        <ele>551.4</ele>
        <time>2021-04-03T12:42:18Z</time>
      </trkpt>
      <trkpt lat="46.27064" lon="6.40142">
        <ele>551.4</ele>
        <time>2021-04-03T12:42:19Z</time>
      </trkpt>
      <trkpt lat="46.27067" lon="6.4015">
        <ele>551.6</ele>
        <time>2021-04-03T12:42:20Z</time>
      </trkpt>
      <trkpt lat="46.2707" lon="6.40158">
        <ele>551.8</ele>
        <time>2021-04-03T12:42:21Z</time>
      </trkpt>
      <trkpt lat="46.27073" lon="6.40166">
        <ele>551.8</ele>
        <time>2021-04-03T12:42:22Z</time>
      </trkpt>
      <trkpt lat="46.27076" lon="6.40173">
        <ele>551.8</ele>
        <time>2021-04-03T12:42:23Z</time>
      </trkpt>
      <trkpt lat="46.27079" lon="6.40181">
        <ele>552</ele>
        <time>2021-04-03T12:42:24Z</time>
      </trkpt>
      <trkpt lat="46.27082" lon="6.40188">
        <ele>552.2</ele>
        <time>2021-04-03T12:42:25Z</time>
      </trkpt>
      <trkpt lat="46.27084" lon="6.40195">
        <ele>552.2</ele>
        <time>2021-04-03T12:42:26Z</time>
      </trkpt>
      <trkpt lat="46.27087" lon="6.40202">
        <ele>552.2</ele>
        <time>2021-04-03T12:42:27Z</time>
      </trkpt>
      <trkpt lat="46.2709" lon="6.40209">
        <ele>552.4</ele>
        <time>2021-04-03T12:42:28Z</time>
      </trkpt>
      <trkpt lat="46.27092" lon="6.40216">
        <ele>552.2</ele>
        <time>2021-04-03T12:42:29Z</time>
      </trkpt>
      <trkpt lat="46.27095" lon="6.40223">
        <ele>552.6</ele>
        <time>2021-04-03T12:42:30Z</time>
      </trkpt>
      <trkpt lat="46.27098" lon="6.40229">
        <ele>552.6</ele>
        <time>2021-04-03T12:42:31Z</time>
      </trkpt>
      <trkpt lat="46.271" lon="6.40235">
        <ele>552.4</ele>
        <time>2021-04-03T12:42:32Z</time>
      </trkpt>
      <trkpt lat="46.27102" lon="6.40241">
        <ele>552.4</ele>
        <time>2021-04-03T12:42:33Z</time>
      </trkpt>
      <trkpt lat="46.27105" lon="6.40247">
        <ele>552.6</ele>
        <time>2021-04-03T12:42:34Z</time>
      </trkpt>
      <trkpt lat="46.27107" lon="6.40252">
        <ele>552.4</ele>
        <time>2021-04-03T12:42:35Z</time>
      </trkpt>
      <trkpt lat="46.27109" lon="6.40258">
        <ele>552.6</ele>
        <time>2021-04-03T12:42:36Z</time>
      </trkpt>
      <trkpt lat="46.27112" lon="6.40263">
        <ele>552.4</ele>
        <time>2021-04-03T12:42:37Z</time>
      </trkpt>
      <trkpt lat="46.27115" lon="6.40269">
        <ele>552.6</ele>
        <time>2021-04-03T12:42:38Z</time>
      </trkpt>
      <trkpt lat="46.27117" lon="6.40275">
        <ele>552.4</ele>
        <time>2021-04-03T12:42:39Z</time>
      </trkpt>
      <trkpt lat="46.2712" lon="6.40282">
        <ele>552.4</ele>
        <time>2021-04-03T12:42:40Z</time>
      </trkpt>
      <trkpt lat="46.27123" lon="6.40288">
        <ele>552.6</ele>
        <time>2021-04-03T12:42:41Z</time>
      </trkpt>
      <trkpt lat="46.27125" lon="6.40295">
        <ele>552.6</ele>
        <time>2021-04-03T12:42:42Z</time>
      </trkpt>
      <trkpt lat="46.27128" lon="6.40302">
        <ele>552.8</ele>
        <time>2021-04-03T12:42:43Z</time>
      </trkpt>
      <trkpt lat="46.27131" lon="6.40308">
        <ele>552.8</ele>
        <time>2021-04-03T12:42:44Z</time>
      </trkpt>
      <trkpt lat="46.27134" lon="6.40315">
        <ele>553</ele>
        <time>2021-04-03T12:42:45Z</time>
      </trkpt>
      <trkpt lat="46.27136" lon="6.40321">
        <ele>553</ele>
        <time>2021-04-03T12:42:46Z</time>
      </trkpt>
      <trkpt lat="46.27139" lon="6.40328">
        <ele>553</ele>
        <time>2021-04-03T12:42:47Z</time>
      </trkpt>
      <trkpt lat="46.27142" lon="6.40335">
        <ele>553</ele>
        <time>2021-04-03T12:42:48Z</time>
      </trkpt>
      <trkpt lat="46.27145" lon="6.40342">
        <ele>553.2</ele>
        <time>2021-04-03T12:42:49Z</time>
      </trkpt>
      <trkpt lat="46.27148" lon="6.40349">
        <ele>553.6</ele>
        <time>2021-04-03T12:42:50Z</time>
      </trkpt>
      <trkpt lat="46.27152" lon="6.40356">
        <ele>553.6</ele>
        <time>2021-04-03T12:42:51Z</time>
      </trkpt>
      <trkpt lat="46.27155" lon="6.40363">
        <ele>553.6</ele>
        <time>2021-04-03T12:42:52Z</time>
      </trkpt>
      <trkpt lat="46.27158" lon="6.40371">
        <ele>553.6</ele>
        <time>2021-04-03T12:42:53Z</time>
      </trkpt>
      <trkpt lat="46.27162" lon="6.40379">
        <ele>553.6</ele>
        <time>2021-04-03T12:42:54Z</time>
      </trkpt>
      <trkpt lat="46.27165" lon="6.40386">
        <ele>553.8</ele>
        <time>2021-04-03T12:42:55Z</time>
      </trkpt>
      <trkpt lat="46.27169" lon="6.40394">
        <ele>553.4</ele>
        <time>2021-04-03T12:42:56Z</time>
      </trkpt>
      <trkpt lat="46.27173" lon="6.40402">
        <ele>553.2</ele>
        <time>2021-04-03T12:42:57Z</time>
      </trkpt>
      <trkpt lat="46.27177" lon="6.40409">
        <ele>553</ele>
        <time>2021-04-03T12:42:58Z</time>
      </trkpt>
      <trkpt lat="46.27182" lon="6.40417">
        <ele>552.8</ele>
        <time>2021-04-03T12:42:59Z</time>
      </trkpt>
      <trkpt lat="46.27186" lon="6.40425">
        <ele>552.4</ele>
        <time>2021-04-03T12:43:00Z</time>
      </trkpt>
      <trkpt lat="46.27191" lon="6.40432">
        <ele>552.4</ele>
        <time>2021-04-03T12:43:01Z</time>
      </trkpt>
      <trkpt lat="46.27195" lon="6.4044">
        <ele>551.8</ele>
        <time>2021-04-03T12:43:02Z</time>
      </trkpt>
      <trkpt lat="46.27204" lon="6.40455">
        <ele>551.4</ele>
        <time>2021-04-03T12:43:04Z</time>
      </trkpt>
      <trkpt lat="46.27208" lon="6.40462">
        <ele>551.4</ele>
        <time>2021-04-03T12:43:05Z</time>
      </trkpt>
      <trkpt lat="46.27215" lon="6.40476">
        <ele>551.2</ele>
        <time>2021-04-03T12:43:07Z</time>
      </trkpt>
      <trkpt lat="46.27218" lon="6.40484">
        <ele>551.2</ele>
        <time>2021-04-03T12:43:08Z</time>
      </trkpt>
      <trkpt lat="46.27221" lon="6.40491">
        <ele>551</ele>
        <time>2021-04-03T12:43:09Z</time>
      </trkpt>
      <trkpt lat="46.27224" lon="6.40499">
        <ele>551</ele>
        <time>2021-04-03T12:43:10Z</time>
      </trkpt>
      <trkpt lat="46.27227" lon="6.40506">
        <ele>551</ele>
        <time>2021-04-03T12:43:11Z</time>
      </trkpt>
      <trkpt lat="46.2723" lon="6.40514">
        <ele>551</ele>
        <time>2021-04-03T12:43:12Z</time>
      </trkpt>
      <trkpt lat="46.27233" lon="6.40521">
        <ele>551.2</ele>
        <time>2021-04-03T12:43:13Z</time>
      </trkpt>
      <trkpt lat="46.27236" lon="6.40529">
        <ele>551.2</ele>
        <time>2021-04-03T12:43:14Z</time>
      </trkpt>
      <trkpt lat="46.27239" lon="6.40536">
        <ele>551.2</ele>
        <time>2021-04-03T12:43:15Z</time>
      </trkpt>
      <trkpt lat="46.27242" lon="6.40543">
        <ele>551.2</ele>
        <time>2021-04-03T12:43:16Z</time>
      </trkpt>
      <trkpt lat="46.27244" lon="6.4055">
        <ele>551.2</ele>
        <time>2021-04-03T12:43:17Z</time>
      </trkpt>
      <trkpt lat="46.27247" lon="6.40558">
        <ele>551.2</ele>
        <time>2021-04-03T12:43:18Z</time>
      </trkpt>
      <trkpt lat="46.2725" lon="6.40565">
        <ele>551.2</ele>
        <time>2021-04-03T12:43:19Z</time>
      </trkpt>
      <trkpt lat="46.27253" lon="6.40572">
        <ele>551.2</ele>
        <time>2021-04-03T12:43:20Z</time>
      </trkpt>
      <trkpt lat="46.27257" lon="6.4058">
        <ele>551.4</ele>
        <time>2021-04-03T12:43:21Z</time>
      </trkpt>
      <trkpt lat="46.2726" lon="6.40586">
        <ele>551.4</ele>
        <time>2021-04-03T12:43:22Z</time>
      </trkpt>
      <trkpt lat="46.27264" lon="6.40593">
        <ele>551.4</ele>
        <time>2021-04-03T12:43:23Z</time>
      </trkpt>
      <trkpt lat="46.27267" lon="6.406">
        <ele>551.6</ele>
        <time>2021-04-03T12:43:24Z</time>
      </trkpt>
      <trkpt lat="46.27271" lon="6.40607">
        <ele>551.6</ele>
        <time>2021-04-03T12:43:25Z</time>
      </trkpt>
      <trkpt lat="46.27275" lon="6.40614">
        <ele>551.6</ele>
        <time>2021-04-03T12:43:26Z</time>
      </trkpt>
      <trkpt lat="46.27279" lon="6.40621">
        <ele>551.6</ele>
        <time>2021-04-03T12:43:27Z</time>
      </trkpt>
      <trkpt lat="46.27283" lon="6.40627">
        <ele>551.6</ele>
        <time>2021-04-03T12:43:28Z</time>
      </trkpt>
      <trkpt lat="46.27286" lon="6.40634">
        <ele>551.6</ele>
        <time>2021-04-03T12:43:29Z</time>
      </trkpt>
      <trkpt lat="46.2729" lon="6.4064">
        <ele>551.8</ele>
        <time>2021-04-03T12:43:30Z</time>
      </trkpt>
      <trkpt lat="46.27294" lon="6.40647">
        <ele>551.8</ele>
        <time>2021-04-03T12:43:31Z</time>
      </trkpt>
      <trkpt lat="46.27298" lon="6.40654">
        <ele>551.8</ele>
        <time>2021-04-03T12:43:32Z</time>
      </trkpt>
      <trkpt lat="46.27301" lon="6.40661">
        <ele>552</ele>
        <time>2021-04-03T12:43:33Z</time>
      </trkpt>
      <trkpt lat="46.27305" lon="6.40668">
        <ele>551.8</ele>
        <time>2021-04-03T12:43:34Z</time>
      </trkpt>
      <trkpt lat="46.27308" lon="6.40675">
        <ele>552</ele>
        <time>2021-04-03T12:43:35Z</time>
      </trkpt>
      <trkpt lat="46.27312" lon="6.40681">
        <ele>551.8</ele>
        <time>2021-04-03T12:43:36Z</time>
      </trkpt>
      <trkpt lat="46.27315" lon="6.40688">
        <ele>551.8</ele>
        <time>2021-04-03T12:43:37Z</time>
      </trkpt>
      <trkpt lat="46.27317" lon="6.40695">
        <ele>551.8</ele>
        <time>2021-04-03T12:43:38Z</time>
      </trkpt>
      <trkpt lat="46.2732" lon="6.40701">
        <ele>552</ele>
        <time>2021-04-03T12:43:39Z</time>
      </trkpt>
      <trkpt lat="46.27322" lon="6.40708">
        <ele>552</ele>
        <time>2021-04-03T12:43:40Z</time>
      </trkpt>
      <trkpt lat="46.27324" lon="6.40715">
        <ele>552.2</ele>
        <time>2021-04-03T12:43:41Z</time>
      </trkpt>
      <trkpt lat="46.27326" lon="6.40721">
        <ele>552.2</ele>
        <time>2021-04-03T12:43:42Z</time>
      </trkpt>
      <trkpt lat="46.27327" lon="6.40728">
        <ele>552.6</ele>
        <time>2021-04-03T12:43:43Z</time>
      </trkpt>
      <trkpt lat="46.27329" lon="6.40734">
        <ele>553.2</ele>
        <time>2021-04-03T12:43:44Z</time>
      </trkpt>
      <trkpt lat="46.27329" lon="6.40741">
        <ele>553.6</ele>
        <time>2021-04-03T12:43:45Z</time>
      </trkpt>
      <trkpt lat="46.27331" lon="6.40748">
        <ele>553.8</ele>
        <time>2021-04-03T12:43:46Z</time>
      </trkpt>
      <trkpt lat="46.27332" lon="6.40754">
        <ele>554</ele>
        <time>2021-04-03T12:43:47Z</time>
      </trkpt>
      <trkpt lat="46.27333" lon="6.40761">
        <ele>554</ele>
        <time>2021-04-03T12:43:48Z</time>
      </trkpt>
      <trkpt lat="46.27334" lon="6.40767">
        <ele>554.2</ele>
        <time>2021-04-03T12:43:49Z</time>
      </trkpt>
      <trkpt lat="46.27335" lon="6.40774">
        <ele>554.2</ele>
        <time>2021-04-03T12:43:50Z</time>
      </trkpt>
      <trkpt lat="46.27337" lon="6.40781">
        <ele>554.6</ele>
        <time>2021-04-03T12:43:51Z</time>
      </trkpt>
      <trkpt lat="46.27338" lon="6.40788">
        <ele>554.6</ele>
        <time>2021-04-03T12:43:52Z</time>
      </trkpt>
      <trkpt lat="46.2734" lon="6.40795">
        <ele>554.6</ele>
        <time>2021-04-03T12:43:53Z</time>
      </trkpt>
      <trkpt lat="46.27341" lon="6.40802">
        <ele>554.6</ele>
        <time>2021-04-03T12:43:54Z</time>
      </trkpt>
      <trkpt lat="46.27343" lon="6.40808">
        <ele>554.8</ele>
        <time>2021-04-03T12:43:55Z</time>
      </trkpt>
      <trkpt lat="46.27345" lon="6.40815">
        <ele>555</ele>
        <time>2021-04-03T12:43:56Z</time>
      </trkpt>
      <trkpt lat="46.27346" lon="6.40821">
        <ele>555.2</ele>
        <time>2021-04-03T12:43:57Z</time>
      </trkpt>
      <trkpt lat="46.27349" lon="6.40827">
        <ele>555.8</ele>
        <time>2021-04-03T12:43:58Z</time>
      </trkpt>
      <trkpt lat="46.27351" lon="6.40833">
        <ele>556.2</ele>
        <time>2021-04-03T12:43:59Z</time>
      </trkpt>
      <trkpt lat="46.27353" lon="6.40839">
        <ele>556.2</ele>
        <time>2021-04-03T12:44:00Z</time>
      </trkpt>
      <trkpt lat="46.27355" lon="6.40845">
        <ele>556.6</ele>
        <time>2021-04-03T12:44:01Z</time>
      </trkpt>
      <trkpt lat="46.27358" lon="6.40851">
        <ele>556.6</ele>
        <time>2021-04-03T12:44:02Z</time>
      </trkpt>
      <trkpt lat="46.2736" lon="6.40857">
        <ele>556.6</ele>
        <time>2021-04-03T12:44:03Z</time>
      </trkpt>
      <trkpt lat="46.27362" lon="6.40863">
        <ele>556.8</ele>
        <time>2021-04-03T12:44:04Z</time>
      </trkpt>
      <trkpt lat="46.27365" lon="6.40869">
        <ele>556.8</ele>
        <time>2021-04-03T12:44:05Z</time>
      </trkpt>
      <trkpt lat="46.27367" lon="6.40875">
        <ele>557</ele>
        <time>2021-04-03T12:44:06Z</time>
      </trkpt>
      <trkpt lat="46.27369" lon="6.4088">
        <ele>557.2</ele>
        <time>2021-04-03T12:44:07Z</time>
      </trkpt>
      <trkpt lat="46.27372" lon="6.40886">
        <ele>557.2</ele>
        <time>2021-04-03T12:44:08Z</time>
      </trkpt>
      <trkpt lat="46.27374" lon="6.40892">
        <ele>557.2</ele>
        <time>2021-04-03T12:44:09Z</time>
      </trkpt>
      <trkpt lat="46.27377" lon="6.40898">
        <ele>557.2</ele>
        <time>2021-04-03T12:44:10Z</time>
      </trkpt>
      <trkpt lat="46.27379" lon="6.40904">
        <ele>557.4</ele>
        <time>2021-04-03T12:44:11Z</time>
      </trkpt>
      <trkpt lat="46.27382" lon="6.4091">
        <ele>557.6</ele>
        <time>2021-04-03T12:44:12Z</time>
      </trkpt>
      <trkpt lat="46.27384" lon="6.40916">
        <ele>557.6</ele>
        <time>2021-04-03T12:44:13Z</time>
      </trkpt>
      <trkpt lat="46.27386" lon="6.40923">
        <ele>557.8</ele>
        <time>2021-04-03T12:44:14Z</time>
      </trkpt>
      <trkpt lat="46.27389" lon="6.40929">
        <ele>557.8</ele>
        <time>2021-04-03T12:44:15Z</time>
      </trkpt>
      <trkpt lat="46.27391" lon="6.40935">
        <ele>557.8</ele>
        <time>2021-04-03T12:44:16Z</time>
      </trkpt>
      <trkpt lat="46.27394" lon="6.40941">
        <ele>557.8</ele>
        <time>2021-04-03T12:44:17Z</time>
      </trkpt>
      <trkpt lat="46.27396" lon="6.40946">
        <ele>557.8</ele>
        <time>2021-04-03T12:44:18Z</time>
      </trkpt>
      <trkpt lat="46.27399" lon="6.40952">
        <ele>558</ele>
        <time>2021-04-03T12:44:19Z</time>
      </trkpt>
      <trkpt lat="46.27402" lon="6.40959">
        <ele>558</ele>
        <time>2021-04-03T12:44:20Z</time>
      </trkpt>
      <trkpt lat="46.27404" lon="6.40965">
        <ele>558.2</ele>
        <time>2021-04-03T12:44:21Z</time>
      </trkpt>
      <trkpt lat="46.27406" lon="6.40972">
        <ele>558.2</ele>
        <time>2021-04-03T12:44:22Z</time>
      </trkpt>
      <trkpt lat="46.27408" lon="6.40978">
        <ele>558.4</ele>
        <time>2021-04-03T12:44:23Z</time>
      </trkpt>
      <trkpt lat="46.27411" lon="6.40984">
        <ele>558.4</ele>
        <time>2021-04-03T12:44:24Z</time>
      </trkpt>
      <trkpt lat="46.27413" lon="6.4099">
        <ele>558.2</ele>
        <time>2021-04-03T12:44:25Z</time>
      </trkpt>
      <trkpt lat="46.27415" lon="6.40996">
        <ele>558.6</ele>
        <time>2021-04-03T12:44:26Z</time>
      </trkpt>
      <trkpt lat="46.27417" lon="6.41002">
        <ele>558.6</ele>
        <time>2021-04-03T12:44:27Z</time>
      </trkpt>
      <trkpt lat="46.2742" lon="6.41008">
        <ele>558.6</ele>
        <time>2021-04-03T12:44:28Z</time>
      </trkpt>
      <trkpt lat="46.27422" lon="6.41015">
        <ele>558.8</ele>
        <time>2021-04-03T12:44:29Z</time>
      </trkpt>
      <trkpt lat="46.27425" lon="6.41021">
        <ele>558.8</ele>
        <time>2021-04-03T12:44:30Z</time>
      </trkpt>
      <trkpt lat="46.27427" lon="6.41027">
        <ele>559</ele>
        <time>2021-04-03T12:44:31Z</time>
      </trkpt>
      <trkpt lat="46.2743" lon="6.41034">
        <ele>559.2</ele>
        <time>2021-04-03T12:44:32Z</time>
      </trkpt>
      <trkpt lat="46.27433" lon="6.41041">
        <ele>559.2</ele>
        <time>2021-04-03T12:44:33Z</time>
      </trkpt>
      <trkpt lat="46.27435" lon="6.41048">
        <ele>559.2</ele>
        <time>2021-04-03T12:44:34Z</time>
      </trkpt>
      <trkpt lat="46.27437" lon="6.41055">
        <ele>559.2</ele>
        <time>2021-04-03T12:44:35Z</time>
      </trkpt>
      <trkpt lat="46.27439" lon="6.41062">
        <ele>559.2</ele>
        <time>2021-04-03T12:44:36Z</time>
      </trkpt>
      <trkpt lat="46.27442" lon="6.41069">
        <ele>559.2</ele>
        <time>2021-04-03T12:44:37Z</time>
      </trkpt>
      <trkpt lat="46.27444" lon="6.41076">
        <ele>559.4</ele>
        <time>2021-04-03T12:44:38Z</time>
      </trkpt>
      <trkpt lat="46.27447" lon="6.41082">
        <ele>559.4</ele>
        <time>2021-04-03T12:44:39Z</time>
      </trkpt>
      <trkpt lat="46.27449" lon="6.41089">
        <ele>559.4</ele>
        <time>2021-04-03T12:44:40Z</time>
      </trkpt>
      <trkpt lat="46.27452" lon="6.41095">
        <ele>559.4</ele>
        <time>2021-04-03T12:44:41Z</time>
      </trkpt>
      <trkpt lat="46.27455" lon="6.41101">
        <ele>559.2</ele>
        <time>2021-04-03T12:44:42Z</time>
      </trkpt>
      <trkpt lat="46.27458" lon="6.41108">
        <ele>559.2</ele>
        <time>2021-04-03T12:44:43Z</time>
      </trkpt>
      <trkpt lat="46.2746" lon="6.41114">
        <ele>559.2</ele>
        <time>2021-04-03T12:44:44Z</time>
      </trkpt>
      <trkpt lat="46.27463" lon="6.4112">
        <ele>559.2</ele>
        <time>2021-04-03T12:44:45Z</time>
      </trkpt>
      <trkpt lat="46.27466" lon="6.41126">
        <ele>559.2</ele>
        <time>2021-04-03T12:44:46Z</time>
      </trkpt>
      <trkpt lat="46.27468" lon="6.41132">
        <ele>559</ele>
        <time>2021-04-03T12:44:47Z</time>
      </trkpt>
      <trkpt lat="46.27471" lon="6.41138">
        <ele>559</ele>
        <time>2021-04-03T12:44:48Z</time>
      </trkpt>
      <trkpt lat="46.27474" lon="6.41142">
        <ele>559</ele>
        <time>2021-04-03T12:44:49Z</time>
      </trkpt>
      <trkpt lat="46.27479" lon="6.41145">
        <ele>559</ele>
        <time>2021-04-03T12:44:50Z</time>
      </trkpt>
      <trkpt lat="46.27484" lon="6.41146">
        <ele>558.8</ele>
        <time>2021-04-03T12:44:51Z</time>
      </trkpt>
      <trkpt lat="46.27489" lon="6.41145">
        <ele>558.8</ele>
        <time>2021-04-03T12:44:52Z</time>
      </trkpt>
      <trkpt lat="46.27494" lon="6.41142">
        <ele>558.8</ele>
        <time>2021-04-03T12:44:53Z</time>
      </trkpt>
      <trkpt lat="46.27499" lon="6.41139">
        <ele>558.6</ele>
        <time>2021-04-03T12:44:54Z</time>
      </trkpt>
      <trkpt lat="46.27505" lon="6.41135">
        <ele>558.4</ele>
        <time>2021-04-03T12:44:55Z</time>
      </trkpt>
      <trkpt lat="46.2751" lon="6.41132">
        <ele>558.2</ele>
        <time>2021-04-03T12:44:56Z</time>
      </trkpt>
      <trkpt lat="46.27516" lon="6.4113">
        <ele>558.2</ele>
        <time>2021-04-03T12:44:57Z</time>
      </trkpt>
      <trkpt lat="46.27522" lon="6.41127">
        <ele>558</ele>
        <time>2021-04-03T12:44:58Z</time>
      </trkpt>
      <trkpt lat="46.27527" lon="6.41126">
        <ele>558</ele>
        <time>2021-04-03T12:44:59Z</time>
      </trkpt>
      <trkpt lat="46.27531" lon="6.41127">
        <ele>557.8</ele>
        <time>2021-04-03T12:45:00Z</time>
      </trkpt>
      <trkpt lat="46.27536" lon="6.41131">
        <ele>558</ele>
        <time>2021-04-03T12:45:01Z</time>
      </trkpt>
      <trkpt lat="46.27541" lon="6.41135">
        <ele>557.8</ele>
        <time>2021-04-03T12:45:02Z</time>
      </trkpt>
      <trkpt lat="46.27546" lon="6.41142">
        <ele>557.6</ele>
        <time>2021-04-03T12:45:03Z</time>
      </trkpt>
      <trkpt lat="46.2755" lon="6.41148">
        <ele>557.6</ele>
        <time>2021-04-03T12:45:04Z</time>
      </trkpt>
      <trkpt lat="46.27554" lon="6.41154">
        <ele>557.4</ele>
        <time>2021-04-03T12:45:05Z</time>
      </trkpt>
      <trkpt lat="46.27558" lon="6.4116">
        <ele>557.4</ele>
        <time>2021-04-03T12:45:06Z</time>
      </trkpt>
      <trkpt lat="46.27561" lon="6.41166">
        <ele>557.4</ele>
        <time>2021-04-03T12:45:07Z</time>
      </trkpt>
      <trkpt lat="46.27565" lon="6.41172">
        <ele>557.4</ele>
        <time>2021-04-03T12:45:08Z</time>
      </trkpt>
      <trkpt lat="46.27569" lon="6.41178">
        <ele>557.2</ele>
        <time>2021-04-03T12:45:09Z</time>
      </trkpt>
      <trkpt lat="46.27574" lon="6.41185">
        <ele>557.2</ele>
        <time>2021-04-03T12:45:10Z</time>
      </trkpt>
      <trkpt lat="46.27578" lon="6.41192">
        <ele>557.2</ele>
        <time>2021-04-03T12:45:11Z</time>
      </trkpt>
      <trkpt lat="46.27581" lon="6.41199">
        <ele>557.2</ele>
        <time>2021-04-03T12:45:12Z</time>
      </trkpt>
      <trkpt lat="46.27585" lon="6.41207">
        <ele>557.2</ele>
        <time>2021-04-03T12:45:13Z</time>
      </trkpt>
      <trkpt lat="46.27589" lon="6.41215">
        <ele>557</ele>
        <time>2021-04-03T12:45:14Z</time>
      </trkpt>
      <trkpt lat="46.27593" lon="6.41222">
        <ele>557.2</ele>
        <time>2021-04-03T12:45:15Z</time>
      </trkpt>
      <trkpt lat="46.27597" lon="6.4123">
        <ele>557</ele>
        <time>2021-04-03T12:45:16Z</time>
      </trkpt>
      <trkpt lat="46.27601" lon="6.41237">
        <ele>557</ele>
        <time>2021-04-03T12:45:17Z</time>
      </trkpt>
      <trkpt lat="46.27605" lon="6.41244">
        <ele>556.8</ele>
        <time>2021-04-03T12:45:18Z</time>
      </trkpt>
      <trkpt lat="46.27609" lon="6.4125">
        <ele>556.4</ele>
        <time>2021-04-03T12:45:19Z</time>
      </trkpt>
      <trkpt lat="46.27612" lon="6.41256">
        <ele>556</ele>
        <time>2021-04-03T12:45:20Z</time>
      </trkpt>
      <trkpt lat="46.27616" lon="6.41262">
        <ele>555.8</ele>
        <time>2021-04-03T12:45:21Z</time>
      </trkpt>
      <trkpt lat="46.27619" lon="6.41268">
        <ele>555.8</ele>
        <time>2021-04-03T12:45:22Z</time>
      </trkpt>
      <trkpt lat="46.27621" lon="6.41275">
        <ele>555.6</ele>
        <time>2021-04-03T12:45:23Z</time>
      </trkpt>
      <trkpt lat="46.27623" lon="6.41282">
        <ele>555.6</ele>
        <time>2021-04-03T12:45:24Z</time>
      </trkpt>
      <trkpt lat="46.27624" lon="6.4129">
        <ele>555.4</ele>
        <time>2021-04-03T12:45:25Z</time>
      </trkpt>
      <trkpt lat="46.27626" lon="6.41298">
        <ele>555.4</ele>
        <time>2021-04-03T12:45:26Z</time>
      </trkpt>
      <trkpt lat="46.27626" lon="6.41306">
        <ele>555.2</ele>
        <time>2021-04-03T12:45:27Z</time>
      </trkpt>
      <trkpt lat="46.27627" lon="6.41315">
        <ele>555.2</ele>
        <time>2021-04-03T12:45:28Z</time>
      </trkpt>
      <trkpt lat="46.27627" lon="6.41323">
        <ele>555.2</ele>
        <time>2021-04-03T12:45:29Z</time>
      </trkpt>
      <trkpt lat="46.27627" lon="6.41331">
        <ele>555</ele>
        <time>2021-04-03T12:45:30Z</time>
      </trkpt>
      <trkpt lat="46.27627" lon="6.4134">
        <ele>555.2</ele>
        <time>2021-04-03T12:45:31Z</time>
      </trkpt>
      <trkpt lat="46.27629" lon="6.4135">
        <ele>555</ele>
        <time>2021-04-03T12:45:32Z</time>
      </trkpt>
      <trkpt lat="46.27631" lon="6.4136">
        <ele>555</ele>
        <time>2021-04-03T12:45:33Z</time>
      </trkpt>
      <trkpt lat="46.27633" lon="6.4137">
        <ele>554.8</ele>
        <time>2021-04-03T12:45:34Z</time>
      </trkpt>
      <trkpt lat="46.27637" lon="6.41379">
        <ele>554.8</ele>
        <time>2021-04-03T12:45:35Z</time>
      </trkpt>
      <trkpt lat="46.27642" lon="6.41386">
        <ele>554.8</ele>
        <time>2021-04-03T12:45:36Z</time>
      </trkpt>
      <trkpt lat="46.27649" lon="6.41392">
        <ele>554.6</ele>
        <time>2021-04-03T12:45:37Z</time>
      </trkpt>
      <trkpt lat="46.27656" lon="6.41397">
        <ele>554.4</ele>
        <time>2021-04-03T12:45:38Z</time>
      </trkpt>
      <trkpt lat="46.27664" lon="6.414">
        <ele>554.4</ele>
        <time>2021-04-03T12:45:39Z</time>
      </trkpt>
      <trkpt lat="46.27673" lon="6.41401">
        <ele>554.2</ele>
        <time>2021-04-03T12:45:40Z</time>
      </trkpt>
      <trkpt lat="46.27681" lon="6.41401">
        <ele>554</ele>
        <time>2021-04-03T12:45:41Z</time>
      </trkpt>
      <trkpt lat="46.27689" lon="6.41401">
        <ele>553</ele>
        <time>2021-04-03T12:45:42Z</time>
      </trkpt>
      <trkpt lat="46.27696" lon="6.41401">
        <ele>552.2</ele>
        <time>2021-04-03T12:45:43Z</time>
      </trkpt>
      <trkpt lat="46.27703" lon="6.41402">
        <ele>551.4</ele>
        <time>2021-04-03T12:45:44Z</time>
      </trkpt>
      <trkpt lat="46.27709" lon="6.41403">
        <ele>550.8</ele>
        <time>2021-04-03T12:45:45Z</time>
      </trkpt>
      <trkpt lat="46.27716" lon="6.41405">
        <ele>550.2</ele>
        <time>2021-04-03T12:45:46Z</time>
      </trkpt>
      <trkpt lat="46.27722" lon="6.41407">
        <ele>549.4</ele>
        <time>2021-04-03T12:45:47Z</time>
      </trkpt>
      <trkpt lat="46.27729" lon="6.4141">
        <ele>548.8</ele>
        <time>2021-04-03T12:45:48Z</time>
      </trkpt>
      <trkpt lat="46.27735" lon="6.41415">
        <ele>548.6</ele>
        <time>2021-04-03T12:45:49Z</time>
      </trkpt>
      <trkpt lat="46.27739" lon="6.41423">
        <ele>548</ele>
        <time>2021-04-03T12:45:50Z</time>
      </trkpt>
      <trkpt lat="46.27742" lon="6.41431">
        <ele>547.6</ele>
        <time>2021-04-03T12:45:51Z</time>
      </trkpt>
      <trkpt lat="46.27745" lon="6.41439">
        <ele>547.4</ele>
        <time>2021-04-03T12:45:52Z</time>
      </trkpt>
      <trkpt lat="46.27747" lon="6.41448">
        <ele>547.6</ele>
        <time>2021-04-03T12:45:53Z</time>
      </trkpt>
      <trkpt lat="46.27749" lon="6.41456">
        <ele>547.2</ele>
        <time>2021-04-03T12:45:54Z</time>
      </trkpt>
      <trkpt lat="46.27752" lon="6.41464">
        <ele>547.2</ele>
        <time>2021-04-03T12:45:55Z</time>
      </trkpt>
      <trkpt lat="46.27754" lon="6.41471">
        <ele>547.2</ele>
        <time>2021-04-03T12:45:56Z</time>
      </trkpt>
      <trkpt lat="46.27755" lon="6.41478">
        <ele>547.4</ele>
        <time>2021-04-03T12:45:57Z</time>
      </trkpt>
      <trkpt lat="46.27757" lon="6.41485">
        <ele>547.2</ele>
        <time>2021-04-03T12:45:58Z</time>
      </trkpt>
      <trkpt lat="46.27758" lon="6.41491">
        <ele>547</ele>
        <time>2021-04-03T12:45:59Z</time>
      </trkpt>
      <trkpt lat="46.27758" lon="6.41496">
        <ele>547.2</ele>
        <time>2021-04-03T12:46:00Z</time>
      </trkpt>
      <trkpt lat="46.27759" lon="6.41501">
        <ele>547.2</ele>
        <time>2021-04-03T12:46:01Z</time>
      </trkpt>
      <trkpt lat="46.2776" lon="6.41506">
        <ele>547.4</ele>
        <time>2021-04-03T12:46:02Z</time>
      </trkpt>
      <trkpt lat="46.27761" lon="6.41511">
        <ele>547.6</ele>
        <time>2021-04-03T12:46:03Z</time>
      </trkpt>
      <trkpt lat="46.27762" lon="6.41517">
        <ele>547.8</ele>
        <time>2021-04-03T12:46:04Z</time>
      </trkpt>
      <trkpt lat="46.27763" lon="6.41522">
        <ele>548.2</ele>
        <time>2021-04-03T12:46:05Z</time>
      </trkpt>
      <trkpt lat="46.27765" lon="6.41527">
        <ele>548.8</ele>
        <time>2021-04-03T12:46:06Z</time>
      </trkpt>
      <trkpt lat="46.27766" lon="6.41532">
        <ele>549.4</ele>
        <time>2021-04-03T12:46:07Z</time>
      </trkpt>
      <trkpt lat="46.27768" lon="6.41536">
        <ele>550.2</ele>
        <time>2021-04-03T12:46:08Z</time>
      </trkpt>
      <trkpt lat="46.2777" lon="6.41541">
        <ele>550.6</ele>
        <time>2021-04-03T12:46:09Z</time>
      </trkpt>
      <trkpt lat="46.27773" lon="6.41546">
        <ele>551.2</ele>
        <time>2021-04-03T12:46:10Z</time>
      </trkpt>
      <trkpt lat="46.27775" lon="6.4155">
        <ele>551.6</ele>
        <time>2021-04-03T12:46:11Z</time>
      </trkpt>
      <trkpt lat="46.27777" lon="6.41555">
        <ele>552.2</ele>
        <time>2021-04-03T12:46:12Z</time>
      </trkpt>
      <trkpt lat="46.2778" lon="6.41559">
        <ele>552.6</ele>
        <time>2021-04-03T12:46:13Z</time>
      </trkpt>
      <trkpt lat="46.27782" lon="6.41563">
        <ele>552.8</ele>
        <time>2021-04-03T12:46:14Z</time>
      </trkpt>
      <trkpt lat="46.27785" lon="6.41567">
        <ele>553.2</ele>
        <time>2021-04-03T12:46:15Z</time>
      </trkpt>
      <trkpt lat="46.27788" lon="6.41571">
        <ele>553.2</ele>
        <time>2021-04-03T12:46:16Z</time>
      </trkpt>
      <trkpt lat="46.27791" lon="6.41575">
        <ele>553.4</ele>
        <time>2021-04-03T12:46:17Z</time>
      </trkpt>
      <trkpt lat="46.27794" lon="6.41579">
        <ele>553.4</ele>
        <time>2021-04-03T12:46:18Z</time>
      </trkpt>
      <trkpt lat="46.27797" lon="6.41584">
        <ele>553.6</ele>
        <time>2021-04-03T12:46:19Z</time>
      </trkpt>
      <trkpt lat="46.278" lon="6.41588">
        <ele>554.2</ele>
        <time>2021-04-03T12:46:20Z</time>
      </trkpt>
      <trkpt lat="46.27802" lon="6.41593">
        <ele>554.6</ele>
        <time>2021-04-03T12:46:21Z</time>
      </trkpt>
      <trkpt lat="46.27805" lon="6.41598">
        <ele>554.8</ele>
        <time>2021-04-03T12:46:22Z</time>
      </trkpt>
      <trkpt lat="46.27808" lon="6.41603">
        <ele>555</ele>
        <time>2021-04-03T12:46:23Z</time>
      </trkpt>
      <trkpt lat="46.27811" lon="6.41609">
        <ele>555.2</ele>
        <time>2021-04-03T12:46:24Z</time>
      </trkpt>
      <trkpt lat="46.27815" lon="6.41614">
        <ele>555.2</ele>
        <time>2021-04-03T12:46:25Z</time>
      </trkpt>
      <trkpt lat="46.27818" lon="6.41619">
        <ele>555.6</ele>
        <time>2021-04-03T12:46:26Z</time>
      </trkpt>
      <trkpt lat="46.27822" lon="6.41625">
        <ele>555.6</ele>
        <time>2021-04-03T12:46:27Z</time>
      </trkpt>
      <trkpt lat="46.27825" lon="6.41631">
        <ele>555.6</ele>
        <time>2021-04-03T12:46:28Z</time>
      </trkpt>
      <trkpt lat="46.27829" lon="6.41636">
        <ele>555.6</ele>
        <time>2021-04-03T12:46:29Z</time>
      </trkpt>
      <trkpt lat="46.27833" lon="6.41642">
        <ele>555.8</ele>
        <time>2021-04-03T12:46:30Z</time>
      </trkpt>
      <trkpt lat="46.27836" lon="6.41648">
        <ele>556</ele>
        <time>2021-04-03T12:46:31Z</time>
      </trkpt>
      <trkpt lat="46.2784" lon="6.41654">
        <ele>556</ele>
        <time>2021-04-03T12:46:32Z</time>
      </trkpt>
      <trkpt lat="46.27843" lon="6.4166">
        <ele>556.2</ele>
        <time>2021-04-03T12:46:33Z</time>
      </trkpt>
      <trkpt lat="46.27846" lon="6.41667">
        <ele>556.4</ele>
        <time>2021-04-03T12:46:34Z</time>
      </trkpt>
      <trkpt lat="46.27848" lon="6.41674">
        <ele>556.4</ele>
        <time>2021-04-03T12:46:35Z</time>
      </trkpt>
      <trkpt lat="46.2785" lon="6.41682">
        <ele>556.6</ele>
        <time>2021-04-03T12:46:36Z</time>
      </trkpt>
      <trkpt lat="46.27851" lon="6.4169">
        <ele>557</ele>
        <time>2021-04-03T12:46:37Z</time>
      </trkpt>
      <trkpt lat="46.27851" lon="6.41698">
        <ele>557</ele>
        <time>2021-04-03T12:46:38Z</time>
      </trkpt>
      <trkpt lat="46.27851" lon="6.41706">
        <ele>557</ele>
        <time>2021-04-03T12:46:39Z</time>
      </trkpt>
      <trkpt lat="46.27851" lon="6.41713">
        <ele>557.2</ele>
        <time>2021-04-03T12:46:40Z</time>
      </trkpt>
      <trkpt lat="46.27849" lon="6.4172">
        <ele>557</ele>
        <time>2021-04-03T12:46:41Z</time>
      </trkpt>
      <trkpt lat="46.27848" lon="6.41727">
        <ele>557.2</ele>
        <time>2021-04-03T12:46:42Z</time>
      </trkpt>
      <trkpt lat="46.27846" lon="6.41734">
        <ele>557.2</ele>
        <time>2021-04-03T12:46:43Z</time>
      </trkpt>
      <trkpt lat="46.27843" lon="6.41741">
        <ele>557.2</ele>
        <time>2021-04-03T12:46:44Z</time>
      </trkpt>
      <trkpt lat="46.27841" lon="6.41748">
        <ele>557.4</ele>
        <time>2021-04-03T12:46:45Z</time>
      </trkpt>
      <trkpt lat="46.27839" lon="6.41756">
        <ele>557.4</ele>
        <time>2021-04-03T12:46:46Z</time>
      </trkpt>
      <trkpt lat="46.27837" lon="6.41763">
        <ele>557.2</ele>
        <time>2021-04-03T12:46:47Z</time>
      </trkpt>
      <trkpt lat="46.27834" lon="6.41771">
        <ele>557.2</ele>
        <time>2021-04-03T12:46:48Z</time>
      </trkpt>
      <trkpt lat="46.27831" lon="6.41779">
        <ele>557.2</ele>
        <time>2021-04-03T12:46:49Z</time>
      </trkpt>
      <trkpt lat="46.27829" lon="6.41788">
        <ele>557.2</ele>
        <time>2021-04-03T12:46:50Z</time>
      </trkpt>
      <trkpt lat="46.27826" lon="6.41796">
        <ele>557.4</ele>
        <time>2021-04-03T12:46:51Z</time>
      </trkpt>
      <trkpt lat="46.27823" lon="6.41805">
        <ele>557.4</ele>
        <time>2021-04-03T12:46:52Z</time>
      </trkpt>
      <trkpt lat="46.27821" lon="6.41814">
        <ele>557.4</ele>
        <time>2021-04-03T12:46:53Z</time>
      </trkpt>
      <trkpt lat="46.27818" lon="6.41822">
        <ele>557.2</ele>
        <time>2021-04-03T12:46:54Z</time>
      </trkpt>
      <trkpt lat="46.27815" lon="6.4183">
        <ele>557</ele>
        <time>2021-04-03T12:46:55Z</time>
      </trkpt>
      <trkpt lat="46.27813" lon="6.41839">
        <ele>556.8</ele>
        <time>2021-04-03T12:46:56Z</time>
      </trkpt>
      <trkpt lat="46.2781" lon="6.41847">
        <ele>556.8</ele>
        <time>2021-04-03T12:46:57Z</time>
      </trkpt>
      <trkpt lat="46.27807" lon="6.41856">
        <ele>556.6</ele>
        <time>2021-04-03T12:46:58Z</time>
      </trkpt>
      <trkpt lat="46.27805" lon="6.41865">
        <ele>556.4</ele>
        <time>2021-04-03T12:46:59Z</time>
      </trkpt>
      <trkpt lat="46.27802" lon="6.41874">
        <ele>556.2</ele>
        <time>2021-04-03T12:47:00Z</time>
      </trkpt>
      <trkpt lat="46.27799" lon="6.41883">
        <ele>555.8</ele>
        <time>2021-04-03T12:47:01Z</time>
      </trkpt>
      <trkpt lat="46.27797" lon="6.41892">
        <ele>555.6</ele>
        <time>2021-04-03T12:47:02Z</time>
      </trkpt>
      <trkpt lat="46.27794" lon="6.41902">
        <ele>555.2</ele>
        <time>2021-04-03T12:47:03Z</time>
      </trkpt>
      <trkpt lat="46.27791" lon="6.41911">
        <ele>555</ele>
        <time>2021-04-03T12:47:04Z</time>
      </trkpt>
      <trkpt lat="46.27789" lon="6.4192">
        <ele>554.8</ele>
        <time>2021-04-03T12:47:05Z</time>
      </trkpt>
      <trkpt lat="46.27786" lon="6.41928">
        <ele>554.8</ele>
        <time>2021-04-03T12:47:06Z</time>
      </trkpt>
      <trkpt lat="46.27784" lon="6.41936">
        <ele>554.6</ele>
        <time>2021-04-03T12:47:07Z</time>
      </trkpt>
      <trkpt lat="46.27781" lon="6.41945">
        <ele>554.4</ele>
        <time>2021-04-03T12:47:08Z</time>
      </trkpt>
      <trkpt lat="46.27778" lon="6.41953">
        <ele>554.4</ele>
        <time>2021-04-03T12:47:09Z</time>
      </trkpt>
      <trkpt lat="46.27776" lon="6.4196">
        <ele>554.2</ele>
        <time>2021-04-03T12:47:10Z</time>
      </trkpt>
      <trkpt lat="46.27774" lon="6.41968">
        <ele>554</ele>
        <time>2021-04-03T12:47:11Z</time>
      </trkpt>
      <trkpt lat="46.27772" lon="6.41975">
        <ele>553.8</ele>
        <time>2021-04-03T12:47:12Z</time>
      </trkpt>
      <trkpt lat="46.2777" lon="6.41982">
        <ele>553.8</ele>
        <time>2021-04-03T12:47:13Z</time>
      </trkpt>
      <trkpt lat="46.27768" lon="6.4199">
        <ele>553.4</ele>
        <time>2021-04-03T12:47:14Z</time>
      </trkpt>
      <trkpt lat="46.27766" lon="6.41997">
        <ele>553.4</ele>
        <time>2021-04-03T12:47:15Z</time>
      </trkpt>
      <trkpt lat="46.27764" lon="6.42005">
        <ele>553.4</ele>
        <time>2021-04-03T12:47:16Z</time>
      </trkpt>
      <trkpt lat="46.27763" lon="6.42012">
        <ele>553.4</ele>
        <time>2021-04-03T12:47:17Z</time>
      </trkpt>
      <trkpt lat="46.27762" lon="6.42019">
        <ele>553.4</ele>
        <time>2021-04-03T12:47:18Z</time>
      </trkpt>
      <trkpt lat="46.27761" lon="6.42027">
        <ele>553.4</ele>
        <time>2021-04-03T12:47:19Z</time>
      </trkpt>
      <trkpt lat="46.2776" lon="6.42034">
        <ele>553.2</ele>
        <time>2021-04-03T12:47:20Z</time>
      </trkpt>
      <trkpt lat="46.2776" lon="6.42041">
        <ele>553.2</ele>
        <time>2021-04-03T12:47:21Z</time>
      </trkpt>
      <trkpt lat="46.27761" lon="6.42049">
        <ele>553.2</ele>
        <time>2021-04-03T12:47:22Z</time>
      </trkpt>
      <trkpt lat="46.2776" lon="6.42057">
        <ele>553.2</ele>
        <time>2021-04-03T12:47:23Z</time>
      </trkpt>
      <trkpt lat="46.27761" lon="6.42064">
        <ele>553.2</ele>
        <time>2021-04-03T12:47:24Z</time>
      </trkpt>
      <trkpt lat="46.27761" lon="6.42072">
        <ele>553.2</ele>
        <time>2021-04-03T12:47:25Z</time>
      </trkpt>
      <trkpt lat="46.27762" lon="6.42079">
        <ele>553.4</ele>
        <time>2021-04-03T12:47:26Z</time>
      </trkpt>
      <trkpt lat="46.27762" lon="6.42086">
        <ele>553.4</ele>
        <time>2021-04-03T12:47:27Z</time>
      </trkpt>
      <trkpt lat="46.27763" lon="6.42093">
        <ele>553.4</ele>
        <time>2021-04-03T12:47:28Z</time>
      </trkpt>
      <trkpt lat="46.27763" lon="6.421">
        <ele>553.4</ele>
        <time>2021-04-03T12:47:29Z</time>
      </trkpt>
      <trkpt lat="46.27764" lon="6.42107">
        <ele>553.4</ele>
        <time>2021-04-03T12:47:30Z</time>
      </trkpt>
      <trkpt lat="46.27765" lon="6.42114">
        <ele>553.4</ele>
        <time>2021-04-03T12:47:31Z</time>
      </trkpt>
      <trkpt lat="46.27765" lon="6.42121">
        <ele>553.6</ele>
        <time>2021-04-03T12:47:32Z</time>
      </trkpt>
      <trkpt lat="46.27766" lon="6.42128">
        <ele>553.8</ele>
        <time>2021-04-03T12:47:33Z</time>
      </trkpt>
      <trkpt lat="46.27767" lon="6.42135">
        <ele>554</ele>
        <time>2021-04-03T12:47:34Z</time>
      </trkpt>
      <trkpt lat="46.27767" lon="6.42141">
        <ele>554</ele>
        <time>2021-04-03T12:47:35Z</time>
      </trkpt>
      <trkpt lat="46.27768" lon="6.42148">
        <ele>554.2</ele>
        <time>2021-04-03T12:47:36Z</time>
      </trkpt>
      <trkpt lat="46.27768" lon="6.42154">
        <ele>554.2</ele>
        <time>2021-04-03T12:47:37Z</time>
      </trkpt>
      <trkpt lat="46.27769" lon="6.42161">
        <ele>554.4</ele>
        <time>2021-04-03T12:47:38Z</time>
      </trkpt>
      <trkpt lat="46.27771" lon="6.42167">
        <ele>554.6</ele>
        <time>2021-04-03T12:47:39Z</time>
      </trkpt>
      <trkpt lat="46.27772" lon="6.42174">
        <ele>554.8</ele>
        <time>2021-04-03T12:47:40Z</time>
      </trkpt>
      <trkpt lat="46.27773" lon="6.42181">
        <ele>554.8</ele>
        <time>2021-04-03T12:47:41Z</time>
      </trkpt>
      <trkpt lat="46.27775" lon="6.42188">
        <ele>555</ele>
        <time>2021-04-03T12:47:42Z</time>
      </trkpt>
      <trkpt lat="46.27777" lon="6.42195">
        <ele>555</ele>
        <time>2021-04-03T12:47:43Z</time>
      </trkpt>
      <trkpt lat="46.27779" lon="6.42202">
        <ele>555.2</ele>
        <time>2021-04-03T12:47:44Z</time>
      </trkpt>
      <trkpt lat="46.27782" lon="6.42208">
        <ele>555.2</ele>
        <time>2021-04-03T12:47:45Z</time>
      </trkpt>
      <trkpt lat="46.27785" lon="6.42215">
        <ele>555.4</ele>
        <time>2021-04-03T12:47:46Z</time>
      </trkpt>
      <trkpt lat="46.27788" lon="6.42221">
        <ele>555.4</ele>
        <time>2021-04-03T12:47:47Z</time>
      </trkpt>
      <trkpt lat="46.27791" lon="6.42228">
        <ele>555.4</ele>
        <time>2021-04-03T12:47:48Z</time>
      </trkpt>
      <trkpt lat="46.27794" lon="6.42234">
        <ele>555.6</ele>
        <time>2021-04-03T12:47:49Z</time>
      </trkpt>
      <trkpt lat="46.27797" lon="6.42241">
        <ele>555.8</ele>
        <time>2021-04-03T12:47:50Z</time>
      </trkpt>
      <trkpt lat="46.27799" lon="6.42247">
        <ele>555.8</ele>
        <time>2021-04-03T12:47:51Z</time>
      </trkpt>
      <trkpt lat="46.27802" lon="6.42253">
        <ele>556</ele>
        <time>2021-04-03T12:47:52Z</time>
      </trkpt>
      <trkpt lat="46.27805" lon="6.42258">
        <ele>556</ele>
        <time>2021-04-03T12:47:53Z</time>
      </trkpt>
      <trkpt lat="46.27808" lon="6.42264">
        <ele>556.2</ele>
        <time>2021-04-03T12:47:54Z</time>
      </trkpt>
      <trkpt lat="46.27811" lon="6.42269">
        <ele>556.2</ele>
        <time>2021-04-03T12:47:55Z</time>
      </trkpt>
      <trkpt lat="46.27813" lon="6.42274">
        <ele>556.6</ele>
        <time>2021-04-03T12:47:56Z</time>
      </trkpt>
      <trkpt lat="46.27815" lon="6.42279">
        <ele>556.6</ele>
        <time>2021-04-03T12:47:57Z</time>
      </trkpt>
      <trkpt lat="46.27817" lon="6.42284">
        <ele>556.8</ele>
        <time>2021-04-03T12:47:58Z</time>
      </trkpt>
      <trkpt lat="46.2782" lon="6.42289">
        <ele>557</ele>
        <time>2021-04-03T12:47:59Z</time>
      </trkpt>
      <trkpt lat="46.27822" lon="6.42293">
        <ele>557</ele>
        <time>2021-04-03T12:48:00Z</time>
      </trkpt>
      <trkpt lat="46.27824" lon="6.42298">
        <ele>557.4</ele>
        <time>2021-04-03T12:48:01Z</time>
      </trkpt>
      <trkpt lat="46.27826" lon="6.42303">
        <ele>557.4</ele>
        <time>2021-04-03T12:48:02Z</time>
      </trkpt>
      <trkpt lat="46.27828" lon="6.42308">
        <ele>557.6</ele>
        <time>2021-04-03T12:48:03Z</time>
      </trkpt>
      <trkpt lat="46.27831" lon="6.42312">
        <ele>557.6</ele>
        <time>2021-04-03T12:48:04Z</time>
      </trkpt>
      <trkpt lat="46.27833" lon="6.42317">
        <ele>557.8</ele>
        <time>2021-04-03T12:48:05Z</time>
      </trkpt>
      <trkpt lat="46.27835" lon="6.42322">
        <ele>557.8</ele>
        <time>2021-04-03T12:48:06Z</time>
      </trkpt>
      <trkpt lat="46.27838" lon="6.42326">
        <ele>558</ele>
        <time>2021-04-03T12:48:07Z</time>
      </trkpt>
      <trkpt lat="46.2784" lon="6.42331">
        <ele>558.2</ele>
        <time>2021-04-03T12:48:08Z</time>
      </trkpt>
      <trkpt lat="46.27842" lon="6.42335">
        <ele>558.6</ele>
        <time>2021-04-03T12:48:09Z</time>
      </trkpt>
      <trkpt lat="46.27844" lon="6.4234">
        <ele>559</ele>
        <time>2021-04-03T12:48:10Z</time>
      </trkpt>
      <trkpt lat="46.27847" lon="6.42344">
        <ele>559.4</ele>
        <time>2021-04-03T12:48:11Z</time>
      </trkpt>
      <trkpt lat="46.27849" lon="6.42349">
        <ele>559.6</ele>
        <time>2021-04-03T12:48:12Z</time>
      </trkpt>
      <trkpt lat="46.27851" lon="6.42353">
        <ele>559.6</ele>
        <time>2021-04-03T12:48:13Z</time>
      </trkpt>
      <trkpt lat="46.27853" lon="6.42357">
        <ele>560</ele>
        <time>2021-04-03T12:48:14Z</time>
      </trkpt>
      <trkpt lat="46.27855" lon="6.42362">
        <ele>560</ele>
        <time>2021-04-03T12:48:15Z</time>
      </trkpt>
      <trkpt lat="46.27857" lon="6.42366">
        <ele>560.2</ele>
        <time>2021-04-03T12:48:16Z</time>
      </trkpt>
      <trkpt lat="46.27859" lon="6.4237">
        <ele>560.2</ele>
        <time>2021-04-03T12:48:17Z</time>
      </trkpt>
      <trkpt lat="46.2786" lon="6.42374">
        <ele>560.4</ele>
        <time>2021-04-03T12:48:18Z</time>
      </trkpt>
      <trkpt lat="46.27862" lon="6.42379">
        <ele>560.8</ele>
        <time>2021-04-03T12:48:19Z</time>
      </trkpt>
      <trkpt lat="46.27864" lon="6.42383">
        <ele>561.2</ele>
        <time>2021-04-03T12:48:20Z</time>
      </trkpt>
      <trkpt lat="46.27866" lon="6.42388">
        <ele>561.6</ele>
        <time>2021-04-03T12:48:21Z</time>
      </trkpt>
      <trkpt lat="46.27868" lon="6.42392">
        <ele>561.8</ele>
        <time>2021-04-03T12:48:22Z</time>
      </trkpt>
      <trkpt lat="46.2787" lon="6.42397">
        <ele>562</ele>
        <time>2021-04-03T12:48:23Z</time>
      </trkpt>
      <trkpt lat="46.27871" lon="6.42402">
        <ele>562</ele>
        <time>2021-04-03T12:48:24Z</time>
      </trkpt>
      <trkpt lat="46.27873" lon="6.42406">
        <ele>562.4</ele>
        <time>2021-04-03T12:48:25Z</time>
      </trkpt>
      <trkpt lat="46.27874" lon="6.42411">
        <ele>562.8</ele>
        <time>2021-04-03T12:48:26Z</time>
      </trkpt>
      <trkpt lat="46.27875" lon="6.42416">
        <ele>563.2</ele>
        <time>2021-04-03T12:48:27Z</time>
      </trkpt>
      <trkpt lat="46.27877" lon="6.42421">
        <ele>563.6</ele>
        <time>2021-04-03T12:48:28Z</time>
      </trkpt>
      <trkpt lat="46.27878" lon="6.42426">
        <ele>563.8</ele>
        <time>2021-04-03T12:48:29Z</time>
      </trkpt>
      <trkpt lat="46.27879" lon="6.42431">
        <ele>564</ele>
        <time>2021-04-03T12:48:30Z</time>
      </trkpt>
      <trkpt lat="46.2788" lon="6.42436">
        <ele>564.2</ele>
        <time>2021-04-03T12:48:31Z</time>
      </trkpt>
      <trkpt lat="46.27881" lon="6.42441">
        <ele>564.4</ele>
        <time>2021-04-03T12:48:32Z</time>
      </trkpt>
      <trkpt lat="46.27882" lon="6.42446">
        <ele>564.6</ele>
        <time>2021-04-03T12:48:33Z</time>
      </trkpt>
      <trkpt lat="46.27883" lon="6.42451">
        <ele>564.8</ele>
        <time>2021-04-03T12:48:34Z</time>
      </trkpt>
      <trkpt lat="46.27883" lon="6.42456">
        <ele>565</ele>
        <time>2021-04-03T12:48:35Z</time>
      </trkpt>
      <trkpt lat="46.27884" lon="6.42461">
        <ele>565.2</ele>
        <time>2021-04-03T12:48:36Z</time>
      </trkpt>
      <trkpt lat="46.27885" lon="6.42466">
        <ele>565.4</ele>
        <time>2021-04-03T12:48:37Z</time>
      </trkpt>
      <trkpt lat="46.27885" lon="6.42471">
        <ele>565.6</ele>
        <time>2021-04-03T12:48:38Z</time>
      </trkpt>
      <trkpt lat="46.27886" lon="6.42476">
        <ele>566</ele>
        <time>2021-04-03T12:48:39Z</time>
      </trkpt>
      <trkpt lat="46.27887" lon="6.42481">
        <ele>566.2</ele>
        <time>2021-04-03T12:48:40Z</time>
      </trkpt>
      <trkpt lat="46.27887" lon="6.42486">
        <ele>566.4</ele>
        <time>2021-04-03T12:48:41Z</time>
      </trkpt>
      <trkpt lat="46.27888" lon="6.42491">
        <ele>566.4</ele>
        <time>2021-04-03T12:48:42Z</time>
      </trkpt>
      <trkpt lat="46.27889" lon="6.42497">
        <ele>566.8</ele>
        <time>2021-04-03T12:48:43Z</time>
      </trkpt>
      <trkpt lat="46.27889" lon="6.42502">
        <ele>566.8</ele>
        <time>2021-04-03T12:48:44Z</time>
      </trkpt>
      <trkpt lat="46.2789" lon="6.42507">
        <ele>567</ele>
        <time>2021-04-03T12:48:45Z</time>
      </trkpt>
      <trkpt lat="46.27891" lon="6.42512">
        <ele>567.4</ele>
        <time>2021-04-03T12:48:46Z</time>
      </trkpt>
      <trkpt lat="46.27891" lon="6.42517">
        <ele>567.6</ele>
        <time>2021-04-03T12:48:47Z</time>
      </trkpt>
      <trkpt lat="46.27892" lon="6.42522">
        <ele>567.6</ele>
        <time>2021-04-03T12:48:48Z</time>
      </trkpt>
      <trkpt lat="46.27892" lon="6.42527">
        <ele>568</ele>
        <time>2021-04-03T12:48:49Z</time>
      </trkpt>
      <trkpt lat="46.27893" lon="6.42532">
        <ele>568.2</ele>
        <time>2021-04-03T12:48:50Z</time>
      </trkpt>
      <trkpt lat="46.27894" lon="6.42537">
        <ele>568.2</ele>
        <time>2021-04-03T12:48:51Z</time>
      </trkpt>
      <trkpt lat="46.27895" lon="6.42542">
        <ele>568.4</ele>
        <time>2021-04-03T12:48:52Z</time>
      </trkpt>
      <trkpt lat="46.27896" lon="6.42547">
        <ele>568.6</ele>
        <time>2021-04-03T12:48:53Z</time>
      </trkpt>
      <trkpt lat="46.27897" lon="6.42552">
        <ele>568.6</ele>
        <time>2021-04-03T12:48:54Z</time>
      </trkpt>
      <trkpt lat="46.27898" lon="6.42556">
        <ele>569</ele>
        <time>2021-04-03T12:48:55Z</time>
      </trkpt>
      <trkpt lat="46.27898" lon="6.42561">
        <ele>569</ele>
        <time>2021-04-03T12:48:56Z</time>
      </trkpt>
      <trkpt lat="46.279" lon="6.42566">
        <ele>569</ele>
        <time>2021-04-03T12:48:57Z</time>
      </trkpt>
      <trkpt lat="46.27901" lon="6.4257">
        <ele>569.6</ele>
        <time>2021-04-03T12:48:58Z</time>
      </trkpt>
      <trkpt lat="46.27902" lon="6.42574">
        <ele>570</ele>
        <time>2021-04-03T12:48:59Z</time>
      </trkpt>
      <trkpt lat="46.27903" lon="6.42579">
        <ele>570.4</ele>
        <time>2021-04-03T12:49:00Z</time>
      </trkpt>
      <trkpt lat="46.27905" lon="6.42583">
        <ele>570.4</ele>
        <time>2021-04-03T12:49:01Z</time>
      </trkpt>
      <trkpt lat="46.27906" lon="6.42587">
        <ele>570.4</ele>
        <time>2021-04-03T12:49:02Z</time>
      </trkpt>
      <trkpt lat="46.27908" lon="6.42591">
        <ele>570.8</ele>
        <time>2021-04-03T12:49:03Z</time>
      </trkpt>
      <trkpt lat="46.27909" lon="6.42595">
        <ele>570.8</ele>
        <time>2021-04-03T12:49:04Z</time>
      </trkpt>
      <trkpt lat="46.27911" lon="6.426">
        <ele>571</ele>
        <time>2021-04-03T12:49:05Z</time>
      </trkpt>
      <trkpt lat="46.27912" lon="6.42604">
        <ele>571.4</ele>
        <time>2021-04-03T12:49:06Z</time>
      </trkpt>
      <trkpt lat="46.27913" lon="6.42608">
        <ele>571.6</ele>
        <time>2021-04-03T12:49:07Z</time>
      </trkpt>
      <trkpt lat="46.27914" lon="6.42612">
        <ele>572</ele>
        <time>2021-04-03T12:49:08Z</time>
      </trkpt>
      <trkpt lat="46.27916" lon="6.42616">
        <ele>572</ele>
        <time>2021-04-03T12:49:09Z</time>
      </trkpt>
      <trkpt lat="46.27917" lon="6.42621">
        <ele>572.4</ele>
        <time>2021-04-03T12:49:10Z</time>
      </trkpt>
      <trkpt lat="46.27918" lon="6.42625">
        <ele>572.8</ele>
        <time>2021-04-03T12:49:11Z</time>
      </trkpt>
      <trkpt lat="46.2792" lon="6.42629">
        <ele>573</ele>
        <time>2021-04-03T12:49:12Z</time>
      </trkpt>
      <trkpt lat="46.27921" lon="6.42633">
        <ele>573</ele>
        <time>2021-04-03T12:49:13Z</time>
      </trkpt>
      <trkpt lat="46.27923" lon="6.42637">
        <ele>573.2</ele>
        <time>2021-04-03T12:49:14Z</time>
      </trkpt>
      <trkpt lat="46.27925" lon="6.42641">
        <ele>573.4</ele>
        <time>2021-04-03T12:49:15Z</time>
      </trkpt>
      <trkpt lat="46.27927" lon="6.42645">
        <ele>573.6</ele>
        <time>2021-04-03T12:49:16Z</time>
      </trkpt>
      <trkpt lat="46.27929" lon="6.42649">
        <ele>573.8</ele>
        <time>2021-04-03T12:49:17Z</time>
      </trkpt>
      <trkpt lat="46.2793" lon="6.42653">
        <ele>574</ele>
        <time>2021-04-03T12:49:18Z</time>
      </trkpt>
      <trkpt lat="46.27932" lon="6.42658">
        <ele>574</ele>
        <time>2021-04-03T12:49:19Z</time>
      </trkpt>
      <trkpt lat="46.27933" lon="6.42662">
        <ele>574.2</ele>
        <time>2021-04-03T12:49:20Z</time>
      </trkpt>
      <trkpt lat="46.27934" lon="6.42667">
        <ele>574.4</ele>
        <time>2021-04-03T12:49:21Z</time>
      </trkpt>
      <trkpt lat="46.27936" lon="6.42671">
        <ele>574.4</ele>
        <time>2021-04-03T12:49:22Z</time>
      </trkpt>
      <trkpt lat="46.27937" lon="6.42676">
        <ele>574.4</ele>
        <time>2021-04-03T12:49:23Z</time>
      </trkpt>
      <trkpt lat="46.27939" lon="6.4268">
        <ele>574.6</ele>
        <time>2021-04-03T12:49:24Z</time>
      </trkpt>
      <trkpt lat="46.27941" lon="6.42684">
        <ele>574.8</ele>
        <time>2021-04-03T12:49:25Z</time>
      </trkpt>
      <trkpt lat="46.27942" lon="6.42688">
        <ele>575</ele>
        <time>2021-04-03T12:49:26Z</time>
      </trkpt>
      <trkpt lat="46.27944" lon="6.42692">
        <ele>575.2</ele>
        <time>2021-04-03T12:49:27Z</time>
      </trkpt>
      <trkpt lat="46.27945" lon="6.42696">
        <ele>575.4</ele>
        <time>2021-04-03T12:49:28Z</time>
      </trkpt>
      <trkpt lat="46.27947" lon="6.427">
        <ele>575.6</ele>
        <time>2021-04-03T12:49:29Z</time>
      </trkpt>
      <trkpt lat="46.27948" lon="6.42704">
        <ele>576.2</ele>
        <time>2021-04-03T12:49:30Z</time>
      </trkpt>
      <trkpt lat="46.2795" lon="6.42708">
        <ele>576.2</ele>
        <time>2021-04-03T12:49:31Z</time>
      </trkpt>
      <trkpt lat="46.27951" lon="6.42712">
        <ele>576.6</ele>
        <time>2021-04-03T12:49:32Z</time>
      </trkpt>
      <trkpt lat="46.27952" lon="6.42716">
        <ele>576.6</ele>
        <time>2021-04-03T12:49:33Z</time>
      </trkpt>
      <trkpt lat="46.27954" lon="6.4272">
        <ele>576.8</ele>
        <time>2021-04-03T12:49:34Z</time>
      </trkpt>
      <trkpt lat="46.27955" lon="6.42724">
        <ele>576.8</ele>
        <time>2021-04-03T12:49:35Z</time>
      </trkpt>
      <trkpt lat="46.27957" lon="6.42728">
        <ele>577</ele>
        <time>2021-04-03T12:49:36Z</time>
      </trkpt>
      <trkpt lat="46.27958" lon="6.42732">
        <ele>577</ele>
        <time>2021-04-03T12:49:37Z</time>
      </trkpt>
      <trkpt lat="46.2796" lon="6.42736">
        <ele>577.4</ele>
        <time>2021-04-03T12:49:38Z</time>
      </trkpt>
      <trkpt lat="46.27962" lon="6.42739">
        <ele>577.6</ele>
        <time>2021-04-03T12:49:39Z</time>
      </trkpt>
      <trkpt lat="46.27963" lon="6.42743">
        <ele>578</ele>
        <time>2021-04-03T12:49:40Z</time>
      </trkpt>
      <trkpt lat="46.27965" lon="6.42747">
        <ele>578.2</ele>
        <time>2021-04-03T12:49:41Z</time>
      </trkpt>
      <trkpt lat="46.27967" lon="6.42751">
        <ele>578.6</ele>
        <time>2021-04-03T12:49:42Z</time>
      </trkpt>
      <trkpt lat="46.27969" lon="6.42755">
        <ele>579</ele>
        <time>2021-04-03T12:49:43Z</time>
      </trkpt>
      <trkpt lat="46.2797" lon="6.42759">
        <ele>579.4</ele>
        <time>2021-04-03T12:49:44Z</time>
      </trkpt>
      <trkpt lat="46.27972" lon="6.42763">
        <ele>579.6</ele>
        <time>2021-04-03T12:49:45Z</time>
      </trkpt>
      <trkpt lat="46.27974" lon="6.42767">
        <ele>579.8</ele>
        <time>2021-04-03T12:49:46Z</time>
      </trkpt>
      <trkpt lat="46.27976" lon="6.4277">
        <ele>580.2</ele>
        <time>2021-04-03T12:49:47Z</time>
      </trkpt>
      <trkpt lat="46.27978" lon="6.42773">
        <ele>580.4</ele>
        <time>2021-04-03T12:49:48Z</time>
      </trkpt>
      <trkpt lat="46.2798" lon="6.42776">
        <ele>580.8</ele>
        <time>2021-04-03T12:49:49Z</time>
      </trkpt>
      <trkpt lat="46.27983" lon="6.42779">
        <ele>581</ele>
        <time>2021-04-03T12:49:50Z</time>
      </trkpt>
      <trkpt lat="46.27985" lon="6.42782">
        <ele>581.2</ele>
        <time>2021-04-03T12:49:51Z</time>
      </trkpt>
      <trkpt lat="46.27988" lon="6.42785">
        <ele>581.4</ele>
        <time>2021-04-03T12:49:52Z</time>
      </trkpt>
      <trkpt lat="46.27991" lon="6.42788">
        <ele>581.8</ele>
        <time>2021-04-03T12:49:53Z</time>
      </trkpt>
      <trkpt lat="46.27993" lon="6.42791">
        <ele>582.4</ele>
        <time>2021-04-03T12:49:54Z</time>
      </trkpt>
      <trkpt lat="46.27996" lon="6.42793">
        <ele>582.4</ele>
        <time>2021-04-03T12:49:55Z</time>
      </trkpt>
      <trkpt lat="46.27998" lon="6.42795">
        <ele>582.8</ele>
        <time>2021-04-03T12:49:56Z</time>
      </trkpt>
      <trkpt lat="46.28001" lon="6.42797">
        <ele>583</ele>
        <time>2021-04-03T12:49:57Z</time>
      </trkpt>
      <trkpt lat="46.28004" lon="6.42798">
        <ele>583</ele>
        <time>2021-04-03T12:49:58Z</time>
      </trkpt>
      <trkpt lat="46.28007" lon="6.428">
        <ele>583.4</ele>
        <time>2021-04-03T12:49:59Z</time>
      </trkpt>
      <trkpt lat="46.2801" lon="6.42802">
        <ele>583.6</ele>
        <time>2021-04-03T12:50:00Z</time>
      </trkpt>
      <trkpt lat="46.28013" lon="6.42804">
        <ele>583.8</ele>
        <time>2021-04-03T12:50:01Z</time>
      </trkpt>
      <trkpt lat="46.28016" lon="6.42806">
        <ele>584</ele>
        <time>2021-04-03T12:50:02Z</time>
      </trkpt>
      <trkpt lat="46.28018" lon="6.42808">
        <ele>584.2</ele>
        <time>2021-04-03T12:50:03Z</time>
      </trkpt>
      <trkpt lat="46.2802" lon="6.4281">
        <ele>584.6</ele>
        <time>2021-04-03T12:50:04Z</time>
      </trkpt>
      <trkpt lat="46.28023" lon="6.42811">
        <ele>584.8</ele>
        <time>2021-04-03T12:50:05Z</time>
      </trkpt>
      <trkpt lat="46.28026" lon="6.42813">
        <ele>585.4</ele>
        <time>2021-04-03T12:50:06Z</time>
      </trkpt>
      <trkpt lat="46.28028" lon="6.42816">
        <ele>585.6</ele>
        <time>2021-04-03T12:50:07Z</time>
      </trkpt>
      <trkpt lat="46.28031" lon="6.42818">
        <ele>585.6</ele>
        <time>2021-04-03T12:50:08Z</time>
      </trkpt>
      <trkpt lat="46.28034" lon="6.42821">
        <ele>585.8</ele>
        <time>2021-04-03T12:50:09Z</time>
      </trkpt>
      <trkpt lat="46.28038" lon="6.42824">
        <ele>585.8</ele>
        <time>2021-04-03T12:50:10Z</time>
      </trkpt>
      <trkpt lat="46.28041" lon="6.42827">
        <ele>585.8</ele>
        <time>2021-04-03T12:50:11Z</time>
      </trkpt>
      <trkpt lat="46.28045" lon="6.42831">
        <ele>585.8</ele>
        <time>2021-04-03T12:50:12Z</time>
      </trkpt>
      <trkpt lat="46.28048" lon="6.42834">
        <ele>586</ele>
        <time>2021-04-03T12:50:13Z</time>
      </trkpt>
      <trkpt lat="46.28052" lon="6.42838">
        <ele>586</ele>
        <time>2021-04-03T12:50:14Z</time>
      </trkpt>
      <trkpt lat="46.28055" lon="6.42841">
        <ele>586</ele>
        <time>2021-04-03T12:50:15Z</time>
      </trkpt>
      <trkpt lat="46.28059" lon="6.42845">
        <ele>586</ele>
        <time>2021-04-03T12:50:16Z</time>
      </trkpt>
      <trkpt lat="46.28063" lon="6.42848">
        <ele>586</ele>
        <time>2021-04-03T12:50:17Z</time>
      </trkpt>
      <trkpt lat="46.28067" lon="6.42852">
        <ele>586</ele>
        <time>2021-04-03T12:50:18Z</time>
      </trkpt>
      <trkpt lat="46.2807" lon="6.42857">
        <ele>586</ele>
        <time>2021-04-03T12:50:19Z</time>
      </trkpt>
      <trkpt lat="46.28073" lon="6.42862">
        <ele>586.2</ele>
        <time>2021-04-03T12:50:20Z</time>
      </trkpt>
      <trkpt lat="46.28076" lon="6.42867">
        <ele>586.2</ele>
        <time>2021-04-03T12:50:21Z</time>
      </trkpt>
      <trkpt lat="46.2808" lon="6.42872">
        <ele>586</ele>
        <time>2021-04-03T12:50:22Z</time>
      </trkpt>
      <trkpt lat="46.28083" lon="6.42877">
        <ele>586</ele>
        <time>2021-04-03T12:50:23Z</time>
      </trkpt>
      <trkpt lat="46.28086" lon="6.42882">
        <ele>586</ele>
        <time>2021-04-03T12:50:24Z</time>
      </trkpt>
      <trkpt lat="46.2809" lon="6.42887">
        <ele>586</ele>
        <time>2021-04-03T12:50:25Z</time>
      </trkpt>
      <trkpt lat="46.28092" lon="6.42892">
        <ele>586.2</ele>
        <time>2021-04-03T12:50:26Z</time>
      </trkpt>
      <trkpt lat="46.28095" lon="6.42898">
        <ele>586</ele>
        <time>2021-04-03T12:50:27Z</time>
      </trkpt>
      <trkpt lat="46.28098" lon="6.42903">
        <ele>586</ele>
        <time>2021-04-03T12:50:28Z</time>
      </trkpt>
      <trkpt lat="46.281" lon="6.42909">
        <ele>586</ele>
        <time>2021-04-03T12:50:29Z</time>
      </trkpt>
      <trkpt lat="46.28103" lon="6.42914">
        <ele>586</ele>
        <time>2021-04-03T12:50:30Z</time>
      </trkpt>
      <trkpt lat="46.28106" lon="6.4292">
        <ele>586</ele>
        <time>2021-04-03T12:50:31Z</time>
      </trkpt>
      <trkpt lat="46.28108" lon="6.42926">
        <ele>586.2</ele>
        <time>2021-04-03T12:50:32Z</time>
      </trkpt>
      <trkpt lat="46.28111" lon="6.42932">
        <ele>586</ele>
        <time>2021-04-03T12:50:33Z</time>
      </trkpt>
      <trkpt lat="46.28113" lon="6.42938">
        <ele>586</ele>
        <time>2021-04-03T12:50:34Z</time>
      </trkpt>
      <trkpt lat="46.28115" lon="6.42944">
        <ele>586</ele>
        <time>2021-04-03T12:50:35Z</time>
      </trkpt>
      <trkpt lat="46.28117" lon="6.4295">
        <ele>586.2</ele>
        <time>2021-04-03T12:50:36Z</time>
      </trkpt>
      <trkpt lat="46.28119" lon="6.42955">
        <ele>586.2</ele>
        <time>2021-04-03T12:50:37Z</time>
      </trkpt>
      <trkpt lat="46.28121" lon="6.42961">
        <ele>586.2</ele>
        <time>2021-04-03T12:50:38Z</time>
      </trkpt>
      <trkpt lat="46.28123" lon="6.42967">
        <ele>586</ele>
        <time>2021-04-03T12:50:39Z</time>
      </trkpt>
      <trkpt lat="46.28124" lon="6.42973">
        <ele>586</ele>
        <time>2021-04-03T12:50:40Z</time>
      </trkpt>
      <trkpt lat="46.28126" lon="6.42979">
        <ele>586.2</ele>
        <time>2021-04-03T12:50:41Z</time>
      </trkpt>
      <trkpt lat="46.28129" lon="6.42985">
        <ele>586.4</ele>
        <time>2021-04-03T12:50:42Z</time>
      </trkpt>
      <trkpt lat="46.28132" lon="6.4299">
        <ele>586.4</ele>
        <time>2021-04-03T12:50:43Z</time>
      </trkpt>
      <trkpt lat="46.28134" lon="6.42996">
        <ele>586.6</ele>
        <time>2021-04-03T12:50:44Z</time>
      </trkpt>
      <trkpt lat="46.28137" lon="6.43002">
        <ele>586.6</ele>
        <time>2021-04-03T12:50:45Z</time>
      </trkpt>
      <trkpt lat="46.2814" lon="6.43008">
        <ele>587</ele>
        <time>2021-04-03T12:50:46Z</time>
      </trkpt>
      <trkpt lat="46.28142" lon="6.43014">
        <ele>586.8</ele>
        <time>2021-04-03T12:50:47Z</time>
      </trkpt>
      <trkpt lat="46.28145" lon="6.4302">
        <ele>587</ele>
        <time>2021-04-03T12:50:48Z</time>
      </trkpt>
      <trkpt lat="46.28147" lon="6.43026">
        <ele>587</ele>
        <time>2021-04-03T12:50:49Z</time>
      </trkpt>
      <trkpt lat="46.2815" lon="6.43033">
        <ele>587</ele>
        <time>2021-04-03T12:50:50Z</time>
      </trkpt>
      <trkpt lat="46.28153" lon="6.43039">
        <ele>587</ele>
        <time>2021-04-03T12:50:51Z</time>
      </trkpt>
      <trkpt lat="46.28156" lon="6.43046">
        <ele>587.2</ele>
        <time>2021-04-03T12:50:52Z</time>
      </trkpt>
      <trkpt lat="46.2816" lon="6.43053">
        <ele>587</ele>
        <time>2021-04-03T12:50:53Z</time>
      </trkpt>
      <trkpt lat="46.28164" lon="6.43059">
        <ele>587.2</ele>
        <time>2021-04-03T12:50:54Z</time>
      </trkpt>
      <trkpt lat="46.28168" lon="6.43066">
        <ele>587</ele>
        <time>2021-04-03T12:50:55Z</time>
      </trkpt>
      <trkpt lat="46.28172" lon="6.43072">
        <ele>587</ele>
        <time>2021-04-03T12:50:56Z</time>
      </trkpt>
      <trkpt lat="46.28177" lon="6.43079">
        <ele>587</ele>
        <time>2021-04-03T12:50:57Z</time>
      </trkpt>
      <trkpt lat="46.28181" lon="6.43086">
        <ele>587</ele>
        <time>2021-04-03T12:50:58Z</time>
      </trkpt>
      <trkpt lat="46.28186" lon="6.43093">
        <ele>586.8</ele>
        <time>2021-04-03T12:50:59Z</time>
      </trkpt>
      <trkpt lat="46.2819" lon="6.431">
        <ele>586.8</ele>
        <time>2021-04-03T12:51:00Z</time>
      </trkpt>
      <trkpt lat="46.28195" lon="6.43107">
        <ele>586.4</ele>
        <time>2021-04-03T12:51:01Z</time>
      </trkpt>
      <trkpt lat="46.28199" lon="6.43115">
        <ele>586</ele>
        <time>2021-04-03T12:51:02Z</time>
      </trkpt>
      <trkpt lat="46.28204" lon="6.43123">
        <ele>586</ele>
        <time>2021-04-03T12:51:03Z</time>
      </trkpt>
      <trkpt lat="46.28208" lon="6.43131">
        <ele>585.6</ele>
        <time>2021-04-03T12:51:04Z</time>
      </trkpt>
      <trkpt lat="46.28212" lon="6.43139">
        <ele>585.6</ele>
        <time>2021-04-03T12:51:05Z</time>
      </trkpt>
      <trkpt lat="46.28217" lon="6.43148">
        <ele>585.6</ele>
        <time>2021-04-03T12:51:06Z</time>
      </trkpt>
      <trkpt lat="46.28221" lon="6.43156">
        <ele>585.4</ele>
        <time>2021-04-03T12:51:07Z</time>
      </trkpt>
      <trkpt lat="46.28225" lon="6.43164">
        <ele>584.8</ele>
        <time>2021-04-03T12:51:08Z</time>
      </trkpt>
      <trkpt lat="46.28229" lon="6.43172">
        <ele>584.2</ele>
        <time>2021-04-03T12:51:09Z</time>
      </trkpt>
      <trkpt lat="46.28233" lon="6.43181">
        <ele>583.4</ele>
        <time>2021-04-03T12:51:10Z</time>
      </trkpt>
      <trkpt lat="46.28237" lon="6.4319">
        <ele>582.6</ele>
        <time>2021-04-03T12:51:11Z</time>
      </trkpt>
      <trkpt lat="46.28241" lon="6.43198">
        <ele>582.2</ele>
        <time>2021-04-03T12:51:12Z</time>
      </trkpt>
      <trkpt lat="46.28245" lon="6.43207">
        <ele>582.2</ele>
        <time>2021-04-03T12:51:13Z</time>
      </trkpt>
      <trkpt lat="46.28248" lon="6.43216">
        <ele>582</ele>
        <time>2021-04-03T12:51:14Z</time>
      </trkpt>
      <trkpt lat="46.28252" lon="6.43224">
        <ele>581.6</ele>
        <time>2021-04-03T12:51:15Z</time>
      </trkpt>
      <trkpt lat="46.28255" lon="6.43233">
        <ele>581.6</ele>
        <time>2021-04-03T12:51:16Z</time>
      </trkpt>
      <trkpt lat="46.28259" lon="6.43242">
        <ele>581.2</ele>
        <time>2021-04-03T12:51:17Z</time>
      </trkpt>
      <trkpt lat="46.28262" lon="6.43251">
        <ele>581.2</ele>
        <time>2021-04-03T12:51:18Z</time>
      </trkpt>
      <trkpt lat="46.28264" lon="6.43259">
        <ele>581</ele>
        <time>2021-04-03T12:51:19Z</time>
      </trkpt>
      <trkpt lat="46.28267" lon="6.43268">
        <ele>581</ele>
        <time>2021-04-03T12:51:20Z</time>
      </trkpt>
      <trkpt lat="46.28269" lon="6.43277">
        <ele>581</ele>
        <time>2021-04-03T12:51:21Z</time>
      </trkpt>
      <trkpt lat="46.28271" lon="6.43285">
        <ele>581</ele>
        <time>2021-04-03T12:51:22Z</time>
      </trkpt>
      <trkpt lat="46.28272" lon="6.43293">
        <ele>581</ele>
        <time>2021-04-03T12:51:23Z</time>
      </trkpt>
      <trkpt lat="46.28273" lon="6.43302">
        <ele>581</ele>
        <time>2021-04-03T12:51:24Z</time>
      </trkpt>
      <trkpt lat="46.28275" lon="6.4331">
        <ele>581</ele>
        <time>2021-04-03T12:51:25Z</time>
      </trkpt>
      <trkpt lat="46.28275" lon="6.43318">
        <ele>581</ele>
        <time>2021-04-03T12:51:26Z</time>
      </trkpt>
      <trkpt lat="46.28276" lon="6.43326">
        <ele>581</ele>
        <time>2021-04-03T12:51:27Z</time>
      </trkpt>
      <trkpt lat="46.28276" lon="6.43333">
        <ele>581</ele>
        <time>2021-04-03T12:51:28Z</time>
      </trkpt>
      <trkpt lat="46.28277" lon="6.43341">
        <ele>581</ele>
        <time>2021-04-03T12:51:29Z</time>
      </trkpt>
      <trkpt lat="46.28277" lon="6.43349">
        <ele>581</ele>
        <time>2021-04-03T12:51:30Z</time>
      </trkpt>
      <trkpt lat="46.28278" lon="6.43356">
        <ele>581.2</ele>
        <time>2021-04-03T12:51:31Z</time>
      </trkpt>
      <trkpt lat="46.28279" lon="6.43364">
        <ele>581.4</ele>
        <time>2021-04-03T12:51:32Z</time>
      </trkpt>
      <trkpt lat="46.28279" lon="6.43372">
        <ele>581.4</ele>
        <time>2021-04-03T12:51:33Z</time>
      </trkpt>
      <trkpt lat="46.28279" lon="6.4338">
        <ele>581.4</ele>
        <time>2021-04-03T12:51:34Z</time>
      </trkpt>
      <trkpt lat="46.28279" lon="6.43387">
        <ele>581.4</ele>
        <time>2021-04-03T12:51:35Z</time>
      </trkpt>
      <trkpt lat="46.2828" lon="6.43395">
        <ele>581.6</ele>
        <time>2021-04-03T12:51:36Z</time>
      </trkpt>
      <trkpt lat="46.2828" lon="6.43403">
        <ele>581.6</ele>
        <time>2021-04-03T12:51:37Z</time>
      </trkpt>
      <trkpt lat="46.28281" lon="6.4341">
        <ele>581.8</ele>
        <time>2021-04-03T12:51:38Z</time>
      </trkpt>
      <trkpt lat="46.28283" lon="6.43418">
        <ele>581.8</ele>
        <time>2021-04-03T12:51:39Z</time>
      </trkpt>
      <trkpt lat="46.28284" lon="6.43425">
        <ele>582</ele>
        <time>2021-04-03T12:51:40Z</time>
      </trkpt>
      <trkpt lat="46.28286" lon="6.43433">
        <ele>582</ele>
        <time>2021-04-03T12:51:41Z</time>
      </trkpt>
      <trkpt lat="46.28288" lon="6.4344">
        <ele>582.4</ele>
        <time>2021-04-03T12:51:42Z</time>
      </trkpt>
      <trkpt lat="46.2829" lon="6.43447">
        <ele>582.6</ele>
        <time>2021-04-03T12:51:43Z</time>
      </trkpt>
      <trkpt lat="46.28292" lon="6.43455">
        <ele>582.8</ele>
        <time>2021-04-03T12:51:44Z</time>
      </trkpt>
      <trkpt lat="46.28294" lon="6.43462">
        <ele>582.8</ele>
        <time>2021-04-03T12:51:45Z</time>
      </trkpt>
      <trkpt lat="46.28296" lon="6.4347">
        <ele>583</ele>
        <time>2021-04-03T12:51:46Z</time>
      </trkpt>
      <trkpt lat="46.28298" lon="6.43477">
        <ele>583</ele>
        <time>2021-04-03T12:51:47Z</time>
      </trkpt>
      <trkpt lat="46.283" lon="6.43484">
        <ele>583.2</ele>
        <time>2021-04-03T12:51:48Z</time>
      </trkpt>
      <trkpt lat="46.28302" lon="6.43492">
        <ele>583.2</ele>
        <time>2021-04-03T12:51:49Z</time>
      </trkpt>
      <trkpt lat="46.28304" lon="6.43499">
        <ele>583.2</ele>
        <time>2021-04-03T12:51:50Z</time>
      </trkpt>
      <trkpt lat="46.28307" lon="6.43507">
        <ele>583.4</ele>
        <time>2021-04-03T12:51:51Z</time>
      </trkpt>
      <trkpt lat="46.28309" lon="6.43515">
        <ele>583.4</ele>
        <time>2021-04-03T12:51:52Z</time>
      </trkpt>
      <trkpt lat="46.28311" lon="6.43523">
        <ele>583.6</ele>
        <time>2021-04-03T12:51:53Z</time>
      </trkpt>
      <trkpt lat="46.28313" lon="6.43531">
        <ele>583.8</ele>
        <time>2021-04-03T12:51:54Z</time>
      </trkpt>
      <trkpt lat="46.28315" lon="6.43539">
        <ele>583.8</ele>
        <time>2021-04-03T12:51:55Z</time>
      </trkpt>
      <trkpt lat="46.28317" lon="6.43547">
        <ele>583.8</ele>
        <time>2021-04-03T12:51:56Z</time>
      </trkpt>
      <trkpt lat="46.28319" lon="6.43555">
        <ele>583.8</ele>
        <time>2021-04-03T12:51:57Z</time>
      </trkpt>
      <trkpt lat="46.28321" lon="6.43563">
        <ele>583.8</ele>
        <time>2021-04-03T12:51:58Z</time>
      </trkpt>
      <trkpt lat="46.28323" lon="6.43572">
        <ele>583.8</ele>
        <time>2021-04-03T12:51:59Z</time>
      </trkpt>
      <trkpt lat="46.28325" lon="6.4358">
        <ele>584</ele>
        <time>2021-04-03T12:52:00Z</time>
      </trkpt>
      <trkpt lat="46.28327" lon="6.43589">
        <ele>584</ele>
        <time>2021-04-03T12:52:01Z</time>
      </trkpt>
      <trkpt lat="46.28329" lon="6.43597">
        <ele>584</ele>
        <time>2021-04-03T12:52:02Z</time>
      </trkpt>
      <trkpt lat="46.28331" lon="6.43606">
        <ele>584</ele>
        <time>2021-04-03T12:52:03Z</time>
      </trkpt>
      <trkpt lat="46.28333" lon="6.43615">
        <ele>584</ele>
        <time>2021-04-03T12:52:04Z</time>
      </trkpt>
      <trkpt lat="46.28335" lon="6.43623">
        <ele>584</ele>
        <time>2021-04-03T12:52:05Z</time>
      </trkpt>
      <trkpt lat="46.28337" lon="6.43632">
        <ele>584</ele>
        <time>2021-04-03T12:52:06Z</time>
      </trkpt>
      <trkpt lat="46.28339" lon="6.4364">
        <ele>584</ele>
        <time>2021-04-03T12:52:07Z</time>
      </trkpt>
      <trkpt lat="46.28341" lon="6.43649">
        <ele>584</ele>
        <time>2021-04-03T12:52:08Z</time>
      </trkpt>
      <trkpt lat="46.28342" lon="6.43657">
        <ele>584</ele>
        <time>2021-04-03T12:52:09Z</time>
      </trkpt>
      <trkpt lat="46.28344" lon="6.43665">
        <ele>583.8</ele>
        <time>2021-04-03T12:52:10Z</time>
      </trkpt>
      <trkpt lat="46.28346" lon="6.43673">
        <ele>583.8</ele>
        <time>2021-04-03T12:52:11Z</time>
      </trkpt>
      <trkpt lat="46.28348" lon="6.43682">
        <ele>583.8</ele>
        <time>2021-04-03T12:52:12Z</time>
      </trkpt>
      <trkpt lat="46.28351" lon="6.4369">
        <ele>583.8</ele>
        <time>2021-04-03T12:52:13Z</time>
      </trkpt>
      <trkpt lat="46.28353" lon="6.43699">
        <ele>583.6</ele>
        <time>2021-04-03T12:52:14Z</time>
      </trkpt>
      <trkpt lat="46.28356" lon="6.43707">
        <ele>583.4</ele>
        <time>2021-04-03T12:52:15Z</time>
      </trkpt>
      <trkpt lat="46.28357" lon="6.43715">
        <ele>583</ele>
        <time>2021-04-03T12:52:16Z</time>
      </trkpt>
      <trkpt lat="46.28358" lon="6.43722">
        <ele>582.6</ele>
        <time>2021-04-03T12:52:17Z</time>
      </trkpt>
      <trkpt lat="46.2836" lon="6.4373">
        <ele>582.2</ele>
        <time>2021-04-03T12:52:18Z</time>
      </trkpt>
      <trkpt lat="46.28362" lon="6.43737">
        <ele>582</ele>
        <time>2021-04-03T12:52:19Z</time>
      </trkpt>
      <trkpt lat="46.28364" lon="6.43745">
        <ele>582</ele>
        <time>2021-04-03T12:52:20Z</time>
      </trkpt>
      <trkpt lat="46.28366" lon="6.43752">
        <ele>581.8</ele>
        <time>2021-04-03T12:52:21Z</time>
      </trkpt>
      <trkpt lat="46.28369" lon="6.4376">
        <ele>581.8</ele>
        <time>2021-04-03T12:52:22Z</time>
      </trkpt>
      <trkpt lat="46.28371" lon="6.43767">
        <ele>582</ele>
        <time>2021-04-03T12:52:23Z</time>
      </trkpt>
      <trkpt lat="46.28374" lon="6.43773">
        <ele>581.8</ele>
        <time>2021-04-03T12:52:24Z</time>
      </trkpt>
      <trkpt lat="46.28376" lon="6.4378">
        <ele>581.8</ele>
        <time>2021-04-03T12:52:25Z</time>
      </trkpt>
      <trkpt lat="46.28379" lon="6.43786">
        <ele>581.8</ele>
        <time>2021-04-03T12:52:26Z</time>
      </trkpt>
      <trkpt lat="46.28381" lon="6.43792">
        <ele>581.8</ele>
        <time>2021-04-03T12:52:27Z</time>
      </trkpt>
      <trkpt lat="46.28384" lon="6.43797">
        <ele>582</ele>
        <time>2021-04-03T12:52:28Z</time>
      </trkpt>
      <trkpt lat="46.28387" lon="6.43803">
        <ele>582</ele>
        <time>2021-04-03T12:52:29Z</time>
      </trkpt>
      <trkpt lat="46.28389" lon="6.43809">
        <ele>582.2</ele>
        <time>2021-04-03T12:52:30Z</time>
      </trkpt>
      <trkpt lat="46.28391" lon="6.43815">
        <ele>582.2</ele>
        <time>2021-04-03T12:52:31Z</time>
      </trkpt>
      <trkpt lat="46.28394" lon="6.43821">
        <ele>582.4</ele>
        <time>2021-04-03T12:52:32Z</time>
      </trkpt>
      <trkpt lat="46.28396" lon="6.43827">
        <ele>582.8</ele>
        <time>2021-04-03T12:52:33Z</time>
      </trkpt>
      <trkpt lat="46.28398" lon="6.43832">
        <ele>583.2</ele>
        <time>2021-04-03T12:52:34Z</time>
      </trkpt>
      <trkpt lat="46.284" lon="6.43838">
        <ele>584</ele>
        <time>2021-04-03T12:52:35Z</time>
      </trkpt>
      <trkpt lat="46.28402" lon="6.43844">
        <ele>584.4</ele>
        <time>2021-04-03T12:52:36Z</time>
      </trkpt>
      <trkpt lat="46.28405" lon="6.4385">
        <ele>584.6</ele>
        <time>2021-04-03T12:52:37Z</time>
      </trkpt>
      <trkpt lat="46.28407" lon="6.43856">
        <ele>585</ele>
        <time>2021-04-03T12:52:38Z</time>
      </trkpt>
      <trkpt lat="46.2841" lon="6.43862">
        <ele>585.2</ele>
        <time>2021-04-03T12:52:39Z</time>
      </trkpt>
      <trkpt lat="46.28412" lon="6.43868">
        <ele>585.6</ele>
        <time>2021-04-03T12:52:40Z</time>
      </trkpt>
      <trkpt lat="46.28414" lon="6.43873">
        <ele>585.8</ele>
        <time>2021-04-03T12:52:41Z</time>
      </trkpt>
      <trkpt lat="46.28416" lon="6.43879">
        <ele>586</ele>
        <time>2021-04-03T12:52:42Z</time>
      </trkpt>
      <trkpt lat="46.28418" lon="6.43884">
        <ele>586</ele>
        <time>2021-04-03T12:52:43Z</time>
      </trkpt>
      <trkpt lat="46.2842" lon="6.43889">
        <ele>586</ele>
        <time>2021-04-03T12:52:44Z</time>
      </trkpt>
      <trkpt lat="46.28423" lon="6.43894">
        <ele>586.4</ele>
        <time>2021-04-03T12:52:45Z</time>
      </trkpt>
      <trkpt lat="46.28425" lon="6.43899">
        <ele>586.4</ele>
        <time>2021-04-03T12:52:46Z</time>
      </trkpt>
      <trkpt lat="46.28427" lon="6.43904">
        <ele>586.8</ele>
        <time>2021-04-03T12:52:47Z</time>
      </trkpt>
      <trkpt lat="46.28429" lon="6.43909">
        <ele>586.8</ele>
        <time>2021-04-03T12:52:48Z</time>
      </trkpt>
      <trkpt lat="46.28432" lon="6.43915">
        <ele>587</ele>
        <time>2021-04-03T12:52:49Z</time>
      </trkpt>
      <trkpt lat="46.28434" lon="6.4392">
        <ele>587</ele>
        <time>2021-04-03T12:52:50Z</time>
      </trkpt>
      <trkpt lat="46.28435" lon="6.43926">
        <ele>587</ele>
        <time>2021-04-03T12:52:51Z</time>
      </trkpt>
      <trkpt lat="46.28437" lon="6.43932">
        <ele>587.2</ele>
        <time>2021-04-03T12:52:52Z</time>
      </trkpt>
      <trkpt lat="46.28439" lon="6.43938">
        <ele>587.4</ele>
        <time>2021-04-03T12:52:53Z</time>
      </trkpt>
      <trkpt lat="46.28442" lon="6.43944">
        <ele>587.2</ele>
        <time>2021-04-03T12:52:54Z</time>
      </trkpt>
      <trkpt lat="46.28443" lon="6.4395">
        <ele>587.4</ele>
        <time>2021-04-03T12:52:55Z</time>
      </trkpt>
      <trkpt lat="46.28445" lon="6.43956">
        <ele>587.6</ele>
        <time>2021-04-03T12:52:56Z</time>
      </trkpt>
      <trkpt lat="46.28447" lon="6.43962">
        <ele>587.4</ele>
        <time>2021-04-03T12:52:57Z</time>
      </trkpt>
      <trkpt lat="46.28449" lon="6.43968">
        <ele>587.6</ele>
        <time>2021-04-03T12:52:58Z</time>
      </trkpt>
      <trkpt lat="46.2845" lon="6.43974">
        <ele>588</ele>
        <time>2021-04-03T12:52:59Z</time>
      </trkpt>
      <trkpt lat="46.28453" lon="6.4398">
        <ele>588.4</ele>
        <time>2021-04-03T12:53:00Z</time>
      </trkpt>
      <trkpt lat="46.28455" lon="6.43985">
        <ele>588.4</ele>
        <time>2021-04-03T12:53:01Z</time>
      </trkpt>
      <trkpt lat="46.28458" lon="6.4399">
        <ele>588.4</ele>
        <time>2021-04-03T12:53:02Z</time>
      </trkpt>
      <trkpt lat="46.28462" lon="6.43995">
        <ele>588.8</ele>
        <time>2021-04-03T12:53:03Z</time>
      </trkpt>
      <trkpt lat="46.28465" lon="6.43999">
        <ele>588.8</ele>
        <time>2021-04-03T12:53:04Z</time>
      </trkpt>
      <trkpt lat="46.28469" lon="6.44004">
        <ele>588.8</ele>
        <time>2021-04-03T12:53:05Z</time>
      </trkpt>
      <trkpt lat="46.28472" lon="6.4401">
        <ele>588.8</ele>
        <time>2021-04-03T12:53:06Z</time>
      </trkpt>
      <trkpt lat="46.28474" lon="6.44016">
        <ele>589</ele>
        <time>2021-04-03T12:53:07Z</time>
      </trkpt>
      <trkpt lat="46.28477" lon="6.44022">
        <ele>589</ele>
        <time>2021-04-03T12:53:08Z</time>
      </trkpt>
      <trkpt lat="46.28479" lon="6.44028">
        <ele>589.2</ele>
        <time>2021-04-03T12:53:09Z</time>
      </trkpt>
      <trkpt lat="46.28481" lon="6.44034">
        <ele>589.2</ele>
        <time>2021-04-03T12:53:10Z</time>
      </trkpt>
      <trkpt lat="46.28483" lon="6.4404">
        <ele>589.2</ele>
        <time>2021-04-03T12:53:11Z</time>
      </trkpt>
      <trkpt lat="46.28485" lon="6.44046">
        <ele>589.2</ele>
        <time>2021-04-03T12:53:12Z</time>
      </trkpt>
      <trkpt lat="46.28488" lon="6.44052">
        <ele>589.2</ele>
        <time>2021-04-03T12:53:13Z</time>
      </trkpt>
      <trkpt lat="46.2849" lon="6.44058">
        <ele>589.4</ele>
        <time>2021-04-03T12:53:14Z</time>
      </trkpt>
      <trkpt lat="46.28492" lon="6.44063">
        <ele>589.6</ele>
        <time>2021-04-03T12:53:15Z</time>
      </trkpt>
      <trkpt lat="46.28494" lon="6.44069">
        <ele>589.6</ele>
        <time>2021-04-03T12:53:16Z</time>
      </trkpt>
      <trkpt lat="46.28496" lon="6.44075">
        <ele>589.8</ele>
        <time>2021-04-03T12:53:17Z</time>
      </trkpt>
      <trkpt lat="46.28498" lon="6.44082">
        <ele>589.8</ele>
        <time>2021-04-03T12:53:18Z</time>
      </trkpt>
      <trkpt lat="46.285" lon="6.44088">
        <ele>590</ele>
        <time>2021-04-03T12:53:19Z</time>
      </trkpt>
      <trkpt lat="46.28501" lon="6.44095">
        <ele>589.8</ele>
        <time>2021-04-03T12:53:20Z</time>
      </trkpt>
      <trkpt lat="46.28503" lon="6.44102">
        <ele>589.8</ele>
        <time>2021-04-03T12:53:21Z</time>
      </trkpt>
      <trkpt lat="46.28504" lon="6.4411">
        <ele>590</ele>
        <time>2021-04-03T12:53:22Z</time>
      </trkpt>
      <trkpt lat="46.28506" lon="6.44117">
        <ele>590</ele>
        <time>2021-04-03T12:53:23Z</time>
      </trkpt>
      <trkpt lat="46.28507" lon="6.44125">
        <ele>590</ele>
        <time>2021-04-03T12:53:24Z</time>
      </trkpt>
      <trkpt lat="46.28508" lon="6.44133">
        <ele>590</ele>
        <time>2021-04-03T12:53:25Z</time>
      </trkpt>
      <trkpt lat="46.28509" lon="6.4414">
        <ele>590</ele>
        <time>2021-04-03T12:53:26Z</time>
      </trkpt>
      <trkpt lat="46.28509" lon="6.44148">
        <ele>590</ele>
        <time>2021-04-03T12:53:27Z</time>
      </trkpt>
      <trkpt lat="46.2851" lon="6.44156">
        <ele>590</ele>
        <time>2021-04-03T12:53:28Z</time>
      </trkpt>
      <trkpt lat="46.28509" lon="6.44164">
        <ele>590</ele>
        <time>2021-04-03T12:53:29Z</time>
      </trkpt>
      <trkpt lat="46.28509" lon="6.44173">
        <ele>590</ele>
        <time>2021-04-03T12:53:30Z</time>
      </trkpt>
      <trkpt lat="46.28509" lon="6.44181">
        <ele>590</ele>
        <time>2021-04-03T12:53:31Z</time>
      </trkpt>
      <trkpt lat="46.2851" lon="6.4419">
        <ele>590</ele>
        <time>2021-04-03T12:53:32Z</time>
      </trkpt>
      <trkpt lat="46.28511" lon="6.44198">
        <ele>589.8</ele>
        <time>2021-04-03T12:53:33Z</time>
      </trkpt>
      <trkpt lat="46.28513" lon="6.44207">
        <ele>589.8</ele>
        <time>2021-04-03T12:53:34Z</time>
      </trkpt>
      <trkpt lat="46.28514" lon="6.44216">
        <ele>589.6</ele>
        <time>2021-04-03T12:53:35Z</time>
      </trkpt>
      <trkpt lat="46.28516" lon="6.44225">
        <ele>589.4</ele>
        <time>2021-04-03T12:53:36Z</time>
      </trkpt>
      <trkpt lat="46.28518" lon="6.44233">
        <ele>589.2</ele>
        <time>2021-04-03T12:53:37Z</time>
      </trkpt>
      <trkpt lat="46.28521" lon="6.44242">
        <ele>589.2</ele>
        <time>2021-04-03T12:53:38Z</time>
      </trkpt>
      <trkpt lat="46.28523" lon="6.44251">
        <ele>589</ele>
        <time>2021-04-03T12:53:39Z</time>
      </trkpt>
      <trkpt lat="46.28526" lon="6.44259">
        <ele>589</ele>
        <time>2021-04-03T12:53:40Z</time>
      </trkpt>
      <trkpt lat="46.28529" lon="6.44267">
        <ele>589</ele>
        <time>2021-04-03T12:53:41Z</time>
      </trkpt>
      <trkpt lat="46.28531" lon="6.44276">
        <ele>589.2</ele>
        <time>2021-04-03T12:53:42Z</time>
      </trkpt>
      <trkpt lat="46.28533" lon="6.44284">
        <ele>589</ele>
        <time>2021-04-03T12:53:43Z</time>
      </trkpt>
      <trkpt lat="46.28536" lon="6.44293">
        <ele>588.8</ele>
        <time>2021-04-03T12:53:44Z</time>
      </trkpt>
      <trkpt lat="46.28539" lon="6.44301">
        <ele>588.6</ele>
        <time>2021-04-03T12:53:45Z</time>
      </trkpt>
      <trkpt lat="46.28542" lon="6.4431">
        <ele>588.4</ele>
        <time>2021-04-03T12:53:46Z</time>
      </trkpt>
      <trkpt lat="46.28545" lon="6.44319">
        <ele>588.2</ele>
        <time>2021-04-03T12:53:47Z</time>
      </trkpt>
      <trkpt lat="46.28547" lon="6.44327">
        <ele>588</ele>
        <time>2021-04-03T12:53:48Z</time>
      </trkpt>
      <trkpt lat="46.2855" lon="6.44336">
        <ele>587.6</ele>
        <time>2021-04-03T12:53:49Z</time>
      </trkpt>
      <trkpt lat="46.28552" lon="6.44344">
        <ele>587.4</ele>
        <time>2021-04-03T12:53:50Z</time>
      </trkpt>
      <trkpt lat="46.28555" lon="6.44352">
        <ele>587.4</ele>
        <time>2021-04-03T12:53:51Z</time>
      </trkpt>
      <trkpt lat="46.28558" lon="6.4436">
        <ele>587.4</ele>
        <time>2021-04-03T12:53:52Z</time>
      </trkpt>
      <trkpt lat="46.28561" lon="6.44367">
        <ele>587.2</ele>
        <time>2021-04-03T12:53:53Z</time>
      </trkpt>
      <trkpt lat="46.28565" lon="6.44374">
        <ele>587.2</ele>
        <time>2021-04-03T12:53:54Z</time>
      </trkpt>
      <trkpt lat="46.28568" lon="6.44381">
        <ele>587.2</ele>
        <time>2021-04-03T12:53:55Z</time>
      </trkpt>
      <trkpt lat="46.28572" lon="6.44388">
        <ele>587.2</ele>
        <time>2021-04-03T12:53:56Z</time>
      </trkpt>
      <trkpt lat="46.28575" lon="6.44394">
        <ele>587.2</ele>
        <time>2021-04-03T12:53:57Z</time>
      </trkpt>
      <trkpt lat="46.2858" lon="6.44401">
        <ele>587.2</ele>
        <time>2021-04-03T12:53:58Z</time>
      </trkpt>
      <trkpt lat="46.28584" lon="6.44407">
        <ele>587.2</ele>
        <time>2021-04-03T12:53:59Z</time>
      </trkpt>
      <trkpt lat="46.28588" lon="6.44413">
        <ele>587.2</ele>
        <time>2021-04-03T12:54:00Z</time>
      </trkpt>
      <trkpt lat="46.28592" lon="6.44419">
        <ele>587</ele>
        <time>2021-04-03T12:54:01Z</time>
      </trkpt>
      <trkpt lat="46.28596" lon="6.44425">
        <ele>587.2</ele>
        <time>2021-04-03T12:54:02Z</time>
      </trkpt>
      <trkpt lat="46.28599" lon="6.44431">
        <ele>587.2</ele>
        <time>2021-04-03T12:54:03Z</time>
      </trkpt>
      <trkpt lat="46.28603" lon="6.44437">
        <ele>587.4</ele>
        <time>2021-04-03T12:54:04Z</time>
      </trkpt>
      <trkpt lat="46.28607" lon="6.44443">
        <ele>587.2</ele>
        <time>2021-04-03T12:54:05Z</time>
      </trkpt>
      <trkpt lat="46.2861" lon="6.4445">
        <ele>587.4</ele>
        <time>2021-04-03T12:54:06Z</time>
      </trkpt>
      <trkpt lat="46.28614" lon="6.44456">
        <ele>587.4</ele>
        <time>2021-04-03T12:54:07Z</time>
      </trkpt>
      <trkpt lat="46.28618" lon="6.44462">
        <ele>587.6</ele>
        <time>2021-04-03T12:54:08Z</time>
      </trkpt>
      <trkpt lat="46.28623" lon="6.44469">
        <ele>587.4</ele>
        <time>2021-04-03T12:54:09Z</time>
      </trkpt>
      <trkpt lat="46.28627" lon="6.44476">
        <ele>587.6</ele>
        <time>2021-04-03T12:54:10Z</time>
      </trkpt>
      <trkpt lat="46.28631" lon="6.44482">
        <ele>587.4</ele>
        <time>2021-04-03T12:54:11Z</time>
      </trkpt>
      <trkpt lat="46.28635" lon="6.44489">
        <ele>587.6</ele>
        <time>2021-04-03T12:54:12Z</time>
      </trkpt>
      <trkpt lat="46.28638" lon="6.44495">
        <ele>587.6</ele>
        <time>2021-04-03T12:54:13Z</time>
      </trkpt>
      <trkpt lat="46.28642" lon="6.44502">
        <ele>587.6</ele>
        <time>2021-04-03T12:54:14Z</time>
      </trkpt>
      <trkpt lat="46.28646" lon="6.44508">
        <ele>587.6</ele>
        <time>2021-04-03T12:54:15Z</time>
      </trkpt>
      <trkpt lat="46.2865" lon="6.44515">
        <ele>587.8</ele>
        <time>2021-04-03T12:54:16Z</time>
      </trkpt>
      <trkpt lat="46.28654" lon="6.44521">
        <ele>587.6</ele>
        <time>2021-04-03T12:54:17Z</time>
      </trkpt>
      <trkpt lat="46.28657" lon="6.44527">
        <ele>587.8</ele>
        <time>2021-04-03T12:54:18Z</time>
      </trkpt>
      <trkpt lat="46.2866" lon="6.44533">
        <ele>587.6</ele>
        <time>2021-04-03T12:54:19Z</time>
      </trkpt>
      <trkpt lat="46.28664" lon="6.44539">
        <ele>587.8</ele>
        <time>2021-04-03T12:54:20Z</time>
      </trkpt>
      <trkpt lat="46.28668" lon="6.44545">
        <ele>587.8</ele>
        <time>2021-04-03T12:54:21Z</time>
      </trkpt>
      <trkpt lat="46.28672" lon="6.44552">
        <ele>587.8</ele>
        <time>2021-04-03T12:54:22Z</time>
      </trkpt>
      <trkpt lat="46.28676" lon="6.44559">
        <ele>587.8</ele>
        <time>2021-04-03T12:54:23Z</time>
      </trkpt>
      <trkpt lat="46.2868" lon="6.44565">
        <ele>587.8</ele>
        <time>2021-04-03T12:54:24Z</time>
      </trkpt>
      <trkpt lat="46.28684" lon="6.44572">
        <ele>587.8</ele>
        <time>2021-04-03T12:54:25Z</time>
      </trkpt>
      <trkpt lat="46.28688" lon="6.44578">
        <ele>587.8</ele>
        <time>2021-04-03T12:54:26Z</time>
      </trkpt>
      <trkpt lat="46.28692" lon="6.44585">
        <ele>588</ele>
        <time>2021-04-03T12:54:27Z</time>
      </trkpt>
      <trkpt lat="46.28695" lon="6.44592">
        <ele>587.8</ele>
        <time>2021-04-03T12:54:28Z</time>
      </trkpt>
      <trkpt lat="46.28699" lon="6.44599">
        <ele>587.8</ele>
        <time>2021-04-03T12:54:29Z</time>
      </trkpt>
      <trkpt lat="46.28703" lon="6.44605">
        <ele>587.8</ele>
        <time>2021-04-03T12:54:30Z</time>
      </trkpt>
      <trkpt lat="46.28707" lon="6.44612">
        <ele>587.8</ele>
        <time>2021-04-03T12:54:31Z</time>
      </trkpt>
      <trkpt lat="46.28711" lon="6.44619">
        <ele>588</ele>
        <time>2021-04-03T12:54:32Z</time>
      </trkpt>
      <trkpt lat="46.28714" lon="6.44625">
        <ele>587.8</ele>
        <time>2021-04-03T12:54:33Z</time>
      </trkpt>
      <trkpt lat="46.28718" lon="6.44631">
        <ele>587.8</ele>
        <time>2021-04-03T12:54:34Z</time>
      </trkpt>
      <trkpt lat="46.28722" lon="6.44637">
        <ele>587.6</ele>
        <time>2021-04-03T12:54:35Z</time>
      </trkpt>
      <trkpt lat="46.28726" lon="6.44643">
        <ele>587.8</ele>
        <time>2021-04-03T12:54:36Z</time>
      </trkpt>
      <trkpt lat="46.28731" lon="6.44648">
        <ele>587.8</ele>
        <time>2021-04-03T12:54:37Z</time>
      </trkpt>
      <trkpt lat="46.28736" lon="6.44653">
        <ele>587.8</ele>
        <time>2021-04-03T12:54:38Z</time>
      </trkpt>
      <trkpt lat="46.28741" lon="6.44657">
        <ele>587.6</ele>
        <time>2021-04-03T12:54:39Z</time>
      </trkpt>
      <trkpt lat="46.28746" lon="6.44661">
        <ele>587.6</ele>
        <time>2021-04-03T12:54:40Z</time>
      </trkpt>
      <trkpt lat="46.28752" lon="6.44665">
        <ele>587.4</ele>
        <time>2021-04-03T12:54:41Z</time>
      </trkpt>
      <trkpt lat="46.28757" lon="6.44669">
        <ele>587.4</ele>
        <time>2021-04-03T12:54:42Z</time>
      </trkpt>
      <trkpt lat="46.28763" lon="6.44673">
        <ele>587.2</ele>
        <time>2021-04-03T12:54:43Z</time>
      </trkpt>
      <trkpt lat="46.28769" lon="6.44676">
        <ele>587.2</ele>
        <time>2021-04-03T12:54:44Z</time>
      </trkpt>
      <trkpt lat="46.28776" lon="6.44679">
        <ele>587</ele>
        <time>2021-04-03T12:54:45Z</time>
      </trkpt>
      <trkpt lat="46.28782" lon="6.44682">
        <ele>587</ele>
        <time>2021-04-03T12:54:46Z</time>
      </trkpt>
      <trkpt lat="46.28788" lon="6.44685">
        <ele>586.8</ele>
        <time>2021-04-03T12:54:47Z</time>
      </trkpt>
      <trkpt lat="46.28795" lon="6.44688">
        <ele>586.8</ele>
        <time>2021-04-03T12:54:48Z</time>
      </trkpt>
      <trkpt lat="46.28801" lon="6.44691">
        <ele>586.6</ele>
        <time>2021-04-03T12:54:49Z</time>
      </trkpt>
      <trkpt lat="46.28807" lon="6.44694">
        <ele>586.4</ele>
        <time>2021-04-03T12:54:50Z</time>
      </trkpt>
      <trkpt lat="46.28813" lon="6.44697">
        <ele>586</ele>
        <time>2021-04-03T12:54:51Z</time>
      </trkpt>
      <trkpt lat="46.2882" lon="6.447">
        <ele>586</ele>
        <time>2021-04-03T12:54:52Z</time>
      </trkpt>
      <trkpt lat="46.28826" lon="6.44702">
        <ele>585.8</ele>
        <time>2021-04-03T12:54:53Z</time>
      </trkpt>
      <trkpt lat="46.28832" lon="6.44705">
        <ele>585.8</ele>
        <time>2021-04-03T12:54:54Z</time>
      </trkpt>
      <trkpt lat="46.28838" lon="6.44707">
        <ele>585.8</ele>
        <time>2021-04-03T12:54:55Z</time>
      </trkpt>
      <trkpt lat="46.28845" lon="6.44708">
        <ele>585.6</ele>
        <time>2021-04-03T12:54:56Z</time>
      </trkpt>
      <trkpt lat="46.28851" lon="6.44709">
        <ele>585.6</ele>
        <time>2021-04-03T12:54:57Z</time>
      </trkpt>
      <trkpt lat="46.28857" lon="6.44709">
        <ele>585.4</ele>
        <time>2021-04-03T12:54:58Z</time>
      </trkpt>
      <trkpt lat="46.28864" lon="6.44709">
        <ele>585.4</ele>
        <time>2021-04-03T12:54:59Z</time>
      </trkpt>
      <trkpt lat="46.2887" lon="6.44708">
        <ele>585.4</ele>
        <time>2021-04-03T12:55:00Z</time>
      </trkpt>
      <trkpt lat="46.28877" lon="6.44707">
        <ele>585.4</ele>
        <time>2021-04-03T12:55:01Z</time>
      </trkpt>
      <trkpt lat="46.28883" lon="6.44706">
        <ele>585.4</ele>
        <time>2021-04-03T12:55:02Z</time>
      </trkpt>
      <trkpt lat="46.28889" lon="6.44705">
        <ele>585.4</ele>
        <time>2021-04-03T12:55:03Z</time>
      </trkpt>
      <trkpt lat="46.28895" lon="6.44704">
        <ele>585.4</ele>
        <time>2021-04-03T12:55:04Z</time>
      </trkpt>
      <trkpt lat="46.28901" lon="6.44702">
        <ele>585.4</ele>
        <time>2021-04-03T12:55:05Z</time>
      </trkpt>
      <trkpt lat="46.28908" lon="6.447">
        <ele>585.6</ele>
        <time>2021-04-03T12:55:06Z</time>
      </trkpt>
      <trkpt lat="46.28914" lon="6.44699">
        <ele>585.6</ele>
        <time>2021-04-03T12:55:07Z</time>
      </trkpt>
      <trkpt lat="46.28921" lon="6.44697">
        <ele>585.8</ele>
        <time>2021-04-03T12:55:08Z</time>
      </trkpt>
      <trkpt lat="46.28927" lon="6.44695">
        <ele>586.2</ele>
        <time>2021-04-03T12:55:09Z</time>
      </trkpt>
      <trkpt lat="46.28934" lon="6.44694">
        <ele>586.4</ele>
        <time>2021-04-03T12:55:10Z</time>
      </trkpt>
      <trkpt lat="46.2894" lon="6.44692">
        <ele>586.6</ele>
        <time>2021-04-03T12:55:11Z</time>
      </trkpt>
      <trkpt lat="46.28946" lon="6.44691">
        <ele>586.8</ele>
        <time>2021-04-03T12:55:12Z</time>
      </trkpt>
      <trkpt lat="46.28953" lon="6.4469">
        <ele>587</ele>
        <time>2021-04-03T12:55:13Z</time>
      </trkpt>
      <trkpt lat="46.28959" lon="6.44689">
        <ele>587.2</ele>
        <time>2021-04-03T12:55:14Z</time>
      </trkpt>
      <trkpt lat="46.28965" lon="6.44688">
        <ele>587.2</ele>
        <time>2021-04-03T12:55:15Z</time>
      </trkpt>
      <trkpt lat="46.28971" lon="6.44688">
        <ele>587.2</ele>
        <time>2021-04-03T12:55:16Z</time>
      </trkpt>
      <trkpt lat="46.28978" lon="6.44689">
        <ele>587.2</ele>
        <time>2021-04-03T12:55:17Z</time>
      </trkpt>
      <trkpt lat="46.28984" lon="6.4469">
        <ele>587.2</ele>
        <time>2021-04-03T12:55:18Z</time>
      </trkpt>
      <trkpt lat="46.28991" lon="6.44692">
        <ele>587.2</ele>
        <time>2021-04-03T12:55:19Z</time>
      </trkpt>
      <trkpt lat="46.28998" lon="6.44694">
        <ele>587.2</ele>
        <time>2021-04-03T12:55:20Z</time>
      </trkpt>
      <trkpt lat="46.29004" lon="6.44697">
        <ele>587.2</ele>
        <time>2021-04-03T12:55:21Z</time>
      </trkpt>
      <trkpt lat="46.29011" lon="6.447">
        <ele>587.2</ele>
        <time>2021-04-03T12:55:22Z</time>
      </trkpt>
      <trkpt lat="46.29017" lon="6.44702">
        <ele>587.2</ele>
        <time>2021-04-03T12:55:23Z</time>
      </trkpt>
      <trkpt lat="46.29023" lon="6.44705">
        <ele>587.2</ele>
        <time>2021-04-03T12:55:24Z</time>
      </trkpt>
      <trkpt lat="46.2903" lon="6.44708">
        <ele>587.2</ele>
        <time>2021-04-03T12:55:25Z</time>
      </trkpt>
      <trkpt lat="46.29036" lon="6.44711">
        <ele>587</ele>
        <time>2021-04-03T12:55:26Z</time>
      </trkpt>
      <trkpt lat="46.29043" lon="6.44714">
        <ele>587</ele>
        <time>2021-04-03T12:55:27Z</time>
      </trkpt>
      <trkpt lat="46.29049" lon="6.44717">
        <ele>586.6</ele>
        <time>2021-04-03T12:55:28Z</time>
      </trkpt>
      <trkpt lat="46.29055" lon="6.4472">
        <ele>586.6</ele>
        <time>2021-04-03T12:55:29Z</time>
      </trkpt>
      <trkpt lat="46.29061" lon="6.44723">
        <ele>586.2</ele>
        <time>2021-04-03T12:55:30Z</time>
      </trkpt>
      <trkpt lat="46.29068" lon="6.44727">
        <ele>585.8</ele>
        <time>2021-04-03T12:55:31Z</time>
      </trkpt>
      <trkpt lat="46.29074" lon="6.4473">
        <ele>585.2</ele>
        <time>2021-04-03T12:55:32Z</time>
      </trkpt>
      <trkpt lat="46.29081" lon="6.44733">
        <ele>585.2</ele>
        <time>2021-04-03T12:55:33Z</time>
      </trkpt>
      <trkpt lat="46.29088" lon="6.44736">
        <ele>584.8</ele>
        <time>2021-04-03T12:55:34Z</time>
      </trkpt>
      <trkpt lat="46.29094" lon="6.4474">
        <ele>584.8</ele>
        <time>2021-04-03T12:55:35Z</time>
      </trkpt>
      <trkpt lat="46.29101" lon="6.44743">
        <ele>584.8</ele>
        <time>2021-04-03T12:55:36Z</time>
      </trkpt>
      <trkpt lat="46.29108" lon="6.44746">
        <ele>584.6</ele>
        <time>2021-04-03T12:55:37Z</time>
      </trkpt>
      <trkpt lat="46.29115" lon="6.44749">
        <ele>584.4</ele>
        <time>2021-04-03T12:55:38Z</time>
      </trkpt>
      <trkpt lat="46.29122" lon="6.44753">
        <ele>584.2</ele>
        <time>2021-04-03T12:55:39Z</time>
      </trkpt>
      <trkpt lat="46.29128" lon="6.44756">
        <ele>584.2</ele>
        <time>2021-04-03T12:55:40Z</time>
      </trkpt>
      <trkpt lat="46.29135" lon="6.44759">
        <ele>584</ele>
        <time>2021-04-03T12:55:41Z</time>
      </trkpt>
      <trkpt lat="46.29142" lon="6.44763">
        <ele>584</ele>
        <time>2021-04-03T12:55:42Z</time>
      </trkpt>
      <trkpt lat="46.29149" lon="6.44766">
        <ele>583.8</ele>
        <time>2021-04-03T12:55:43Z</time>
      </trkpt>
      <trkpt lat="46.29156" lon="6.44769">
        <ele>583.8</ele>
        <time>2021-04-03T12:55:44Z</time>
      </trkpt>
      <trkpt lat="46.29163" lon="6.44772">
        <ele>583.2</ele>
        <time>2021-04-03T12:55:45Z</time>
      </trkpt>
      <trkpt lat="46.29169" lon="6.44775">
        <ele>583</ele>
        <time>2021-04-03T12:55:46Z</time>
      </trkpt>
      <trkpt lat="46.29176" lon="6.44778">
        <ele>582.8</ele>
        <time>2021-04-03T12:55:47Z</time>
      </trkpt>
      <trkpt lat="46.29182" lon="6.4478">
        <ele>582.8</ele>
        <time>2021-04-03T12:55:48Z</time>
      </trkpt>
      <trkpt lat="46.29188" lon="6.44783">
        <ele>582.4</ele>
        <time>2021-04-03T12:55:49Z</time>
      </trkpt>
      <trkpt lat="46.29195" lon="6.44786">
        <ele>582.6</ele>
        <time>2021-04-03T12:55:50Z</time>
      </trkpt>
      <trkpt lat="46.292" lon="6.44789">
        <ele>582.4</ele>
        <time>2021-04-03T12:55:51Z</time>
      </trkpt>
      <trkpt lat="46.29206" lon="6.44792">
        <ele>582.4</ele>
        <time>2021-04-03T12:55:52Z</time>
      </trkpt>
      <trkpt lat="46.29211" lon="6.44794">
        <ele>582</ele>
        <time>2021-04-03T12:55:53Z</time>
      </trkpt>
      <trkpt lat="46.29217" lon="6.44797">
        <ele>581.8</ele>
        <time>2021-04-03T12:55:54Z</time>
      </trkpt>
      <trkpt lat="46.29222" lon="6.44799">
        <ele>581.8</ele>
        <time>2021-04-03T12:55:55Z</time>
      </trkpt>
      <trkpt lat="46.29228" lon="6.44802">
        <ele>581.8</ele>
        <time>2021-04-03T12:55:56Z</time>
      </trkpt>
      <trkpt lat="46.29233" lon="6.44804">
        <ele>581.6</ele>
        <time>2021-04-03T12:55:57Z</time>
      </trkpt>
      <trkpt lat="46.29238" lon="6.44807">
        <ele>581.4</ele>
        <time>2021-04-03T12:55:58Z</time>
      </trkpt>
      <trkpt lat="46.29244" lon="6.44809">
        <ele>581.2</ele>
        <time>2021-04-03T12:55:59Z</time>
      </trkpt>
      <trkpt lat="46.29249" lon="6.44812">
        <ele>580.8</ele>
        <time>2021-04-03T12:56:00Z</time>
      </trkpt>
      <trkpt lat="46.29254" lon="6.44814">
        <ele>580.4</ele>
        <time>2021-04-03T12:56:01Z</time>
      </trkpt>
      <trkpt lat="46.2926" lon="6.44816">
        <ele>580.2</ele>
        <time>2021-04-03T12:56:02Z</time>
      </trkpt>
      <trkpt lat="46.29265" lon="6.44819">
        <ele>580</ele>
        <time>2021-04-03T12:56:03Z</time>
      </trkpt>
      <trkpt lat="46.29271" lon="6.44821">
        <ele>580</ele>
        <time>2021-04-03T12:56:04Z</time>
      </trkpt>
      <trkpt lat="46.29276" lon="6.44824">
        <ele>580</ele>
        <time>2021-04-03T12:56:05Z</time>
      </trkpt>
      <trkpt lat="46.29282" lon="6.44827">
        <ele>580</ele>
        <time>2021-04-03T12:56:06Z</time>
      </trkpt>
      <trkpt lat="46.29288" lon="6.44829">
        <ele>580</ele>
        <time>2021-04-03T12:56:07Z</time>
      </trkpt>
      <trkpt lat="46.29294" lon="6.44832">
        <ele>580</ele>
        <time>2021-04-03T12:56:08Z</time>
      </trkpt>
      <trkpt lat="46.29299" lon="6.44835">
        <ele>580.2</ele>
        <time>2021-04-03T12:56:09Z</time>
      </trkpt>
      <trkpt lat="46.29305" lon="6.44837">
        <ele>580.4</ele>
        <time>2021-04-03T12:56:10Z</time>
      </trkpt>
      <trkpt lat="46.29311" lon="6.4484">
        <ele>580.6</ele>
        <time>2021-04-03T12:56:11Z</time>
      </trkpt>
      <trkpt lat="46.29317" lon="6.44842">
        <ele>580.8</ele>
        <time>2021-04-03T12:56:12Z</time>
      </trkpt>
      <trkpt lat="46.29322" lon="6.44845">
        <ele>580.8</ele>
        <time>2021-04-03T12:56:13Z</time>
      </trkpt>
      <trkpt lat="46.29333" lon="6.4485">
        <ele>580.8</ele>
        <time>2021-04-03T12:56:14Z</time>
      </trkpt>
      <trkpt lat="46.29336" lon="6.44851">
        <ele>581</ele>
        <time>2021-04-03T12:56:15Z</time>
      </trkpt>
      <trkpt lat="46.29338" lon="6.44852">
        <ele>581.2</ele>
        <time>2021-04-03T12:56:16Z</time>
      </trkpt>
      <trkpt lat="46.29344" lon="6.44854">
        <ele>581.2</ele>
        <time>2021-04-03T12:56:17Z</time>
      </trkpt>
      <trkpt lat="46.29349" lon="6.44857">
        <ele>581.4</ele>
        <time>2021-04-03T12:56:18Z</time>
      </trkpt>
      <trkpt lat="46.29354" lon="6.44859">
        <ele>581.4</ele>
        <time>2021-04-03T12:56:19Z</time>
      </trkpt>
      <trkpt lat="46.2936" lon="6.44861">
        <ele>581.4</ele>
        <time>2021-04-03T12:56:20Z</time>
      </trkpt>
      <trkpt lat="46.29365" lon="6.44864">
        <ele>581.6</ele>
        <time>2021-04-03T12:56:21Z</time>
      </trkpt>
      <trkpt lat="46.2937" lon="6.44867">
        <ele>581.6</ele>
        <time>2021-04-03T12:56:22Z</time>
      </trkpt>
      <trkpt lat="46.29376" lon="6.44869">
        <ele>581.6</ele>
        <time>2021-04-03T12:56:23Z</time>
      </trkpt>
      <trkpt lat="46.29381" lon="6.44871">
        <ele>581.8</ele>
        <time>2021-04-03T12:56:24Z</time>
      </trkpt>
      <trkpt lat="46.29386" lon="6.44874">
        <ele>581.6</ele>
        <time>2021-04-03T12:56:25Z</time>
      </trkpt>
      <trkpt lat="46.29392" lon="6.44876">
        <ele>581.6</ele>
        <time>2021-04-03T12:56:26Z</time>
      </trkpt>
      <trkpt lat="46.29397" lon="6.44878">
        <ele>581.8</ele>
        <time>2021-04-03T12:56:27Z</time>
      </trkpt>
      <trkpt lat="46.29402" lon="6.44881">
        <ele>581.8</ele>
        <time>2021-04-03T12:56:28Z</time>
      </trkpt>
      <trkpt lat="46.29408" lon="6.44883">
        <ele>581.6</ele>
        <time>2021-04-03T12:56:29Z</time>
      </trkpt>
      <trkpt lat="46.29413" lon="6.44886">
        <ele>581.6</ele>
        <time>2021-04-03T12:56:30Z</time>
      </trkpt>
      <trkpt lat="46.29419" lon="6.44888">
        <ele>581.6</ele>
        <time>2021-04-03T12:56:31Z</time>
      </trkpt>
      <trkpt lat="46.29425" lon="6.44891">
        <ele>581.8</ele>
        <time>2021-04-03T12:56:32Z</time>
      </trkpt>
      <trkpt lat="46.2943" lon="6.44893">
        <ele>581.6</ele>
        <time>2021-04-03T12:56:33Z</time>
      </trkpt>
      <trkpt lat="46.29436" lon="6.44896">
        <ele>581.8</ele>
        <time>2021-04-03T12:56:34Z</time>
      </trkpt>
      <trkpt lat="46.29441" lon="6.44899">
        <ele>581.6</ele>
        <time>2021-04-03T12:56:35Z</time>
      </trkpt>
      <trkpt lat="46.29447" lon="6.44901">
        <ele>581.8</ele>
        <time>2021-04-03T12:56:36Z</time>
      </trkpt>
      <trkpt lat="46.29452" lon="6.44904">
        <ele>582</ele>
        <time>2021-04-03T12:56:37Z</time>
      </trkpt>
      <trkpt lat="46.29457" lon="6.44907">
        <ele>582</ele>
        <time>2021-04-03T12:56:38Z</time>
      </trkpt>
      <trkpt lat="46.29462" lon="6.4491">
        <ele>582.2</ele>
        <time>2021-04-03T12:56:39Z</time>
      </trkpt>
      <trkpt lat="46.29468" lon="6.44913">
        <ele>582.2</ele>
        <time>2021-04-03T12:56:40Z</time>
      </trkpt>
      <trkpt lat="46.29473" lon="6.44916">
        <ele>582.2</ele>
        <time>2021-04-03T12:56:41Z</time>
      </trkpt>
      <trkpt lat="46.29479" lon="6.4492">
        <ele>582.2</ele>
        <time>2021-04-03T12:56:42Z</time>
      </trkpt>
      <trkpt lat="46.29484" lon="6.44924">
        <ele>582.2</ele>
        <time>2021-04-03T12:56:43Z</time>
      </trkpt>
      <trkpt lat="46.2949" lon="6.44927">
        <ele>582.2</ele>
        <time>2021-04-03T12:56:44Z</time>
      </trkpt>
      <trkpt lat="46.29496" lon="6.44931">
        <ele>582.2</ele>
        <time>2021-04-03T12:56:45Z</time>
      </trkpt>
      <trkpt lat="46.29501" lon="6.44935">
        <ele>582.2</ele>
        <time>2021-04-03T12:56:46Z</time>
      </trkpt>
      <trkpt lat="46.29507" lon="6.4494">
        <ele>582.2</ele>
        <time>2021-04-03T12:56:47Z</time>
      </trkpt>
      <trkpt lat="46.29512" lon="6.44944">
        <ele>582.2</ele>
        <time>2021-04-03T12:56:48Z</time>
      </trkpt>
      <trkpt lat="46.29517" lon="6.44949">
        <ele>582.4</ele>
        <time>2021-04-03T12:56:49Z</time>
      </trkpt>
      <trkpt lat="46.29521" lon="6.44954">
        <ele>582.4</ele>
        <time>2021-04-03T12:56:50Z</time>
      </trkpt>
      <trkpt lat="46.29526" lon="6.44959">
        <ele>582.4</ele>
        <time>2021-04-03T12:56:51Z</time>
      </trkpt>
      <trkpt lat="46.29531" lon="6.44964">
        <ele>582.4</ele>
        <time>2021-04-03T12:56:52Z</time>
      </trkpt>
      <trkpt lat="46.29536" lon="6.4497">
        <ele>582.4</ele>
        <time>2021-04-03T12:56:53Z</time>
      </trkpt>
      <trkpt lat="46.29541" lon="6.44976">
        <ele>582.4</ele>
        <time>2021-04-03T12:56:54Z</time>
      </trkpt>
      <trkpt lat="46.29545" lon="6.44982">
        <ele>582.6</ele>
        <time>2021-04-03T12:56:55Z</time>
      </trkpt>
      <trkpt lat="46.2955" lon="6.44988">
        <ele>582.4</ele>
        <time>2021-04-03T12:56:56Z</time>
      </trkpt>
      <trkpt lat="46.29555" lon="6.44995">
        <ele>582.4</ele>
        <time>2021-04-03T12:56:57Z</time>
      </trkpt>
      <trkpt lat="46.29559" lon="6.45001">
        <ele>582.2</ele>
        <time>2021-04-03T12:56:58Z</time>
      </trkpt>
      <trkpt lat="46.29564" lon="6.45007">
        <ele>582.2</ele>
        <time>2021-04-03T12:56:59Z</time>
      </trkpt>
      <trkpt lat="46.29568" lon="6.45014">
        <ele>582.2</ele>
        <time>2021-04-03T12:57:00Z</time>
      </trkpt>
      <trkpt lat="46.29573" lon="6.45021">
        <ele>582.4</ele>
        <time>2021-04-03T12:57:01Z</time>
      </trkpt>
      <trkpt lat="46.29577" lon="6.45028">
        <ele>582.4</ele>
        <time>2021-04-03T12:57:02Z</time>
      </trkpt>
      <trkpt lat="46.29582" lon="6.45035">
        <ele>582.4</ele>
        <time>2021-04-03T12:57:03Z</time>
      </trkpt>
      <trkpt lat="46.29587" lon="6.45043">
        <ele>582.2</ele>
        <time>2021-04-03T12:57:04Z</time>
      </trkpt>
      <trkpt lat="46.29591" lon="6.45051">
        <ele>582.2</ele>
        <time>2021-04-03T12:57:05Z</time>
      </trkpt>
      <trkpt lat="46.29596" lon="6.45058">
        <ele>582</ele>
        <time>2021-04-03T12:57:06Z</time>
      </trkpt>
      <trkpt lat="46.29601" lon="6.45066">
        <ele>581.8</ele>
        <time>2021-04-03T12:57:07Z</time>
      </trkpt>
      <trkpt lat="46.29605" lon="6.45073">
        <ele>581.4</ele>
        <time>2021-04-03T12:57:08Z</time>
      </trkpt>
      <trkpt lat="46.2961" lon="6.4508">
        <ele>581.2</ele>
        <time>2021-04-03T12:57:09Z</time>
      </trkpt>
      <trkpt lat="46.29618" lon="6.45095">
        <ele>580.8</ele>
        <time>2021-04-03T12:57:11Z</time>
      </trkpt>
      <trkpt lat="46.29622" lon="6.45103">
        <ele>580.6</ele>
        <time>2021-04-03T12:57:12Z</time>
      </trkpt>
      <trkpt lat="46.29626" lon="6.4511">
        <ele>580.4</ele>
        <time>2021-04-03T12:57:13Z</time>
      </trkpt>
      <trkpt lat="46.29629" lon="6.45118">
        <ele>580.4</ele>
        <time>2021-04-03T12:57:14Z</time>
      </trkpt>
      <trkpt lat="46.29633" lon="6.45126">
        <ele>580.2</ele>
        <time>2021-04-03T12:57:15Z</time>
      </trkpt>
      <trkpt lat="46.29635" lon="6.45134">
        <ele>580</ele>
        <time>2021-04-03T12:57:16Z</time>
      </trkpt>
      <trkpt lat="46.29638" lon="6.45142">
        <ele>580</ele>
        <time>2021-04-03T12:57:17Z</time>
      </trkpt>
      <trkpt lat="46.29641" lon="6.45151">
        <ele>579.8</ele>
        <time>2021-04-03T12:57:18Z</time>
      </trkpt>
      <trkpt lat="46.29644" lon="6.45159">
        <ele>579.6</ele>
        <time>2021-04-03T12:57:19Z</time>
      </trkpt>
      <trkpt lat="46.29647" lon="6.45168">
        <ele>579.4</ele>
        <time>2021-04-03T12:57:20Z</time>
      </trkpt>
      <trkpt lat="46.2965" lon="6.45177">
        <ele>579</ele>
        <time>2021-04-03T12:57:21Z</time>
      </trkpt>
      <trkpt lat="46.29653" lon="6.45185">
        <ele>578.8</ele>
        <time>2021-04-03T12:57:22Z</time>
      </trkpt>
      <trkpt lat="46.29656" lon="6.45194">
        <ele>578.8</ele>
        <time>2021-04-03T12:57:23Z</time>
      </trkpt>
      <trkpt lat="46.29659" lon="6.45202">
        <ele>578.8</ele>
        <time>2021-04-03T12:57:24Z</time>
      </trkpt>
      <trkpt lat="46.29662" lon="6.45211">
        <ele>578.6</ele>
        <time>2021-04-03T12:57:25Z</time>
      </trkpt>
      <trkpt lat="46.29665" lon="6.45219">
        <ele>578.2</ele>
        <time>2021-04-03T12:57:26Z</time>
      </trkpt>
      <trkpt lat="46.29667" lon="6.45228">
        <ele>577.8</ele>
        <time>2021-04-03T12:57:27Z</time>
      </trkpt>
      <trkpt lat="46.29669" lon="6.45236">
        <ele>577.8</ele>
        <time>2021-04-03T12:57:28Z</time>
      </trkpt>
      <trkpt lat="46.29672" lon="6.45244">
        <ele>577.6</ele>
        <time>2021-04-03T12:57:29Z</time>
      </trkpt>
      <trkpt lat="46.29674" lon="6.45252">
        <ele>577.6</ele>
        <time>2021-04-03T12:57:30Z</time>
      </trkpt>
      <trkpt lat="46.29677" lon="6.4526">
        <ele>577.4</ele>
        <time>2021-04-03T12:57:31Z</time>
      </trkpt>
      <trkpt lat="46.2968" lon="6.45268">
        <ele>577.2</ele>
        <time>2021-04-03T12:57:32Z</time>
      </trkpt>
      <trkpt lat="46.29683" lon="6.45276">
        <ele>577.2</ele>
        <time>2021-04-03T12:57:33Z</time>
      </trkpt>
      <trkpt lat="46.29686" lon="6.45283">
        <ele>577.2</ele>
        <time>2021-04-03T12:57:34Z</time>
      </trkpt>
      <trkpt lat="46.29689" lon="6.4529">
        <ele>577.2</ele>
        <time>2021-04-03T12:57:35Z</time>
      </trkpt>
      <trkpt lat="46.29693" lon="6.45296">
        <ele>577.2</ele>
        <time>2021-04-03T12:57:36Z</time>
      </trkpt>
      <trkpt lat="46.29697" lon="6.45302">
        <ele>577.4</ele>
        <time>2021-04-03T12:57:37Z</time>
      </trkpt>
      <trkpt lat="46.29701" lon="6.45308">
        <ele>577.2</ele>
        <time>2021-04-03T12:57:38Z</time>
      </trkpt>
      <trkpt lat="46.29704" lon="6.45312">
        <ele>577.2</ele>
        <time>2021-04-03T12:57:39Z</time>
      </trkpt>
      <trkpt lat="46.29708" lon="6.45317">
        <ele>577.4</ele>
        <time>2021-04-03T12:57:40Z</time>
      </trkpt>
      <trkpt lat="46.29713" lon="6.45321">
        <ele>577.6</ele>
        <time>2021-04-03T12:57:41Z</time>
      </trkpt>
      <trkpt lat="46.29717" lon="6.45325">
        <ele>577.6</ele>
        <time>2021-04-03T12:57:42Z</time>
      </trkpt>
      <trkpt lat="46.29721" lon="6.45329">
        <ele>577.6</ele>
        <time>2021-04-03T12:57:43Z</time>
      </trkpt>
      <trkpt lat="46.29726" lon="6.45332">
        <ele>577.8</ele>
        <time>2021-04-03T12:57:44Z</time>
      </trkpt>
      <trkpt lat="46.2973" lon="6.45336">
        <ele>577.8</ele>
        <time>2021-04-03T12:57:45Z</time>
      </trkpt>
      <trkpt lat="46.29734" lon="6.45339">
        <ele>578</ele>
        <time>2021-04-03T12:57:46Z</time>
      </trkpt>
      <trkpt lat="46.29738" lon="6.45341">
        <ele>578.2</ele>
        <time>2021-04-03T12:57:47Z</time>
      </trkpt>
      <trkpt lat="46.29742" lon="6.45344">
        <ele>578.6</ele>
        <time>2021-04-03T12:57:48Z</time>
      </trkpt>
      <trkpt lat="46.29745" lon="6.45346">
        <ele>578.8</ele>
        <time>2021-04-03T12:57:49Z</time>
      </trkpt>
      <trkpt lat="46.29748" lon="6.45347">
        <ele>578.8</ele>
        <time>2021-04-03T12:57:50Z</time>
      </trkpt>
      <trkpt lat="46.29751" lon="6.4535">
        <ele>578.8</ele>
        <time>2021-04-03T12:57:51Z</time>
      </trkpt>
      <trkpt lat="46.29754" lon="6.45352">
        <ele>579</ele>
        <time>2021-04-03T12:57:52Z</time>
      </trkpt>
      <trkpt lat="46.29757" lon="6.45354">
        <ele>579</ele>
        <time>2021-04-03T12:57:53Z</time>
      </trkpt>
      <trkpt lat="46.2976" lon="6.45356">
        <ele>579.2</ele>
        <time>2021-04-03T12:57:54Z</time>
      </trkpt>
      <trkpt lat="46.29763" lon="6.45359">
        <ele>579.6</ele>
        <time>2021-04-03T12:57:55Z</time>
      </trkpt>
      <trkpt lat="46.29766" lon="6.45361">
        <ele>580.2</ele>
        <time>2021-04-03T12:57:56Z</time>
      </trkpt>
      <trkpt lat="46.29769" lon="6.45363">
        <ele>580.4</ele>
        <time>2021-04-03T12:57:57Z</time>
      </trkpt>
      <trkpt lat="46.29773" lon="6.45366">
        <ele>580.8</ele>
        <time>2021-04-03T12:57:58Z</time>
      </trkpt>
      <trkpt lat="46.29775" lon="6.45368">
        <ele>581</ele>
        <time>2021-04-03T12:57:59Z</time>
      </trkpt>
      <trkpt lat="46.29778" lon="6.45371">
        <ele>581.2</ele>
        <time>2021-04-03T12:58:00Z</time>
      </trkpt>
      <trkpt lat="46.29782" lon="6.45373">
        <ele>581</ele>
        <time>2021-04-03T12:58:01Z</time>
      </trkpt>
      <trkpt lat="46.29784" lon="6.45375">
        <ele>581.4</ele>
        <time>2021-04-03T12:58:02Z</time>
      </trkpt>
      <trkpt lat="46.29787" lon="6.45378">
        <ele>581.4</ele>
        <time>2021-04-03T12:58:03Z</time>
      </trkpt>
      <trkpt lat="46.2979" lon="6.4538">
        <ele>581.4</ele>
        <time>2021-04-03T12:58:04Z</time>
      </trkpt>
      <trkpt lat="46.29793" lon="6.45382">
        <ele>581.8</ele>
        <time>2021-04-03T12:58:05Z</time>
      </trkpt>
      <trkpt lat="46.29796" lon="6.45385">
        <ele>582</ele>
        <time>2021-04-03T12:58:06Z</time>
      </trkpt>
      <trkpt lat="46.298" lon="6.45387">
        <ele>582.6</ele>
        <time>2021-04-03T12:58:07Z</time>
      </trkpt>
      <trkpt lat="46.29802" lon="6.45389">
        <ele>582.8</ele>
        <time>2021-04-03T12:58:08Z</time>
      </trkpt>
      <trkpt lat="46.29805" lon="6.45392">
        <ele>583</ele>
        <time>2021-04-03T12:58:09Z</time>
      </trkpt>
      <trkpt lat="46.29808" lon="6.45394">
        <ele>583.4</ele>
        <time>2021-04-03T12:58:10Z</time>
      </trkpt>
      <trkpt lat="46.29811" lon="6.45397">
        <ele>583.6</ele>
        <time>2021-04-03T12:58:11Z</time>
      </trkpt>
      <trkpt lat="46.29814" lon="6.454">
        <ele>583.8</ele>
        <time>2021-04-03T12:58:12Z</time>
      </trkpt>
      <trkpt lat="46.29816" lon="6.45403">
        <ele>584.2</ele>
        <time>2021-04-03T12:58:13Z</time>
      </trkpt>
      <trkpt lat="46.29819" lon="6.45406">
        <ele>584.2</ele>
        <time>2021-04-03T12:58:14Z</time>
      </trkpt>
      <trkpt lat="46.29821" lon="6.45409">
        <ele>584.4</ele>
        <time>2021-04-03T12:58:15Z</time>
      </trkpt>
      <trkpt lat="46.29823" lon="6.45411">
        <ele>584.6</ele>
        <time>2021-04-03T12:58:16Z</time>
      </trkpt>
      <trkpt lat="46.29825" lon="6.45414">
        <ele>585</ele>
        <time>2021-04-03T12:58:17Z</time>
      </trkpt>
      <trkpt lat="46.29827" lon="6.45418">
        <ele>585</ele>
        <time>2021-04-03T12:58:18Z</time>
      </trkpt>
      <trkpt lat="46.29829" lon="6.45421">
        <ele>585.4</ele>
        <time>2021-04-03T12:58:19Z</time>
      </trkpt>
      <trkpt lat="46.29831" lon="6.45424">
        <ele>585.4</ele>
        <time>2021-04-03T12:58:20Z</time>
      </trkpt>
      <trkpt lat="46.29833" lon="6.45427">
        <ele>585.4</ele>
        <time>2021-04-03T12:58:21Z</time>
      </trkpt>
      <trkpt lat="46.29835" lon="6.45431">
        <ele>585.8</ele>
        <time>2021-04-03T12:58:22Z</time>
      </trkpt>
      <trkpt lat="46.29836" lon="6.45434">
        <ele>586</ele>
        <time>2021-04-03T12:58:23Z</time>
      </trkpt>
      <trkpt lat="46.29838" lon="6.45437">
        <ele>586.2</ele>
        <time>2021-04-03T12:58:24Z</time>
      </trkpt>
      <trkpt lat="46.2984" lon="6.45441">
        <ele>586.4</ele>
        <time>2021-04-03T12:58:25Z</time>
      </trkpt>
      <trkpt lat="46.29842" lon="6.45444">
        <ele>586.8</ele>
        <time>2021-04-03T12:58:26Z</time>
      </trkpt>
      <trkpt lat="46.29843" lon="6.45447">
        <ele>587.2</ele>
        <time>2021-04-03T12:58:27Z</time>
      </trkpt>
      <trkpt lat="46.29845" lon="6.45451">
        <ele>587.4</ele>
        <time>2021-04-03T12:58:28Z</time>
      </trkpt>
      <trkpt lat="46.29847" lon="6.45454">
        <ele>587.6</ele>
        <time>2021-04-03T12:58:29Z</time>
      </trkpt>
      <trkpt lat="46.29848" lon="6.45457">
        <ele>587.8</ele>
        <time>2021-04-03T12:58:30Z</time>
      </trkpt>
      <trkpt lat="46.2985" lon="6.4546">
        <ele>588</ele>
        <time>2021-04-03T12:58:31Z</time>
      </trkpt>
      <trkpt lat="46.29851" lon="6.45463">
        <ele>588</ele>
        <time>2021-04-03T12:58:32Z</time>
      </trkpt>
      <trkpt lat="46.29853" lon="6.45467">
        <ele>588.2</ele>
        <time>2021-04-03T12:58:33Z</time>
      </trkpt>
      <trkpt lat="46.29855" lon="6.45471">
        <ele>588.2</ele>
        <time>2021-04-03T12:58:34Z</time>
      </trkpt>
      <trkpt lat="46.29856" lon="6.45474">
        <ele>588.4</ele>
        <time>2021-04-03T12:58:35Z</time>
      </trkpt>
      <trkpt lat="46.29858" lon="6.45478">
        <ele>588.4</ele>
        <time>2021-04-03T12:58:36Z</time>
      </trkpt>
      <trkpt lat="46.2986" lon="6.45481">
        <ele>588.4</ele>
        <time>2021-04-03T12:58:37Z</time>
      </trkpt>
      <trkpt lat="46.29861" lon="6.45485">
        <ele>588.8</ele>
        <time>2021-04-03T12:58:38Z</time>
      </trkpt>
      <trkpt lat="46.29862" lon="6.45488">
        <ele>589</ele>
        <time>2021-04-03T12:58:39Z</time>
      </trkpt>
      <trkpt lat="46.29864" lon="6.45492">
        <ele>589</ele>
        <time>2021-04-03T12:58:40Z</time>
      </trkpt>
      <trkpt lat="46.29865" lon="6.45495">
        <ele>589.2</ele>
        <time>2021-04-03T12:58:41Z</time>
      </trkpt>
      <trkpt lat="46.29867" lon="6.45499">
        <ele>589.8</ele>
        <time>2021-04-03T12:58:42Z</time>
      </trkpt>
      <trkpt lat="46.29869" lon="6.45503">
        <ele>590.2</ele>
        <time>2021-04-03T12:58:43Z</time>
      </trkpt>
      <trkpt lat="46.2987" lon="6.45506">
        <ele>590.4</ele>
        <time>2021-04-03T12:58:44Z</time>
      </trkpt>
      <trkpt lat="46.29872" lon="6.4551">
        <ele>590.4</ele>
        <time>2021-04-03T12:58:45Z</time>
      </trkpt>
      <trkpt lat="46.29874" lon="6.45514">
        <ele>590.6</ele>
        <time>2021-04-03T12:58:46Z</time>
      </trkpt>
      <trkpt lat="46.29877" lon="6.45517">
        <ele>590.8</ele>
        <time>2021-04-03T12:58:47Z</time>
      </trkpt>
      <trkpt lat="46.29879" lon="6.45521">
        <ele>591.2</ele>
        <time>2021-04-03T12:58:48Z</time>
      </trkpt>
      <trkpt lat="46.2988" lon="6.45525">
        <ele>591.2</ele>
        <time>2021-04-03T12:58:49Z</time>
      </trkpt>
      <trkpt lat="46.29882" lon="6.45528">
        <ele>591</ele>
        <time>2021-04-03T12:58:50Z</time>
      </trkpt>
      <trkpt lat="46.29884" lon="6.45531">
        <ele>591.2</ele>
        <time>2021-04-03T12:58:51Z</time>
      </trkpt>
      <trkpt lat="46.29886" lon="6.45535">
        <ele>591.4</ele>
        <time>2021-04-03T12:58:52Z</time>
      </trkpt>
      <trkpt lat="46.29889" lon="6.45538">
        <ele>591.6</ele>
        <time>2021-04-03T12:58:53Z</time>
      </trkpt>
      <trkpt lat="46.29891" lon="6.45542">
        <ele>591.8</ele>
        <time>2021-04-03T12:58:54Z</time>
      </trkpt>
      <trkpt lat="46.29893" lon="6.45545">
        <ele>592</ele>
        <time>2021-04-03T12:58:55Z</time>
      </trkpt>
      <trkpt lat="46.29895" lon="6.45548">
        <ele>592.4</ele>
        <time>2021-04-03T12:58:56Z</time>
      </trkpt>
      <trkpt lat="46.29898" lon="6.45551">
        <ele>592.4</ele>
        <time>2021-04-03T12:58:57Z</time>
      </trkpt>
      <trkpt lat="46.299" lon="6.45554">
        <ele>592.4</ele>
        <time>2021-04-03T12:58:58Z</time>
      </trkpt>
      <trkpt lat="46.29902" lon="6.45557">
        <ele>592.4</ele>
        <time>2021-04-03T12:58:59Z</time>
      </trkpt>
      <trkpt lat="46.29905" lon="6.4556">
        <ele>592.8</ele>
        <time>2021-04-03T12:59:00Z</time>
      </trkpt>
      <trkpt lat="46.29907" lon="6.45564">
        <ele>592.8</ele>
        <time>2021-04-03T12:59:01Z</time>
      </trkpt>
      <trkpt lat="46.2991" lon="6.45566">
        <ele>593.4</ele>
        <time>2021-04-03T12:59:02Z</time>
      </trkpt>
      <trkpt lat="46.29912" lon="6.45569">
        <ele>594</ele>
        <time>2021-04-03T12:59:03Z</time>
      </trkpt>
      <trkpt lat="46.29914" lon="6.45572">
        <ele>594.2</ele>
        <time>2021-04-03T12:59:04Z</time>
      </trkpt>
      <trkpt lat="46.29916" lon="6.45575">
        <ele>594.4</ele>
        <time>2021-04-03T12:59:05Z</time>
      </trkpt>
      <trkpt lat="46.29918" lon="6.45578">
        <ele>594.4</ele>
        <time>2021-04-03T12:59:06Z</time>
      </trkpt>
      <trkpt lat="46.2992" lon="6.45581">
        <ele>594.6</ele>
        <time>2021-04-03T12:59:07Z</time>
      </trkpt>
      <trkpt lat="46.29923" lon="6.45584">
        <ele>594.8</ele>
        <time>2021-04-03T12:59:08Z</time>
      </trkpt>
      <trkpt lat="46.29925" lon="6.45587">
        <ele>595</ele>
        <time>2021-04-03T12:59:09Z</time>
      </trkpt>
      <trkpt lat="46.29928" lon="6.4559">
        <ele>595.2</ele>
        <time>2021-04-03T12:59:10Z</time>
      </trkpt>
      <trkpt lat="46.29931" lon="6.45592">
        <ele>595.4</ele>
        <time>2021-04-03T12:59:11Z</time>
      </trkpt>
      <trkpt lat="46.29933" lon="6.45595">
        <ele>595.4</ele>
        <time>2021-04-03T12:59:12Z</time>
      </trkpt>
      <trkpt lat="46.29936" lon="6.45597">
        <ele>595.6</ele>
        <time>2021-04-03T12:59:13Z</time>
      </trkpt>
      <trkpt lat="46.29939" lon="6.456">
        <ele>596</ele>
        <time>2021-04-03T12:59:14Z</time>
      </trkpt>
      <trkpt lat="46.29943" lon="6.45602">
        <ele>596.2</ele>
        <time>2021-04-03T12:59:15Z</time>
      </trkpt>
      <trkpt lat="46.29946" lon="6.45604">
        <ele>596.2</ele>
        <time>2021-04-03T12:59:16Z</time>
      </trkpt>
      <trkpt lat="46.29949" lon="6.45607">
        <ele>596.2</ele>
        <time>2021-04-03T12:59:17Z</time>
      </trkpt>
      <trkpt lat="46.29952" lon="6.45609">
        <ele>596.2</ele>
        <time>2021-04-03T12:59:18Z</time>
      </trkpt>
      <trkpt lat="46.29955" lon="6.45611">
        <ele>596.4</ele>
        <time>2021-04-03T12:59:19Z</time>
      </trkpt>
      <trkpt lat="46.29958" lon="6.45614">
        <ele>596.6</ele>
        <time>2021-04-03T12:59:20Z</time>
      </trkpt>
      <trkpt lat="46.29961" lon="6.45616">
        <ele>596.6</ele>
        <time>2021-04-03T12:59:21Z</time>
      </trkpt>
      <trkpt lat="46.29964" lon="6.45618">
        <ele>596.6</ele>
        <time>2021-04-03T12:59:22Z</time>
      </trkpt>
      <trkpt lat="46.29967" lon="6.45621">
        <ele>596.8</ele>
        <time>2021-04-03T12:59:23Z</time>
      </trkpt>
      <trkpt lat="46.2997" lon="6.45623">
        <ele>596.8</ele>
        <time>2021-04-03T12:59:24Z</time>
      </trkpt>
      <trkpt lat="46.29973" lon="6.45626">
        <ele>597</ele>
        <time>2021-04-03T12:59:25Z</time>
      </trkpt>
      <trkpt lat="46.29976" lon="6.45629">
        <ele>597</ele>
        <time>2021-04-03T12:59:26Z</time>
      </trkpt>
      <trkpt lat="46.29979" lon="6.45631">
        <ele>597.2</ele>
        <time>2021-04-03T12:59:27Z</time>
      </trkpt>
      <trkpt lat="46.29982" lon="6.45634">
        <ele>597.2</ele>
        <time>2021-04-03T12:59:28Z</time>
      </trkpt>
      <trkpt lat="46.29985" lon="6.45637">
        <ele>597.8</ele>
        <time>2021-04-03T12:59:29Z</time>
      </trkpt>
      <trkpt lat="46.29988" lon="6.45639">
        <ele>598</ele>
        <time>2021-04-03T12:59:30Z</time>
      </trkpt>
      <trkpt lat="46.29991" lon="6.45641">
        <ele>598.4</ele>
        <time>2021-04-03T12:59:31Z</time>
      </trkpt>
      <trkpt lat="46.29993" lon="6.45644">
        <ele>598.6</ele>
        <time>2021-04-03T12:59:32Z</time>
      </trkpt>
      <trkpt lat="46.29996" lon="6.45647">
        <ele>598.8</ele>
        <time>2021-04-03T12:59:33Z</time>
      </trkpt>
      <trkpt lat="46.29999" lon="6.45649">
        <ele>599.2</ele>
        <time>2021-04-03T12:59:34Z</time>
      </trkpt>
      <trkpt lat="46.30001" lon="6.45652">
        <ele>599.4</ele>
        <time>2021-04-03T12:59:35Z</time>
      </trkpt>
      <trkpt lat="46.30004" lon="6.45654">
        <ele>599.6</ele>
        <time>2021-04-03T12:59:36Z</time>
      </trkpt>
      <trkpt lat="46.30007" lon="6.45657">
        <ele>599.8</ele>
        <time>2021-04-03T12:59:37Z</time>
      </trkpt>
      <trkpt lat="46.30009" lon="6.45659">
        <ele>600</ele>
        <time>2021-04-03T12:59:38Z</time>
      </trkpt>
      <trkpt lat="46.30012" lon="6.45662">
        <ele>600</ele>
        <time>2021-04-03T12:59:39Z</time>
      </trkpt>
      <trkpt lat="46.30015" lon="6.45665">
        <ele>600.4</ele>
        <time>2021-04-03T12:59:40Z</time>
      </trkpt>
      <trkpt lat="46.30017" lon="6.45668">
        <ele>600.6</ele>
        <time>2021-04-03T12:59:41Z</time>
      </trkpt>
      <trkpt lat="46.3002" lon="6.4567">
        <ele>600.8</ele>
        <time>2021-04-03T12:59:42Z</time>
      </trkpt>
      <trkpt lat="46.30022" lon="6.45673">
        <ele>601</ele>
        <time>2021-04-03T12:59:43Z</time>
      </trkpt>
      <trkpt lat="46.30025" lon="6.45675">
        <ele>601.2</ele>
        <time>2021-04-03T12:59:44Z</time>
      </trkpt>
      <trkpt lat="46.30028" lon="6.45678">
        <ele>601.4</ele>
        <time>2021-04-03T12:59:45Z</time>
      </trkpt>
      <trkpt lat="46.30031" lon="6.45681">
        <ele>601.6</ele>
        <time>2021-04-03T12:59:46Z</time>
      </trkpt>
      <trkpt lat="46.30034" lon="6.45683">
        <ele>601.6</ele>
        <time>2021-04-03T12:59:47Z</time>
      </trkpt>
      <trkpt lat="46.30036" lon="6.45686">
        <ele>601.6</ele>
        <time>2021-04-03T12:59:48Z</time>
      </trkpt>
      <trkpt lat="46.30039" lon="6.45689">
        <ele>601.8</ele>
        <time>2021-04-03T12:59:49Z</time>
      </trkpt>
      <trkpt lat="46.30042" lon="6.45691">
        <ele>601.8</ele>
        <time>2021-04-03T12:59:50Z</time>
      </trkpt>
      <trkpt lat="46.30045" lon="6.45694">
        <ele>601.8</ele>
        <time>2021-04-03T12:59:51Z</time>
      </trkpt>
      <trkpt lat="46.30048" lon="6.45696">
        <ele>602.2</ele>
        <time>2021-04-03T12:59:52Z</time>
      </trkpt>
      <trkpt lat="46.30051" lon="6.45698">
        <ele>602.4</ele>
        <time>2021-04-03T12:59:53Z</time>
      </trkpt>
      <trkpt lat="46.30054" lon="6.45701">
        <ele>602.6</ele>
        <time>2021-04-03T12:59:54Z</time>
      </trkpt>
      <trkpt lat="46.30057" lon="6.45702">
        <ele>602.6</ele>
        <time>2021-04-03T12:59:55Z</time>
      </trkpt>
      <trkpt lat="46.3006" lon="6.45704">
        <ele>603</ele>
        <time>2021-04-03T12:59:56Z</time>
      </trkpt>
      <trkpt lat="46.30064" lon="6.45706">
        <ele>603</ele>
        <time>2021-04-03T12:59:57Z</time>
      </trkpt>
      <trkpt lat="46.30067" lon="6.45708">
        <ele>603.4</ele>
        <time>2021-04-03T12:59:58Z</time>
      </trkpt>
      <trkpt lat="46.3007" lon="6.4571">
        <ele>603.4</ele>
        <time>2021-04-03T12:59:59Z</time>
      </trkpt>
      <trkpt lat="46.30074" lon="6.45712">
        <ele>603.6</ele>
        <time>2021-04-03T13:00:00Z</time>
      </trkpt>
      <trkpt lat="46.30077" lon="6.45713">
        <ele>603.6</ele>
        <time>2021-04-03T13:00:01Z</time>
      </trkpt>
      <trkpt lat="46.3008" lon="6.45714">
        <ele>603.6</ele>
        <time>2021-04-03T13:00:02Z</time>
      </trkpt>
      <trkpt lat="46.30083" lon="6.45716">
        <ele>603.8</ele>
        <time>2021-04-03T13:00:03Z</time>
      </trkpt>
      <trkpt lat="46.30087" lon="6.45718">
        <ele>604</ele>
        <time>2021-04-03T13:00:04Z</time>
      </trkpt>
      <trkpt lat="46.3009" lon="6.45719">
        <ele>604.2</ele>
        <time>2021-04-03T13:00:05Z</time>
      </trkpt>
      <trkpt lat="46.30094" lon="6.45721">
        <ele>604.4</ele>
        <time>2021-04-03T13:00:06Z</time>
      </trkpt>
      <trkpt lat="46.30097" lon="6.45723">
        <ele>604.6</ele>
        <time>2021-04-03T13:00:07Z</time>
      </trkpt>
      <trkpt lat="46.30101" lon="6.45724">
        <ele>604.8</ele>
        <time>2021-04-03T13:00:08Z</time>
      </trkpt>
      <trkpt lat="46.30105" lon="6.45725">
        <ele>604.8</ele>
        <time>2021-04-03T13:00:09Z</time>
      </trkpt>
      <trkpt lat="46.30108" lon="6.45726">
        <ele>605</ele>
        <time>2021-04-03T13:00:10Z</time>
      </trkpt>
      <trkpt lat="46.30112" lon="6.45727">
        <ele>605</ele>
        <time>2021-04-03T13:00:11Z</time>
      </trkpt>
      <trkpt lat="46.30115" lon="6.45727">
        <ele>605</ele>
        <time>2021-04-03T13:00:12Z</time>
      </trkpt>
      <trkpt lat="46.30119" lon="6.45727">
        <ele>605.2</ele>
        <time>2021-04-03T13:00:13Z</time>
      </trkpt>
      <trkpt lat="46.30122" lon="6.45727">
        <ele>605</ele>
        <time>2021-04-03T13:00:14Z</time>
      </trkpt>
      <trkpt lat="46.30125" lon="6.45727">
        <ele>605.4</ele>
        <time>2021-04-03T13:00:15Z</time>
      </trkpt>
      <trkpt lat="46.30129" lon="6.45726">
        <ele>605.4</ele>
        <time>2021-04-03T13:00:16Z</time>
      </trkpt>
      <trkpt lat="46.30132" lon="6.45726">
        <ele>605.6</ele>
        <time>2021-04-03T13:00:17Z</time>
      </trkpt>
      <trkpt lat="46.30135" lon="6.45727">
        <ele>605.8</ele>
        <time>2021-04-03T13:00:18Z</time>
      </trkpt>
      <trkpt lat="46.30139" lon="6.45729">
        <ele>605.8</ele>
        <time>2021-04-03T13:00:19Z</time>
      </trkpt>
      <trkpt lat="46.30142" lon="6.45729">
        <ele>606</ele>
        <time>2021-04-03T13:00:20Z</time>
      </trkpt>
      <trkpt lat="46.30146" lon="6.45729">
        <ele>606</ele>
        <time>2021-04-03T13:00:21Z</time>
      </trkpt>
      <trkpt lat="46.3015" lon="6.4573">
        <ele>606</ele>
        <time>2021-04-03T13:00:22Z</time>
      </trkpt>
      <trkpt lat="46.30153" lon="6.4573">
        <ele>606.2</ele>
        <time>2021-04-03T13:00:23Z</time>
      </trkpt>
      <trkpt lat="46.30157" lon="6.4573">
        <ele>606.4</ele>
        <time>2021-04-03T13:00:24Z</time>
      </trkpt>
      <trkpt lat="46.30161" lon="6.4573">
        <ele>606.4</ele>
        <time>2021-04-03T13:00:25Z</time>
      </trkpt>
      <trkpt lat="46.30165" lon="6.4573">
        <ele>606.4</ele>
        <time>2021-04-03T13:00:26Z</time>
      </trkpt>
      <trkpt lat="46.30168" lon="6.4573">
        <ele>606.6</ele>
        <time>2021-04-03T13:00:27Z</time>
      </trkpt>
      <trkpt lat="46.30171" lon="6.4573">
        <ele>606.6</ele>
        <time>2021-04-03T13:00:28Z</time>
      </trkpt>
      <trkpt lat="46.30175" lon="6.45731">
        <ele>607</ele>
        <time>2021-04-03T13:00:29Z</time>
      </trkpt>
      <trkpt lat="46.30179" lon="6.45731">
        <ele>607</ele>
        <time>2021-04-03T13:00:30Z</time>
      </trkpt>
      <trkpt lat="46.30182" lon="6.45731">
        <ele>607.2</ele>
        <time>2021-04-03T13:00:31Z</time>
      </trkpt>
      <trkpt lat="46.30186" lon="6.45731">
        <ele>607.2</ele>
        <time>2021-04-03T13:00:32Z</time>
      </trkpt>
      <trkpt lat="46.3019" lon="6.45732">
        <ele>607.4</ele>
        <time>2021-04-03T13:00:33Z</time>
      </trkpt>
      <trkpt lat="46.30193" lon="6.45732">
        <ele>607.6</ele>
        <time>2021-04-03T13:00:34Z</time>
      </trkpt>
      <trkpt lat="46.30197" lon="6.45732">
        <ele>608</ele>
        <time>2021-04-03T13:00:35Z</time>
      </trkpt>
      <trkpt lat="46.30201" lon="6.45733">
        <ele>608.2</ele>
        <time>2021-04-03T13:00:36Z</time>
      </trkpt>
      <trkpt lat="46.30205" lon="6.45733">
        <ele>608.2</ele>
        <time>2021-04-03T13:00:37Z</time>
      </trkpt>
      <trkpt lat="46.30209" lon="6.45734">
        <ele>608.6</ele>
        <time>2021-04-03T13:00:38Z</time>
      </trkpt>
      <trkpt lat="46.30213" lon="6.45735">
        <ele>608.6</ele>
        <time>2021-04-03T13:00:39Z</time>
      </trkpt>
      <trkpt lat="46.30217" lon="6.45735">
        <ele>608.6</ele>
        <time>2021-04-03T13:00:40Z</time>
      </trkpt>
      <trkpt lat="46.3022" lon="6.45736">
        <ele>608.6</ele>
        <time>2021-04-03T13:00:41Z</time>
      </trkpt>
      <trkpt lat="46.30224" lon="6.45736">
        <ele>608.8</ele>
        <time>2021-04-03T13:00:42Z</time>
      </trkpt>
      <trkpt lat="46.30228" lon="6.45737">
        <ele>608.8</ele>
        <time>2021-04-03T13:00:43Z</time>
      </trkpt>
      <trkpt lat="46.30232" lon="6.45737">
        <ele>608.8</ele>
        <time>2021-04-03T13:00:44Z</time>
      </trkpt>
      <trkpt lat="46.30236" lon="6.45738">
        <ele>609</ele>
        <time>2021-04-03T13:00:45Z</time>
      </trkpt>
      <trkpt lat="46.3024" lon="6.45738">
        <ele>609.2</ele>
        <time>2021-04-03T13:00:46Z</time>
      </trkpt>
      <trkpt lat="46.30243" lon="6.45738">
        <ele>609.4</ele>
        <time>2021-04-03T13:00:47Z</time>
      </trkpt>
      <trkpt lat="46.30247" lon="6.45739">
        <ele>609.8</ele>
        <time>2021-04-03T13:00:48Z</time>
      </trkpt>
      <trkpt lat="46.30251" lon="6.45739">
        <ele>609.8</ele>
        <time>2021-04-03T13:00:49Z</time>
      </trkpt>
      <trkpt lat="46.30255" lon="6.45739">
        <ele>609.8</ele>
        <time>2021-04-03T13:00:50Z</time>
      </trkpt>
      <trkpt lat="46.30259" lon="6.4574">
        <ele>609.8</ele>
        <time>2021-04-03T13:00:51Z</time>
      </trkpt>
      <trkpt lat="46.30263" lon="6.4574">
        <ele>610</ele>
        <time>2021-04-03T13:00:52Z</time>
      </trkpt>
      <trkpt lat="46.30267" lon="6.4574">
        <ele>610</ele>
        <time>2021-04-03T13:00:53Z</time>
      </trkpt>
      <trkpt lat="46.30271" lon="6.45741">
        <ele>610.6</ele>
        <time>2021-04-03T13:00:54Z</time>
      </trkpt>
      <trkpt lat="46.30275" lon="6.45741">
        <ele>610.8</ele>
        <time>2021-04-03T13:00:55Z</time>
      </trkpt>
      <trkpt lat="46.30279" lon="6.45742">
        <ele>611</ele>
        <time>2021-04-03T13:00:56Z</time>
      </trkpt>
      <trkpt lat="46.30283" lon="6.45742">
        <ele>611.2</ele>
        <time>2021-04-03T13:00:57Z</time>
      </trkpt>
      <trkpt lat="46.30287" lon="6.45743">
        <ele>611.4</ele>
        <time>2021-04-03T13:00:58Z</time>
      </trkpt>
      <trkpt lat="46.30291" lon="6.45744">
        <ele>611.8</ele>
        <time>2021-04-03T13:00:59Z</time>
      </trkpt>
      <trkpt lat="46.30295" lon="6.45744">
        <ele>612</ele>
        <time>2021-04-03T13:01:00Z</time>
      </trkpt>
      <trkpt lat="46.303" lon="6.45745">
        <ele>612.4</ele>
        <time>2021-04-03T13:01:01Z</time>
      </trkpt>
      <trkpt lat="46.30304" lon="6.45746">
        <ele>612.6</ele>
        <time>2021-04-03T13:01:02Z</time>
      </trkpt>
      <trkpt lat="46.30308" lon="6.45747">
        <ele>612.4</ele>
        <time>2021-04-03T13:01:03Z</time>
      </trkpt>
      <trkpt lat="46.30312" lon="6.45748">
        <ele>612.4</ele>
        <time>2021-04-03T13:01:04Z</time>
      </trkpt>
      <trkpt lat="46.30315" lon="6.45749">
        <ele>612.6</ele>
        <time>2021-04-03T13:01:05Z</time>
      </trkpt>
      <trkpt lat="46.30319" lon="6.45749">
        <ele>612.6</ele>
        <time>2021-04-03T13:01:06Z</time>
      </trkpt>
      <trkpt lat="46.30323" lon="6.45751">
        <ele>612.6</ele>
        <time>2021-04-03T13:01:07Z</time>
      </trkpt>
      <trkpt lat="46.30328" lon="6.45753">
        <ele>612.8</ele>
        <time>2021-04-03T13:01:08Z</time>
      </trkpt>
      <trkpt lat="46.30333" lon="6.45756">
        <ele>612.6</ele>
        <time>2021-04-03T13:01:09Z</time>
      </trkpt>
      <trkpt lat="46.30339" lon="6.45759">
        <ele>612.6</ele>
        <time>2021-04-03T13:01:10Z</time>
      </trkpt>
      <trkpt lat="46.30345" lon="6.45762">
        <ele>612.6</ele>
        <time>2021-04-03T13:01:11Z</time>
      </trkpt>
      <trkpt lat="46.30351" lon="6.45765">
        <ele>612.6</ele>
        <time>2021-04-03T13:01:12Z</time>
      </trkpt>
      <trkpt lat="46.30357" lon="6.45768">
        <ele>612.2</ele>
        <time>2021-04-03T13:01:13Z</time>
      </trkpt>
      <trkpt lat="46.30364" lon="6.45771">
        <ele>612.2</ele>
        <time>2021-04-03T13:01:14Z</time>
      </trkpt>
      <trkpt lat="46.30371" lon="6.45773">
        <ele>612.2</ele>
        <time>2021-04-03T13:01:15Z</time>
      </trkpt>
      <trkpt lat="46.30378" lon="6.45776">
        <ele>612</ele>
        <time>2021-04-03T13:01:16Z</time>
      </trkpt>
      <trkpt lat="46.30386" lon="6.45779">
        <ele>611.6</ele>
        <time>2021-04-03T13:01:17Z</time>
      </trkpt>
      <trkpt lat="46.30393" lon="6.45781">
        <ele>611.4</ele>
        <time>2021-04-03T13:01:18Z</time>
      </trkpt>
      <trkpt lat="46.30401" lon="6.45784">
        <ele>610.6</ele>
        <time>2021-04-03T13:01:19Z</time>
      </trkpt>
      <trkpt lat="46.30409" lon="6.45786">
        <ele>609.4</ele>
        <time>2021-04-03T13:01:20Z</time>
      </trkpt>
      <trkpt lat="46.30418" lon="6.45789">
        <ele>608.8</ele>
        <time>2021-04-03T13:01:21Z</time>
      </trkpt>
      <trkpt lat="46.30426" lon="6.45791">
        <ele>608.4</ele>
        <time>2021-04-03T13:01:22Z</time>
      </trkpt>
      <trkpt lat="46.30434" lon="6.45794">
        <ele>607.6</ele>
        <time>2021-04-03T13:01:23Z</time>
      </trkpt>
      <trkpt lat="46.30443" lon="6.45797">
        <ele>606.8</ele>
        <time>2021-04-03T13:01:24Z</time>
      </trkpt>
      <trkpt lat="46.30451" lon="6.45801">
        <ele>606.4</ele>
        <time>2021-04-03T13:01:25Z</time>
      </trkpt>
      <trkpt lat="46.30458" lon="6.45806">
        <ele>606.2</ele>
        <time>2021-04-03T13:01:26Z</time>
      </trkpt>
      <trkpt lat="46.30465" lon="6.45813">
        <ele>606</ele>
        <time>2021-04-03T13:01:27Z</time>
      </trkpt>
      <trkpt lat="46.30471" lon="6.45821">
        <ele>605.6</ele>
        <time>2021-04-03T13:01:28Z</time>
      </trkpt>
      <trkpt lat="46.30477" lon="6.4583">
        <ele>605.2</ele>
        <time>2021-04-03T13:01:29Z</time>
      </trkpt>
      <trkpt lat="46.30482" lon="6.45839">
        <ele>603.8</ele>
        <time>2021-04-03T13:01:30Z</time>
      </trkpt>
      <trkpt lat="46.30486" lon="6.45848">
        <ele>603</ele>
        <time>2021-04-03T13:01:31Z</time>
      </trkpt>
      <trkpt lat="46.30491" lon="6.45857">
        <ele>602.2</ele>
        <time>2021-04-03T13:01:32Z</time>
      </trkpt>
      <trkpt lat="46.30496" lon="6.45865">
        <ele>602.2</ele>
        <time>2021-04-03T13:01:33Z</time>
      </trkpt>
      <trkpt lat="46.305" lon="6.45873">
        <ele>601.8</ele>
        <time>2021-04-03T13:01:34Z</time>
      </trkpt>
      <trkpt lat="46.30504" lon="6.4588">
        <ele>601.8</ele>
        <time>2021-04-03T13:01:35Z</time>
      </trkpt>
      <trkpt lat="46.30508" lon="6.45887">
        <ele>601.8</ele>
        <time>2021-04-03T13:01:36Z</time>
      </trkpt>
      <trkpt lat="46.30512" lon="6.45893">
        <ele>601.8</ele>
        <time>2021-04-03T13:01:37Z</time>
      </trkpt>
      <trkpt lat="46.30515" lon="6.459">
        <ele>601.6</ele>
        <time>2021-04-03T13:01:38Z</time>
      </trkpt>
      <trkpt lat="46.30519" lon="6.45907">
        <ele>601.8</ele>
        <time>2021-04-03T13:01:39Z</time>
      </trkpt>
      <trkpt lat="46.30522" lon="6.45913">
        <ele>601.8</ele>
        <time>2021-04-03T13:01:40Z</time>
      </trkpt>
      <trkpt lat="46.30525" lon="6.4592">
        <ele>601.6</ele>
        <time>2021-04-03T13:01:41Z</time>
      </trkpt>
      <trkpt lat="46.30528" lon="6.45926">
        <ele>601.8</ele>
        <time>2021-04-03T13:01:42Z</time>
      </trkpt>
      <trkpt lat="46.30532" lon="6.45933">
        <ele>601.8</ele>
        <time>2021-04-03T13:01:43Z</time>
      </trkpt>
      <trkpt lat="46.30536" lon="6.45939">
        <ele>602</ele>
        <time>2021-04-03T13:01:44Z</time>
      </trkpt>
      <trkpt lat="46.3054" lon="6.45945">
        <ele>602.4</ele>
        <time>2021-04-03T13:01:45Z</time>
      </trkpt>
      <trkpt lat="46.30544" lon="6.45951">
        <ele>602.4</ele>
        <time>2021-04-03T13:01:46Z</time>
      </trkpt>
      <trkpt lat="46.30547" lon="6.45957">
        <ele>602.6</ele>
        <time>2021-04-03T13:01:47Z</time>
      </trkpt>
      <trkpt lat="46.30551" lon="6.45962">
        <ele>602.8</ele>
        <time>2021-04-03T13:01:48Z</time>
      </trkpt>
      <trkpt lat="46.30554" lon="6.45968">
        <ele>602.8</ele>
        <time>2021-04-03T13:01:49Z</time>
      </trkpt>
      <trkpt lat="46.30557" lon="6.45974">
        <ele>602.8</ele>
        <time>2021-04-03T13:01:50Z</time>
      </trkpt>
      <trkpt lat="46.3056" lon="6.4598">
        <ele>602.8</ele>
        <time>2021-04-03T13:01:51Z</time>
      </trkpt>
      <trkpt lat="46.30563" lon="6.45986">
        <ele>603</ele>
        <time>2021-04-03T13:01:52Z</time>
      </trkpt>
      <trkpt lat="46.30565" lon="6.45992">
        <ele>603.4</ele>
        <time>2021-04-03T13:01:53Z</time>
      </trkpt>
      <trkpt lat="46.30567" lon="6.45998">
        <ele>603.4</ele>
        <time>2021-04-03T13:01:54Z</time>
      </trkpt>
      <trkpt lat="46.3057" lon="6.46004">
        <ele>603.8</ele>
        <time>2021-04-03T13:01:55Z</time>
      </trkpt>
      <trkpt lat="46.30572" lon="6.4601">
        <ele>603.8</ele>
        <time>2021-04-03T13:01:56Z</time>
      </trkpt>
      <trkpt lat="46.30573" lon="6.46016">
        <ele>604</ele>
        <time>2021-04-03T13:01:57Z</time>
      </trkpt>
      <trkpt lat="46.30575" lon="6.46022">
        <ele>604.4</ele>
        <time>2021-04-03T13:01:58Z</time>
      </trkpt>
      <trkpt lat="46.30576" lon="6.46029">
        <ele>604.6</ele>
        <time>2021-04-03T13:01:59Z</time>
      </trkpt>
      <trkpt lat="46.30577" lon="6.46035">
        <ele>605</ele>
        <time>2021-04-03T13:02:00Z</time>
      </trkpt>
      <trkpt lat="46.30578" lon="6.46042">
        <ele>605.6</ele>
        <time>2021-04-03T13:02:01Z</time>
      </trkpt>
      <trkpt lat="46.30578" lon="6.46049">
        <ele>605.8</ele>
        <time>2021-04-03T13:02:02Z</time>
      </trkpt>
      <trkpt lat="46.30579" lon="6.46056">
        <ele>606.2</ele>
        <time>2021-04-03T13:02:03Z</time>
      </trkpt>
      <trkpt lat="46.3058" lon="6.46063">
        <ele>606.4</ele>
        <time>2021-04-03T13:02:04Z</time>
      </trkpt>
      <trkpt lat="46.3058" lon="6.4607">
        <ele>606.4</ele>
        <time>2021-04-03T13:02:05Z</time>
      </trkpt>
      <trkpt lat="46.3058" lon="6.46077">
        <ele>606.6</ele>
        <time>2021-04-03T13:02:06Z</time>
      </trkpt>
      <trkpt lat="46.3058" lon="6.46084">
        <ele>607.2</ele>
        <time>2021-04-03T13:02:07Z</time>
      </trkpt>
      <trkpt lat="46.3058" lon="6.4609">
        <ele>607.4</ele>
        <time>2021-04-03T13:02:08Z</time>
      </trkpt>
      <trkpt lat="46.3058" lon="6.46096">
        <ele>607.8</ele>
        <time>2021-04-03T13:02:09Z</time>
      </trkpt>
      <trkpt lat="46.3058" lon="6.46102">
        <ele>608</ele>
        <time>2021-04-03T13:02:10Z</time>
      </trkpt>
      <trkpt lat="46.30579" lon="6.46108">
        <ele>608.4</ele>
        <time>2021-04-03T13:02:11Z</time>
      </trkpt>
      <trkpt lat="46.30579" lon="6.46113">
        <ele>608.4</ele>
        <time>2021-04-03T13:02:12Z</time>
      </trkpt>
      <trkpt lat="46.30579" lon="6.46119">
        <ele>608.8</ele>
        <time>2021-04-03T13:02:13Z</time>
      </trkpt>
      <trkpt lat="46.30578" lon="6.46125">
        <ele>608.8</ele>
        <time>2021-04-03T13:02:14Z</time>
      </trkpt>
      <trkpt lat="46.30578" lon="6.4613">
        <ele>609.2</ele>
        <time>2021-04-03T13:02:15Z</time>
      </trkpt>
      <trkpt lat="46.30578" lon="6.46136">
        <ele>609.2</ele>
        <time>2021-04-03T13:02:16Z</time>
      </trkpt>
      <trkpt lat="46.30578" lon="6.46142">
        <ele>609.8</ele>
        <time>2021-04-03T13:02:17Z</time>
      </trkpt>
      <trkpt lat="46.30578" lon="6.46147">
        <ele>610</ele>
        <time>2021-04-03T13:02:18Z</time>
      </trkpt>
      <trkpt lat="46.30577" lon="6.46152">
        <ele>610.2</ele>
        <time>2021-04-03T13:02:19Z</time>
      </trkpt>
      <trkpt lat="46.30577" lon="6.46157">
        <ele>610.4</ele>
        <time>2021-04-03T13:02:20Z</time>
      </trkpt>
      <trkpt lat="46.30578" lon="6.46163">
        <ele>610.8</ele>
        <time>2021-04-03T13:02:21Z</time>
      </trkpt>
      <trkpt lat="46.30578" lon="6.46168">
        <ele>610.8</ele>
        <time>2021-04-03T13:02:22Z</time>
      </trkpt>
      <trkpt lat="46.30578" lon="6.46174">
        <ele>611.2</ele>
        <time>2021-04-03T13:02:23Z</time>
      </trkpt>
      <trkpt lat="46.30578" lon="6.46179">
        <ele>611.4</ele>
        <time>2021-04-03T13:02:24Z</time>
      </trkpt>
      <trkpt lat="46.30578" lon="6.46184">
        <ele>611.6</ele>
        <time>2021-04-03T13:02:25Z</time>
      </trkpt>
      <trkpt lat="46.30578" lon="6.4619">
        <ele>611.6</ele>
        <time>2021-04-03T13:02:26Z</time>
      </trkpt>
      <trkpt lat="46.30578" lon="6.46195">
        <ele>612</ele>
        <time>2021-04-03T13:02:27Z</time>
      </trkpt>
      <trkpt lat="46.30578" lon="6.46201">
        <ele>612.2</ele>
        <time>2021-04-03T13:02:28Z</time>
      </trkpt>
      <trkpt lat="46.30579" lon="6.46207">
        <ele>612.4</ele>
        <time>2021-04-03T13:02:29Z</time>
      </trkpt>
      <trkpt lat="46.30579" lon="6.46212">
        <ele>612.8</ele>
        <time>2021-04-03T13:02:30Z</time>
      </trkpt>
      <trkpt lat="46.3058" lon="6.46218">
        <ele>613</ele>
        <time>2021-04-03T13:02:31Z</time>
      </trkpt>
      <trkpt lat="46.3058" lon="6.46223">
        <ele>613.2</ele>
        <time>2021-04-03T13:02:32Z</time>
      </trkpt>
      <trkpt lat="46.3058" lon="6.46228">
        <ele>613.2</ele>
        <time>2021-04-03T13:02:33Z</time>
      </trkpt>
      <trkpt lat="46.30581" lon="6.46234">
        <ele>613.2</ele>
        <time>2021-04-03T13:02:34Z</time>
      </trkpt>
      <trkpt lat="46.30581" lon="6.46239">
        <ele>613.4</ele>
        <time>2021-04-03T13:02:35Z</time>
      </trkpt>
      <trkpt lat="46.30581" lon="6.46244">
        <ele>613.4</ele>
        <time>2021-04-03T13:02:36Z</time>
      </trkpt>
      <trkpt lat="46.30582" lon="6.46249">
        <ele>613.8</ele>
        <time>2021-04-03T13:02:37Z</time>
      </trkpt>
      <trkpt lat="46.30582" lon="6.46254">
        <ele>613.8</ele>
        <time>2021-04-03T13:02:38Z</time>
      </trkpt>
      <trkpt lat="46.30583" lon="6.46259">
        <ele>614.2</ele>
        <time>2021-04-03T13:02:39Z</time>
      </trkpt>
      <trkpt lat="46.30583" lon="6.46264">
        <ele>614.2</ele>
        <time>2021-04-03T13:02:40Z</time>
      </trkpt>
      <trkpt lat="46.30583" lon="6.46269">
        <ele>614.2</ele>
        <time>2021-04-03T13:02:41Z</time>
      </trkpt>
      <trkpt lat="46.30584" lon="6.46274">
        <ele>614.6</ele>
        <time>2021-04-03T13:02:42Z</time>
      </trkpt>
      <trkpt lat="46.30584" lon="6.46279">
        <ele>614.8</ele>
        <time>2021-04-03T13:02:43Z</time>
      </trkpt>
      <trkpt lat="46.30585" lon="6.46284">
        <ele>615</ele>
        <time>2021-04-03T13:02:44Z</time>
      </trkpt>
      <trkpt lat="46.30585" lon="6.46289">
        <ele>615.2</ele>
        <time>2021-04-03T13:02:45Z</time>
      </trkpt>
      <trkpt lat="46.30586" lon="6.46294">
        <ele>615.2</ele>
        <time>2021-04-03T13:02:46Z</time>
      </trkpt>
      <trkpt lat="46.30586" lon="6.46298">
        <ele>615.4</ele>
        <time>2021-04-03T13:02:47Z</time>
      </trkpt>
      <trkpt lat="46.30586" lon="6.46303">
        <ele>615.6</ele>
        <time>2021-04-03T13:02:48Z</time>
      </trkpt>
      <trkpt lat="46.30587" lon="6.46307">
        <ele>616</ele>
        <time>2021-04-03T13:02:49Z</time>
      </trkpt>
      <trkpt lat="46.30587" lon="6.46312">
        <ele>616</ele>
        <time>2021-04-03T13:02:50Z</time>
      </trkpt>
      <trkpt lat="46.30587" lon="6.46316">
        <ele>616.4</ele>
        <time>2021-04-03T13:02:51Z</time>
      </trkpt>
      <trkpt lat="46.30588" lon="6.4632">
        <ele>616.4</ele>
        <time>2021-04-03T13:02:52Z</time>
      </trkpt>
      <trkpt lat="46.30588" lon="6.46325">
        <ele>617</ele>
        <time>2021-04-03T13:02:53Z</time>
      </trkpt>
      <trkpt lat="46.30589" lon="6.46329">
        <ele>617.4</ele>
        <time>2021-04-03T13:02:54Z</time>
      </trkpt>
      <trkpt lat="46.30589" lon="6.46333">
        <ele>617.6</ele>
        <time>2021-04-03T13:02:55Z</time>
      </trkpt>
      <trkpt lat="46.30589" lon="6.46338">
        <ele>617.8</ele>
        <time>2021-04-03T13:02:56Z</time>
      </trkpt>
      <trkpt lat="46.30589" lon="6.46343">
        <ele>618</ele>
        <time>2021-04-03T13:02:57Z</time>
      </trkpt>
      <trkpt lat="46.3059" lon="6.46347">
        <ele>618</ele>
        <time>2021-04-03T13:02:58Z</time>
      </trkpt>
      <trkpt lat="46.3059" lon="6.46352">
        <ele>618.2</ele>
        <time>2021-04-03T13:02:59Z</time>
      </trkpt>
      <trkpt lat="46.3059" lon="6.46357">
        <ele>618.4</ele>
        <time>2021-04-03T13:03:00Z</time>
      </trkpt>
      <trkpt lat="46.30591" lon="6.46362">
        <ele>618.6</ele>
        <time>2021-04-03T13:03:01Z</time>
      </trkpt>
      <trkpt lat="46.30591" lon="6.46366">
        <ele>618.8</ele>
        <time>2021-04-03T13:03:02Z</time>
      </trkpt>
      <trkpt lat="46.30591" lon="6.46371">
        <ele>618.8</ele>
        <time>2021-04-03T13:03:03Z</time>
      </trkpt>
      <trkpt lat="46.30591" lon="6.46376">
        <ele>619.2</ele>
        <time>2021-04-03T13:03:04Z</time>
      </trkpt>
      <trkpt lat="46.30592" lon="6.46381">
        <ele>619.6</ele>
        <time>2021-04-03T13:03:05Z</time>
      </trkpt>
      <trkpt lat="46.30592" lon="6.46385">
        <ele>619.8</ele>
        <time>2021-04-03T13:03:06Z</time>
      </trkpt>
      <trkpt lat="46.30593" lon="6.4639">
        <ele>620.2</ele>
        <time>2021-04-03T13:03:07Z</time>
      </trkpt>
      <trkpt lat="46.30594" lon="6.46394">
        <ele>620.4</ele>
        <time>2021-04-03T13:03:08Z</time>
      </trkpt>
      <trkpt lat="46.30594" lon="6.46399">
        <ele>620.4</ele>
        <time>2021-04-03T13:03:09Z</time>
      </trkpt>
      <trkpt lat="46.30595" lon="6.46403">
        <ele>620.6</ele>
        <time>2021-04-03T13:03:10Z</time>
      </trkpt>
      <trkpt lat="46.30595" lon="6.46408">
        <ele>620.8</ele>
        <time>2021-04-03T13:03:11Z</time>
      </trkpt>
      <trkpt lat="46.30596" lon="6.46412">
        <ele>621</ele>
        <time>2021-04-03T13:03:12Z</time>
      </trkpt>
      <trkpt lat="46.30597" lon="6.46417">
        <ele>621.2</ele>
        <time>2021-04-03T13:03:13Z</time>
      </trkpt>
      <trkpt lat="46.30597" lon="6.46421">
        <ele>621.4</ele>
        <time>2021-04-03T13:03:14Z</time>
      </trkpt>
      <trkpt lat="46.30598" lon="6.46426">
        <ele>621.6</ele>
        <time>2021-04-03T13:03:15Z</time>
      </trkpt>
      <trkpt lat="46.30598" lon="6.4643">
        <ele>621.6</ele>
        <time>2021-04-03T13:03:16Z</time>
      </trkpt>
      <trkpt lat="46.30599" lon="6.46434">
        <ele>622</ele>
        <time>2021-04-03T13:03:17Z</time>
      </trkpt>
      <trkpt lat="46.306" lon="6.46439">
        <ele>622</ele>
        <time>2021-04-03T13:03:18Z</time>
      </trkpt>
      <trkpt lat="46.306" lon="6.46443">
        <ele>622</ele>
        <time>2021-04-03T13:03:19Z</time>
      </trkpt>
      <trkpt lat="46.30601" lon="6.46448">
        <ele>622.2</ele>
        <time>2021-04-03T13:03:20Z</time>
      </trkpt>
      <trkpt lat="46.30601" lon="6.46453">
        <ele>622.4</ele>
        <time>2021-04-03T13:03:21Z</time>
      </trkpt>
      <trkpt lat="46.30602" lon="6.46457">
        <ele>622.8</ele>
        <time>2021-04-03T13:03:22Z</time>
      </trkpt>
      <trkpt lat="46.30603" lon="6.46462">
        <ele>623</ele>
        <time>2021-04-03T13:03:23Z</time>
      </trkpt>
      <trkpt lat="46.30603" lon="6.46467">
        <ele>623</ele>
        <time>2021-04-03T13:03:24Z</time>
      </trkpt>
      <trkpt lat="46.30604" lon="6.46471">
        <ele>623.2</ele>
        <time>2021-04-03T13:03:25Z</time>
      </trkpt>
      <trkpt lat="46.30604" lon="6.46475">
        <ele>623.4</ele>
        <time>2021-04-03T13:03:26Z</time>
      </trkpt>
      <trkpt lat="46.30605" lon="6.46479">
        <ele>623.4</ele>
        <time>2021-04-03T13:03:27Z</time>
      </trkpt>
      <trkpt lat="46.30605" lon="6.46484">
        <ele>623.4</ele>
        <time>2021-04-03T13:03:28Z</time>
      </trkpt>
      <trkpt lat="46.30605" lon="6.46489">
        <ele>623.6</ele>
        <time>2021-04-03T13:03:29Z</time>
      </trkpt>
      <trkpt lat="46.30605" lon="6.46494">
        <ele>623.4</ele>
        <time>2021-04-03T13:03:30Z</time>
      </trkpt>
      <trkpt lat="46.30605" lon="6.46498">
        <ele>623.6</ele>
        <time>2021-04-03T13:03:31Z</time>
      </trkpt>
      <trkpt lat="46.30606" lon="6.46503">
        <ele>623.8</ele>
        <time>2021-04-03T13:03:32Z</time>
      </trkpt>
      <trkpt lat="46.30606" lon="6.46508">
        <ele>623.6</ele>
        <time>2021-04-03T13:03:33Z</time>
      </trkpt>
      <trkpt lat="46.30606" lon="6.46513">
        <ele>623.8</ele>
        <time>2021-04-03T13:03:34Z</time>
      </trkpt>
      <trkpt lat="46.30607" lon="6.46518">
        <ele>623.8</ele>
        <time>2021-04-03T13:03:35Z</time>
      </trkpt>
      <trkpt lat="46.30608" lon="6.46523">
        <ele>623.8</ele>
        <time>2021-04-03T13:03:36Z</time>
      </trkpt>
      <trkpt lat="46.30608" lon="6.46528">
        <ele>624</ele>
        <time>2021-04-03T13:03:37Z</time>
      </trkpt>
      <trkpt lat="46.30609" lon="6.46533">
        <ele>624</ele>
        <time>2021-04-03T13:03:38Z</time>
      </trkpt>
      <trkpt lat="46.30609" lon="6.46539">
        <ele>624.2</ele>
        <time>2021-04-03T13:03:39Z</time>
      </trkpt>
      <trkpt lat="46.30609" lon="6.46544">
        <ele>624.2</ele>
        <time>2021-04-03T13:03:40Z</time>
      </trkpt>
      <trkpt lat="46.3061" lon="6.46549">
        <ele>624.2</ele>
        <time>2021-04-03T13:03:41Z</time>
      </trkpt>
      <trkpt lat="46.3061" lon="6.46554">
        <ele>624.6</ele>
        <time>2021-04-03T13:03:42Z</time>
      </trkpt>
      <trkpt lat="46.3061" lon="6.4656">
        <ele>624.6</ele>
        <time>2021-04-03T13:03:43Z</time>
      </trkpt>
      <trkpt lat="46.3061" lon="6.46565">
        <ele>624.8</ele>
        <time>2021-04-03T13:03:44Z</time>
      </trkpt>
      <trkpt lat="46.3061" lon="6.4657">
        <ele>625</ele>
        <time>2021-04-03T13:03:45Z</time>
      </trkpt>
      <trkpt lat="46.3061" lon="6.46576">
        <ele>625.2</ele>
        <time>2021-04-03T13:03:46Z</time>
      </trkpt>
      <trkpt lat="46.30611" lon="6.46581">
        <ele>625.2</ele>
        <time>2021-04-03T13:03:47Z</time>
      </trkpt>
      <trkpt lat="46.30612" lon="6.46587">
        <ele>625.2</ele>
        <time>2021-04-03T13:03:48Z</time>
      </trkpt>
      <trkpt lat="46.30612" lon="6.46592">
        <ele>625.4</ele>
        <time>2021-04-03T13:03:49Z</time>
      </trkpt>
      <trkpt lat="46.30613" lon="6.46598">
        <ele>625.2</ele>
        <time>2021-04-03T13:03:50Z</time>
      </trkpt>
      <trkpt lat="46.30614" lon="6.46604">
        <ele>625.4</ele>
        <time>2021-04-03T13:03:51Z</time>
      </trkpt>
      <trkpt lat="46.30616" lon="6.4661">
        <ele>625.4</ele>
        <time>2021-04-03T13:03:52Z</time>
      </trkpt>
      <trkpt lat="46.30617" lon="6.46615">
        <ele>625.4</ele>
        <time>2021-04-03T13:03:53Z</time>
      </trkpt>
      <trkpt lat="46.30618" lon="6.46621">
        <ele>625.6</ele>
        <time>2021-04-03T13:03:54Z</time>
      </trkpt>
      <trkpt lat="46.30619" lon="6.46626">
        <ele>625.6</ele>
        <time>2021-04-03T13:03:55Z</time>
      </trkpt>
      <trkpt lat="46.30619" lon="6.46631">
        <ele>625.6</ele>
        <time>2021-04-03T13:03:56Z</time>
      </trkpt>
      <trkpt lat="46.3062" lon="6.46636">
        <ele>625.6</ele>
        <time>2021-04-03T13:03:57Z</time>
      </trkpt>
      <trkpt lat="46.30621" lon="6.46641">
        <ele>625.6</ele>
        <time>2021-04-03T13:03:58Z</time>
      </trkpt>
      <trkpt lat="46.30622" lon="6.46647">
        <ele>625.6</ele>
        <time>2021-04-03T13:03:59Z</time>
      </trkpt>
      <trkpt lat="46.30623" lon="6.46653">
        <ele>625.6</ele>
        <time>2021-04-03T13:04:00Z</time>
      </trkpt>
      <trkpt lat="46.30625" lon="6.46659">
        <ele>625.6</ele>
        <time>2021-04-03T13:04:01Z</time>
      </trkpt>
      <trkpt lat="46.30627" lon="6.46666">
        <ele>625.8</ele>
        <time>2021-04-03T13:04:02Z</time>
      </trkpt>
      <trkpt lat="46.30628" lon="6.46674">
        <ele>625.6</ele>
        <time>2021-04-03T13:04:03Z</time>
      </trkpt>
      <trkpt lat="46.3063" lon="6.46681">
        <ele>625.6</ele>
        <time>2021-04-03T13:04:04Z</time>
      </trkpt>
      <trkpt lat="46.30631" lon="6.46689">
        <ele>625.4</ele>
        <time>2021-04-03T13:04:05Z</time>
      </trkpt>
      <trkpt lat="46.30633" lon="6.46697">
        <ele>625.4</ele>
        <time>2021-04-03T13:04:06Z</time>
      </trkpt>
      <trkpt lat="46.30634" lon="6.46706">
        <ele>625.4</ele>
        <time>2021-04-03T13:04:07Z</time>
      </trkpt>
      <trkpt lat="46.30635" lon="6.46714">
        <ele>625.2</ele>
        <time>2021-04-03T13:04:08Z</time>
      </trkpt>
      <trkpt lat="46.30636" lon="6.46722">
        <ele>625.2</ele>
        <time>2021-04-03T13:04:09Z</time>
      </trkpt>
      <trkpt lat="46.30637" lon="6.4673">
        <ele>625</ele>
        <time>2021-04-03T13:04:10Z</time>
      </trkpt>
      <trkpt lat="46.30638" lon="6.46738">
        <ele>624.4</ele>
        <time>2021-04-03T13:04:11Z</time>
      </trkpt>
      <trkpt lat="46.30638" lon="6.46746">
        <ele>624.2</ele>
        <time>2021-04-03T13:04:12Z</time>
      </trkpt>
      <trkpt lat="46.30639" lon="6.46754">
        <ele>624</ele>
        <time>2021-04-03T13:04:13Z</time>
      </trkpt>
      <trkpt lat="46.30639" lon="6.46762">
        <ele>624</ele>
        <time>2021-04-03T13:04:14Z</time>
      </trkpt>
      <trkpt lat="46.3064" lon="6.46771">
        <ele>623.6</ele>
        <time>2021-04-03T13:04:15Z</time>
      </trkpt>
      <trkpt lat="46.30641" lon="6.46779">
        <ele>623.6</ele>
        <time>2021-04-03T13:04:16Z</time>
      </trkpt>
      <trkpt lat="46.30642" lon="6.46787">
        <ele>623.2</ele>
        <time>2021-04-03T13:04:17Z</time>
      </trkpt>
      <trkpt lat="46.30643" lon="6.46795">
        <ele>623.2</ele>
        <time>2021-04-03T13:04:18Z</time>
      </trkpt>
      <trkpt lat="46.30644" lon="6.46803">
        <ele>622.8</ele>
        <time>2021-04-03T13:04:19Z</time>
      </trkpt>
      <trkpt lat="46.30645" lon="6.46811">
        <ele>622.8</ele>
        <time>2021-04-03T13:04:20Z</time>
      </trkpt>
      <trkpt lat="46.30646" lon="6.4682">
        <ele>622.6</ele>
        <time>2021-04-03T13:04:21Z</time>
      </trkpt>
      <trkpt lat="46.30647" lon="6.46828">
        <ele>622.6</ele>
        <time>2021-04-03T13:04:22Z</time>
      </trkpt>
      <trkpt lat="46.30648" lon="6.46837">
        <ele>622.6</ele>
        <time>2021-04-03T13:04:23Z</time>
      </trkpt>
      <trkpt lat="46.30649" lon="6.46846">
        <ele>622.6</ele>
        <time>2021-04-03T13:04:24Z</time>
      </trkpt>
      <trkpt lat="46.30651" lon="6.46854">
        <ele>622.6</ele>
        <time>2021-04-03T13:04:25Z</time>
      </trkpt>
      <trkpt lat="46.30653" lon="6.46862">
        <ele>622.4</ele>
        <time>2021-04-03T13:04:26Z</time>
      </trkpt>
      <trkpt lat="46.30654" lon="6.46871">
        <ele>622.4</ele>
        <time>2021-04-03T13:04:27Z</time>
      </trkpt>
      <trkpt lat="46.30656" lon="6.46878">
        <ele>622.4</ele>
        <time>2021-04-03T13:04:28Z</time>
      </trkpt>
      <trkpt lat="46.30658" lon="6.46886">
        <ele>622.4</ele>
        <time>2021-04-03T13:04:29Z</time>
      </trkpt>
      <trkpt lat="46.30659" lon="6.46893">
        <ele>622.4</ele>
        <time>2021-04-03T13:04:30Z</time>
      </trkpt>
      <trkpt lat="46.30661" lon="6.469">
        <ele>622.2</ele>
        <time>2021-04-03T13:04:31Z</time>
      </trkpt>
      <trkpt lat="46.30662" lon="6.46907">
        <ele>622.2</ele>
        <time>2021-04-03T13:04:32Z</time>
      </trkpt>
      <trkpt lat="46.30664" lon="6.46915">
        <ele>622.2</ele>
        <time>2021-04-03T13:04:33Z</time>
      </trkpt>
      <trkpt lat="46.30665" lon="6.46923">
        <ele>622.2</ele>
        <time>2021-04-03T13:04:34Z</time>
      </trkpt>
      <trkpt lat="46.30666" lon="6.4693">
        <ele>622.2</ele>
        <time>2021-04-03T13:04:35Z</time>
      </trkpt>
      <trkpt lat="46.30668" lon="6.46938">
        <ele>622.2</ele>
        <time>2021-04-03T13:04:36Z</time>
      </trkpt>
      <trkpt lat="46.30669" lon="6.46945">
        <ele>622.2</ele>
        <time>2021-04-03T13:04:37Z</time>
      </trkpt>
      <trkpt lat="46.3067" lon="6.46953">
        <ele>622</ele>
        <time>2021-04-03T13:04:38Z</time>
      </trkpt>
      <trkpt lat="46.30671" lon="6.46961">
        <ele>622.2</ele>
        <time>2021-04-03T13:04:39Z</time>
      </trkpt>
      <trkpt lat="46.30671" lon="6.46968">
        <ele>622</ele>
        <time>2021-04-03T13:04:40Z</time>
      </trkpt>
      <trkpt lat="46.30672" lon="6.46976">
        <ele>621.8</ele>
        <time>2021-04-03T13:04:41Z</time>
      </trkpt>
      <trkpt lat="46.30673" lon="6.46984">
        <ele>621.6</ele>
        <time>2021-04-03T13:04:42Z</time>
      </trkpt>
      <trkpt lat="46.30673" lon="6.46992">
        <ele>621.2</ele>
        <time>2021-04-03T13:04:43Z</time>
      </trkpt>
      <trkpt lat="46.30674" lon="6.46999">
        <ele>621.2</ele>
        <time>2021-04-03T13:04:44Z</time>
      </trkpt>
      <trkpt lat="46.30675" lon="6.47007">
        <ele>621.2</ele>
        <time>2021-04-03T13:04:45Z</time>
      </trkpt>
      <trkpt lat="46.30676" lon="6.47015">
        <ele>621.2</ele>
        <time>2021-04-03T13:04:46Z</time>
      </trkpt>
      <trkpt lat="46.30677" lon="6.47023">
        <ele>621</ele>
        <time>2021-04-03T13:04:47Z</time>
      </trkpt>
      <trkpt lat="46.30678" lon="6.47031">
        <ele>621</ele>
        <time>2021-04-03T13:04:48Z</time>
      </trkpt>
      <trkpt lat="46.30679" lon="6.47039">
        <ele>620.8</ele>
        <time>2021-04-03T13:04:49Z</time>
      </trkpt>
      <trkpt lat="46.30681" lon="6.47046">
        <ele>620.8</ele>
        <time>2021-04-03T13:04:50Z</time>
      </trkpt>
      <trkpt lat="46.30683" lon="6.47054">
        <ele>620.8</ele>
        <time>2021-04-03T13:04:51Z</time>
      </trkpt>
      <trkpt lat="46.30686" lon="6.47061">
        <ele>620.8</ele>
        <time>2021-04-03T13:04:52Z</time>
      </trkpt>
      <trkpt lat="46.30689" lon="6.47068">
        <ele>620.6</ele>
        <time>2021-04-03T13:04:53Z</time>
      </trkpt>
      <trkpt lat="46.30692" lon="6.47075">
        <ele>620.2</ele>
        <time>2021-04-03T13:04:54Z</time>
      </trkpt>
      <trkpt lat="46.30695" lon="6.47082">
        <ele>619.8</ele>
        <time>2021-04-03T13:04:55Z</time>
      </trkpt>
      <trkpt lat="46.30699" lon="6.47089">
        <ele>619.4</ele>
        <time>2021-04-03T13:04:56Z</time>
      </trkpt>
      <trkpt lat="46.30703" lon="6.47096">
        <ele>619</ele>
        <time>2021-04-03T13:04:57Z</time>
      </trkpt>
      <trkpt lat="46.30707" lon="6.47102">
        <ele>618.6</ele>
        <time>2021-04-03T13:04:58Z</time>
      </trkpt>
      <trkpt lat="46.30711" lon="6.47108">
        <ele>618.4</ele>
        <time>2021-04-03T13:04:59Z</time>
      </trkpt>
      <trkpt lat="46.30715" lon="6.47113">
        <ele>618.2</ele>
        <time>2021-04-03T13:05:00Z</time>
      </trkpt>
      <trkpt lat="46.30719" lon="6.47119">
        <ele>618</ele>
        <time>2021-04-03T13:05:01Z</time>
      </trkpt>
      <trkpt lat="46.30722" lon="6.47124">
        <ele>618</ele>
        <time>2021-04-03T13:05:02Z</time>
      </trkpt>
      <trkpt lat="46.30725" lon="6.47129">
        <ele>617.8</ele>
        <time>2021-04-03T13:05:03Z</time>
      </trkpt>
      <trkpt lat="46.30728" lon="6.47135">
        <ele>617.8</ele>
        <time>2021-04-03T13:05:04Z</time>
      </trkpt>
      <trkpt lat="46.30731" lon="6.47141">
        <ele>617.6</ele>
        <time>2021-04-03T13:05:05Z</time>
      </trkpt>
      <trkpt lat="46.30734" lon="6.47147">
        <ele>617.6</ele>
        <time>2021-04-03T13:05:06Z</time>
      </trkpt>
      <trkpt lat="46.30737" lon="6.47153">
        <ele>617.6</ele>
        <time>2021-04-03T13:05:07Z</time>
      </trkpt>
      <trkpt lat="46.30739" lon="6.47159">
        <ele>617.4</ele>
        <time>2021-04-03T13:05:08Z</time>
      </trkpt>
      <trkpt lat="46.30742" lon="6.47166">
        <ele>617.4</ele>
        <time>2021-04-03T13:05:09Z</time>
      </trkpt>
      <trkpt lat="46.30743" lon="6.47173">
        <ele>617.4</ele>
        <time>2021-04-03T13:05:10Z</time>
      </trkpt>
      <trkpt lat="46.30744" lon="6.4718">
        <ele>617.6</ele>
        <time>2021-04-03T13:05:11Z</time>
      </trkpt>
      <trkpt lat="46.30745" lon="6.47187">
        <ele>617.6</ele>
        <time>2021-04-03T13:05:12Z</time>
      </trkpt>
      <trkpt lat="46.30746" lon="6.47194">
        <ele>617.8</ele>
        <time>2021-04-03T13:05:13Z</time>
      </trkpt>
      <trkpt lat="46.30746" lon="6.47201">
        <ele>617.6</ele>
        <time>2021-04-03T13:05:14Z</time>
      </trkpt>
      <trkpt lat="46.30746" lon="6.47208">
        <ele>617.6</ele>
        <time>2021-04-03T13:05:15Z</time>
      </trkpt>
      <trkpt lat="46.30746" lon="6.47215">
        <ele>617.6</ele>
        <time>2021-04-03T13:05:16Z</time>
      </trkpt>
      <trkpt lat="46.30745" lon="6.47221">
        <ele>617.6</ele>
        <time>2021-04-03T13:05:17Z</time>
      </trkpt>
      <trkpt lat="46.30744" lon="6.47227">
        <ele>617.6</ele>
        <time>2021-04-03T13:05:18Z</time>
      </trkpt>
      <trkpt lat="46.30743" lon="6.47231">
        <ele>617.8</ele>
        <time>2021-04-03T13:05:19Z</time>
      </trkpt>
      <trkpt lat="46.30742" lon="6.47235">
        <ele>617.6</ele>
        <time>2021-04-03T13:05:20Z</time>
      </trkpt>
      <trkpt lat="46.30741" lon="6.47239">
        <ele>617.6</ele>
        <time>2021-04-03T13:05:21Z</time>
      </trkpt>
      <trkpt lat="46.3074" lon="6.47242">
        <ele>617.8</ele>
        <time>2021-04-03T13:05:22Z</time>
      </trkpt>
      <trkpt lat="46.30739" lon="6.47246">
        <ele>617.8</ele>
        <time>2021-04-03T13:05:23Z</time>
      </trkpt>
      <trkpt lat="46.30737" lon="6.47249">
        <ele>617.6</ele>
        <time>2021-04-03T13:05:24Z</time>
      </trkpt>
      <trkpt lat="46.30736" lon="6.47253">
        <ele>617.6</ele>
        <time>2021-04-03T13:05:25Z</time>
      </trkpt>
      <trkpt lat="46.30734" lon="6.47256">
        <ele>617.6</ele>
        <time>2021-04-03T13:05:26Z</time>
      </trkpt>
      <trkpt lat="46.30733" lon="6.4726">
        <ele>617.6</ele>
        <time>2021-04-03T13:05:27Z</time>
      </trkpt>
      <trkpt lat="46.30732" lon="6.47264">
        <ele>617.6</ele>
        <time>2021-04-03T13:05:28Z</time>
      </trkpt>
      <trkpt lat="46.30732" lon="6.4727">
        <ele>617.6</ele>
        <time>2021-04-03T13:05:29Z</time>
      </trkpt>
      <trkpt lat="46.30731" lon="6.47275">
        <ele>617.6</ele>
        <time>2021-04-03T13:05:30Z</time>
      </trkpt>
      <trkpt lat="46.3073" lon="6.47281">
        <ele>617.6</ele>
        <time>2021-04-03T13:05:31Z</time>
      </trkpt>
      <trkpt lat="46.3073" lon="6.47287">
        <ele>617.6</ele>
        <time>2021-04-03T13:05:32Z</time>
      </trkpt>
      <trkpt lat="46.30731" lon="6.47293">
        <ele>617.6</ele>
        <time>2021-04-03T13:05:33Z</time>
      </trkpt>
      <trkpt lat="46.30731" lon="6.47299">
        <ele>617.4</ele>
        <time>2021-04-03T13:05:34Z</time>
      </trkpt>
      <trkpt lat="46.30732" lon="6.47304">
        <ele>617.4</ele>
        <time>2021-04-03T13:05:35Z</time>
      </trkpt>
      <trkpt lat="46.30733" lon="6.47309">
        <ele>617.6</ele>
        <time>2021-04-03T13:05:36Z</time>
      </trkpt>
      <trkpt lat="46.30733" lon="6.47313">
        <ele>617.6</ele>
        <time>2021-04-03T13:05:37Z</time>
      </trkpt>
      <trkpt lat="46.30733" lon="6.47317">
        <ele>617.6</ele>
        <time>2021-04-03T13:05:38Z</time>
      </trkpt>
      <trkpt lat="46.30734" lon="6.47322">
        <ele>617.6</ele>
        <time>2021-04-03T13:05:39Z</time>
      </trkpt>
      <trkpt lat="46.30734" lon="6.47326">
        <ele>617.6</ele>
        <time>2021-04-03T13:05:40Z</time>
      </trkpt>
      <trkpt lat="46.30735" lon="6.47331">
        <ele>617.6</ele>
        <time>2021-04-03T13:05:41Z</time>
      </trkpt>
      <trkpt lat="46.30735" lon="6.47335">
        <ele>617.8</ele>
        <time>2021-04-03T13:05:42Z</time>
      </trkpt>
      <trkpt lat="46.30736" lon="6.4734">
        <ele>617.8</ele>
        <time>2021-04-03T13:05:43Z</time>
      </trkpt>
      <trkpt lat="46.30736" lon="6.47345">
        <ele>617.8</ele>
        <time>2021-04-03T13:05:44Z</time>
      </trkpt>
      <trkpt lat="46.30737" lon="6.4735">
        <ele>618</ele>
        <time>2021-04-03T13:05:45Z</time>
      </trkpt>
      <trkpt lat="46.30737" lon="6.47354">
        <ele>618</ele>
        <time>2021-04-03T13:05:46Z</time>
      </trkpt>
      <trkpt lat="46.30738" lon="6.47359">
        <ele>618</ele>
        <time>2021-04-03T13:05:47Z</time>
      </trkpt>
      <trkpt lat="46.30739" lon="6.47364">
        <ele>618</ele>
        <time>2021-04-03T13:05:48Z</time>
      </trkpt>
      <trkpt lat="46.30739" lon="6.47368">
        <ele>617.8</ele>
        <time>2021-04-03T13:05:49Z</time>
      </trkpt>
      <trkpt lat="46.3074" lon="6.47372">
        <ele>618.2</ele>
        <time>2021-04-03T13:05:50Z</time>
      </trkpt>
      <trkpt lat="46.3074" lon="6.47377">
        <ele>618.2</ele>
        <time>2021-04-03T13:05:51Z</time>
      </trkpt>
      <trkpt lat="46.30741" lon="6.47381">
        <ele>618.4</ele>
        <time>2021-04-03T13:05:52Z</time>
      </trkpt>
      <trkpt lat="46.30741" lon="6.47385">
        <ele>618.6</ele>
        <time>2021-04-03T13:05:53Z</time>
      </trkpt>
      <trkpt lat="46.30741" lon="6.4739">
        <ele>618.6</ele>
        <time>2021-04-03T13:05:54Z</time>
      </trkpt>
      <trkpt lat="46.30741" lon="6.47394">
        <ele>618.8</ele>
        <time>2021-04-03T13:05:55Z</time>
      </trkpt>
      <trkpt lat="46.30741" lon="6.47399">
        <ele>619</ele>
        <time>2021-04-03T13:05:56Z</time>
      </trkpt>
      <trkpt lat="46.30741" lon="6.47404">
        <ele>619</ele>
        <time>2021-04-03T13:05:57Z</time>
      </trkpt>
      <trkpt lat="46.30741" lon="6.47408">
        <ele>619.2</ele>
        <time>2021-04-03T13:05:58Z</time>
      </trkpt>
      <trkpt lat="46.3074" lon="6.47413">
        <ele>619.6</ele>
        <time>2021-04-03T13:05:59Z</time>
      </trkpt>
      <trkpt lat="46.3074" lon="6.47418">
        <ele>619.6</ele>
        <time>2021-04-03T13:06:00Z</time>
      </trkpt>
      <trkpt lat="46.3074" lon="6.47422">
        <ele>619.8</ele>
        <time>2021-04-03T13:06:01Z</time>
      </trkpt>
      <trkpt lat="46.3074" lon="6.47427">
        <ele>619.6</ele>
        <time>2021-04-03T13:06:02Z</time>
      </trkpt>
      <trkpt lat="46.3074" lon="6.47432">
        <ele>619.8</ele>
        <time>2021-04-03T13:06:03Z</time>
      </trkpt>
      <trkpt lat="46.3074" lon="6.47437">
        <ele>619.8</ele>
        <time>2021-04-03T13:06:04Z</time>
      </trkpt>
      <trkpt lat="46.3074" lon="6.47441">
        <ele>620</ele>
        <time>2021-04-03T13:06:05Z</time>
      </trkpt>
      <trkpt lat="46.30739" lon="6.47446">
        <ele>619.8</ele>
        <time>2021-04-03T13:06:06Z</time>
      </trkpt>
      <trkpt lat="46.30739" lon="6.47451">
        <ele>620</ele>
        <time>2021-04-03T13:06:07Z</time>
      </trkpt>
      <trkpt lat="46.30738" lon="6.47456">
        <ele>620</ele>
        <time>2021-04-03T13:06:08Z</time>
      </trkpt>
      <trkpt lat="46.30738" lon="6.47461">
        <ele>620</ele>
        <time>2021-04-03T13:06:09Z</time>
      </trkpt>
      <trkpt lat="46.30738" lon="6.47466">
        <ele>620.2</ele>
        <time>2021-04-03T13:06:10Z</time>
      </trkpt>
      <trkpt lat="46.30737" lon="6.47471">
        <ele>620</ele>
        <time>2021-04-03T13:06:11Z</time>
      </trkpt>
      <trkpt lat="46.30736" lon="6.47476">
        <ele>620.2</ele>
        <time>2021-04-03T13:06:12Z</time>
      </trkpt>
      <trkpt lat="46.30736" lon="6.47481">
        <ele>620.6</ele>
        <time>2021-04-03T13:06:13Z</time>
      </trkpt>
      <trkpt lat="46.30735" lon="6.47487">
        <ele>620.8</ele>
        <time>2021-04-03T13:06:14Z</time>
      </trkpt>
      <trkpt lat="46.30735" lon="6.47492">
        <ele>621</ele>
        <time>2021-04-03T13:06:15Z</time>
      </trkpt>
      <trkpt lat="46.30735" lon="6.47497">
        <ele>621</ele>
        <time>2021-04-03T13:06:16Z</time>
      </trkpt>
      <trkpt lat="46.30735" lon="6.47502">
        <ele>621.2</ele>
        <time>2021-04-03T13:06:17Z</time>
      </trkpt>
      <trkpt lat="46.30735" lon="6.47508">
        <ele>621.4</ele>
        <time>2021-04-03T13:06:18Z</time>
      </trkpt>
      <trkpt lat="46.30736" lon="6.47513">
        <ele>621.4</ele>
        <time>2021-04-03T13:06:19Z</time>
      </trkpt>
      <trkpt lat="46.30737" lon="6.47519">
        <ele>621.4</ele>
        <time>2021-04-03T13:06:20Z</time>
      </trkpt>
      <trkpt lat="46.30738" lon="6.47524">
        <ele>621.4</ele>
        <time>2021-04-03T13:06:21Z</time>
      </trkpt>
      <trkpt lat="46.30737" lon="6.47529">
        <ele>621.6</ele>
        <time>2021-04-03T13:06:22Z</time>
      </trkpt>
      <trkpt lat="46.30738" lon="6.47535">
        <ele>621.4</ele>
        <time>2021-04-03T13:06:23Z</time>
      </trkpt>
      <trkpt lat="46.3074" lon="6.4754">
        <ele>621.6</ele>
        <time>2021-04-03T13:06:24Z</time>
      </trkpt>
      <trkpt lat="46.30741" lon="6.47545">
        <ele>621.6</ele>
        <time>2021-04-03T13:06:25Z</time>
      </trkpt>
      <trkpt lat="46.30743" lon="6.4755">
        <ele>621.8</ele>
        <time>2021-04-03T13:06:26Z</time>
      </trkpt>
      <trkpt lat="46.30744" lon="6.47554">
        <ele>621.8</ele>
        <time>2021-04-03T13:06:27Z</time>
      </trkpt>
      <trkpt lat="46.30744" lon="6.47559">
        <ele>621.8</ele>
        <time>2021-04-03T13:06:28Z</time>
      </trkpt>
      <trkpt lat="46.30745" lon="6.47564">
        <ele>622</ele>
        <time>2021-04-03T13:06:29Z</time>
      </trkpt>
      <trkpt lat="46.30746" lon="6.47569">
        <ele>622</ele>
        <time>2021-04-03T13:06:30Z</time>
      </trkpt>
      <trkpt lat="46.30748" lon="6.47574">
        <ele>622</ele>
        <time>2021-04-03T13:06:31Z</time>
      </trkpt>
      <trkpt lat="46.3075" lon="6.47579">
        <ele>622</ele>
        <time>2021-04-03T13:06:32Z</time>
      </trkpt>
      <trkpt lat="46.30752" lon="6.47584">
        <ele>622.2</ele>
        <time>2021-04-03T13:06:33Z</time>
      </trkpt>
      <trkpt lat="46.30753" lon="6.47589">
        <ele>622.4</ele>
        <time>2021-04-03T13:06:34Z</time>
      </trkpt>
      <trkpt lat="46.30755" lon="6.47594">
        <ele>622.2</ele>
        <time>2021-04-03T13:06:35Z</time>
      </trkpt>
      <trkpt lat="46.30757" lon="6.47598">
        <ele>622.4</ele>
        <time>2021-04-03T13:06:36Z</time>
      </trkpt>
      <trkpt lat="46.30759" lon="6.47603">
        <ele>622.4</ele>
        <time>2021-04-03T13:06:37Z</time>
      </trkpt>
      <trkpt lat="46.30761" lon="6.47609">
        <ele>622.8</ele>
        <time>2021-04-03T13:06:38Z</time>
      </trkpt>
      <trkpt lat="46.30763" lon="6.47614">
        <ele>622.8</ele>
        <time>2021-04-03T13:06:39Z</time>
      </trkpt>
      <trkpt lat="46.30765" lon="6.47619">
        <ele>623</ele>
        <time>2021-04-03T13:06:40Z</time>
      </trkpt>
      <trkpt lat="46.30766" lon="6.47624">
        <ele>623.2</ele>
        <time>2021-04-03T13:06:41Z</time>
      </trkpt>
      <trkpt lat="46.30768" lon="6.47629">
        <ele>623.4</ele>
        <time>2021-04-03T13:06:42Z</time>
      </trkpt>
      <trkpt lat="46.3077" lon="6.47635">
        <ele>623.4</ele>
        <time>2021-04-03T13:06:43Z</time>
      </trkpt>
      <trkpt lat="46.30772" lon="6.47641">
        <ele>623.2</ele>
        <time>2021-04-03T13:06:44Z</time>
      </trkpt>
      <trkpt lat="46.30775" lon="6.47646">
        <ele>623.4</ele>
        <time>2021-04-03T13:06:45Z</time>
      </trkpt>
      <trkpt lat="46.30777" lon="6.47652">
        <ele>623.4</ele>
        <time>2021-04-03T13:06:46Z</time>
      </trkpt>
      <trkpt lat="46.30779" lon="6.47658">
        <ele>623.6</ele>
        <time>2021-04-03T13:06:47Z</time>
      </trkpt>
      <trkpt lat="46.30781" lon="6.47664">
        <ele>623.6</ele>
        <time>2021-04-03T13:06:48Z</time>
      </trkpt>
      <trkpt lat="46.30783" lon="6.47669">
        <ele>623.6</ele>
        <time>2021-04-03T13:06:49Z</time>
      </trkpt>
      <trkpt lat="46.30785" lon="6.47675">
        <ele>623.6</ele>
        <time>2021-04-03T13:06:50Z</time>
      </trkpt>
      <trkpt lat="46.30787" lon="6.47681">
        <ele>623.6</ele>
        <time>2021-04-03T13:06:51Z</time>
      </trkpt>
      <trkpt lat="46.30789" lon="6.47687">
        <ele>623.8</ele>
        <time>2021-04-03T13:06:52Z</time>
      </trkpt>
      <trkpt lat="46.30791" lon="6.47692">
        <ele>623.6</ele>
        <time>2021-04-03T13:06:53Z</time>
      </trkpt>
      <trkpt lat="46.30793" lon="6.47698">
        <ele>623.8</ele>
        <time>2021-04-03T13:06:54Z</time>
      </trkpt>
      <trkpt lat="46.30795" lon="6.47703">
        <ele>623.8</ele>
        <time>2021-04-03T13:06:55Z</time>
      </trkpt>
      <trkpt lat="46.30797" lon="6.47709">
        <ele>623.8</ele>
        <time>2021-04-03T13:06:56Z</time>
      </trkpt>
      <trkpt lat="46.30799" lon="6.47715">
        <ele>623.8</ele>
        <time>2021-04-03T13:06:57Z</time>
      </trkpt>
      <trkpt lat="46.30801" lon="6.47721">
        <ele>623.8</ele>
        <time>2021-04-03T13:06:58Z</time>
      </trkpt>
      <trkpt lat="46.30804" lon="6.47727">
        <ele>623.6</ele>
        <time>2021-04-03T13:06:59Z</time>
      </trkpt>
      <trkpt lat="46.30806" lon="6.47733">
        <ele>623.8</ele>
        <time>2021-04-03T13:07:00Z</time>
      </trkpt>
      <trkpt lat="46.30808" lon="6.47739">
        <ele>623.8</ele>
        <time>2021-04-03T13:07:01Z</time>
      </trkpt>
      <trkpt lat="46.3081" lon="6.47745">
        <ele>623.8</ele>
        <time>2021-04-03T13:07:02Z</time>
      </trkpt>
      <trkpt lat="46.30812" lon="6.47752">
        <ele>623.8</ele>
        <time>2021-04-03T13:07:03Z</time>
      </trkpt>
      <trkpt lat="46.30813" lon="6.47758">
        <ele>623.8</ele>
        <time>2021-04-03T13:07:04Z</time>
      </trkpt>
      <trkpt lat="46.30815" lon="6.47764">
        <ele>623.6</ele>
        <time>2021-04-03T13:07:05Z</time>
      </trkpt>
      <trkpt lat="46.30817" lon="6.47771">
        <ele>623.6</ele>
        <time>2021-04-03T13:07:06Z</time>
      </trkpt>
      <trkpt lat="46.30818" lon="6.47778">
        <ele>623.6</ele>
        <time>2021-04-03T13:07:07Z</time>
      </trkpt>
      <trkpt lat="46.3082" lon="6.47785">
        <ele>623.8</ele>
        <time>2021-04-03T13:07:08Z</time>
      </trkpt>
      <trkpt lat="46.30821" lon="6.47792">
        <ele>623.6</ele>
        <time>2021-04-03T13:07:09Z</time>
      </trkpt>
      <trkpt lat="46.30822" lon="6.47799">
        <ele>623.6</ele>
        <time>2021-04-03T13:07:10Z</time>
      </trkpt>
      <trkpt lat="46.30823" lon="6.47806">
        <ele>623.8</ele>
        <time>2021-04-03T13:07:11Z</time>
      </trkpt>
      <trkpt lat="46.30824" lon="6.47813">
        <ele>623.6</ele>
        <time>2021-04-03T13:07:12Z</time>
      </trkpt>
      <trkpt lat="46.30825" lon="6.4782">
        <ele>623.6</ele>
        <time>2021-04-03T13:07:13Z</time>
      </trkpt>
      <trkpt lat="46.30825" lon="6.47827">
        <ele>623.8</ele>
        <time>2021-04-03T13:07:14Z</time>
      </trkpt>
      <trkpt lat="46.30826" lon="6.47835">
        <ele>623.8</ele>
        <time>2021-04-03T13:07:15Z</time>
      </trkpt>
      <trkpt lat="46.30827" lon="6.47842">
        <ele>623.8</ele>
        <time>2021-04-03T13:07:16Z</time>
      </trkpt>
      <trkpt lat="46.30827" lon="6.4785">
        <ele>624</ele>
        <time>2021-04-03T13:07:17Z</time>
      </trkpt>
      <trkpt lat="46.30828" lon="6.47857">
        <ele>624</ele>
        <time>2021-04-03T13:07:18Z</time>
      </trkpt>
      <trkpt lat="46.30829" lon="6.47864">
        <ele>624</ele>
        <time>2021-04-03T13:07:19Z</time>
      </trkpt>
      <trkpt lat="46.3083" lon="6.4787">
        <ele>624</ele>
        <time>2021-04-03T13:07:20Z</time>
      </trkpt>
      <trkpt lat="46.30832" lon="6.47877">
        <ele>624.2</ele>
        <time>2021-04-03T13:07:21Z</time>
      </trkpt>
      <trkpt lat="46.30832" lon="6.47885">
        <ele>624</ele>
        <time>2021-04-03T13:07:22Z</time>
      </trkpt>
      <trkpt lat="46.30834" lon="6.47892">
        <ele>624.2</ele>
        <time>2021-04-03T13:07:23Z</time>
      </trkpt>
      <trkpt lat="46.30835" lon="6.479">
        <ele>624.2</ele>
        <time>2021-04-03T13:07:24Z</time>
      </trkpt>
      <trkpt lat="46.30836" lon="6.47908">
        <ele>624.4</ele>
        <time>2021-04-03T13:07:25Z</time>
      </trkpt>
      <trkpt lat="46.30838" lon="6.47916">
        <ele>624.2</ele>
        <time>2021-04-03T13:07:26Z</time>
      </trkpt>
      <trkpt lat="46.3084" lon="6.47924">
        <ele>624</ele>
        <time>2021-04-03T13:07:27Z</time>
      </trkpt>
      <trkpt lat="46.30841" lon="6.47932">
        <ele>624</ele>
        <time>2021-04-03T13:07:28Z</time>
      </trkpt>
      <trkpt lat="46.30843" lon="6.47939">
        <ele>624.2</ele>
        <time>2021-04-03T13:07:29Z</time>
      </trkpt>
      <trkpt lat="46.30844" lon="6.47947">
        <ele>624.2</ele>
        <time>2021-04-03T13:07:30Z</time>
      </trkpt>
      <trkpt lat="46.30846" lon="6.47954">
        <ele>624.2</ele>
        <time>2021-04-03T13:07:31Z</time>
      </trkpt>
      <trkpt lat="46.30847" lon="6.4796">
        <ele>624.2</ele>
        <time>2021-04-03T13:07:32Z</time>
      </trkpt>
      <trkpt lat="46.30849" lon="6.47967">
        <ele>624.2</ele>
        <time>2021-04-03T13:07:33Z</time>
      </trkpt>
      <trkpt lat="46.30852" lon="6.47973">
        <ele>624.2</ele>
        <time>2021-04-03T13:07:34Z</time>
      </trkpt>
      <trkpt lat="46.30854" lon="6.47979">
        <ele>624</ele>
        <time>2021-04-03T13:07:35Z</time>
      </trkpt>
      <trkpt lat="46.30857" lon="6.47984">
        <ele>624</ele>
        <time>2021-04-03T13:07:36Z</time>
      </trkpt>
      <trkpt lat="46.30859" lon="6.47988">
        <ele>624</ele>
        <time>2021-04-03T13:07:37Z</time>
      </trkpt>
      <trkpt lat="46.30861" lon="6.47991">
        <ele>623.8</ele>
        <time>2021-04-03T13:07:38Z</time>
      </trkpt>
      <trkpt lat="46.30863" lon="6.47994">
        <ele>623.8</ele>
        <time>2021-04-03T13:07:39Z</time>
      </trkpt>
      <trkpt lat="46.30866" lon="6.47996">
        <ele>623.8</ele>
        <time>2021-04-03T13:07:40Z</time>
      </trkpt>
      <trkpt lat="46.30869" lon="6.47995">
        <ele>623.8</ele>
        <time>2021-04-03T13:07:41Z</time>
      </trkpt>
      <trkpt lat="46.30872" lon="6.47994">
        <ele>623.8</ele>
        <time>2021-04-03T13:07:42Z</time>
      </trkpt>
      <trkpt lat="46.30876" lon="6.47993">
        <ele>623.6</ele>
        <time>2021-04-03T13:07:43Z</time>
      </trkpt>
      <trkpt lat="46.3088" lon="6.47992">
        <ele>623.8</ele>
        <time>2021-04-03T13:07:44Z</time>
      </trkpt>
      <trkpt lat="46.30885" lon="6.47991">
        <ele>623.8</ele>
        <time>2021-04-03T13:07:45Z</time>
      </trkpt>
      <trkpt lat="46.30891" lon="6.4799">
        <ele>623.6</ele>
        <time>2021-04-03T13:07:46Z</time>
      </trkpt>
      <trkpt lat="46.30896" lon="6.47988">
        <ele>623.6</ele>
        <time>2021-04-03T13:07:47Z</time>
      </trkpt>
      <trkpt lat="46.30903" lon="6.47987">
        <ele>623.4</ele>
        <time>2021-04-03T13:07:48Z</time>
      </trkpt>
      <trkpt lat="46.3091" lon="6.47986">
        <ele>622.8</ele>
        <time>2021-04-03T13:07:49Z</time>
      </trkpt>
      <trkpt lat="46.30918" lon="6.47984">
        <ele>622.6</ele>
        <time>2021-04-03T13:07:50Z</time>
      </trkpt>
      <trkpt lat="46.30926" lon="6.47983">
        <ele>622.2</ele>
        <time>2021-04-03T13:07:51Z</time>
      </trkpt>
      <trkpt lat="46.30932" lon="6.47981">
        <ele>621.6</ele>
        <time>2021-04-03T13:07:52Z</time>
      </trkpt>
      <trkpt lat="46.30939" lon="6.47979">
        <ele>621</ele>
        <time>2021-04-03T13:07:53Z</time>
      </trkpt>
      <trkpt lat="46.30947" lon="6.47976">
        <ele>620.8</ele>
        <time>2021-04-03T13:07:54Z</time>
      </trkpt>
      <trkpt lat="46.30955" lon="6.47973">
        <ele>620</ele>
        <time>2021-04-03T13:07:55Z</time>
      </trkpt>
      <trkpt lat="46.30963" lon="6.47971">
        <ele>619.4</ele>
        <time>2021-04-03T13:07:56Z</time>
      </trkpt>
      <trkpt lat="46.30971" lon="6.47968">
        <ele>619.2</ele>
        <time>2021-04-03T13:07:57Z</time>
      </trkpt>
      <trkpt lat="46.30979" lon="6.47966">
        <ele>618.2</ele>
        <time>2021-04-03T13:07:58Z</time>
      </trkpt>
      <trkpt lat="46.30988" lon="6.47965">
        <ele>616.8</ele>
        <time>2021-04-03T13:07:59Z</time>
      </trkpt>
      <trkpt lat="46.30997" lon="6.47965">
        <ele>616.2</ele>
        <time>2021-04-03T13:08:00Z</time>
      </trkpt>
      <trkpt lat="46.31007" lon="6.47967">
        <ele>615.6</ele>
        <time>2021-04-03T13:08:01Z</time>
      </trkpt>
      <trkpt lat="46.31016" lon="6.47968">
        <ele>614.4</ele>
        <time>2021-04-03T13:08:02Z</time>
      </trkpt>
      <trkpt lat="46.31024" lon="6.4797">
        <ele>613.8</ele>
        <time>2021-04-03T13:08:03Z</time>
      </trkpt>
      <trkpt lat="46.31032" lon="6.47971">
        <ele>613.2</ele>
        <time>2021-04-03T13:08:04Z</time>
      </trkpt>
      <trkpt lat="46.3104" lon="6.47973">
        <ele>612.8</ele>
        <time>2021-04-03T13:08:05Z</time>
      </trkpt>
      <trkpt lat="46.31047" lon="6.47975">
        <ele>612.4</ele>
        <time>2021-04-03T13:08:06Z</time>
      </trkpt>
      <trkpt lat="46.31052" lon="6.47976">
        <ele>612.2</ele>
        <time>2021-04-03T13:08:07Z</time>
      </trkpt>
      <trkpt lat="46.31058" lon="6.47977">
        <ele>612.2</ele>
        <time>2021-04-03T13:08:08Z</time>
      </trkpt>
      <trkpt lat="46.31062" lon="6.47979">
        <ele>611.4</ele>
        <time>2021-04-03T13:08:09Z</time>
      </trkpt>
      <trkpt lat="46.31066" lon="6.47984">
        <ele>611</ele>
        <time>2021-04-03T13:08:10Z</time>
      </trkpt>
      <trkpt lat="46.31068" lon="6.4799">
        <ele>610.8</ele>
        <time>2021-04-03T13:08:11Z</time>
      </trkpt>
      <trkpt lat="46.31069" lon="6.47997">
        <ele>610.6</ele>
        <time>2021-04-03T13:08:12Z</time>
      </trkpt>
      <trkpt lat="46.3107" lon="6.48005">
        <ele>610.4</ele>
        <time>2021-04-03T13:08:13Z</time>
      </trkpt>
      <trkpt lat="46.31071" lon="6.48013">
        <ele>610.2</ele>
        <time>2021-04-03T13:08:14Z</time>
      </trkpt>
      <trkpt lat="46.31071" lon="6.48021">
        <ele>609.8</ele>
        <time>2021-04-03T13:08:15Z</time>
      </trkpt>
      <trkpt lat="46.31071" lon="6.48029">
        <ele>609.6</ele>
        <time>2021-04-03T13:08:16Z</time>
      </trkpt>
      <trkpt lat="46.31071" lon="6.48037">
        <ele>609.4</ele>
        <time>2021-04-03T13:08:17Z</time>
      </trkpt>
      <trkpt lat="46.31072" lon="6.48046">
        <ele>609.2</ele>
        <time>2021-04-03T13:08:18Z</time>
      </trkpt>
      <trkpt lat="46.31073" lon="6.48054">
        <ele>609.2</ele>
        <time>2021-04-03T13:08:19Z</time>
      </trkpt>
      <trkpt lat="46.31074" lon="6.48062">
        <ele>609.2</ele>
        <time>2021-04-03T13:08:20Z</time>
      </trkpt>
      <trkpt lat="46.31076" lon="6.4807">
        <ele>609</ele>
        <time>2021-04-03T13:08:21Z</time>
      </trkpt>
      <trkpt lat="46.31076" lon="6.48077">
        <ele>609.2</ele>
        <time>2021-04-03T13:08:22Z</time>
      </trkpt>
      <trkpt lat="46.31076" lon="6.48085">
        <ele>609.2</ele>
        <time>2021-04-03T13:08:23Z</time>
      </trkpt>
      <trkpt lat="46.31077" lon="6.48092">
        <ele>609.2</ele>
        <time>2021-04-03T13:08:24Z</time>
      </trkpt>
      <trkpt lat="46.31077" lon="6.481">
        <ele>609.2</ele>
        <time>2021-04-03T13:08:25Z</time>
      </trkpt>
      <trkpt lat="46.31077" lon="6.48108">
        <ele>609.2</ele>
        <time>2021-04-03T13:08:26Z</time>
      </trkpt>
      <trkpt lat="46.31077" lon="6.48115">
        <ele>609.2</ele>
        <time>2021-04-03T13:08:27Z</time>
      </trkpt>
      <trkpt lat="46.31076" lon="6.48123">
        <ele>609.4</ele>
        <time>2021-04-03T13:08:28Z</time>
      </trkpt>
      <trkpt lat="46.31076" lon="6.48131">
        <ele>609.4</ele>
        <time>2021-04-03T13:08:29Z</time>
      </trkpt>
      <trkpt lat="46.31075" lon="6.48139">
        <ele>609.6</ele>
        <time>2021-04-03T13:08:30Z</time>
      </trkpt>
      <trkpt lat="46.31075" lon="6.48146">
        <ele>609.6</ele>
        <time>2021-04-03T13:08:31Z</time>
      </trkpt>
      <trkpt lat="46.31074" lon="6.48154">
        <ele>609.8</ele>
        <time>2021-04-03T13:08:32Z</time>
      </trkpt>
      <trkpt lat="46.31074" lon="6.48161">
        <ele>609.8</ele>
        <time>2021-04-03T13:08:33Z</time>
      </trkpt>
      <trkpt lat="46.31073" lon="6.48168">
        <ele>609.8</ele>
        <time>2021-04-03T13:08:34Z</time>
      </trkpt>
      <trkpt lat="46.31073" lon="6.48176">
        <ele>610</ele>
        <time>2021-04-03T13:08:35Z</time>
      </trkpt>
      <trkpt lat="46.31072" lon="6.48183">
        <ele>610</ele>
        <time>2021-04-03T13:08:36Z</time>
      </trkpt>
      <trkpt lat="46.31071" lon="6.4819">
        <ele>610.2</ele>
        <time>2021-04-03T13:08:37Z</time>
      </trkpt>
      <trkpt lat="46.31071" lon="6.48198">
        <ele>610.2</ele>
        <time>2021-04-03T13:08:38Z</time>
      </trkpt>
      <trkpt lat="46.3107" lon="6.48205">
        <ele>610.2</ele>
        <time>2021-04-03T13:08:39Z</time>
      </trkpt>
      <trkpt lat="46.3107" lon="6.48212">
        <ele>610.2</ele>
        <time>2021-04-03T13:08:40Z</time>
      </trkpt>
      <trkpt lat="46.3107" lon="6.48219">
        <ele>610.4</ele>
        <time>2021-04-03T13:08:41Z</time>
      </trkpt>
      <trkpt lat="46.3107" lon="6.48226">
        <ele>610.4</ele>
        <time>2021-04-03T13:08:42Z</time>
      </trkpt>
      <trkpt lat="46.31069" lon="6.48233">
        <ele>610.6</ele>
        <time>2021-04-03T13:08:43Z</time>
      </trkpt>
      <trkpt lat="46.31068" lon="6.4824">
        <ele>610.4</ele>
        <time>2021-04-03T13:08:44Z</time>
      </trkpt>
      <trkpt lat="46.31067" lon="6.48247">
        <ele>610.4</ele>
        <time>2021-04-03T13:08:45Z</time>
      </trkpt>
      <trkpt lat="46.31066" lon="6.48254">
        <ele>610.4</ele>
        <time>2021-04-03T13:08:46Z</time>
      </trkpt>
      <trkpt lat="46.31065" lon="6.48262">
        <ele>610.6</ele>
        <time>2021-04-03T13:08:47Z</time>
      </trkpt>
      <trkpt lat="46.31065" lon="6.48269">
        <ele>610.6</ele>
        <time>2021-04-03T13:08:48Z</time>
      </trkpt>
      <trkpt lat="46.31064" lon="6.48277">
        <ele>610.8</ele>
        <time>2021-04-03T13:08:49Z</time>
      </trkpt>
      <trkpt lat="46.31063" lon="6.48285">
        <ele>610.8</ele>
        <time>2021-04-03T13:08:50Z</time>
      </trkpt>
      <trkpt lat="46.31063" lon="6.48292">
        <ele>610.8</ele>
        <time>2021-04-03T13:08:51Z</time>
      </trkpt>
      <trkpt lat="46.31062" lon="6.483">
        <ele>611</ele>
        <time>2021-04-03T13:08:52Z</time>
      </trkpt>
      <trkpt lat="46.31061" lon="6.48307">
        <ele>611.2</ele>
        <time>2021-04-03T13:08:53Z</time>
      </trkpt>
      <trkpt lat="46.31061" lon="6.48314">
        <ele>611.4</ele>
        <time>2021-04-03T13:08:54Z</time>
      </trkpt>
      <trkpt lat="46.31061" lon="6.48322">
        <ele>611.6</ele>
        <time>2021-04-03T13:08:55Z</time>
      </trkpt>
      <trkpt lat="46.31061" lon="6.48329">
        <ele>611.6</ele>
        <time>2021-04-03T13:08:56Z</time>
      </trkpt>
      <trkpt lat="46.31061" lon="6.48337">
        <ele>611.8</ele>
        <time>2021-04-03T13:08:57Z</time>
      </trkpt>
      <trkpt lat="46.31062" lon="6.48344">
        <ele>612</ele>
        <time>2021-04-03T13:08:58Z</time>
      </trkpt>
      <trkpt lat="46.31063" lon="6.48351">
        <ele>612.2</ele>
        <time>2021-04-03T13:08:59Z</time>
      </trkpt>
      <trkpt lat="46.31065" lon="6.48358">
        <ele>612.4</ele>
        <time>2021-04-03T13:09:00Z</time>
      </trkpt>
      <trkpt lat="46.31066" lon="6.48364">
        <ele>612.4</ele>
        <time>2021-04-03T13:09:01Z</time>
      </trkpt>
      <trkpt lat="46.31069" lon="6.48371">
        <ele>612.6</ele>
        <time>2021-04-03T13:09:02Z</time>
      </trkpt>
      <trkpt lat="46.31071" lon="6.48377">
        <ele>612.6</ele>
        <time>2021-04-03T13:09:03Z</time>
      </trkpt>
      <trkpt lat="46.31073" lon="6.48383">
        <ele>612.8</ele>
        <time>2021-04-03T13:09:04Z</time>
      </trkpt>
      <trkpt lat="46.31076" lon="6.4839">
        <ele>612.8</ele>
        <time>2021-04-03T13:09:05Z</time>
      </trkpt>
      <trkpt lat="46.31079" lon="6.48396">
        <ele>612.8</ele>
        <time>2021-04-03T13:09:06Z</time>
      </trkpt>
      <trkpt lat="46.31082" lon="6.48402">
        <ele>613</ele>
        <time>2021-04-03T13:09:07Z</time>
      </trkpt>
      <trkpt lat="46.31085" lon="6.48408">
        <ele>613</ele>
        <time>2021-04-03T13:09:08Z</time>
      </trkpt>
      <trkpt lat="46.31088" lon="6.48415">
        <ele>613</ele>
        <time>2021-04-03T13:09:09Z</time>
      </trkpt>
      <trkpt lat="46.3109" lon="6.48421">
        <ele>613</ele>
        <time>2021-04-03T13:09:10Z</time>
      </trkpt>
      <trkpt lat="46.31093" lon="6.48428">
        <ele>613</ele>
        <time>2021-04-03T13:09:11Z</time>
      </trkpt>
      <trkpt lat="46.31096" lon="6.48434">
        <ele>613</ele>
        <time>2021-04-03T13:09:12Z</time>
      </trkpt>
      <trkpt lat="46.31099" lon="6.4844">
        <ele>613</ele>
        <time>2021-04-03T13:09:13Z</time>
      </trkpt>
      <trkpt lat="46.31101" lon="6.48446">
        <ele>613</ele>
        <time>2021-04-03T13:09:14Z</time>
      </trkpt>
      <trkpt lat="46.31104" lon="6.48452">
        <ele>613.2</ele>
        <time>2021-04-03T13:09:15Z</time>
      </trkpt>
      <trkpt lat="46.31107" lon="6.48458">
        <ele>613.2</ele>
        <time>2021-04-03T13:09:16Z</time>
      </trkpt>
      <trkpt lat="46.31108" lon="6.48464">
        <ele>613.2</ele>
        <time>2021-04-03T13:09:17Z</time>
      </trkpt>
      <trkpt lat="46.3111" lon="6.4847">
        <ele>613.2</ele>
        <time>2021-04-03T13:09:18Z</time>
      </trkpt>
      <trkpt lat="46.31113" lon="6.48476">
        <ele>613.6</ele>
        <time>2021-04-03T13:09:19Z</time>
      </trkpt>
      <trkpt lat="46.31115" lon="6.48481">
        <ele>613.4</ele>
        <time>2021-04-03T13:09:20Z</time>
      </trkpt>
      <trkpt lat="46.31117" lon="6.48487">
        <ele>613.6</ele>
        <time>2021-04-03T13:09:21Z</time>
      </trkpt>
      <trkpt lat="46.3112" lon="6.48494">
        <ele>613.8</ele>
        <time>2021-04-03T13:09:22Z</time>
      </trkpt>
      <trkpt lat="46.31122" lon="6.48499">
        <ele>613.8</ele>
        <time>2021-04-03T13:09:23Z</time>
      </trkpt>
      <trkpt lat="46.31124" lon="6.48506">
        <ele>614</ele>
        <time>2021-04-03T13:09:24Z</time>
      </trkpt>
      <trkpt lat="46.31126" lon="6.48512">
        <ele>614.2</ele>
        <time>2021-04-03T13:09:25Z</time>
      </trkpt>
      <trkpt lat="46.31128" lon="6.48518">
        <ele>614.2</ele>
        <time>2021-04-03T13:09:26Z</time>
      </trkpt>
      <trkpt lat="46.31129" lon="6.48525">
        <ele>614.4</ele>
        <time>2021-04-03T13:09:27Z</time>
      </trkpt>
      <trkpt lat="46.3113" lon="6.48532">
        <ele>614.6</ele>
        <time>2021-04-03T13:09:28Z</time>
      </trkpt>
      <trkpt lat="46.31131" lon="6.48539">
        <ele>614.6</ele>
        <time>2021-04-03T13:09:29Z</time>
      </trkpt>
      <trkpt lat="46.31133" lon="6.48545">
        <ele>614.8</ele>
        <time>2021-04-03T13:09:30Z</time>
      </trkpt>
      <trkpt lat="46.31134" lon="6.48552">
        <ele>615</ele>
        <time>2021-04-03T13:09:31Z</time>
      </trkpt>
      <trkpt lat="46.31136" lon="6.48559">
        <ele>615</ele>
        <time>2021-04-03T13:09:32Z</time>
      </trkpt>
      <trkpt lat="46.31137" lon="6.48566">
        <ele>615.2</ele>
        <time>2021-04-03T13:09:33Z</time>
      </trkpt>
      <trkpt lat="46.31138" lon="6.48573">
        <ele>615.2</ele>
        <time>2021-04-03T13:09:34Z</time>
      </trkpt>
      <trkpt lat="46.3114" lon="6.4858">
        <ele>615.2</ele>
        <time>2021-04-03T13:09:35Z</time>
      </trkpt>
      <trkpt lat="46.31142" lon="6.48586">
        <ele>615.4</ele>
        <time>2021-04-03T13:09:36Z</time>
      </trkpt>
      <trkpt lat="46.31143" lon="6.48593">
        <ele>615.4</ele>
        <time>2021-04-03T13:09:37Z</time>
      </trkpt>
      <trkpt lat="46.31144" lon="6.48599">
        <ele>615.4</ele>
        <time>2021-04-03T13:09:38Z</time>
      </trkpt>
      <trkpt lat="46.31146" lon="6.48606">
        <ele>615.4</ele>
        <time>2021-04-03T13:09:39Z</time>
      </trkpt>
      <trkpt lat="46.31147" lon="6.48613">
        <ele>615.4</ele>
        <time>2021-04-03T13:09:40Z</time>
      </trkpt>
      <trkpt lat="46.31149" lon="6.48619">
        <ele>615.4</ele>
        <time>2021-04-03T13:09:41Z</time>
      </trkpt>
      <trkpt lat="46.3115" lon="6.48626">
        <ele>615.6</ele>
        <time>2021-04-03T13:09:42Z</time>
      </trkpt>
      <trkpt lat="46.31151" lon="6.48633">
        <ele>615.6</ele>
        <time>2021-04-03T13:09:43Z</time>
      </trkpt>
      <trkpt lat="46.31152" lon="6.48639">
        <ele>615.6</ele>
        <time>2021-04-03T13:09:44Z</time>
      </trkpt>
      <trkpt lat="46.31153" lon="6.48645">
        <ele>615.6</ele>
        <time>2021-04-03T13:09:45Z</time>
      </trkpt>
      <trkpt lat="46.31154" lon="6.48652">
        <ele>615.6</ele>
        <time>2021-04-03T13:09:46Z</time>
      </trkpt>
      <trkpt lat="46.31155" lon="6.48658">
        <ele>615.6</ele>
        <time>2021-04-03T13:09:47Z</time>
      </trkpt>
      <trkpt lat="46.31155" lon="6.48665">
        <ele>615.6</ele>
        <time>2021-04-03T13:09:48Z</time>
      </trkpt>
      <trkpt lat="46.31156" lon="6.48671">
        <ele>615.6</ele>
        <time>2021-04-03T13:09:49Z</time>
      </trkpt>
      <trkpt lat="46.31156" lon="6.48678">
        <ele>615.6</ele>
        <time>2021-04-03T13:09:50Z</time>
      </trkpt>
      <trkpt lat="46.31156" lon="6.48684">
        <ele>615.8</ele>
        <time>2021-04-03T13:09:51Z</time>
      </trkpt>
      <trkpt lat="46.31158" lon="6.4869">
        <ele>615.8</ele>
        <time>2021-04-03T13:09:52Z</time>
      </trkpt>
      <trkpt lat="46.3116" lon="6.48697">
        <ele>615.8</ele>
        <time>2021-04-03T13:09:53Z</time>
      </trkpt>
      <trkpt lat="46.31163" lon="6.48704">
        <ele>615.8</ele>
        <time>2021-04-03T13:09:54Z</time>
      </trkpt>
      <trkpt lat="46.31166" lon="6.48718">
        <ele>615.8</ele>
        <time>2021-04-03T13:09:55Z</time>
      </trkpt>
      <trkpt lat="46.31167" lon="6.48721">
        <ele>615.8</ele>
        <time>2021-04-03T13:09:56Z</time>
      </trkpt>
      <trkpt lat="46.31168" lon="6.48724">
        <ele>615.8</ele>
        <time>2021-04-03T13:09:57Z</time>
      </trkpt>
      <trkpt lat="46.31169" lon="6.48731">
        <ele>615.8</ele>
        <time>2021-04-03T13:09:58Z</time>
      </trkpt>
      <trkpt lat="46.3117" lon="6.48737">
        <ele>616</ele>
        <time>2021-04-03T13:09:59Z</time>
      </trkpt>
      <trkpt lat="46.31172" lon="6.48744">
        <ele>615.8</ele>
        <time>2021-04-03T13:10:00Z</time>
      </trkpt>
      <trkpt lat="46.31175" lon="6.48757">
        <ele>616</ele>
        <time>2021-04-03T13:10:01Z</time>
      </trkpt>
      <trkpt lat="46.31176" lon="6.48763">
        <ele>616</ele>
        <time>2021-04-03T13:10:02Z</time>
      </trkpt>
      <trkpt lat="46.31178" lon="6.4877">
        <ele>615.8</ele>
        <time>2021-04-03T13:10:03Z</time>
      </trkpt>
      <trkpt lat="46.31179" lon="6.48776">
        <ele>616</ele>
        <time>2021-04-03T13:10:04Z</time>
      </trkpt>
      <trkpt lat="46.3118" lon="6.48779">
        <ele>616</ele>
        <time>2021-04-03T13:10:05Z</time>
      </trkpt>
      <trkpt lat="46.3118" lon="6.48782">
        <ele>616.2</ele>
        <time>2021-04-03T13:10:06Z</time>
      </trkpt>
      <trkpt lat="46.31182" lon="6.48787">
        <ele>616.2</ele>
        <time>2021-04-03T13:10:07Z</time>
      </trkpt>
      <trkpt lat="46.31184" lon="6.48799">
        <ele>616.4</ele>
        <time>2021-04-03T13:10:08Z</time>
      </trkpt>
      <trkpt lat="46.31185" lon="6.48804">
        <ele>616.6</ele>
        <time>2021-04-03T13:10:09Z</time>
      </trkpt>
      <trkpt lat="46.31186" lon="6.48809">
        <ele>616.6</ele>
        <time>2021-04-03T13:10:10Z</time>
      </trkpt>
      <trkpt lat="46.31187" lon="6.48815">
        <ele>616.8</ele>
        <time>2021-04-03T13:10:11Z</time>
      </trkpt>
      <trkpt lat="46.31188" lon="6.48817">
        <ele>616.8</ele>
        <time>2021-04-03T13:10:12Z</time>
      </trkpt>
      <trkpt lat="46.31188" lon="6.4882">
        <ele>617</ele>
        <time>2021-04-03T13:10:13Z</time>
      </trkpt>
      <trkpt lat="46.31189" lon="6.48825">
        <ele>617.4</ele>
        <time>2021-04-03T13:10:14Z</time>
      </trkpt>
      <trkpt lat="46.31189" lon="6.4883">
        <ele>617.4</ele>
        <time>2021-04-03T13:10:15Z</time>
      </trkpt>
      <trkpt lat="46.31191" lon="6.4884">
        <ele>617.6</ele>
        <time>2021-04-03T13:10:16Z</time>
      </trkpt>
      <trkpt lat="46.31191" lon="6.48845">
        <ele>618</ele>
        <time>2021-04-03T13:10:18Z</time>
      </trkpt>
      <trkpt lat="46.31193" lon="6.48855">
        <ele>618.2</ele>
        <time>2021-04-03T13:10:19Z</time>
      </trkpt>
      <trkpt lat="46.31193" lon="6.4886">
        <ele>618.6</ele>
        <time>2021-04-03T13:10:21Z</time>
      </trkpt>
      <trkpt lat="46.31194" lon="6.4887">
        <ele>619</ele>
        <time>2021-04-03T13:10:22Z</time>
      </trkpt>
      <trkpt lat="46.31194" lon="6.48875">
        <ele>619.4</ele>
        <time>2021-04-03T13:10:24Z</time>
      </trkpt>
      <trkpt lat="46.31195" lon="6.4888">
        <ele>619.8</ele>
        <time>2021-04-03T13:10:25Z</time>
      </trkpt>
      <trkpt lat="46.31195" lon="6.48885">
        <ele>620.2</ele>
        <time>2021-04-03T13:10:26Z</time>
      </trkpt>
      <trkpt lat="46.31195" lon="6.48889">
        <ele>620.2</ele>
        <time>2021-04-03T13:10:27Z</time>
      </trkpt>
      <trkpt lat="46.31195" lon="6.48894">
        <ele>620.4</ele>
        <time>2021-04-03T13:10:28Z</time>
      </trkpt>
      <trkpt lat="46.31195" lon="6.48898">
        <ele>620.6</ele>
        <time>2021-04-03T13:10:29Z</time>
      </trkpt>
      <trkpt lat="46.31196" lon="6.48903">
        <ele>620.8</ele>
        <time>2021-04-03T13:10:30Z</time>
      </trkpt>
      <trkpt lat="46.31197" lon="6.48908">
        <ele>621</ele>
        <time>2021-04-03T13:10:31Z</time>
      </trkpt>
      <trkpt lat="46.31199" lon="6.48913">
        <ele>621.4</ele>
        <time>2021-04-03T13:10:32Z</time>
      </trkpt>
      <trkpt lat="46.31201" lon="6.48918">
        <ele>621.4</ele>
        <time>2021-04-03T13:10:33Z</time>
      </trkpt>
      <trkpt lat="46.31207" lon="6.48926">
        <ele>621.6</ele>
        <time>2021-04-03T13:10:34Z</time>
      </trkpt>
      <trkpt lat="46.31209" lon="6.4893">
        <ele>622</ele>
        <time>2021-04-03T13:10:35Z</time>
      </trkpt>
      <trkpt lat="46.31211" lon="6.48932">
        <ele>622</ele>
        <time>2021-04-03T13:10:36Z</time>
      </trkpt>
      <trkpt lat="46.31213" lon="6.48933">
        <ele>622.4</ele>
        <time>2021-04-03T13:10:37Z</time>
      </trkpt>
      <trkpt lat="46.31215" lon="6.48937">
        <ele>622.6</ele>
        <time>2021-04-03T13:10:38Z</time>
      </trkpt>
      <trkpt lat="46.31219" lon="6.4894">
        <ele>622.8</ele>
        <time>2021-04-03T13:10:39Z</time>
      </trkpt>
      <trkpt lat="46.31222" lon="6.48944">
        <ele>622.8</ele>
        <time>2021-04-03T13:10:40Z</time>
      </trkpt>
      <trkpt lat="46.31225" lon="6.48947">
        <ele>623</ele>
        <time>2021-04-03T13:10:41Z</time>
      </trkpt>
      <trkpt lat="46.31227" lon="6.48951">
        <ele>623.4</ele>
        <time>2021-04-03T13:10:42Z</time>
      </trkpt>
      <trkpt lat="46.31231" lon="6.48955">
        <ele>623.6</ele>
        <time>2021-04-03T13:10:43Z</time>
      </trkpt>
      <trkpt lat="46.31233" lon="6.48958">
        <ele>624</ele>
        <time>2021-04-03T13:10:44Z</time>
      </trkpt>
      <trkpt lat="46.31236" lon="6.48962">
        <ele>624.2</ele>
        <time>2021-04-03T13:10:45Z</time>
      </trkpt>
      <trkpt lat="46.31238" lon="6.48966">
        <ele>624.6</ele>
        <time>2021-04-03T13:10:46Z</time>
      </trkpt>
      <trkpt lat="46.31241" lon="6.4897">
        <ele>624.8</ele>
        <time>2021-04-03T13:10:47Z</time>
      </trkpt>
      <trkpt lat="46.31243" lon="6.48974">
        <ele>625.2</ele>
        <time>2021-04-03T13:10:48Z</time>
      </trkpt>
      <trkpt lat="46.31246" lon="6.48978">
        <ele>625.4</ele>
        <time>2021-04-03T13:10:49Z</time>
      </trkpt>
      <trkpt lat="46.31247" lon="6.48982">
        <ele>625.8</ele>
        <time>2021-04-03T13:10:50Z</time>
      </trkpt>
      <trkpt lat="46.31249" lon="6.48987">
        <ele>626</ele>
        <time>2021-04-03T13:10:51Z</time>
      </trkpt>
      <trkpt lat="46.31251" lon="6.48991">
        <ele>626</ele>
        <time>2021-04-03T13:10:52Z</time>
      </trkpt>
      <trkpt lat="46.31253" lon="6.48996">
        <ele>626</ele>
        <time>2021-04-03T13:10:53Z</time>
      </trkpt>
      <trkpt lat="46.31254" lon="6.49">
        <ele>626.2</ele>
        <time>2021-04-03T13:10:54Z</time>
      </trkpt>
      <trkpt lat="46.31255" lon="6.49004">
        <ele>626.2</ele>
        <time>2021-04-03T13:10:55Z</time>
      </trkpt>
      <trkpt lat="46.31255" lon="6.49009">
        <ele>626.2</ele>
        <time>2021-04-03T13:10:56Z</time>
      </trkpt>
      <trkpt lat="46.31255" lon="6.49013">
        <ele>626.4</ele>
        <time>2021-04-03T13:10:57Z</time>
      </trkpt>
      <trkpt lat="46.31255" lon="6.49018">
        <ele>626.6</ele>
        <time>2021-04-03T13:10:58Z</time>
      </trkpt>
      <trkpt lat="46.31256" lon="6.49023">
        <ele>626.8</ele>
        <time>2021-04-03T13:10:59Z</time>
      </trkpt>
      <trkpt lat="46.31256" lon="6.49028">
        <ele>627</ele>
        <time>2021-04-03T13:11:00Z</time>
      </trkpt>
      <trkpt lat="46.31256" lon="6.49033">
        <ele>627.2</ele>
        <time>2021-04-03T13:11:01Z</time>
      </trkpt>
      <trkpt lat="46.31258" lon="6.49039">
        <ele>627.6</ele>
        <time>2021-04-03T13:11:02Z</time>
      </trkpt>
      <trkpt lat="46.31259" lon="6.49044">
        <ele>627.8</ele>
        <time>2021-04-03T13:11:03Z</time>
      </trkpt>
      <trkpt lat="46.31259" lon="6.49049">
        <ele>627.8</ele>
        <time>2021-04-03T13:11:04Z</time>
      </trkpt>
      <trkpt lat="46.3126" lon="6.49054">
        <ele>628</ele>
        <time>2021-04-03T13:11:05Z</time>
      </trkpt>
      <trkpt lat="46.31261" lon="6.49059">
        <ele>628.2</ele>
        <time>2021-04-03T13:11:06Z</time>
      </trkpt>
      <trkpt lat="46.31263" lon="6.49064">
        <ele>628.2</ele>
        <time>2021-04-03T13:11:07Z</time>
      </trkpt>
      <trkpt lat="46.31264" lon="6.49069">
        <ele>628.4</ele>
        <time>2021-04-03T13:11:08Z</time>
      </trkpt>
      <trkpt lat="46.31266" lon="6.49073">
        <ele>628.4</ele>
        <time>2021-04-03T13:11:09Z</time>
      </trkpt>
      <trkpt lat="46.31267" lon="6.49078">
        <ele>628.8</ele>
        <time>2021-04-03T13:11:10Z</time>
      </trkpt>
      <trkpt lat="46.31269" lon="6.49082">
        <ele>628.8</ele>
        <time>2021-04-03T13:11:11Z</time>
      </trkpt>
      <trkpt lat="46.31272" lon="6.49088">
        <ele>628.8</ele>
        <time>2021-04-03T13:11:12Z</time>
      </trkpt>
      <trkpt lat="46.31275" lon="6.49093">
        <ele>629</ele>
        <time>2021-04-03T13:11:13Z</time>
      </trkpt>
      <trkpt lat="46.31277" lon="6.49097">
        <ele>629.2</ele>
        <time>2021-04-03T13:11:14Z</time>
      </trkpt>
      <trkpt lat="46.31279" lon="6.49098">
        <ele>629.4</ele>
        <time>2021-04-03T13:11:15Z</time>
      </trkpt>
      <trkpt lat="46.3128" lon="6.49098">
        <ele>629.4</ele>
        <time>2021-04-03T13:11:16Z</time>
      </trkpt>
      <trkpt lat="46.31281" lon="6.49097">
        <ele>629.4</ele>
        <time>2021-04-03T13:11:17Z</time>
      </trkpt>
      <trkpt lat="46.31283" lon="6.49097">
        <ele>629.6</ele>
        <time>2021-04-03T13:11:18Z</time>
      </trkpt>
      <trkpt lat="46.31286" lon="6.49097">
        <ele>629.6</ele>
        <time>2021-04-03T13:11:19Z</time>
      </trkpt>
      <trkpt lat="46.3129" lon="6.49098">
        <ele>629.8</ele>
        <time>2021-04-03T13:11:20Z</time>
      </trkpt>
      <trkpt lat="46.31293" lon="6.491">
        <ele>629.8</ele>
        <time>2021-04-03T13:11:21Z</time>
      </trkpt>
      <trkpt lat="46.31297" lon="6.49103">
        <ele>629.8</ele>
        <time>2021-04-03T13:11:22Z</time>
      </trkpt>
      <trkpt lat="46.313" lon="6.49107">
        <ele>629.8</ele>
        <time>2021-04-03T13:11:23Z</time>
      </trkpt>
      <trkpt lat="46.31304" lon="6.49112">
        <ele>630</ele>
        <time>2021-04-03T13:11:24Z</time>
      </trkpt>
      <trkpt lat="46.31307" lon="6.49116">
        <ele>630</ele>
        <time>2021-04-03T13:11:25Z</time>
      </trkpt>
      <trkpt lat="46.3131" lon="6.49121">
        <ele>630</ele>
        <time>2021-04-03T13:11:26Z</time>
      </trkpt>
      <trkpt lat="46.31313" lon="6.49127">
        <ele>629.8</ele>
        <time>2021-04-03T13:11:27Z</time>
      </trkpt>
      <trkpt lat="46.31316" lon="6.49134">
        <ele>629.8</ele>
        <time>2021-04-03T13:11:28Z</time>
      </trkpt>
      <trkpt lat="46.31322" lon="6.49148">
        <ele>629.8</ele>
        <time>2021-04-03T13:11:29Z</time>
      </trkpt>
      <trkpt lat="46.31325" lon="6.49155">
        <ele>629.8</ele>
        <time>2021-04-03T13:11:30Z</time>
      </trkpt>
      <trkpt lat="46.31326" lon="6.49159">
        <ele>629.8</ele>
        <time>2021-04-03T13:11:31Z</time>
      </trkpt>
      <trkpt lat="46.31328" lon="6.49163">
        <ele>629.6</ele>
        <time>2021-04-03T13:11:32Z</time>
      </trkpt>
      <trkpt lat="46.31331" lon="6.4917">
        <ele>629.6</ele>
        <time>2021-04-03T13:11:33Z</time>
      </trkpt>
      <trkpt lat="46.31336" lon="6.49185">
        <ele>629</ele>
        <time>2021-04-03T13:11:34Z</time>
      </trkpt>
      <trkpt lat="46.31337" lon="6.49189">
        <ele>628.8</ele>
        <time>2021-04-03T13:11:35Z</time>
      </trkpt>
      <trkpt lat="46.31339" lon="6.49193">
        <ele>628.6</ele>
        <time>2021-04-03T13:11:36Z</time>
      </trkpt>
      <trkpt lat="46.31342" lon="6.49199">
        <ele>628.4</ele>
        <time>2021-04-03T13:11:37Z</time>
      </trkpt>
      <trkpt lat="46.31346" lon="6.49205">
        <ele>628.2</ele>
        <time>2021-04-03T13:11:38Z</time>
      </trkpt>
      <trkpt lat="46.31349" lon="6.49211">
        <ele>628</ele>
        <time>2021-04-03T13:11:39Z</time>
      </trkpt>
      <trkpt lat="46.31352" lon="6.49219">
        <ele>627.8</ele>
        <time>2021-04-03T13:11:40Z</time>
      </trkpt>
      <trkpt lat="46.31354" lon="6.49227">
        <ele>627.4</ele>
        <time>2021-04-03T13:11:41Z</time>
      </trkpt>
      <trkpt lat="46.31358" lon="6.49245">
        <ele>627.2</ele>
        <time>2021-04-03T13:11:42Z</time>
      </trkpt>
      <trkpt lat="46.3136" lon="6.49254">
        <ele>626.8</ele>
        <time>2021-04-03T13:11:43Z</time>
      </trkpt>
      <trkpt lat="46.31361" lon="6.49259">
        <ele>626.6</ele>
        <time>2021-04-03T13:11:44Z</time>
      </trkpt>
      <trkpt lat="46.31363" lon="6.49264">
        <ele>626.2</ele>
        <time>2021-04-03T13:11:45Z</time>
      </trkpt>
      <trkpt lat="46.31365" lon="6.49274">
        <ele>626.2</ele>
        <time>2021-04-03T13:11:46Z</time>
      </trkpt>
      <trkpt lat="46.31368" lon="6.49285">
        <ele>626</ele>
        <time>2021-04-03T13:11:47Z</time>
      </trkpt>
      <trkpt lat="46.31372" lon="6.49295">
        <ele>625.8</ele>
        <time>2021-04-03T13:11:48Z</time>
      </trkpt>
      <trkpt lat="46.31376" lon="6.49305">
        <ele>626</ele>
        <time>2021-04-03T13:11:49Z</time>
      </trkpt>
      <trkpt lat="46.31381" lon="6.49315">
        <ele>625.6</ele>
        <time>2021-04-03T13:11:50Z</time>
      </trkpt>
      <trkpt lat="46.31386" lon="6.49324">
        <ele>625.2</ele>
        <time>2021-04-03T13:11:51Z</time>
      </trkpt>
      <trkpt lat="46.3139" lon="6.49334">
        <ele>624.8</ele>
        <time>2021-04-03T13:11:52Z</time>
      </trkpt>
      <trkpt lat="46.31394" lon="6.49344">
        <ele>624.4</ele>
        <time>2021-04-03T13:11:53Z</time>
      </trkpt>
      <trkpt lat="46.31401" lon="6.49367">
        <ele>623.6</ele>
        <time>2021-04-03T13:11:54Z</time>
      </trkpt>
      <trkpt lat="46.31403" lon="6.49373">
        <ele>623.2</ele>
        <time>2021-04-03T13:11:55Z</time>
      </trkpt>
      <trkpt lat="46.31405" lon="6.49379">
        <ele>623</ele>
        <time>2021-04-03T13:11:56Z</time>
      </trkpt>
      <trkpt lat="46.31408" lon="6.49391">
        <ele>622.8</ele>
        <time>2021-04-03T13:11:57Z</time>
      </trkpt>
      <trkpt lat="46.3141" lon="6.49403">
        <ele>622.6</ele>
        <time>2021-04-03T13:11:58Z</time>
      </trkpt>
      <trkpt lat="46.31413" lon="6.49416">
        <ele>621.8</ele>
        <time>2021-04-03T13:11:59Z</time>
      </trkpt>
      <trkpt lat="46.31415" lon="6.49428">
        <ele>621.2</ele>
        <time>2021-04-03T13:12:00Z</time>
      </trkpt>
      <trkpt lat="46.31418" lon="6.4944">
        <ele>620.6</ele>
        <time>2021-04-03T13:12:01Z</time>
      </trkpt>
      <trkpt lat="46.31422" lon="6.49452">
        <ele>620</ele>
        <time>2021-04-03T13:12:02Z</time>
      </trkpt>
      <trkpt lat="46.31427" lon="6.49464">
        <ele>619.4</ele>
        <time>2021-04-03T13:12:03Z</time>
      </trkpt>
      <trkpt lat="46.3143" lon="6.49476">
        <ele>619</ele>
        <time>2021-04-03T13:12:04Z</time>
      </trkpt>
      <trkpt lat="46.31435" lon="6.49488">
        <ele>618.2</ele>
        <time>2021-04-03T13:12:05Z</time>
      </trkpt>
      <trkpt lat="46.31439" lon="6.49499">
        <ele>618</ele>
        <time>2021-04-03T13:12:06Z</time>
      </trkpt>
      <trkpt lat="46.31446" lon="6.49522">
        <ele>617.6</ele>
        <time>2021-04-03T13:12:07Z</time>
      </trkpt>
      <trkpt lat="46.3145" lon="6.49534">
        <ele>617.4</ele>
        <time>2021-04-03T13:12:08Z</time>
      </trkpt>
      <trkpt lat="46.31454" lon="6.49546">
        <ele>617.2</ele>
        <time>2021-04-03T13:12:09Z</time>
      </trkpt>
      <trkpt lat="46.31456" lon="6.49551">
        <ele>616.8</ele>
        <time>2021-04-03T13:12:10Z</time>
      </trkpt>
      <trkpt lat="46.31458" lon="6.49557">
        <ele>616.6</ele>
        <time>2021-04-03T13:12:11Z</time>
      </trkpt>
      <trkpt lat="46.31463" lon="6.49569">
        <ele>615.8</ele>
        <time>2021-04-03T13:12:12Z</time>
      </trkpt>
      <trkpt lat="46.31473" lon="6.4959">
        <ele>615.6</ele>
        <time>2021-04-03T13:12:13Z</time>
      </trkpt>
      <trkpt lat="46.31479" lon="6.496">
        <ele>615</ele>
        <time>2021-04-03T13:12:14Z</time>
      </trkpt>
      <trkpt lat="46.31485" lon="6.4961">
        <ele>614.4</ele>
        <time>2021-04-03T13:12:15Z</time>
      </trkpt>
      <trkpt lat="46.31487" lon="6.49615">
        <ele>614.2</ele>
        <time>2021-04-03T13:12:16Z</time>
      </trkpt>
      <trkpt lat="46.3149" lon="6.4962">
        <ele>613.8</ele>
        <time>2021-04-03T13:12:17Z</time>
      </trkpt>
      <trkpt lat="46.31496" lon="6.49629">
        <ele>613.2</ele>
        <time>2021-04-03T13:12:18Z</time>
      </trkpt>
      <trkpt lat="46.31501" lon="6.49638">
        <ele>613.4</ele>
        <time>2021-04-03T13:12:19Z</time>
      </trkpt>
      <trkpt lat="46.31506" lon="6.49647">
        <ele>613.2</ele>
        <time>2021-04-03T13:12:20Z</time>
      </trkpt>
      <trkpt lat="46.31511" lon="6.49656">
        <ele>613.2</ele>
        <time>2021-04-03T13:12:21Z</time>
      </trkpt>
      <trkpt lat="46.31516" lon="6.49664">
        <ele>613.2</ele>
        <time>2021-04-03T13:12:22Z</time>
      </trkpt>
      <trkpt lat="46.31525" lon="6.4968">
        <ele>613.2</ele>
        <time>2021-04-03T13:12:23Z</time>
      </trkpt>
      <trkpt lat="46.31529" lon="6.49688">
        <ele>613</ele>
        <time>2021-04-03T13:12:24Z</time>
      </trkpt>
      <trkpt lat="46.31532" lon="6.49692">
        <ele>613.2</ele>
        <time>2021-04-03T13:12:25Z</time>
      </trkpt>
      <trkpt lat="46.31534" lon="6.49695">
        <ele>613.2</ele>
        <time>2021-04-03T13:12:26Z</time>
      </trkpt>
      <trkpt lat="46.31544" lon="6.4971">
        <ele>613</ele>
        <time>2021-04-03T13:12:27Z</time>
      </trkpt>
      <trkpt lat="46.31549" lon="6.49717">
        <ele>613.4</ele>
        <time>2021-04-03T13:12:28Z</time>
      </trkpt>
      <trkpt lat="46.31551" lon="6.4972">
        <ele>613.4</ele>
        <time>2021-04-03T13:12:29Z</time>
      </trkpt>
      <trkpt lat="46.31553" lon="6.49723">
        <ele>613.8</ele>
        <time>2021-04-03T13:12:30Z</time>
      </trkpt>
      <trkpt lat="46.3156" lon="6.49734">
        <ele>614</ele>
        <time>2021-04-03T13:12:31Z</time>
      </trkpt>
      <trkpt lat="46.31562" lon="6.49737">
        <ele>614.2</ele>
        <time>2021-04-03T13:12:32Z</time>
      </trkpt>
      <trkpt lat="46.31572" lon="6.49751">
        <ele>614.4</ele>
        <time>2021-04-03T13:12:33Z</time>
      </trkpt>
      <trkpt lat="46.31577" lon="6.49758">
        <ele>614.6</ele>
        <time>2021-04-03T13:12:34Z</time>
      </trkpt>
      <trkpt lat="46.31582" lon="6.49765">
        <ele>614.8</ele>
        <time>2021-04-03T13:12:35Z</time>
      </trkpt>
      <trkpt lat="46.31587" lon="6.49772">
        <ele>614.8</ele>
        <time>2021-04-03T13:12:36Z</time>
      </trkpt>
      <trkpt lat="46.31593" lon="6.49779">
        <ele>614.8</ele>
        <time>2021-04-03T13:12:37Z</time>
      </trkpt>
      <trkpt lat="46.31599" lon="6.49786">
        <ele>614.8</ele>
        <time>2021-04-03T13:12:38Z</time>
      </trkpt>
      <trkpt lat="46.31604" lon="6.49793">
        <ele>614.8</ele>
        <time>2021-04-03T13:12:39Z</time>
      </trkpt>
      <trkpt lat="46.31609" lon="6.498">
        <ele>615</ele>
        <time>2021-04-03T13:12:40Z</time>
      </trkpt>
      <trkpt lat="46.31614" lon="6.49807">
        <ele>614.8</ele>
        <time>2021-04-03T13:12:41Z</time>
      </trkpt>
      <trkpt lat="46.31619" lon="6.49813">
        <ele>615</ele>
        <time>2021-04-03T13:12:42Z</time>
      </trkpt>
      <trkpt lat="46.31625" lon="6.4982">
        <ele>615</ele>
        <time>2021-04-03T13:12:43Z</time>
      </trkpt>
      <trkpt lat="46.31631" lon="6.49826">
        <ele>615</ele>
        <time>2021-04-03T13:12:44Z</time>
      </trkpt>
      <trkpt lat="46.31637" lon="6.49831">
        <ele>615</ele>
        <time>2021-04-03T13:12:45Z</time>
      </trkpt>
      <trkpt lat="46.31643" lon="6.49836">
        <ele>615</ele>
        <time>2021-04-03T13:12:46Z</time>
      </trkpt>
      <trkpt lat="46.3165" lon="6.4984">
        <ele>614.8</ele>
        <time>2021-04-03T13:12:47Z</time>
      </trkpt>
      <trkpt lat="46.31658" lon="6.49844">
        <ele>615</ele>
        <time>2021-04-03T13:12:48Z</time>
      </trkpt>
      <trkpt lat="46.31666" lon="6.49847">
        <ele>615</ele>
        <time>2021-04-03T13:12:49Z</time>
      </trkpt>
      <trkpt lat="46.31674" lon="6.49851">
        <ele>614.8</ele>
        <time>2021-04-03T13:12:50Z</time>
      </trkpt>
      <trkpt lat="46.31681" lon="6.49854">
        <ele>614.8</ele>
        <time>2021-04-03T13:12:51Z</time>
      </trkpt>
      <trkpt lat="46.31688" lon="6.49858">
        <ele>614.6</ele>
        <time>2021-04-03T13:12:52Z</time>
      </trkpt>
      <trkpt lat="46.31695" lon="6.49862">
        <ele>614.4</ele>
        <time>2021-04-03T13:12:53Z</time>
      </trkpt>
      <trkpt lat="46.31701" lon="6.49866">
        <ele>614.2</ele>
        <time>2021-04-03T13:12:54Z</time>
      </trkpt>
      <trkpt lat="46.31707" lon="6.49871">
        <ele>614.2</ele>
        <time>2021-04-03T13:12:55Z</time>
      </trkpt>
      <trkpt lat="46.31713" lon="6.49876">
        <ele>614</ele>
        <time>2021-04-03T13:12:56Z</time>
      </trkpt>
      <trkpt lat="46.31719" lon="6.4988">
        <ele>614</ele>
        <time>2021-04-03T13:12:57Z</time>
      </trkpt>
      <trkpt lat="46.31724" lon="6.49885">
        <ele>613.8</ele>
        <time>2021-04-03T13:12:58Z</time>
      </trkpt>
      <trkpt lat="46.3173" lon="6.49889">
        <ele>613.8</ele>
        <time>2021-04-03T13:12:59Z</time>
      </trkpt>
      <trkpt lat="46.31735" lon="6.49893">
        <ele>613.8</ele>
        <time>2021-04-03T13:13:00Z</time>
      </trkpt>
      <trkpt lat="46.31741" lon="6.49898">
        <ele>613.6</ele>
        <time>2021-04-03T13:13:01Z</time>
      </trkpt>
      <trkpt lat="46.31747" lon="6.49902">
        <ele>613.6</ele>
        <time>2021-04-03T13:13:02Z</time>
      </trkpt>
      <trkpt lat="46.31753" lon="6.49907">
        <ele>613.6</ele>
        <time>2021-04-03T13:13:03Z</time>
      </trkpt>
      <trkpt lat="46.31758" lon="6.49911">
        <ele>613.4</ele>
        <time>2021-04-03T13:13:04Z</time>
      </trkpt>
      <trkpt lat="46.31764" lon="6.49915">
        <ele>613.2</ele>
        <time>2021-04-03T13:13:05Z</time>
      </trkpt>
      <trkpt lat="46.31777" lon="6.49921">
        <ele>613</ele>
        <time>2021-04-03T13:13:07Z</time>
      </trkpt>
      <trkpt lat="46.31783" lon="6.49925">
        <ele>612.8</ele>
        <time>2021-04-03T13:13:08Z</time>
      </trkpt>
      <trkpt lat="46.3179" lon="6.49928">
        <ele>612.8</ele>
        <time>2021-04-03T13:13:09Z</time>
      </trkpt>
      <trkpt lat="46.31795" lon="6.49931">
        <ele>612.6</ele>
        <time>2021-04-03T13:13:10Z</time>
      </trkpt>
      <trkpt lat="46.31799" lon="6.49935">
        <ele>612.6</ele>
        <time>2021-04-03T13:13:11Z</time>
      </trkpt>
      <trkpt lat="46.31801" lon="6.49937">
        <ele>612.6</ele>
        <time>2021-04-03T13:13:12Z</time>
      </trkpt>
      <trkpt lat="46.31803" lon="6.49938">
        <ele>612.6</ele>
        <time>2021-04-03T13:13:13Z</time>
      </trkpt>
      <trkpt lat="46.31807" lon="6.49941">
        <ele>612.6</ele>
        <time>2021-04-03T13:13:14Z</time>
      </trkpt>
      <trkpt lat="46.31812" lon="6.49943">
        <ele>612.6</ele>
        <time>2021-04-03T13:13:15Z</time>
      </trkpt>
      <trkpt lat="46.31819" lon="6.49944">
        <ele>612.4</ele>
        <time>2021-04-03T13:13:16Z</time>
      </trkpt>
      <trkpt lat="46.31824" lon="6.49944">
        <ele>612.2</ele>
        <time>2021-04-03T13:13:17Z</time>
      </trkpt>
      <trkpt lat="46.3183" lon="6.49942">
        <ele>611.6</ele>
        <time>2021-04-03T13:13:18Z</time>
      </trkpt>
      <trkpt lat="46.31835" lon="6.49939">
        <ele>611.2</ele>
        <time>2021-04-03T13:13:19Z</time>
      </trkpt>
      <trkpt lat="46.31841" lon="6.49934">
        <ele>611.2</ele>
        <time>2021-04-03T13:13:20Z</time>
      </trkpt>
      <trkpt lat="46.31847" lon="6.49929">
        <ele>610.8</ele>
        <time>2021-04-03T13:13:21Z</time>
      </trkpt>
      <trkpt lat="46.31853" lon="6.49922">
        <ele>610.8</ele>
        <time>2021-04-03T13:13:22Z</time>
      </trkpt>
      <trkpt lat="46.31859" lon="6.49916">
        <ele>610.8</ele>
        <time>2021-04-03T13:13:23Z</time>
      </trkpt>
      <trkpt lat="46.31865" lon="6.4991">
        <ele>610.6</ele>
        <time>2021-04-03T13:13:24Z</time>
      </trkpt>
      <trkpt lat="46.31872" lon="6.49904">
        <ele>610.4</ele>
        <time>2021-04-03T13:13:25Z</time>
      </trkpt>
      <trkpt lat="46.31879" lon="6.49898">
        <ele>610</ele>
        <time>2021-04-03T13:13:26Z</time>
      </trkpt>
      <trkpt lat="46.31886" lon="6.49893">
        <ele>610</ele>
        <time>2021-04-03T13:13:27Z</time>
      </trkpt>
      <trkpt lat="46.31893" lon="6.49889">
        <ele>609.4</ele>
        <time>2021-04-03T13:13:28Z</time>
      </trkpt>
      <trkpt lat="46.31901" lon="6.49887">
        <ele>609.4</ele>
        <time>2021-04-03T13:13:29Z</time>
      </trkpt>
      <trkpt lat="46.31908" lon="6.49885">
        <ele>609</ele>
        <time>2021-04-03T13:13:30Z</time>
      </trkpt>
      <trkpt lat="46.31916" lon="6.49883">
        <ele>608.8</ele>
        <time>2021-04-03T13:13:31Z</time>
      </trkpt>
      <trkpt lat="46.31924" lon="6.4988">
        <ele>608.2</ele>
        <time>2021-04-03T13:13:32Z</time>
      </trkpt>
      <trkpt lat="46.31932" lon="6.49877">
        <ele>607.8</ele>
        <time>2021-04-03T13:13:33Z</time>
      </trkpt>
      <trkpt lat="46.3194" lon="6.49874">
        <ele>607.2</ele>
        <time>2021-04-03T13:13:34Z</time>
      </trkpt>
      <trkpt lat="46.31948" lon="6.49869">
        <ele>606.8</ele>
        <time>2021-04-03T13:13:35Z</time>
      </trkpt>
      <trkpt lat="46.31956" lon="6.49865">
        <ele>606</ele>
        <time>2021-04-03T13:13:36Z</time>
      </trkpt>
      <trkpt lat="46.31964" lon="6.49861">
        <ele>605.8</ele>
        <time>2021-04-03T13:13:37Z</time>
      </trkpt>
      <trkpt lat="46.31973" lon="6.49858">
        <ele>605</ele>
        <time>2021-04-03T13:13:38Z</time>
      </trkpt>
      <trkpt lat="46.31981" lon="6.49856">
        <ele>604.2</ele>
        <time>2021-04-03T13:13:39Z</time>
      </trkpt>
      <trkpt lat="46.3199" lon="6.49855">
        <ele>603.8</ele>
        <time>2021-04-03T13:13:40Z</time>
      </trkpt>
      <trkpt lat="46.31999" lon="6.49855">
        <ele>603.4</ele>
        <time>2021-04-03T13:13:41Z</time>
      </trkpt>
      <trkpt lat="46.32008" lon="6.49856">
        <ele>603.4</ele>
        <time>2021-04-03T13:13:42Z</time>
      </trkpt>
      <trkpt lat="46.32016" lon="6.49857">
        <ele>603</ele>
        <time>2021-04-03T13:13:43Z</time>
      </trkpt>
      <trkpt lat="46.32024" lon="6.49859">
        <ele>602</ele>
        <time>2021-04-03T13:13:44Z</time>
      </trkpt>
      <trkpt lat="46.32032" lon="6.49861">
        <ele>601.4</ele>
        <time>2021-04-03T13:13:45Z</time>
      </trkpt>
      <trkpt lat="46.32039" lon="6.49865">
        <ele>601.4</ele>
        <time>2021-04-03T13:13:46Z</time>
      </trkpt>
      <trkpt lat="46.32047" lon="6.49869">
        <ele>601</ele>
        <time>2021-04-03T13:13:47Z</time>
      </trkpt>
      <trkpt lat="46.32054" lon="6.49874">
        <ele>600.6</ele>
        <time>2021-04-03T13:13:48Z</time>
      </trkpt>
      <trkpt lat="46.32061" lon="6.49879">
        <ele>600.6</ele>
        <time>2021-04-03T13:13:49Z</time>
      </trkpt>
      <trkpt lat="46.32069" lon="6.49884">
        <ele>600</ele>
        <time>2021-04-03T13:13:50Z</time>
      </trkpt>
      <trkpt lat="46.32076" lon="6.4989">
        <ele>599</ele>
        <time>2021-04-03T13:13:51Z</time>
      </trkpt>
      <trkpt lat="46.32083" lon="6.49896">
        <ele>598.4</ele>
        <time>2021-04-03T13:13:52Z</time>
      </trkpt>
      <trkpt lat="46.32091" lon="6.49903">
        <ele>597.8</ele>
        <time>2021-04-03T13:13:53Z</time>
      </trkpt>
      <trkpt lat="46.32097" lon="6.49909">
        <ele>597.6</ele>
        <time>2021-04-03T13:13:54Z</time>
      </trkpt>
      <trkpt lat="46.32104" lon="6.49917">
        <ele>597.4</ele>
        <time>2021-04-03T13:13:55Z</time>
      </trkpt>
      <trkpt lat="46.3211" lon="6.49925">
        <ele>597.2</ele>
        <time>2021-04-03T13:13:56Z</time>
      </trkpt>
      <trkpt lat="46.32116" lon="6.49934">
        <ele>597</ele>
        <time>2021-04-03T13:13:57Z</time>
      </trkpt>
      <trkpt lat="46.32122" lon="6.49943">
        <ele>596.8</ele>
        <time>2021-04-03T13:13:58Z</time>
      </trkpt>
      <trkpt lat="46.32127" lon="6.49952">
        <ele>596.4</ele>
        <time>2021-04-03T13:13:59Z</time>
      </trkpt>
      <trkpt lat="46.32132" lon="6.49961">
        <ele>596.2</ele>
        <time>2021-04-03T13:14:00Z</time>
      </trkpt>
      <trkpt lat="46.32137" lon="6.49971">
        <ele>596</ele>
        <time>2021-04-03T13:14:01Z</time>
      </trkpt>
      <trkpt lat="46.32143" lon="6.4998">
        <ele>595.8</ele>
        <time>2021-04-03T13:14:02Z</time>
      </trkpt>
      <trkpt lat="46.32149" lon="6.4999">
        <ele>595.4</ele>
        <time>2021-04-03T13:14:03Z</time>
      </trkpt>
      <trkpt lat="46.32154" lon="6.49999">
        <ele>595.2</ele>
        <time>2021-04-03T13:14:04Z</time>
      </trkpt>
      <trkpt lat="46.3216" lon="6.5001">
        <ele>595</ele>
        <time>2021-04-03T13:14:05Z</time>
      </trkpt>
      <trkpt lat="46.32166" lon="6.5002">
        <ele>594.8</ele>
        <time>2021-04-03T13:14:06Z</time>
      </trkpt>
      <trkpt lat="46.32172" lon="6.5003">
        <ele>594.8</ele>
        <time>2021-04-03T13:14:07Z</time>
      </trkpt>
      <trkpt lat="46.32178" lon="6.5004">
        <ele>594.6</ele>
        <time>2021-04-03T13:14:08Z</time>
      </trkpt>
      <trkpt lat="46.32185" lon="6.5005">
        <ele>594.2</ele>
        <time>2021-04-03T13:14:09Z</time>
      </trkpt>
      <trkpt lat="46.32191" lon="6.50061">
        <ele>593.8</ele>
        <time>2021-04-03T13:14:10Z</time>
      </trkpt>
      <trkpt lat="46.32196" lon="6.50071">
        <ele>593.4</ele>
        <time>2021-04-03T13:14:11Z</time>
      </trkpt>
      <trkpt lat="46.32203" lon="6.50082">
        <ele>593</ele>
        <time>2021-04-03T13:14:12Z</time>
      </trkpt>
      <trkpt lat="46.32209" lon="6.50092">
        <ele>592.8</ele>
        <time>2021-04-03T13:14:13Z</time>
      </trkpt>
      <trkpt lat="46.32215" lon="6.50103">
        <ele>592.8</ele>
        <time>2021-04-03T13:14:14Z</time>
      </trkpt>
      <trkpt lat="46.32221" lon="6.50113">
        <ele>592.4</ele>
        <time>2021-04-03T13:14:15Z</time>
      </trkpt>
      <trkpt lat="46.32233" lon="6.50134">
        <ele>591.8</ele>
        <time>2021-04-03T13:14:16Z</time>
      </trkpt>
      <trkpt lat="46.32236" lon="6.5014">
        <ele>591.4</ele>
        <time>2021-04-03T13:14:17Z</time>
      </trkpt>
      <trkpt lat="46.32239" lon="6.50145">
        <ele>591</ele>
        <time>2021-04-03T13:14:18Z</time>
      </trkpt>
      <trkpt lat="46.32247" lon="6.5016">
        <ele>590.6</ele>
        <time>2021-04-03T13:14:19Z</time>
      </trkpt>
      <trkpt lat="46.3225" lon="6.50165">
        <ele>590.4</ele>
        <time>2021-04-03T13:14:20Z</time>
      </trkpt>
      <trkpt lat="46.32262" lon="6.50185">
        <ele>590.2</ele>
        <time>2021-04-03T13:14:21Z</time>
      </trkpt>
      <trkpt lat="46.32268" lon="6.50195">
        <ele>590</ele>
        <time>2021-04-03T13:14:22Z</time>
      </trkpt>
      <trkpt lat="46.32274" lon="6.50205">
        <ele>589.8</ele>
        <time>2021-04-03T13:14:23Z</time>
      </trkpt>
      <trkpt lat="46.32277" lon="6.5021">
        <ele>589.6</ele>
        <time>2021-04-03T13:14:24Z</time>
      </trkpt>
      <trkpt lat="46.3228" lon="6.50215">
        <ele>589</ele>
        <time>2021-04-03T13:14:25Z</time>
      </trkpt>
      <trkpt lat="46.32292" lon="6.50234">
        <ele>588.2</ele>
        <time>2021-04-03T13:14:26Z</time>
      </trkpt>
      <trkpt lat="46.32296" lon="6.50241">
        <ele>588</ele>
        <time>2021-04-03T13:14:27Z</time>
      </trkpt>
      <trkpt lat="46.323" lon="6.50247">
        <ele>587.8</ele>
        <time>2021-04-03T13:14:28Z</time>
      </trkpt>
      <trkpt lat="46.32308" lon="6.50261">
        <ele>587.4</ele>
        <time>2021-04-03T13:14:29Z</time>
      </trkpt>
      <trkpt lat="46.32313" lon="6.50269">
        <ele>587.4</ele>
        <time>2021-04-03T13:14:30Z</time>
      </trkpt>
      <trkpt lat="46.32316" lon="6.50275">
        <ele>587.2</ele>
        <time>2021-04-03T13:14:31Z</time>
      </trkpt>
      <trkpt lat="46.3232" lon="6.50281">
        <ele>587.4</ele>
        <time>2021-04-03T13:14:32Z</time>
      </trkpt>
      <trkpt lat="46.32326" lon="6.50292">
        <ele>587.2</ele>
        <time>2021-04-03T13:14:33Z</time>
      </trkpt>
      <trkpt lat="46.3233" lon="6.50299">
        <ele>587.2</ele>
        <time>2021-04-03T13:14:34Z</time>
      </trkpt>
      <trkpt lat="46.32334" lon="6.50305">
        <ele>587.2</ele>
        <time>2021-04-03T13:14:35Z</time>
      </trkpt>
      <trkpt lat="46.32337" lon="6.50312">
        <ele>587.2</ele>
        <time>2021-04-03T13:14:36Z</time>
      </trkpt>
      <trkpt lat="46.3234" lon="6.50317">
        <ele>587.2</ele>
        <time>2021-04-03T13:14:37Z</time>
      </trkpt>
      <trkpt lat="46.32344" lon="6.50323">
        <ele>587.2</ele>
        <time>2021-04-03T13:14:38Z</time>
      </trkpt>
      <trkpt lat="46.32345" lon="6.50326">
        <ele>587.4</ele>
        <time>2021-04-03T13:14:39Z</time>
      </trkpt>
      <trkpt lat="46.32347" lon="6.50329">
        <ele>587.2</ele>
        <time>2021-04-03T13:14:40Z</time>
      </trkpt>
      <trkpt lat="46.32351" lon="6.50335">
        <ele>587.4</ele>
        <time>2021-04-03T13:14:41Z</time>
      </trkpt>
      <trkpt lat="46.32354" lon="6.50341">
        <ele>588</ele>
        <time>2021-04-03T13:14:42Z</time>
      </trkpt>
      <trkpt lat="46.32357" lon="6.50347">
        <ele>588.6</ele>
        <time>2021-04-03T13:14:43Z</time>
      </trkpt>
      <trkpt lat="46.3236" lon="6.50352">
        <ele>588.6</ele>
        <time>2021-04-03T13:14:44Z</time>
      </trkpt>
      <trkpt lat="46.32364" lon="6.50358">
        <ele>588.8</ele>
        <time>2021-04-03T13:14:45Z</time>
      </trkpt>
      <trkpt lat="46.32367" lon="6.50364">
        <ele>589</ele>
        <time>2021-04-03T13:14:46Z</time>
      </trkpt>
      <trkpt lat="46.3237" lon="6.50369">
        <ele>589.2</ele>
        <time>2021-04-03T13:14:47Z</time>
      </trkpt>
      <trkpt lat="46.32373" lon="6.50375">
        <ele>589.4</ele>
        <time>2021-04-03T13:14:48Z</time>
      </trkpt>
      <trkpt lat="46.32377" lon="6.50381">
        <ele>589.6</ele>
        <time>2021-04-03T13:14:49Z</time>
      </trkpt>
      <trkpt lat="46.3238" lon="6.50386">
        <ele>589.8</ele>
        <time>2021-04-03T13:14:50Z</time>
      </trkpt>
      <trkpt lat="46.32383" lon="6.50392">
        <ele>590.2</ele>
        <time>2021-04-03T13:14:51Z</time>
      </trkpt>
      <trkpt lat="46.32387" lon="6.50397">
        <ele>590.4</ele>
        <time>2021-04-03T13:14:52Z</time>
      </trkpt>
      <trkpt lat="46.3239" lon="6.50402">
        <ele>590.4</ele>
        <time>2021-04-03T13:14:53Z</time>
      </trkpt>
      <trkpt lat="46.32393" lon="6.50407">
        <ele>590.4</ele>
        <time>2021-04-03T13:14:54Z</time>
      </trkpt>
      <trkpt lat="46.32399" lon="6.50417">
        <ele>590.6</ele>
        <time>2021-04-03T13:14:55Z</time>
      </trkpt>
      <trkpt lat="46.32402" lon="6.50421">
        <ele>590.8</ele>
        <time>2021-04-03T13:14:56Z</time>
      </trkpt>
      <trkpt lat="46.32405" lon="6.50426">
        <ele>590.8</ele>
        <time>2021-04-03T13:14:57Z</time>
      </trkpt>
      <trkpt lat="46.32409" lon="6.5043">
        <ele>590.8</ele>
        <time>2021-04-03T13:14:58Z</time>
      </trkpt>
      <trkpt lat="46.32412" lon="6.50433">
        <ele>590.8</ele>
        <time>2021-04-03T13:14:59Z</time>
      </trkpt>
      <trkpt lat="46.32416" lon="6.50437">
        <ele>591</ele>
        <time>2021-04-03T13:15:00Z</time>
      </trkpt>
      <trkpt lat="46.32419" lon="6.5044">
        <ele>591.4</ele>
        <time>2021-04-03T13:15:01Z</time>
      </trkpt>
      <trkpt lat="46.32423" lon="6.50443">
        <ele>591.4</ele>
        <time>2021-04-03T13:15:02Z</time>
      </trkpt>
      <trkpt lat="46.32426" lon="6.50446">
        <ele>591.8</ele>
        <time>2021-04-03T13:15:03Z</time>
      </trkpt>
      <trkpt lat="46.32429" lon="6.50449">
        <ele>592.2</ele>
        <time>2021-04-03T13:15:04Z</time>
      </trkpt>
      <trkpt lat="46.32432" lon="6.50452">
        <ele>592.4</ele>
        <time>2021-04-03T13:15:05Z</time>
      </trkpt>
      <trkpt lat="46.32435" lon="6.50454">
        <ele>592.4</ele>
        <time>2021-04-03T13:15:06Z</time>
      </trkpt>
      <trkpt lat="46.32439" lon="6.50457">
        <ele>592.6</ele>
        <time>2021-04-03T13:15:07Z</time>
      </trkpt>
      <trkpt lat="46.32442" lon="6.5046">
        <ele>592.8</ele>
        <time>2021-04-03T13:15:08Z</time>
      </trkpt>
      <trkpt lat="46.32445" lon="6.50462">
        <ele>592.8</ele>
        <time>2021-04-03T13:15:09Z</time>
      </trkpt>
      <trkpt lat="46.32448" lon="6.50465">
        <ele>593</ele>
        <time>2021-04-03T13:15:10Z</time>
      </trkpt>
      <trkpt lat="46.32451" lon="6.50468">
        <ele>593</ele>
        <time>2021-04-03T13:15:11Z</time>
      </trkpt>
      <trkpt lat="46.32454" lon="6.5047">
        <ele>593.4</ele>
        <time>2021-04-03T13:15:12Z</time>
      </trkpt>
      <trkpt lat="46.32457" lon="6.50473">
        <ele>593.6</ele>
        <time>2021-04-03T13:15:13Z</time>
      </trkpt>
      <trkpt lat="46.32461" lon="6.50476">
        <ele>594</ele>
        <time>2021-04-03T13:15:14Z</time>
      </trkpt>
      <trkpt lat="46.32464" lon="6.50479">
        <ele>594</ele>
        <time>2021-04-03T13:15:15Z</time>
      </trkpt>
      <trkpt lat="46.32467" lon="6.50482">
        <ele>594.2</ele>
        <time>2021-04-03T13:15:16Z</time>
      </trkpt>
      <trkpt lat="46.3247" lon="6.50485">
        <ele>594.2</ele>
        <time>2021-04-03T13:15:17Z</time>
      </trkpt>
      <trkpt lat="46.32474" lon="6.50488">
        <ele>594.8</ele>
        <time>2021-04-03T13:15:18Z</time>
      </trkpt>
      <trkpt lat="46.32477" lon="6.5049">
        <ele>595</ele>
        <time>2021-04-03T13:15:19Z</time>
      </trkpt>
      <trkpt lat="46.3248" lon="6.50493">
        <ele>595.2</ele>
        <time>2021-04-03T13:15:20Z</time>
      </trkpt>
      <trkpt lat="46.32481" lon="6.50494">
        <ele>595.4</ele>
        <time>2021-04-03T13:15:21Z</time>
      </trkpt>
      <trkpt lat="46.32483" lon="6.50496">
        <ele>595.8</ele>
        <time>2021-04-03T13:15:22Z</time>
      </trkpt>
      <trkpt lat="46.32486" lon="6.50498">
        <ele>595.8</ele>
        <time>2021-04-03T13:15:23Z</time>
      </trkpt>
      <trkpt lat="46.32489" lon="6.50501">
        <ele>596</ele>
        <time>2021-04-03T13:15:24Z</time>
      </trkpt>
      <trkpt lat="46.32492" lon="6.50504">
        <ele>596.2</ele>
        <time>2021-04-03T13:15:25Z</time>
      </trkpt>
      <trkpt lat="46.32495" lon="6.50507">
        <ele>596.4</ele>
        <time>2021-04-03T13:15:26Z</time>
      </trkpt>
      <trkpt lat="46.32499" lon="6.50509">
        <ele>596.6</ele>
        <time>2021-04-03T13:15:27Z</time>
      </trkpt>
      <trkpt lat="46.32502" lon="6.50512">
        <ele>596.8</ele>
        <time>2021-04-03T13:15:28Z</time>
      </trkpt>
      <trkpt lat="46.32505" lon="6.50515">
        <ele>597.2</ele>
        <time>2021-04-03T13:15:29Z</time>
      </trkpt>
      <trkpt lat="46.32508" lon="6.50518">
        <ele>597</ele>
        <time>2021-04-03T13:15:30Z</time>
      </trkpt>
      <trkpt lat="46.32511" lon="6.50521">
        <ele>597.2</ele>
        <time>2021-04-03T13:15:31Z</time>
      </trkpt>
      <trkpt lat="46.32514" lon="6.50523">
        <ele>597.6</ele>
        <time>2021-04-03T13:15:32Z</time>
      </trkpt>
      <trkpt lat="46.32518" lon="6.50526">
        <ele>598</ele>
        <time>2021-04-03T13:15:33Z</time>
      </trkpt>
      <trkpt lat="46.32521" lon="6.50529">
        <ele>598</ele>
        <time>2021-04-03T13:15:34Z</time>
      </trkpt>
      <trkpt lat="46.32524" lon="6.50532">
        <ele>598.2</ele>
        <time>2021-04-03T13:15:35Z</time>
      </trkpt>
      <trkpt lat="46.32527" lon="6.50534">
        <ele>598.6</ele>
        <time>2021-04-03T13:15:36Z</time>
      </trkpt>
      <trkpt lat="46.32529" lon="6.50537">
        <ele>598.8</ele>
        <time>2021-04-03T13:15:37Z</time>
      </trkpt>
      <trkpt lat="46.32532" lon="6.5054">
        <ele>599</ele>
        <time>2021-04-03T13:15:38Z</time>
      </trkpt>
      <trkpt lat="46.32535" lon="6.50542">
        <ele>599</ele>
        <time>2021-04-03T13:15:39Z</time>
      </trkpt>
      <trkpt lat="46.32538" lon="6.50545">
        <ele>599.2</ele>
        <time>2021-04-03T13:15:40Z</time>
      </trkpt>
      <trkpt lat="46.32541" lon="6.50548">
        <ele>599.2</ele>
        <time>2021-04-03T13:15:41Z</time>
      </trkpt>
      <trkpt lat="46.32547" lon="6.50554">
        <ele>599.2</ele>
        <time>2021-04-03T13:15:42Z</time>
      </trkpt>
      <trkpt lat="46.3255" lon="6.50557">
        <ele>599.4</ele>
        <time>2021-04-03T13:15:43Z</time>
      </trkpt>
      <trkpt lat="46.32553" lon="6.5056">
        <ele>599.8</ele>
        <time>2021-04-03T13:15:45Z</time>
      </trkpt>
      <trkpt lat="46.32556" lon="6.50562">
        <ele>600</ele>
        <time>2021-04-03T13:15:46Z</time>
      </trkpt>
      <trkpt lat="46.32559" lon="6.50566">
        <ele>600.2</ele>
        <time>2021-04-03T13:15:47Z</time>
      </trkpt>
      <trkpt lat="46.32562" lon="6.50569">
        <ele>600.4</ele>
        <time>2021-04-03T13:15:48Z</time>
      </trkpt>
      <trkpt lat="46.32565" lon="6.50572">
        <ele>600.8</ele>
        <time>2021-04-03T13:15:49Z</time>
      </trkpt>
      <trkpt lat="46.32567" lon="6.50575">
        <ele>601</ele>
        <time>2021-04-03T13:15:50Z</time>
      </trkpt>
      <trkpt lat="46.3257" lon="6.50578">
        <ele>601.2</ele>
        <time>2021-04-03T13:15:51Z</time>
      </trkpt>
      <trkpt lat="46.32573" lon="6.50582">
        <ele>601.4</ele>
        <time>2021-04-03T13:15:52Z</time>
      </trkpt>
      <trkpt lat="46.32576" lon="6.50585">
        <ele>601.6</ele>
        <time>2021-04-03T13:15:53Z</time>
      </trkpt>
      <trkpt lat="46.32579" lon="6.50589">
        <ele>601.8</ele>
        <time>2021-04-03T13:15:54Z</time>
      </trkpt>
      <trkpt lat="46.32582" lon="6.50592">
        <ele>602</ele>
        <time>2021-04-03T13:15:55Z</time>
      </trkpt>
      <trkpt lat="46.32585" lon="6.50595">
        <ele>602</ele>
        <time>2021-04-03T13:15:56Z</time>
      </trkpt>
      <trkpt lat="46.32589" lon="6.50598">
        <ele>602.2</ele>
        <time>2021-04-03T13:15:57Z</time>
      </trkpt>
      <trkpt lat="46.32592" lon="6.50602">
        <ele>602.4</ele>
        <time>2021-04-03T13:15:58Z</time>
      </trkpt>
      <trkpt lat="46.32595" lon="6.50605">
        <ele>602.6</ele>
        <time>2021-04-03T13:15:59Z</time>
      </trkpt>
      <trkpt lat="46.32599" lon="6.50608">
        <ele>602.6</ele>
        <time>2021-04-03T13:16:00Z</time>
      </trkpt>
      <trkpt lat="46.32602" lon="6.50612">
        <ele>602.6</ele>
        <time>2021-04-03T13:16:01Z</time>
      </trkpt>
      <trkpt lat="46.32605" lon="6.50616">
        <ele>602.8</ele>
        <time>2021-04-03T13:16:02Z</time>
      </trkpt>
      <trkpt lat="46.32608" lon="6.50619">
        <ele>602.8</ele>
        <time>2021-04-03T13:16:03Z</time>
      </trkpt>
      <trkpt lat="46.32611" lon="6.50623">
        <ele>603</ele>
        <time>2021-04-03T13:16:04Z</time>
      </trkpt>
      <trkpt lat="46.32614" lon="6.50628">
        <ele>603.4</ele>
        <time>2021-04-03T13:16:05Z</time>
      </trkpt>
      <trkpt lat="46.32617" lon="6.50632">
        <ele>603.6</ele>
        <time>2021-04-03T13:16:06Z</time>
      </trkpt>
      <trkpt lat="46.3262" lon="6.50637">
        <ele>603.6</ele>
        <time>2021-04-03T13:16:07Z</time>
      </trkpt>
      <trkpt lat="46.32623" lon="6.50642">
        <ele>603.8</ele>
        <time>2021-04-03T13:16:08Z</time>
      </trkpt>
      <trkpt lat="46.32627" lon="6.50647">
        <ele>603.8</ele>
        <time>2021-04-03T13:16:09Z</time>
      </trkpt>
      <trkpt lat="46.3263" lon="6.50652">
        <ele>603.8</ele>
        <time>2021-04-03T13:16:10Z</time>
      </trkpt>
      <trkpt lat="46.32633" lon="6.50657">
        <ele>604</ele>
        <time>2021-04-03T13:16:11Z</time>
      </trkpt>
      <trkpt lat="46.32636" lon="6.50662">
        <ele>603.8</ele>
        <time>2021-04-03T13:16:12Z</time>
      </trkpt>
      <trkpt lat="46.32642" lon="6.50673">
        <ele>603.8</ele>
        <time>2021-04-03T13:16:13Z</time>
      </trkpt>
      <trkpt lat="46.32644" lon="6.50676">
        <ele>604.2</ele>
        <time>2021-04-03T13:16:14Z</time>
      </trkpt>
      <trkpt lat="46.32646" lon="6.50679">
        <ele>604</ele>
        <time>2021-04-03T13:16:15Z</time>
      </trkpt>
      <trkpt lat="46.32649" lon="6.50685">
        <ele>604</ele>
        <time>2021-04-03T13:16:16Z</time>
      </trkpt>
      <trkpt lat="46.32652" lon="6.5069">
        <ele>604.2</ele>
        <time>2021-04-03T13:16:17Z</time>
      </trkpt>
      <trkpt lat="46.32655" lon="6.50696">
        <ele>604</ele>
        <time>2021-04-03T13:16:18Z</time>
      </trkpt>
      <trkpt lat="46.32661" lon="6.50707">
        <ele>604</ele>
        <time>2021-04-03T13:16:19Z</time>
      </trkpt>
      <trkpt lat="46.32663" lon="6.5071">
        <ele>604</ele>
        <time>2021-04-03T13:16:20Z</time>
      </trkpt>
      <trkpt lat="46.32665" lon="6.50712">
        <ele>604.2</ele>
        <time>2021-04-03T13:16:21Z</time>
      </trkpt>
      <trkpt lat="46.32669" lon="6.50718">
        <ele>604.2</ele>
        <time>2021-04-03T13:16:22Z</time>
      </trkpt>
      <trkpt lat="46.32673" lon="6.50723">
        <ele>604.4</ele>
        <time>2021-04-03T13:16:23Z</time>
      </trkpt>
      <trkpt lat="46.32677" lon="6.50729">
        <ele>604.4</ele>
        <time>2021-04-03T13:16:24Z</time>
      </trkpt>
      <trkpt lat="46.32679" lon="6.50734">
        <ele>604.4</ele>
        <time>2021-04-03T13:16:25Z</time>
      </trkpt>
      <trkpt lat="46.32682" lon="6.50738">
        <ele>604.4</ele>
        <time>2021-04-03T13:16:26Z</time>
      </trkpt>
      <trkpt lat="46.32685" lon="6.50743">
        <ele>604.6</ele>
        <time>2021-04-03T13:16:27Z</time>
      </trkpt>
      <trkpt lat="46.32689" lon="6.50748">
        <ele>604.4</ele>
        <time>2021-04-03T13:16:28Z</time>
      </trkpt>
      <trkpt lat="46.32693" lon="6.50753">
        <ele>604.4</ele>
        <time>2021-04-03T13:16:29Z</time>
      </trkpt>
      <trkpt lat="46.32696" lon="6.50757">
        <ele>604.4</ele>
        <time>2021-04-03T13:16:30Z</time>
      </trkpt>
      <trkpt lat="46.327" lon="6.50761">
        <ele>604.4</ele>
        <time>2021-04-03T13:16:31Z</time>
      </trkpt>
      <trkpt lat="46.32704" lon="6.50765">
        <ele>604.6</ele>
        <time>2021-04-03T13:16:32Z</time>
      </trkpt>
      <trkpt lat="46.32707" lon="6.50769">
        <ele>604.6</ele>
        <time>2021-04-03T13:16:33Z</time>
      </trkpt>
      <trkpt lat="46.3271" lon="6.50773">
        <ele>604.6</ele>
        <time>2021-04-03T13:16:34Z</time>
      </trkpt>
      <trkpt lat="46.32713" lon="6.50777">
        <ele>604.6</ele>
        <time>2021-04-03T13:16:35Z</time>
      </trkpt>
      <trkpt lat="46.32716" lon="6.50781">
        <ele>604.8</ele>
        <time>2021-04-03T13:16:36Z</time>
      </trkpt>
      <trkpt lat="46.32719" lon="6.50785">
        <ele>604.6</ele>
        <time>2021-04-03T13:16:37Z</time>
      </trkpt>
      <trkpt lat="46.32722" lon="6.50788">
        <ele>604.6</ele>
        <time>2021-04-03T13:16:38Z</time>
      </trkpt>
      <trkpt lat="46.32725" lon="6.50791">
        <ele>604.6</ele>
        <time>2021-04-03T13:16:39Z</time>
      </trkpt>
      <trkpt lat="46.32728" lon="6.50794">
        <ele>604.8</ele>
        <time>2021-04-03T13:16:40Z</time>
      </trkpt>
      <trkpt lat="46.32731" lon="6.50797">
        <ele>604.8</ele>
        <time>2021-04-03T13:16:41Z</time>
      </trkpt>
      <trkpt lat="46.32734" lon="6.508">
        <ele>604.8</ele>
        <time>2021-04-03T13:16:42Z</time>
      </trkpt>
      <trkpt lat="46.32736" lon="6.50803">
        <ele>604.8</ele>
        <time>2021-04-03T13:16:43Z</time>
      </trkpt>
      <trkpt lat="46.32739" lon="6.50805">
        <ele>605</ele>
        <time>2021-04-03T13:16:44Z</time>
      </trkpt>
      <trkpt lat="46.32742" lon="6.50808">
        <ele>605.2</ele>
        <time>2021-04-03T13:16:45Z</time>
      </trkpt>
      <trkpt lat="46.32745" lon="6.50811">
        <ele>605.4</ele>
        <time>2021-04-03T13:16:46Z</time>
      </trkpt>
      <trkpt lat="46.32749" lon="6.50814">
        <ele>605.4</ele>
        <time>2021-04-03T13:16:47Z</time>
      </trkpt>
      <trkpt lat="46.32752" lon="6.50816">
        <ele>605.6</ele>
        <time>2021-04-03T13:16:48Z</time>
      </trkpt>
      <trkpt lat="46.32755" lon="6.50818">
        <ele>605.6</ele>
        <time>2021-04-03T13:16:49Z</time>
      </trkpt>
      <trkpt lat="46.32758" lon="6.5082">
        <ele>606</ele>
        <time>2021-04-03T13:16:50Z</time>
      </trkpt>
      <trkpt lat="46.32761" lon="6.50822">
        <ele>606.4</ele>
        <time>2021-04-03T13:16:51Z</time>
      </trkpt>
      <trkpt lat="46.32765" lon="6.50824">
        <ele>606.6</ele>
        <time>2021-04-03T13:16:52Z</time>
      </trkpt>
      <trkpt lat="46.32768" lon="6.50826">
        <ele>606.8</ele>
        <time>2021-04-03T13:16:53Z</time>
      </trkpt>
      <trkpt lat="46.32772" lon="6.50827">
        <ele>607.2</ele>
        <time>2021-04-03T13:16:54Z</time>
      </trkpt>
      <trkpt lat="46.32775" lon="6.50829">
        <ele>607.4</ele>
        <time>2021-04-03T13:16:55Z</time>
      </trkpt>
      <trkpt lat="46.32778" lon="6.50831">
        <ele>607.4</ele>
        <time>2021-04-03T13:16:56Z</time>
      </trkpt>
      <trkpt lat="46.32782" lon="6.50832">
        <ele>607.6</ele>
        <time>2021-04-03T13:16:57Z</time>
      </trkpt>
      <trkpt lat="46.32786" lon="6.50834">
        <ele>607.6</ele>
        <time>2021-04-03T13:16:58Z</time>
      </trkpt>
      <trkpt lat="46.32789" lon="6.50835">
        <ele>607.8</ele>
        <time>2021-04-03T13:16:59Z</time>
      </trkpt>
      <trkpt lat="46.32793" lon="6.50837">
        <ele>608</ele>
        <time>2021-04-03T13:17:00Z</time>
      </trkpt>
      <trkpt lat="46.328" lon="6.5084">
        <ele>608.4</ele>
        <time>2021-04-03T13:17:01Z</time>
      </trkpt>
      <trkpt lat="46.32802" lon="6.50841">
        <ele>608.6</ele>
        <time>2021-04-03T13:17:02Z</time>
      </trkpt>
      <trkpt lat="46.32803" lon="6.50842">
        <ele>608.8</ele>
        <time>2021-04-03T13:17:03Z</time>
      </trkpt>
      <trkpt lat="46.32807" lon="6.50844">
        <ele>609.2</ele>
        <time>2021-04-03T13:17:04Z</time>
      </trkpt>
      <trkpt lat="46.3281" lon="6.50845">
        <ele>609.6</ele>
        <time>2021-04-03T13:17:05Z</time>
      </trkpt>
      <trkpt lat="46.32814" lon="6.50847">
        <ele>609.8</ele>
        <time>2021-04-03T13:17:06Z</time>
      </trkpt>
      <trkpt lat="46.32817" lon="6.50848">
        <ele>609.8</ele>
        <time>2021-04-03T13:17:07Z</time>
      </trkpt>
      <trkpt lat="46.32821" lon="6.5085">
        <ele>610</ele>
        <time>2021-04-03T13:17:08Z</time>
      </trkpt>
      <trkpt lat="46.32824" lon="6.50851">
        <ele>610.2</ele>
        <time>2021-04-03T13:17:09Z</time>
      </trkpt>
      <trkpt lat="46.32828" lon="6.50853">
        <ele>610.2</ele>
        <time>2021-04-03T13:17:10Z</time>
      </trkpt>
      <trkpt lat="46.32832" lon="6.50854">
        <ele>610.4</ele>
        <time>2021-04-03T13:17:11Z</time>
      </trkpt>
      <trkpt lat="46.32835" lon="6.50856">
        <ele>610.6</ele>
        <time>2021-04-03T13:17:12Z</time>
      </trkpt>
      <trkpt lat="46.32839" lon="6.50857">
        <ele>610.6</ele>
        <time>2021-04-03T13:17:13Z</time>
      </trkpt>
      <trkpt lat="46.32843" lon="6.50859">
        <ele>610.6</ele>
        <time>2021-04-03T13:17:14Z</time>
      </trkpt>
      <trkpt lat="46.32846" lon="6.50861">
        <ele>610.8</ele>
        <time>2021-04-03T13:17:15Z</time>
      </trkpt>
      <trkpt lat="46.3285" lon="6.50862">
        <ele>610.8</ele>
        <time>2021-04-03T13:17:16Z</time>
      </trkpt>
      <trkpt lat="46.32854" lon="6.50863">
        <ele>610.8</ele>
        <time>2021-04-03T13:17:17Z</time>
      </trkpt>
      <trkpt lat="46.32858" lon="6.50865">
        <ele>611</ele>
        <time>2021-04-03T13:17:18Z</time>
      </trkpt>
      <trkpt lat="46.32862" lon="6.50866">
        <ele>611.2</ele>
        <time>2021-04-03T13:17:19Z</time>
      </trkpt>
      <trkpt lat="46.32865" lon="6.50867">
        <ele>611.6</ele>
        <time>2021-04-03T13:17:20Z</time>
      </trkpt>
      <trkpt lat="46.32869" lon="6.50868">
        <ele>611.6</ele>
        <time>2021-04-03T13:17:21Z</time>
      </trkpt>
      <trkpt lat="46.32873" lon="6.50869">
        <ele>612</ele>
        <time>2021-04-03T13:17:22Z</time>
      </trkpt>
      <trkpt lat="46.32877" lon="6.5087">
        <ele>612</ele>
        <time>2021-04-03T13:17:23Z</time>
      </trkpt>
      <trkpt lat="46.32881" lon="6.5087">
        <ele>612.2</ele>
        <time>2021-04-03T13:17:24Z</time>
      </trkpt>
      <trkpt lat="46.32886" lon="6.5087">
        <ele>612.2</ele>
        <time>2021-04-03T13:17:25Z</time>
      </trkpt>
      <trkpt lat="46.3289" lon="6.50871">
        <ele>612.4</ele>
        <time>2021-04-03T13:17:26Z</time>
      </trkpt>
      <trkpt lat="46.32894" lon="6.50871">
        <ele>612.4</ele>
        <time>2021-04-03T13:17:27Z</time>
      </trkpt>
      <trkpt lat="46.32898" lon="6.50871">
        <ele>612.6</ele>
        <time>2021-04-03T13:17:28Z</time>
      </trkpt>
      <trkpt lat="46.32902" lon="6.50871">
        <ele>612.8</ele>
        <time>2021-04-03T13:17:29Z</time>
      </trkpt>
      <trkpt lat="46.32906" lon="6.50871">
        <ele>613</ele>
        <time>2021-04-03T13:17:30Z</time>
      </trkpt>
      <trkpt lat="46.3291" lon="6.50871">
        <ele>613</ele>
        <time>2021-04-03T13:17:31Z</time>
      </trkpt>
      <trkpt lat="46.32914" lon="6.50872">
        <ele>613.4</ele>
        <time>2021-04-03T13:17:32Z</time>
      </trkpt>
      <trkpt lat="46.32918" lon="6.50871">
        <ele>613.6</ele>
        <time>2021-04-03T13:17:33Z</time>
      </trkpt>
      <trkpt lat="46.32922" lon="6.50871">
        <ele>613.6</ele>
        <time>2021-04-03T13:17:34Z</time>
      </trkpt>
      <trkpt lat="46.32926" lon="6.50872">
        <ele>613.4</ele>
        <time>2021-04-03T13:17:35Z</time>
      </trkpt>
      <trkpt lat="46.3293" lon="6.50872">
        <ele>613.6</ele>
        <time>2021-04-03T13:17:36Z</time>
      </trkpt>
      <trkpt lat="46.32933" lon="6.50874">
        <ele>613.6</ele>
        <time>2021-04-03T13:17:37Z</time>
      </trkpt>
      <trkpt lat="46.32941" lon="6.50877">
        <ele>613.8</ele>
        <time>2021-04-03T13:17:38Z</time>
      </trkpt>
      <trkpt lat="46.32943" lon="6.50878">
        <ele>613.6</ele>
        <time>2021-04-03T13:17:39Z</time>
      </trkpt>
      <trkpt lat="46.32945" lon="6.50879">
        <ele>613.8</ele>
        <time>2021-04-03T13:17:40Z</time>
      </trkpt>
      <trkpt lat="46.32949" lon="6.50881">
        <ele>614</ele>
        <time>2021-04-03T13:17:41Z</time>
      </trkpt>
      <trkpt lat="46.32952" lon="6.50883">
        <ele>614</ele>
        <time>2021-04-03T13:17:42Z</time>
      </trkpt>
      <trkpt lat="46.32956" lon="6.50886">
        <ele>614</ele>
        <time>2021-04-03T13:17:43Z</time>
      </trkpt>
      <trkpt lat="46.32959" lon="6.50888">
        <ele>614.4</ele>
        <time>2021-04-03T13:17:44Z</time>
      </trkpt>
      <trkpt lat="46.32963" lon="6.50891">
        <ele>614.4</ele>
        <time>2021-04-03T13:17:45Z</time>
      </trkpt>
      <trkpt lat="46.32966" lon="6.50894">
        <ele>614.8</ele>
        <time>2021-04-03T13:17:46Z</time>
      </trkpt>
      <trkpt lat="46.32974" lon="6.509">
        <ele>615</ele>
        <time>2021-04-03T13:17:47Z</time>
      </trkpt>
      <trkpt lat="46.32977" lon="6.50902">
        <ele>615</ele>
        <time>2021-04-03T13:17:48Z</time>
      </trkpt>
      <trkpt lat="46.32981" lon="6.50905">
        <ele>615.2</ele>
        <time>2021-04-03T13:17:49Z</time>
      </trkpt>
      <trkpt lat="46.32985" lon="6.50909">
        <ele>615.4</ele>
        <time>2021-04-03T13:17:50Z</time>
      </trkpt>
      <trkpt lat="46.32989" lon="6.50912">
        <ele>615.4</ele>
        <time>2021-04-03T13:17:51Z</time>
      </trkpt>
      <trkpt lat="46.32992" lon="6.50916">
        <ele>615.6</ele>
        <time>2021-04-03T13:17:52Z</time>
      </trkpt>
      <trkpt lat="46.32996" lon="6.50919">
        <ele>615.6</ele>
        <time>2021-04-03T13:17:53Z</time>
      </trkpt>
      <trkpt lat="46.32999" lon="6.50922">
        <ele>615.6</ele>
        <time>2021-04-03T13:17:54Z</time>
      </trkpt>
      <trkpt lat="46.33003" lon="6.50925">
        <ele>615.8</ele>
        <time>2021-04-03T13:17:55Z</time>
      </trkpt>
      <trkpt lat="46.33007" lon="6.50928">
        <ele>616</ele>
        <time>2021-04-03T13:17:56Z</time>
      </trkpt>
      <trkpt lat="46.33011" lon="6.50931">
        <ele>616</ele>
        <time>2021-04-03T13:17:57Z</time>
      </trkpt>
      <trkpt lat="46.33015" lon="6.50934">
        <ele>616.2</ele>
        <time>2021-04-03T13:17:58Z</time>
      </trkpt>
      <trkpt lat="46.33019" lon="6.50938">
        <ele>616.2</ele>
        <time>2021-04-03T13:17:59Z</time>
      </trkpt>
      <trkpt lat="46.33023" lon="6.50941">
        <ele>616.2</ele>
        <time>2021-04-03T13:18:00Z</time>
      </trkpt>
      <trkpt lat="46.33028" lon="6.50945">
        <ele>616.2</ele>
        <time>2021-04-03T13:18:01Z</time>
      </trkpt>
      <trkpt lat="46.33032" lon="6.50948">
        <ele>616.2</ele>
        <time>2021-04-03T13:18:02Z</time>
      </trkpt>
      <trkpt lat="46.33037" lon="6.50952">
        <ele>616.2</ele>
        <time>2021-04-03T13:18:03Z</time>
      </trkpt>
      <trkpt lat="46.33041" lon="6.50956">
        <ele>616.2</ele>
        <time>2021-04-03T13:18:04Z</time>
      </trkpt>
      <trkpt lat="46.33046" lon="6.5096">
        <ele>616.2</ele>
        <time>2021-04-03T13:18:05Z</time>
      </trkpt>
      <trkpt lat="46.33051" lon="6.50964">
        <ele>616.2</ele>
        <time>2021-04-03T13:18:06Z</time>
      </trkpt>
      <trkpt lat="46.33056" lon="6.50967">
        <ele>616.2</ele>
        <time>2021-04-03T13:18:07Z</time>
      </trkpt>
      <trkpt lat="46.33061" lon="6.50971">
        <ele>616.2</ele>
        <time>2021-04-03T13:18:08Z</time>
      </trkpt>
      <trkpt lat="46.33066" lon="6.50975">
        <ele>616.2</ele>
        <time>2021-04-03T13:18:09Z</time>
      </trkpt>
      <trkpt lat="46.33071" lon="6.50979">
        <ele>616.2</ele>
        <time>2021-04-03T13:18:10Z</time>
      </trkpt>
      <trkpt lat="46.33076" lon="6.50983">
        <ele>615.8</ele>
        <time>2021-04-03T13:18:11Z</time>
      </trkpt>
      <trkpt lat="46.33081" lon="6.50987">
        <ele>615.8</ele>
        <time>2021-04-03T13:18:12Z</time>
      </trkpt>
      <trkpt lat="46.33086" lon="6.50992">
        <ele>615.6</ele>
        <time>2021-04-03T13:18:13Z</time>
      </trkpt>
      <trkpt lat="46.33091" lon="6.50996">
        <ele>615.4</ele>
        <time>2021-04-03T13:18:14Z</time>
      </trkpt>
      <trkpt lat="46.33097" lon="6.51001">
        <ele>614.6</ele>
        <time>2021-04-03T13:18:15Z</time>
      </trkpt>
      <trkpt lat="46.33102" lon="6.51005">
        <ele>614.4</ele>
        <time>2021-04-03T13:18:16Z</time>
      </trkpt>
      <trkpt lat="46.33108" lon="6.51009">
        <ele>614</ele>
        <time>2021-04-03T13:18:17Z</time>
      </trkpt>
      <trkpt lat="46.33114" lon="6.51013">
        <ele>613.4</ele>
        <time>2021-04-03T13:18:18Z</time>
      </trkpt>
      <trkpt lat="46.3312" lon="6.51018">
        <ele>612.8</ele>
        <time>2021-04-03T13:18:19Z</time>
      </trkpt>
      <trkpt lat="46.33126" lon="6.51022">
        <ele>612.4</ele>
        <time>2021-04-03T13:18:20Z</time>
      </trkpt>
      <trkpt lat="46.33132" lon="6.51026">
        <ele>611.8</ele>
        <time>2021-04-03T13:18:21Z</time>
      </trkpt>
      <trkpt lat="46.33138" lon="6.5103">
        <ele>611.6</ele>
        <time>2021-04-03T13:18:22Z</time>
      </trkpt>
      <trkpt lat="46.33144" lon="6.51034">
        <ele>611.4</ele>
        <time>2021-04-03T13:18:23Z</time>
      </trkpt>
      <trkpt lat="46.33151" lon="6.51037">
        <ele>611.4</ele>
        <time>2021-04-03T13:18:24Z</time>
      </trkpt>
      <trkpt lat="46.33158" lon="6.5104">
        <ele>611.2</ele>
        <time>2021-04-03T13:18:25Z</time>
      </trkpt>
      <trkpt lat="46.33165" lon="6.51043">
        <ele>611</ele>
        <time>2021-04-03T13:18:26Z</time>
      </trkpt>
      <trkpt lat="46.33172" lon="6.51047">
        <ele>611</ele>
        <time>2021-04-03T13:18:27Z</time>
      </trkpt>
      <trkpt lat="46.33179" lon="6.5105">
        <ele>610.8</ele>
        <time>2021-04-03T13:18:28Z</time>
      </trkpt>
      <trkpt lat="46.33186" lon="6.51054">
        <ele>610.6</ele>
        <time>2021-04-03T13:18:29Z</time>
      </trkpt>
      <trkpt lat="46.33193" lon="6.51057">
        <ele>610.8</ele>
        <time>2021-04-03T13:18:30Z</time>
      </trkpt>
      <trkpt lat="46.33199" lon="6.5106">
        <ele>610.6</ele>
        <time>2021-04-03T13:18:31Z</time>
      </trkpt>
      <trkpt lat="46.33206" lon="6.51063">
        <ele>610.6</ele>
        <time>2021-04-03T13:18:32Z</time>
      </trkpt>
      <trkpt lat="46.33213" lon="6.51067">
        <ele>610.2</ele>
        <time>2021-04-03T13:18:33Z</time>
      </trkpt>
      <trkpt lat="46.3322" lon="6.5107">
        <ele>610.2</ele>
        <time>2021-04-03T13:18:34Z</time>
      </trkpt>
      <trkpt lat="46.33227" lon="6.51073">
        <ele>609.8</ele>
        <time>2021-04-03T13:18:35Z</time>
      </trkpt>
      <trkpt lat="46.33234" lon="6.51076">
        <ele>609</ele>
        <time>2021-04-03T13:18:36Z</time>
      </trkpt>
      <trkpt lat="46.33241" lon="6.51079">
        <ele>608.2</ele>
        <time>2021-04-03T13:18:37Z</time>
      </trkpt>
      <trkpt lat="46.33248" lon="6.51082">
        <ele>607.4</ele>
        <time>2021-04-03T13:18:38Z</time>
      </trkpt>
      <trkpt lat="46.33255" lon="6.51085">
        <ele>606.2</ele>
        <time>2021-04-03T13:18:39Z</time>
      </trkpt>
      <trkpt lat="46.33261" lon="6.51089">
        <ele>605.4</ele>
        <time>2021-04-03T13:18:40Z</time>
      </trkpt>
      <trkpt lat="46.33268" lon="6.51092">
        <ele>605</ele>
        <time>2021-04-03T13:18:41Z</time>
      </trkpt>
      <trkpt lat="46.33275" lon="6.51096">
        <ele>604.8</ele>
        <time>2021-04-03T13:18:42Z</time>
      </trkpt>
      <trkpt lat="46.33281" lon="6.511">
        <ele>604.6</ele>
        <time>2021-04-03T13:18:43Z</time>
      </trkpt>
      <trkpt lat="46.33288" lon="6.51104">
        <ele>604.6</ele>
        <time>2021-04-03T13:18:44Z</time>
      </trkpt>
      <trkpt lat="46.33294" lon="6.5111">
        <ele>604.4</ele>
        <time>2021-04-03T13:18:45Z</time>
      </trkpt>
      <trkpt lat="46.333" lon="6.51116">
        <ele>604.4</ele>
        <time>2021-04-03T13:18:46Z</time>
      </trkpt>
      <trkpt lat="46.33305" lon="6.51123">
        <ele>604</ele>
        <time>2021-04-03T13:18:47Z</time>
      </trkpt>
      <trkpt lat="46.3331" lon="6.51129">
        <ele>603.8</ele>
        <time>2021-04-03T13:18:48Z</time>
      </trkpt>
      <trkpt lat="46.33315" lon="6.51136">
        <ele>603.6</ele>
        <time>2021-04-03T13:18:49Z</time>
      </trkpt>
      <trkpt lat="46.33319" lon="6.51142">
        <ele>603.6</ele>
        <time>2021-04-03T13:18:50Z</time>
      </trkpt>
      <trkpt lat="46.33323" lon="6.51149">
        <ele>603.6</ele>
        <time>2021-04-03T13:18:51Z</time>
      </trkpt>
      <trkpt lat="46.33327" lon="6.51155">
        <ele>603.6</ele>
        <time>2021-04-03T13:18:52Z</time>
      </trkpt>
      <trkpt lat="46.33331" lon="6.5116">
        <ele>603.6</ele>
        <time>2021-04-03T13:18:53Z</time>
      </trkpt>
      <trkpt lat="46.33334" lon="6.51166">
        <ele>603.6</ele>
        <time>2021-04-03T13:18:54Z</time>
      </trkpt>
      <trkpt lat="46.33338" lon="6.51171">
        <ele>603.6</ele>
        <time>2021-04-03T13:18:55Z</time>
      </trkpt>
      <trkpt lat="46.33341" lon="6.51177">
        <ele>603.8</ele>
        <time>2021-04-03T13:18:56Z</time>
      </trkpt>
      <trkpt lat="46.33344" lon="6.51182">
        <ele>603.8</ele>
        <time>2021-04-03T13:18:57Z</time>
      </trkpt>
      <trkpt lat="46.33346" lon="6.51188">
        <ele>604</ele>
        <time>2021-04-03T13:18:58Z</time>
      </trkpt>
      <trkpt lat="46.33348" lon="6.51193">
        <ele>604.2</ele>
        <time>2021-04-03T13:18:59Z</time>
      </trkpt>
      <trkpt lat="46.3335" lon="6.51198">
        <ele>604.2</ele>
        <time>2021-04-03T13:19:00Z</time>
      </trkpt>
      <trkpt lat="46.33352" lon="6.51203">
        <ele>604.4</ele>
        <time>2021-04-03T13:19:01Z</time>
      </trkpt>
      <trkpt lat="46.33353" lon="6.51208">
        <ele>604.4</ele>
        <time>2021-04-03T13:19:02Z</time>
      </trkpt>
      <trkpt lat="46.33355" lon="6.51213">
        <ele>604.4</ele>
        <time>2021-04-03T13:19:03Z</time>
      </trkpt>
      <trkpt lat="46.33356" lon="6.51219">
        <ele>605</ele>
        <time>2021-04-03T13:19:04Z</time>
      </trkpt>
      <trkpt lat="46.33356" lon="6.51224">
        <ele>605.2</ele>
        <time>2021-04-03T13:19:05Z</time>
      </trkpt>
      <trkpt lat="46.33356" lon="6.5123">
        <ele>605.2</ele>
        <time>2021-04-03T13:19:06Z</time>
      </trkpt>
      <trkpt lat="46.33357" lon="6.51235">
        <ele>605.6</ele>
        <time>2021-04-03T13:19:07Z</time>
      </trkpt>
      <trkpt lat="46.33357" lon="6.5124">
        <ele>605.8</ele>
        <time>2021-04-03T13:19:08Z</time>
      </trkpt>
      <trkpt lat="46.33357" lon="6.51245">
        <ele>606.2</ele>
        <time>2021-04-03T13:19:09Z</time>
      </trkpt>
      <trkpt lat="46.33357" lon="6.5125">
        <ele>606.8</ele>
        <time>2021-04-03T13:19:10Z</time>
      </trkpt>
      <trkpt lat="46.33357" lon="6.51255">
        <ele>607</ele>
        <time>2021-04-03T13:19:11Z</time>
      </trkpt>
      <trkpt lat="46.33357" lon="6.51259">
        <ele>607.4</ele>
        <time>2021-04-03T13:19:12Z</time>
      </trkpt>
      <trkpt lat="46.33357" lon="6.51264">
        <ele>607.6</ele>
        <time>2021-04-03T13:19:13Z</time>
      </trkpt>
      <trkpt lat="46.33357" lon="6.51269">
        <ele>607.8</ele>
        <time>2021-04-03T13:19:14Z</time>
      </trkpt>
      <trkpt lat="46.33357" lon="6.51273">
        <ele>608.2</ele>
        <time>2021-04-03T13:19:15Z</time>
      </trkpt>
      <trkpt lat="46.33357" lon="6.51278">
        <ele>608.4</ele>
        <time>2021-04-03T13:19:16Z</time>
      </trkpt>
      <trkpt lat="46.33357" lon="6.51283">
        <ele>608.6</ele>
        <time>2021-04-03T13:19:17Z</time>
      </trkpt>
      <trkpt lat="46.33357" lon="6.51287">
        <ele>608.8</ele>
        <time>2021-04-03T13:19:18Z</time>
      </trkpt>
      <trkpt lat="46.33357" lon="6.51292">
        <ele>609</ele>
        <time>2021-04-03T13:19:19Z</time>
      </trkpt>
      <trkpt lat="46.33357" lon="6.51296">
        <ele>609.4</ele>
        <time>2021-04-03T13:19:20Z</time>
      </trkpt>
      <trkpt lat="46.33357" lon="6.51301">
        <ele>609.6</ele>
        <time>2021-04-03T13:19:21Z</time>
      </trkpt>
      <trkpt lat="46.33358" lon="6.51305">
        <ele>610.2</ele>
        <time>2021-04-03T13:19:22Z</time>
      </trkpt>
      <trkpt lat="46.33358" lon="6.5131">
        <ele>610.4</ele>
        <time>2021-04-03T13:19:23Z</time>
      </trkpt>
      <trkpt lat="46.33359" lon="6.51314">
        <ele>610.8</ele>
        <time>2021-04-03T13:19:24Z</time>
      </trkpt>
      <trkpt lat="46.3336" lon="6.51319">
        <ele>611.2</ele>
        <time>2021-04-03T13:19:25Z</time>
      </trkpt>
      <trkpt lat="46.33361" lon="6.51324">
        <ele>611.4</ele>
        <time>2021-04-03T13:19:26Z</time>
      </trkpt>
      <trkpt lat="46.33362" lon="6.51328">
        <ele>611.8</ele>
        <time>2021-04-03T13:19:27Z</time>
      </trkpt>
      <trkpt lat="46.33364" lon="6.51333">
        <ele>612</ele>
        <time>2021-04-03T13:19:28Z</time>
      </trkpt>
      <trkpt lat="46.33366" lon="6.51337">
        <ele>612.2</ele>
        <time>2021-04-03T13:19:29Z</time>
      </trkpt>
      <trkpt lat="46.33368" lon="6.51341">
        <ele>612.4</ele>
        <time>2021-04-03T13:19:30Z</time>
      </trkpt>
      <trkpt lat="46.3337" lon="6.51345">
        <ele>612.6</ele>
        <time>2021-04-03T13:19:31Z</time>
      </trkpt>
      <trkpt lat="46.33372" lon="6.51349">
        <ele>613</ele>
        <time>2021-04-03T13:19:32Z</time>
      </trkpt>
      <trkpt lat="46.33374" lon="6.51353">
        <ele>613.4</ele>
        <time>2021-04-03T13:19:33Z</time>
      </trkpt>
      <trkpt lat="46.33375" lon="6.51356">
        <ele>613.6</ele>
        <time>2021-04-03T13:19:34Z</time>
      </trkpt>
      <trkpt lat="46.33377" lon="6.5136">
        <ele>613.6</ele>
        <time>2021-04-03T13:19:35Z</time>
      </trkpt>
      <trkpt lat="46.33379" lon="6.51364">
        <ele>613.8</ele>
        <time>2021-04-03T13:19:36Z</time>
      </trkpt>
      <trkpt lat="46.33382" lon="6.51368">
        <ele>614</ele>
        <time>2021-04-03T13:19:37Z</time>
      </trkpt>
      <trkpt lat="46.33384" lon="6.51372">
        <ele>614.4</ele>
        <time>2021-04-03T13:19:38Z</time>
      </trkpt>
      <trkpt lat="46.33386" lon="6.51376">
        <ele>614.8</ele>
        <time>2021-04-03T13:19:39Z</time>
      </trkpt>
      <trkpt lat="46.33389" lon="6.51379">
        <ele>614.8</ele>
        <time>2021-04-03T13:19:40Z</time>
      </trkpt>
      <trkpt lat="46.33391" lon="6.51383">
        <ele>615.2</ele>
        <time>2021-04-03T13:19:41Z</time>
      </trkpt>
      <trkpt lat="46.33394" lon="6.51387">
        <ele>615.4</ele>
        <time>2021-04-03T13:19:42Z</time>
      </trkpt>
      <trkpt lat="46.33396" lon="6.51391">
        <ele>615.4</ele>
        <time>2021-04-03T13:19:43Z</time>
      </trkpt>
      <trkpt lat="46.33398" lon="6.51395">
        <ele>615.4</ele>
        <time>2021-04-03T13:19:44Z</time>
      </trkpt>
      <trkpt lat="46.33401" lon="6.51399">
        <ele>615.6</ele>
        <time>2021-04-03T13:19:45Z</time>
      </trkpt>
      <trkpt lat="46.33403" lon="6.51403">
        <ele>615.6</ele>
        <time>2021-04-03T13:19:46Z</time>
      </trkpt>
      <trkpt lat="46.33406" lon="6.51407">
        <ele>615.4</ele>
        <time>2021-04-03T13:19:47Z</time>
      </trkpt>
      <trkpt lat="46.33409" lon="6.51412">
        <ele>615.4</ele>
        <time>2021-04-03T13:19:48Z</time>
      </trkpt>
      <trkpt lat="46.33412" lon="6.51416">
        <ele>615.4</ele>
        <time>2021-04-03T13:19:49Z</time>
      </trkpt>
      <trkpt lat="46.33414" lon="6.5142">
        <ele>615.6</ele>
        <time>2021-04-03T13:19:50Z</time>
      </trkpt>
      <trkpt lat="46.33416" lon="6.51425">
        <ele>615.4</ele>
        <time>2021-04-03T13:19:51Z</time>
      </trkpt>
      <trkpt lat="46.33419" lon="6.5143">
        <ele>615.4</ele>
        <time>2021-04-03T13:19:52Z</time>
      </trkpt>
      <trkpt lat="46.33421" lon="6.51434">
        <ele>615.4</ele>
        <time>2021-04-03T13:19:53Z</time>
      </trkpt>
      <trkpt lat="46.33424" lon="6.51439">
        <ele>615.2</ele>
        <time>2021-04-03T13:19:54Z</time>
      </trkpt>
      <trkpt lat="46.33427" lon="6.51444">
        <ele>615.2</ele>
        <time>2021-04-03T13:19:55Z</time>
      </trkpt>
      <trkpt lat="46.33429" lon="6.51449">
        <ele>615.2</ele>
        <time>2021-04-03T13:19:56Z</time>
      </trkpt>
      <trkpt lat="46.33431" lon="6.51454">
        <ele>615</ele>
        <time>2021-04-03T13:19:57Z</time>
      </trkpt>
      <trkpt lat="46.33434" lon="6.51459">
        <ele>615</ele>
        <time>2021-04-03T13:19:58Z</time>
      </trkpt>
      <trkpt lat="46.33436" lon="6.51464">
        <ele>615</ele>
        <time>2021-04-03T13:19:59Z</time>
      </trkpt>
      <trkpt lat="46.33439" lon="6.51469">
        <ele>614.8</ele>
        <time>2021-04-03T13:20:00Z</time>
      </trkpt>
      <trkpt lat="46.33442" lon="6.51474">
        <ele>615</ele>
        <time>2021-04-03T13:20:01Z</time>
      </trkpt>
      <trkpt lat="46.33444" lon="6.51479">
        <ele>615</ele>
        <time>2021-04-03T13:20:02Z</time>
      </trkpt>
      <trkpt lat="46.33446" lon="6.51483">
        <ele>614.8</ele>
        <time>2021-04-03T13:20:03Z</time>
      </trkpt>
      <trkpt lat="46.33449" lon="6.51488">
        <ele>615.2</ele>
        <time>2021-04-03T13:20:04Z</time>
      </trkpt>
      <trkpt lat="46.33452" lon="6.51493">
        <ele>615.2</ele>
        <time>2021-04-03T13:20:05Z</time>
      </trkpt>
      <trkpt lat="46.33454" lon="6.51498">
        <ele>615.2</ele>
        <time>2021-04-03T13:20:06Z</time>
      </trkpt>
      <trkpt lat="46.33457" lon="6.51504">
        <ele>615.2</ele>
        <time>2021-04-03T13:20:07Z</time>
      </trkpt>
      <trkpt lat="46.3346" lon="6.51509">
        <ele>615.2</ele>
        <time>2021-04-03T13:20:08Z</time>
      </trkpt>
      <trkpt lat="46.33462" lon="6.51513">
        <ele>615.2</ele>
        <time>2021-04-03T13:20:09Z</time>
      </trkpt>
      <trkpt lat="46.33465" lon="6.51518">
        <ele>615.2</ele>
        <time>2021-04-03T13:20:10Z</time>
      </trkpt>
      <trkpt lat="46.33467" lon="6.51523">
        <ele>615.2</ele>
        <time>2021-04-03T13:20:11Z</time>
      </trkpt>
      <trkpt lat="46.3347" lon="6.51529">
        <ele>615.2</ele>
        <time>2021-04-03T13:20:12Z</time>
      </trkpt>
      <trkpt lat="46.33471" lon="6.51534">
        <ele>615</ele>
        <time>2021-04-03T13:20:13Z</time>
      </trkpt>
      <trkpt lat="46.33474" lon="6.51539">
        <ele>615</ele>
        <time>2021-04-03T13:20:14Z</time>
      </trkpt>
      <trkpt lat="46.33477" lon="6.51544">
        <ele>615</ele>
        <time>2021-04-03T13:20:15Z</time>
      </trkpt>
      <trkpt lat="46.3348" lon="6.51549">
        <ele>615</ele>
        <time>2021-04-03T13:20:16Z</time>
      </trkpt>
      <trkpt lat="46.33483" lon="6.51553">
        <ele>615</ele>
        <time>2021-04-03T13:20:17Z</time>
      </trkpt>
      <trkpt lat="46.33484" lon="6.51557">
        <ele>615</ele>
        <time>2021-04-03T13:20:18Z</time>
      </trkpt>
      <trkpt lat="46.33487" lon="6.51562">
        <ele>615</ele>
        <time>2021-04-03T13:20:19Z</time>
      </trkpt>
      <trkpt lat="46.3349" lon="6.51566">
        <ele>615</ele>
        <time>2021-04-03T13:20:20Z</time>
      </trkpt>
      <trkpt lat="46.33493" lon="6.51571">
        <ele>615</ele>
        <time>2021-04-03T13:20:21Z</time>
      </trkpt>
      <trkpt lat="46.33496" lon="6.51575">
        <ele>614.8</ele>
        <time>2021-04-03T13:20:22Z</time>
      </trkpt>
      <trkpt lat="46.335" lon="6.51579">
        <ele>614.8</ele>
        <time>2021-04-03T13:20:23Z</time>
      </trkpt>
      <trkpt lat="46.33504" lon="6.51584">
        <ele>614.8</ele>
        <time>2021-04-03T13:20:24Z</time>
      </trkpt>
      <trkpt lat="46.33508" lon="6.51588">
        <ele>614.8</ele>
        <time>2021-04-03T13:20:25Z</time>
      </trkpt>
      <trkpt lat="46.33511" lon="6.51592">
        <ele>614.8</ele>
        <time>2021-04-03T13:20:26Z</time>
      </trkpt>
      <trkpt lat="46.33515" lon="6.51596">
        <ele>614.8</ele>
        <time>2021-04-03T13:20:27Z</time>
      </trkpt>
      <trkpt lat="46.33518" lon="6.516">
        <ele>614.8</ele>
        <time>2021-04-03T13:20:28Z</time>
      </trkpt>
      <trkpt lat="46.33522" lon="6.51605">
        <ele>614.8</ele>
        <time>2021-04-03T13:20:29Z</time>
      </trkpt>
      <trkpt lat="46.33525" lon="6.51609">
        <ele>614.8</ele>
        <time>2021-04-03T13:20:30Z</time>
      </trkpt>
      <trkpt lat="46.33528" lon="6.51613">
        <ele>614.8</ele>
        <time>2021-04-03T13:20:31Z</time>
      </trkpt>
      <trkpt lat="46.33532" lon="6.51617">
        <ele>615</ele>
        <time>2021-04-03T13:20:32Z</time>
      </trkpt>
      <trkpt lat="46.33536" lon="6.51621">
        <ele>615</ele>
        <time>2021-04-03T13:20:33Z</time>
      </trkpt>
      <trkpt lat="46.33539" lon="6.51625">
        <ele>615</ele>
        <time>2021-04-03T13:20:34Z</time>
      </trkpt>
      <trkpt lat="46.33542" lon="6.51629">
        <ele>615</ele>
        <time>2021-04-03T13:20:35Z</time>
      </trkpt>
      <trkpt lat="46.33545" lon="6.51633">
        <ele>615</ele>
        <time>2021-04-03T13:20:36Z</time>
      </trkpt>
      <trkpt lat="46.33548" lon="6.51637">
        <ele>615.2</ele>
        <time>2021-04-03T13:20:38Z</time>
      </trkpt>
      <trkpt lat="46.3355" lon="6.51641">
        <ele>615.2</ele>
        <time>2021-04-03T13:20:39Z</time>
      </trkpt>
      <trkpt lat="46.33549" lon="6.51644">
        <ele>615.2</ele>
        <time>2021-04-03T13:20:40Z</time>
      </trkpt>
      <trkpt lat="46.33549" lon="6.51652">
        <ele>615.2</ele>
        <time>2021-04-03T13:20:41Z</time>
      </trkpt>
      <trkpt lat="46.3355" lon="6.51656">
        <ele>615.4</ele>
        <time>2021-04-03T13:20:42Z</time>
      </trkpt>
      <trkpt lat="46.33552" lon="6.5166">
        <ele>615.4</ele>
        <time>2021-04-03T13:20:43Z</time>
      </trkpt>
      <trkpt lat="46.33554" lon="6.51663">
        <ele>615.4</ele>
        <time>2021-04-03T13:20:44Z</time>
      </trkpt>
      <trkpt lat="46.33556" lon="6.51667">
        <ele>615.4</ele>
        <time>2021-04-03T13:20:45Z</time>
      </trkpt>
      <trkpt lat="46.33559" lon="6.51671">
        <ele>615.4</ele>
        <time>2021-04-03T13:20:46Z</time>
      </trkpt>
      <trkpt lat="46.33562" lon="6.51675">
        <ele>615.4</ele>
        <time>2021-04-03T13:20:47Z</time>
      </trkpt>
      <trkpt lat="46.33565" lon="6.51678">
        <ele>615.6</ele>
        <time>2021-04-03T13:20:48Z</time>
      </trkpt>
      <trkpt lat="46.33568" lon="6.51682">
        <ele>615.6</ele>
        <time>2021-04-03T13:20:49Z</time>
      </trkpt>
      <trkpt lat="46.33571" lon="6.51686">
        <ele>616</ele>
        <time>2021-04-03T13:20:50Z</time>
      </trkpt>
      <trkpt lat="46.33574" lon="6.5169">
        <ele>616</ele>
        <time>2021-04-03T13:20:51Z</time>
      </trkpt>
      <trkpt lat="46.33577" lon="6.51694">
        <ele>616.4</ele>
        <time>2021-04-03T13:20:52Z</time>
      </trkpt>
      <trkpt lat="46.3358" lon="6.51698">
        <ele>616.8</ele>
        <time>2021-04-03T13:20:53Z</time>
      </trkpt>
      <trkpt lat="46.33584" lon="6.51702">
        <ele>617.2</ele>
        <time>2021-04-03T13:20:54Z</time>
      </trkpt>
      <trkpt lat="46.33587" lon="6.51706">
        <ele>617.2</ele>
        <time>2021-04-03T13:20:55Z</time>
      </trkpt>
      <trkpt lat="46.3359" lon="6.5171">
        <ele>617.4</ele>
        <time>2021-04-03T13:20:56Z</time>
      </trkpt>
      <trkpt lat="46.33593" lon="6.51714">
        <ele>617.6</ele>
        <time>2021-04-03T13:20:57Z</time>
      </trkpt>
      <trkpt lat="46.33597" lon="6.51718">
        <ele>617.8</ele>
        <time>2021-04-03T13:20:58Z</time>
      </trkpt>
      <trkpt lat="46.33599" lon="6.51722">
        <ele>618</ele>
        <time>2021-04-03T13:20:59Z</time>
      </trkpt>
      <trkpt lat="46.33602" lon="6.51725">
        <ele>618.2</ele>
        <time>2021-04-03T13:21:00Z</time>
      </trkpt>
      <trkpt lat="46.33605" lon="6.51729">
        <ele>618.2</ele>
        <time>2021-04-03T13:21:01Z</time>
      </trkpt>
      <trkpt lat="46.33608" lon="6.51733">
        <ele>618.4</ele>
        <time>2021-04-03T13:21:02Z</time>
      </trkpt>
      <trkpt lat="46.3361" lon="6.51736">
        <ele>618.4</ele>
        <time>2021-04-03T13:21:03Z</time>
      </trkpt>
      <trkpt lat="46.33613" lon="6.5174">
        <ele>618.4</ele>
        <time>2021-04-03T13:21:04Z</time>
      </trkpt>
      <trkpt lat="46.33616" lon="6.51744">
        <ele>618.4</ele>
        <time>2021-04-03T13:21:05Z</time>
      </trkpt>
      <trkpt lat="46.33619" lon="6.51748">
        <ele>618.6</ele>
        <time>2021-04-03T13:21:06Z</time>
      </trkpt>
      <trkpt lat="46.33622" lon="6.51752">
        <ele>618.6</ele>
        <time>2021-04-03T13:21:07Z</time>
      </trkpt>
      <trkpt lat="46.33625" lon="6.51756">
        <ele>618.8</ele>
        <time>2021-04-03T13:21:08Z</time>
      </trkpt>
      <trkpt lat="46.33628" lon="6.51759">
        <ele>618.8</ele>
        <time>2021-04-03T13:21:09Z</time>
      </trkpt>
      <trkpt lat="46.3363" lon="6.51763">
        <ele>618.8</ele>
        <time>2021-04-03T13:21:10Z</time>
      </trkpt>
      <trkpt lat="46.33633" lon="6.51767">
        <ele>619.2</ele>
        <time>2021-04-03T13:21:11Z</time>
      </trkpt>
      <trkpt lat="46.33636" lon="6.51771">
        <ele>619.4</ele>
        <time>2021-04-03T13:21:12Z</time>
      </trkpt>
      <trkpt lat="46.33639" lon="6.51774">
        <ele>619.6</ele>
        <time>2021-04-03T13:21:13Z</time>
      </trkpt>
      <trkpt lat="46.33642" lon="6.51778">
        <ele>619.8</ele>
        <time>2021-04-03T13:21:14Z</time>
      </trkpt>
      <trkpt lat="46.33646" lon="6.51782">
        <ele>620.2</ele>
        <time>2021-04-03T13:21:15Z</time>
      </trkpt>
      <trkpt lat="46.33649" lon="6.51785">
        <ele>620.2</ele>
        <time>2021-04-03T13:21:16Z</time>
      </trkpt>
      <trkpt lat="46.33652" lon="6.51789">
        <ele>620.2</ele>
        <time>2021-04-03T13:21:17Z</time>
      </trkpt>
      <trkpt lat="46.33656" lon="6.51792">
        <ele>620.4</ele>
        <time>2021-04-03T13:21:18Z</time>
      </trkpt>
      <trkpt lat="46.33659" lon="6.51796">
        <ele>620.6</ele>
        <time>2021-04-03T13:21:19Z</time>
      </trkpt>
      <trkpt lat="46.33662" lon="6.51799">
        <ele>620.6</ele>
        <time>2021-04-03T13:21:20Z</time>
      </trkpt>
      <trkpt lat="46.33665" lon="6.51802">
        <ele>621</ele>
        <time>2021-04-03T13:21:21Z</time>
      </trkpt>
      <trkpt lat="46.33668" lon="6.51806">
        <ele>621</ele>
        <time>2021-04-03T13:21:22Z</time>
      </trkpt>
      <trkpt lat="46.33671" lon="6.5181">
        <ele>621</ele>
        <time>2021-04-03T13:21:23Z</time>
      </trkpt>
      <trkpt lat="46.33674" lon="6.51813">
        <ele>621.2</ele>
        <time>2021-04-03T13:21:24Z</time>
      </trkpt>
      <trkpt lat="46.33677" lon="6.51817">
        <ele>621.4</ele>
        <time>2021-04-03T13:21:25Z</time>
      </trkpt>
      <trkpt lat="46.33681" lon="6.5182">
        <ele>621.4</ele>
        <time>2021-04-03T13:21:26Z</time>
      </trkpt>
      <trkpt lat="46.33684" lon="6.51824">
        <ele>621.4</ele>
        <time>2021-04-03T13:21:27Z</time>
      </trkpt>
      <trkpt lat="46.33687" lon="6.51828">
        <ele>621.4</ele>
        <time>2021-04-03T13:21:28Z</time>
      </trkpt>
      <trkpt lat="46.33691" lon="6.51832">
        <ele>621.4</ele>
        <time>2021-04-03T13:21:29Z</time>
      </trkpt>
      <trkpt lat="46.33694" lon="6.51836">
        <ele>621.4</ele>
        <time>2021-04-03T13:21:30Z</time>
      </trkpt>
      <trkpt lat="46.33698" lon="6.5184">
        <ele>621.4</ele>
        <time>2021-04-03T13:21:31Z</time>
      </trkpt>
      <trkpt lat="46.33702" lon="6.51843">
        <ele>621.4</ele>
        <time>2021-04-03T13:21:32Z</time>
      </trkpt>
      <trkpt lat="46.33705" lon="6.51847">
        <ele>621.4</ele>
        <time>2021-04-03T13:21:33Z</time>
      </trkpt>
      <trkpt lat="46.33709" lon="6.51852">
        <ele>621.2</ele>
        <time>2021-04-03T13:21:34Z</time>
      </trkpt>
      <trkpt lat="46.33713" lon="6.51856">
        <ele>621.2</ele>
        <time>2021-04-03T13:21:35Z</time>
      </trkpt>
      <trkpt lat="46.33717" lon="6.51861">
        <ele>621.2</ele>
        <time>2021-04-03T13:21:36Z</time>
      </trkpt>
      <trkpt lat="46.33721" lon="6.51865">
        <ele>621.2</ele>
        <time>2021-04-03T13:21:37Z</time>
      </trkpt>
      <trkpt lat="46.33725" lon="6.5187">
        <ele>621.2</ele>
        <time>2021-04-03T13:21:38Z</time>
      </trkpt>
      <trkpt lat="46.33729" lon="6.51875">
        <ele>621.2</ele>
        <time>2021-04-03T13:21:39Z</time>
      </trkpt>
      <trkpt lat="46.33734" lon="6.5188">
        <ele>621.2</ele>
        <time>2021-04-03T13:21:40Z</time>
      </trkpt>
      <trkpt lat="46.33738" lon="6.51886">
        <ele>621.4</ele>
        <time>2021-04-03T13:21:41Z</time>
      </trkpt>
      <trkpt lat="46.33742" lon="6.51892">
        <ele>621.2</ele>
        <time>2021-04-03T13:21:42Z</time>
      </trkpt>
      <trkpt lat="46.33746" lon="6.51898">
        <ele>621.2</ele>
        <time>2021-04-03T13:21:43Z</time>
      </trkpt>
      <trkpt lat="46.3375" lon="6.51903">
        <ele>621.2</ele>
        <time>2021-04-03T13:21:44Z</time>
      </trkpt>
      <trkpt lat="46.33753" lon="6.51909">
        <ele>621.4</ele>
        <time>2021-04-03T13:21:45Z</time>
      </trkpt>
      <trkpt lat="46.33756" lon="6.51915">
        <ele>621.4</ele>
        <time>2021-04-03T13:21:46Z</time>
      </trkpt>
      <trkpt lat="46.3376" lon="6.5192">
        <ele>621.4</ele>
        <time>2021-04-03T13:21:47Z</time>
      </trkpt>
      <trkpt lat="46.33763" lon="6.51926">
        <ele>621.4</ele>
        <time>2021-04-03T13:21:48Z</time>
      </trkpt>
      <trkpt lat="46.33766" lon="6.51932">
        <ele>621.6</ele>
        <time>2021-04-03T13:21:49Z</time>
      </trkpt>
      <trkpt lat="46.3377" lon="6.51938">
        <ele>621.6</ele>
        <time>2021-04-03T13:21:50Z</time>
      </trkpt>
      <trkpt lat="46.33773" lon="6.51943">
        <ele>621.6</ele>
        <time>2021-04-03T13:21:51Z</time>
      </trkpt>
      <trkpt lat="46.33776" lon="6.51948">
        <ele>621.8</ele>
        <time>2021-04-03T13:21:52Z</time>
      </trkpt>
      <trkpt lat="46.3378" lon="6.51953">
        <ele>621.8</ele>
        <time>2021-04-03T13:21:53Z</time>
      </trkpt>
      <trkpt lat="46.33783" lon="6.51958">
        <ele>621.8</ele>
        <time>2021-04-03T13:21:54Z</time>
      </trkpt>
      <trkpt lat="46.33785" lon="6.51964">
        <ele>622</ele>
        <time>2021-04-03T13:21:55Z</time>
      </trkpt>
      <trkpt lat="46.33788" lon="6.51969">
        <ele>622</ele>
        <time>2021-04-03T13:21:56Z</time>
      </trkpt>
      <trkpt lat="46.33791" lon="6.51974">
        <ele>622.2</ele>
        <time>2021-04-03T13:21:57Z</time>
      </trkpt>
      <trkpt lat="46.33794" lon="6.5198">
        <ele>622.2</ele>
        <time>2021-04-03T13:21:58Z</time>
      </trkpt>
      <trkpt lat="46.33796" lon="6.51985">
        <ele>622.2</ele>
        <time>2021-04-03T13:21:59Z</time>
      </trkpt>
      <trkpt lat="46.33797" lon="6.51991">
        <ele>622.4</ele>
        <time>2021-04-03T13:22:00Z</time>
      </trkpt>
      <trkpt lat="46.33799" lon="6.51998">
        <ele>622.2</ele>
        <time>2021-04-03T13:22:01Z</time>
      </trkpt>
      <trkpt lat="46.33799" lon="6.52005">
        <ele>622.4</ele>
        <time>2021-04-03T13:22:02Z</time>
      </trkpt>
      <trkpt lat="46.338" lon="6.52012">
        <ele>622.2</ele>
        <time>2021-04-03T13:22:03Z</time>
      </trkpt>
      <trkpt lat="46.33801" lon="6.52018">
        <ele>622.4</ele>
        <time>2021-04-03T13:22:04Z</time>
      </trkpt>
      <trkpt lat="46.33802" lon="6.52025">
        <ele>622.8</ele>
        <time>2021-04-03T13:22:05Z</time>
      </trkpt>
      <trkpt lat="46.33803" lon="6.52031">
        <ele>623.2</ele>
        <time>2021-04-03T13:22:06Z</time>
      </trkpt>
      <trkpt lat="46.33804" lon="6.52038">
        <ele>623.4</ele>
        <time>2021-04-03T13:22:07Z</time>
      </trkpt>
      <trkpt lat="46.33805" lon="6.52045">
        <ele>623.6</ele>
        <time>2021-04-03T13:22:08Z</time>
      </trkpt>
      <trkpt lat="46.33806" lon="6.52052">
        <ele>623.8</ele>
        <time>2021-04-03T13:22:09Z</time>
      </trkpt>
      <trkpt lat="46.33807" lon="6.52058">
        <ele>623.8</ele>
        <time>2021-04-03T13:22:10Z</time>
      </trkpt>
      <trkpt lat="46.33808" lon="6.52065">
        <ele>624</ele>
        <time>2021-04-03T13:22:11Z</time>
      </trkpt>
      <trkpt lat="46.3381" lon="6.52072">
        <ele>624.2</ele>
        <time>2021-04-03T13:22:12Z</time>
      </trkpt>
      <trkpt lat="46.33812" lon="6.52078">
        <ele>624.2</ele>
        <time>2021-04-03T13:22:13Z</time>
      </trkpt>
      <trkpt lat="46.33814" lon="6.52084">
        <ele>624.2</ele>
        <time>2021-04-03T13:22:14Z</time>
      </trkpt>
      <trkpt lat="46.33817" lon="6.52091">
        <ele>624.2</ele>
        <time>2021-04-03T13:22:15Z</time>
      </trkpt>
      <trkpt lat="46.3382" lon="6.52096">
        <ele>624.2</ele>
        <time>2021-04-03T13:22:16Z</time>
      </trkpt>
      <trkpt lat="46.33823" lon="6.52101">
        <ele>624.2</ele>
        <time>2021-04-03T13:22:17Z</time>
      </trkpt>
      <trkpt lat="46.33826" lon="6.52106">
        <ele>624.2</ele>
        <time>2021-04-03T13:22:18Z</time>
      </trkpt>
      <trkpt lat="46.33829" lon="6.5211">
        <ele>624.2</ele>
        <time>2021-04-03T13:22:19Z</time>
      </trkpt>
      <trkpt lat="46.33833" lon="6.52114">
        <ele>624.2</ele>
        <time>2021-04-03T13:22:20Z</time>
      </trkpt>
      <trkpt lat="46.33836" lon="6.52119">
        <ele>624.4</ele>
        <time>2021-04-03T13:22:21Z</time>
      </trkpt>
      <trkpt lat="46.3384" lon="6.52124">
        <ele>624.4</ele>
        <time>2021-04-03T13:22:22Z</time>
      </trkpt>
      <trkpt lat="46.33843" lon="6.52128">
        <ele>624.4</ele>
        <time>2021-04-03T13:22:23Z</time>
      </trkpt>
      <trkpt lat="46.33847" lon="6.52132">
        <ele>624.4</ele>
        <time>2021-04-03T13:22:24Z</time>
      </trkpt>
      <trkpt lat="46.33851" lon="6.52135">
        <ele>624.4</ele>
        <time>2021-04-03T13:22:25Z</time>
      </trkpt>
      <trkpt lat="46.33855" lon="6.52137">
        <ele>624.4</ele>
        <time>2021-04-03T13:22:26Z</time>
      </trkpt>
      <trkpt lat="46.33859" lon="6.5214">
        <ele>624.4</ele>
        <time>2021-04-03T13:22:27Z</time>
      </trkpt>
      <trkpt lat="46.33864" lon="6.52142">
        <ele>624.4</ele>
        <time>2021-04-03T13:22:28Z</time>
      </trkpt>
      <trkpt lat="46.33868" lon="6.52145">
        <ele>624.4</ele>
        <time>2021-04-03T13:22:29Z</time>
      </trkpt>
      <trkpt lat="46.33871" lon="6.52149">
        <ele>624.4</ele>
        <time>2021-04-03T13:22:30Z</time>
      </trkpt>
      <trkpt lat="46.33873" lon="6.52155">
        <ele>624.4</ele>
        <time>2021-04-03T13:22:31Z</time>
      </trkpt>
      <trkpt lat="46.33875" lon="6.52161">
        <ele>624.2</ele>
        <time>2021-04-03T13:22:32Z</time>
      </trkpt>
      <trkpt lat="46.33877" lon="6.52167">
        <ele>624.4</ele>
        <time>2021-04-03T13:22:33Z</time>
      </trkpt>
      <trkpt lat="46.3388" lon="6.52172">
        <ele>624.4</ele>
        <time>2021-04-03T13:22:34Z</time>
      </trkpt>
      <trkpt lat="46.33884" lon="6.52176">
        <ele>624.4</ele>
        <time>2021-04-03T13:22:35Z</time>
      </trkpt>
      <trkpt lat="46.33888" lon="6.52179">
        <ele>624.4</ele>
        <time>2021-04-03T13:22:36Z</time>
      </trkpt>
      <trkpt lat="46.33893" lon="6.52181">
        <ele>624.4</ele>
        <time>2021-04-03T13:22:37Z</time>
      </trkpt>
      <trkpt lat="46.33899" lon="6.52184">
        <ele>624.2</ele>
        <time>2021-04-03T13:22:38Z</time>
      </trkpt>
      <trkpt lat="46.33903" lon="6.52189">
        <ele>624.2</ele>
        <time>2021-04-03T13:22:39Z</time>
      </trkpt>
      <trkpt lat="46.33908" lon="6.52194">
        <ele>624</ele>
        <time>2021-04-03T13:22:40Z</time>
      </trkpt>
      <trkpt lat="46.33912" lon="6.52199">
        <ele>624.2</ele>
        <time>2021-04-03T13:22:41Z</time>
      </trkpt>
      <trkpt lat="46.33917" lon="6.52205">
        <ele>624.2</ele>
        <time>2021-04-03T13:22:42Z</time>
      </trkpt>
      <trkpt lat="46.33922" lon="6.5221">
        <ele>624</ele>
        <time>2021-04-03T13:22:43Z</time>
      </trkpt>
      <trkpt lat="46.33927" lon="6.52214">
        <ele>624.2</ele>
        <time>2021-04-03T13:22:44Z</time>
      </trkpt>
      <trkpt lat="46.33932" lon="6.52218">
        <ele>624.2</ele>
        <time>2021-04-03T13:22:45Z</time>
      </trkpt>
      <trkpt lat="46.33937" lon="6.52222">
        <ele>624</ele>
        <time>2021-04-03T13:22:46Z</time>
      </trkpt>
      <trkpt lat="46.33942" lon="6.52225">
        <ele>624.4</ele>
        <time>2021-04-03T13:22:47Z</time>
      </trkpt>
      <trkpt lat="46.33948" lon="6.52228">
        <ele>624.6</ele>
        <time>2021-04-03T13:22:48Z</time>
      </trkpt>
      <trkpt lat="46.33953" lon="6.52231">
        <ele>624.8</ele>
        <time>2021-04-03T13:22:49Z</time>
      </trkpt>
      <trkpt lat="46.33959" lon="6.52234">
        <ele>625</ele>
        <time>2021-04-03T13:22:50Z</time>
      </trkpt>
      <trkpt lat="46.33964" lon="6.52237">
        <ele>625.2</ele>
        <time>2021-04-03T13:22:51Z</time>
      </trkpt>
      <trkpt lat="46.3397" lon="6.5224">
        <ele>625.2</ele>
        <time>2021-04-03T13:22:52Z</time>
      </trkpt>
      <trkpt lat="46.33975" lon="6.52243">
        <ele>625.6</ele>
        <time>2021-04-03T13:22:53Z</time>
      </trkpt>
      <trkpt lat="46.33981" lon="6.52246">
        <ele>625.6</ele>
        <time>2021-04-03T13:22:54Z</time>
      </trkpt>
      <trkpt lat="46.33986" lon="6.5225">
        <ele>625.6</ele>
        <time>2021-04-03T13:22:55Z</time>
      </trkpt>
      <trkpt lat="46.33991" lon="6.52254">
        <ele>625.6</ele>
        <time>2021-04-03T13:22:56Z</time>
      </trkpt>
      <trkpt lat="46.33996" lon="6.52259">
        <ele>625.6</ele>
        <time>2021-04-03T13:22:57Z</time>
      </trkpt>
      <trkpt lat="46.34" lon="6.52263">
        <ele>625.6</ele>
        <time>2021-04-03T13:22:58Z</time>
      </trkpt>
      <trkpt lat="46.34005" lon="6.52268">
        <ele>625.6</ele>
        <time>2021-04-03T13:22:59Z</time>
      </trkpt>
      <trkpt lat="46.3401" lon="6.52272">
        <ele>625.6</ele>
        <time>2021-04-03T13:23:00Z</time>
      </trkpt>
      <trkpt lat="46.34015" lon="6.52276">
        <ele>625.6</ele>
        <time>2021-04-03T13:23:01Z</time>
      </trkpt>
      <trkpt lat="46.3402" lon="6.52281">
        <ele>625.8</ele>
        <time>2021-04-03T13:23:02Z</time>
      </trkpt>
      <trkpt lat="46.34024" lon="6.52285">
        <ele>625.6</ele>
        <time>2021-04-03T13:23:03Z</time>
      </trkpt>
      <trkpt lat="46.34029" lon="6.52288">
        <ele>625.8</ele>
        <time>2021-04-03T13:23:04Z</time>
      </trkpt>
      <trkpt lat="46.34034" lon="6.52292">
        <ele>625.8</ele>
        <time>2021-04-03T13:23:05Z</time>
      </trkpt>
      <trkpt lat="46.34039" lon="6.52295">
        <ele>625.6</ele>
        <time>2021-04-03T13:23:06Z</time>
      </trkpt>
      <trkpt lat="46.34044" lon="6.52298">
        <ele>625.6</ele>
        <time>2021-04-03T13:23:07Z</time>
      </trkpt>
      <trkpt lat="46.34049" lon="6.52302">
        <ele>625.6</ele>
        <time>2021-04-03T13:23:08Z</time>
      </trkpt>
      <trkpt lat="46.34054" lon="6.52304">
        <ele>625.6</ele>
        <time>2021-04-03T13:23:09Z</time>
      </trkpt>
      <trkpt lat="46.3406" lon="6.52307">
        <ele>625.6</ele>
        <time>2021-04-03T13:23:10Z</time>
      </trkpt>
      <trkpt lat="46.34065" lon="6.52309">
        <ele>625.8</ele>
        <time>2021-04-03T13:23:11Z</time>
      </trkpt>
      <trkpt lat="46.3407" lon="6.52311">
        <ele>626</ele>
        <time>2021-04-03T13:23:12Z</time>
      </trkpt>
      <trkpt lat="46.34075" lon="6.52312">
        <ele>625.8</ele>
        <time>2021-04-03T13:23:13Z</time>
      </trkpt>
      <trkpt lat="46.34081" lon="6.52314">
        <ele>626</ele>
        <time>2021-04-03T13:23:14Z</time>
      </trkpt>
      <trkpt lat="46.34086" lon="6.52315">
        <ele>626.2</ele>
        <time>2021-04-03T13:23:15Z</time>
      </trkpt>
      <trkpt lat="46.34092" lon="6.52317">
        <ele>626.2</ele>
        <time>2021-04-03T13:23:16Z</time>
      </trkpt>
      <trkpt lat="46.34098" lon="6.52318">
        <ele>626.4</ele>
        <time>2021-04-03T13:23:17Z</time>
      </trkpt>
      <trkpt lat="46.34104" lon="6.5232">
        <ele>626.2</ele>
        <time>2021-04-03T13:23:18Z</time>
      </trkpt>
      <trkpt lat="46.3411" lon="6.52321">
        <ele>626.2</ele>
        <time>2021-04-03T13:23:19Z</time>
      </trkpt>
      <trkpt lat="46.34116" lon="6.52322">
        <ele>626.4</ele>
        <time>2021-04-03T13:23:20Z</time>
      </trkpt>
      <trkpt lat="46.34121" lon="6.52323">
        <ele>626.4</ele>
        <time>2021-04-03T13:23:21Z</time>
      </trkpt>
      <trkpt lat="46.34128" lon="6.52323">
        <ele>626.4</ele>
        <time>2021-04-03T13:23:22Z</time>
      </trkpt>
      <trkpt lat="46.34134" lon="6.52324">
        <ele>626.4</ele>
        <time>2021-04-03T13:23:23Z</time>
      </trkpt>
      <trkpt lat="46.3414" lon="6.52325">
        <ele>626.6</ele>
        <time>2021-04-03T13:23:24Z</time>
      </trkpt>
      <trkpt lat="46.34146" lon="6.52325">
        <ele>626.4</ele>
        <time>2021-04-03T13:23:25Z</time>
      </trkpt>
      <trkpt lat="46.34152" lon="6.52326">
        <ele>626.6</ele>
        <time>2021-04-03T13:23:26Z</time>
      </trkpt>
      <trkpt lat="46.34158" lon="6.52326">
        <ele>626.6</ele>
        <time>2021-04-03T13:23:27Z</time>
      </trkpt>
      <trkpt lat="46.34165" lon="6.52326">
        <ele>626.8</ele>
        <time>2021-04-03T13:23:28Z</time>
      </trkpt>
      <trkpt lat="46.34171" lon="6.52327">
        <ele>626.8</ele>
        <time>2021-04-03T13:23:29Z</time>
      </trkpt>
      <trkpt lat="46.34178" lon="6.52327">
        <ele>626.8</ele>
        <time>2021-04-03T13:23:30Z</time>
      </trkpt>
      <trkpt lat="46.34184" lon="6.52327">
        <ele>626.8</ele>
        <time>2021-04-03T13:23:31Z</time>
      </trkpt>
      <trkpt lat="46.3419" lon="6.52327">
        <ele>626.8</ele>
        <time>2021-04-03T13:23:32Z</time>
      </trkpt>
      <trkpt lat="46.34196" lon="6.52328">
        <ele>627</ele>
        <time>2021-04-03T13:23:33Z</time>
      </trkpt>
      <trkpt lat="46.34202" lon="6.52328">
        <ele>627</ele>
        <time>2021-04-03T13:23:34Z</time>
      </trkpt>
      <trkpt lat="46.34208" lon="6.52329">
        <ele>626.8</ele>
        <time>2021-04-03T13:23:35Z</time>
      </trkpt>
      <trkpt lat="46.34213" lon="6.52329">
        <ele>627</ele>
        <time>2021-04-03T13:23:36Z</time>
      </trkpt>
      <trkpt lat="46.34219" lon="6.5233">
        <ele>627</ele>
        <time>2021-04-03T13:23:37Z</time>
      </trkpt>
      <trkpt lat="46.34225" lon="6.5233">
        <ele>627</ele>
        <time>2021-04-03T13:23:38Z</time>
      </trkpt>
      <trkpt lat="46.34229" lon="6.52331">
        <ele>627.2</ele>
        <time>2021-04-03T13:23:39Z</time>
      </trkpt>
      <trkpt lat="46.34232" lon="6.52332">
        <ele>627</ele>
        <time>2021-04-03T13:23:40Z</time>
      </trkpt>
      <trkpt lat="46.3424" lon="6.52333">
        <ele>627</ele>
        <time>2021-04-03T13:23:41Z</time>
      </trkpt>
      <trkpt lat="46.34246" lon="6.52334">
        <ele>627</ele>
        <time>2021-04-03T13:23:42Z</time>
      </trkpt>
      <trkpt lat="46.34252" lon="6.52335">
        <ele>627.2</ele>
        <time>2021-04-03T13:23:43Z</time>
      </trkpt>
      <trkpt lat="46.34259" lon="6.52336">
        <ele>627.2</ele>
        <time>2021-04-03T13:23:44Z</time>
      </trkpt>
      <trkpt lat="46.34264" lon="6.52337">
        <ele>627</ele>
        <time>2021-04-03T13:23:45Z</time>
      </trkpt>
      <trkpt lat="46.34271" lon="6.52339">
        <ele>627.2</ele>
        <time>2021-04-03T13:23:46Z</time>
      </trkpt>
      <trkpt lat="46.34278" lon="6.5234">
        <ele>627.2</ele>
        <time>2021-04-03T13:23:47Z</time>
      </trkpt>
      <trkpt lat="46.34284" lon="6.52341">
        <ele>627</ele>
        <time>2021-04-03T13:23:48Z</time>
      </trkpt>
      <trkpt lat="46.34291" lon="6.52342">
        <ele>627.2</ele>
        <time>2021-04-03T13:23:49Z</time>
      </trkpt>
      <trkpt lat="46.34297" lon="6.52343">
        <ele>627</ele>
        <time>2021-04-03T13:23:50Z</time>
      </trkpt>
      <trkpt lat="46.34303" lon="6.52344">
        <ele>627</ele>
        <time>2021-04-03T13:23:51Z</time>
      </trkpt>
      <trkpt lat="46.34309" lon="6.52346">
        <ele>627.2</ele>
        <time>2021-04-03T13:23:52Z</time>
      </trkpt>
      <trkpt lat="46.34316" lon="6.52347">
        <ele>627.2</ele>
        <time>2021-04-03T13:23:53Z</time>
      </trkpt>
      <trkpt lat="46.34322" lon="6.52348">
        <ele>627.4</ele>
        <time>2021-04-03T13:23:54Z</time>
      </trkpt>
      <trkpt lat="46.34327" lon="6.52349">
        <ele>627.2</ele>
        <time>2021-04-03T13:23:55Z</time>
      </trkpt>
      <trkpt lat="46.34333" lon="6.5235">
        <ele>627.2</ele>
        <time>2021-04-03T13:23:56Z</time>
      </trkpt>
      <trkpt lat="46.34339" lon="6.52351">
        <ele>627.2</ele>
        <time>2021-04-03T13:23:57Z</time>
      </trkpt>
      <trkpt lat="46.34344" lon="6.52351">
        <ele>627.2</ele>
        <time>2021-04-03T13:23:58Z</time>
      </trkpt>
      <trkpt lat="46.3435" lon="6.52352">
        <ele>627.2</ele>
        <time>2021-04-03T13:23:59Z</time>
      </trkpt>
      <trkpt lat="46.34355" lon="6.52353">
        <ele>627.4</ele>
        <time>2021-04-03T13:24:00Z</time>
      </trkpt>
      <trkpt lat="46.3436" lon="6.52354">
        <ele>627.4</ele>
        <time>2021-04-03T13:24:01Z</time>
      </trkpt>
      <trkpt lat="46.34365" lon="6.52355">
        <ele>627.6</ele>
        <time>2021-04-03T13:24:02Z</time>
      </trkpt>
      <trkpt lat="46.3437" lon="6.52356">
        <ele>627.6</ele>
        <time>2021-04-03T13:24:03Z</time>
      </trkpt>
      <trkpt lat="46.34376" lon="6.52357">
        <ele>627.4</ele>
        <time>2021-04-03T13:24:04Z</time>
      </trkpt>
      <trkpt lat="46.3438" lon="6.52357">
        <ele>627.8</ele>
        <time>2021-04-03T13:24:05Z</time>
      </trkpt>
      <trkpt lat="46.34385" lon="6.52358">
        <ele>628</ele>
        <time>2021-04-03T13:24:06Z</time>
      </trkpt>
      <trkpt lat="46.3439" lon="6.52359">
        <ele>628.2</ele>
        <time>2021-04-03T13:24:07Z</time>
      </trkpt>
      <trkpt lat="46.34392" lon="6.52359">
        <ele>628.4</ele>
        <time>2021-04-03T13:24:08Z</time>
      </trkpt>
      <trkpt lat="46.34395" lon="6.5236">
        <ele>628.4</ele>
        <time>2021-04-03T13:24:09Z</time>
      </trkpt>
      <trkpt lat="46.34405" lon="6.52361">
        <ele>628.6</ele>
        <time>2021-04-03T13:24:10Z</time>
      </trkpt>
      <trkpt lat="46.34411" lon="6.52361">
        <ele>628.6</ele>
        <time>2021-04-03T13:24:11Z</time>
      </trkpt>
      <trkpt lat="46.34417" lon="6.52362">
        <ele>628.8</ele>
        <time>2021-04-03T13:24:12Z</time>
      </trkpt>
      <trkpt lat="46.34422" lon="6.52363">
        <ele>628.6</ele>
        <time>2021-04-03T13:24:13Z</time>
      </trkpt>
      <trkpt lat="46.34425" lon="6.52363">
        <ele>628.8</ele>
        <time>2021-04-03T13:24:14Z</time>
      </trkpt>
      <trkpt lat="46.34427" lon="6.52363">
        <ele>629</ele>
        <time>2021-04-03T13:24:15Z</time>
      </trkpt>
      <trkpt lat="46.34433" lon="6.52364">
        <ele>629</ele>
        <time>2021-04-03T13:24:16Z</time>
      </trkpt>
      <trkpt lat="46.34443" lon="6.52364">
        <ele>629.2</ele>
        <time>2021-04-03T13:24:17Z</time>
      </trkpt>
      <trkpt lat="46.34449" lon="6.52364">
        <ele>629.4</ele>
        <time>2021-04-03T13:24:18Z</time>
      </trkpt>
      <trkpt lat="46.34453" lon="6.52364">
        <ele>629.4</ele>
        <time>2021-04-03T13:24:19Z</time>
      </trkpt>
      <trkpt lat="46.34458" lon="6.52364">
        <ele>629.6</ele>
        <time>2021-04-03T13:24:20Z</time>
      </trkpt>
      <trkpt lat="46.34462" lon="6.52363">
        <ele>629.8</ele>
        <time>2021-04-03T13:24:21Z</time>
      </trkpt>
      <trkpt lat="46.34467" lon="6.52363">
        <ele>630</ele>
        <time>2021-04-03T13:24:22Z</time>
      </trkpt>
      <trkpt lat="46.34471" lon="6.52363">
        <ele>630</ele>
        <time>2021-04-03T13:24:23Z</time>
      </trkpt>
      <trkpt lat="46.34475" lon="6.52363">
        <ele>630.2</ele>
        <time>2021-04-03T13:24:24Z</time>
      </trkpt>
      <trkpt lat="46.34479" lon="6.52364">
        <ele>630.4</ele>
        <time>2021-04-03T13:24:25Z</time>
      </trkpt>
      <trkpt lat="46.34482" lon="6.52364">
        <ele>630.6</ele>
        <time>2021-04-03T13:24:26Z</time>
      </trkpt>
      <trkpt lat="46.34485" lon="6.52365">
        <ele>631</ele>
        <time>2021-04-03T13:24:27Z</time>
      </trkpt>
      <trkpt lat="46.34488" lon="6.52366">
        <ele>631.2</ele>
        <time>2021-04-03T13:24:28Z</time>
      </trkpt>
      <trkpt lat="46.3449" lon="6.52366">
        <ele>631.6</ele>
        <time>2021-04-03T13:24:29Z</time>
      </trkpt>
      <trkpt lat="46.34493" lon="6.52367">
        <ele>631.6</ele>
        <time>2021-04-03T13:24:30Z</time>
      </trkpt>
      <trkpt lat="46.34496" lon="6.52367">
        <ele>631.8</ele>
        <time>2021-04-03T13:24:31Z</time>
      </trkpt>
      <trkpt lat="46.34498" lon="6.52367">
        <ele>632</ele>
        <time>2021-04-03T13:24:32Z</time>
      </trkpt>
      <trkpt lat="46.34501" lon="6.52367">
        <ele>632</ele>
        <time>2021-04-03T13:24:33Z</time>
      </trkpt>
      <trkpt lat="46.34503" lon="6.52367">
        <ele>632.2</ele>
        <time>2021-04-03T13:24:34Z</time>
      </trkpt>
      <trkpt lat="46.34505" lon="6.52367">
        <ele>632.2</ele>
        <time>2021-04-03T13:24:35Z</time>
      </trkpt>
      <trkpt lat="46.34507" lon="6.52367">
        <ele>632.2</ele>
        <time>2021-04-03T13:24:36Z</time>
      </trkpt>
      <trkpt lat="46.34509" lon="6.52367">
        <ele>632.4</ele>
        <time>2021-04-03T13:24:37Z</time>
      </trkpt>
      <trkpt lat="46.34511" lon="6.52367">
        <ele>632.4</ele>
        <time>2021-04-03T13:24:38Z</time>
      </trkpt>
      <trkpt lat="46.34514" lon="6.52367">
        <ele>632.2</ele>
        <time>2021-04-03T13:24:39Z</time>
      </trkpt>
      <trkpt lat="46.34516" lon="6.52367">
        <ele>632.2</ele>
        <time>2021-04-03T13:24:40Z</time>
      </trkpt>
      <trkpt lat="46.34519" lon="6.52367">
        <ele>632.2</ele>
        <time>2021-04-03T13:24:41Z</time>
      </trkpt>
      <trkpt lat="46.34522" lon="6.52367">
        <ele>632.4</ele>
        <time>2021-04-03T13:24:42Z</time>
      </trkpt>
      <trkpt lat="46.34525" lon="6.52367">
        <ele>632.2</ele>
        <time>2021-04-03T13:24:43Z</time>
      </trkpt>
      <trkpt lat="46.34528" lon="6.52367">
        <ele>632.2</ele>
        <time>2021-04-03T13:24:44Z</time>
      </trkpt>
      <trkpt lat="46.34531" lon="6.52367">
        <ele>632.4</ele>
        <time>2021-04-03T13:24:45Z</time>
      </trkpt>
      <trkpt lat="46.34534" lon="6.52367">
        <ele>632.2</ele>
        <time>2021-04-03T13:24:46Z</time>
      </trkpt>
      <trkpt lat="46.34537" lon="6.52367">
        <ele>632.2</ele>
        <time>2021-04-03T13:24:47Z</time>
      </trkpt>
      <trkpt lat="46.3454" lon="6.52368">
        <ele>632.2</ele>
        <time>2021-04-03T13:24:49Z</time>
      </trkpt>
      <trkpt lat="46.34542" lon="6.52368">
        <ele>632.4</ele>
        <time>2021-04-03T13:24:50Z</time>
      </trkpt>
      <trkpt lat="46.34543" lon="6.5237">
        <ele>632.4</ele>
        <time>2021-04-03T13:24:51Z</time>
      </trkpt>
      <trkpt lat="46.34544" lon="6.52371">
        <ele>632.2</ele>
        <time>2021-04-03T13:24:52Z</time>
      </trkpt>
      <trkpt lat="46.34545" lon="6.52371">
        <ele>632.4</ele>
        <time>2021-04-03T13:24:53Z</time>
      </trkpt>
      <trkpt lat="46.34544" lon="6.52371">
        <ele>632.4</ele>
        <time>2021-04-03T13:24:54Z</time>
      </trkpt>
      <trkpt lat="46.34544" lon="6.52371">
        <ele>632.6</ele>
        <time>2021-04-03T13:24:56Z</time>
      </trkpt>
      <trkpt lat="46.34543" lon="6.5237">
        <ele>632.4</ele>
        <time>2021-04-03T13:24:57Z</time>
      </trkpt>
      <trkpt lat="46.34543" lon="6.5237">
        <ele>632.4</ele>
        <time>2021-04-03T13:24:59Z</time>
      </trkpt>
      <trkpt lat="46.34543" lon="6.5237">
        <ele>632.6</ele>
        <time>2021-04-03T13:25:00Z</time>
      </trkpt>
      <trkpt lat="46.34543" lon="6.5237">
        <ele>632.4</ele>
        <time>2021-04-03T13:25:01Z</time>
      </trkpt>
      <trkpt lat="46.34543" lon="6.52369">
        <ele>632.4</ele>
        <time>2021-04-03T13:25:02Z</time>
      </trkpt>
      <trkpt lat="46.34543" lon="6.52369">
        <ele>632.4</ele>
        <time>2021-04-03T13:25:03Z</time>
      </trkpt>
      <trkpt lat="46.34543" lon="6.52369">
        <ele>632.6</ele>
        <time>2021-04-03T13:25:04Z</time>
      </trkpt>
      <trkpt lat="46.34542" lon="6.52368">
        <ele>632.6</ele>
        <time>2021-04-03T13:25:05Z</time>
      </trkpt>
      <trkpt lat="46.34542" lon="6.52368">
        <ele>632.4</ele>
        <time>2021-04-03T13:25:06Z</time>
      </trkpt>
      <trkpt lat="46.34542" lon="6.52368">
        <ele>632.6</ele>
        <time>2021-04-03T13:25:07Z</time>
      </trkpt>
      <trkpt lat="46.34541" lon="6.52368">
        <ele>632.4</ele>
        <time>2021-04-03T13:25:08Z</time>
      </trkpt>
      <trkpt lat="46.34541" lon="6.52367">
        <ele>632.6</ele>
        <time>2021-04-03T13:25:09Z</time>
      </trkpt>
      <trkpt lat="46.34541" lon="6.52367">
        <ele>632.6</ele>
        <time>2021-04-03T13:25:10Z</time>
      </trkpt>
      <trkpt lat="46.34541" lon="6.52367">
        <ele>632.6</ele>
        <time>2021-04-03T13:25:11Z</time>
      </trkpt>
      <trkpt lat="46.34541" lon="6.52367">
        <ele>632.8</ele>
        <time>2021-04-03T13:25:12Z</time>
      </trkpt>
      <trkpt lat="46.34541" lon="6.52367">
        <ele>632.8</ele>
        <time>2021-04-03T13:25:13Z</time>
      </trkpt>
      <trkpt lat="46.34541" lon="6.52367">
        <ele>632.8</ele>
        <time>2021-04-03T13:25:14Z</time>
      </trkpt>
      <trkpt lat="46.3454" lon="6.52367">
        <ele>632.8</ele>
        <time>2021-04-03T13:25:15Z</time>
      </trkpt>
      <trkpt lat="46.3454" lon="6.52367">
        <ele>632.8</ele>
        <time>2021-04-03T13:25:16Z</time>
      </trkpt>
      <trkpt lat="46.3454" lon="6.52367">
        <ele>632.8</ele>
        <time>2021-04-03T13:25:17Z</time>
      </trkpt>
      <trkpt lat="46.3454" lon="6.52367">
        <ele>632.8</ele>
        <time>2021-04-03T13:25:18Z</time>
      </trkpt>
      <trkpt lat="46.3454" lon="6.52366">
        <ele>632.8</ele>
        <time>2021-04-03T13:25:19Z</time>
      </trkpt>
      <trkpt lat="46.3454" lon="6.52366">
        <ele>632.8</ele>
        <time>2021-04-03T13:25:20Z</time>
      </trkpt>
      <trkpt lat="46.34539" lon="6.52366">
        <ele>632.8</ele>
        <time>2021-04-03T13:25:21Z</time>
      </trkpt>
      <trkpt lat="46.34539" lon="6.52366">
        <ele>632.6</ele>
        <time>2021-04-03T13:25:22Z</time>
      </trkpt>
      <trkpt lat="46.34539" lon="6.52366">
        <ele>632.6</ele>
        <time>2021-04-03T13:25:23Z</time>
      </trkpt>
      <trkpt lat="46.34538" lon="6.52366">
        <ele>632.6</ele>
        <time>2021-04-03T13:25:24Z</time>
      </trkpt>
      <trkpt lat="46.34537" lon="6.52366">
        <ele>632.8</ele>
        <time>2021-04-03T13:25:25Z</time>
      </trkpt>
      <trkpt lat="46.34537" lon="6.52366">
        <ele>632.6</ele>
        <time>2021-04-03T13:25:26Z</time>
      </trkpt>
      <trkpt lat="46.34536" lon="6.52366">
        <ele>632.6</ele>
        <time>2021-04-03T13:25:27Z</time>
      </trkpt>
      <trkpt lat="46.34536" lon="6.52365">
        <ele>632.6</ele>
        <time>2021-04-03T13:25:28Z</time>
      </trkpt>
      <trkpt lat="46.34536" lon="6.52365">
        <ele>632.4</ele>
        <time>2021-04-03T13:25:30Z</time>
      </trkpt>
      <trkpt lat="46.34535" lon="6.52364">
        <ele>632.6</ele>
        <time>2021-04-03T13:25:31Z</time>
      </trkpt>
      <trkpt lat="46.34535" lon="6.52364">
        <ele>632.6</ele>
        <time>2021-04-03T13:25:33Z</time>
      </trkpt>
      <trkpt lat="46.34535" lon="6.52363">
        <ele>632.8</ele>
        <time>2021-04-03T13:25:34Z</time>
      </trkpt>
      <trkpt lat="46.34534" lon="6.52363">
        <ele>633</ele>
        <time>2021-04-03T13:25:35Z</time>
      </trkpt>
      <trkpt lat="46.34534" lon="6.52363">
        <ele>632.8</ele>
        <time>2021-04-03T13:25:36Z</time>
      </trkpt>
      <trkpt lat="46.34534" lon="6.52363">
        <ele>632.8</ele>
        <time>2021-04-03T13:25:37Z</time>
      </trkpt>
      <trkpt lat="46.34534" lon="6.52362">
        <ele>632.8</ele>
        <time>2021-04-03T13:25:38Z</time>
      </trkpt>
      <trkpt lat="46.34534" lon="6.52362">
        <ele>633</ele>
        <time>2021-04-03T13:25:39Z</time>
      </trkpt>
      <trkpt lat="46.34534" lon="6.52362">
        <ele>633</ele>
        <time>2021-04-03T13:25:42Z</time>
      </trkpt>
      <trkpt lat="46.34534" lon="6.52362">
        <ele>633</ele>
        <time>2021-04-03T13:25:44Z</time>
      </trkpt>
      <trkpt lat="46.34534" lon="6.52363">
        <ele>632.8</ele>
        <time>2021-04-03T13:25:45Z</time>
      </trkpt>
      <trkpt lat="46.34534" lon="6.52363">
        <ele>632.8</ele>
        <time>2021-04-03T13:25:46Z</time>
      </trkpt>
      <trkpt lat="46.34534" lon="6.52363">
        <ele>633</ele>
        <time>2021-04-03T13:25:47Z</time>
      </trkpt>
      <trkpt lat="46.34534" lon="6.52363">
        <ele>633</ele>
        <time>2021-04-03T13:25:48Z</time>
      </trkpt>
      <trkpt lat="46.34534" lon="6.52363">
        <ele>633</ele>
        <time>2021-04-03T13:25:49Z</time>
      </trkpt>
      <trkpt lat="46.34534" lon="6.52363">
        <ele>632.8</ele>
        <time>2021-04-03T13:25:50Z</time>
      </trkpt>
      <trkpt lat="46.34534" lon="6.52364">
        <ele>633</ele>
        <time>2021-04-03T13:25:51Z</time>
      </trkpt>
      <trkpt lat="46.34534" lon="6.52365">
        <ele>632.8</ele>
        <time>2021-04-03T13:25:52Z</time>
      </trkpt>
      <trkpt lat="46.34534" lon="6.52365">
        <ele>633</ele>
        <time>2021-04-03T13:25:53Z</time>
      </trkpt>
      <trkpt lat="46.34533" lon="6.52367">
        <ele>632.8</ele>
        <time>2021-04-03T13:25:54Z</time>
      </trkpt>
      <trkpt lat="46.34533" lon="6.52367">
        <ele>632.8</ele>
        <time>2021-04-03T13:25:55Z</time>
      </trkpt>
      <trkpt lat="46.34533" lon="6.52367">
        <ele>633</ele>
        <time>2021-04-03T13:25:56Z</time>
      </trkpt>
      <trkpt lat="46.34534" lon="6.52367">
        <ele>633</ele>
        <time>2021-04-03T13:25:57Z</time>
      </trkpt>
      <trkpt lat="46.34533" lon="6.52368">
        <ele>633</ele>
        <time>2021-04-03T13:25:58Z</time>
      </trkpt>
      <trkpt lat="46.34533" lon="6.52367">
        <ele>633</ele>
        <time>2021-04-03T13:25:59Z</time>
      </trkpt>
      <trkpt lat="46.34533" lon="6.52367">
        <ele>633</ele>
        <time>2021-04-03T13:26:00Z</time>
      </trkpt>
      <trkpt lat="46.34533" lon="6.52367">
        <ele>633</ele>
        <time>2021-04-03T13:26:01Z</time>
      </trkpt>
      <trkpt lat="46.34533" lon="6.52367">
        <ele>633</ele>
        <time>2021-04-03T13:26:02Z</time>
      </trkpt>
      <trkpt lat="46.34533" lon="6.52367">
        <ele>633.2</ele>
        <time>2021-04-03T13:26:04Z</time>
      </trkpt>
      <trkpt lat="46.34533" lon="6.52367">
        <ele>633.2</ele>
        <time>2021-04-03T13:26:05Z</time>
      </trkpt>
      <trkpt lat="46.34533" lon="6.52366">
        <ele>633.2</ele>
        <time>2021-04-03T13:26:06Z</time>
      </trkpt>
      <trkpt lat="46.34532" lon="6.52366">
        <ele>633.2</ele>
        <time>2021-04-03T13:26:07Z</time>
      </trkpt>
      <trkpt lat="46.34532" lon="6.52366">
        <ele>633.2</ele>
        <time>2021-04-03T13:26:09Z</time>
      </trkpt>
      <trkpt lat="46.34532" lon="6.52366">
        <ele>633.4</ele>
        <time>2021-04-03T13:26:10Z</time>
      </trkpt>
      <trkpt lat="46.34532" lon="6.52366">
        <ele>633.2</ele>
        <time>2021-04-03T13:26:11Z</time>
      </trkpt>
      <trkpt lat="46.34532" lon="6.52366">
        <ele>633.2</ele>
        <time>2021-04-03T13:26:14Z</time>
      </trkpt>
      <trkpt lat="46.34533" lon="6.52366">
        <ele>633.4</ele>
        <time>2021-04-03T13:26:17Z</time>
      </trkpt>
      <trkpt lat="46.34533" lon="6.52366">
        <ele>633.4</ele>
        <time>2021-04-03T13:26:18Z</time>
      </trkpt>
      <trkpt lat="46.34533" lon="6.52366">
        <ele>633.4</ele>
        <time>2021-04-03T13:26:19Z</time>
      </trkpt>
      <trkpt lat="46.34533" lon="6.52366">
        <ele>633.2</ele>
        <time>2021-04-03T13:26:20Z</time>
      </trkpt>
      <trkpt lat="46.34533" lon="6.52366">
        <ele>633.2</ele>
        <time>2021-04-03T13:26:21Z</time>
      </trkpt>
      <trkpt lat="46.34533" lon="6.52366">
        <ele>633.4</ele>
        <time>2021-04-03T13:26:22Z</time>
      </trkpt>
      <trkpt lat="46.34534" lon="6.52366">
        <ele>633.4</ele>
        <time>2021-04-03T13:26:23Z</time>
      </trkpt>
      <trkpt lat="46.34534" lon="6.52366">
        <ele>633.4</ele>
        <time>2021-04-03T13:26:24Z</time>
      </trkpt>
      <trkpt lat="46.34534" lon="6.52366">
        <ele>633.4</ele>
        <time>2021-04-03T13:26:25Z</time>
      </trkpt>
      <trkpt lat="46.34534" lon="6.52366">
        <ele>633.4</ele>
        <time>2021-04-03T13:26:27Z</time>
      </trkpt>
      <trkpt lat="46.34534" lon="6.52366">
        <ele>633.2</ele>
        <time>2021-04-03T13:26:28Z</time>
      </trkpt>
      <trkpt lat="46.34534" lon="6.52366">
        <ele>633.2</ele>
        <time>2021-04-03T13:26:29Z</time>
      </trkpt>
      <trkpt lat="46.34534" lon="6.52366">
        <ele>633.2</ele>
        <time>2021-04-03T13:26:31Z</time>
      </trkpt>
      <trkpt lat="46.34534" lon="6.52365">
        <ele>633.2</ele>
        <time>2021-04-03T13:26:32Z</time>
      </trkpt>
      <trkpt lat="46.34535" lon="6.52365">
        <ele>633.4</ele>
        <time>2021-04-03T13:26:33Z</time>
      </trkpt>
      <trkpt lat="46.34535" lon="6.52366">
        <ele>633.4</ele>
        <time>2021-04-03T13:26:34Z</time>
      </trkpt>
      <trkpt lat="46.34535" lon="6.52366">
        <ele>633.6</ele>
        <time>2021-04-03T13:26:36Z</time>
      </trkpt>
      <trkpt lat="46.34535" lon="6.52366">
        <ele>633.6</ele>
        <time>2021-04-03T13:26:39Z</time>
      </trkpt>
      <trkpt lat="46.34535" lon="6.52366">
        <ele>633.6</ele>
        <time>2021-04-03T13:26:40Z</time>
      </trkpt>
      <trkpt lat="46.34536" lon="6.52366">
        <ele>633.8</ele>
        <time>2021-04-03T13:26:41Z</time>
      </trkpt>
      <trkpt lat="46.34536" lon="6.52366">
        <ele>633.6</ele>
        <time>2021-04-03T13:26:43Z</time>
      </trkpt>
      <trkpt lat="46.34536" lon="6.52366">
        <ele>633.6</ele>
        <time>2021-04-03T13:26:44Z</time>
      </trkpt>
      <trkpt lat="46.34536" lon="6.52366">
        <ele>633.6</ele>
        <time>2021-04-03T13:26:46Z</time>
      </trkpt>
      <trkpt lat="46.34536" lon="6.52366">
        <ele>633.2</ele>
        <time>2021-04-03T13:26:52Z</time>
      </trkpt>
      <trkpt lat="46.34536" lon="6.52366">
        <ele>633.2</ele>
        <time>2021-04-03T13:26:53Z</time>
      </trkpt>
      <trkpt lat="46.34536" lon="6.52366">
        <ele>633.4</ele>
        <time>2021-04-03T13:26:54Z</time>
      </trkpt>
      <trkpt lat="46.34536" lon="6.52366">
        <ele>633.2</ele>
        <time>2021-04-03T13:26:55Z</time>
      </trkpt>
      <trkpt lat="46.34536" lon="6.52366">
        <ele>633.2</ele>
        <time>2021-04-03T13:26:56Z</time>
      </trkpt>
      <trkpt lat="46.34536" lon="6.52366">
        <ele>633</ele>
        <time>2021-04-03T13:26:57Z</time>
      </trkpt>
      <trkpt lat="46.34536" lon="6.52366">
        <ele>633</ele>
        <time>2021-04-03T13:26:59Z</time>
      </trkpt>
      <trkpt lat="46.34536" lon="6.52366">
        <ele>633</ele>
        <time>2021-04-03T13:27:00Z</time>
      </trkpt>
      <trkpt lat="46.34536" lon="6.52366">
        <ele>633</ele>
        <time>2021-04-03T13:27:01Z</time>
      </trkpt>
      <trkpt lat="46.34536" lon="6.52366">
        <ele>633</ele>
        <time>2021-04-03T13:27:02Z</time>
      </trkpt>
      <trkpt lat="46.34536" lon="6.52366">
        <ele>633</ele>
        <time>2021-04-03T13:27:03Z</time>
      </trkpt>
      <trkpt lat="46.34536" lon="6.52367">
        <ele>633</ele>
        <time>2021-04-03T13:27:04Z</time>
      </trkpt>
      <trkpt lat="46.34536" lon="6.52367">
        <ele>633</ele>
        <time>2021-04-03T13:27:05Z</time>
      </trkpt>
      <trkpt lat="46.34536" lon="6.52367">
        <ele>633</ele>
        <time>2021-04-03T13:27:07Z</time>
      </trkpt>
      <trkpt lat="46.34536" lon="6.52367">
        <ele>632.8</ele>
        <time>2021-04-03T13:27:09Z</time>
      </trkpt>
      <trkpt lat="46.34536" lon="6.52367">
        <ele>632.8</ele>
        <time>2021-04-03T13:27:10Z</time>
      </trkpt>
      <trkpt lat="46.34536" lon="6.52366">
        <ele>632.8</ele>
        <time>2021-04-03T13:27:11Z</time>
      </trkpt>
      <trkpt lat="46.34536" lon="6.52366">
        <ele>632.8</ele>
        <time>2021-04-03T13:27:12Z</time>
      </trkpt>
      <trkpt lat="46.34536" lon="6.52365">
        <ele>632.6</ele>
        <time>2021-04-03T13:27:13Z</time>
      </trkpt>
      <trkpt lat="46.34536" lon="6.52365">
        <ele>632.6</ele>
        <time>2021-04-03T13:27:14Z</time>
      </trkpt>
      <trkpt lat="46.34536" lon="6.52364">
        <ele>632.4</ele>
        <time>2021-04-03T13:27:16Z</time>
      </trkpt>
      <trkpt lat="46.34536" lon="6.52364">
        <ele>632.6</ele>
        <time>2021-04-03T13:27:18Z</time>
      </trkpt>
      <trkpt lat="46.34536" lon="6.52365">
        <ele>632.6</ele>
        <time>2021-04-03T13:27:19Z</time>
      </trkpt>
      <trkpt lat="46.34536" lon="6.52365">
        <ele>632.6</ele>
        <time>2021-04-03T13:27:20Z</time>
      </trkpt>
      <trkpt lat="46.34537" lon="6.52365">
        <ele>632.6</ele>
        <time>2021-04-03T13:27:21Z</time>
      </trkpt>
      <trkpt lat="46.34537" lon="6.52365">
        <ele>632.6</ele>
        <time>2021-04-03T13:27:22Z</time>
      </trkpt>
      <trkpt lat="46.34537" lon="6.52366">
        <ele>632.4</ele>
        <time>2021-04-03T13:27:23Z</time>
      </trkpt>
      <trkpt lat="46.34537" lon="6.52365">
        <ele>632.6</ele>
        <time>2021-04-03T13:27:24Z</time>
      </trkpt>
      <trkpt lat="46.34537" lon="6.52365">
        <ele>632.4</ele>
        <time>2021-04-03T13:27:25Z</time>
      </trkpt>
      <trkpt lat="46.34537" lon="6.52366">
        <ele>632.4</ele>
        <time>2021-04-03T13:27:29Z</time>
      </trkpt>
      <trkpt lat="46.34537" lon="6.52366">
        <ele>632.6</ele>
        <time>2021-04-03T13:27:31Z</time>
      </trkpt>
      <trkpt lat="46.34537" lon="6.52366">
        <ele>632.6</ele>
        <time>2021-04-03T13:27:33Z</time>
      </trkpt>
      <trkpt lat="46.34536" lon="6.52366">
        <ele>632.8</ele>
        <time>2021-04-03T13:27:36Z</time>
      </trkpt>
      <trkpt lat="46.34536" lon="6.52366">
        <ele>633</ele>
        <time>2021-04-03T13:27:37Z</time>
      </trkpt>
      <trkpt lat="46.34537" lon="6.52365">
        <ele>633</ele>
        <time>2021-04-03T13:27:38Z</time>
      </trkpt>
      <trkpt lat="46.34536" lon="6.52365">
        <ele>633.2</ele>
        <time>2021-04-03T13:27:39Z</time>
      </trkpt>
      <trkpt lat="46.34537" lon="6.52365">
        <ele>633.2</ele>
        <time>2021-04-03T13:27:41Z</time>
      </trkpt>
      <trkpt lat="46.34537" lon="6.52365">
        <ele>633.2</ele>
        <time>2021-04-03T13:27:43Z</time>
      </trkpt>
      <trkpt lat="46.34537" lon="6.52365">
        <ele>633.4</ele>
        <time>2021-04-03T13:27:45Z</time>
      </trkpt>
      <trkpt lat="46.34536" lon="6.52365">
        <ele>633.2</ele>
        <time>2021-04-03T13:27:46Z</time>
      </trkpt>
      <trkpt lat="46.34536" lon="6.52365">
        <ele>633.4</ele>
        <time>2021-04-03T13:27:47Z</time>
      </trkpt>
      <trkpt lat="46.34536" lon="6.52365">
        <ele>633.2</ele>
        <time>2021-04-03T13:27:48Z</time>
      </trkpt>
      <trkpt lat="46.34536" lon="6.52365">
        <ele>633.4</ele>
        <time>2021-04-03T13:27:49Z</time>
      </trkpt>
      <trkpt lat="46.34537" lon="6.52365">
        <ele>633.4</ele>
        <time>2021-04-03T13:27:51Z</time>
      </trkpt>
      <trkpt lat="46.34536" lon="6.52365">
        <ele>633.4</ele>
        <time>2021-04-03T13:27:52Z</time>
      </trkpt>
      <trkpt lat="46.34537" lon="6.52365">
        <ele>633.4</ele>
        <time>2021-04-03T13:27:53Z</time>
      </trkpt>
      <trkpt lat="46.34537" lon="6.52365">
        <ele>633.4</ele>
        <time>2021-04-03T13:27:54Z</time>
      </trkpt>
      <trkpt lat="46.34537" lon="6.52365">
        <ele>633.4</ele>
        <time>2021-04-03T13:27:57Z</time>
      </trkpt>
      <trkpt lat="46.34537" lon="6.52365">
        <ele>633.4</ele>
        <time>2021-04-03T13:27:58Z</time>
      </trkpt>
      <trkpt lat="46.34537" lon="6.52366">
        <ele>633.4</ele>
        <time>2021-04-03T13:27:59Z</time>
      </trkpt>
      <trkpt lat="46.34537" lon="6.52366">
        <ele>633.2</ele>
        <time>2021-04-03T13:28:00Z</time>
      </trkpt>
      <trkpt lat="46.34538" lon="6.52366">
        <ele>633.2</ele>
        <time>2021-04-03T13:28:01Z</time>
      </trkpt>
      <trkpt lat="46.34538" lon="6.52366">
        <ele>633.2</ele>
        <time>2021-04-03T13:28:02Z</time>
      </trkpt>
      <trkpt lat="46.34537" lon="6.52365">
        <ele>633.4</ele>
        <time>2021-04-03T13:28:03Z</time>
      </trkpt>
      <trkpt lat="46.34538" lon="6.52365">
        <ele>633.2</ele>
        <time>2021-04-03T13:28:04Z</time>
      </trkpt>
      <trkpt lat="46.34539" lon="6.52365">
        <ele>633.2</ele>
        <time>2021-04-03T13:28:05Z</time>
      </trkpt>
      <trkpt lat="46.3454" lon="6.52364">
        <ele>633.2</ele>
        <time>2021-04-03T13:28:06Z</time>
      </trkpt>
      <trkpt lat="46.34542" lon="6.52364">
        <ele>633.4</ele>
        <time>2021-04-03T13:28:07Z</time>
      </trkpt>
      <trkpt lat="46.34545" lon="6.52364">
        <ele>633.2</ele>
        <time>2021-04-03T13:28:08Z</time>
      </trkpt>
      <trkpt lat="46.34547" lon="6.52364">
        <ele>633.2</ele>
        <time>2021-04-03T13:28:09Z</time>
      </trkpt>
      <trkpt lat="46.34549" lon="6.52364">
        <ele>633.4</ele>
        <time>2021-04-03T13:28:10Z</time>
      </trkpt>
      <trkpt lat="46.34551" lon="6.52364">
        <ele>633.4</ele>
        <time>2021-04-03T13:28:11Z</time>
      </trkpt>
      <trkpt lat="46.34554" lon="6.52364">
        <ele>633.4</ele>
        <time>2021-04-03T13:28:12Z</time>
      </trkpt>
      <trkpt lat="46.34556" lon="6.52364">
        <ele>633.6</ele>
        <time>2021-04-03T13:28:13Z</time>
      </trkpt>
      <trkpt lat="46.34559" lon="6.52364">
        <ele>633.6</ele>
        <time>2021-04-03T13:28:14Z</time>
      </trkpt>
      <trkpt lat="46.34562" lon="6.52365">
        <ele>633.6</ele>
        <time>2021-04-03T13:28:15Z</time>
      </trkpt>
      <trkpt lat="46.34565" lon="6.52365">
        <ele>634.2</ele>
        <time>2021-04-03T13:28:16Z</time>
      </trkpt>
      <trkpt lat="46.34567" lon="6.52365">
        <ele>634.2</ele>
        <time>2021-04-03T13:28:17Z</time>
      </trkpt>
      <trkpt lat="46.3457" lon="6.52365">
        <ele>634.2</ele>
        <time>2021-04-03T13:28:18Z</time>
      </trkpt>
      <trkpt lat="46.34573" lon="6.52364">
        <ele>634.2</ele>
        <time>2021-04-03T13:28:19Z</time>
      </trkpt>
      <trkpt lat="46.34576" lon="6.52364">
        <ele>634.4</ele>
        <time>2021-04-03T13:28:20Z</time>
      </trkpt>
      <trkpt lat="46.34578" lon="6.52364">
        <ele>634.4</ele>
        <time>2021-04-03T13:28:21Z</time>
      </trkpt>
      <trkpt lat="46.34581" lon="6.52364">
        <ele>634.4</ele>
        <time>2021-04-03T13:28:22Z</time>
      </trkpt>
      <trkpt lat="46.34584" lon="6.52364">
        <ele>634.4</ele>
        <time>2021-04-03T13:28:23Z</time>
      </trkpt>
      <trkpt lat="46.34588" lon="6.52364">
        <ele>634.6</ele>
        <time>2021-04-03T13:28:24Z</time>
      </trkpt>
      <trkpt lat="46.34591" lon="6.52364">
        <ele>634.6</ele>
        <time>2021-04-03T13:28:25Z</time>
      </trkpt>
      <trkpt lat="46.34594" lon="6.52365">
        <ele>634.6</ele>
        <time>2021-04-03T13:28:26Z</time>
      </trkpt>
      <trkpt lat="46.34597" lon="6.52365">
        <ele>634.6</ele>
        <time>2021-04-03T13:28:27Z</time>
      </trkpt>
      <trkpt lat="46.346" lon="6.52366">
        <ele>634.8</ele>
        <time>2021-04-03T13:28:28Z</time>
      </trkpt>
      <trkpt lat="46.34604" lon="6.52368">
        <ele>634.6</ele>
        <time>2021-04-03T13:28:29Z</time>
      </trkpt>
      <trkpt lat="46.34608" lon="6.52369">
        <ele>634.4</ele>
        <time>2021-04-03T13:28:30Z</time>
      </trkpt>
      <trkpt lat="46.34611" lon="6.52371">
        <ele>634.4</ele>
        <time>2021-04-03T13:28:31Z</time>
      </trkpt>
      <trkpt lat="46.34615" lon="6.52373">
        <ele>634.6</ele>
        <time>2021-04-03T13:28:32Z</time>
      </trkpt>
      <trkpt lat="46.34617" lon="6.52374">
        <ele>634.6</ele>
        <time>2021-04-03T13:28:33Z</time>
      </trkpt>
      <trkpt lat="46.3462" lon="6.52377">
        <ele>634.4</ele>
        <time>2021-04-03T13:28:34Z</time>
      </trkpt>
      <trkpt lat="46.34623" lon="6.52379">
        <ele>634.4</ele>
        <time>2021-04-03T13:28:36Z</time>
      </trkpt>
      <trkpt lat="46.34625" lon="6.52383">
        <ele>634.4</ele>
        <time>2021-04-03T13:28:37Z</time>
      </trkpt>
      <trkpt lat="46.34628" lon="6.52388">
        <ele>634.6</ele>
        <time>2021-04-03T13:28:38Z</time>
      </trkpt>
      <trkpt lat="46.3463" lon="6.52392">
        <ele>634.6</ele>
        <time>2021-04-03T13:28:39Z</time>
      </trkpt>
      <trkpt lat="46.34631" lon="6.52398">
        <ele>634.4</ele>
        <time>2021-04-03T13:28:40Z</time>
      </trkpt>
      <trkpt lat="46.34632" lon="6.52403">
        <ele>634.6</ele>
        <time>2021-04-03T13:28:41Z</time>
      </trkpt>
      <trkpt lat="46.34632" lon="6.52409">
        <ele>634.6</ele>
        <time>2021-04-03T13:28:42Z</time>
      </trkpt>
      <trkpt lat="46.34632" lon="6.52414">
        <ele>634.6</ele>
        <time>2021-04-03T13:28:43Z</time>
      </trkpt>
      <trkpt lat="46.34633" lon="6.5242">
        <ele>634.6</ele>
        <time>2021-04-03T13:28:44Z</time>
      </trkpt>
      <trkpt lat="46.34632" lon="6.52425">
        <ele>634.6</ele>
        <time>2021-04-03T13:28:45Z</time>
      </trkpt>
      <trkpt lat="46.34632" lon="6.5243">
        <ele>634.6</ele>
        <time>2021-04-03T13:28:46Z</time>
      </trkpt>
      <trkpt lat="46.34632" lon="6.52435">
        <ele>634.8</ele>
        <time>2021-04-03T13:28:47Z</time>
      </trkpt>
      <trkpt lat="46.34631" lon="6.52446">
        <ele>634.8</ele>
        <time>2021-04-03T13:28:48Z</time>
      </trkpt>
      <trkpt lat="46.34631" lon="6.52448">
        <ele>635</ele>
        <time>2021-04-03T13:28:49Z</time>
      </trkpt>
      <trkpt lat="46.34631" lon="6.52451">
        <ele>635</ele>
        <time>2021-04-03T13:28:50Z</time>
      </trkpt>
      <trkpt lat="46.34631" lon="6.52462">
        <ele>635</ele>
        <time>2021-04-03T13:28:51Z</time>
      </trkpt>
      <trkpt lat="46.34631" lon="6.52467">
        <ele>635.2</ele>
        <time>2021-04-03T13:28:52Z</time>
      </trkpt>
      <trkpt lat="46.34631" lon="6.5247">
        <ele>635</ele>
        <time>2021-04-03T13:28:53Z</time>
      </trkpt>
      <trkpt lat="46.34631" lon="6.52472">
        <ele>635.4</ele>
        <time>2021-04-03T13:28:54Z</time>
      </trkpt>
      <trkpt lat="46.34631" lon="6.52483">
        <ele>635.4</ele>
        <time>2021-04-03T13:28:55Z</time>
      </trkpt>
      <trkpt lat="46.34631" lon="6.52486">
        <ele>635.6</ele>
        <time>2021-04-03T13:28:56Z</time>
      </trkpt>
      <trkpt lat="46.3463" lon="6.52488">
        <ele>635.6</ele>
        <time>2021-04-03T13:28:57Z</time>
      </trkpt>
      <trkpt lat="46.3463" lon="6.525">
        <ele>635.8</ele>
        <time>2021-04-03T13:28:58Z</time>
      </trkpt>
      <trkpt lat="46.3463" lon="6.52505">
        <ele>635.8</ele>
        <time>2021-04-03T13:28:59Z</time>
      </trkpt>
      <trkpt lat="46.3463" lon="6.5251">
        <ele>636</ele>
        <time>2021-04-03T13:29:00Z</time>
      </trkpt>
      <trkpt lat="46.3463" lon="6.52512">
        <ele>636</ele>
        <time>2021-04-03T13:29:01Z</time>
      </trkpt>
      <trkpt lat="46.34631" lon="6.52515">
        <ele>636</ele>
        <time>2021-04-03T13:29:02Z</time>
      </trkpt>
      <trkpt lat="46.34631" lon="6.52525">
        <ele>636.4</ele>
        <time>2021-04-03T13:29:03Z</time>
      </trkpt>
      <trkpt lat="46.34632" lon="6.52529">
        <ele>636.8</ele>
        <time>2021-04-03T13:29:04Z</time>
      </trkpt>
      <trkpt lat="46.34632" lon="6.52534">
        <ele>637.2</ele>
        <time>2021-04-03T13:29:05Z</time>
      </trkpt>
      <trkpt lat="46.34632" lon="6.52539">
        <ele>637.6</ele>
        <time>2021-04-03T13:29:06Z</time>
      </trkpt>
      <trkpt lat="46.34632" lon="6.52544">
        <ele>637.8</ele>
        <time>2021-04-03T13:29:07Z</time>
      </trkpt>
      <trkpt lat="46.34632" lon="6.5255">
        <ele>638.2</ele>
        <time>2021-04-03T13:29:08Z</time>
      </trkpt>
      <trkpt lat="46.34631" lon="6.52555">
        <ele>638.6</ele>
        <time>2021-04-03T13:29:09Z</time>
      </trkpt>
      <trkpt lat="46.34631" lon="6.5256">
        <ele>639</ele>
        <time>2021-04-03T13:29:11Z</time>
      </trkpt>
      <trkpt lat="46.3463" lon="6.52565">
        <ele>639.6</ele>
        <time>2021-04-03T13:29:12Z</time>
      </trkpt>
      <trkpt lat="46.34627" lon="6.52574">
        <ele>639.8</ele>
        <time>2021-04-03T13:29:13Z</time>
      </trkpt>
      <trkpt lat="46.34626" lon="6.52579">
        <ele>640</ele>
        <time>2021-04-03T13:29:14Z</time>
      </trkpt>
      <trkpt lat="46.34626" lon="6.52581">
        <ele>640.4</ele>
        <time>2021-04-03T13:29:15Z</time>
      </trkpt>
      <trkpt lat="46.34625" lon="6.52584">
        <ele>640.6</ele>
        <time>2021-04-03T13:29:16Z</time>
      </trkpt>
      <trkpt lat="46.34623" lon="6.52589">
        <ele>640.6</ele>
        <time>2021-04-03T13:29:17Z</time>
      </trkpt>
      <trkpt lat="46.34621" lon="6.52593">
        <ele>640.8</ele>
        <time>2021-04-03T13:29:18Z</time>
      </trkpt>
      <trkpt lat="46.34619" lon="6.52596">
        <ele>641</ele>
        <time>2021-04-03T13:29:19Z</time>
      </trkpt>
      <trkpt lat="46.34617" lon="6.526">
        <ele>641.2</ele>
        <time>2021-04-03T13:29:20Z</time>
      </trkpt>
      <trkpt lat="46.34614" lon="6.52603">
        <ele>641.2</ele>
        <time>2021-04-03T13:29:21Z</time>
      </trkpt>
      <trkpt lat="46.34612" lon="6.52606">
        <ele>641.4</ele>
        <time>2021-04-03T13:29:22Z</time>
      </trkpt>
      <trkpt lat="46.34609" lon="6.52609">
        <ele>641.8</ele>
        <time>2021-04-03T13:29:23Z</time>
      </trkpt>
      <trkpt lat="46.34607" lon="6.52612">
        <ele>641.8</ele>
        <time>2021-04-03T13:29:24Z</time>
      </trkpt>
      <trkpt lat="46.34604" lon="6.52615">
        <ele>642.2</ele>
        <time>2021-04-03T13:29:25Z</time>
      </trkpt>
      <trkpt lat="46.34601" lon="6.52617">
        <ele>642.6</ele>
        <time>2021-04-03T13:29:26Z</time>
      </trkpt>
      <trkpt lat="46.34596" lon="6.52623">
        <ele>642.8</ele>
        <time>2021-04-03T13:29:27Z</time>
      </trkpt>
      <trkpt lat="46.34593" lon="6.52626">
        <ele>643.2</ele>
        <time>2021-04-03T13:29:28Z</time>
      </trkpt>
      <trkpt lat="46.34591" lon="6.52628">
        <ele>643.8</ele>
        <time>2021-04-03T13:29:30Z</time>
      </trkpt>
      <trkpt lat="46.34588" lon="6.52631">
        <ele>643.8</ele>
        <time>2021-04-03T13:29:31Z</time>
      </trkpt>
      <trkpt lat="46.34586" lon="6.52634">
        <ele>644</ele>
        <time>2021-04-03T13:29:32Z</time>
      </trkpt>
      <trkpt lat="46.34583" lon="6.52637">
        <ele>644.2</ele>
        <time>2021-04-03T13:29:33Z</time>
      </trkpt>
      <trkpt lat="46.34581" lon="6.52641">
        <ele>644.4</ele>
        <time>2021-04-03T13:29:34Z</time>
      </trkpt>
      <trkpt lat="46.34578" lon="6.52644">
        <ele>644.6</ele>
        <time>2021-04-03T13:29:35Z</time>
      </trkpt>
      <trkpt lat="46.34576" lon="6.52648">
        <ele>644.6</ele>
        <time>2021-04-03T13:29:36Z</time>
      </trkpt>
      <trkpt lat="46.34574" lon="6.52651">
        <ele>645</ele>
        <time>2021-04-03T13:29:37Z</time>
      </trkpt>
      <trkpt lat="46.34572" lon="6.52656">
        <ele>645.2</ele>
        <time>2021-04-03T13:29:38Z</time>
      </trkpt>
      <trkpt lat="46.34571" lon="6.5266">
        <ele>645.4</ele>
        <time>2021-04-03T13:29:39Z</time>
      </trkpt>
      <trkpt lat="46.34569" lon="6.52664">
        <ele>645.6</ele>
        <time>2021-04-03T13:29:40Z</time>
      </trkpt>
      <trkpt lat="46.34566" lon="6.52673">
        <ele>645.6</ele>
        <time>2021-04-03T13:29:41Z</time>
      </trkpt>
      <trkpt lat="46.34565" lon="6.52678">
        <ele>645.8</ele>
        <time>2021-04-03T13:29:43Z</time>
      </trkpt>
      <trkpt lat="46.34564" lon="6.52683">
        <ele>645.6</ele>
        <time>2021-04-03T13:29:44Z</time>
      </trkpt>
      <trkpt lat="46.34562" lon="6.52693">
        <ele>645.8</ele>
        <time>2021-04-03T13:29:45Z</time>
      </trkpt>
      <trkpt lat="46.3456" lon="6.52698">
        <ele>646</ele>
        <time>2021-04-03T13:29:46Z</time>
      </trkpt>
      <trkpt lat="46.34558" lon="6.52704">
        <ele>646.2</ele>
        <time>2021-04-03T13:29:47Z</time>
      </trkpt>
      <trkpt lat="46.34557" lon="6.52709">
        <ele>646.4</ele>
        <time>2021-04-03T13:29:48Z</time>
      </trkpt>
      <trkpt lat="46.34555" lon="6.52714">
        <ele>646.6</ele>
        <time>2021-04-03T13:29:49Z</time>
      </trkpt>
      <trkpt lat="46.34553" lon="6.5272">
        <ele>646.8</ele>
        <time>2021-04-03T13:29:50Z</time>
      </trkpt>
      <trkpt lat="46.34552" lon="6.52722">
        <ele>646.8</ele>
        <time>2021-04-03T13:29:51Z</time>
      </trkpt>
      <trkpt lat="46.34551" lon="6.52725">
        <ele>646.8</ele>
        <time>2021-04-03T13:29:52Z</time>
      </trkpt>
      <trkpt lat="46.34549" lon="6.5273">
        <ele>647</ele>
        <time>2021-04-03T13:29:53Z</time>
      </trkpt>
      <trkpt lat="46.34545" lon="6.52739">
        <ele>647.2</ele>
        <time>2021-04-03T13:29:54Z</time>
      </trkpt>
      <trkpt lat="46.34542" lon="6.52743">
        <ele>647.2</ele>
        <time>2021-04-03T13:29:55Z</time>
      </trkpt>
      <trkpt lat="46.3454" lon="6.52747">
        <ele>647.2</ele>
        <time>2021-04-03T13:29:56Z</time>
      </trkpt>
      <trkpt lat="46.34537" lon="6.52751">
        <ele>647.2</ele>
        <time>2021-04-03T13:29:57Z</time>
      </trkpt>
      <trkpt lat="46.34534" lon="6.52754">
        <ele>647.4</ele>
        <time>2021-04-03T13:29:58Z</time>
      </trkpt>
      <trkpt lat="46.34533" lon="6.52756">
        <ele>647.4</ele>
        <time>2021-04-03T13:29:59Z</time>
      </trkpt>
      <trkpt lat="46.34531" lon="6.52758">
        <ele>647.4</ele>
        <time>2021-04-03T13:30:00Z</time>
      </trkpt>
      <trkpt lat="46.34525" lon="6.52763">
        <ele>647.4</ele>
        <time>2021-04-03T13:30:01Z</time>
      </trkpt>
      <trkpt lat="46.34522" lon="6.52766">
        <ele>647.6</ele>
        <time>2021-04-03T13:30:03Z</time>
      </trkpt>
      <trkpt lat="46.34519" lon="6.52769">
        <ele>647.6</ele>
        <time>2021-04-03T13:30:04Z</time>
      </trkpt>
      <trkpt lat="46.34513" lon="6.52774">
        <ele>647.6</ele>
        <time>2021-04-03T13:30:05Z</time>
      </trkpt>
      <trkpt lat="46.3451" lon="6.52777">
        <ele>647.8</ele>
        <time>2021-04-03T13:30:06Z</time>
      </trkpt>
      <trkpt lat="46.34507" lon="6.5278">
        <ele>648</ele>
        <time>2021-04-03T13:30:07Z</time>
      </trkpt>
      <trkpt lat="46.34505" lon="6.52782">
        <ele>648.2</ele>
        <time>2021-04-03T13:30:08Z</time>
      </trkpt>
      <trkpt lat="46.34502" lon="6.52784">
        <ele>648.6</ele>
        <time>2021-04-03T13:30:10Z</time>
      </trkpt>
      <trkpt lat="46.34499" lon="6.52786">
        <ele>649</ele>
        <time>2021-04-03T13:30:11Z</time>
      </trkpt>
      <trkpt lat="46.34494" lon="6.52791">
        <ele>649.2</ele>
        <time>2021-04-03T13:30:12Z</time>
      </trkpt>
      <trkpt lat="46.34491" lon="6.52794">
        <ele>649.4</ele>
        <time>2021-04-03T13:30:13Z</time>
      </trkpt>
      <trkpt lat="46.34488" lon="6.52796">
        <ele>649.6</ele>
        <time>2021-04-03T13:30:14Z</time>
      </trkpt>
      <trkpt lat="46.34486" lon="6.52799">
        <ele>650.2</ele>
        <time>2021-04-03T13:30:16Z</time>
      </trkpt>
      <trkpt lat="46.34483" lon="6.52801">
        <ele>650.4</ele>
        <time>2021-04-03T13:30:17Z</time>
      </trkpt>
      <trkpt lat="46.3448" lon="6.52804">
        <ele>650.6</ele>
        <time>2021-04-03T13:30:18Z</time>
      </trkpt>
      <trkpt lat="46.34477" lon="6.52807">
        <ele>650.6</ele>
        <time>2021-04-03T13:30:19Z</time>
      </trkpt>
      <trkpt lat="46.34475" lon="6.52809">
        <ele>651</ele>
        <time>2021-04-03T13:30:20Z</time>
      </trkpt>
      <trkpt lat="46.34472" lon="6.52812">
        <ele>651</ele>
        <time>2021-04-03T13:30:21Z</time>
      </trkpt>
      <trkpt lat="46.34469" lon="6.52814">
        <ele>651</ele>
        <time>2021-04-03T13:30:22Z</time>
      </trkpt>
      <trkpt lat="46.34467" lon="6.52817">
        <ele>651.2</ele>
        <time>2021-04-03T13:30:23Z</time>
      </trkpt>
      <trkpt lat="46.34464" lon="6.52819">
        <ele>651.2</ele>
        <time>2021-04-03T13:30:24Z</time>
      </trkpt>
      <trkpt lat="46.34462" lon="6.52821">
        <ele>651.2</ele>
        <time>2021-04-03T13:30:25Z</time>
      </trkpt>
      <trkpt lat="46.34459" lon="6.52824">
        <ele>651.4</ele>
        <time>2021-04-03T13:30:26Z</time>
      </trkpt>
      <trkpt lat="46.34456" lon="6.52826">
        <ele>651.6</ele>
        <time>2021-04-03T13:30:27Z</time>
      </trkpt>
      <trkpt lat="46.34454" lon="6.52828">
        <ele>651.6</ele>
        <time>2021-04-03T13:30:28Z</time>
      </trkpt>
      <trkpt lat="46.34451" lon="6.52831">
        <ele>651.8</ele>
        <time>2021-04-03T13:30:29Z</time>
      </trkpt>
      <trkpt lat="46.34449" lon="6.52833">
        <ele>652.2</ele>
        <time>2021-04-03T13:30:30Z</time>
      </trkpt>
      <trkpt lat="46.34444" lon="6.52838">
        <ele>652.4</ele>
        <time>2021-04-03T13:30:31Z</time>
      </trkpt>
      <trkpt lat="46.34442" lon="6.5284">
        <ele>652.6</ele>
        <time>2021-04-03T13:30:32Z</time>
      </trkpt>
      <trkpt lat="46.34439" lon="6.52843">
        <ele>652.8</ele>
        <time>2021-04-03T13:30:33Z</time>
      </trkpt>
      <trkpt lat="46.34437" lon="6.52846">
        <ele>653</ele>
        <time>2021-04-03T13:30:34Z</time>
      </trkpt>
      <trkpt lat="46.34435" lon="6.52848">
        <ele>653.4</ele>
        <time>2021-04-03T13:30:35Z</time>
      </trkpt>
      <trkpt lat="46.34432" lon="6.52851">
        <ele>653.8</ele>
        <time>2021-04-03T13:30:36Z</time>
      </trkpt>
      <trkpt lat="46.34431" lon="6.52855">
        <ele>654</ele>
        <time>2021-04-03T13:30:37Z</time>
      </trkpt>
      <trkpt lat="46.34429" lon="6.52858">
        <ele>654.4</ele>
        <time>2021-04-03T13:30:38Z</time>
      </trkpt>
      <trkpt lat="46.34427" lon="6.52862">
        <ele>654.8</ele>
        <time>2021-04-03T13:30:39Z</time>
      </trkpt>
      <trkpt lat="46.34425" lon="6.52866">
        <ele>655</ele>
        <time>2021-04-03T13:30:40Z</time>
      </trkpt>
      <trkpt lat="46.34424" lon="6.5287">
        <ele>655.2</ele>
        <time>2021-04-03T13:30:41Z</time>
      </trkpt>
      <trkpt lat="46.34422" lon="6.52873">
        <ele>655.4</ele>
        <time>2021-04-03T13:30:42Z</time>
      </trkpt>
      <trkpt lat="46.34421" lon="6.52877">
        <ele>655.8</ele>
        <time>2021-04-03T13:30:43Z</time>
      </trkpt>
      <trkpt lat="46.3442" lon="6.52881">
        <ele>656.4</ele>
        <time>2021-04-03T13:30:45Z</time>
      </trkpt>
      <trkpt lat="46.34418" lon="6.52885">
        <ele>656.8</ele>
        <time>2021-04-03T13:30:46Z</time>
      </trkpt>
      <trkpt lat="46.34416" lon="6.52893">
        <ele>657.2</ele>
        <time>2021-04-03T13:30:47Z</time>
      </trkpt>
      <trkpt lat="46.34414" lon="6.52897">
        <ele>657.2</ele>
        <time>2021-04-03T13:30:48Z</time>
      </trkpt>
      <trkpt lat="46.34413" lon="6.52901">
        <ele>657.2</ele>
        <time>2021-04-03T13:30:49Z</time>
      </trkpt>
      <trkpt lat="46.34411" lon="6.52905">
        <ele>657.4</ele>
        <time>2021-04-03T13:30:50Z</time>
      </trkpt>
      <trkpt lat="46.3441" lon="6.52909">
        <ele>657.4</ele>
        <time>2021-04-03T13:30:51Z</time>
      </trkpt>
      <trkpt lat="46.34408" lon="6.52913">
        <ele>657.6</ele>
        <time>2021-04-03T13:30:52Z</time>
      </trkpt>
      <trkpt lat="46.34407" lon="6.52916">
        <ele>657.4</ele>
        <time>2021-04-03T13:30:53Z</time>
      </trkpt>
      <trkpt lat="46.34405" lon="6.52919">
        <ele>657.6</ele>
        <time>2021-04-03T13:30:54Z</time>
      </trkpt>
      <trkpt lat="46.34403" lon="6.52922">
        <ele>657.8</ele>
        <time>2021-04-03T13:30:55Z</time>
      </trkpt>
      <trkpt lat="46.34401" lon="6.52925">
        <ele>657.8</ele>
        <time>2021-04-03T13:30:56Z</time>
      </trkpt>
      <trkpt lat="46.34398" lon="6.52928">
        <ele>657.8</ele>
        <time>2021-04-03T13:30:57Z</time>
      </trkpt>
      <trkpt lat="46.34396" lon="6.52931">
        <ele>658</ele>
        <time>2021-04-03T13:30:58Z</time>
      </trkpt>
      <trkpt lat="46.34393" lon="6.52933">
        <ele>658.2</ele>
        <time>2021-04-03T13:30:59Z</time>
      </trkpt>
      <trkpt lat="46.34391" lon="6.52936">
        <ele>658.2</ele>
        <time>2021-04-03T13:31:00Z</time>
      </trkpt>
      <trkpt lat="46.34388" lon="6.52938">
        <ele>658.8</ele>
        <time>2021-04-03T13:31:01Z</time>
      </trkpt>
      <trkpt lat="46.34386" lon="6.5294">
        <ele>659</ele>
        <time>2021-04-03T13:31:02Z</time>
      </trkpt>
      <trkpt lat="46.34383" lon="6.52943">
        <ele>659.4</ele>
        <time>2021-04-03T13:31:03Z</time>
      </trkpt>
      <trkpt lat="46.3438" lon="6.52945">
        <ele>659.4</ele>
        <time>2021-04-03T13:31:04Z</time>
      </trkpt>
      <trkpt lat="46.34378" lon="6.52946">
        <ele>660</ele>
        <time>2021-04-03T13:31:05Z</time>
      </trkpt>
      <trkpt lat="46.34375" lon="6.52948">
        <ele>660.2</ele>
        <time>2021-04-03T13:31:06Z</time>
      </trkpt>
      <trkpt lat="46.34372" lon="6.5295">
        <ele>660.6</ele>
        <time>2021-04-03T13:31:07Z</time>
      </trkpt>
      <trkpt lat="46.34369" lon="6.52951">
        <ele>660.8</ele>
        <time>2021-04-03T13:31:08Z</time>
      </trkpt>
      <trkpt lat="46.34366" lon="6.52952">
        <ele>661</ele>
        <time>2021-04-03T13:31:09Z</time>
      </trkpt>
      <trkpt lat="46.34364" lon="6.52954">
        <ele>661.2</ele>
        <time>2021-04-03T13:31:10Z</time>
      </trkpt>
      <trkpt lat="46.34361" lon="6.52955">
        <ele>661.6</ele>
        <time>2021-04-03T13:31:11Z</time>
      </trkpt>
      <trkpt lat="46.34358" lon="6.52957">
        <ele>661.8</ele>
        <time>2021-04-03T13:31:12Z</time>
      </trkpt>
      <trkpt lat="46.34355" lon="6.52958">
        <ele>662</ele>
        <time>2021-04-03T13:31:13Z</time>
      </trkpt>
      <trkpt lat="46.34352" lon="6.52959">
        <ele>662.2</ele>
        <time>2021-04-03T13:31:14Z</time>
      </trkpt>
      <trkpt lat="46.3435" lon="6.5296">
        <ele>662.6</ele>
        <time>2021-04-03T13:31:15Z</time>
      </trkpt>
      <trkpt lat="46.34347" lon="6.52961">
        <ele>662.6</ele>
        <time>2021-04-03T13:31:16Z</time>
      </trkpt>
      <trkpt lat="46.34344" lon="6.52963">
        <ele>662.8</ele>
        <time>2021-04-03T13:31:17Z</time>
      </trkpt>
      <trkpt lat="46.34342" lon="6.52964">
        <ele>662.8</ele>
        <time>2021-04-03T13:31:18Z</time>
      </trkpt>
      <trkpt lat="46.34339" lon="6.52965">
        <ele>663.2</ele>
        <time>2021-04-03T13:31:20Z</time>
      </trkpt>
      <trkpt lat="46.34336" lon="6.52966">
        <ele>663.2</ele>
        <time>2021-04-03T13:31:21Z</time>
      </trkpt>
      <trkpt lat="46.34331" lon="6.52969">
        <ele>663.2</ele>
        <time>2021-04-03T13:31:22Z</time>
      </trkpt>
      <trkpt lat="46.34328" lon="6.5297">
        <ele>663.8</ele>
        <time>2021-04-03T13:31:24Z</time>
      </trkpt>
      <trkpt lat="46.34323" lon="6.52972">
        <ele>664.2</ele>
        <time>2021-04-03T13:31:25Z</time>
      </trkpt>
      <trkpt lat="46.3432" lon="6.52974">
        <ele>664.2</ele>
        <time>2021-04-03T13:31:26Z</time>
      </trkpt>
      <trkpt lat="46.34318" lon="6.52976">
        <ele>664.6</ele>
        <time>2021-04-03T13:31:27Z</time>
      </trkpt>
      <trkpt lat="46.34315" lon="6.52979">
        <ele>664.8</ele>
        <time>2021-04-03T13:31:28Z</time>
      </trkpt>
      <trkpt lat="46.34313" lon="6.52981">
        <ele>665</ele>
        <time>2021-04-03T13:31:29Z</time>
      </trkpt>
      <trkpt lat="46.3431" lon="6.52984">
        <ele>665</ele>
        <time>2021-04-03T13:31:30Z</time>
      </trkpt>
      <trkpt lat="46.34308" lon="6.52987">
        <ele>665.4</ele>
        <time>2021-04-03T13:31:31Z</time>
      </trkpt>
      <trkpt lat="46.34306" lon="6.52991">
        <ele>665.8</ele>
        <time>2021-04-03T13:31:33Z</time>
      </trkpt>
      <trkpt lat="46.34303" lon="6.52998">
        <ele>666</ele>
        <time>2021-04-03T13:31:34Z</time>
      </trkpt>
      <trkpt lat="46.34302" lon="6.53002">
        <ele>666</ele>
        <time>2021-04-03T13:31:35Z</time>
      </trkpt>
      <trkpt lat="46.34301" lon="6.53007">
        <ele>666.4</ele>
        <time>2021-04-03T13:31:36Z</time>
      </trkpt>
      <trkpt lat="46.343" lon="6.53011">
        <ele>666.6</ele>
        <time>2021-04-03T13:31:37Z</time>
      </trkpt>
      <trkpt lat="46.34299" lon="6.53015">
        <ele>666.8</ele>
        <time>2021-04-03T13:31:39Z</time>
      </trkpt>
      <trkpt lat="46.34299" lon="6.53024">
        <ele>667</ele>
        <time>2021-04-03T13:31:40Z</time>
      </trkpt>
      <trkpt lat="46.34298" lon="6.53029">
        <ele>667.2</ele>
        <time>2021-04-03T13:31:41Z</time>
      </trkpt>
      <trkpt lat="46.34298" lon="6.53033">
        <ele>667.6</ele>
        <time>2021-04-03T13:31:43Z</time>
      </trkpt>
      <trkpt lat="46.34298" lon="6.53043">
        <ele>667.6</ele>
        <time>2021-04-03T13:31:44Z</time>
      </trkpt>
      <trkpt lat="46.34297" lon="6.53047">
        <ele>668</ele>
        <time>2021-04-03T13:31:46Z</time>
      </trkpt>
      <trkpt lat="46.34297" lon="6.53056">
        <ele>668.2</ele>
        <time>2021-04-03T13:31:47Z</time>
      </trkpt>
      <trkpt lat="46.34297" lon="6.5306">
        <ele>668.4</ele>
        <time>2021-04-03T13:31:48Z</time>
      </trkpt>
      <trkpt lat="46.34297" lon="6.53065">
        <ele>668.4</ele>
        <time>2021-04-03T13:31:49Z</time>
      </trkpt>
      <trkpt lat="46.34297" lon="6.5307">
        <ele>668.6</ele>
        <time>2021-04-03T13:31:50Z</time>
      </trkpt>
      <trkpt lat="46.34297" lon="6.53075">
        <ele>669</ele>
        <time>2021-04-03T13:31:51Z</time>
      </trkpt>
      <trkpt lat="46.34298" lon="6.53079">
        <ele>669.2</ele>
        <time>2021-04-03T13:31:52Z</time>
      </trkpt>
      <trkpt lat="46.34297" lon="6.53084">
        <ele>669.4</ele>
        <time>2021-04-03T13:31:53Z</time>
      </trkpt>
      <trkpt lat="46.34297" lon="6.53089">
        <ele>669.6</ele>
        <time>2021-04-03T13:31:54Z</time>
      </trkpt>
      <trkpt lat="46.34297" lon="6.53094">
        <ele>669.6</ele>
        <time>2021-04-03T13:31:55Z</time>
      </trkpt>
      <trkpt lat="46.34297" lon="6.53099">
        <ele>669.8</ele>
        <time>2021-04-03T13:31:56Z</time>
      </trkpt>
      <trkpt lat="46.34297" lon="6.53103">
        <ele>669.8</ele>
        <time>2021-04-03T13:31:57Z</time>
      </trkpt>
      <trkpt lat="46.34297" lon="6.53108">
        <ele>670.4</ele>
        <time>2021-04-03T13:31:58Z</time>
      </trkpt>
      <trkpt lat="46.34296" lon="6.53113">
        <ele>670.4</ele>
        <time>2021-04-03T13:31:59Z</time>
      </trkpt>
      <trkpt lat="46.34296" lon="6.53118">
        <ele>670.8</ele>
        <time>2021-04-03T13:32:00Z</time>
      </trkpt>
      <trkpt lat="46.34296" lon="6.53123">
        <ele>670.8</ele>
        <time>2021-04-03T13:32:01Z</time>
      </trkpt>
      <trkpt lat="46.34295" lon="6.53127">
        <ele>671.2</ele>
        <time>2021-04-03T13:32:02Z</time>
      </trkpt>
      <trkpt lat="46.34295" lon="6.53132">
        <ele>671.2</ele>
        <time>2021-04-03T13:32:03Z</time>
      </trkpt>
      <trkpt lat="46.34295" lon="6.53137">
        <ele>671.4</ele>
        <time>2021-04-03T13:32:04Z</time>
      </trkpt>
      <trkpt lat="46.34295" lon="6.53142">
        <ele>671.8</ele>
        <time>2021-04-03T13:32:05Z</time>
      </trkpt>
      <trkpt lat="46.34294" lon="6.53148">
        <ele>672.2</ele>
        <time>2021-04-03T13:32:06Z</time>
      </trkpt>
      <trkpt lat="46.34294" lon="6.53153">
        <ele>672.4</ele>
        <time>2021-04-03T13:32:07Z</time>
      </trkpt>
      <trkpt lat="46.34294" lon="6.53159">
        <ele>672.6</ele>
        <time>2021-04-03T13:32:08Z</time>
      </trkpt>
      <trkpt lat="46.34293" lon="6.53165">
        <ele>672.8</ele>
        <time>2021-04-03T13:32:09Z</time>
      </trkpt>
      <trkpt lat="46.34293" lon="6.53171">
        <ele>672.8</ele>
        <time>2021-04-03T13:32:10Z</time>
      </trkpt>
      <trkpt lat="46.34292" lon="6.53177">
        <ele>672.8</ele>
        <time>2021-04-03T13:32:11Z</time>
      </trkpt>
      <trkpt lat="46.34292" lon="6.53183">
        <ele>672.8</ele>
        <time>2021-04-03T13:32:12Z</time>
      </trkpt>
      <trkpt lat="46.34292" lon="6.53189">
        <ele>673</ele>
        <time>2021-04-03T13:32:13Z</time>
      </trkpt>
      <trkpt lat="46.34291" lon="6.53196">
        <ele>673</ele>
        <time>2021-04-03T13:32:14Z</time>
      </trkpt>
      <trkpt lat="46.34291" lon="6.53203">
        <ele>673</ele>
        <time>2021-04-03T13:32:15Z</time>
      </trkpt>
      <trkpt lat="46.3429" lon="6.53209">
        <ele>673</ele>
        <time>2021-04-03T13:32:16Z</time>
      </trkpt>
      <trkpt lat="46.34289" lon="6.53216">
        <ele>673.2</ele>
        <time>2021-04-03T13:32:17Z</time>
      </trkpt>
      <trkpt lat="46.34288" lon="6.53222">
        <ele>673.2</ele>
        <time>2021-04-03T13:32:18Z</time>
      </trkpt>
      <trkpt lat="46.34287" lon="6.53228">
        <ele>673.2</ele>
        <time>2021-04-03T13:32:19Z</time>
      </trkpt>
      <trkpt lat="46.34285" lon="6.53234">
        <ele>673.4</ele>
        <time>2021-04-03T13:32:20Z</time>
      </trkpt>
      <trkpt lat="46.34283" lon="6.53239">
        <ele>673.2</ele>
        <time>2021-04-03T13:32:21Z</time>
      </trkpt>
      <trkpt lat="46.34281" lon="6.53242">
        <ele>673.4</ele>
        <time>2021-04-03T13:32:22Z</time>
      </trkpt>
      <trkpt lat="46.3428" lon="6.53245">
        <ele>673.4</ele>
        <time>2021-04-03T13:32:23Z</time>
      </trkpt>
      <trkpt lat="46.34277" lon="6.5325">
        <ele>673.4</ele>
        <time>2021-04-03T13:32:24Z</time>
      </trkpt>
      <trkpt lat="46.34269" lon="6.5326">
        <ele>673.4</ele>
        <time>2021-04-03T13:32:25Z</time>
      </trkpt>
      <trkpt lat="46.34266" lon="6.53262">
        <ele>673.4</ele>
        <time>2021-04-03T13:32:26Z</time>
      </trkpt>
      <trkpt lat="46.34264" lon="6.53264">
        <ele>673.4</ele>
        <time>2021-04-03T13:32:27Z</time>
      </trkpt>
      <trkpt lat="46.34259" lon="6.53267">
        <ele>673.4</ele>
        <time>2021-04-03T13:32:28Z</time>
      </trkpt>
      <trkpt lat="46.34255" lon="6.5327">
        <ele>673.4</ele>
        <time>2021-04-03T13:32:29Z</time>
      </trkpt>
      <trkpt lat="46.34245" lon="6.53277">
        <ele>673.4</ele>
        <time>2021-04-03T13:32:30Z</time>
      </trkpt>
      <trkpt lat="46.3424" lon="6.5328">
        <ele>673.4</ele>
        <time>2021-04-03T13:32:31Z</time>
      </trkpt>
      <trkpt lat="46.34235" lon="6.53284">
        <ele>673.4</ele>
        <time>2021-04-03T13:32:32Z</time>
      </trkpt>
      <trkpt lat="46.3423" lon="6.53287">
        <ele>673.4</ele>
        <time>2021-04-03T13:32:33Z</time>
      </trkpt>
      <trkpt lat="46.34225" lon="6.53291">
        <ele>673.4</ele>
        <time>2021-04-03T13:32:34Z</time>
      </trkpt>
      <trkpt lat="46.3422" lon="6.53295">
        <ele>673.6</ele>
        <time>2021-04-03T13:32:35Z</time>
      </trkpt>
      <trkpt lat="46.34216" lon="6.53299">
        <ele>673.6</ele>
        <time>2021-04-03T13:32:36Z</time>
      </trkpt>
      <trkpt lat="46.34212" lon="6.53302">
        <ele>673.6</ele>
        <time>2021-04-03T13:32:37Z</time>
      </trkpt>
      <trkpt lat="46.34209" lon="6.53304">
        <ele>673.6</ele>
        <time>2021-04-03T13:32:38Z</time>
      </trkpt>
      <trkpt lat="46.34202" lon="6.53309">
        <ele>673.6</ele>
        <time>2021-04-03T13:32:39Z</time>
      </trkpt>
      <trkpt lat="46.34198" lon="6.53312">
        <ele>673.8</ele>
        <time>2021-04-03T13:32:40Z</time>
      </trkpt>
      <trkpt lat="46.34194" lon="6.53315">
        <ele>674</ele>
        <time>2021-04-03T13:32:41Z</time>
      </trkpt>
      <trkpt lat="46.3419" lon="6.53318">
        <ele>674.2</ele>
        <time>2021-04-03T13:32:42Z</time>
      </trkpt>
      <trkpt lat="46.34186" lon="6.53321">
        <ele>674</ele>
        <time>2021-04-03T13:32:43Z</time>
      </trkpt>
      <trkpt lat="46.34183" lon="6.53325">
        <ele>674</ele>
        <time>2021-04-03T13:32:44Z</time>
      </trkpt>
      <trkpt lat="46.34179" lon="6.53328">
        <ele>674.2</ele>
        <time>2021-04-03T13:32:45Z</time>
      </trkpt>
      <trkpt lat="46.34176" lon="6.53331">
        <ele>674.2</ele>
        <time>2021-04-03T13:32:46Z</time>
      </trkpt>
      <trkpt lat="46.34172" lon="6.53335">
        <ele>674.2</ele>
        <time>2021-04-03T13:32:47Z</time>
      </trkpt>
      <trkpt lat="46.34168" lon="6.53338">
        <ele>674.4</ele>
        <time>2021-04-03T13:32:48Z</time>
      </trkpt>
      <trkpt lat="46.34165" lon="6.53342">
        <ele>674.4</ele>
        <time>2021-04-03T13:32:49Z</time>
      </trkpt>
      <trkpt lat="46.34161" lon="6.53346">
        <ele>674.4</ele>
        <time>2021-04-03T13:32:50Z</time>
      </trkpt>
      <trkpt lat="46.34158" lon="6.53351">
        <ele>674.4</ele>
        <time>2021-04-03T13:32:51Z</time>
      </trkpt>
      <trkpt lat="46.34154" lon="6.53356">
        <ele>674.4</ele>
        <time>2021-04-03T13:32:52Z</time>
      </trkpt>
      <trkpt lat="46.34151" lon="6.53362">
        <ele>674.4</ele>
        <time>2021-04-03T13:32:53Z</time>
      </trkpt>
      <trkpt lat="46.34149" lon="6.53367">
        <ele>674.6</ele>
        <time>2021-04-03T13:32:54Z</time>
      </trkpt>
      <trkpt lat="46.34147" lon="6.53373">
        <ele>674.6</ele>
        <time>2021-04-03T13:32:55Z</time>
      </trkpt>
      <trkpt lat="46.34144" lon="6.53383">
        <ele>674.6</ele>
        <time>2021-04-03T13:32:56Z</time>
      </trkpt>
      <trkpt lat="46.34144" lon="6.53391">
        <ele>674.6</ele>
        <time>2021-04-03T13:32:57Z</time>
      </trkpt>
      <trkpt lat="46.34144" lon="6.53398">
        <ele>674.6</ele>
        <time>2021-04-03T13:32:58Z</time>
      </trkpt>
      <trkpt lat="46.34145" lon="6.53404">
        <ele>674.8</ele>
        <time>2021-04-03T13:32:59Z</time>
      </trkpt>
      <trkpt lat="46.34145" lon="6.53417">
        <ele>674.6</ele>
        <time>2021-04-03T13:33:00Z</time>
      </trkpt>
      <trkpt lat="46.34147" lon="6.53425">
        <ele>674.6</ele>
        <time>2021-04-03T13:33:01Z</time>
      </trkpt>
      <trkpt lat="46.34149" lon="6.53433">
        <ele>674.8</ele>
        <time>2021-04-03T13:33:02Z</time>
      </trkpt>
      <trkpt lat="46.34151" lon="6.53441">
        <ele>674.6</ele>
        <time>2021-04-03T13:33:03Z</time>
      </trkpt>
      <trkpt lat="46.34154" lon="6.53448">
        <ele>674.6</ele>
        <time>2021-04-03T13:33:04Z</time>
      </trkpt>
      <trkpt lat="46.34156" lon="6.53455">
        <ele>674.6</ele>
        <time>2021-04-03T13:33:05Z</time>
      </trkpt>
      <trkpt lat="46.34159" lon="6.53461">
        <ele>674.6</ele>
        <time>2021-04-03T13:33:06Z</time>
      </trkpt>
      <trkpt lat="46.34162" lon="6.53468">
        <ele>674.8</ele>
        <time>2021-04-03T13:33:07Z</time>
      </trkpt>
      <trkpt lat="46.34164" lon="6.53475">
        <ele>674.6</ele>
        <time>2021-04-03T13:33:08Z</time>
      </trkpt>
      <trkpt lat="46.34166" lon="6.53483">
        <ele>674.6</ele>
        <time>2021-04-03T13:33:09Z</time>
      </trkpt>
      <trkpt lat="46.34169" lon="6.53491">
        <ele>674.6</ele>
        <time>2021-04-03T13:33:10Z</time>
      </trkpt>
      <trkpt lat="46.3417" lon="6.53499">
        <ele>674.6</ele>
        <time>2021-04-03T13:33:11Z</time>
      </trkpt>
      <trkpt lat="46.34171" lon="6.53508">
        <ele>674.6</ele>
        <time>2021-04-03T13:33:12Z</time>
      </trkpt>
      <trkpt lat="46.34171" lon="6.53517">
        <ele>674.6</ele>
        <time>2021-04-03T13:33:13Z</time>
      </trkpt>
      <trkpt lat="46.34171" lon="6.53525">
        <ele>674.6</ele>
        <time>2021-04-03T13:33:14Z</time>
      </trkpt>
      <trkpt lat="46.3417" lon="6.53533">
        <ele>674.6</ele>
        <time>2021-04-03T13:33:15Z</time>
      </trkpt>
      <trkpt lat="46.34168" lon="6.53541">
        <ele>674.6</ele>
        <time>2021-04-03T13:33:16Z</time>
      </trkpt>
      <trkpt lat="46.34166" lon="6.53549">
        <ele>674.4</ele>
        <time>2021-04-03T13:33:17Z</time>
      </trkpt>
      <trkpt lat="46.34164" lon="6.53557">
        <ele>674.4</ele>
        <time>2021-04-03T13:33:18Z</time>
      </trkpt>
      <trkpt lat="46.34162" lon="6.53565">
        <ele>674.2</ele>
        <time>2021-04-03T13:33:19Z</time>
      </trkpt>
      <trkpt lat="46.34159" lon="6.53572">
        <ele>674.2</ele>
        <time>2021-04-03T13:33:20Z</time>
      </trkpt>
      <trkpt lat="46.34157" lon="6.5358">
        <ele>674.4</ele>
        <time>2021-04-03T13:33:21Z</time>
      </trkpt>
      <trkpt lat="46.34155" lon="6.53585">
        <ele>674.2</ele>
        <time>2021-04-03T13:33:22Z</time>
      </trkpt>
      <trkpt lat="46.34153" lon="6.5359">
        <ele>674.4</ele>
        <time>2021-04-03T13:33:23Z</time>
      </trkpt>
      <trkpt lat="46.34149" lon="6.53601">
        <ele>674.2</ele>
        <time>2021-04-03T13:33:24Z</time>
      </trkpt>
      <trkpt lat="46.34146" lon="6.53608">
        <ele>674.2</ele>
        <time>2021-04-03T13:33:25Z</time>
      </trkpt>
      <trkpt lat="46.34143" lon="6.53615">
        <ele>674.2</ele>
        <time>2021-04-03T13:33:26Z</time>
      </trkpt>
      <trkpt lat="46.3414" lon="6.53621">
        <ele>674</ele>
        <time>2021-04-03T13:33:27Z</time>
      </trkpt>
      <trkpt lat="46.34137" lon="6.53628">
        <ele>674</ele>
        <time>2021-04-03T13:33:28Z</time>
      </trkpt>
      <trkpt lat="46.34134" lon="6.53634">
        <ele>674.2</ele>
        <time>2021-04-03T13:33:29Z</time>
      </trkpt>
      <trkpt lat="46.34131" lon="6.53641">
        <ele>674.2</ele>
        <time>2021-04-03T13:33:30Z</time>
      </trkpt>
      <trkpt lat="46.34129" lon="6.53648">
        <ele>674</ele>
        <time>2021-04-03T13:33:31Z</time>
      </trkpt>
      <trkpt lat="46.34127" lon="6.53657">
        <ele>674</ele>
        <time>2021-04-03T13:33:32Z</time>
      </trkpt>
      <trkpt lat="46.34125" lon="6.53665">
        <ele>674</ele>
        <time>2021-04-03T13:33:33Z</time>
      </trkpt>
      <trkpt lat="46.34125" lon="6.53673">
        <ele>674.2</ele>
        <time>2021-04-03T13:33:34Z</time>
      </trkpt>
      <trkpt lat="46.34126" lon="6.53681">
        <ele>674.2</ele>
        <time>2021-04-03T13:33:35Z</time>
      </trkpt>
      <trkpt lat="46.34126" lon="6.53689">
        <ele>674.2</ele>
        <time>2021-04-03T13:33:36Z</time>
      </trkpt>
      <trkpt lat="46.34127" lon="6.53697">
        <ele>674</ele>
        <time>2021-04-03T13:33:37Z</time>
      </trkpt>
      <trkpt lat="46.34128" lon="6.53705">
        <ele>674.2</ele>
        <time>2021-04-03T13:33:38Z</time>
      </trkpt>
      <trkpt lat="46.34129" lon="6.53714">
        <ele>674.2</ele>
        <time>2021-04-03T13:33:39Z</time>
      </trkpt>
      <trkpt lat="46.3413" lon="6.53722">
        <ele>674.2</ele>
        <time>2021-04-03T13:33:40Z</time>
      </trkpt>
      <trkpt lat="46.34131" lon="6.53731">
        <ele>674.2</ele>
        <time>2021-04-03T13:33:41Z</time>
      </trkpt>
      <trkpt lat="46.34132" lon="6.5374">
        <ele>674</ele>
        <time>2021-04-03T13:33:42Z</time>
      </trkpt>
      <trkpt lat="46.34132" lon="6.53749">
        <ele>674.2</ele>
        <time>2021-04-03T13:33:43Z</time>
      </trkpt>
      <trkpt lat="46.34132" lon="6.53758">
        <ele>674.2</ele>
        <time>2021-04-03T13:33:44Z</time>
      </trkpt>
      <trkpt lat="46.34132" lon="6.53767">
        <ele>674.2</ele>
        <time>2021-04-03T13:33:45Z</time>
      </trkpt>
      <trkpt lat="46.34131" lon="6.53776">
        <ele>674.4</ele>
        <time>2021-04-03T13:33:46Z</time>
      </trkpt>
      <trkpt lat="46.3413" lon="6.53785">
        <ele>674.4</ele>
        <time>2021-04-03T13:33:47Z</time>
      </trkpt>
      <trkpt lat="46.3413" lon="6.53793">
        <ele>674.2</ele>
        <time>2021-04-03T13:33:48Z</time>
      </trkpt>
      <trkpt lat="46.34129" lon="6.53802">
        <ele>674.2</ele>
        <time>2021-04-03T13:33:49Z</time>
      </trkpt>
      <trkpt lat="46.34128" lon="6.53811">
        <ele>674.2</ele>
        <time>2021-04-03T13:33:50Z</time>
      </trkpt>
      <trkpt lat="46.34127" lon="6.5382">
        <ele>674.2</ele>
        <time>2021-04-03T13:33:51Z</time>
      </trkpt>
      <trkpt lat="46.34126" lon="6.53829">
        <ele>674.2</ele>
        <time>2021-04-03T13:33:52Z</time>
      </trkpt>
      <trkpt lat="46.34125" lon="6.53837">
        <ele>674</ele>
        <time>2021-04-03T13:33:53Z</time>
      </trkpt>
      <trkpt lat="46.34123" lon="6.53846">
        <ele>674</ele>
        <time>2021-04-03T13:33:54Z</time>
      </trkpt>
      <trkpt lat="46.34122" lon="6.53854">
        <ele>673.4</ele>
        <time>2021-04-03T13:33:55Z</time>
      </trkpt>
      <trkpt lat="46.3412" lon="6.53863">
        <ele>673</ele>
        <time>2021-04-03T13:33:56Z</time>
      </trkpt>
      <trkpt lat="46.34118" lon="6.53871">
        <ele>673</ele>
        <time>2021-04-03T13:33:57Z</time>
      </trkpt>
      <trkpt lat="46.34116" lon="6.53879">
        <ele>672.8</ele>
        <time>2021-04-03T13:33:58Z</time>
      </trkpt>
      <trkpt lat="46.34114" lon="6.53887">
        <ele>672.8</ele>
        <time>2021-04-03T13:33:59Z</time>
      </trkpt>
      <trkpt lat="46.34112" lon="6.53895">
        <ele>672.6</ele>
        <time>2021-04-03T13:34:00Z</time>
      </trkpt>
      <trkpt lat="46.34111" lon="6.53903">
        <ele>672.6</ele>
        <time>2021-04-03T13:34:01Z</time>
      </trkpt>
      <trkpt lat="46.34109" lon="6.53912">
        <ele>672.4</ele>
        <time>2021-04-03T13:34:02Z</time>
      </trkpt>
      <trkpt lat="46.34108" lon="6.5392">
        <ele>672.6</ele>
        <time>2021-04-03T13:34:03Z</time>
      </trkpt>
      <trkpt lat="46.34108" lon="6.53927">
        <ele>672.4</ele>
        <time>2021-04-03T13:34:04Z</time>
      </trkpt>
      <trkpt lat="46.34107" lon="6.53935">
        <ele>672.6</ele>
        <time>2021-04-03T13:34:05Z</time>
      </trkpt>
      <trkpt lat="46.34106" lon="6.53943">
        <ele>672.4</ele>
        <time>2021-04-03T13:34:06Z</time>
      </trkpt>
      <trkpt lat="46.34106" lon="6.53951">
        <ele>672.6</ele>
        <time>2021-04-03T13:34:07Z</time>
      </trkpt>
      <trkpt lat="46.34105" lon="6.53959">
        <ele>672.6</ele>
        <time>2021-04-03T13:34:08Z</time>
      </trkpt>
      <trkpt lat="46.34104" lon="6.53967">
        <ele>672.6</ele>
        <time>2021-04-03T13:34:09Z</time>
      </trkpt>
      <trkpt lat="46.34105" lon="6.53976">
        <ele>672.8</ele>
        <time>2021-04-03T13:34:10Z</time>
      </trkpt>
      <trkpt lat="46.34106" lon="6.53985">
        <ele>672.8</ele>
        <time>2021-04-03T13:34:11Z</time>
      </trkpt>
      <trkpt lat="46.34108" lon="6.53993">
        <ele>673.2</ele>
        <time>2021-04-03T13:34:12Z</time>
      </trkpt>
      <trkpt lat="46.34109" lon="6.54001">
        <ele>673.4</ele>
        <time>2021-04-03T13:34:13Z</time>
      </trkpt>
      <trkpt lat="46.34111" lon="6.5401">
        <ele>673.6</ele>
        <time>2021-04-03T13:34:14Z</time>
      </trkpt>
      <trkpt lat="46.34113" lon="6.54017">
        <ele>673.6</ele>
        <time>2021-04-03T13:34:15Z</time>
      </trkpt>
      <trkpt lat="46.34115" lon="6.54026">
        <ele>673.6</ele>
        <time>2021-04-03T13:34:16Z</time>
      </trkpt>
      <trkpt lat="46.34117" lon="6.54034">
        <ele>673.8</ele>
        <time>2021-04-03T13:34:17Z</time>
      </trkpt>
      <trkpt lat="46.34119" lon="6.54042">
        <ele>673.8</ele>
        <time>2021-04-03T13:34:18Z</time>
      </trkpt>
      <trkpt lat="46.34122" lon="6.5405">
        <ele>673.8</ele>
        <time>2021-04-03T13:34:19Z</time>
      </trkpt>
      <trkpt lat="46.34125" lon="6.54059">
        <ele>673.8</ele>
        <time>2021-04-03T13:34:20Z</time>
      </trkpt>
      <trkpt lat="46.34128" lon="6.54067">
        <ele>674</ele>
        <time>2021-04-03T13:34:21Z</time>
      </trkpt>
      <trkpt lat="46.34131" lon="6.54076">
        <ele>673.8</ele>
        <time>2021-04-03T13:34:22Z</time>
      </trkpt>
      <trkpt lat="46.34134" lon="6.54085">
        <ele>673.8</ele>
        <time>2021-04-03T13:34:23Z</time>
      </trkpt>
      <trkpt lat="46.34137" lon="6.54094">
        <ele>673.8</ele>
        <time>2021-04-03T13:34:24Z</time>
      </trkpt>
      <trkpt lat="46.34139" lon="6.54104">
        <ele>673.8</ele>
        <time>2021-04-03T13:34:25Z</time>
      </trkpt>
      <trkpt lat="46.34139" lon="6.54109">
        <ele>673.8</ele>
        <time>2021-04-03T13:34:26Z</time>
      </trkpt>
      <trkpt lat="46.3414" lon="6.54113">
        <ele>673.8</ele>
        <time>2021-04-03T13:34:27Z</time>
      </trkpt>
      <trkpt lat="46.34138" lon="6.54129">
        <ele>673.6</ele>
        <time>2021-04-03T13:34:28Z</time>
      </trkpt>
      <trkpt lat="46.34135" lon="6.54136">
        <ele>673.8</ele>
        <time>2021-04-03T13:34:29Z</time>
      </trkpt>
      <trkpt lat="46.3413" lon="6.54148">
        <ele>673.6</ele>
        <time>2021-04-03T13:34:30Z</time>
      </trkpt>
      <trkpt lat="46.34126" lon="6.54156">
        <ele>673.6</ele>
        <time>2021-04-03T13:34:31Z</time>
      </trkpt>
      <trkpt lat="46.34121" lon="6.54164">
        <ele>673.6</ele>
        <time>2021-04-03T13:34:32Z</time>
      </trkpt>
      <trkpt lat="46.34116" lon="6.54173">
        <ele>673.6</ele>
        <time>2021-04-03T13:34:33Z</time>
      </trkpt>
      <trkpt lat="46.34112" lon="6.54182">
        <ele>673.4</ele>
        <time>2021-04-03T13:34:34Z</time>
      </trkpt>
      <trkpt lat="46.34109" lon="6.54192">
        <ele>673.6</ele>
        <time>2021-04-03T13:34:35Z</time>
      </trkpt>
      <trkpt lat="46.34106" lon="6.54202">
        <ele>673.6</ele>
        <time>2021-04-03T13:34:36Z</time>
      </trkpt>
      <trkpt lat="46.34103" lon="6.54212">
        <ele>673.6</ele>
        <time>2021-04-03T13:34:37Z</time>
      </trkpt>
      <trkpt lat="46.34101" lon="6.54222">
        <ele>673.6</ele>
        <time>2021-04-03T13:34:38Z</time>
      </trkpt>
      <trkpt lat="46.34098" lon="6.54232">
        <ele>673.6</ele>
        <time>2021-04-03T13:34:39Z</time>
      </trkpt>
      <trkpt lat="46.34096" lon="6.54242">
        <ele>673.6</ele>
        <time>2021-04-03T13:34:40Z</time>
      </trkpt>
      <trkpt lat="46.34093" lon="6.54252">
        <ele>673.6</ele>
        <time>2021-04-03T13:34:41Z</time>
      </trkpt>
      <trkpt lat="46.3409" lon="6.54262">
        <ele>673.4</ele>
        <time>2021-04-03T13:34:42Z</time>
      </trkpt>
      <trkpt lat="46.34087" lon="6.54271">
        <ele>673</ele>
        <time>2021-04-03T13:34:43Z</time>
      </trkpt>
      <trkpt lat="46.34084" lon="6.5428">
        <ele>672.8</ele>
        <time>2021-04-03T13:34:44Z</time>
      </trkpt>
      <trkpt lat="46.3408" lon="6.54289">
        <ele>672.2</ele>
        <time>2021-04-03T13:34:45Z</time>
      </trkpt>
      <trkpt lat="46.34076" lon="6.54297">
        <ele>671.8</ele>
        <time>2021-04-03T13:34:46Z</time>
      </trkpt>
      <trkpt lat="46.34072" lon="6.54305">
        <ele>671.4</ele>
        <time>2021-04-03T13:34:47Z</time>
      </trkpt>
      <trkpt lat="46.34069" lon="6.54314">
        <ele>671.2</ele>
        <time>2021-04-03T13:34:48Z</time>
      </trkpt>
      <trkpt lat="46.34066" lon="6.54322">
        <ele>671</ele>
        <time>2021-04-03T13:34:49Z</time>
      </trkpt>
      <trkpt lat="46.34064" lon="6.5433">
        <ele>671</ele>
        <time>2021-04-03T13:34:50Z</time>
      </trkpt>
      <trkpt lat="46.34062" lon="6.54339">
        <ele>671</ele>
        <time>2021-04-03T13:34:51Z</time>
      </trkpt>
      <trkpt lat="46.3406" lon="6.54347">
        <ele>671</ele>
        <time>2021-04-03T13:34:52Z</time>
      </trkpt>
      <trkpt lat="46.34057" lon="6.54355">
        <ele>670.8</ele>
        <time>2021-04-03T13:34:53Z</time>
      </trkpt>
      <trkpt lat="46.34054" lon="6.54363">
        <ele>671</ele>
        <time>2021-04-03T13:34:54Z</time>
      </trkpt>
      <trkpt lat="46.34051" lon="6.54371">
        <ele>670.8</ele>
        <time>2021-04-03T13:34:55Z</time>
      </trkpt>
      <trkpt lat="46.34049" lon="6.54379">
        <ele>670.8</ele>
        <time>2021-04-03T13:34:56Z</time>
      </trkpt>
      <trkpt lat="46.34045" lon="6.54387">
        <ele>670.6</ele>
        <time>2021-04-03T13:34:57Z</time>
      </trkpt>
      <trkpt lat="46.34042" lon="6.54394">
        <ele>670.6</ele>
        <time>2021-04-03T13:34:58Z</time>
      </trkpt>
      <trkpt lat="46.34039" lon="6.54402">
        <ele>670.6</ele>
        <time>2021-04-03T13:34:59Z</time>
      </trkpt>
      <trkpt lat="46.34035" lon="6.5441">
        <ele>670.6</ele>
        <time>2021-04-03T13:35:00Z</time>
      </trkpt>
      <trkpt lat="46.34032" lon="6.54418">
        <ele>670.6</ele>
        <time>2021-04-03T13:35:01Z</time>
      </trkpt>
      <trkpt lat="46.3403" lon="6.54425">
        <ele>670.6</ele>
        <time>2021-04-03T13:35:02Z</time>
      </trkpt>
      <trkpt lat="46.34027" lon="6.54433">
        <ele>670.2</ele>
        <time>2021-04-03T13:35:03Z</time>
      </trkpt>
      <trkpt lat="46.34025" lon="6.54441">
        <ele>670.2</ele>
        <time>2021-04-03T13:35:04Z</time>
      </trkpt>
      <trkpt lat="46.34022" lon="6.54449">
        <ele>670</ele>
        <time>2021-04-03T13:35:05Z</time>
      </trkpt>
      <trkpt lat="46.3402" lon="6.54457">
        <ele>669.8</ele>
        <time>2021-04-03T13:35:06Z</time>
      </trkpt>
      <trkpt lat="46.34017" lon="6.54465">
        <ele>669.8</ele>
        <time>2021-04-03T13:35:07Z</time>
      </trkpt>
      <trkpt lat="46.34015" lon="6.54473">
        <ele>669.6</ele>
        <time>2021-04-03T13:35:08Z</time>
      </trkpt>
      <trkpt lat="46.34014" lon="6.54482">
        <ele>669.6</ele>
        <time>2021-04-03T13:35:09Z</time>
      </trkpt>
      <trkpt lat="46.34012" lon="6.54491">
        <ele>669.6</ele>
        <time>2021-04-03T13:35:10Z</time>
      </trkpt>
      <trkpt lat="46.3401" lon="6.545">
        <ele>669.6</ele>
        <time>2021-04-03T13:35:11Z</time>
      </trkpt>
      <trkpt lat="46.34009" lon="6.54509">
        <ele>669.4</ele>
        <time>2021-04-03T13:35:12Z</time>
      </trkpt>
      <trkpt lat="46.34007" lon="6.54517">
        <ele>669.4</ele>
        <time>2021-04-03T13:35:13Z</time>
      </trkpt>
      <trkpt lat="46.34005" lon="6.54526">
        <ele>669.4</ele>
        <time>2021-04-03T13:35:14Z</time>
      </trkpt>
      <trkpt lat="46.34004" lon="6.54534">
        <ele>669.4</ele>
        <time>2021-04-03T13:35:15Z</time>
      </trkpt>
      <trkpt lat="46.34001" lon="6.54543">
        <ele>669</ele>
        <time>2021-04-03T13:35:16Z</time>
      </trkpt>
      <trkpt lat="46.33998" lon="6.54551">
        <ele>669</ele>
        <time>2021-04-03T13:35:17Z</time>
      </trkpt>
      <trkpt lat="46.33993" lon="6.54558">
        <ele>669</ele>
        <time>2021-04-03T13:35:18Z</time>
      </trkpt>
      <trkpt lat="46.33988" lon="6.54564">
        <ele>668.8</ele>
        <time>2021-04-03T13:35:19Z</time>
      </trkpt>
      <trkpt lat="46.33983" lon="6.5457">
        <ele>668.8</ele>
        <time>2021-04-03T13:35:20Z</time>
      </trkpt>
      <trkpt lat="46.33977" lon="6.54575">
        <ele>668.8</ele>
        <time>2021-04-03T13:35:21Z</time>
      </trkpt>
      <trkpt lat="46.33972" lon="6.54581">
        <ele>668.8</ele>
        <time>2021-04-03T13:35:22Z</time>
      </trkpt>
      <trkpt lat="46.33966" lon="6.54586">
        <ele>669.2</ele>
        <time>2021-04-03T13:35:23Z</time>
      </trkpt>
      <trkpt lat="46.3396" lon="6.54592">
        <ele>669.2</ele>
        <time>2021-04-03T13:35:24Z</time>
      </trkpt>
      <trkpt lat="46.33955" lon="6.54598">
        <ele>669.2</ele>
        <time>2021-04-03T13:35:25Z</time>
      </trkpt>
      <trkpt lat="46.33949" lon="6.54603">
        <ele>669.2</ele>
        <time>2021-04-03T13:35:26Z</time>
      </trkpt>
      <trkpt lat="46.33944" lon="6.54608">
        <ele>669.2</ele>
        <time>2021-04-03T13:35:27Z</time>
      </trkpt>
      <trkpt lat="46.33939" lon="6.54613">
        <ele>669.2</ele>
        <time>2021-04-03T13:35:28Z</time>
      </trkpt>
      <trkpt lat="46.33934" lon="6.54618">
        <ele>669.2</ele>
        <time>2021-04-03T13:35:29Z</time>
      </trkpt>
      <trkpt lat="46.33928" lon="6.54624">
        <ele>669.2</ele>
        <time>2021-04-03T13:35:30Z</time>
      </trkpt>
      <trkpt lat="46.33924" lon="6.5463">
        <ele>669.4</ele>
        <time>2021-04-03T13:35:31Z</time>
      </trkpt>
      <trkpt lat="46.33919" lon="6.54636">
        <ele>669.4</ele>
        <time>2021-04-03T13:35:32Z</time>
      </trkpt>
      <trkpt lat="46.33914" lon="6.54642">
        <ele>669.4</ele>
        <time>2021-04-03T13:35:33Z</time>
      </trkpt>
      <trkpt lat="46.3391" lon="6.5465">
        <ele>669.4</ele>
        <time>2021-04-03T13:35:34Z</time>
      </trkpt>
      <trkpt lat="46.33906" lon="6.54658">
        <ele>669.6</ele>
        <time>2021-04-03T13:35:35Z</time>
      </trkpt>
      <trkpt lat="46.33902" lon="6.54666">
        <ele>669.6</ele>
        <time>2021-04-03T13:35:36Z</time>
      </trkpt>
      <trkpt lat="46.33899" lon="6.54676">
        <ele>669.6</ele>
        <time>2021-04-03T13:35:37Z</time>
      </trkpt>
      <trkpt lat="46.33897" lon="6.54685">
        <ele>669.6</ele>
        <time>2021-04-03T13:35:38Z</time>
      </trkpt>
      <trkpt lat="46.33894" lon="6.54695">
        <ele>669.8</ele>
        <time>2021-04-03T13:35:39Z</time>
      </trkpt>
      <trkpt lat="46.33892" lon="6.54705">
        <ele>670</ele>
        <time>2021-04-03T13:35:40Z</time>
      </trkpt>
      <trkpt lat="46.33891" lon="6.54715">
        <ele>669.8</ele>
        <time>2021-04-03T13:35:41Z</time>
      </trkpt>
      <trkpt lat="46.3389" lon="6.54724">
        <ele>670.2</ele>
        <time>2021-04-03T13:35:42Z</time>
      </trkpt>
      <trkpt lat="46.33889" lon="6.54735">
        <ele>670.2</ele>
        <time>2021-04-03T13:35:43Z</time>
      </trkpt>
      <trkpt lat="46.33889" lon="6.54745">
        <ele>670.4</ele>
        <time>2021-04-03T13:35:44Z</time>
      </trkpt>
      <trkpt lat="46.33889" lon="6.54757">
        <ele>670.6</ele>
        <time>2021-04-03T13:35:45Z</time>
      </trkpt>
      <trkpt lat="46.33889" lon="6.54768">
        <ele>670.8</ele>
        <time>2021-04-03T13:35:46Z</time>
      </trkpt>
      <trkpt lat="46.3389" lon="6.54779">
        <ele>670.8</ele>
        <time>2021-04-03T13:35:47Z</time>
      </trkpt>
      <trkpt lat="46.33891" lon="6.54791">
        <ele>670.8</ele>
        <time>2021-04-03T13:35:48Z</time>
      </trkpt>
      <trkpt lat="46.33893" lon="6.54802">
        <ele>671</ele>
        <time>2021-04-03T13:35:49Z</time>
      </trkpt>
      <trkpt lat="46.33894" lon="6.54814">
        <ele>671.2</ele>
        <time>2021-04-03T13:35:50Z</time>
      </trkpt>
      <trkpt lat="46.33899" lon="6.54836">
        <ele>671.2</ele>
        <time>2021-04-03T13:35:52Z</time>
      </trkpt>
      <trkpt lat="46.33901" lon="6.54847">
        <ele>671.2</ele>
        <time>2021-04-03T13:35:53Z</time>
      </trkpt>
      <trkpt lat="46.33904" lon="6.54857">
        <ele>671</ele>
        <time>2021-04-03T13:35:54Z</time>
      </trkpt>
      <trkpt lat="46.33906" lon="6.54868">
        <ele>671</ele>
        <time>2021-04-03T13:35:55Z</time>
      </trkpt>
      <trkpt lat="46.33911" lon="6.54889">
        <ele>671.2</ele>
        <time>2021-04-03T13:35:57Z</time>
      </trkpt>
      <trkpt lat="46.33915" lon="6.54908">
        <ele>671.2</ele>
        <time>2021-04-03T13:35:59Z</time>
      </trkpt>
      <trkpt lat="46.33917" lon="6.54918">
        <ele>671.2</ele>
        <time>2021-04-03T13:36:00Z</time>
      </trkpt>
      <trkpt lat="46.33918" lon="6.54938">
        <ele>671.2</ele>
        <time>2021-04-03T13:36:02Z</time>
      </trkpt>
      <trkpt lat="46.33915" lon="6.54955">
        <ele>671.2</ele>
        <time>2021-04-03T13:36:04Z</time>
      </trkpt>
      <trkpt lat="46.33911" lon="6.54962">
        <ele>671.4</ele>
        <time>2021-04-03T13:36:05Z</time>
      </trkpt>
      <trkpt lat="46.33905" lon="6.54967">
        <ele>671.4</ele>
        <time>2021-04-03T13:36:06Z</time>
      </trkpt>
      <trkpt lat="46.33898" lon="6.54968">
        <ele>671.2</ele>
        <time>2021-04-03T13:36:07Z</time>
      </trkpt>
      <trkpt lat="46.33893" lon="6.54969">
        <ele>671.2</ele>
        <time>2021-04-03T13:36:08Z</time>
      </trkpt>
      <trkpt lat="46.3389" lon="6.54969">
        <ele>671.2</ele>
        <time>2021-04-03T13:36:09Z</time>
      </trkpt>
      <trkpt lat="46.33887" lon="6.54969">
        <ele>671.2</ele>
        <time>2021-04-03T13:36:10Z</time>
      </trkpt>
      <trkpt lat="46.33877" lon="6.5497">
        <ele>671.2</ele>
        <time>2021-04-03T13:36:11Z</time>
      </trkpt>
      <trkpt lat="46.33872" lon="6.54971">
        <ele>671.4</ele>
        <time>2021-04-03T13:36:12Z</time>
      </trkpt>
      <trkpt lat="46.33866" lon="6.54972">
        <ele>671.6</ele>
        <time>2021-04-03T13:36:13Z</time>
      </trkpt>
      <trkpt lat="46.3386" lon="6.54974">
        <ele>671.6</ele>
        <time>2021-04-03T13:36:14Z</time>
      </trkpt>
      <trkpt lat="46.33854" lon="6.54977">
        <ele>671.6</ele>
        <time>2021-04-03T13:36:15Z</time>
      </trkpt>
      <trkpt lat="46.33848" lon="6.5498">
        <ele>671.8</ele>
        <time>2021-04-03T13:36:16Z</time>
      </trkpt>
      <trkpt lat="46.33842" lon="6.54983">
        <ele>671.8</ele>
        <time>2021-04-03T13:36:17Z</time>
      </trkpt>
      <trkpt lat="46.33836" lon="6.54986">
        <ele>672.2</ele>
        <time>2021-04-03T13:36:18Z</time>
      </trkpt>
      <trkpt lat="46.3383" lon="6.5499">
        <ele>672.8</ele>
        <time>2021-04-03T13:36:19Z</time>
      </trkpt>
      <trkpt lat="46.33824" lon="6.54995">
        <ele>672.8</ele>
        <time>2021-04-03T13:36:20Z</time>
      </trkpt>
      <trkpt lat="46.33819" lon="6.55">
        <ele>673.2</ele>
        <time>2021-04-03T13:36:21Z</time>
      </trkpt>
      <trkpt lat="46.33814" lon="6.55005">
        <ele>673.4</ele>
        <time>2021-04-03T13:36:22Z</time>
      </trkpt>
      <trkpt lat="46.3381" lon="6.5501">
        <ele>673.4</ele>
        <time>2021-04-03T13:36:23Z</time>
      </trkpt>
      <trkpt lat="46.33805" lon="6.55016">
        <ele>673.4</ele>
        <time>2021-04-03T13:36:24Z</time>
      </trkpt>
      <trkpt lat="46.33801" lon="6.55023">
        <ele>673.6</ele>
        <time>2021-04-03T13:36:25Z</time>
      </trkpt>
      <trkpt lat="46.33798" lon="6.5503">
        <ele>673.6</ele>
        <time>2021-04-03T13:36:26Z</time>
      </trkpt>
      <trkpt lat="46.33795" lon="6.55037">
        <ele>673.8</ele>
        <time>2021-04-03T13:36:27Z</time>
      </trkpt>
      <trkpt lat="46.33793" lon="6.55046">
        <ele>673.8</ele>
        <time>2021-04-03T13:36:28Z</time>
      </trkpt>
      <trkpt lat="46.33791" lon="6.55055">
        <ele>674</ele>
        <time>2021-04-03T13:36:29Z</time>
      </trkpt>
      <trkpt lat="46.33788" lon="6.55063">
        <ele>674</ele>
        <time>2021-04-03T13:36:30Z</time>
      </trkpt>
      <trkpt lat="46.33785" lon="6.55071">
        <ele>674</ele>
        <time>2021-04-03T13:36:31Z</time>
      </trkpt>
      <trkpt lat="46.33783" lon="6.55079">
        <ele>674.2</ele>
        <time>2021-04-03T13:36:32Z</time>
      </trkpt>
      <trkpt lat="46.3378" lon="6.55087">
        <ele>674.2</ele>
        <time>2021-04-03T13:36:33Z</time>
      </trkpt>
      <trkpt lat="46.33777" lon="6.55095">
        <ele>674.2</ele>
        <time>2021-04-03T13:36:34Z</time>
      </trkpt>
      <trkpt lat="46.33774" lon="6.55102">
        <ele>674.2</ele>
        <time>2021-04-03T13:36:35Z</time>
      </trkpt>
      <trkpt lat="46.33771" lon="6.55109">
        <ele>674.4</ele>
        <time>2021-04-03T13:36:36Z</time>
      </trkpt>
      <trkpt lat="46.33767" lon="6.55116">
        <ele>674.4</ele>
        <time>2021-04-03T13:36:37Z</time>
      </trkpt>
      <trkpt lat="46.33763" lon="6.55121">
        <ele>674.4</ele>
        <time>2021-04-03T13:36:38Z</time>
      </trkpt>
      <trkpt lat="46.33759" lon="6.55127">
        <ele>674.6</ele>
        <time>2021-04-03T13:36:39Z</time>
      </trkpt>
      <trkpt lat="46.33754" lon="6.55131">
        <ele>674.6</ele>
        <time>2021-04-03T13:36:40Z</time>
      </trkpt>
      <trkpt lat="46.3375" lon="6.55136">
        <ele>674.6</ele>
        <time>2021-04-03T13:36:41Z</time>
      </trkpt>
      <trkpt lat="46.33745" lon="6.55141">
        <ele>674.6</ele>
        <time>2021-04-03T13:36:42Z</time>
      </trkpt>
      <trkpt lat="46.3374" lon="6.55145">
        <ele>674.6</ele>
        <time>2021-04-03T13:36:43Z</time>
      </trkpt>
      <trkpt lat="46.33735" lon="6.5515">
        <ele>674.8</ele>
        <time>2021-04-03T13:36:44Z</time>
      </trkpt>
      <trkpt lat="46.33731" lon="6.55156">
        <ele>674.8</ele>
        <time>2021-04-03T13:36:45Z</time>
      </trkpt>
      <trkpt lat="46.33726" lon="6.55163">
        <ele>674.8</ele>
        <time>2021-04-03T13:36:46Z</time>
      </trkpt>
      <trkpt lat="46.33722" lon="6.55171">
        <ele>674.8</ele>
        <time>2021-04-03T13:36:47Z</time>
      </trkpt>
      <trkpt lat="46.33718" lon="6.55179">
        <ele>675</ele>
        <time>2021-04-03T13:36:48Z</time>
      </trkpt>
      <trkpt lat="46.33715" lon="6.55187">
        <ele>674.8</ele>
        <time>2021-04-03T13:36:49Z</time>
      </trkpt>
      <trkpt lat="46.33712" lon="6.55196">
        <ele>675</ele>
        <time>2021-04-03T13:36:50Z</time>
      </trkpt>
      <trkpt lat="46.33709" lon="6.55205">
        <ele>675</ele>
        <time>2021-04-03T13:36:51Z</time>
      </trkpt>
      <trkpt lat="46.33706" lon="6.55214">
        <ele>675</ele>
        <time>2021-04-03T13:36:52Z</time>
      </trkpt>
      <trkpt lat="46.33703" lon="6.55222">
        <ele>675</ele>
        <time>2021-04-03T13:36:53Z</time>
      </trkpt>
      <trkpt lat="46.33699" lon="6.5523">
        <ele>675</ele>
        <time>2021-04-03T13:36:54Z</time>
      </trkpt>
      <trkpt lat="46.33695" lon="6.55236">
        <ele>675</ele>
        <time>2021-04-03T13:36:55Z</time>
      </trkpt>
      <trkpt lat="46.33691" lon="6.55242">
        <ele>675</ele>
        <time>2021-04-03T13:36:56Z</time>
      </trkpt>
      <trkpt lat="46.33686" lon="6.55247">
        <ele>675</ele>
        <time>2021-04-03T13:36:57Z</time>
      </trkpt>
      <trkpt lat="46.33681" lon="6.55253">
        <ele>675</ele>
        <time>2021-04-03T13:36:58Z</time>
      </trkpt>
      <trkpt lat="46.33677" lon="6.55259">
        <ele>675</ele>
        <time>2021-04-03T13:36:59Z</time>
      </trkpt>
      <trkpt lat="46.33673" lon="6.55265">
        <ele>675</ele>
        <time>2021-04-03T13:37:00Z</time>
      </trkpt>
      <trkpt lat="46.33669" lon="6.55273">
        <ele>675</ele>
        <time>2021-04-03T13:37:01Z</time>
      </trkpt>
      <trkpt lat="46.33666" lon="6.55281">
        <ele>675</ele>
        <time>2021-04-03T13:37:02Z</time>
      </trkpt>
      <trkpt lat="46.33663" lon="6.55289">
        <ele>675</ele>
        <time>2021-04-03T13:37:03Z</time>
      </trkpt>
      <trkpt lat="46.33661" lon="6.55297">
        <ele>675</ele>
        <time>2021-04-03T13:37:04Z</time>
      </trkpt>
      <trkpt lat="46.33659" lon="6.55305">
        <ele>675.2</ele>
        <time>2021-04-03T13:37:05Z</time>
      </trkpt>
      <trkpt lat="46.33657" lon="6.55314">
        <ele>675</ele>
        <time>2021-04-03T13:37:06Z</time>
      </trkpt>
      <trkpt lat="46.33656" lon="6.55322">
        <ele>675</ele>
        <time>2021-04-03T13:37:07Z</time>
      </trkpt>
      <trkpt lat="46.33655" lon="6.5533">
        <ele>675.2</ele>
        <time>2021-04-03T13:37:08Z</time>
      </trkpt>
      <trkpt lat="46.33653" lon="6.55339">
        <ele>675.8</ele>
        <time>2021-04-03T13:37:09Z</time>
      </trkpt>
      <trkpt lat="46.33651" lon="6.55347">
        <ele>676</ele>
        <time>2021-04-03T13:37:10Z</time>
      </trkpt>
      <trkpt lat="46.33649" lon="6.55355">
        <ele>676.4</ele>
        <time>2021-04-03T13:37:11Z</time>
      </trkpt>
      <trkpt lat="46.33647" lon="6.55363">
        <ele>676.4</ele>
        <time>2021-04-03T13:37:12Z</time>
      </trkpt>
      <trkpt lat="46.33645" lon="6.5537">
        <ele>676.6</ele>
        <time>2021-04-03T13:37:13Z</time>
      </trkpt>
      <trkpt lat="46.33643" lon="6.55378">
        <ele>676.8</ele>
        <time>2021-04-03T13:37:14Z</time>
      </trkpt>
      <trkpt lat="46.33641" lon="6.55386">
        <ele>677</ele>
        <time>2021-04-03T13:37:15Z</time>
      </trkpt>
      <trkpt lat="46.3364" lon="6.55394">
        <ele>677.4</ele>
        <time>2021-04-03T13:37:16Z</time>
      </trkpt>
      <trkpt lat="46.33639" lon="6.55402">
        <ele>677.4</ele>
        <time>2021-04-03T13:37:17Z</time>
      </trkpt>
      <trkpt lat="46.33638" lon="6.55411">
        <ele>677.8</ele>
        <time>2021-04-03T13:37:18Z</time>
      </trkpt>
      <trkpt lat="46.33638" lon="6.5542">
        <ele>677.6</ele>
        <time>2021-04-03T13:37:19Z</time>
      </trkpt>
      <trkpt lat="46.33637" lon="6.55428">
        <ele>677.8</ele>
        <time>2021-04-03T13:37:20Z</time>
      </trkpt>
      <trkpt lat="46.33637" lon="6.55437">
        <ele>677.8</ele>
        <time>2021-04-03T13:37:21Z</time>
      </trkpt>
      <trkpt lat="46.33637" lon="6.55446">
        <ele>677.8</ele>
        <time>2021-04-03T13:37:22Z</time>
      </trkpt>
      <trkpt lat="46.33637" lon="6.55454">
        <ele>678</ele>
        <time>2021-04-03T13:37:23Z</time>
      </trkpt>
      <trkpt lat="46.33637" lon="6.55463">
        <ele>678</ele>
        <time>2021-04-03T13:37:24Z</time>
      </trkpt>
      <trkpt lat="46.33638" lon="6.55472">
        <ele>678</ele>
        <time>2021-04-03T13:37:25Z</time>
      </trkpt>
      <trkpt lat="46.33638" lon="6.5548">
        <ele>678</ele>
        <time>2021-04-03T13:37:26Z</time>
      </trkpt>
      <trkpt lat="46.33639" lon="6.55489">
        <ele>678</ele>
        <time>2021-04-03T13:37:27Z</time>
      </trkpt>
      <trkpt lat="46.33641" lon="6.55497">
        <ele>678</ele>
        <time>2021-04-03T13:37:28Z</time>
      </trkpt>
      <trkpt lat="46.33642" lon="6.55505">
        <ele>678</ele>
        <time>2021-04-03T13:37:29Z</time>
      </trkpt>
      <trkpt lat="46.33643" lon="6.55514">
        <ele>678</ele>
        <time>2021-04-03T13:37:30Z</time>
      </trkpt>
      <trkpt lat="46.33646" lon="6.55523">
        <ele>678</ele>
        <time>2021-04-03T13:37:31Z</time>
      </trkpt>
      <trkpt lat="46.33649" lon="6.55531">
        <ele>678</ele>
        <time>2021-04-03T13:37:32Z</time>
      </trkpt>
      <trkpt lat="46.33652" lon="6.5554">
        <ele>678</ele>
        <time>2021-04-03T13:37:33Z</time>
      </trkpt>
      <trkpt lat="46.33655" lon="6.55549">
        <ele>678</ele>
        <time>2021-04-03T13:37:34Z</time>
      </trkpt>
      <trkpt lat="46.3366" lon="6.55557">
        <ele>678</ele>
        <time>2021-04-03T13:37:35Z</time>
      </trkpt>
      <trkpt lat="46.33663" lon="6.55567">
        <ele>678.2</ele>
        <time>2021-04-03T13:37:36Z</time>
      </trkpt>
      <trkpt lat="46.33664" lon="6.55576">
        <ele>678</ele>
        <time>2021-04-03T13:37:37Z</time>
      </trkpt>
      <trkpt lat="46.33665" lon="6.55587">
        <ele>678</ele>
        <time>2021-04-03T13:37:38Z</time>
      </trkpt>
      <trkpt lat="46.33665" lon="6.55597">
        <ele>677.8</ele>
        <time>2021-04-03T13:37:39Z</time>
      </trkpt>
      <trkpt lat="46.33666" lon="6.55607">
        <ele>677.8</ele>
        <time>2021-04-03T13:37:40Z</time>
      </trkpt>
      <trkpt lat="46.33666" lon="6.55617">
        <ele>677.6</ele>
        <time>2021-04-03T13:37:41Z</time>
      </trkpt>
      <trkpt lat="46.33665" lon="6.55626">
        <ele>677.6</ele>
        <time>2021-04-03T13:37:42Z</time>
      </trkpt>
      <trkpt lat="46.33665" lon="6.55636">
        <ele>677.6</ele>
        <time>2021-04-03T13:37:43Z</time>
      </trkpt>
      <trkpt lat="46.33666" lon="6.55646">
        <ele>677.4</ele>
        <time>2021-04-03T13:37:44Z</time>
      </trkpt>
      <trkpt lat="46.33666" lon="6.55656">
        <ele>677.4</ele>
        <time>2021-04-03T13:37:45Z</time>
      </trkpt>
      <trkpt lat="46.33667" lon="6.55666">
        <ele>677.4</ele>
        <time>2021-04-03T13:37:46Z</time>
      </trkpt>
      <trkpt lat="46.33666" lon="6.55676">
        <ele>677.2</ele>
        <time>2021-04-03T13:37:47Z</time>
      </trkpt>
      <trkpt lat="46.33665" lon="6.55681">
        <ele>677.2</ele>
        <time>2021-04-03T13:37:48Z</time>
      </trkpt>
      <trkpt lat="46.33665" lon="6.55686">
        <ele>677</ele>
        <time>2021-04-03T13:37:49Z</time>
      </trkpt>
      <trkpt lat="46.33663" lon="6.55696">
        <ele>677</ele>
        <time>2021-04-03T13:37:50Z</time>
      </trkpt>
      <trkpt lat="46.33661" lon="6.55705">
        <ele>677.2</ele>
        <time>2021-04-03T13:37:51Z</time>
      </trkpt>
      <trkpt lat="46.33657" lon="6.55713">
        <ele>677</ele>
        <time>2021-04-03T13:37:52Z</time>
      </trkpt>
      <trkpt lat="46.33651" lon="6.55721">
        <ele>677</ele>
        <time>2021-04-03T13:37:53Z</time>
      </trkpt>
      <trkpt lat="46.33645" lon="6.55727">
        <ele>677</ele>
        <time>2021-04-03T13:37:54Z</time>
      </trkpt>
      <trkpt lat="46.33639" lon="6.55734">
        <ele>677</ele>
        <time>2021-04-03T13:37:55Z</time>
      </trkpt>
      <trkpt lat="46.33632" lon="6.55741">
        <ele>676.8</ele>
        <time>2021-04-03T13:37:56Z</time>
      </trkpt>
      <trkpt lat="46.33626" lon="6.55747">
        <ele>676.8</ele>
        <time>2021-04-03T13:37:57Z</time>
      </trkpt>
      <trkpt lat="46.3362" lon="6.55754">
        <ele>676.8</ele>
        <time>2021-04-03T13:37:58Z</time>
      </trkpt>
      <trkpt lat="46.33612" lon="6.55771">
        <ele>676.8</ele>
        <time>2021-04-03T13:37:59Z</time>
      </trkpt>
      <trkpt lat="46.3361" lon="6.55781">
        <ele>676.8</ele>
        <time>2021-04-03T13:38:00Z</time>
      </trkpt>
      <trkpt lat="46.33608" lon="6.55791">
        <ele>676.6</ele>
        <time>2021-04-03T13:38:01Z</time>
      </trkpt>
      <trkpt lat="46.33607" lon="6.55802">
        <ele>676.6</ele>
        <time>2021-04-03T13:38:02Z</time>
      </trkpt>
      <trkpt lat="46.33607" lon="6.55812">
        <ele>676.4</ele>
        <time>2021-04-03T13:38:03Z</time>
      </trkpt>
      <trkpt lat="46.33607" lon="6.55822">
        <ele>676.4</ele>
        <time>2021-04-03T13:38:04Z</time>
      </trkpt>
      <trkpt lat="46.33607" lon="6.55832">
        <ele>676.4</ele>
        <time>2021-04-03T13:38:05Z</time>
      </trkpt>
      <trkpt lat="46.33607" lon="6.55843">
        <ele>676.4</ele>
        <time>2021-04-03T13:38:06Z</time>
      </trkpt>
      <trkpt lat="46.33606" lon="6.55853">
        <ele>676.2</ele>
        <time>2021-04-03T13:38:07Z</time>
      </trkpt>
      <trkpt lat="46.33604" lon="6.55864">
        <ele>676.2</ele>
        <time>2021-04-03T13:38:08Z</time>
      </trkpt>
      <trkpt lat="46.33603" lon="6.55874">
        <ele>676.2</ele>
        <time>2021-04-03T13:38:09Z</time>
      </trkpt>
      <trkpt lat="46.33602" lon="6.55882">
        <ele>676.2</ele>
        <time>2021-04-03T13:38:10Z</time>
      </trkpt>
      <trkpt lat="46.33601" lon="6.5589">
        <ele>676</ele>
        <time>2021-04-03T13:38:11Z</time>
      </trkpt>
      <trkpt lat="46.33599" lon="6.55906">
        <ele>676</ele>
        <time>2021-04-03T13:38:12Z</time>
      </trkpt>
      <trkpt lat="46.33597" lon="6.55916">
        <ele>675.8</ele>
        <time>2021-04-03T13:38:13Z</time>
      </trkpt>
      <trkpt lat="46.33596" lon="6.55921">
        <ele>675.6</ele>
        <time>2021-04-03T13:38:14Z</time>
      </trkpt>
      <trkpt lat="46.33595" lon="6.55925">
        <ele>675.4</ele>
        <time>2021-04-03T13:38:15Z</time>
      </trkpt>
      <trkpt lat="46.33592" lon="6.5594">
        <ele>675.4</ele>
        <time>2021-04-03T13:38:16Z</time>
      </trkpt>
      <trkpt lat="46.33591" lon="6.55945">
        <ele>675.2</ele>
        <time>2021-04-03T13:38:17Z</time>
      </trkpt>
      <trkpt lat="46.33586" lon="6.5596">
        <ele>675.2</ele>
        <time>2021-04-03T13:38:18Z</time>
      </trkpt>
      <trkpt lat="46.33584" lon="6.55965">
        <ele>674.8</ele>
        <time>2021-04-03T13:38:19Z</time>
      </trkpt>
      <trkpt lat="46.33577" lon="6.55982">
        <ele>674.8</ele>
        <time>2021-04-03T13:38:20Z</time>
      </trkpt>
      <trkpt lat="46.33573" lon="6.55991">
        <ele>674.8</ele>
        <time>2021-04-03T13:38:21Z</time>
      </trkpt>
      <trkpt lat="46.33569" lon="6.55999">
        <ele>674.6</ele>
        <time>2021-04-03T13:38:22Z</time>
      </trkpt>
      <trkpt lat="46.33566" lon="6.56008">
        <ele>674.4</ele>
        <time>2021-04-03T13:38:23Z</time>
      </trkpt>
      <trkpt lat="46.33563" lon="6.56016">
        <ele>674.2</ele>
        <time>2021-04-03T13:38:24Z</time>
      </trkpt>
      <trkpt lat="46.33561" lon="6.56025">
        <ele>674.2</ele>
        <time>2021-04-03T13:38:25Z</time>
      </trkpt>
      <trkpt lat="46.33559" lon="6.56034">
        <ele>674</ele>
        <time>2021-04-03T13:38:26Z</time>
      </trkpt>
      <trkpt lat="46.33557" lon="6.56043">
        <ele>674</ele>
        <time>2021-04-03T13:38:27Z</time>
      </trkpt>
      <trkpt lat="46.33556" lon="6.56048">
        <ele>674</ele>
        <time>2021-04-03T13:38:28Z</time>
      </trkpt>
      <trkpt lat="46.33555" lon="6.56053">
        <ele>674.2</ele>
        <time>2021-04-03T13:38:29Z</time>
      </trkpt>
      <trkpt lat="46.33554" lon="6.56062">
        <ele>674</ele>
        <time>2021-04-03T13:38:30Z</time>
      </trkpt>
      <trkpt lat="46.33552" lon="6.56072">
        <ele>674</ele>
        <time>2021-04-03T13:38:31Z</time>
      </trkpt>
      <trkpt lat="46.33549" lon="6.56081">
        <ele>674.2</ele>
        <time>2021-04-03T13:38:32Z</time>
      </trkpt>
      <trkpt lat="46.33542" lon="6.56099">
        <ele>674.2</ele>
        <time>2021-04-03T13:38:33Z</time>
      </trkpt>
      <trkpt lat="46.3354" lon="6.56106">
        <ele>674.2</ele>
        <time>2021-04-03T13:38:34Z</time>
      </trkpt>
      <trkpt lat="46.33537" lon="6.56112">
        <ele>674.4</ele>
        <time>2021-04-03T13:38:35Z</time>
      </trkpt>
      <trkpt lat="46.33533" lon="6.56126">
        <ele>674.4</ele>
        <time>2021-04-03T13:38:36Z</time>
      </trkpt>
      <trkpt lat="46.33531" lon="6.56129">
        <ele>674.4</ele>
        <time>2021-04-03T13:38:37Z</time>
      </trkpt>
      <trkpt lat="46.3353" lon="6.56133">
        <ele>674.8</ele>
        <time>2021-04-03T13:38:38Z</time>
      </trkpt>
      <trkpt lat="46.33526" lon="6.56148">
        <ele>674.8</ele>
        <time>2021-04-03T13:38:39Z</time>
      </trkpt>
      <trkpt lat="46.33525" lon="6.56151">
        <ele>674.8</ele>
        <time>2021-04-03T13:38:40Z</time>
      </trkpt>
      <trkpt lat="46.33524" lon="6.56155">
        <ele>675</ele>
        <time>2021-04-03T13:38:41Z</time>
      </trkpt>
      <trkpt lat="46.33521" lon="6.56168">
        <ele>675.2</ele>
        <time>2021-04-03T13:38:42Z</time>
      </trkpt>
      <trkpt lat="46.3352" lon="6.56175">
        <ele>675.2</ele>
        <time>2021-04-03T13:38:43Z</time>
      </trkpt>
      <trkpt lat="46.33519" lon="6.56179">
        <ele>675.6</ele>
        <time>2021-04-03T13:38:44Z</time>
      </trkpt>
      <trkpt lat="46.33518" lon="6.56182">
        <ele>675.6</ele>
        <time>2021-04-03T13:38:45Z</time>
      </trkpt>
      <trkpt lat="46.33516" lon="6.56188">
        <ele>675.8</ele>
        <time>2021-04-03T13:38:46Z</time>
      </trkpt>
      <trkpt lat="46.33514" lon="6.56195">
        <ele>676</ele>
        <time>2021-04-03T13:38:47Z</time>
      </trkpt>
      <trkpt lat="46.33511" lon="6.56201">
        <ele>676</ele>
        <time>2021-04-03T13:38:48Z</time>
      </trkpt>
      <trkpt lat="46.33509" lon="6.56208">
        <ele>676.2</ele>
        <time>2021-04-03T13:38:49Z</time>
      </trkpt>
      <trkpt lat="46.33506" lon="6.56214">
        <ele>676.2</ele>
        <time>2021-04-03T13:38:50Z</time>
      </trkpt>
      <trkpt lat="46.33504" lon="6.56221">
        <ele>676.2</ele>
        <time>2021-04-03T13:38:51Z</time>
      </trkpt>
      <trkpt lat="46.33501" lon="6.56228">
        <ele>676.4</ele>
        <time>2021-04-03T13:38:52Z</time>
      </trkpt>
      <trkpt lat="46.33499" lon="6.56235">
        <ele>676.2</ele>
        <time>2021-04-03T13:38:53Z</time>
      </trkpt>
      <trkpt lat="46.33497" lon="6.56242">
        <ele>676.4</ele>
        <time>2021-04-03T13:38:54Z</time>
      </trkpt>
      <trkpt lat="46.33493" lon="6.56256">
        <ele>676.6</ele>
        <time>2021-04-03T13:38:55Z</time>
      </trkpt>
      <trkpt lat="46.33492" lon="6.56264">
        <ele>676.6</ele>
        <time>2021-04-03T13:38:56Z</time>
      </trkpt>
      <trkpt lat="46.3349" lon="6.56272">
        <ele>676.6</ele>
        <time>2021-04-03T13:38:57Z</time>
      </trkpt>
      <trkpt lat="46.33488" lon="6.5628">
        <ele>676.6</ele>
        <time>2021-04-03T13:38:58Z</time>
      </trkpt>
      <trkpt lat="46.33488" lon="6.56289">
        <ele>676.6</ele>
        <time>2021-04-03T13:38:59Z</time>
      </trkpt>
      <trkpt lat="46.33487" lon="6.56293">
        <ele>676.6</ele>
        <time>2021-04-03T13:39:00Z</time>
      </trkpt>
      <trkpt lat="46.33486" lon="6.56296">
        <ele>676.8</ele>
        <time>2021-04-03T13:39:01Z</time>
      </trkpt>
      <trkpt lat="46.33485" lon="6.56304">
        <ele>676.6</ele>
        <time>2021-04-03T13:39:02Z</time>
      </trkpt>
      <trkpt lat="46.33484" lon="6.56311">
        <ele>676.8</ele>
        <time>2021-04-03T13:39:03Z</time>
      </trkpt>
      <trkpt lat="46.3348" lon="6.56325">
        <ele>676.8</ele>
        <time>2021-04-03T13:39:04Z</time>
      </trkpt>
      <trkpt lat="46.33478" lon="6.56331">
        <ele>676.8</ele>
        <time>2021-04-03T13:39:05Z</time>
      </trkpt>
      <trkpt lat="46.33475" lon="6.56336">
        <ele>676.8</ele>
        <time>2021-04-03T13:39:06Z</time>
      </trkpt>
      <trkpt lat="46.33472" lon="6.5634">
        <ele>677</ele>
        <time>2021-04-03T13:39:07Z</time>
      </trkpt>
      <trkpt lat="46.33471" lon="6.56342">
        <ele>677</ele>
        <time>2021-04-03T13:39:08Z</time>
      </trkpt>
      <trkpt lat="46.33469" lon="6.56344">
        <ele>677.2</ele>
        <time>2021-04-03T13:39:09Z</time>
      </trkpt>
      <trkpt lat="46.33464" lon="6.5635">
        <ele>677.6</ele>
        <time>2021-04-03T13:39:10Z</time>
      </trkpt>
      <trkpt lat="46.33461" lon="6.56353">
        <ele>678</ele>
        <time>2021-04-03T13:39:11Z</time>
      </trkpt>
      <trkpt lat="46.33458" lon="6.56357">
        <ele>678.6</ele>
        <time>2021-04-03T13:39:12Z</time>
      </trkpt>
      <trkpt lat="46.33455" lon="6.56361">
        <ele>679</ele>
        <time>2021-04-03T13:39:13Z</time>
      </trkpt>
      <trkpt lat="46.33453" lon="6.56364">
        <ele>679</ele>
        <time>2021-04-03T13:39:14Z</time>
      </trkpt>
      <trkpt lat="46.33451" lon="6.56368">
        <ele>679.6</ele>
        <time>2021-04-03T13:39:15Z</time>
      </trkpt>
      <trkpt lat="46.33448" lon="6.56371">
        <ele>679.8</ele>
        <time>2021-04-03T13:39:16Z</time>
      </trkpt>
      <trkpt lat="46.33446" lon="6.56374">
        <ele>680.4</ele>
        <time>2021-04-03T13:39:17Z</time>
      </trkpt>
      <trkpt lat="46.33444" lon="6.56378">
        <ele>680.6</ele>
        <time>2021-04-03T13:39:18Z</time>
      </trkpt>
      <trkpt lat="46.33441" lon="6.56381">
        <ele>681</ele>
        <time>2021-04-03T13:39:19Z</time>
      </trkpt>
      <trkpt lat="46.33439" lon="6.56385">
        <ele>681.4</ele>
        <time>2021-04-03T13:39:20Z</time>
      </trkpt>
      <trkpt lat="46.33437" lon="6.56389">
        <ele>681.4</ele>
        <time>2021-04-03T13:39:21Z</time>
      </trkpt>
      <trkpt lat="46.33434" lon="6.56392">
        <ele>681.8</ele>
        <time>2021-04-03T13:39:22Z</time>
      </trkpt>
      <trkpt lat="46.33432" lon="6.56396">
        <ele>681.8</ele>
        <time>2021-04-03T13:39:23Z</time>
      </trkpt>
      <trkpt lat="46.3343" lon="6.56399">
        <ele>682.2</ele>
        <time>2021-04-03T13:39:24Z</time>
      </trkpt>
      <trkpt lat="46.33428" lon="6.56403">
        <ele>682.6</ele>
        <time>2021-04-03T13:39:25Z</time>
      </trkpt>
      <trkpt lat="46.33426" lon="6.56407">
        <ele>683.2</ele>
        <time>2021-04-03T13:39:26Z</time>
      </trkpt>
      <trkpt lat="46.33423" lon="6.5641">
        <ele>683.4</ele>
        <time>2021-04-03T13:39:27Z</time>
      </trkpt>
      <trkpt lat="46.33422" lon="6.56414">
        <ele>684</ele>
        <time>2021-04-03T13:39:28Z</time>
      </trkpt>
      <trkpt lat="46.3342" lon="6.56418">
        <ele>684.2</ele>
        <time>2021-04-03T13:39:29Z</time>
      </trkpt>
      <trkpt lat="46.33418" lon="6.56422">
        <ele>684.6</ele>
        <time>2021-04-03T13:39:30Z</time>
      </trkpt>
      <trkpt lat="46.33416" lon="6.56427">
        <ele>685</ele>
        <time>2021-04-03T13:39:31Z</time>
      </trkpt>
      <trkpt lat="46.33415" lon="6.5643">
        <ele>685.2</ele>
        <time>2021-04-03T13:39:32Z</time>
      </trkpt>
      <trkpt lat="46.33413" lon="6.56435">
        <ele>685.6</ele>
        <time>2021-04-03T13:39:33Z</time>
      </trkpt>
      <trkpt lat="46.33412" lon="6.56438">
        <ele>685.6</ele>
        <time>2021-04-03T13:39:34Z</time>
      </trkpt>
      <trkpt lat="46.3341" lon="6.56442">
        <ele>686</ele>
        <time>2021-04-03T13:39:35Z</time>
      </trkpt>
      <trkpt lat="46.33407" lon="6.56444">
        <ele>686.2</ele>
        <time>2021-04-03T13:39:36Z</time>
      </trkpt>
      <trkpt lat="46.33404" lon="6.56448">
        <ele>686.2</ele>
        <time>2021-04-03T13:39:37Z</time>
      </trkpt>
      <trkpt lat="46.33401" lon="6.5645">
        <ele>686.4</ele>
        <time>2021-04-03T13:39:38Z</time>
      </trkpt>
      <trkpt lat="46.33398" lon="6.56453">
        <ele>686.8</ele>
        <time>2021-04-03T13:39:39Z</time>
      </trkpt>
      <trkpt lat="46.33394" lon="6.56456">
        <ele>686.8</ele>
        <time>2021-04-03T13:39:40Z</time>
      </trkpt>
      <trkpt lat="46.33391" lon="6.56458">
        <ele>687</ele>
        <time>2021-04-03T13:39:41Z</time>
      </trkpt>
      <trkpt lat="46.33387" lon="6.5646">
        <ele>687.4</ele>
        <time>2021-04-03T13:39:42Z</time>
      </trkpt>
      <trkpt lat="46.33384" lon="6.56462">
        <ele>687.6</ele>
        <time>2021-04-03T13:39:43Z</time>
      </trkpt>
      <trkpt lat="46.33382" lon="6.56465">
        <ele>687.8</ele>
        <time>2021-04-03T13:39:44Z</time>
      </trkpt>
      <trkpt lat="46.33379" lon="6.56467">
        <ele>688.2</ele>
        <time>2021-04-03T13:39:45Z</time>
      </trkpt>
      <trkpt lat="46.33376" lon="6.56469">
        <ele>688.6</ele>
        <time>2021-04-03T13:39:46Z</time>
      </trkpt>
      <trkpt lat="46.33373" lon="6.56471">
        <ele>689</ele>
        <time>2021-04-03T13:39:47Z</time>
      </trkpt>
      <trkpt lat="46.3337" lon="6.56473">
        <ele>689.2</ele>
        <time>2021-04-03T13:39:48Z</time>
      </trkpt>
      <trkpt lat="46.33368" lon="6.56475">
        <ele>689.6</ele>
        <time>2021-04-03T13:39:49Z</time>
      </trkpt>
      <trkpt lat="46.33365" lon="6.56478">
        <ele>689.8</ele>
        <time>2021-04-03T13:39:50Z</time>
      </trkpt>
      <trkpt lat="46.33363" lon="6.56481">
        <ele>690.2</ele>
        <time>2021-04-03T13:39:51Z</time>
      </trkpt>
      <trkpt lat="46.3336" lon="6.56483">
        <ele>690.2</ele>
        <time>2021-04-03T13:39:52Z</time>
      </trkpt>
      <trkpt lat="46.33358" lon="6.56486">
        <ele>690.4</ele>
        <time>2021-04-03T13:39:53Z</time>
      </trkpt>
      <trkpt lat="46.33355" lon="6.56489">
        <ele>690.8</ele>
        <time>2021-04-03T13:39:54Z</time>
      </trkpt>
      <trkpt lat="46.33353" lon="6.56492">
        <ele>691</ele>
        <time>2021-04-03T13:39:55Z</time>
      </trkpt>
      <trkpt lat="46.3335" lon="6.56495">
        <ele>691.2</ele>
        <time>2021-04-03T13:39:56Z</time>
      </trkpt>
      <trkpt lat="46.33348" lon="6.56498">
        <ele>691.2</ele>
        <time>2021-04-03T13:39:57Z</time>
      </trkpt>
      <trkpt lat="46.33345" lon="6.56502">
        <ele>691.2</ele>
        <time>2021-04-03T13:39:58Z</time>
      </trkpt>
      <trkpt lat="46.33343" lon="6.56505">
        <ele>691.4</ele>
        <time>2021-04-03T13:39:59Z</time>
      </trkpt>
      <trkpt lat="46.33341" lon="6.56508">
        <ele>691.6</ele>
        <time>2021-04-03T13:40:00Z</time>
      </trkpt>
      <trkpt lat="46.33338" lon="6.56511">
        <ele>691.8</ele>
        <time>2021-04-03T13:40:01Z</time>
      </trkpt>
      <trkpt lat="46.33336" lon="6.56515">
        <ele>692</ele>
        <time>2021-04-03T13:40:02Z</time>
      </trkpt>
      <trkpt lat="46.33334" lon="6.56519">
        <ele>692.2</ele>
        <time>2021-04-03T13:40:03Z</time>
      </trkpt>
      <trkpt lat="46.33332" lon="6.56522">
        <ele>692.6</ele>
        <time>2021-04-03T13:40:04Z</time>
      </trkpt>
      <trkpt lat="46.3333" lon="6.56525">
        <ele>692.6</ele>
        <time>2021-04-03T13:40:05Z</time>
      </trkpt>
      <trkpt lat="46.33328" lon="6.56528">
        <ele>692.8</ele>
        <time>2021-04-03T13:40:06Z</time>
      </trkpt>
      <trkpt lat="46.33326" lon="6.56531">
        <ele>693</ele>
        <time>2021-04-03T13:40:07Z</time>
      </trkpt>
      <trkpt lat="46.33324" lon="6.56534">
        <ele>693.2</ele>
        <time>2021-04-03T13:40:08Z</time>
      </trkpt>
      <trkpt lat="46.33322" lon="6.56537">
        <ele>693.4</ele>
        <time>2021-04-03T13:40:09Z</time>
      </trkpt>
      <trkpt lat="46.33319" lon="6.5654">
        <ele>693.6</ele>
        <time>2021-04-03T13:40:10Z</time>
      </trkpt>
      <trkpt lat="46.33317" lon="6.56543">
        <ele>693.8</ele>
        <time>2021-04-03T13:40:11Z</time>
      </trkpt>
      <trkpt lat="46.33314" lon="6.56546">
        <ele>694</ele>
        <time>2021-04-03T13:40:12Z</time>
      </trkpt>
      <trkpt lat="46.33312" lon="6.56549">
        <ele>694</ele>
        <time>2021-04-03T13:40:13Z</time>
      </trkpt>
      <trkpt lat="46.33309" lon="6.56552">
        <ele>694.2</ele>
        <time>2021-04-03T13:40:14Z</time>
      </trkpt>
      <trkpt lat="46.33306" lon="6.56554">
        <ele>694.2</ele>
        <time>2021-04-03T13:40:15Z</time>
      </trkpt>
      <trkpt lat="46.33303" lon="6.56557">
        <ele>694.4</ele>
        <time>2021-04-03T13:40:16Z</time>
      </trkpt>
      <trkpt lat="46.333" lon="6.56559">
        <ele>694.6</ele>
        <time>2021-04-03T13:40:17Z</time>
      </trkpt>
      <trkpt lat="46.33298" lon="6.56562">
        <ele>694.8</ele>
        <time>2021-04-03T13:40:18Z</time>
      </trkpt>
      <trkpt lat="46.33295" lon="6.56564">
        <ele>695</ele>
        <time>2021-04-03T13:40:19Z</time>
      </trkpt>
      <trkpt lat="46.33293" lon="6.56566">
        <ele>695.2</ele>
        <time>2021-04-03T13:40:20Z</time>
      </trkpt>
      <trkpt lat="46.3329" lon="6.56568">
        <ele>695.4</ele>
        <time>2021-04-03T13:40:21Z</time>
      </trkpt>
      <trkpt lat="46.33287" lon="6.5657">
        <ele>695.6</ele>
        <time>2021-04-03T13:40:22Z</time>
      </trkpt>
      <trkpt lat="46.33284" lon="6.56573">
        <ele>695.8</ele>
        <time>2021-04-03T13:40:23Z</time>
      </trkpt>
      <trkpt lat="46.3328" lon="6.56575">
        <ele>696</ele>
        <time>2021-04-03T13:40:24Z</time>
      </trkpt>
      <trkpt lat="46.33277" lon="6.56576">
        <ele>696</ele>
        <time>2021-04-03T13:40:25Z</time>
      </trkpt>
      <trkpt lat="46.33273" lon="6.56578">
        <ele>696.4</ele>
        <time>2021-04-03T13:40:26Z</time>
      </trkpt>
      <trkpt lat="46.33269" lon="6.5658">
        <ele>696.6</ele>
        <time>2021-04-03T13:40:27Z</time>
      </trkpt>
      <trkpt lat="46.33266" lon="6.56581">
        <ele>697</ele>
        <time>2021-04-03T13:40:28Z</time>
      </trkpt>
      <trkpt lat="46.33263" lon="6.56583">
        <ele>697.2</ele>
        <time>2021-04-03T13:40:29Z</time>
      </trkpt>
      <trkpt lat="46.33259" lon="6.56584">
        <ele>697.6</ele>
        <time>2021-04-03T13:40:30Z</time>
      </trkpt>
      <trkpt lat="46.33256" lon="6.56585">
        <ele>697.8</ele>
        <time>2021-04-03T13:40:31Z</time>
      </trkpt>
      <trkpt lat="46.33252" lon="6.56586">
        <ele>698</ele>
        <time>2021-04-03T13:40:32Z</time>
      </trkpt>
      <trkpt lat="46.33249" lon="6.56586">
        <ele>698.4</ele>
        <time>2021-04-03T13:40:33Z</time>
      </trkpt>
      <trkpt lat="46.33246" lon="6.56587">
        <ele>698.8</ele>
        <time>2021-04-03T13:40:34Z</time>
      </trkpt>
      <trkpt lat="46.33243" lon="6.56587">
        <ele>699.2</ele>
        <time>2021-04-03T13:40:35Z</time>
      </trkpt>
      <trkpt lat="46.3324" lon="6.56587">
        <ele>699.6</ele>
        <time>2021-04-03T13:40:36Z</time>
      </trkpt>
      <trkpt lat="46.33237" lon="6.56587">
        <ele>700.2</ele>
        <time>2021-04-03T13:40:37Z</time>
      </trkpt>
      <trkpt lat="46.33234" lon="6.56587">
        <ele>700.6</ele>
        <time>2021-04-03T13:40:38Z</time>
      </trkpt>
      <trkpt lat="46.33231" lon="6.56586">
        <ele>700.6</ele>
        <time>2021-04-03T13:40:39Z</time>
      </trkpt>
      <trkpt lat="46.33228" lon="6.56585">
        <ele>700.8</ele>
        <time>2021-04-03T13:40:40Z</time>
      </trkpt>
      <trkpt lat="46.33225" lon="6.56585">
        <ele>701.2</ele>
        <time>2021-04-03T13:40:41Z</time>
      </trkpt>
      <trkpt lat="46.33223" lon="6.56584">
        <ele>701.6</ele>
        <time>2021-04-03T13:40:42Z</time>
      </trkpt>
      <trkpt lat="46.3322" lon="6.56584">
        <ele>701.8</ele>
        <time>2021-04-03T13:40:43Z</time>
      </trkpt>
      <trkpt lat="46.33217" lon="6.56583">
        <ele>701.8</ele>
        <time>2021-04-03T13:40:44Z</time>
      </trkpt>
      <trkpt lat="46.33215" lon="6.56583">
        <ele>702</ele>
        <time>2021-04-03T13:40:45Z</time>
      </trkpt>
      <trkpt lat="46.33212" lon="6.56582">
        <ele>702.2</ele>
        <time>2021-04-03T13:40:46Z</time>
      </trkpt>
      <trkpt lat="46.33209" lon="6.56581">
        <ele>702.6</ele>
        <time>2021-04-03T13:40:47Z</time>
      </trkpt>
      <trkpt lat="46.33206" lon="6.5658">
        <ele>703</ele>
        <time>2021-04-03T13:40:48Z</time>
      </trkpt>
      <trkpt lat="46.33203" lon="6.56579">
        <ele>703.2</ele>
        <time>2021-04-03T13:40:49Z</time>
      </trkpt>
      <trkpt lat="46.332" lon="6.56578">
        <ele>703.6</ele>
        <time>2021-04-03T13:40:50Z</time>
      </trkpt>
      <trkpt lat="46.33197" lon="6.56576">
        <ele>703.8</ele>
        <time>2021-04-03T13:40:51Z</time>
      </trkpt>
      <trkpt lat="46.33194" lon="6.56574">
        <ele>704</ele>
        <time>2021-04-03T13:40:52Z</time>
      </trkpt>
      <trkpt lat="46.33192" lon="6.56573">
        <ele>704</ele>
        <time>2021-04-03T13:40:53Z</time>
      </trkpt>
      <trkpt lat="46.33189" lon="6.56571">
        <ele>704.2</ele>
        <time>2021-04-03T13:40:54Z</time>
      </trkpt>
      <trkpt lat="46.33187" lon="6.56569">
        <ele>704.4</ele>
        <time>2021-04-03T13:40:55Z</time>
      </trkpt>
      <trkpt lat="46.33184" lon="6.56567">
        <ele>704.8</ele>
        <time>2021-04-03T13:40:56Z</time>
      </trkpt>
      <trkpt lat="46.33182" lon="6.56565">
        <ele>704.8</ele>
        <time>2021-04-03T13:40:57Z</time>
      </trkpt>
      <trkpt lat="46.33179" lon="6.56563">
        <ele>705.2</ele>
        <time>2021-04-03T13:40:58Z</time>
      </trkpt>
      <trkpt lat="46.33177" lon="6.56561">
        <ele>705.4</ele>
        <time>2021-04-03T13:40:59Z</time>
      </trkpt>
      <trkpt lat="46.33174" lon="6.56559">
        <ele>705.6</ele>
        <time>2021-04-03T13:41:00Z</time>
      </trkpt>
      <trkpt lat="46.33171" lon="6.56557">
        <ele>705.8</ele>
        <time>2021-04-03T13:41:01Z</time>
      </trkpt>
      <trkpt lat="46.33168" lon="6.56556">
        <ele>705.8</ele>
        <time>2021-04-03T13:41:02Z</time>
      </trkpt>
      <trkpt lat="46.33165" lon="6.56555">
        <ele>706.2</ele>
        <time>2021-04-03T13:41:03Z</time>
      </trkpt>
      <trkpt lat="46.33164" lon="6.56553">
        <ele>706.4</ele>
        <time>2021-04-03T13:41:04Z</time>
      </trkpt>
      <trkpt lat="46.33161" lon="6.56552">
        <ele>706.4</ele>
        <time>2021-04-03T13:41:05Z</time>
      </trkpt>
      <trkpt lat="46.33158" lon="6.56551">
        <ele>706.8</ele>
        <time>2021-04-03T13:41:06Z</time>
      </trkpt>
      <trkpt lat="46.33155" lon="6.5655">
        <ele>706.8</ele>
        <time>2021-04-03T13:41:07Z</time>
      </trkpt>
      <trkpt lat="46.33153" lon="6.5655">
        <ele>706.8</ele>
        <time>2021-04-03T13:41:08Z</time>
      </trkpt>
      <trkpt lat="46.33151" lon="6.56549">
        <ele>707.2</ele>
        <time>2021-04-03T13:41:09Z</time>
      </trkpt>
      <trkpt lat="46.33148" lon="6.56548">
        <ele>707.4</ele>
        <time>2021-04-03T13:41:10Z</time>
      </trkpt>
      <trkpt lat="46.33145" lon="6.56548">
        <ele>707.6</ele>
        <time>2021-04-03T13:41:11Z</time>
      </trkpt>
      <trkpt lat="46.33141" lon="6.56548">
        <ele>708</ele>
        <time>2021-04-03T13:41:12Z</time>
      </trkpt>
      <trkpt lat="46.33138" lon="6.56547">
        <ele>707.8</ele>
        <time>2021-04-03T13:41:13Z</time>
      </trkpt>
      <trkpt lat="46.33135" lon="6.56547">
        <ele>708</ele>
        <time>2021-04-03T13:41:14Z</time>
      </trkpt>
      <trkpt lat="46.33131" lon="6.56546">
        <ele>708</ele>
        <time>2021-04-03T13:41:15Z</time>
      </trkpt>
      <trkpt lat="46.33129" lon="6.56545">
        <ele>708.2</ele>
        <time>2021-04-03T13:41:16Z</time>
      </trkpt>
      <trkpt lat="46.33126" lon="6.56545">
        <ele>708.4</ele>
        <time>2021-04-03T13:41:17Z</time>
      </trkpt>
      <trkpt lat="46.33123" lon="6.56544">
        <ele>708.6</ele>
        <time>2021-04-03T13:41:18Z</time>
      </trkpt>
      <trkpt lat="46.33119" lon="6.56543">
        <ele>708.8</ele>
        <time>2021-04-03T13:41:19Z</time>
      </trkpt>
      <trkpt lat="46.33116" lon="6.56542">
        <ele>709.2</ele>
        <time>2021-04-03T13:41:20Z</time>
      </trkpt>
      <trkpt lat="46.33113" lon="6.56541">
        <ele>709.2</ele>
        <time>2021-04-03T13:41:21Z</time>
      </trkpt>
      <trkpt lat="46.33109" lon="6.56539">
        <ele>709.6</ele>
        <time>2021-04-03T13:41:22Z</time>
      </trkpt>
      <trkpt lat="46.33106" lon="6.56538">
        <ele>709.8</ele>
        <time>2021-04-03T13:41:23Z</time>
      </trkpt>
      <trkpt lat="46.33103" lon="6.56536">
        <ele>710</ele>
        <time>2021-04-03T13:41:24Z</time>
      </trkpt>
      <trkpt lat="46.331" lon="6.56534">
        <ele>710.2</ele>
        <time>2021-04-03T13:41:25Z</time>
      </trkpt>
      <trkpt lat="46.33097" lon="6.56532">
        <ele>710.6</ele>
        <time>2021-04-03T13:41:26Z</time>
      </trkpt>
      <trkpt lat="46.33094" lon="6.5653">
        <ele>710.8</ele>
        <time>2021-04-03T13:41:27Z</time>
      </trkpt>
      <trkpt lat="46.33089" lon="6.56529">
        <ele>710.8</ele>
        <time>2021-04-03T13:41:28Z</time>
      </trkpt>
      <trkpt lat="46.33086" lon="6.56527">
        <ele>711.2</ele>
        <time>2021-04-03T13:41:29Z</time>
      </trkpt>
      <trkpt lat="46.33082" lon="6.56525">
        <ele>711.4</ele>
        <time>2021-04-03T13:41:30Z</time>
      </trkpt>
      <trkpt lat="46.33079" lon="6.56523">
        <ele>711.8</ele>
        <time>2021-04-03T13:41:31Z</time>
      </trkpt>
      <trkpt lat="46.33076" lon="6.56521">
        <ele>712</ele>
        <time>2021-04-03T13:41:32Z</time>
      </trkpt>
      <trkpt lat="46.33073" lon="6.56519">
        <ele>712.2</ele>
        <time>2021-04-03T13:41:33Z</time>
      </trkpt>
      <trkpt lat="46.3307" lon="6.56517">
        <ele>712.4</ele>
        <time>2021-04-03T13:41:34Z</time>
      </trkpt>
      <trkpt lat="46.33067" lon="6.56515">
        <ele>712.6</ele>
        <time>2021-04-03T13:41:35Z</time>
      </trkpt>
      <trkpt lat="46.33064" lon="6.56513">
        <ele>712.6</ele>
        <time>2021-04-03T13:41:36Z</time>
      </trkpt>
      <trkpt lat="46.33062" lon="6.56511">
        <ele>712.8</ele>
        <time>2021-04-03T13:41:37Z</time>
      </trkpt>
      <trkpt lat="46.33059" lon="6.5651">
        <ele>713</ele>
        <time>2021-04-03T13:41:38Z</time>
      </trkpt>
      <trkpt lat="46.33056" lon="6.56508">
        <ele>713.2</ele>
        <time>2021-04-03T13:41:39Z</time>
      </trkpt>
      <trkpt lat="46.33053" lon="6.56508">
        <ele>713.4</ele>
        <time>2021-04-03T13:41:40Z</time>
      </trkpt>
      <trkpt lat="46.3305" lon="6.56507">
        <ele>713.6</ele>
        <time>2021-04-03T13:41:41Z</time>
      </trkpt>
      <trkpt lat="46.33047" lon="6.56507">
        <ele>713.8</ele>
        <time>2021-04-03T13:41:42Z</time>
      </trkpt>
      <trkpt lat="46.33043" lon="6.56506">
        <ele>713.8</ele>
        <time>2021-04-03T13:41:43Z</time>
      </trkpt>
      <trkpt lat="46.3304" lon="6.56505">
        <ele>714</ele>
        <time>2021-04-03T13:41:44Z</time>
      </trkpt>
      <trkpt lat="46.33037" lon="6.56504">
        <ele>714</ele>
        <time>2021-04-03T13:41:45Z</time>
      </trkpt>
      <trkpt lat="46.33034" lon="6.56504">
        <ele>714.4</ele>
        <time>2021-04-03T13:41:46Z</time>
      </trkpt>
      <trkpt lat="46.3303" lon="6.56504">
        <ele>714.4</ele>
        <time>2021-04-03T13:41:47Z</time>
      </trkpt>
      <trkpt lat="46.33027" lon="6.56503">
        <ele>714.6</ele>
        <time>2021-04-03T13:41:48Z</time>
      </trkpt>
      <trkpt lat="46.33024" lon="6.56503">
        <ele>714.8</ele>
        <time>2021-04-03T13:41:49Z</time>
      </trkpt>
      <trkpt lat="46.33021" lon="6.56503">
        <ele>715</ele>
        <time>2021-04-03T13:41:50Z</time>
      </trkpt>
      <trkpt lat="46.33019" lon="6.56503">
        <ele>715.2</ele>
        <time>2021-04-03T13:41:51Z</time>
      </trkpt>
      <trkpt lat="46.33016" lon="6.56503">
        <ele>715.4</ele>
        <time>2021-04-03T13:41:52Z</time>
      </trkpt>
      <trkpt lat="46.33014" lon="6.56503">
        <ele>715.8</ele>
        <time>2021-04-03T13:41:53Z</time>
      </trkpt>
      <trkpt lat="46.33011" lon="6.56502">
        <ele>715.8</ele>
        <time>2021-04-03T13:41:54Z</time>
      </trkpt>
      <trkpt lat="46.33008" lon="6.56502">
        <ele>716</ele>
        <time>2021-04-03T13:41:55Z</time>
      </trkpt>
      <trkpt lat="46.33006" lon="6.56501">
        <ele>716.4</ele>
        <time>2021-04-03T13:41:56Z</time>
      </trkpt>
      <trkpt lat="46.33003" lon="6.56501">
        <ele>716.4</ele>
        <time>2021-04-03T13:41:57Z</time>
      </trkpt>
      <trkpt lat="46.33001" lon="6.565">
        <ele>716.6</ele>
        <time>2021-04-03T13:41:58Z</time>
      </trkpt>
      <trkpt lat="46.32998" lon="6.56499">
        <ele>716.8</ele>
        <time>2021-04-03T13:41:59Z</time>
      </trkpt>
      <trkpt lat="46.32995" lon="6.56498">
        <ele>717.2</ele>
        <time>2021-04-03T13:42:00Z</time>
      </trkpt>
      <trkpt lat="46.32992" lon="6.56497">
        <ele>717.4</ele>
        <time>2021-04-03T13:42:01Z</time>
      </trkpt>
      <trkpt lat="46.32988" lon="6.56496">
        <ele>717.6</ele>
        <time>2021-04-03T13:42:02Z</time>
      </trkpt>
      <trkpt lat="46.32985" lon="6.56495">
        <ele>717.8</ele>
        <time>2021-04-03T13:42:03Z</time>
      </trkpt>
      <trkpt lat="46.32982" lon="6.56493">
        <ele>718</ele>
        <time>2021-04-03T13:42:04Z</time>
      </trkpt>
      <trkpt lat="46.32979" lon="6.56491">
        <ele>718.2</ele>
        <time>2021-04-03T13:42:05Z</time>
      </trkpt>
      <trkpt lat="46.32977" lon="6.56489">
        <ele>718.2</ele>
        <time>2021-04-03T13:42:06Z</time>
      </trkpt>
      <trkpt lat="46.32974" lon="6.56488">
        <ele>718.4</ele>
        <time>2021-04-03T13:42:07Z</time>
      </trkpt>
      <trkpt lat="46.3297" lon="6.56486">
        <ele>718.8</ele>
        <time>2021-04-03T13:42:08Z</time>
      </trkpt>
      <trkpt lat="46.32966" lon="6.56485">
        <ele>719</ele>
        <time>2021-04-03T13:42:09Z</time>
      </trkpt>
      <trkpt lat="46.32962" lon="6.56484">
        <ele>719</ele>
        <time>2021-04-03T13:42:10Z</time>
      </trkpt>
      <trkpt lat="46.32959" lon="6.56483">
        <ele>719.2</ele>
        <time>2021-04-03T13:42:11Z</time>
      </trkpt>
      <trkpt lat="46.32955" lon="6.56481">
        <ele>719.4</ele>
        <time>2021-04-03T13:42:12Z</time>
      </trkpt>
      <trkpt lat="46.32952" lon="6.5648">
        <ele>719.8</ele>
        <time>2021-04-03T13:42:13Z</time>
      </trkpt>
      <trkpt lat="46.32947" lon="6.56479">
        <ele>720</ele>
        <time>2021-04-03T13:42:14Z</time>
      </trkpt>
      <trkpt lat="46.32943" lon="6.56478">
        <ele>720</ele>
        <time>2021-04-03T13:42:15Z</time>
      </trkpt>
      <trkpt lat="46.32938" lon="6.56477">
        <ele>720.4</ele>
        <time>2021-04-03T13:42:16Z</time>
      </trkpt>
      <trkpt lat="46.32933" lon="6.56475">
        <ele>720.6</ele>
        <time>2021-04-03T13:42:17Z</time>
      </trkpt>
      <trkpt lat="46.32929" lon="6.56473">
        <ele>720.6</ele>
        <time>2021-04-03T13:42:18Z</time>
      </trkpt>
      <trkpt lat="46.32923" lon="6.56471">
        <ele>721</ele>
        <time>2021-04-03T13:42:19Z</time>
      </trkpt>
      <trkpt lat="46.32918" lon="6.56469">
        <ele>721</ele>
        <time>2021-04-03T13:42:20Z</time>
      </trkpt>
      <trkpt lat="46.32913" lon="6.56466">
        <ele>721.2</ele>
        <time>2021-04-03T13:42:21Z</time>
      </trkpt>
      <trkpt lat="46.32908" lon="6.56463">
        <ele>721.4</ele>
        <time>2021-04-03T13:42:22Z</time>
      </trkpt>
      <trkpt lat="46.32903" lon="6.5646">
        <ele>721.4</ele>
        <time>2021-04-03T13:42:23Z</time>
      </trkpt>
      <trkpt lat="46.32898" lon="6.56457">
        <ele>721.6</ele>
        <time>2021-04-03T13:42:24Z</time>
      </trkpt>
      <trkpt lat="46.32893" lon="6.56454">
        <ele>721.8</ele>
        <time>2021-04-03T13:42:25Z</time>
      </trkpt>
      <trkpt lat="46.32888" lon="6.56451">
        <ele>722.2</ele>
        <time>2021-04-03T13:42:26Z</time>
      </trkpt>
      <trkpt lat="46.32883" lon="6.56449">
        <ele>722.2</ele>
        <time>2021-04-03T13:42:27Z</time>
      </trkpt>
      <trkpt lat="46.32879" lon="6.56446">
        <ele>722.4</ele>
        <time>2021-04-03T13:42:28Z</time>
      </trkpt>
      <trkpt lat="46.32875" lon="6.56443">
        <ele>722.8</ele>
        <time>2021-04-03T13:42:29Z</time>
      </trkpt>
      <trkpt lat="46.3287" lon="6.56441">
        <ele>722.8</ele>
        <time>2021-04-03T13:42:30Z</time>
      </trkpt>
      <trkpt lat="46.32867" lon="6.56438">
        <ele>723.2</ele>
        <time>2021-04-03T13:42:31Z</time>
      </trkpt>
      <trkpt lat="46.32863" lon="6.56436">
        <ele>723.6</ele>
        <time>2021-04-03T13:42:32Z</time>
      </trkpt>
      <trkpt lat="46.32859" lon="6.56434">
        <ele>724</ele>
        <time>2021-04-03T13:42:33Z</time>
      </trkpt>
      <trkpt lat="46.32857" lon="6.56432">
        <ele>724.2</ele>
        <time>2021-04-03T13:42:34Z</time>
      </trkpt>
      <trkpt lat="46.32854" lon="6.5643">
        <ele>724.4</ele>
        <time>2021-04-03T13:42:35Z</time>
      </trkpt>
      <trkpt lat="46.32851" lon="6.56428">
        <ele>724.6</ele>
        <time>2021-04-03T13:42:36Z</time>
      </trkpt>
      <trkpt lat="46.32848" lon="6.56425">
        <ele>725</ele>
        <time>2021-04-03T13:42:37Z</time>
      </trkpt>
      <trkpt lat="46.32845" lon="6.56423">
        <ele>725.2</ele>
        <time>2021-04-03T13:42:38Z</time>
      </trkpt>
      <trkpt lat="46.32842" lon="6.56421">
        <ele>725.6</ele>
        <time>2021-04-03T13:42:39Z</time>
      </trkpt>
      <trkpt lat="46.32839" lon="6.56419">
        <ele>726</ele>
        <time>2021-04-03T13:42:40Z</time>
      </trkpt>
      <trkpt lat="46.32837" lon="6.56416">
        <ele>726.4</ele>
        <time>2021-04-03T13:42:41Z</time>
      </trkpt>
      <trkpt lat="46.32834" lon="6.56414">
        <ele>726.8</ele>
        <time>2021-04-03T13:42:42Z</time>
      </trkpt>
      <trkpt lat="46.32831" lon="6.56412">
        <ele>727.2</ele>
        <time>2021-04-03T13:42:43Z</time>
      </trkpt>
      <trkpt lat="46.32828" lon="6.5641">
        <ele>727.6</ele>
        <time>2021-04-03T13:42:44Z</time>
      </trkpt>
      <trkpt lat="46.32825" lon="6.56408">
        <ele>727.8</ele>
        <time>2021-04-03T13:42:45Z</time>
      </trkpt>
      <trkpt lat="46.32822" lon="6.56406">
        <ele>728</ele>
        <time>2021-04-03T13:42:46Z</time>
      </trkpt>
      <trkpt lat="46.32819" lon="6.56405">
        <ele>728.4</ele>
        <time>2021-04-03T13:42:47Z</time>
      </trkpt>
      <trkpt lat="46.32816" lon="6.56404">
        <ele>728.8</ele>
        <time>2021-04-03T13:42:48Z</time>
      </trkpt>
      <trkpt lat="46.32813" lon="6.56402">
        <ele>729</ele>
        <time>2021-04-03T13:42:49Z</time>
      </trkpt>
      <trkpt lat="46.3281" lon="6.56401">
        <ele>729.2</ele>
        <time>2021-04-03T13:42:50Z</time>
      </trkpt>
      <trkpt lat="46.32807" lon="6.564">
        <ele>729.4</ele>
        <time>2021-04-03T13:42:51Z</time>
      </trkpt>
      <trkpt lat="46.32804" lon="6.56399">
        <ele>729.6</ele>
        <time>2021-04-03T13:42:52Z</time>
      </trkpt>
      <trkpt lat="46.32801" lon="6.56398">
        <ele>729.6</ele>
        <time>2021-04-03T13:42:53Z</time>
      </trkpt>
      <trkpt lat="46.32797" lon="6.56397">
        <ele>729.6</ele>
        <time>2021-04-03T13:42:54Z</time>
      </trkpt>
      <trkpt lat="46.32794" lon="6.56396">
        <ele>729.8</ele>
        <time>2021-04-03T13:42:55Z</time>
      </trkpt>
      <trkpt lat="46.32791" lon="6.56396">
        <ele>729.8</ele>
        <time>2021-04-03T13:42:56Z</time>
      </trkpt>
      <trkpt lat="46.32788" lon="6.56395">
        <ele>730</ele>
        <time>2021-04-03T13:42:57Z</time>
      </trkpt>
      <trkpt lat="46.32785" lon="6.56394">
        <ele>730</ele>
        <time>2021-04-03T13:42:58Z</time>
      </trkpt>
      <trkpt lat="46.32782" lon="6.56394">
        <ele>730.4</ele>
        <time>2021-04-03T13:42:59Z</time>
      </trkpt>
      <trkpt lat="46.32779" lon="6.56393">
        <ele>730.6</ele>
        <time>2021-04-03T13:43:00Z</time>
      </trkpt>
      <trkpt lat="46.32776" lon="6.56393">
        <ele>730.8</ele>
        <time>2021-04-03T13:43:01Z</time>
      </trkpt>
      <trkpt lat="46.32773" lon="6.56392">
        <ele>731</ele>
        <time>2021-04-03T13:43:02Z</time>
      </trkpt>
      <trkpt lat="46.32769" lon="6.56392">
        <ele>731.4</ele>
        <time>2021-04-03T13:43:03Z</time>
      </trkpt>
      <trkpt lat="46.32766" lon="6.56391">
        <ele>731.6</ele>
        <time>2021-04-03T13:43:04Z</time>
      </trkpt>
      <trkpt lat="46.32763" lon="6.56391">
        <ele>731.8</ele>
        <time>2021-04-03T13:43:05Z</time>
      </trkpt>
      <trkpt lat="46.32759" lon="6.56392">
        <ele>732.2</ele>
        <time>2021-04-03T13:43:06Z</time>
      </trkpt>
      <trkpt lat="46.32756" lon="6.56392">
        <ele>732.2</ele>
        <time>2021-04-03T13:43:07Z</time>
      </trkpt>
      <trkpt lat="46.32753" lon="6.56393">
        <ele>732.4</ele>
        <time>2021-04-03T13:43:08Z</time>
      </trkpt>
      <trkpt lat="46.3275" lon="6.56393">
        <ele>732.6</ele>
        <time>2021-04-03T13:43:09Z</time>
      </trkpt>
      <trkpt lat="46.32746" lon="6.56393">
        <ele>732.8</ele>
        <time>2021-04-03T13:43:10Z</time>
      </trkpt>
      <trkpt lat="46.32743" lon="6.56393">
        <ele>732.8</ele>
        <time>2021-04-03T13:43:11Z</time>
      </trkpt>
      <trkpt lat="46.3274" lon="6.56393">
        <ele>733.2</ele>
        <time>2021-04-03T13:43:12Z</time>
      </trkpt>
      <trkpt lat="46.32737" lon="6.56392">
        <ele>733.2</ele>
        <time>2021-04-03T13:43:13Z</time>
      </trkpt>
      <trkpt lat="46.32734" lon="6.56392">
        <ele>733.6</ele>
        <time>2021-04-03T13:43:14Z</time>
      </trkpt>
      <trkpt lat="46.32731" lon="6.56392">
        <ele>733.8</ele>
        <time>2021-04-03T13:43:15Z</time>
      </trkpt>
      <trkpt lat="46.32728" lon="6.56391">
        <ele>734.2</ele>
        <time>2021-04-03T13:43:16Z</time>
      </trkpt>
      <trkpt lat="46.32724" lon="6.56391">
        <ele>734.2</ele>
        <time>2021-04-03T13:43:17Z</time>
      </trkpt>
      <trkpt lat="46.32721" lon="6.5639">
        <ele>734.4</ele>
        <time>2021-04-03T13:43:18Z</time>
      </trkpt>
      <trkpt lat="46.32718" lon="6.56389">
        <ele>734.4</ele>
        <time>2021-04-03T13:43:19Z</time>
      </trkpt>
      <trkpt lat="46.32714" lon="6.56389">
        <ele>734.6</ele>
        <time>2021-04-03T13:43:20Z</time>
      </trkpt>
      <trkpt lat="46.3271" lon="6.56388">
        <ele>734.8</ele>
        <time>2021-04-03T13:43:21Z</time>
      </trkpt>
      <trkpt lat="46.32706" lon="6.56388">
        <ele>735.2</ele>
        <time>2021-04-03T13:43:22Z</time>
      </trkpt>
      <trkpt lat="46.32702" lon="6.56387">
        <ele>735.4</ele>
        <time>2021-04-03T13:43:23Z</time>
      </trkpt>
      <trkpt lat="46.32697" lon="6.56386">
        <ele>735.6</ele>
        <time>2021-04-03T13:43:24Z</time>
      </trkpt>
      <trkpt lat="46.32692" lon="6.56385">
        <ele>735.8</ele>
        <time>2021-04-03T13:43:25Z</time>
      </trkpt>
      <trkpt lat="46.32688" lon="6.56384">
        <ele>735.8</ele>
        <time>2021-04-03T13:43:26Z</time>
      </trkpt>
      <trkpt lat="46.32683" lon="6.56384">
        <ele>736</ele>
        <time>2021-04-03T13:43:27Z</time>
      </trkpt>
      <trkpt lat="46.32678" lon="6.56384">
        <ele>736.2</ele>
        <time>2021-04-03T13:43:28Z</time>
      </trkpt>
      <trkpt lat="46.32674" lon="6.56384">
        <ele>736.2</ele>
        <time>2021-04-03T13:43:29Z</time>
      </trkpt>
      <trkpt lat="46.32669" lon="6.56384">
        <ele>736.4</ele>
        <time>2021-04-03T13:43:30Z</time>
      </trkpt>
      <trkpt lat="46.32664" lon="6.56384">
        <ele>737</ele>
        <time>2021-04-03T13:43:31Z</time>
      </trkpt>
      <trkpt lat="46.32659" lon="6.56384">
        <ele>737.2</ele>
        <time>2021-04-03T13:43:32Z</time>
      </trkpt>
      <trkpt lat="46.32654" lon="6.56385">
        <ele>737.4</ele>
        <time>2021-04-03T13:43:33Z</time>
      </trkpt>
      <trkpt lat="46.3265" lon="6.56385">
        <ele>737.8</ele>
        <time>2021-04-03T13:43:34Z</time>
      </trkpt>
      <trkpt lat="46.32645" lon="6.56385">
        <ele>738</ele>
        <time>2021-04-03T13:43:35Z</time>
      </trkpt>
      <trkpt lat="46.32641" lon="6.56386">
        <ele>738</ele>
        <time>2021-04-03T13:43:36Z</time>
      </trkpt>
      <trkpt lat="46.32638" lon="6.56386">
        <ele>738.4</ele>
        <time>2021-04-03T13:43:37Z</time>
      </trkpt>
      <trkpt lat="46.32634" lon="6.56386">
        <ele>738.6</ele>
        <time>2021-04-03T13:43:38Z</time>
      </trkpt>
      <trkpt lat="46.32631" lon="6.56387">
        <ele>739</ele>
        <time>2021-04-03T13:43:39Z</time>
      </trkpt>
      <trkpt lat="46.32628" lon="6.56387">
        <ele>739.4</ele>
        <time>2021-04-03T13:43:40Z</time>
      </trkpt>
      <trkpt lat="46.32625" lon="6.56388">
        <ele>739.4</ele>
        <time>2021-04-03T13:43:41Z</time>
      </trkpt>
      <trkpt lat="46.32622" lon="6.56388">
        <ele>739.8</ele>
        <time>2021-04-03T13:43:42Z</time>
      </trkpt>
      <trkpt lat="46.32618" lon="6.56389">
        <ele>740.2</ele>
        <time>2021-04-03T13:43:43Z</time>
      </trkpt>
      <trkpt lat="46.32615" lon="6.56389">
        <ele>740.4</ele>
        <time>2021-04-03T13:43:44Z</time>
      </trkpt>
      <trkpt lat="46.32612" lon="6.5639">
        <ele>740.8</ele>
        <time>2021-04-03T13:43:45Z</time>
      </trkpt>
      <trkpt lat="46.32608" lon="6.56392">
        <ele>741</ele>
        <time>2021-04-03T13:43:46Z</time>
      </trkpt>
      <trkpt lat="46.32605" lon="6.56393">
        <ele>741.2</ele>
        <time>2021-04-03T13:43:47Z</time>
      </trkpt>
      <trkpt lat="46.32602" lon="6.56394">
        <ele>741.6</ele>
        <time>2021-04-03T13:43:48Z</time>
      </trkpt>
      <trkpt lat="46.32599" lon="6.56396">
        <ele>741.8</ele>
        <time>2021-04-03T13:43:49Z</time>
      </trkpt>
      <trkpt lat="46.32597" lon="6.56397">
        <ele>742</ele>
        <time>2021-04-03T13:43:50Z</time>
      </trkpt>
      <trkpt lat="46.32593" lon="6.56398">
        <ele>742.2</ele>
        <time>2021-04-03T13:43:51Z</time>
      </trkpt>
      <trkpt lat="46.3259" lon="6.564">
        <ele>742.4</ele>
        <time>2021-04-03T13:43:52Z</time>
      </trkpt>
      <trkpt lat="46.32587" lon="6.56402">
        <ele>742.6</ele>
        <time>2021-04-03T13:43:53Z</time>
      </trkpt>
      <trkpt lat="46.32584" lon="6.56404">
        <ele>742.6</ele>
        <time>2021-04-03T13:43:54Z</time>
      </trkpt>
      <trkpt lat="46.32581" lon="6.56405">
        <ele>742.8</ele>
        <time>2021-04-03T13:43:55Z</time>
      </trkpt>
      <trkpt lat="46.32578" lon="6.56407">
        <ele>743.2</ele>
        <time>2021-04-03T13:43:56Z</time>
      </trkpt>
      <trkpt lat="46.32574" lon="6.56409">
        <ele>743.4</ele>
        <time>2021-04-03T13:43:57Z</time>
      </trkpt>
      <trkpt lat="46.32571" lon="6.56411">
        <ele>743.8</ele>
        <time>2021-04-03T13:43:58Z</time>
      </trkpt>
      <trkpt lat="46.32568" lon="6.56413">
        <ele>743.8</ele>
        <time>2021-04-03T13:43:59Z</time>
      </trkpt>
      <trkpt lat="46.32565" lon="6.56415">
        <ele>743.8</ele>
        <time>2021-04-03T13:44:00Z</time>
      </trkpt>
      <trkpt lat="46.32562" lon="6.56417">
        <ele>744.2</ele>
        <time>2021-04-03T13:44:01Z</time>
      </trkpt>
      <trkpt lat="46.32559" lon="6.56419">
        <ele>744.2</ele>
        <time>2021-04-03T13:44:02Z</time>
      </trkpt>
      <trkpt lat="46.32556" lon="6.56422">
        <ele>744.2</ele>
        <time>2021-04-03T13:44:03Z</time>
      </trkpt>
      <trkpt lat="46.32553" lon="6.56424">
        <ele>744.8</ele>
        <time>2021-04-03T13:44:04Z</time>
      </trkpt>
      <trkpt lat="46.3255" lon="6.56426">
        <ele>745.4</ele>
        <time>2021-04-03T13:44:05Z</time>
      </trkpt>
      <trkpt lat="46.32548" lon="6.56428">
        <ele>745.4</ele>
        <time>2021-04-03T13:44:06Z</time>
      </trkpt>
      <trkpt lat="46.32545" lon="6.56431">
        <ele>745.8</ele>
        <time>2021-04-03T13:44:07Z</time>
      </trkpt>
      <trkpt lat="46.32542" lon="6.56433">
        <ele>745.8</ele>
        <time>2021-04-03T13:44:08Z</time>
      </trkpt>
      <trkpt lat="46.32539" lon="6.56435">
        <ele>746</ele>
        <time>2021-04-03T13:44:09Z</time>
      </trkpt>
      <trkpt lat="46.32537" lon="6.56438">
        <ele>746.2</ele>
        <time>2021-04-03T13:44:10Z</time>
      </trkpt>
      <trkpt lat="46.32534" lon="6.5644">
        <ele>746.6</ele>
        <time>2021-04-03T13:44:11Z</time>
      </trkpt>
      <trkpt lat="46.32531" lon="6.56442">
        <ele>746.8</ele>
        <time>2021-04-03T13:44:12Z</time>
      </trkpt>
      <trkpt lat="46.32529" lon="6.56445">
        <ele>747.2</ele>
        <time>2021-04-03T13:44:13Z</time>
      </trkpt>
      <trkpt lat="46.32526" lon="6.56447">
        <ele>747.4</ele>
        <time>2021-04-03T13:44:14Z</time>
      </trkpt>
      <trkpt lat="46.32523" lon="6.5645">
        <ele>747.8</ele>
        <time>2021-04-03T13:44:15Z</time>
      </trkpt>
      <trkpt lat="46.3252" lon="6.56452">
        <ele>748</ele>
        <time>2021-04-03T13:44:16Z</time>
      </trkpt>
      <trkpt lat="46.32518" lon="6.56454">
        <ele>748.2</ele>
        <time>2021-04-03T13:44:17Z</time>
      </trkpt>
      <trkpt lat="46.32515" lon="6.56457">
        <ele>748.6</ele>
        <time>2021-04-03T13:44:18Z</time>
      </trkpt>
      <trkpt lat="46.32512" lon="6.56459">
        <ele>748.8</ele>
        <time>2021-04-03T13:44:19Z</time>
      </trkpt>
      <trkpt lat="46.3251" lon="6.56462">
        <ele>748.8</ele>
        <time>2021-04-03T13:44:20Z</time>
      </trkpt>
      <trkpt lat="46.32507" lon="6.56464">
        <ele>749.2</ele>
        <time>2021-04-03T13:44:21Z</time>
      </trkpt>
      <trkpt lat="46.32504" lon="6.56466">
        <ele>749.4</ele>
        <time>2021-04-03T13:44:22Z</time>
      </trkpt>
      <trkpt lat="46.32502" lon="6.56469">
        <ele>749.6</ele>
        <time>2021-04-03T13:44:23Z</time>
      </trkpt>
      <trkpt lat="46.32499" lon="6.56471">
        <ele>749.6</ele>
        <time>2021-04-03T13:44:24Z</time>
      </trkpt>
      <trkpt lat="46.32497" lon="6.56474">
        <ele>750</ele>
        <time>2021-04-03T13:44:25Z</time>
      </trkpt>
      <trkpt lat="46.32494" lon="6.56476">
        <ele>750.2</ele>
        <time>2021-04-03T13:44:26Z</time>
      </trkpt>
      <trkpt lat="46.32491" lon="6.56478">
        <ele>750.6</ele>
        <time>2021-04-03T13:44:27Z</time>
      </trkpt>
      <trkpt lat="46.32489" lon="6.56481">
        <ele>750.8</ele>
        <time>2021-04-03T13:44:28Z</time>
      </trkpt>
      <trkpt lat="46.32486" lon="6.56483">
        <ele>751</ele>
        <time>2021-04-03T13:44:29Z</time>
      </trkpt>
      <trkpt lat="46.32484" lon="6.56486">
        <ele>751.2</ele>
        <time>2021-04-03T13:44:30Z</time>
      </trkpt>
      <trkpt lat="46.32481" lon="6.56488">
        <ele>751.4</ele>
        <time>2021-04-03T13:44:31Z</time>
      </trkpt>
      <trkpt lat="46.32479" lon="6.5649">
        <ele>751.6</ele>
        <time>2021-04-03T13:44:32Z</time>
      </trkpt>
      <trkpt lat="46.32476" lon="6.56492">
        <ele>751.6</ele>
        <time>2021-04-03T13:44:33Z</time>
      </trkpt>
      <trkpt lat="46.32473" lon="6.56495">
        <ele>752</ele>
        <time>2021-04-03T13:44:34Z</time>
      </trkpt>
      <trkpt lat="46.3247" lon="6.56497">
        <ele>752</ele>
        <time>2021-04-03T13:44:35Z</time>
      </trkpt>
      <trkpt lat="46.32468" lon="6.56499">
        <ele>752.2</ele>
        <time>2021-04-03T13:44:36Z</time>
      </trkpt>
      <trkpt lat="46.32465" lon="6.56501">
        <ele>752.4</ele>
        <time>2021-04-03T13:44:37Z</time>
      </trkpt>
      <trkpt lat="46.32462" lon="6.56503">
        <ele>752.6</ele>
        <time>2021-04-03T13:44:38Z</time>
      </trkpt>
      <trkpt lat="46.32459" lon="6.56505">
        <ele>752.8</ele>
        <time>2021-04-03T13:44:39Z</time>
      </trkpt>
      <trkpt lat="46.32455" lon="6.56506">
        <ele>753</ele>
        <time>2021-04-03T13:44:40Z</time>
      </trkpt>
      <trkpt lat="46.32452" lon="6.56507">
        <ele>753.4</ele>
        <time>2021-04-03T13:44:41Z</time>
      </trkpt>
      <trkpt lat="46.32448" lon="6.56508">
        <ele>753.6</ele>
        <time>2021-04-03T13:44:42Z</time>
      </trkpt>
      <trkpt lat="46.32445" lon="6.56509">
        <ele>753.6</ele>
        <time>2021-04-03T13:44:43Z</time>
      </trkpt>
      <trkpt lat="46.32441" lon="6.56509">
        <ele>754.2</ele>
        <time>2021-04-03T13:44:44Z</time>
      </trkpt>
      <trkpt lat="46.32438" lon="6.5651">
        <ele>754.6</ele>
        <time>2021-04-03T13:44:45Z</time>
      </trkpt>
      <trkpt lat="46.32434" lon="6.5651">
        <ele>754.6</ele>
        <time>2021-04-03T13:44:46Z</time>
      </trkpt>
      <trkpt lat="46.3243" lon="6.56511">
        <ele>755</ele>
        <time>2021-04-03T13:44:47Z</time>
      </trkpt>
      <trkpt lat="46.32427" lon="6.56511">
        <ele>755</ele>
        <time>2021-04-03T13:44:48Z</time>
      </trkpt>
      <trkpt lat="46.32424" lon="6.56511">
        <ele>755.2</ele>
        <time>2021-04-03T13:44:49Z</time>
      </trkpt>
      <trkpt lat="46.32421" lon="6.56511">
        <ele>755.2</ele>
        <time>2021-04-03T13:44:50Z</time>
      </trkpt>
      <trkpt lat="46.32418" lon="6.56511">
        <ele>755.4</ele>
        <time>2021-04-03T13:44:51Z</time>
      </trkpt>
      <trkpt lat="46.32414" lon="6.5651">
        <ele>755.6</ele>
        <time>2021-04-03T13:44:52Z</time>
      </trkpt>
      <trkpt lat="46.32411" lon="6.56509">
        <ele>756</ele>
        <time>2021-04-03T13:44:53Z</time>
      </trkpt>
      <trkpt lat="46.32408" lon="6.56507">
        <ele>756.2</ele>
        <time>2021-04-03T13:44:54Z</time>
      </trkpt>
      <trkpt lat="46.32405" lon="6.56505">
        <ele>756.4</ele>
        <time>2021-04-03T13:44:55Z</time>
      </trkpt>
      <trkpt lat="46.32402" lon="6.56503">
        <ele>756.6</ele>
        <time>2021-04-03T13:44:56Z</time>
      </trkpt>
      <trkpt lat="46.32399" lon="6.56501">
        <ele>756.6</ele>
        <time>2021-04-03T13:44:57Z</time>
      </trkpt>
      <trkpt lat="46.32397" lon="6.56498">
        <ele>756.8</ele>
        <time>2021-04-03T13:44:58Z</time>
      </trkpt>
      <trkpt lat="46.32395" lon="6.56496">
        <ele>757</ele>
        <time>2021-04-03T13:44:59Z</time>
      </trkpt>
      <trkpt lat="46.32392" lon="6.56494">
        <ele>757.2</ele>
        <time>2021-04-03T13:45:00Z</time>
      </trkpt>
      <trkpt lat="46.32389" lon="6.56492">
        <ele>757.2</ele>
        <time>2021-04-03T13:45:01Z</time>
      </trkpt>
      <trkpt lat="46.32386" lon="6.56491">
        <ele>757.4</ele>
        <time>2021-04-03T13:45:02Z</time>
      </trkpt>
      <trkpt lat="46.32383" lon="6.56489">
        <ele>757.6</ele>
        <time>2021-04-03T13:45:03Z</time>
      </trkpt>
      <trkpt lat="46.32379" lon="6.56488">
        <ele>757.8</ele>
        <time>2021-04-03T13:45:04Z</time>
      </trkpt>
      <trkpt lat="46.32377" lon="6.56485">
        <ele>758.2</ele>
        <time>2021-04-03T13:45:05Z</time>
      </trkpt>
      <trkpt lat="46.32374" lon="6.56483">
        <ele>758.4</ele>
        <time>2021-04-03T13:45:06Z</time>
      </trkpt>
      <trkpt lat="46.32371" lon="6.5648">
        <ele>758.4</ele>
        <time>2021-04-03T13:45:07Z</time>
      </trkpt>
      <trkpt lat="46.32368" lon="6.56477">
        <ele>758.8</ele>
        <time>2021-04-03T13:45:08Z</time>
      </trkpt>
      <trkpt lat="46.32365" lon="6.56474">
        <ele>758.8</ele>
        <time>2021-04-03T13:45:09Z</time>
      </trkpt>
      <trkpt lat="46.32362" lon="6.56471">
        <ele>758.8</ele>
        <time>2021-04-03T13:45:10Z</time>
      </trkpt>
      <trkpt lat="46.32359" lon="6.56468">
        <ele>758.8</ele>
        <time>2021-04-03T13:45:11Z</time>
      </trkpt>
      <trkpt lat="46.32357" lon="6.56465">
        <ele>758.8</ele>
        <time>2021-04-03T13:45:12Z</time>
      </trkpt>
      <trkpt lat="46.32354" lon="6.56463">
        <ele>759</ele>
        <time>2021-04-03T13:45:13Z</time>
      </trkpt>
      <trkpt lat="46.32352" lon="6.56461">
        <ele>758.8</ele>
        <time>2021-04-03T13:45:14Z</time>
      </trkpt>
      <trkpt lat="46.32349" lon="6.56458">
        <ele>759.2</ele>
        <time>2021-04-03T13:45:15Z</time>
      </trkpt>
      <trkpt lat="46.32347" lon="6.56455">
        <ele>759.2</ele>
        <time>2021-04-03T13:45:16Z</time>
      </trkpt>
      <trkpt lat="46.32344" lon="6.56452">
        <ele>759.2</ele>
        <time>2021-04-03T13:45:17Z</time>
      </trkpt>
      <trkpt lat="46.32342" lon="6.5645">
        <ele>759.4</ele>
        <time>2021-04-03T13:45:18Z</time>
      </trkpt>
      <trkpt lat="46.3234" lon="6.56447">
        <ele>759.4</ele>
        <time>2021-04-03T13:45:19Z</time>
      </trkpt>
      <trkpt lat="46.32337" lon="6.56444">
        <ele>759.6</ele>
        <time>2021-04-03T13:45:20Z</time>
      </trkpt>
      <trkpt lat="46.32335" lon="6.56441">
        <ele>760</ele>
        <time>2021-04-03T13:45:21Z</time>
      </trkpt>
      <trkpt lat="46.32333" lon="6.56438">
        <ele>760.2</ele>
        <time>2021-04-03T13:45:22Z</time>
      </trkpt>
      <trkpt lat="46.32331" lon="6.56435">
        <ele>760.4</ele>
        <time>2021-04-03T13:45:23Z</time>
      </trkpt>
      <trkpt lat="46.32328" lon="6.56433">
        <ele>760.6</ele>
        <time>2021-04-03T13:45:24Z</time>
      </trkpt>
      <trkpt lat="46.32326" lon="6.5643">
        <ele>760.8</ele>
        <time>2021-04-03T13:45:25Z</time>
      </trkpt>
      <trkpt lat="46.32323" lon="6.56427">
        <ele>760.8</ele>
        <time>2021-04-03T13:45:26Z</time>
      </trkpt>
      <trkpt lat="46.3232" lon="6.56424">
        <ele>761</ele>
        <time>2021-04-03T13:45:27Z</time>
      </trkpt>
      <trkpt lat="46.32318" lon="6.56422">
        <ele>761.2</ele>
        <time>2021-04-03T13:45:28Z</time>
      </trkpt>
      <trkpt lat="46.32315" lon="6.56419">
        <ele>761.4</ele>
        <time>2021-04-03T13:45:29Z</time>
      </trkpt>
      <trkpt lat="46.32313" lon="6.56417">
        <ele>761.8</ele>
        <time>2021-04-03T13:45:30Z</time>
      </trkpt>
      <trkpt lat="46.3231" lon="6.56414">
        <ele>761.8</ele>
        <time>2021-04-03T13:45:31Z</time>
      </trkpt>
      <trkpt lat="46.32308" lon="6.56411">
        <ele>762.2</ele>
        <time>2021-04-03T13:45:32Z</time>
      </trkpt>
      <trkpt lat="46.32305" lon="6.56408">
        <ele>762.2</ele>
        <time>2021-04-03T13:45:33Z</time>
      </trkpt>
      <trkpt lat="46.32303" lon="6.56405">
        <ele>762.6</ele>
        <time>2021-04-03T13:45:34Z</time>
      </trkpt>
      <trkpt lat="46.323" lon="6.56403">
        <ele>762.8</ele>
        <time>2021-04-03T13:45:35Z</time>
      </trkpt>
      <trkpt lat="46.32297" lon="6.56399">
        <ele>762.6</ele>
        <time>2021-04-03T13:45:36Z</time>
      </trkpt>
      <trkpt lat="46.32294" lon="6.56397">
        <ele>763</ele>
        <time>2021-04-03T13:45:37Z</time>
      </trkpt>
      <trkpt lat="46.32292" lon="6.56394">
        <ele>763.2</ele>
        <time>2021-04-03T13:45:38Z</time>
      </trkpt>
      <trkpt lat="46.32289" lon="6.56391">
        <ele>763.4</ele>
        <time>2021-04-03T13:45:39Z</time>
      </trkpt>
      <trkpt lat="46.32287" lon="6.56388">
        <ele>763.6</ele>
        <time>2021-04-03T13:45:40Z</time>
      </trkpt>
      <trkpt lat="46.32284" lon="6.56385">
        <ele>763.8</ele>
        <time>2021-04-03T13:45:41Z</time>
      </trkpt>
      <trkpt lat="46.32281" lon="6.56383">
        <ele>764</ele>
        <time>2021-04-03T13:45:42Z</time>
      </trkpt>
      <trkpt lat="46.32278" lon="6.56381">
        <ele>764</ele>
        <time>2021-04-03T13:45:43Z</time>
      </trkpt>
      <trkpt lat="46.32275" lon="6.56378">
        <ele>764.2</ele>
        <time>2021-04-03T13:45:44Z</time>
      </trkpt>
      <trkpt lat="46.32271" lon="6.56376">
        <ele>764.6</ele>
        <time>2021-04-03T13:45:45Z</time>
      </trkpt>
      <trkpt lat="46.32268" lon="6.56374">
        <ele>764.8</ele>
        <time>2021-04-03T13:45:46Z</time>
      </trkpt>
      <trkpt lat="46.32263" lon="6.56373">
        <ele>764.8</ele>
        <time>2021-04-03T13:45:47Z</time>
      </trkpt>
      <trkpt lat="46.32259" lon="6.56372">
        <ele>765</ele>
        <time>2021-04-03T13:45:48Z</time>
      </trkpt>
      <trkpt lat="46.32255" lon="6.56371">
        <ele>765.2</ele>
        <time>2021-04-03T13:45:49Z</time>
      </trkpt>
      <trkpt lat="46.32251" lon="6.5637">
        <ele>765.2</ele>
        <time>2021-04-03T13:45:50Z</time>
      </trkpt>
      <trkpt lat="46.32246" lon="6.56369">
        <ele>765.4</ele>
        <time>2021-04-03T13:45:51Z</time>
      </trkpt>
      <trkpt lat="46.32242" lon="6.56368">
        <ele>765.4</ele>
        <time>2021-04-03T13:45:52Z</time>
      </trkpt>
      <trkpt lat="46.32238" lon="6.56367">
        <ele>765.4</ele>
        <time>2021-04-03T13:45:53Z</time>
      </trkpt>
      <trkpt lat="46.32234" lon="6.56367">
        <ele>765.6</ele>
        <time>2021-04-03T13:45:54Z</time>
      </trkpt>
      <trkpt lat="46.3223" lon="6.56366">
        <ele>765.8</ele>
        <time>2021-04-03T13:45:55Z</time>
      </trkpt>
      <trkpt lat="46.32226" lon="6.56365">
        <ele>765.8</ele>
        <time>2021-04-03T13:45:56Z</time>
      </trkpt>
      <trkpt lat="46.32221" lon="6.56364">
        <ele>766</ele>
        <time>2021-04-03T13:45:57Z</time>
      </trkpt>
      <trkpt lat="46.32217" lon="6.56362">
        <ele>766</ele>
        <time>2021-04-03T13:45:58Z</time>
      </trkpt>
      <trkpt lat="46.32212" lon="6.5636">
        <ele>766</ele>
        <time>2021-04-03T13:45:59Z</time>
      </trkpt>
      <trkpt lat="46.32208" lon="6.56359">
        <ele>766.4</ele>
        <time>2021-04-03T13:46:00Z</time>
      </trkpt>
      <trkpt lat="46.32203" lon="6.56357">
        <ele>766.4</ele>
        <time>2021-04-03T13:46:01Z</time>
      </trkpt>
      <trkpt lat="46.32198" lon="6.56355">
        <ele>766.4</ele>
        <time>2021-04-03T13:46:02Z</time>
      </trkpt>
      <trkpt lat="46.32193" lon="6.56353">
        <ele>766.4</ele>
        <time>2021-04-03T13:46:03Z</time>
      </trkpt>
      <trkpt lat="46.32189" lon="6.56351">
        <ele>766.4</ele>
        <time>2021-04-03T13:46:04Z</time>
      </trkpt>
      <trkpt lat="46.32183" lon="6.56349">
        <ele>766.6</ele>
        <time>2021-04-03T13:46:05Z</time>
      </trkpt>
      <trkpt lat="46.32178" lon="6.56347">
        <ele>766.8</ele>
        <time>2021-04-03T13:46:06Z</time>
      </trkpt>
      <trkpt lat="46.32174" lon="6.56345">
        <ele>766.8</ele>
        <time>2021-04-03T13:46:07Z</time>
      </trkpt>
      <trkpt lat="46.32169" lon="6.56343">
        <ele>766.6</ele>
        <time>2021-04-03T13:46:08Z</time>
      </trkpt>
      <trkpt lat="46.32165" lon="6.56341">
        <ele>766.8</ele>
        <time>2021-04-03T13:46:09Z</time>
      </trkpt>
      <trkpt lat="46.3216" lon="6.56341">
        <ele>766.8</ele>
        <time>2021-04-03T13:46:10Z</time>
      </trkpt>
      <trkpt lat="46.32155" lon="6.5634">
        <ele>767</ele>
        <time>2021-04-03T13:46:11Z</time>
      </trkpt>
      <trkpt lat="46.32151" lon="6.56338">
        <ele>767.2</ele>
        <time>2021-04-03T13:46:12Z</time>
      </trkpt>
      <trkpt lat="46.32146" lon="6.56337">
        <ele>767.4</ele>
        <time>2021-04-03T13:46:13Z</time>
      </trkpt>
      <trkpt lat="46.32141" lon="6.56334">
        <ele>767.2</ele>
        <time>2021-04-03T13:46:14Z</time>
      </trkpt>
      <trkpt lat="46.32137" lon="6.56332">
        <ele>767.4</ele>
        <time>2021-04-03T13:46:15Z</time>
      </trkpt>
      <trkpt lat="46.32132" lon="6.5633">
        <ele>767.4</ele>
        <time>2021-04-03T13:46:16Z</time>
      </trkpt>
      <trkpt lat="46.32128" lon="6.56328">
        <ele>767.4</ele>
        <time>2021-04-03T13:46:17Z</time>
      </trkpt>
      <trkpt lat="46.32123" lon="6.56326">
        <ele>767.6</ele>
        <time>2021-04-03T13:46:18Z</time>
      </trkpt>
      <trkpt lat="46.32119" lon="6.56324">
        <ele>767.6</ele>
        <time>2021-04-03T13:46:19Z</time>
      </trkpt>
      <trkpt lat="46.32114" lon="6.56322">
        <ele>767.8</ele>
        <time>2021-04-03T13:46:20Z</time>
      </trkpt>
      <trkpt lat="46.3211" lon="6.5632">
        <ele>768</ele>
        <time>2021-04-03T13:46:21Z</time>
      </trkpt>
      <trkpt lat="46.32105" lon="6.56317">
        <ele>768</ele>
        <time>2021-04-03T13:46:22Z</time>
      </trkpt>
      <trkpt lat="46.321" lon="6.56315">
        <ele>768.4</ele>
        <time>2021-04-03T13:46:23Z</time>
      </trkpt>
      <trkpt lat="46.32095" lon="6.56312">
        <ele>768.4</ele>
        <time>2021-04-03T13:46:24Z</time>
      </trkpt>
      <trkpt lat="46.32091" lon="6.5631">
        <ele>768.6</ele>
        <time>2021-04-03T13:46:25Z</time>
      </trkpt>
      <trkpt lat="46.32086" lon="6.56309">
        <ele>768.6</ele>
        <time>2021-04-03T13:46:26Z</time>
      </trkpt>
      <trkpt lat="46.32081" lon="6.56307">
        <ele>768.8</ele>
        <time>2021-04-03T13:46:27Z</time>
      </trkpt>
      <trkpt lat="46.32076" lon="6.56304">
        <ele>768.6</ele>
        <time>2021-04-03T13:46:28Z</time>
      </trkpt>
      <trkpt lat="46.32072" lon="6.56302">
        <ele>768.8</ele>
        <time>2021-04-03T13:46:29Z</time>
      </trkpt>
      <trkpt lat="46.32067" lon="6.563">
        <ele>768.8</ele>
        <time>2021-04-03T13:46:30Z</time>
      </trkpt>
      <trkpt lat="46.32062" lon="6.563">
        <ele>768.8</ele>
        <time>2021-04-03T13:46:31Z</time>
      </trkpt>
      <trkpt lat="46.32058" lon="6.56297">
        <ele>768.8</ele>
        <time>2021-04-03T13:46:32Z</time>
      </trkpt>
      <trkpt lat="46.32053" lon="6.56294">
        <ele>769</ele>
        <time>2021-04-03T13:46:33Z</time>
      </trkpt>
      <trkpt lat="46.32049" lon="6.5629">
        <ele>769.2</ele>
        <time>2021-04-03T13:46:34Z</time>
      </trkpt>
      <trkpt lat="46.32045" lon="6.56287">
        <ele>769.2</ele>
        <time>2021-04-03T13:46:35Z</time>
      </trkpt>
      <trkpt lat="46.32041" lon="6.56283">
        <ele>769.2</ele>
        <time>2021-04-03T13:46:36Z</time>
      </trkpt>
      <trkpt lat="46.32038" lon="6.56279">
        <ele>769.4</ele>
        <time>2021-04-03T13:46:37Z</time>
      </trkpt>
      <trkpt lat="46.32034" lon="6.56274">
        <ele>769.2</ele>
        <time>2021-04-03T13:46:38Z</time>
      </trkpt>
      <trkpt lat="46.32031" lon="6.56269">
        <ele>769.4</ele>
        <time>2021-04-03T13:46:39Z</time>
      </trkpt>
      <trkpt lat="46.32027" lon="6.56263">
        <ele>769.2</ele>
        <time>2021-04-03T13:46:40Z</time>
      </trkpt>
      <trkpt lat="46.32023" lon="6.56258">
        <ele>769.4</ele>
        <time>2021-04-03T13:46:41Z</time>
      </trkpt>
      <trkpt lat="46.32019" lon="6.56253">
        <ele>769.4</ele>
        <time>2021-04-03T13:46:42Z</time>
      </trkpt>
      <trkpt lat="46.32016" lon="6.56248">
        <ele>769.8</ele>
        <time>2021-04-03T13:46:43Z</time>
      </trkpt>
      <trkpt lat="46.32012" lon="6.56243">
        <ele>769.8</ele>
        <time>2021-04-03T13:46:44Z</time>
      </trkpt>
      <trkpt lat="46.32009" lon="6.56239">
        <ele>770</ele>
        <time>2021-04-03T13:46:45Z</time>
      </trkpt>
      <trkpt lat="46.32006" lon="6.56235">
        <ele>770.2</ele>
        <time>2021-04-03T13:46:46Z</time>
      </trkpt>
      <trkpt lat="46.32002" lon="6.56231">
        <ele>770</ele>
        <time>2021-04-03T13:46:47Z</time>
      </trkpt>
      <trkpt lat="46.31999" lon="6.56226">
        <ele>770.4</ele>
        <time>2021-04-03T13:46:48Z</time>
      </trkpt>
      <trkpt lat="46.31996" lon="6.56221">
        <ele>770.4</ele>
        <time>2021-04-03T13:46:49Z</time>
      </trkpt>
      <trkpt lat="46.31992" lon="6.56216">
        <ele>770.4</ele>
        <time>2021-04-03T13:46:50Z</time>
      </trkpt>
      <trkpt lat="46.31988" lon="6.56212">
        <ele>770.6</ele>
        <time>2021-04-03T13:46:51Z</time>
      </trkpt>
      <trkpt lat="46.31985" lon="6.56207">
        <ele>770.6</ele>
        <time>2021-04-03T13:46:52Z</time>
      </trkpt>
      <trkpt lat="46.31982" lon="6.56202">
        <ele>770.8</ele>
        <time>2021-04-03T13:46:53Z</time>
      </trkpt>
      <trkpt lat="46.31978" lon="6.56198">
        <ele>771</ele>
        <time>2021-04-03T13:46:54Z</time>
      </trkpt>
      <trkpt lat="46.31974" lon="6.56193">
        <ele>771</ele>
        <time>2021-04-03T13:46:55Z</time>
      </trkpt>
      <trkpt lat="46.31971" lon="6.56189">
        <ele>771</ele>
        <time>2021-04-03T13:46:56Z</time>
      </trkpt>
      <trkpt lat="46.31967" lon="6.56184">
        <ele>771.2</ele>
        <time>2021-04-03T13:46:57Z</time>
      </trkpt>
      <trkpt lat="46.31963" lon="6.5618">
        <ele>771</ele>
        <time>2021-04-03T13:46:58Z</time>
      </trkpt>
      <trkpt lat="46.3196" lon="6.56176">
        <ele>771.2</ele>
        <time>2021-04-03T13:46:59Z</time>
      </trkpt>
      <trkpt lat="46.31955" lon="6.56172">
        <ele>771.2</ele>
        <time>2021-04-03T13:47:00Z</time>
      </trkpt>
      <trkpt lat="46.31951" lon="6.56168">
        <ele>771.4</ele>
        <time>2021-04-03T13:47:01Z</time>
      </trkpt>
      <trkpt lat="46.31947" lon="6.56164">
        <ele>771.4</ele>
        <time>2021-04-03T13:47:02Z</time>
      </trkpt>
      <trkpt lat="46.31943" lon="6.56159">
        <ele>771.6</ele>
        <time>2021-04-03T13:47:03Z</time>
      </trkpt>
      <trkpt lat="46.31939" lon="6.56155">
        <ele>771.4</ele>
        <time>2021-04-03T13:47:04Z</time>
      </trkpt>
      <trkpt lat="46.31935" lon="6.56151">
        <ele>771.6</ele>
        <time>2021-04-03T13:47:05Z</time>
      </trkpt>
      <trkpt lat="46.31932" lon="6.56148">
        <ele>771.6</ele>
        <time>2021-04-03T13:47:06Z</time>
      </trkpt>
      <trkpt lat="46.31928" lon="6.56143">
        <ele>771.6</ele>
        <time>2021-04-03T13:47:07Z</time>
      </trkpt>
      <trkpt lat="46.31924" lon="6.56139">
        <ele>771.6</ele>
        <time>2021-04-03T13:47:08Z</time>
      </trkpt>
      <trkpt lat="46.3192" lon="6.56134">
        <ele>771.6</ele>
        <time>2021-04-03T13:47:09Z</time>
      </trkpt>
      <trkpt lat="46.31917" lon="6.56129">
        <ele>771.8</ele>
        <time>2021-04-03T13:47:10Z</time>
      </trkpt>
      <trkpt lat="46.31914" lon="6.56124">
        <ele>771.8</ele>
        <time>2021-04-03T13:47:11Z</time>
      </trkpt>
      <trkpt lat="46.3191" lon="6.56119">
        <ele>772</ele>
        <time>2021-04-03T13:47:12Z</time>
      </trkpt>
      <trkpt lat="46.31906" lon="6.56115">
        <ele>772</ele>
        <time>2021-04-03T13:47:13Z</time>
      </trkpt>
      <trkpt lat="46.31903" lon="6.56109">
        <ele>772.4</ele>
        <time>2021-04-03T13:47:14Z</time>
      </trkpt>
      <trkpt lat="46.31899" lon="6.56104">
        <ele>772.4</ele>
        <time>2021-04-03T13:47:15Z</time>
      </trkpt>
      <trkpt lat="46.31895" lon="6.56098">
        <ele>772.4</ele>
        <time>2021-04-03T13:47:16Z</time>
      </trkpt>
      <trkpt lat="46.31891" lon="6.56091">
        <ele>772.6</ele>
        <time>2021-04-03T13:47:17Z</time>
      </trkpt>
      <trkpt lat="46.31888" lon="6.56085">
        <ele>772.6</ele>
        <time>2021-04-03T13:47:18Z</time>
      </trkpt>
      <trkpt lat="46.31885" lon="6.56078">
        <ele>772.6</ele>
        <time>2021-04-03T13:47:19Z</time>
      </trkpt>
      <trkpt lat="46.31882" lon="6.56072">
        <ele>772.6</ele>
        <time>2021-04-03T13:47:20Z</time>
      </trkpt>
      <trkpt lat="46.31878" lon="6.56066">
        <ele>772.6</ele>
        <time>2021-04-03T13:47:21Z</time>
      </trkpt>
      <trkpt lat="46.31874" lon="6.56061">
        <ele>772.6</ele>
        <time>2021-04-03T13:47:22Z</time>
      </trkpt>
      <trkpt lat="46.31871" lon="6.56057">
        <ele>772.6</ele>
        <time>2021-04-03T13:47:23Z</time>
      </trkpt>
      <trkpt lat="46.31867" lon="6.56052">
        <ele>772.6</ele>
        <time>2021-04-03T13:47:24Z</time>
      </trkpt>
      <trkpt lat="46.31863" lon="6.56048">
        <ele>772.8</ele>
        <time>2021-04-03T13:47:25Z</time>
      </trkpt>
      <trkpt lat="46.3186" lon="6.56044">
        <ele>772.6</ele>
        <time>2021-04-03T13:47:26Z</time>
      </trkpt>
      <trkpt lat="46.31856" lon="6.5604">
        <ele>772.8</ele>
        <time>2021-04-03T13:47:27Z</time>
      </trkpt>
      <trkpt lat="46.31853" lon="6.56037">
        <ele>772.6</ele>
        <time>2021-04-03T13:47:28Z</time>
      </trkpt>
      <trkpt lat="46.3185" lon="6.56034">
        <ele>772.8</ele>
        <time>2021-04-03T13:47:29Z</time>
      </trkpt>
      <trkpt lat="46.31846" lon="6.56031">
        <ele>772.8</ele>
        <time>2021-04-03T13:47:30Z</time>
      </trkpt>
      <trkpt lat="46.31842" lon="6.56028">
        <ele>773</ele>
        <time>2021-04-03T13:47:31Z</time>
      </trkpt>
      <trkpt lat="46.31838" lon="6.56025">
        <ele>772.8</ele>
        <time>2021-04-03T13:47:32Z</time>
      </trkpt>
      <trkpt lat="46.31833" lon="6.56022">
        <ele>773</ele>
        <time>2021-04-03T13:47:33Z</time>
      </trkpt>
      <trkpt lat="46.31829" lon="6.56019">
        <ele>773.2</ele>
        <time>2021-04-03T13:47:34Z</time>
      </trkpt>
      <trkpt lat="46.31825" lon="6.56016">
        <ele>773.2</ele>
        <time>2021-04-03T13:47:35Z</time>
      </trkpt>
      <trkpt lat="46.3182" lon="6.56013">
        <ele>773.2</ele>
        <time>2021-04-03T13:47:36Z</time>
      </trkpt>
      <trkpt lat="46.31816" lon="6.5601">
        <ele>773.2</ele>
        <time>2021-04-03T13:47:37Z</time>
      </trkpt>
      <trkpt lat="46.31811" lon="6.56008">
        <ele>773.2</ele>
        <time>2021-04-03T13:47:38Z</time>
      </trkpt>
      <trkpt lat="46.31806" lon="6.56005">
        <ele>773.4</ele>
        <time>2021-04-03T13:47:39Z</time>
      </trkpt>
      <trkpt lat="46.31801" lon="6.56002">
        <ele>773.2</ele>
        <time>2021-04-03T13:47:40Z</time>
      </trkpt>
      <trkpt lat="46.31797" lon="6.56">
        <ele>773.4</ele>
        <time>2021-04-03T13:47:41Z</time>
      </trkpt>
      <trkpt lat="46.31793" lon="6.55998">
        <ele>773.4</ele>
        <time>2021-04-03T13:47:42Z</time>
      </trkpt>
      <trkpt lat="46.31789" lon="6.55995">
        <ele>773.6</ele>
        <time>2021-04-03T13:47:43Z</time>
      </trkpt>
      <trkpt lat="46.31785" lon="6.55993">
        <ele>773.4</ele>
        <time>2021-04-03T13:47:44Z</time>
      </trkpt>
      <trkpt lat="46.31782" lon="6.5599">
        <ele>773.6</ele>
        <time>2021-04-03T13:47:45Z</time>
      </trkpt>
      <trkpt lat="46.31778" lon="6.55986">
        <ele>773.6</ele>
        <time>2021-04-03T13:47:46Z</time>
      </trkpt>
      <trkpt lat="46.31774" lon="6.55983">
        <ele>773.8</ele>
        <time>2021-04-03T13:47:47Z</time>
      </trkpt>
      <trkpt lat="46.3177" lon="6.55981">
        <ele>773.8</ele>
        <time>2021-04-03T13:47:48Z</time>
      </trkpt>
      <trkpt lat="46.31766" lon="6.55978">
        <ele>773.8</ele>
        <time>2021-04-03T13:47:49Z</time>
      </trkpt>
      <trkpt lat="46.31762" lon="6.55974">
        <ele>773.8</ele>
        <time>2021-04-03T13:47:50Z</time>
      </trkpt>
      <trkpt lat="46.31758" lon="6.5597">
        <ele>773.8</ele>
        <time>2021-04-03T13:47:51Z</time>
      </trkpt>
      <trkpt lat="46.31754" lon="6.55966">
        <ele>773.8</ele>
        <time>2021-04-03T13:47:52Z</time>
      </trkpt>
      <trkpt lat="46.31749" lon="6.55962">
        <ele>774</ele>
        <time>2021-04-03T13:47:53Z</time>
      </trkpt>
      <trkpt lat="46.31745" lon="6.55958">
        <ele>774</ele>
        <time>2021-04-03T13:47:54Z</time>
      </trkpt>
      <trkpt lat="46.3174" lon="6.55954">
        <ele>774.2</ele>
        <time>2021-04-03T13:47:55Z</time>
      </trkpt>
      <trkpt lat="46.31734" lon="6.55949">
        <ele>774</ele>
        <time>2021-04-03T13:47:56Z</time>
      </trkpt>
      <trkpt lat="46.3173" lon="6.55945">
        <ele>774</ele>
        <time>2021-04-03T13:47:57Z</time>
      </trkpt>
      <trkpt lat="46.31726" lon="6.5594">
        <ele>774.2</ele>
        <time>2021-04-03T13:47:58Z</time>
      </trkpt>
      <trkpt lat="46.31722" lon="6.55935">
        <ele>774.2</ele>
        <time>2021-04-03T13:47:59Z</time>
      </trkpt>
      <trkpt lat="46.31718" lon="6.55931">
        <ele>774.2</ele>
        <time>2021-04-03T13:48:00Z</time>
      </trkpt>
      <trkpt lat="46.31715" lon="6.55926">
        <ele>774.4</ele>
        <time>2021-04-03T13:48:01Z</time>
      </trkpt>
      <trkpt lat="46.31709" lon="6.55922">
        <ele>774.4</ele>
        <time>2021-04-03T13:48:02Z</time>
      </trkpt>
      <trkpt lat="46.31705" lon="6.55917">
        <ele>774.4</ele>
        <time>2021-04-03T13:48:03Z</time>
      </trkpt>
      <trkpt lat="46.31701" lon="6.55912">
        <ele>774.4</ele>
        <time>2021-04-03T13:48:04Z</time>
      </trkpt>
      <trkpt lat="46.31696" lon="6.55906">
        <ele>774.4</ele>
        <time>2021-04-03T13:48:05Z</time>
      </trkpt>
      <trkpt lat="46.31693" lon="6.55901">
        <ele>774.6</ele>
        <time>2021-04-03T13:48:06Z</time>
      </trkpt>
      <trkpt lat="46.3169" lon="6.55894">
        <ele>774.6</ele>
        <time>2021-04-03T13:48:07Z</time>
      </trkpt>
      <trkpt lat="46.31686" lon="6.55888">
        <ele>774.8</ele>
        <time>2021-04-03T13:48:08Z</time>
      </trkpt>
      <trkpt lat="46.31683" lon="6.55882">
        <ele>775</ele>
        <time>2021-04-03T13:48:09Z</time>
      </trkpt>
      <trkpt lat="46.31679" lon="6.55875">
        <ele>775</ele>
        <time>2021-04-03T13:48:10Z</time>
      </trkpt>
      <trkpt lat="46.31676" lon="6.55869">
        <ele>775</ele>
        <time>2021-04-03T13:48:11Z</time>
      </trkpt>
      <trkpt lat="46.31673" lon="6.55862">
        <ele>775.2</ele>
        <time>2021-04-03T13:48:12Z</time>
      </trkpt>
      <trkpt lat="46.31669" lon="6.55855">
        <ele>775.2</ele>
        <time>2021-04-03T13:48:13Z</time>
      </trkpt>
      <trkpt lat="46.31666" lon="6.55848">
        <ele>775.2</ele>
        <time>2021-04-03T13:48:14Z</time>
      </trkpt>
      <trkpt lat="46.31663" lon="6.55842">
        <ele>775.4</ele>
        <time>2021-04-03T13:48:15Z</time>
      </trkpt>
      <trkpt lat="46.31659" lon="6.55836">
        <ele>775.4</ele>
        <time>2021-04-03T13:48:16Z</time>
      </trkpt>
      <trkpt lat="46.31655" lon="6.5583">
        <ele>775.6</ele>
        <time>2021-04-03T13:48:17Z</time>
      </trkpt>
      <trkpt lat="46.31651" lon="6.55824">
        <ele>775.4</ele>
        <time>2021-04-03T13:48:18Z</time>
      </trkpt>
      <trkpt lat="46.31648" lon="6.55818">
        <ele>775.4</ele>
        <time>2021-04-03T13:48:19Z</time>
      </trkpt>
      <trkpt lat="46.31644" lon="6.55812">
        <ele>775.8</ele>
        <time>2021-04-03T13:48:20Z</time>
      </trkpt>
      <trkpt lat="46.31641" lon="6.55806">
        <ele>775.8</ele>
        <time>2021-04-03T13:48:21Z</time>
      </trkpt>
      <trkpt lat="46.31638" lon="6.558">
        <ele>775.6</ele>
        <time>2021-04-03T13:48:22Z</time>
      </trkpt>
      <trkpt lat="46.31635" lon="6.55793">
        <ele>775.6</ele>
        <time>2021-04-03T13:48:23Z</time>
      </trkpt>
      <trkpt lat="46.31631" lon="6.55787">
        <ele>775.6</ele>
        <time>2021-04-03T13:48:24Z</time>
      </trkpt>
      <trkpt lat="46.31627" lon="6.55782">
        <ele>776</ele>
        <time>2021-04-03T13:48:25Z</time>
      </trkpt>
      <trkpt lat="46.31624" lon="6.55776">
        <ele>775.8</ele>
        <time>2021-04-03T13:48:26Z</time>
      </trkpt>
      <trkpt lat="46.31621" lon="6.55769">
        <ele>776</ele>
        <time>2021-04-03T13:48:27Z</time>
      </trkpt>
      <trkpt lat="46.31618" lon="6.55763">
        <ele>776</ele>
        <time>2021-04-03T13:48:28Z</time>
      </trkpt>
      <trkpt lat="46.31616" lon="6.55756">
        <ele>776.2</ele>
        <time>2021-04-03T13:48:29Z</time>
      </trkpt>
      <trkpt lat="46.31612" lon="6.55749">
        <ele>776.2</ele>
        <time>2021-04-03T13:48:30Z</time>
      </trkpt>
      <trkpt lat="46.3161" lon="6.55742">
        <ele>776.2</ele>
        <time>2021-04-03T13:48:31Z</time>
      </trkpt>
      <trkpt lat="46.31606" lon="6.55736">
        <ele>776.2</ele>
        <time>2021-04-03T13:48:32Z</time>
      </trkpt>
      <trkpt lat="46.31603" lon="6.55729">
        <ele>776.4</ele>
        <time>2021-04-03T13:48:33Z</time>
      </trkpt>
      <trkpt lat="46.316" lon="6.55722">
        <ele>776.4</ele>
        <time>2021-04-03T13:48:34Z</time>
      </trkpt>
      <trkpt lat="46.31597" lon="6.55716">
        <ele>776.4</ele>
        <time>2021-04-03T13:48:35Z</time>
      </trkpt>
      <trkpt lat="46.31593" lon="6.55709">
        <ele>776.4</ele>
        <time>2021-04-03T13:48:36Z</time>
      </trkpt>
      <trkpt lat="46.3159" lon="6.55704">
        <ele>776.4</ele>
        <time>2021-04-03T13:48:37Z</time>
      </trkpt>
      <trkpt lat="46.31586" lon="6.55698">
        <ele>776.4</ele>
        <time>2021-04-03T13:48:38Z</time>
      </trkpt>
      <trkpt lat="46.31583" lon="6.55692">
        <ele>776.6</ele>
        <time>2021-04-03T13:48:39Z</time>
      </trkpt>
      <trkpt lat="46.31579" lon="6.55687">
        <ele>776.6</ele>
        <time>2021-04-03T13:48:40Z</time>
      </trkpt>
      <trkpt lat="46.31574" lon="6.55681">
        <ele>776.6</ele>
        <time>2021-04-03T13:48:41Z</time>
      </trkpt>
      <trkpt lat="46.31571" lon="6.55675">
        <ele>776.8</ele>
        <time>2021-04-03T13:48:42Z</time>
      </trkpt>
      <trkpt lat="46.31567" lon="6.55669">
        <ele>776.6</ele>
        <time>2021-04-03T13:48:43Z</time>
      </trkpt>
      <trkpt lat="46.31563" lon="6.55663">
        <ele>776.8</ele>
        <time>2021-04-03T13:48:44Z</time>
      </trkpt>
      <trkpt lat="46.3156" lon="6.55657">
        <ele>776.8</ele>
        <time>2021-04-03T13:48:45Z</time>
      </trkpt>
      <trkpt lat="46.31556" lon="6.55651">
        <ele>777</ele>
        <time>2021-04-03T13:48:46Z</time>
      </trkpt>
      <trkpt lat="46.31553" lon="6.55645">
        <ele>777</ele>
        <time>2021-04-03T13:48:47Z</time>
      </trkpt>
      <trkpt lat="46.31549" lon="6.55638">
        <ele>777</ele>
        <time>2021-04-03T13:48:48Z</time>
      </trkpt>
      <trkpt lat="46.31545" lon="6.55632">
        <ele>777</ele>
        <time>2021-04-03T13:48:49Z</time>
      </trkpt>
      <trkpt lat="46.31541" lon="6.55626">
        <ele>777</ele>
        <time>2021-04-03T13:48:50Z</time>
      </trkpt>
      <trkpt lat="46.31537" lon="6.55621">
        <ele>776.8</ele>
        <time>2021-04-03T13:48:51Z</time>
      </trkpt>
      <trkpt lat="46.31533" lon="6.55615">
        <ele>777</ele>
        <time>2021-04-03T13:48:52Z</time>
      </trkpt>
      <trkpt lat="46.31529" lon="6.5561">
        <ele>777.2</ele>
        <time>2021-04-03T13:48:53Z</time>
      </trkpt>
      <trkpt lat="46.31525" lon="6.55604">
        <ele>777</ele>
        <time>2021-04-03T13:48:54Z</time>
      </trkpt>
      <trkpt lat="46.3152" lon="6.55599">
        <ele>777.2</ele>
        <time>2021-04-03T13:48:55Z</time>
      </trkpt>
      <trkpt lat="46.31516" lon="6.55594">
        <ele>777</ele>
        <time>2021-04-03T13:48:56Z</time>
      </trkpt>
      <trkpt lat="46.31511" lon="6.55589">
        <ele>777</ele>
        <time>2021-04-03T13:48:57Z</time>
      </trkpt>
      <trkpt lat="46.31506" lon="6.55584">
        <ele>777.2</ele>
        <time>2021-04-03T13:48:58Z</time>
      </trkpt>
      <trkpt lat="46.31502" lon="6.55579">
        <ele>777</ele>
        <time>2021-04-03T13:48:59Z</time>
      </trkpt>
      <trkpt lat="46.31497" lon="6.55574">
        <ele>777.2</ele>
        <time>2021-04-03T13:49:00Z</time>
      </trkpt>
      <trkpt lat="46.31493" lon="6.55568">
        <ele>777.2</ele>
        <time>2021-04-03T13:49:01Z</time>
      </trkpt>
      <trkpt lat="46.31488" lon="6.55563">
        <ele>777.2</ele>
        <time>2021-04-03T13:49:02Z</time>
      </trkpt>
      <trkpt lat="46.31484" lon="6.55558">
        <ele>777.2</ele>
        <time>2021-04-03T13:49:03Z</time>
      </trkpt>
      <trkpt lat="46.31479" lon="6.55553">
        <ele>777.4</ele>
        <time>2021-04-03T13:49:04Z</time>
      </trkpt>
      <trkpt lat="46.31475" lon="6.55548">
        <ele>777.2</ele>
        <time>2021-04-03T13:49:05Z</time>
      </trkpt>
      <trkpt lat="46.31471" lon="6.55543">
        <ele>777.2</ele>
        <time>2021-04-03T13:49:06Z</time>
      </trkpt>
      <trkpt lat="46.31467" lon="6.55538">
        <ele>777.4</ele>
        <time>2021-04-03T13:49:07Z</time>
      </trkpt>
      <trkpt lat="46.31462" lon="6.55534">
        <ele>777.2</ele>
        <time>2021-04-03T13:49:08Z</time>
      </trkpt>
      <trkpt lat="46.31458" lon="6.5553">
        <ele>777.4</ele>
        <time>2021-04-03T13:49:09Z</time>
      </trkpt>
      <trkpt lat="46.31453" lon="6.55525">
        <ele>777.4</ele>
        <time>2021-04-03T13:49:10Z</time>
      </trkpt>
      <trkpt lat="46.31449" lon="6.55521">
        <ele>777.4</ele>
        <time>2021-04-03T13:49:11Z</time>
      </trkpt>
      <trkpt lat="46.31444" lon="6.55516">
        <ele>777.4</ele>
        <time>2021-04-03T13:49:12Z</time>
      </trkpt>
      <trkpt lat="46.31439" lon="6.55512">
        <ele>777.4</ele>
        <time>2021-04-03T13:49:13Z</time>
      </trkpt>
      <trkpt lat="46.31434" lon="6.55509">
        <ele>777.6</ele>
        <time>2021-04-03T13:49:14Z</time>
      </trkpt>
      <trkpt lat="46.31429" lon="6.55506">
        <ele>777.6</ele>
        <time>2021-04-03T13:49:15Z</time>
      </trkpt>
      <trkpt lat="46.31424" lon="6.55503">
        <ele>777.6</ele>
        <time>2021-04-03T13:49:16Z</time>
      </trkpt>
      <trkpt lat="46.31419" lon="6.555">
        <ele>777.8</ele>
        <time>2021-04-03T13:49:17Z</time>
      </trkpt>
      <trkpt lat="46.31414" lon="6.55495">
        <ele>777.8</ele>
        <time>2021-04-03T13:49:18Z</time>
      </trkpt>
      <trkpt lat="46.31408" lon="6.55491">
        <ele>778</ele>
        <time>2021-04-03T13:49:19Z</time>
      </trkpt>
      <trkpt lat="46.31403" lon="6.55487">
        <ele>778</ele>
        <time>2021-04-03T13:49:20Z</time>
      </trkpt>
      <trkpt lat="46.31398" lon="6.55482">
        <ele>778.2</ele>
        <time>2021-04-03T13:49:21Z</time>
      </trkpt>
      <trkpt lat="46.31393" lon="6.55476">
        <ele>778.4</ele>
        <time>2021-04-03T13:49:22Z</time>
      </trkpt>
      <trkpt lat="46.31388" lon="6.5547">
        <ele>778.4</ele>
        <time>2021-04-03T13:49:23Z</time>
      </trkpt>
      <trkpt lat="46.31384" lon="6.55464">
        <ele>778.4</ele>
        <time>2021-04-03T13:49:24Z</time>
      </trkpt>
      <trkpt lat="46.31379" lon="6.55457">
        <ele>778.4</ele>
        <time>2021-04-03T13:49:25Z</time>
      </trkpt>
      <trkpt lat="46.31375" lon="6.5545">
        <ele>778.4</ele>
        <time>2021-04-03T13:49:26Z</time>
      </trkpt>
      <trkpt lat="46.31371" lon="6.55444">
        <ele>778.6</ele>
        <time>2021-04-03T13:49:27Z</time>
      </trkpt>
      <trkpt lat="46.31366" lon="6.55438">
        <ele>778.8</ele>
        <time>2021-04-03T13:49:28Z</time>
      </trkpt>
      <trkpt lat="46.31361" lon="6.55432">
        <ele>778.8</ele>
        <time>2021-04-03T13:49:29Z</time>
      </trkpt>
      <trkpt lat="46.31356" lon="6.55427">
        <ele>778.8</ele>
        <time>2021-04-03T13:49:30Z</time>
      </trkpt>
      <trkpt lat="46.31351" lon="6.55421">
        <ele>778.8</ele>
        <time>2021-04-03T13:49:31Z</time>
      </trkpt>
      <trkpt lat="46.31346" lon="6.55416">
        <ele>778.8</ele>
        <time>2021-04-03T13:49:32Z</time>
      </trkpt>
      <trkpt lat="46.31341" lon="6.55411">
        <ele>779</ele>
        <time>2021-04-03T13:49:33Z</time>
      </trkpt>
      <trkpt lat="46.31337" lon="6.55406">
        <ele>779</ele>
        <time>2021-04-03T13:49:34Z</time>
      </trkpt>
      <trkpt lat="46.31332" lon="6.55401">
        <ele>779.2</ele>
        <time>2021-04-03T13:49:35Z</time>
      </trkpt>
      <trkpt lat="46.31327" lon="6.55395">
        <ele>779.2</ele>
        <time>2021-04-03T13:49:36Z</time>
      </trkpt>
      <trkpt lat="46.31323" lon="6.5539">
        <ele>779</ele>
        <time>2021-04-03T13:49:37Z</time>
      </trkpt>
      <trkpt lat="46.31318" lon="6.55385">
        <ele>779.4</ele>
        <time>2021-04-03T13:49:38Z</time>
      </trkpt>
      <trkpt lat="46.31313" lon="6.5538">
        <ele>779.4</ele>
        <time>2021-04-03T13:49:39Z</time>
      </trkpt>
      <trkpt lat="46.31309" lon="6.55375">
        <ele>779.4</ele>
        <time>2021-04-03T13:49:40Z</time>
      </trkpt>
      <trkpt lat="46.31304" lon="6.55369">
        <ele>779.4</ele>
        <time>2021-04-03T13:49:41Z</time>
      </trkpt>
      <trkpt lat="46.313" lon="6.55363">
        <ele>779.4</ele>
        <time>2021-04-03T13:49:42Z</time>
      </trkpt>
      <trkpt lat="46.31296" lon="6.55357">
        <ele>779.4</ele>
        <time>2021-04-03T13:49:43Z</time>
      </trkpt>
      <trkpt lat="46.31292" lon="6.55351">
        <ele>779.4</ele>
        <time>2021-04-03T13:49:44Z</time>
      </trkpt>
      <trkpt lat="46.31288" lon="6.55345">
        <ele>779.6</ele>
        <time>2021-04-03T13:49:45Z</time>
      </trkpt>
      <trkpt lat="46.31284" lon="6.55339">
        <ele>779.6</ele>
        <time>2021-04-03T13:49:46Z</time>
      </trkpt>
      <trkpt lat="46.31279" lon="6.55334">
        <ele>779.8</ele>
        <time>2021-04-03T13:49:47Z</time>
      </trkpt>
      <trkpt lat="46.31275" lon="6.55328">
        <ele>780</ele>
        <time>2021-04-03T13:49:48Z</time>
      </trkpt>
      <trkpt lat="46.31272" lon="6.55321">
        <ele>780</ele>
        <time>2021-04-03T13:49:49Z</time>
      </trkpt>
      <trkpt lat="46.31268" lon="6.55315">
        <ele>780</ele>
        <time>2021-04-03T13:49:50Z</time>
      </trkpt>
      <trkpt lat="46.31265" lon="6.55308">
        <ele>780</ele>
        <time>2021-04-03T13:49:51Z</time>
      </trkpt>
      <trkpt lat="46.31262" lon="6.55301">
        <ele>780.2</ele>
        <time>2021-04-03T13:49:52Z</time>
      </trkpt>
      <trkpt lat="46.31259" lon="6.55295">
        <ele>780.2</ele>
        <time>2021-04-03T13:49:53Z</time>
      </trkpt>
      <trkpt lat="46.31255" lon="6.55289">
        <ele>780</ele>
        <time>2021-04-03T13:49:54Z</time>
      </trkpt>
      <trkpt lat="46.31252" lon="6.55283">
        <ele>780.2</ele>
        <time>2021-04-03T13:49:55Z</time>
      </trkpt>
      <trkpt lat="46.31249" lon="6.55278">
        <ele>780</ele>
        <time>2021-04-03T13:49:56Z</time>
      </trkpt>
      <trkpt lat="46.31245" lon="6.55272">
        <ele>780.2</ele>
        <time>2021-04-03T13:49:57Z</time>
      </trkpt>
      <trkpt lat="46.31242" lon="6.55266">
        <ele>780</ele>
        <time>2021-04-03T13:49:58Z</time>
      </trkpt>
      <trkpt lat="46.31238" lon="6.5526">
        <ele>780.2</ele>
        <time>2021-04-03T13:49:59Z</time>
      </trkpt>
      <trkpt lat="46.31234" lon="6.55255">
        <ele>780.2</ele>
        <time>2021-04-03T13:50:00Z</time>
      </trkpt>
      <trkpt lat="46.31231" lon="6.5525">
        <ele>780.2</ele>
        <time>2021-04-03T13:50:01Z</time>
      </trkpt>
      <trkpt lat="46.31227" lon="6.55245">
        <ele>780.2</ele>
        <time>2021-04-03T13:50:02Z</time>
      </trkpt>
      <trkpt lat="46.31223" lon="6.5524">
        <ele>780.2</ele>
        <time>2021-04-03T13:50:03Z</time>
      </trkpt>
      <trkpt lat="46.31218" lon="6.55234">
        <ele>780.4</ele>
        <time>2021-04-03T13:50:04Z</time>
      </trkpt>
      <trkpt lat="46.31214" lon="6.55229">
        <ele>780.2</ele>
        <time>2021-04-03T13:50:05Z</time>
      </trkpt>
      <trkpt lat="46.31209" lon="6.55224">
        <ele>780.2</ele>
        <time>2021-04-03T13:50:06Z</time>
      </trkpt>
      <trkpt lat="46.31205" lon="6.5522">
        <ele>780.4</ele>
        <time>2021-04-03T13:50:07Z</time>
      </trkpt>
      <trkpt lat="46.312" lon="6.55217">
        <ele>780.6</ele>
        <time>2021-04-03T13:50:08Z</time>
      </trkpt>
      <trkpt lat="46.31195" lon="6.55213">
        <ele>780.6</ele>
        <time>2021-04-03T13:50:09Z</time>
      </trkpt>
      <trkpt lat="46.3119" lon="6.55209">
        <ele>780.6</ele>
        <time>2021-04-03T13:50:10Z</time>
      </trkpt>
      <trkpt lat="46.31185" lon="6.55205">
        <ele>780.8</ele>
        <time>2021-04-03T13:50:11Z</time>
      </trkpt>
      <trkpt lat="46.31181" lon="6.552">
        <ele>780.8</ele>
        <time>2021-04-03T13:50:12Z</time>
      </trkpt>
      <trkpt lat="46.31176" lon="6.55196">
        <ele>780.8</ele>
        <time>2021-04-03T13:50:13Z</time>
      </trkpt>
      <trkpt lat="46.31171" lon="6.5519">
        <ele>781</ele>
        <time>2021-04-03T13:50:14Z</time>
      </trkpt>
      <trkpt lat="46.31166" lon="6.55185">
        <ele>781</ele>
        <time>2021-04-03T13:50:15Z</time>
      </trkpt>
      <trkpt lat="46.31161" lon="6.5518">
        <ele>781</ele>
        <time>2021-04-03T13:50:16Z</time>
      </trkpt>
      <trkpt lat="46.31156" lon="6.55175">
        <ele>781.2</ele>
        <time>2021-04-03T13:50:17Z</time>
      </trkpt>
      <trkpt lat="46.31151" lon="6.55171">
        <ele>781.2</ele>
        <time>2021-04-03T13:50:18Z</time>
      </trkpt>
      <trkpt lat="46.31146" lon="6.55165">
        <ele>781</ele>
        <time>2021-04-03T13:50:19Z</time>
      </trkpt>
      <trkpt lat="46.31141" lon="6.5516">
        <ele>781</ele>
        <time>2021-04-03T13:50:20Z</time>
      </trkpt>
      <trkpt lat="46.31136" lon="6.55156">
        <ele>781.2</ele>
        <time>2021-04-03T13:50:21Z</time>
      </trkpt>
      <trkpt lat="46.31131" lon="6.55151">
        <ele>781.2</ele>
        <time>2021-04-03T13:50:22Z</time>
      </trkpt>
      <trkpt lat="46.31126" lon="6.55147">
        <ele>781.4</ele>
        <time>2021-04-03T13:50:23Z</time>
      </trkpt>
      <trkpt lat="46.3112" lon="6.55143">
        <ele>781.4</ele>
        <time>2021-04-03T13:50:24Z</time>
      </trkpt>
      <trkpt lat="46.31115" lon="6.55138">
        <ele>781.2</ele>
        <time>2021-04-03T13:50:25Z</time>
      </trkpt>
      <trkpt lat="46.31109" lon="6.55134">
        <ele>781.2</ele>
        <time>2021-04-03T13:50:26Z</time>
      </trkpt>
      <trkpt lat="46.31104" lon="6.55129">
        <ele>781.4</ele>
        <time>2021-04-03T13:50:27Z</time>
      </trkpt>
      <trkpt lat="46.31099" lon="6.55124">
        <ele>781.2</ele>
        <time>2021-04-03T13:50:28Z</time>
      </trkpt>
      <trkpt lat="46.31094" lon="6.55119">
        <ele>781.2</ele>
        <time>2021-04-03T13:50:29Z</time>
      </trkpt>
      <trkpt lat="46.3109" lon="6.55113">
        <ele>781.4</ele>
        <time>2021-04-03T13:50:30Z</time>
      </trkpt>
      <trkpt lat="46.31085" lon="6.55108">
        <ele>781</ele>
        <time>2021-04-03T13:50:31Z</time>
      </trkpt>
      <trkpt lat="46.3108" lon="6.55103">
        <ele>781.2</ele>
        <time>2021-04-03T13:50:32Z</time>
      </trkpt>
      <trkpt lat="46.31075" lon="6.55097">
        <ele>781.2</ele>
        <time>2021-04-03T13:50:33Z</time>
      </trkpt>
      <trkpt lat="46.3107" lon="6.5509">
        <ele>781</ele>
        <time>2021-04-03T13:50:34Z</time>
      </trkpt>
      <trkpt lat="46.31066" lon="6.55083">
        <ele>781</ele>
        <time>2021-04-03T13:50:35Z</time>
      </trkpt>
      <trkpt lat="46.31062" lon="6.55075">
        <ele>781.2</ele>
        <time>2021-04-03T13:50:36Z</time>
      </trkpt>
      <trkpt lat="46.31059" lon="6.55068">
        <ele>781.2</ele>
        <time>2021-04-03T13:50:37Z</time>
      </trkpt>
      <trkpt lat="46.31055" lon="6.5506">
        <ele>781</ele>
        <time>2021-04-03T13:50:38Z</time>
      </trkpt>
      <trkpt lat="46.31052" lon="6.55052">
        <ele>781</ele>
        <time>2021-04-03T13:50:39Z</time>
      </trkpt>
      <trkpt lat="46.31049" lon="6.55044">
        <ele>781.2</ele>
        <time>2021-04-03T13:50:40Z</time>
      </trkpt>
      <trkpt lat="46.31046" lon="6.55036">
        <ele>781.2</ele>
        <time>2021-04-03T13:50:41Z</time>
      </trkpt>
      <trkpt lat="46.31044" lon="6.55027">
        <ele>781.2</ele>
        <time>2021-04-03T13:50:42Z</time>
      </trkpt>
      <trkpt lat="46.31041" lon="6.55018">
        <ele>781</ele>
        <time>2021-04-03T13:50:43Z</time>
      </trkpt>
      <trkpt lat="46.31039" lon="6.55009">
        <ele>781.2</ele>
        <time>2021-04-03T13:50:44Z</time>
      </trkpt>
      <trkpt lat="46.31037" lon="6.54999">
        <ele>781</ele>
        <time>2021-04-03T13:50:45Z</time>
      </trkpt>
      <trkpt lat="46.31036" lon="6.54988">
        <ele>781</ele>
        <time>2021-04-03T13:50:46Z</time>
      </trkpt>
      <trkpt lat="46.31034" lon="6.54978">
        <ele>780.8</ele>
        <time>2021-04-03T13:50:47Z</time>
      </trkpt>
      <trkpt lat="46.31033" lon="6.54967">
        <ele>781</ele>
        <time>2021-04-03T13:50:48Z</time>
      </trkpt>
      <trkpt lat="46.31032" lon="6.54956">
        <ele>781</ele>
        <time>2021-04-03T13:50:49Z</time>
      </trkpt>
      <trkpt lat="46.3103" lon="6.54945">
        <ele>780.8</ele>
        <time>2021-04-03T13:50:50Z</time>
      </trkpt>
      <trkpt lat="46.31028" lon="6.54934">
        <ele>780.8</ele>
        <time>2021-04-03T13:50:51Z</time>
      </trkpt>
      <trkpt lat="46.31026" lon="6.54923">
        <ele>780.8</ele>
        <time>2021-04-03T13:50:52Z</time>
      </trkpt>
      <trkpt lat="46.31024" lon="6.54912">
        <ele>780.6</ele>
        <time>2021-04-03T13:50:53Z</time>
      </trkpt>
      <trkpt lat="46.31021" lon="6.54901">
        <ele>780.4</ele>
        <time>2021-04-03T13:50:54Z</time>
      </trkpt>
      <trkpt lat="46.31017" lon="6.5489">
        <ele>780.2</ele>
        <time>2021-04-03T13:50:55Z</time>
      </trkpt>
      <trkpt lat="46.31013" lon="6.5488">
        <ele>780.2</ele>
        <time>2021-04-03T13:50:56Z</time>
      </trkpt>
      <trkpt lat="46.31009" lon="6.54869">
        <ele>779.8</ele>
        <time>2021-04-03T13:50:57Z</time>
      </trkpt>
      <trkpt lat="46.31003" lon="6.5486">
        <ele>779.8</ele>
        <time>2021-04-03T13:50:58Z</time>
      </trkpt>
      <trkpt lat="46.30996" lon="6.54852">
        <ele>779.4</ele>
        <time>2021-04-03T13:50:59Z</time>
      </trkpt>
      <trkpt lat="46.30989" lon="6.54844">
        <ele>779</ele>
        <time>2021-04-03T13:51:00Z</time>
      </trkpt>
      <trkpt lat="46.30981" lon="6.54837">
        <ele>778.8</ele>
        <time>2021-04-03T13:51:01Z</time>
      </trkpt>
      <trkpt lat="46.30974" lon="6.54831">
        <ele>778.6</ele>
        <time>2021-04-03T13:51:02Z</time>
      </trkpt>
      <trkpt lat="46.30965" lon="6.54826">
        <ele>778.4</ele>
        <time>2021-04-03T13:51:03Z</time>
      </trkpt>
      <trkpt lat="46.30957" lon="6.54821">
        <ele>778.4</ele>
        <time>2021-04-03T13:51:04Z</time>
      </trkpt>
      <trkpt lat="46.30941" lon="6.54811">
        <ele>777.6</ele>
        <time>2021-04-03T13:51:06Z</time>
      </trkpt>
      <trkpt lat="46.30932" lon="6.54807">
        <ele>777.4</ele>
        <time>2021-04-03T13:51:07Z</time>
      </trkpt>
      <trkpt lat="46.30924" lon="6.54805">
        <ele>777.2</ele>
        <time>2021-04-03T13:51:08Z</time>
      </trkpt>
      <trkpt lat="46.30914" lon="6.54805">
        <ele>776.6</ele>
        <time>2021-04-03T13:51:09Z</time>
      </trkpt>
      <trkpt lat="46.30906" lon="6.54809">
        <ele>776.2</ele>
        <time>2021-04-03T13:51:10Z</time>
      </trkpt>
      <trkpt lat="46.30898" lon="6.54814">
        <ele>775.6</ele>
        <time>2021-04-03T13:51:11Z</time>
      </trkpt>
      <trkpt lat="46.30891" lon="6.54822">
        <ele>775.2</ele>
        <time>2021-04-03T13:51:12Z</time>
      </trkpt>
      <trkpt lat="46.30885" lon="6.54831">
        <ele>775</ele>
        <time>2021-04-03T13:51:13Z</time>
      </trkpt>
      <trkpt lat="46.30879" lon="6.5484">
        <ele>774.8</ele>
        <time>2021-04-03T13:51:14Z</time>
      </trkpt>
      <trkpt lat="46.30873" lon="6.54848">
        <ele>774.2</ele>
        <time>2021-04-03T13:51:15Z</time>
      </trkpt>
      <trkpt lat="46.30866" lon="6.54855">
        <ele>773.4</ele>
        <time>2021-04-03T13:51:16Z</time>
      </trkpt>
      <trkpt lat="46.30858" lon="6.54859">
        <ele>772.8</ele>
        <time>2021-04-03T13:51:17Z</time>
      </trkpt>
      <trkpt lat="46.3085" lon="6.54861">
        <ele>772.4</ele>
        <time>2021-04-03T13:51:18Z</time>
      </trkpt>
      <trkpt lat="46.30841" lon="6.5486">
        <ele>772.4</ele>
        <time>2021-04-03T13:51:19Z</time>
      </trkpt>
      <trkpt lat="46.30833" lon="6.54858">
        <ele>772.2</ele>
        <time>2021-04-03T13:51:20Z</time>
      </trkpt>
      <trkpt lat="46.30824" lon="6.54856">
        <ele>772</ele>
        <time>2021-04-03T13:51:21Z</time>
      </trkpt>
      <trkpt lat="46.30815" lon="6.54853">
        <ele>772</ele>
        <time>2021-04-03T13:51:22Z</time>
      </trkpt>
      <trkpt lat="46.30805" lon="6.5485">
        <ele>771.8</ele>
        <time>2021-04-03T13:51:23Z</time>
      </trkpt>
      <trkpt lat="46.30796" lon="6.54847">
        <ele>771.6</ele>
        <time>2021-04-03T13:51:24Z</time>
      </trkpt>
      <trkpt lat="46.30787" lon="6.54844">
        <ele>771.6</ele>
        <time>2021-04-03T13:51:25Z</time>
      </trkpt>
      <trkpt lat="46.30778" lon="6.54842">
        <ele>771.6</ele>
        <time>2021-04-03T13:51:26Z</time>
      </trkpt>
      <trkpt lat="46.30768" lon="6.54839">
        <ele>771.6</ele>
        <time>2021-04-03T13:51:27Z</time>
      </trkpt>
      <trkpt lat="46.30759" lon="6.54837">
        <ele>771.6</ele>
        <time>2021-04-03T13:51:28Z</time>
      </trkpt>
      <trkpt lat="46.3075" lon="6.54833">
        <ele>771.8</ele>
        <time>2021-04-03T13:51:29Z</time>
      </trkpt>
      <trkpt lat="46.30741" lon="6.54828">
        <ele>771.6</ele>
        <time>2021-04-03T13:51:30Z</time>
      </trkpt>
      <trkpt lat="46.30732" lon="6.54822">
        <ele>771.4</ele>
        <time>2021-04-03T13:51:31Z</time>
      </trkpt>
      <trkpt lat="46.30724" lon="6.54815">
        <ele>771.4</ele>
        <time>2021-04-03T13:51:32Z</time>
      </trkpt>
      <trkpt lat="46.30716" lon="6.54807">
        <ele>771.4</ele>
        <time>2021-04-03T13:51:33Z</time>
      </trkpt>
      <trkpt lat="46.30707" lon="6.54799">
        <ele>771.4</ele>
        <time>2021-04-03T13:51:34Z</time>
      </trkpt>
      <trkpt lat="46.30699" lon="6.54791">
        <ele>771.2</ele>
        <time>2021-04-03T13:51:35Z</time>
      </trkpt>
      <trkpt lat="46.30691" lon="6.54782">
        <ele>771</ele>
        <time>2021-04-03T13:51:36Z</time>
      </trkpt>
      <trkpt lat="46.30683" lon="6.54774">
        <ele>771.2</ele>
        <time>2021-04-03T13:51:37Z</time>
      </trkpt>
      <trkpt lat="46.30675" lon="6.54765">
        <ele>771</ele>
        <time>2021-04-03T13:51:38Z</time>
      </trkpt>
      <trkpt lat="46.30667" lon="6.54756">
        <ele>771</ele>
        <time>2021-04-03T13:51:39Z</time>
      </trkpt>
      <trkpt lat="46.30659" lon="6.54747">
        <ele>771</ele>
        <time>2021-04-03T13:51:40Z</time>
      </trkpt>
      <trkpt lat="46.30651" lon="6.54737">
        <ele>770.8</ele>
        <time>2021-04-03T13:51:41Z</time>
      </trkpt>
      <trkpt lat="46.30643" lon="6.54728">
        <ele>770.8</ele>
        <time>2021-04-03T13:51:42Z</time>
      </trkpt>
      <trkpt lat="46.30635" lon="6.54718">
        <ele>770.6</ele>
        <time>2021-04-03T13:51:43Z</time>
      </trkpt>
      <trkpt lat="46.30627" lon="6.54709">
        <ele>770.4</ele>
        <time>2021-04-03T13:51:44Z</time>
      </trkpt>
      <trkpt lat="46.3062" lon="6.54699">
        <ele>770.4</ele>
        <time>2021-04-03T13:51:45Z</time>
      </trkpt>
      <trkpt lat="46.30613" lon="6.54688">
        <ele>770</ele>
        <time>2021-04-03T13:51:46Z</time>
      </trkpt>
      <trkpt lat="46.30607" lon="6.54676">
        <ele>769.8</ele>
        <time>2021-04-03T13:51:47Z</time>
      </trkpt>
      <trkpt lat="46.30604" lon="6.54662">
        <ele>769.6</ele>
        <time>2021-04-03T13:51:48Z</time>
      </trkpt>
      <trkpt lat="46.30602" lon="6.54647">
        <ele>769.4</ele>
        <time>2021-04-03T13:51:49Z</time>
      </trkpt>
      <trkpt lat="46.306" lon="6.54632">
        <ele>769</ele>
        <time>2021-04-03T13:51:50Z</time>
      </trkpt>
      <trkpt lat="46.30598" lon="6.54617">
        <ele>768.6</ele>
        <time>2021-04-03T13:51:51Z</time>
      </trkpt>
      <trkpt lat="46.30595" lon="6.54602">
        <ele>768.2</ele>
        <time>2021-04-03T13:51:52Z</time>
      </trkpt>
      <trkpt lat="46.3059" lon="6.54588">
        <ele>768</ele>
        <time>2021-04-03T13:51:53Z</time>
      </trkpt>
      <trkpt lat="46.30584" lon="6.54576">
        <ele>767.8</ele>
        <time>2021-04-03T13:51:54Z</time>
      </trkpt>
      <trkpt lat="46.30575" lon="6.54567">
        <ele>767.6</ele>
        <time>2021-04-03T13:51:55Z</time>
      </trkpt>
      <trkpt lat="46.30566" lon="6.54557">
        <ele>767.2</ele>
        <time>2021-04-03T13:51:56Z</time>
      </trkpt>
      <trkpt lat="46.30558" lon="6.54548">
        <ele>767</ele>
        <time>2021-04-03T13:51:57Z</time>
      </trkpt>
      <trkpt lat="46.30549" lon="6.54539">
        <ele>766.6</ele>
        <time>2021-04-03T13:51:58Z</time>
      </trkpt>
      <trkpt lat="46.30542" lon="6.54529">
        <ele>766.6</ele>
        <time>2021-04-03T13:51:59Z</time>
      </trkpt>
      <trkpt lat="46.30533" lon="6.5452">
        <ele>766.2</ele>
        <time>2021-04-03T13:52:00Z</time>
      </trkpt>
      <trkpt lat="46.30525" lon="6.54511">
        <ele>766</ele>
        <time>2021-04-03T13:52:01Z</time>
      </trkpt>
      <trkpt lat="46.30518" lon="6.54502">
        <ele>766</ele>
        <time>2021-04-03T13:52:02Z</time>
      </trkpt>
      <trkpt lat="46.30511" lon="6.54493">
        <ele>765.4</ele>
        <time>2021-04-03T13:52:03Z</time>
      </trkpt>
      <trkpt lat="46.30504" lon="6.54484">
        <ele>765.2</ele>
        <time>2021-04-03T13:52:04Z</time>
      </trkpt>
      <trkpt lat="46.30497" lon="6.54476">
        <ele>764.8</ele>
        <time>2021-04-03T13:52:05Z</time>
      </trkpt>
      <trkpt lat="46.30491" lon="6.54468">
        <ele>764.6</ele>
        <time>2021-04-03T13:52:06Z</time>
      </trkpt>
      <trkpt lat="46.30485" lon="6.54461">
        <ele>764.4</ele>
        <time>2021-04-03T13:52:07Z</time>
      </trkpt>
      <trkpt lat="46.30479" lon="6.54454">
        <ele>764.4</ele>
        <time>2021-04-03T13:52:08Z</time>
      </trkpt>
      <trkpt lat="46.30473" lon="6.54447">
        <ele>764.4</ele>
        <time>2021-04-03T13:52:09Z</time>
      </trkpt>
      <trkpt lat="46.30468" lon="6.54441">
        <ele>764.4</ele>
        <time>2021-04-03T13:52:10Z</time>
      </trkpt>
      <trkpt lat="46.30463" lon="6.54436">
        <ele>764.4</ele>
        <time>2021-04-03T13:52:11Z</time>
      </trkpt>
      <trkpt lat="46.30458" lon="6.54432">
        <ele>764.4</ele>
        <time>2021-04-03T13:52:12Z</time>
      </trkpt>
      <trkpt lat="46.30453" lon="6.54428">
        <ele>764.4</ele>
        <time>2021-04-03T13:52:13Z</time>
      </trkpt>
      <trkpt lat="46.3045" lon="6.54424">
        <ele>764.2</ele>
        <time>2021-04-03T13:52:14Z</time>
      </trkpt>
      <trkpt lat="46.30446" lon="6.5442">
        <ele>764.4</ele>
        <time>2021-04-03T13:52:15Z</time>
      </trkpt>
      <trkpt lat="46.30443" lon="6.54415">
        <ele>764.4</ele>
        <time>2021-04-03T13:52:16Z</time>
      </trkpt>
      <trkpt lat="46.3044" lon="6.5441">
        <ele>765</ele>
        <time>2021-04-03T13:52:17Z</time>
      </trkpt>
      <trkpt lat="46.30436" lon="6.54406">
        <ele>765.8</ele>
        <time>2021-04-03T13:52:18Z</time>
      </trkpt>
      <trkpt lat="46.30433" lon="6.54401">
        <ele>766</ele>
        <time>2021-04-03T13:52:19Z</time>
      </trkpt>
      <trkpt lat="46.3043" lon="6.54397">
        <ele>766.4</ele>
        <time>2021-04-03T13:52:20Z</time>
      </trkpt>
      <trkpt lat="46.30427" lon="6.54393">
        <ele>766.8</ele>
        <time>2021-04-03T13:52:21Z</time>
      </trkpt>
      <trkpt lat="46.30423" lon="6.54389">
        <ele>767.4</ele>
        <time>2021-04-03T13:52:22Z</time>
      </trkpt>
      <trkpt lat="46.3042" lon="6.54385">
        <ele>767.6</ele>
        <time>2021-04-03T13:52:23Z</time>
      </trkpt>
      <trkpt lat="46.30417" lon="6.5438">
        <ele>767.8</ele>
        <time>2021-04-03T13:52:24Z</time>
      </trkpt>
      <trkpt lat="46.30414" lon="6.54376">
        <ele>768</ele>
        <time>2021-04-03T13:52:25Z</time>
      </trkpt>
      <trkpt lat="46.30411" lon="6.54372">
        <ele>768.2</ele>
        <time>2021-04-03T13:52:26Z</time>
      </trkpt>
      <trkpt lat="46.30408" lon="6.54367">
        <ele>768.2</ele>
        <time>2021-04-03T13:52:27Z</time>
      </trkpt>
      <trkpt lat="46.30406" lon="6.54363">
        <ele>768.4</ele>
        <time>2021-04-03T13:52:28Z</time>
      </trkpt>
      <trkpt lat="46.30403" lon="6.54358">
        <ele>768.8</ele>
        <time>2021-04-03T13:52:29Z</time>
      </trkpt>
      <trkpt lat="46.304" lon="6.54353">
        <ele>769.2</ele>
        <time>2021-04-03T13:52:30Z</time>
      </trkpt>
      <trkpt lat="46.30398" lon="6.54349">
        <ele>769.4</ele>
        <time>2021-04-03T13:52:31Z</time>
      </trkpt>
      <trkpt lat="46.30396" lon="6.54344">
        <ele>769.8</ele>
        <time>2021-04-03T13:52:32Z</time>
      </trkpt>
      <trkpt lat="46.30393" lon="6.54339">
        <ele>770.2</ele>
        <time>2021-04-03T13:52:33Z</time>
      </trkpt>
      <trkpt lat="46.30391" lon="6.54334">
        <ele>770.6</ele>
        <time>2021-04-03T13:52:34Z</time>
      </trkpt>
      <trkpt lat="46.30389" lon="6.54329">
        <ele>771</ele>
        <time>2021-04-03T13:52:35Z</time>
      </trkpt>
      <trkpt lat="46.30387" lon="6.54324">
        <ele>771</ele>
        <time>2021-04-03T13:52:36Z</time>
      </trkpt>
      <trkpt lat="46.30386" lon="6.54318">
        <ele>771</ele>
        <time>2021-04-03T13:52:37Z</time>
      </trkpt>
      <trkpt lat="46.30384" lon="6.54312">
        <ele>771</ele>
        <time>2021-04-03T13:52:38Z</time>
      </trkpt>
      <trkpt lat="46.30381" lon="6.54305">
        <ele>771</ele>
        <time>2021-04-03T13:52:39Z</time>
      </trkpt>
      <trkpt lat="46.30379" lon="6.54298">
        <ele>771</ele>
        <time>2021-04-03T13:52:40Z</time>
      </trkpt>
      <trkpt lat="46.30377" lon="6.54291">
        <ele>771.2</ele>
        <time>2021-04-03T13:52:41Z</time>
      </trkpt>
      <trkpt lat="46.30375" lon="6.54283">
        <ele>771.2</ele>
        <time>2021-04-03T13:52:42Z</time>
      </trkpt>
      <trkpt lat="46.30371" lon="6.54277">
        <ele>771.2</ele>
        <time>2021-04-03T13:52:43Z</time>
      </trkpt>
      <trkpt lat="46.30368" lon="6.54269">
        <ele>771.2</ele>
        <time>2021-04-03T13:52:44Z</time>
      </trkpt>
      <trkpt lat="46.30366" lon="6.54261">
        <ele>771.2</ele>
        <time>2021-04-03T13:52:45Z</time>
      </trkpt>
      <trkpt lat="46.30363" lon="6.54253">
        <ele>771</ele>
        <time>2021-04-03T13:52:46Z</time>
      </trkpt>
      <trkpt lat="46.3036" lon="6.54245">
        <ele>771.2</ele>
        <time>2021-04-03T13:52:47Z</time>
      </trkpt>
      <trkpt lat="46.30357" lon="6.54237">
        <ele>771</ele>
        <time>2021-04-03T13:52:48Z</time>
      </trkpt>
      <trkpt lat="46.30354" lon="6.5423">
        <ele>771</ele>
        <time>2021-04-03T13:52:49Z</time>
      </trkpt>
      <trkpt lat="46.30349" lon="6.54225">
        <ele>770.8</ele>
        <time>2021-04-03T13:52:50Z</time>
      </trkpt>
      <trkpt lat="46.30344" lon="6.5422">
        <ele>770.6</ele>
        <time>2021-04-03T13:52:51Z</time>
      </trkpt>
      <trkpt lat="46.30338" lon="6.54216">
        <ele>770.4</ele>
        <time>2021-04-03T13:52:52Z</time>
      </trkpt>
      <trkpt lat="46.30332" lon="6.54212">
        <ele>769.8</ele>
        <time>2021-04-03T13:52:53Z</time>
      </trkpt>
      <trkpt lat="46.30326" lon="6.54209">
        <ele>769.4</ele>
        <time>2021-04-03T13:52:54Z</time>
      </trkpt>
      <trkpt lat="46.3032" lon="6.54207">
        <ele>769</ele>
        <time>2021-04-03T13:52:55Z</time>
      </trkpt>
      <trkpt lat="46.30314" lon="6.54205">
        <ele>768.8</ele>
        <time>2021-04-03T13:52:56Z</time>
      </trkpt>
      <trkpt lat="46.30307" lon="6.54202">
        <ele>769</ele>
        <time>2021-04-03T13:52:57Z</time>
      </trkpt>
      <trkpt lat="46.30301" lon="6.542">
        <ele>768.8</ele>
        <time>2021-04-03T13:52:58Z</time>
      </trkpt>
      <trkpt lat="46.30294" lon="6.54198">
        <ele>768.8</ele>
        <time>2021-04-03T13:52:59Z</time>
      </trkpt>
      <trkpt lat="46.30288" lon="6.54197">
        <ele>769</ele>
        <time>2021-04-03T13:53:00Z</time>
      </trkpt>
      <trkpt lat="46.30281" lon="6.54195">
        <ele>769</ele>
        <time>2021-04-03T13:53:01Z</time>
      </trkpt>
      <trkpt lat="46.30275" lon="6.54192">
        <ele>769</ele>
        <time>2021-04-03T13:53:02Z</time>
      </trkpt>
      <trkpt lat="46.3027" lon="6.54188">
        <ele>768.8</ele>
        <time>2021-04-03T13:53:03Z</time>
      </trkpt>
      <trkpt lat="46.30264" lon="6.54183">
        <ele>769</ele>
        <time>2021-04-03T13:53:04Z</time>
      </trkpt>
      <trkpt lat="46.3026" lon="6.54177">
        <ele>769</ele>
        <time>2021-04-03T13:53:05Z</time>
      </trkpt>
      <trkpt lat="46.30255" lon="6.5417">
        <ele>769</ele>
        <time>2021-04-03T13:53:06Z</time>
      </trkpt>
      <trkpt lat="46.30251" lon="6.54162">
        <ele>769.2</ele>
        <time>2021-04-03T13:53:07Z</time>
      </trkpt>
      <trkpt lat="46.30246" lon="6.54155">
        <ele>769.2</ele>
        <time>2021-04-03T13:53:08Z</time>
      </trkpt>
      <trkpt lat="46.30242" lon="6.54147">
        <ele>769.2</ele>
        <time>2021-04-03T13:53:09Z</time>
      </trkpt>
      <trkpt lat="46.30238" lon="6.5414">
        <ele>769.6</ele>
        <time>2021-04-03T13:53:10Z</time>
      </trkpt>
      <trkpt lat="46.30234" lon="6.54132">
        <ele>769.8</ele>
        <time>2021-04-03T13:53:11Z</time>
      </trkpt>
      <trkpt lat="46.30231" lon="6.54123">
        <ele>770</ele>
        <time>2021-04-03T13:53:12Z</time>
      </trkpt>
      <trkpt lat="46.30227" lon="6.54115">
        <ele>770.2</ele>
        <time>2021-04-03T13:53:13Z</time>
      </trkpt>
      <trkpt lat="46.30224" lon="6.54107">
        <ele>770.2</ele>
        <time>2021-04-03T13:53:14Z</time>
      </trkpt>
      <trkpt lat="46.30223" lon="6.54098">
        <ele>770.4</ele>
        <time>2021-04-03T13:53:15Z</time>
      </trkpt>
      <trkpt lat="46.30221" lon="6.5409">
        <ele>770.4</ele>
        <time>2021-04-03T13:53:16Z</time>
      </trkpt>
      <trkpt lat="46.30221" lon="6.54081">
        <ele>770.4</ele>
        <time>2021-04-03T13:53:17Z</time>
      </trkpt>
      <trkpt lat="46.30221" lon="6.54072">
        <ele>770.4</ele>
        <time>2021-04-03T13:53:18Z</time>
      </trkpt>
      <trkpt lat="46.30221" lon="6.54063">
        <ele>770.4</ele>
        <time>2021-04-03T13:53:19Z</time>
      </trkpt>
      <trkpt lat="46.30221" lon="6.54054">
        <ele>770.4</ele>
        <time>2021-04-03T13:53:20Z</time>
      </trkpt>
      <trkpt lat="46.30221" lon="6.54045">
        <ele>770.4</ele>
        <time>2021-04-03T13:53:21Z</time>
      </trkpt>
      <trkpt lat="46.30221" lon="6.54036">
        <ele>770.4</ele>
        <time>2021-04-03T13:53:22Z</time>
      </trkpt>
      <trkpt lat="46.30222" lon="6.54026">
        <ele>770.6</ele>
        <time>2021-04-03T13:53:23Z</time>
      </trkpt>
      <trkpt lat="46.30222" lon="6.54017">
        <ele>770.6</ele>
        <time>2021-04-03T13:53:24Z</time>
      </trkpt>
      <trkpt lat="46.30223" lon="6.54008">
        <ele>770.6</ele>
        <time>2021-04-03T13:53:25Z</time>
      </trkpt>
      <trkpt lat="46.30223" lon="6.53999">
        <ele>770.6</ele>
        <time>2021-04-03T13:53:26Z</time>
      </trkpt>
      <trkpt lat="46.30223" lon="6.5399">
        <ele>770.6</ele>
        <time>2021-04-03T13:53:27Z</time>
      </trkpt>
      <trkpt lat="46.30224" lon="6.5398">
        <ele>770.6</ele>
        <time>2021-04-03T13:53:28Z</time>
      </trkpt>
      <trkpt lat="46.30224" lon="6.53971">
        <ele>770.8</ele>
        <time>2021-04-03T13:53:29Z</time>
      </trkpt>
      <trkpt lat="46.30225" lon="6.53961">
        <ele>770.6</ele>
        <time>2021-04-03T13:53:30Z</time>
      </trkpt>
      <trkpt lat="46.30225" lon="6.53952">
        <ele>770.6</ele>
        <time>2021-04-03T13:53:31Z</time>
      </trkpt>
      <trkpt lat="46.30226" lon="6.53943">
        <ele>770.6</ele>
        <time>2021-04-03T13:53:32Z</time>
      </trkpt>
      <trkpt lat="46.30226" lon="6.53934">
        <ele>770.6</ele>
        <time>2021-04-03T13:53:33Z</time>
      </trkpt>
      <trkpt lat="46.30226" lon="6.53925">
        <ele>770.8</ele>
        <time>2021-04-03T13:53:34Z</time>
      </trkpt>
      <trkpt lat="46.30226" lon="6.53915">
        <ele>770.6</ele>
        <time>2021-04-03T13:53:35Z</time>
      </trkpt>
      <trkpt lat="46.30227" lon="6.53906">
        <ele>770.8</ele>
        <time>2021-04-03T13:53:36Z</time>
      </trkpt>
      <trkpt lat="46.30227" lon="6.53897">
        <ele>770.8</ele>
        <time>2021-04-03T13:53:37Z</time>
      </trkpt>
      <trkpt lat="46.30228" lon="6.53888">
        <ele>770.8</ele>
        <time>2021-04-03T13:53:38Z</time>
      </trkpt>
      <trkpt lat="46.30228" lon="6.53878">
        <ele>771</ele>
        <time>2021-04-03T13:53:39Z</time>
      </trkpt>
      <trkpt lat="46.30229" lon="6.53869">
        <ele>771</ele>
        <time>2021-04-03T13:53:40Z</time>
      </trkpt>
      <trkpt lat="46.30229" lon="6.53859">
        <ele>770.8</ele>
        <time>2021-04-03T13:53:41Z</time>
      </trkpt>
      <trkpt lat="46.30229" lon="6.5385">
        <ele>771</ele>
        <time>2021-04-03T13:53:42Z</time>
      </trkpt>
      <trkpt lat="46.3023" lon="6.5384">
        <ele>770.8</ele>
        <time>2021-04-03T13:53:43Z</time>
      </trkpt>
      <trkpt lat="46.3023" lon="6.53831">
        <ele>771</ele>
        <time>2021-04-03T13:53:44Z</time>
      </trkpt>
      <trkpt lat="46.3023" lon="6.53822">
        <ele>771</ele>
        <time>2021-04-03T13:53:45Z</time>
      </trkpt>
      <trkpt lat="46.30231" lon="6.53812">
        <ele>770.8</ele>
        <time>2021-04-03T13:53:46Z</time>
      </trkpt>
      <trkpt lat="46.30231" lon="6.53803">
        <ele>770.8</ele>
        <time>2021-04-03T13:53:47Z</time>
      </trkpt>
      <trkpt lat="46.30231" lon="6.53793">
        <ele>771</ele>
        <time>2021-04-03T13:53:48Z</time>
      </trkpt>
      <trkpt lat="46.30231" lon="6.53784">
        <ele>770.6</ele>
        <time>2021-04-03T13:53:49Z</time>
      </trkpt>
      <trkpt lat="46.30231" lon="6.53775">
        <ele>770.8</ele>
        <time>2021-04-03T13:53:50Z</time>
      </trkpt>
      <trkpt lat="46.30229" lon="6.53767">
        <ele>770.6</ele>
        <time>2021-04-03T13:53:51Z</time>
      </trkpt>
      <trkpt lat="46.30227" lon="6.5376">
        <ele>770.6</ele>
        <time>2021-04-03T13:53:52Z</time>
      </trkpt>
      <trkpt lat="46.30223" lon="6.53753">
        <ele>770.8</ele>
        <time>2021-04-03T13:53:53Z</time>
      </trkpt>
      <trkpt lat="46.30219" lon="6.53747">
        <ele>770.6</ele>
        <time>2021-04-03T13:53:54Z</time>
      </trkpt>
      <trkpt lat="46.30215" lon="6.53741">
        <ele>770.8</ele>
        <time>2021-04-03T13:53:55Z</time>
      </trkpt>
      <trkpt lat="46.30211" lon="6.53735">
        <ele>770.6</ele>
        <time>2021-04-03T13:53:56Z</time>
      </trkpt>
      <trkpt lat="46.30206" lon="6.53729">
        <ele>770.6</ele>
        <time>2021-04-03T13:53:57Z</time>
      </trkpt>
      <trkpt lat="46.30201" lon="6.53725">
        <ele>770.6</ele>
        <time>2021-04-03T13:53:58Z</time>
      </trkpt>
      <trkpt lat="46.30196" lon="6.5372">
        <ele>770.6</ele>
        <time>2021-04-03T13:53:59Z</time>
      </trkpt>
      <trkpt lat="46.30191" lon="6.53716">
        <ele>770.6</ele>
        <time>2021-04-03T13:54:00Z</time>
      </trkpt>
      <trkpt lat="46.30186" lon="6.53712">
        <ele>770.6</ele>
        <time>2021-04-03T13:54:01Z</time>
      </trkpt>
      <trkpt lat="46.3018" lon="6.53708">
        <ele>770.4</ele>
        <time>2021-04-03T13:54:02Z</time>
      </trkpt>
      <trkpt lat="46.30175" lon="6.53704">
        <ele>770.4</ele>
        <time>2021-04-03T13:54:03Z</time>
      </trkpt>
      <trkpt lat="46.3017" lon="6.537">
        <ele>770.4</ele>
        <time>2021-04-03T13:54:04Z</time>
      </trkpt>
      <trkpt lat="46.30165" lon="6.53695">
        <ele>770.4</ele>
        <time>2021-04-03T13:54:05Z</time>
      </trkpt>
      <trkpt lat="46.3016" lon="6.53691">
        <ele>770.4</ele>
        <time>2021-04-03T13:54:06Z</time>
      </trkpt>
      <trkpt lat="46.30155" lon="6.53687">
        <ele>770.4</ele>
        <time>2021-04-03T13:54:07Z</time>
      </trkpt>
      <trkpt lat="46.30149" lon="6.53683">
        <ele>770.4</ele>
        <time>2021-04-03T13:54:08Z</time>
      </trkpt>
      <trkpt lat="46.30143" lon="6.5368">
        <ele>770.4</ele>
        <time>2021-04-03T13:54:09Z</time>
      </trkpt>
      <trkpt lat="46.30137" lon="6.53677">
        <ele>770.4</ele>
        <time>2021-04-03T13:54:10Z</time>
      </trkpt>
      <trkpt lat="46.30131" lon="6.53674">
        <ele>770.4</ele>
        <time>2021-04-03T13:54:11Z</time>
      </trkpt>
      <trkpt lat="46.30125" lon="6.53672">
        <ele>770.2</ele>
        <time>2021-04-03T13:54:12Z</time>
      </trkpt>
      <trkpt lat="46.30119" lon="6.53671">
        <ele>770.4</ele>
        <time>2021-04-03T13:54:13Z</time>
      </trkpt>
      <trkpt lat="46.30113" lon="6.53671">
        <ele>770.4</ele>
        <time>2021-04-03T13:54:14Z</time>
      </trkpt>
      <trkpt lat="46.30106" lon="6.53671">
        <ele>770.2</ele>
        <time>2021-04-03T13:54:15Z</time>
      </trkpt>
      <trkpt lat="46.301" lon="6.53671">
        <ele>770.4</ele>
        <time>2021-04-03T13:54:16Z</time>
      </trkpt>
      <trkpt lat="46.30093" lon="6.53672">
        <ele>770.4</ele>
        <time>2021-04-03T13:54:17Z</time>
      </trkpt>
      <trkpt lat="46.30087" lon="6.53673">
        <ele>770.4</ele>
        <time>2021-04-03T13:54:18Z</time>
      </trkpt>
      <trkpt lat="46.30081" lon="6.53674">
        <ele>770.4</ele>
        <time>2021-04-03T13:54:19Z</time>
      </trkpt>
      <trkpt lat="46.30075" lon="6.53675">
        <ele>770.4</ele>
        <time>2021-04-03T13:54:20Z</time>
      </trkpt>
      <trkpt lat="46.30069" lon="6.53676">
        <ele>770.4</ele>
        <time>2021-04-03T13:54:21Z</time>
      </trkpt>
      <trkpt lat="46.30063" lon="6.53677">
        <ele>770.6</ele>
        <time>2021-04-03T13:54:22Z</time>
      </trkpt>
      <trkpt lat="46.30057" lon="6.53678">
        <ele>770.6</ele>
        <time>2021-04-03T13:54:23Z</time>
      </trkpt>
      <trkpt lat="46.30051" lon="6.53678">
        <ele>770.6</ele>
        <time>2021-04-03T13:54:24Z</time>
      </trkpt>
      <trkpt lat="46.30044" lon="6.53679">
        <ele>770.4</ele>
        <time>2021-04-03T13:54:25Z</time>
      </trkpt>
      <trkpt lat="46.30038" lon="6.53679">
        <ele>770.6</ele>
        <time>2021-04-03T13:54:26Z</time>
      </trkpt>
      <trkpt lat="46.30031" lon="6.5368">
        <ele>770.6</ele>
        <time>2021-04-03T13:54:27Z</time>
      </trkpt>
      <trkpt lat="46.30024" lon="6.53681">
        <ele>770.6</ele>
        <time>2021-04-03T13:54:28Z</time>
      </trkpt>
      <trkpt lat="46.30017" lon="6.53682">
        <ele>770.6</ele>
        <time>2021-04-03T13:54:29Z</time>
      </trkpt>
      <trkpt lat="46.3001" lon="6.53683">
        <ele>770.4</ele>
        <time>2021-04-03T13:54:30Z</time>
      </trkpt>
      <trkpt lat="46.30003" lon="6.53684">
        <ele>770.4</ele>
        <time>2021-04-03T13:54:31Z</time>
      </trkpt>
      <trkpt lat="46.29996" lon="6.53686">
        <ele>770.6</ele>
        <time>2021-04-03T13:54:32Z</time>
      </trkpt>
      <trkpt lat="46.2999" lon="6.53688">
        <ele>770.4</ele>
        <time>2021-04-03T13:54:33Z</time>
      </trkpt>
      <trkpt lat="46.29983" lon="6.5369">
        <ele>770.4</ele>
        <time>2021-04-03T13:54:34Z</time>
      </trkpt>
      <trkpt lat="46.29976" lon="6.53693">
        <ele>770.2</ele>
        <time>2021-04-03T13:54:35Z</time>
      </trkpt>
      <trkpt lat="46.29969" lon="6.53694">
        <ele>770.4</ele>
        <time>2021-04-03T13:54:36Z</time>
      </trkpt>
      <trkpt lat="46.29961" lon="6.53695">
        <ele>770.2</ele>
        <time>2021-04-03T13:54:37Z</time>
      </trkpt>
      <trkpt lat="46.29954" lon="6.53696">
        <ele>770.2</ele>
        <time>2021-04-03T13:54:38Z</time>
      </trkpt>
      <trkpt lat="46.29946" lon="6.53696">
        <ele>770</ele>
        <time>2021-04-03T13:54:39Z</time>
      </trkpt>
      <trkpt lat="46.29938" lon="6.53696">
        <ele>770.2</ele>
        <time>2021-04-03T13:54:40Z</time>
      </trkpt>
      <trkpt lat="46.29931" lon="6.53696">
        <ele>770.2</ele>
        <time>2021-04-03T13:54:41Z</time>
      </trkpt>
      <trkpt lat="46.29923" lon="6.53696">
        <ele>770</ele>
        <time>2021-04-03T13:54:42Z</time>
      </trkpt>
      <trkpt lat="46.29915" lon="6.53695">
        <ele>770</ele>
        <time>2021-04-03T13:54:43Z</time>
      </trkpt>
      <trkpt lat="46.29908" lon="6.53695">
        <ele>769.8</ele>
        <time>2021-04-03T13:54:44Z</time>
      </trkpt>
      <trkpt lat="46.299" lon="6.53694">
        <ele>769.8</ele>
        <time>2021-04-03T13:54:45Z</time>
      </trkpt>
      <trkpt lat="46.29892" lon="6.53694">
        <ele>769.8</ele>
        <time>2021-04-03T13:54:46Z</time>
      </trkpt>
      <trkpt lat="46.29884" lon="6.53693">
        <ele>769.6</ele>
        <time>2021-04-03T13:54:47Z</time>
      </trkpt>
      <trkpt lat="46.29876" lon="6.53692">
        <ele>769.6</ele>
        <time>2021-04-03T13:54:48Z</time>
      </trkpt>
      <trkpt lat="46.29869" lon="6.53692">
        <ele>769.4</ele>
        <time>2021-04-03T13:54:49Z</time>
      </trkpt>
      <trkpt lat="46.29861" lon="6.53691">
        <ele>769.4</ele>
        <time>2021-04-03T13:54:50Z</time>
      </trkpt>
      <trkpt lat="46.29854" lon="6.53691">
        <ele>769.4</ele>
        <time>2021-04-03T13:54:51Z</time>
      </trkpt>
      <trkpt lat="46.29846" lon="6.53691">
        <ele>769.2</ele>
        <time>2021-04-03T13:54:52Z</time>
      </trkpt>
      <trkpt lat="46.29839" lon="6.53692">
        <ele>769</ele>
        <time>2021-04-03T13:54:53Z</time>
      </trkpt>
      <trkpt lat="46.29833" lon="6.53697">
        <ele>768.8</ele>
        <time>2021-04-03T13:54:54Z</time>
      </trkpt>
      <trkpt lat="46.29827" lon="6.53704">
        <ele>768.8</ele>
        <time>2021-04-03T13:54:55Z</time>
      </trkpt>
      <trkpt lat="46.29822" lon="6.53713">
        <ele>768.6</ele>
        <time>2021-04-03T13:54:56Z</time>
      </trkpt>
      <trkpt lat="46.29817" lon="6.53722">
        <ele>768.6</ele>
        <time>2021-04-03T13:54:57Z</time>
      </trkpt>
      <trkpt lat="46.29812" lon="6.53731">
        <ele>768.6</ele>
        <time>2021-04-03T13:54:58Z</time>
      </trkpt>
      <trkpt lat="46.29807" lon="6.53741">
        <ele>768.4</ele>
        <time>2021-04-03T13:54:59Z</time>
      </trkpt>
      <trkpt lat="46.29802" lon="6.5375">
        <ele>768.2</ele>
        <time>2021-04-03T13:55:00Z</time>
      </trkpt>
      <trkpt lat="46.29797" lon="6.53759">
        <ele>768</ele>
        <time>2021-04-03T13:55:01Z</time>
      </trkpt>
      <trkpt lat="46.29792" lon="6.53769">
        <ele>767.8</ele>
        <time>2021-04-03T13:55:02Z</time>
      </trkpt>
      <trkpt lat="46.29788" lon="6.53778">
        <ele>767.6</ele>
        <time>2021-04-03T13:55:03Z</time>
      </trkpt>
      <trkpt lat="46.29783" lon="6.53787">
        <ele>767.2</ele>
        <time>2021-04-03T13:55:04Z</time>
      </trkpt>
      <trkpt lat="46.29778" lon="6.53795">
        <ele>766.8</ele>
        <time>2021-04-03T13:55:05Z</time>
      </trkpt>
      <trkpt lat="46.29774" lon="6.53804">
        <ele>766.2</ele>
        <time>2021-04-03T13:55:06Z</time>
      </trkpt>
      <trkpt lat="46.2977" lon="6.53813">
        <ele>765.6</ele>
        <time>2021-04-03T13:55:07Z</time>
      </trkpt>
      <trkpt lat="46.29765" lon="6.53822">
        <ele>765.6</ele>
        <time>2021-04-03T13:55:08Z</time>
      </trkpt>
      <trkpt lat="46.2976" lon="6.53831">
        <ele>765.4</ele>
        <time>2021-04-03T13:55:09Z</time>
      </trkpt>
      <trkpt lat="46.29754" lon="6.53839">
        <ele>765.2</ele>
        <time>2021-04-03T13:55:10Z</time>
      </trkpt>
      <trkpt lat="46.29747" lon="6.53846">
        <ele>765</ele>
        <time>2021-04-03T13:55:11Z</time>
      </trkpt>
      <trkpt lat="46.29739" lon="6.53852">
        <ele>764.8</ele>
        <time>2021-04-03T13:55:12Z</time>
      </trkpt>
      <trkpt lat="46.29731" lon="6.53855">
        <ele>764.8</ele>
        <time>2021-04-03T13:55:13Z</time>
      </trkpt>
      <trkpt lat="46.29722" lon="6.53855">
        <ele>764.8</ele>
        <time>2021-04-03T13:55:14Z</time>
      </trkpt>
      <trkpt lat="46.29712" lon="6.53853">
        <ele>764.6</ele>
        <time>2021-04-03T13:55:15Z</time>
      </trkpt>
      <trkpt lat="46.29703" lon="6.53851">
        <ele>764.2</ele>
        <time>2021-04-03T13:55:16Z</time>
      </trkpt>
      <trkpt lat="46.29694" lon="6.53847">
        <ele>764</ele>
        <time>2021-04-03T13:55:17Z</time>
      </trkpt>
      <trkpt lat="46.29685" lon="6.53843">
        <ele>763.8</ele>
        <time>2021-04-03T13:55:18Z</time>
      </trkpt>
      <trkpt lat="46.29676" lon="6.53839">
        <ele>763.6</ele>
        <time>2021-04-03T13:55:19Z</time>
      </trkpt>
      <trkpt lat="46.29667" lon="6.53835">
        <ele>763.2</ele>
        <time>2021-04-03T13:55:20Z</time>
      </trkpt>
      <trkpt lat="46.29659" lon="6.53831">
        <ele>763</ele>
        <time>2021-04-03T13:55:21Z</time>
      </trkpt>
      <trkpt lat="46.2965" lon="6.53827">
        <ele>762</ele>
        <time>2021-04-03T13:55:22Z</time>
      </trkpt>
      <trkpt lat="46.29641" lon="6.53824">
        <ele>761.4</ele>
        <time>2021-04-03T13:55:23Z</time>
      </trkpt>
      <trkpt lat="46.29632" lon="6.53819">
        <ele>760.8</ele>
        <time>2021-04-03T13:55:24Z</time>
      </trkpt>
      <trkpt lat="46.29624" lon="6.53814">
        <ele>760.4</ele>
        <time>2021-04-03T13:55:25Z</time>
      </trkpt>
      <trkpt lat="46.29615" lon="6.53808">
        <ele>760</ele>
        <time>2021-04-03T13:55:26Z</time>
      </trkpt>
      <trkpt lat="46.29608" lon="6.53799">
        <ele>760</ele>
        <time>2021-04-03T13:55:27Z</time>
      </trkpt>
      <trkpt lat="46.29601" lon="6.53791">
        <ele>759.8</ele>
        <time>2021-04-03T13:55:28Z</time>
      </trkpt>
      <trkpt lat="46.29594" lon="6.53782">
        <ele>759.6</ele>
        <time>2021-04-03T13:55:29Z</time>
      </trkpt>
      <trkpt lat="46.29588" lon="6.53774">
        <ele>759.8</ele>
        <time>2021-04-03T13:55:30Z</time>
      </trkpt>
      <trkpt lat="46.2958" lon="6.53766">
        <ele>759.6</ele>
        <time>2021-04-03T13:55:31Z</time>
      </trkpt>
      <trkpt lat="46.29572" lon="6.53761">
        <ele>759.4</ele>
        <time>2021-04-03T13:55:32Z</time>
      </trkpt>
      <trkpt lat="46.29564" lon="6.53756">
        <ele>759.2</ele>
        <time>2021-04-03T13:55:33Z</time>
      </trkpt>
      <trkpt lat="46.29555" lon="6.53754">
        <ele>759.2</ele>
        <time>2021-04-03T13:55:34Z</time>
      </trkpt>
      <trkpt lat="46.29546" lon="6.53751">
        <ele>759.2</ele>
        <time>2021-04-03T13:55:35Z</time>
      </trkpt>
      <trkpt lat="46.29537" lon="6.53751">
        <ele>759</ele>
        <time>2021-04-03T13:55:36Z</time>
      </trkpt>
      <trkpt lat="46.29528" lon="6.53751">
        <ele>758.8</ele>
        <time>2021-04-03T13:55:37Z</time>
      </trkpt>
      <trkpt lat="46.29519" lon="6.53751">
        <ele>758.8</ele>
        <time>2021-04-03T13:55:38Z</time>
      </trkpt>
      <trkpt lat="46.29511" lon="6.53752">
        <ele>758.6</ele>
        <time>2021-04-03T13:55:39Z</time>
      </trkpt>
      <trkpt lat="46.29502" lon="6.53753">
        <ele>757.6</ele>
        <time>2021-04-03T13:55:40Z</time>
      </trkpt>
      <trkpt lat="46.29494" lon="6.53754">
        <ele>757.4</ele>
        <time>2021-04-03T13:55:41Z</time>
      </trkpt>
      <trkpt lat="46.29485" lon="6.53755">
        <ele>757.2</ele>
        <time>2021-04-03T13:55:42Z</time>
      </trkpt>
      <trkpt lat="46.29477" lon="6.53755">
        <ele>757</ele>
        <time>2021-04-03T13:55:43Z</time>
      </trkpt>
      <trkpt lat="46.29469" lon="6.53756">
        <ele>757</ele>
        <time>2021-04-03T13:55:44Z</time>
      </trkpt>
      <trkpt lat="46.2946" lon="6.53756">
        <ele>757</ele>
        <time>2021-04-03T13:55:45Z</time>
      </trkpt>
      <trkpt lat="46.29452" lon="6.53756">
        <ele>756.8</ele>
        <time>2021-04-03T13:55:46Z</time>
      </trkpt>
      <trkpt lat="46.29444" lon="6.53757">
        <ele>756.6</ele>
        <time>2021-04-03T13:55:47Z</time>
      </trkpt>
      <trkpt lat="46.29435" lon="6.53757">
        <ele>756.4</ele>
        <time>2021-04-03T13:55:48Z</time>
      </trkpt>
      <trkpt lat="46.29427" lon="6.53757">
        <ele>756.4</ele>
        <time>2021-04-03T13:55:49Z</time>
      </trkpt>
      <trkpt lat="46.29419" lon="6.53757">
        <ele>756.4</ele>
        <time>2021-04-03T13:55:50Z</time>
      </trkpt>
      <trkpt lat="46.29411" lon="6.53757">
        <ele>756.4</ele>
        <time>2021-04-03T13:55:51Z</time>
      </trkpt>
      <trkpt lat="46.29404" lon="6.53757">
        <ele>756.4</ele>
        <time>2021-04-03T13:55:52Z</time>
      </trkpt>
      <trkpt lat="46.29397" lon="6.53757">
        <ele>756.4</ele>
        <time>2021-04-03T13:55:53Z</time>
      </trkpt>
      <trkpt lat="46.2939" lon="6.53759">
        <ele>756.4</ele>
        <time>2021-04-03T13:55:54Z</time>
      </trkpt>
      <trkpt lat="46.29384" lon="6.53761">
        <ele>756.6</ele>
        <time>2021-04-03T13:55:55Z</time>
      </trkpt>
      <trkpt lat="46.29379" lon="6.53764">
        <ele>756.6</ele>
        <time>2021-04-03T13:55:56Z</time>
      </trkpt>
      <trkpt lat="46.29374" lon="6.53767">
        <ele>756.8</ele>
        <time>2021-04-03T13:55:57Z</time>
      </trkpt>
      <trkpt lat="46.2937" lon="6.53771">
        <ele>757</ele>
        <time>2021-04-03T13:55:58Z</time>
      </trkpt>
      <trkpt lat="46.29365" lon="6.53775">
        <ele>757.2</ele>
        <time>2021-04-03T13:55:59Z</time>
      </trkpt>
      <trkpt lat="46.29361" lon="6.53779">
        <ele>757.2</ele>
        <time>2021-04-03T13:56:00Z</time>
      </trkpt>
      <trkpt lat="46.29357" lon="6.53783">
        <ele>757.2</ele>
        <time>2021-04-03T13:56:01Z</time>
      </trkpt>
      <trkpt lat="46.29353" lon="6.53788">
        <ele>757.2</ele>
        <time>2021-04-03T13:56:02Z</time>
      </trkpt>
      <trkpt lat="46.29348" lon="6.53792">
        <ele>757.2</ele>
        <time>2021-04-03T13:56:03Z</time>
      </trkpt>
      <trkpt lat="46.29343" lon="6.53797">
        <ele>757.6</ele>
        <time>2021-04-03T13:56:04Z</time>
      </trkpt>
      <trkpt lat="46.29338" lon="6.538">
        <ele>758.4</ele>
        <time>2021-04-03T13:56:05Z</time>
      </trkpt>
      <trkpt lat="46.29332" lon="6.53804">
        <ele>758.8</ele>
        <time>2021-04-03T13:56:06Z</time>
      </trkpt>
      <trkpt lat="46.29326" lon="6.53807">
        <ele>759</ele>
        <time>2021-04-03T13:56:07Z</time>
      </trkpt>
      <trkpt lat="46.2932" lon="6.5381">
        <ele>759.4</ele>
        <time>2021-04-03T13:56:08Z</time>
      </trkpt>
      <trkpt lat="46.29313" lon="6.53813">
        <ele>759.6</ele>
        <time>2021-04-03T13:56:09Z</time>
      </trkpt>
      <trkpt lat="46.29307" lon="6.53816">
        <ele>759.8</ele>
        <time>2021-04-03T13:56:10Z</time>
      </trkpt>
      <trkpt lat="46.29301" lon="6.5382">
        <ele>760</ele>
        <time>2021-04-03T13:56:11Z</time>
      </trkpt>
      <trkpt lat="46.29296" lon="6.53825">
        <ele>760</ele>
        <time>2021-04-03T13:56:12Z</time>
      </trkpt>
      <trkpt lat="46.29292" lon="6.53832">
        <ele>760.2</ele>
        <time>2021-04-03T13:56:13Z</time>
      </trkpt>
      <trkpt lat="46.29289" lon="6.53839">
        <ele>760.2</ele>
        <time>2021-04-03T13:56:14Z</time>
      </trkpt>
      <trkpt lat="46.29287" lon="6.53848">
        <ele>760.2</ele>
        <time>2021-04-03T13:56:15Z</time>
      </trkpt>
      <trkpt lat="46.29286" lon="6.53856">
        <ele>760.2</ele>
        <time>2021-04-03T13:56:16Z</time>
      </trkpt>
      <trkpt lat="46.29285" lon="6.53865">
        <ele>760.2</ele>
        <time>2021-04-03T13:56:17Z</time>
      </trkpt>
      <trkpt lat="46.29284" lon="6.53873">
        <ele>760.4</ele>
        <time>2021-04-03T13:56:18Z</time>
      </trkpt>
      <trkpt lat="46.29284" lon="6.53882">
        <ele>760.4</ele>
        <time>2021-04-03T13:56:19Z</time>
      </trkpt>
      <trkpt lat="46.29284" lon="6.53891">
        <ele>760.6</ele>
        <time>2021-04-03T13:56:20Z</time>
      </trkpt>
      <trkpt lat="46.29283" lon="6.53901">
        <ele>760.6</ele>
        <time>2021-04-03T13:56:21Z</time>
      </trkpt>
      <trkpt lat="46.29284" lon="6.5391">
        <ele>760.8</ele>
        <time>2021-04-03T13:56:22Z</time>
      </trkpt>
      <trkpt lat="46.29284" lon="6.53919">
        <ele>760.8</ele>
        <time>2021-04-03T13:56:23Z</time>
      </trkpt>
      <trkpt lat="46.29285" lon="6.53929">
        <ele>760.8</ele>
        <time>2021-04-03T13:56:24Z</time>
      </trkpt>
      <trkpt lat="46.29286" lon="6.53939">
        <ele>761</ele>
        <time>2021-04-03T13:56:25Z</time>
      </trkpt>
      <trkpt lat="46.29287" lon="6.53949">
        <ele>760.8</ele>
        <time>2021-04-03T13:56:26Z</time>
      </trkpt>
      <trkpt lat="46.29288" lon="6.53959">
        <ele>761</ele>
        <time>2021-04-03T13:56:27Z</time>
      </trkpt>
      <trkpt lat="46.29288" lon="6.53969">
        <ele>760.8</ele>
        <time>2021-04-03T13:56:28Z</time>
      </trkpt>
      <trkpt lat="46.29289" lon="6.5398">
        <ele>760.8</ele>
        <time>2021-04-03T13:56:29Z</time>
      </trkpt>
      <trkpt lat="46.29288" lon="6.53991">
        <ele>761</ele>
        <time>2021-04-03T13:56:30Z</time>
      </trkpt>
      <trkpt lat="46.29286" lon="6.54001">
        <ele>761</ele>
        <time>2021-04-03T13:56:31Z</time>
      </trkpt>
      <trkpt lat="46.29284" lon="6.54011">
        <ele>760.8</ele>
        <time>2021-04-03T13:56:32Z</time>
      </trkpt>
      <trkpt lat="46.29281" lon="6.5402">
        <ele>760.8</ele>
        <time>2021-04-03T13:56:33Z</time>
      </trkpt>
      <trkpt lat="46.29277" lon="6.54029">
        <ele>760.6</ele>
        <time>2021-04-03T13:56:34Z</time>
      </trkpt>
      <trkpt lat="46.29274" lon="6.54037">
        <ele>760.4</ele>
        <time>2021-04-03T13:56:35Z</time>
      </trkpt>
      <trkpt lat="46.29271" lon="6.54044">
        <ele>760.6</ele>
        <time>2021-04-03T13:56:36Z</time>
      </trkpt>
      <trkpt lat="46.29267" lon="6.54051">
        <ele>760.4</ele>
        <time>2021-04-03T13:56:37Z</time>
      </trkpt>
      <trkpt lat="46.29264" lon="6.54058">
        <ele>760.4</ele>
        <time>2021-04-03T13:56:38Z</time>
      </trkpt>
      <trkpt lat="46.29261" lon="6.54065">
        <ele>760.4</ele>
        <time>2021-04-03T13:56:39Z</time>
      </trkpt>
      <trkpt lat="46.29258" lon="6.54073">
        <ele>760.6</ele>
        <time>2021-04-03T13:56:40Z</time>
      </trkpt>
      <trkpt lat="46.29255" lon="6.5408">
        <ele>760.4</ele>
        <time>2021-04-03T13:56:41Z</time>
      </trkpt>
      <trkpt lat="46.29252" lon="6.54088">
        <ele>760.6</ele>
        <time>2021-04-03T13:56:42Z</time>
      </trkpt>
      <trkpt lat="46.2925" lon="6.54095">
        <ele>760.6</ele>
        <time>2021-04-03T13:56:43Z</time>
      </trkpt>
      <trkpt lat="46.29248" lon="6.54103">
        <ele>760.4</ele>
        <time>2021-04-03T13:56:44Z</time>
      </trkpt>
      <trkpt lat="46.29246" lon="6.54112">
        <ele>760.6</ele>
        <time>2021-04-03T13:56:45Z</time>
      </trkpt>
      <trkpt lat="46.29244" lon="6.5412">
        <ele>761</ele>
        <time>2021-04-03T13:56:46Z</time>
      </trkpt>
      <trkpt lat="46.29243" lon="6.5413">
        <ele>761.6</ele>
        <time>2021-04-03T13:56:47Z</time>
      </trkpt>
      <trkpt lat="46.29241" lon="6.5414">
        <ele>761.8</ele>
        <time>2021-04-03T13:56:48Z</time>
      </trkpt>
      <trkpt lat="46.2924" lon="6.5415">
        <ele>762.2</ele>
        <time>2021-04-03T13:56:49Z</time>
      </trkpt>
      <trkpt lat="46.29238" lon="6.54161">
        <ele>762.6</ele>
        <time>2021-04-03T13:56:50Z</time>
      </trkpt>
      <trkpt lat="46.29236" lon="6.54171">
        <ele>762.6</ele>
        <time>2021-04-03T13:56:51Z</time>
      </trkpt>
      <trkpt lat="46.29234" lon="6.54182">
        <ele>762.6</ele>
        <time>2021-04-03T13:56:52Z</time>
      </trkpt>
      <trkpt lat="46.29231" lon="6.54193">
        <ele>762.8</ele>
        <time>2021-04-03T13:56:53Z</time>
      </trkpt>
      <trkpt lat="46.29228" lon="6.54203">
        <ele>762.6</ele>
        <time>2021-04-03T13:56:54Z</time>
      </trkpt>
      <trkpt lat="46.29225" lon="6.54212">
        <ele>762.6</ele>
        <time>2021-04-03T13:56:55Z</time>
      </trkpt>
      <trkpt lat="46.29222" lon="6.5422">
        <ele>762.6</ele>
        <time>2021-04-03T13:56:56Z</time>
      </trkpt>
      <trkpt lat="46.29219" lon="6.54228">
        <ele>762.6</ele>
        <time>2021-04-03T13:56:57Z</time>
      </trkpt>
      <trkpt lat="46.29216" lon="6.54237">
        <ele>762.8</ele>
        <time>2021-04-03T13:56:58Z</time>
      </trkpt>
      <trkpt lat="46.29212" lon="6.54245">
        <ele>763</ele>
        <time>2021-04-03T13:56:59Z</time>
      </trkpt>
      <trkpt lat="46.29209" lon="6.54253">
        <ele>763.2</ele>
        <time>2021-04-03T13:57:00Z</time>
      </trkpt>
      <trkpt lat="46.29206" lon="6.54261">
        <ele>763.2</ele>
        <time>2021-04-03T13:57:01Z</time>
      </trkpt>
      <trkpt lat="46.29203" lon="6.54269">
        <ele>763.4</ele>
        <time>2021-04-03T13:57:02Z</time>
      </trkpt>
      <trkpt lat="46.29199" lon="6.54277">
        <ele>763.2</ele>
        <time>2021-04-03T13:57:03Z</time>
      </trkpt>
      <trkpt lat="46.29196" lon="6.54285">
        <ele>763.4</ele>
        <time>2021-04-03T13:57:04Z</time>
      </trkpt>
      <trkpt lat="46.29193" lon="6.54294">
        <ele>763.6</ele>
        <time>2021-04-03T13:57:05Z</time>
      </trkpt>
      <trkpt lat="46.29189" lon="6.54301">
        <ele>763.6</ele>
        <time>2021-04-03T13:57:06Z</time>
      </trkpt>
      <trkpt lat="46.29186" lon="6.54309">
        <ele>763.6</ele>
        <time>2021-04-03T13:57:07Z</time>
      </trkpt>
      <trkpt lat="46.29183" lon="6.54316">
        <ele>763.6</ele>
        <time>2021-04-03T13:57:08Z</time>
      </trkpt>
      <trkpt lat="46.2918" lon="6.54322">
        <ele>763.6</ele>
        <time>2021-04-03T13:57:09Z</time>
      </trkpt>
      <trkpt lat="46.29177" lon="6.54329">
        <ele>763.8</ele>
        <time>2021-04-03T13:57:10Z</time>
      </trkpt>
      <trkpt lat="46.29175" lon="6.54335">
        <ele>763.8</ele>
        <time>2021-04-03T13:57:11Z</time>
      </trkpt>
      <trkpt lat="46.29172" lon="6.54341">
        <ele>764</ele>
        <time>2021-04-03T13:57:12Z</time>
      </trkpt>
      <trkpt lat="46.29169" lon="6.54347">
        <ele>764.2</ele>
        <time>2021-04-03T13:57:13Z</time>
      </trkpt>
      <trkpt lat="46.29167" lon="6.54352">
        <ele>764.2</ele>
        <time>2021-04-03T13:57:14Z</time>
      </trkpt>
      <trkpt lat="46.29164" lon="6.54358">
        <ele>764.4</ele>
        <time>2021-04-03T13:57:15Z</time>
      </trkpt>
      <trkpt lat="46.29162" lon="6.54364">
        <ele>764.8</ele>
        <time>2021-04-03T13:57:16Z</time>
      </trkpt>
      <trkpt lat="46.29159" lon="6.54371">
        <ele>765.2</ele>
        <time>2021-04-03T13:57:17Z</time>
      </trkpt>
      <trkpt lat="46.29157" lon="6.54377">
        <ele>766</ele>
        <time>2021-04-03T13:57:18Z</time>
      </trkpt>
      <trkpt lat="46.29155" lon="6.54385">
        <ele>766.4</ele>
        <time>2021-04-03T13:57:19Z</time>
      </trkpt>
      <trkpt lat="46.29153" lon="6.54392">
        <ele>766.8</ele>
        <time>2021-04-03T13:57:20Z</time>
      </trkpt>
      <trkpt lat="46.2915" lon="6.544">
        <ele>767</ele>
        <time>2021-04-03T13:57:21Z</time>
      </trkpt>
      <trkpt lat="46.29146" lon="6.54408">
        <ele>767.2</ele>
        <time>2021-04-03T13:57:22Z</time>
      </trkpt>
      <trkpt lat="46.29142" lon="6.54417">
        <ele>767.4</ele>
        <time>2021-04-03T13:57:23Z</time>
      </trkpt>
      <trkpt lat="46.29138" lon="6.54425">
        <ele>767.4</ele>
        <time>2021-04-03T13:57:24Z</time>
      </trkpt>
      <trkpt lat="46.29133" lon="6.54433">
        <ele>767.4</ele>
        <time>2021-04-03T13:57:25Z</time>
      </trkpt>
      <trkpt lat="46.29127" lon="6.54441">
        <ele>767.6</ele>
        <time>2021-04-03T13:57:26Z</time>
      </trkpt>
      <trkpt lat="46.29121" lon="6.54448">
        <ele>767.6</ele>
        <time>2021-04-03T13:57:27Z</time>
      </trkpt>
      <trkpt lat="46.29114" lon="6.54455">
        <ele>767.6</ele>
        <time>2021-04-03T13:57:28Z</time>
      </trkpt>
      <trkpt lat="46.29107" lon="6.54461">
        <ele>767.6</ele>
        <time>2021-04-03T13:57:29Z</time>
      </trkpt>
      <trkpt lat="46.291" lon="6.54468">
        <ele>767.6</ele>
        <time>2021-04-03T13:57:30Z</time>
      </trkpt>
      <trkpt lat="46.29093" lon="6.54474">
        <ele>767.6</ele>
        <time>2021-04-03T13:57:31Z</time>
      </trkpt>
      <trkpt lat="46.29086" lon="6.54481">
        <ele>767.4</ele>
        <time>2021-04-03T13:57:32Z</time>
      </trkpt>
      <trkpt lat="46.29079" lon="6.54487">
        <ele>767.4</ele>
        <time>2021-04-03T13:57:33Z</time>
      </trkpt>
      <trkpt lat="46.29071" lon="6.54493">
        <ele>767.2</ele>
        <time>2021-04-03T13:57:34Z</time>
      </trkpt>
      <trkpt lat="46.29064" lon="6.54498">
        <ele>766.8</ele>
        <time>2021-04-03T13:57:35Z</time>
      </trkpt>
      <trkpt lat="46.29056" lon="6.54502">
        <ele>766.8</ele>
        <time>2021-04-03T13:57:36Z</time>
      </trkpt>
      <trkpt lat="46.29049" lon="6.54506">
        <ele>766.6</ele>
        <time>2021-04-03T13:57:37Z</time>
      </trkpt>
      <trkpt lat="46.29041" lon="6.54509">
        <ele>766.6</ele>
        <time>2021-04-03T13:57:38Z</time>
      </trkpt>
      <trkpt lat="46.29033" lon="6.54511">
        <ele>766.2</ele>
        <time>2021-04-03T13:57:39Z</time>
      </trkpt>
      <trkpt lat="46.29025" lon="6.54513">
        <ele>766</ele>
        <time>2021-04-03T13:57:40Z</time>
      </trkpt>
      <trkpt lat="46.29018" lon="6.54514">
        <ele>765.4</ele>
        <time>2021-04-03T13:57:41Z</time>
      </trkpt>
      <trkpt lat="46.2901" lon="6.54515">
        <ele>765</ele>
        <time>2021-04-03T13:57:42Z</time>
      </trkpt>
      <trkpt lat="46.29001" lon="6.54516">
        <ele>764.8</ele>
        <time>2021-04-03T13:57:43Z</time>
      </trkpt>
      <trkpt lat="46.28993" lon="6.54515">
        <ele>764.6</ele>
        <time>2021-04-03T13:57:44Z</time>
      </trkpt>
      <trkpt lat="46.28985" lon="6.54514">
        <ele>764.6</ele>
        <time>2021-04-03T13:57:45Z</time>
      </trkpt>
      <trkpt lat="46.28978" lon="6.54512">
        <ele>764.4</ele>
        <time>2021-04-03T13:57:46Z</time>
      </trkpt>
      <trkpt lat="46.2897" lon="6.5451">
        <ele>764.4</ele>
        <time>2021-04-03T13:57:47Z</time>
      </trkpt>
      <trkpt lat="46.28962" lon="6.54507">
        <ele>764.4</ele>
        <time>2021-04-03T13:57:48Z</time>
      </trkpt>
      <trkpt lat="46.28955" lon="6.54502">
        <ele>764.4</ele>
        <time>2021-04-03T13:57:49Z</time>
      </trkpt>
      <trkpt lat="46.28948" lon="6.54497">
        <ele>763.8</ele>
        <time>2021-04-03T13:57:50Z</time>
      </trkpt>
      <trkpt lat="46.2894" lon="6.54492">
        <ele>763.4</ele>
        <time>2021-04-03T13:57:51Z</time>
      </trkpt>
      <trkpt lat="46.28933" lon="6.54486">
        <ele>763</ele>
        <time>2021-04-03T13:57:52Z</time>
      </trkpt>
      <trkpt lat="46.28925" lon="6.5448">
        <ele>762.8</ele>
        <time>2021-04-03T13:57:53Z</time>
      </trkpt>
      <trkpt lat="46.28917" lon="6.54475">
        <ele>762.6</ele>
        <time>2021-04-03T13:57:54Z</time>
      </trkpt>
      <trkpt lat="46.28909" lon="6.54471">
        <ele>762.4</ele>
        <time>2021-04-03T13:57:55Z</time>
      </trkpt>
      <trkpt lat="46.289" lon="6.54468">
        <ele>762.2</ele>
        <time>2021-04-03T13:57:56Z</time>
      </trkpt>
      <trkpt lat="46.28891" lon="6.54468">
        <ele>762.2</ele>
        <time>2021-04-03T13:57:57Z</time>
      </trkpt>
      <trkpt lat="46.28881" lon="6.54469">
        <ele>762</ele>
        <time>2021-04-03T13:57:58Z</time>
      </trkpt>
      <trkpt lat="46.28872" lon="6.54472">
        <ele>761.8</ele>
        <time>2021-04-03T13:57:59Z</time>
      </trkpt>
      <trkpt lat="46.28863" lon="6.54477">
        <ele>761.6</ele>
        <time>2021-04-03T13:58:00Z</time>
      </trkpt>
      <trkpt lat="46.28854" lon="6.54482">
        <ele>761.4</ele>
        <time>2021-04-03T13:58:01Z</time>
      </trkpt>
      <trkpt lat="46.28845" lon="6.54488">
        <ele>761.2</ele>
        <time>2021-04-03T13:58:02Z</time>
      </trkpt>
      <trkpt lat="46.28836" lon="6.54493">
        <ele>760.8</ele>
        <time>2021-04-03T13:58:03Z</time>
      </trkpt>
      <trkpt lat="46.28828" lon="6.54498">
        <ele>760.2</ele>
        <time>2021-04-03T13:58:04Z</time>
      </trkpt>
      <trkpt lat="46.28819" lon="6.54502">
        <ele>759.6</ele>
        <time>2021-04-03T13:58:05Z</time>
      </trkpt>
      <trkpt lat="46.28811" lon="6.54506">
        <ele>759.4</ele>
        <time>2021-04-03T13:58:06Z</time>
      </trkpt>
      <trkpt lat="46.28803" lon="6.5451">
        <ele>758.6</ele>
        <time>2021-04-03T13:58:07Z</time>
      </trkpt>
      <trkpt lat="46.28795" lon="6.54515">
        <ele>758.4</ele>
        <time>2021-04-03T13:58:08Z</time>
      </trkpt>
      <trkpt lat="46.28788" lon="6.54521">
        <ele>758.2</ele>
        <time>2021-04-03T13:58:09Z</time>
      </trkpt>
      <trkpt lat="46.28782" lon="6.54528">
        <ele>758.2</ele>
        <time>2021-04-03T13:58:10Z</time>
      </trkpt>
      <trkpt lat="46.28776" lon="6.54536">
        <ele>758</ele>
        <time>2021-04-03T13:58:11Z</time>
      </trkpt>
      <trkpt lat="46.28772" lon="6.54545">
        <ele>758</ele>
        <time>2021-04-03T13:58:12Z</time>
      </trkpt>
      <trkpt lat="46.28768" lon="6.54554">
        <ele>758</ele>
        <time>2021-04-03T13:58:13Z</time>
      </trkpt>
      <trkpt lat="46.28764" lon="6.54562">
        <ele>758.2</ele>
        <time>2021-04-03T13:58:14Z</time>
      </trkpt>
      <trkpt lat="46.28762" lon="6.54572">
        <ele>758</ele>
        <time>2021-04-03T13:58:15Z</time>
      </trkpt>
      <trkpt lat="46.28759" lon="6.54581">
        <ele>758</ele>
        <time>2021-04-03T13:58:16Z</time>
      </trkpt>
      <trkpt lat="46.28757" lon="6.5459">
        <ele>758</ele>
        <time>2021-04-03T13:58:17Z</time>
      </trkpt>
      <trkpt lat="46.28754" lon="6.54599">
        <ele>758.4</ele>
        <time>2021-04-03T13:58:18Z</time>
      </trkpt>
      <trkpt lat="46.2875" lon="6.54609">
        <ele>759</ele>
        <time>2021-04-03T13:58:19Z</time>
      </trkpt>
      <trkpt lat="46.28746" lon="6.54618">
        <ele>759</ele>
        <time>2021-04-03T13:58:20Z</time>
      </trkpt>
      <trkpt lat="46.28741" lon="6.54627">
        <ele>759.4</ele>
        <time>2021-04-03T13:58:21Z</time>
      </trkpt>
      <trkpt lat="46.28735" lon="6.54635">
        <ele>759.2</ele>
        <time>2021-04-03T13:58:22Z</time>
      </trkpt>
      <trkpt lat="46.28727" lon="6.54642">
        <ele>759.4</ele>
        <time>2021-04-03T13:58:23Z</time>
      </trkpt>
      <trkpt lat="46.28719" lon="6.54645">
        <ele>759.4</ele>
        <time>2021-04-03T13:58:24Z</time>
      </trkpt>
      <trkpt lat="46.2871" lon="6.54646">
        <ele>759.4</ele>
        <time>2021-04-03T13:58:25Z</time>
      </trkpt>
      <trkpt lat="46.28701" lon="6.54644">
        <ele>759.4</ele>
        <time>2021-04-03T13:58:26Z</time>
      </trkpt>
      <trkpt lat="46.28691" lon="6.54641">
        <ele>759.4</ele>
        <time>2021-04-03T13:58:27Z</time>
      </trkpt>
      <trkpt lat="46.28681" lon="6.54637">
        <ele>759.4</ele>
        <time>2021-04-03T13:58:28Z</time>
      </trkpt>
      <trkpt lat="46.28671" lon="6.54636">
        <ele>759.2</ele>
        <time>2021-04-03T13:58:29Z</time>
      </trkpt>
      <trkpt lat="46.28661" lon="6.54637">
        <ele>759</ele>
        <time>2021-04-03T13:58:30Z</time>
      </trkpt>
      <trkpt lat="46.28652" lon="6.54642">
        <ele>758.4</ele>
        <time>2021-04-03T13:58:31Z</time>
      </trkpt>
      <trkpt lat="46.28643" lon="6.54649">
        <ele>758</ele>
        <time>2021-04-03T13:58:32Z</time>
      </trkpt>
      <trkpt lat="46.28634" lon="6.54656">
        <ele>757.6</ele>
        <time>2021-04-03T13:58:33Z</time>
      </trkpt>
      <trkpt lat="46.28625" lon="6.54663">
        <ele>756.8</ele>
        <time>2021-04-03T13:58:34Z</time>
      </trkpt>
      <trkpt lat="46.28615" lon="6.54668">
        <ele>756.2</ele>
        <time>2021-04-03T13:58:35Z</time>
      </trkpt>
      <trkpt lat="46.28605" lon="6.54672">
        <ele>755.4</ele>
        <time>2021-04-03T13:58:36Z</time>
      </trkpt>
      <trkpt lat="46.28595" lon="6.54676">
        <ele>755</ele>
        <time>2021-04-03T13:58:37Z</time>
      </trkpt>
      <trkpt lat="46.28586" lon="6.54682">
        <ele>754.4</ele>
        <time>2021-04-03T13:58:38Z</time>
      </trkpt>
      <trkpt lat="46.28577" lon="6.5469">
        <ele>754</ele>
        <time>2021-04-03T13:58:39Z</time>
      </trkpt>
      <trkpt lat="46.28569" lon="6.54699">
        <ele>753.4</ele>
        <time>2021-04-03T13:58:40Z</time>
      </trkpt>
      <trkpt lat="46.28562" lon="6.5471">
        <ele>753</ele>
        <time>2021-04-03T13:58:41Z</time>
      </trkpt>
      <trkpt lat="46.28554" lon="6.54721">
        <ele>752.6</ele>
        <time>2021-04-03T13:58:42Z</time>
      </trkpt>
      <trkpt lat="46.28547" lon="6.54732">
        <ele>752</ele>
        <time>2021-04-03T13:58:43Z</time>
      </trkpt>
      <trkpt lat="46.2854" lon="6.54743">
        <ele>751.6</ele>
        <time>2021-04-03T13:58:44Z</time>
      </trkpt>
      <trkpt lat="46.28533" lon="6.54755">
        <ele>751.2</ele>
        <time>2021-04-03T13:58:45Z</time>
      </trkpt>
      <trkpt lat="46.28525" lon="6.54766">
        <ele>751</ele>
        <time>2021-04-03T13:58:46Z</time>
      </trkpt>
      <trkpt lat="46.28516" lon="6.54776">
        <ele>750.4</ele>
        <time>2021-04-03T13:58:47Z</time>
      </trkpt>
      <trkpt lat="46.28507" lon="6.54785">
        <ele>750</ele>
        <time>2021-04-03T13:58:48Z</time>
      </trkpt>
      <trkpt lat="46.28498" lon="6.54792">
        <ele>749.6</ele>
        <time>2021-04-03T13:58:49Z</time>
      </trkpt>
      <trkpt lat="46.28488" lon="6.54798">
        <ele>749.2</ele>
        <time>2021-04-03T13:58:50Z</time>
      </trkpt>
      <trkpt lat="46.28479" lon="6.54803">
        <ele>748.4</ele>
        <time>2021-04-03T13:58:51Z</time>
      </trkpt>
      <trkpt lat="46.28469" lon="6.54808">
        <ele>747.8</ele>
        <time>2021-04-03T13:58:52Z</time>
      </trkpt>
      <trkpt lat="46.28461" lon="6.54812">
        <ele>747</ele>
        <time>2021-04-03T13:58:53Z</time>
      </trkpt>
      <trkpt lat="46.28452" lon="6.54817">
        <ele>746.8</ele>
        <time>2021-04-03T13:58:54Z</time>
      </trkpt>
      <trkpt lat="46.28443" lon="6.54821">
        <ele>746.6</ele>
        <time>2021-04-03T13:58:55Z</time>
      </trkpt>
      <trkpt lat="46.28435" lon="6.54826">
        <ele>746.6</ele>
        <time>2021-04-03T13:58:56Z</time>
      </trkpt>
      <trkpt lat="46.28428" lon="6.54831">
        <ele>746.4</ele>
        <time>2021-04-03T13:58:57Z</time>
      </trkpt>
      <trkpt lat="46.28422" lon="6.54838">
        <ele>746.6</ele>
        <time>2021-04-03T13:58:58Z</time>
      </trkpt>
      <trkpt lat="46.28418" lon="6.54846">
        <ele>746.6</ele>
        <time>2021-04-03T13:58:59Z</time>
      </trkpt>
      <trkpt lat="46.28413" lon="6.54854">
        <ele>746.4</ele>
        <time>2021-04-03T13:59:00Z</time>
      </trkpt>
      <trkpt lat="46.28411" lon="6.54864">
        <ele>746.6</ele>
        <time>2021-04-03T13:59:01Z</time>
      </trkpt>
      <trkpt lat="46.28409" lon="6.54875">
        <ele>746.4</ele>
        <time>2021-04-03T13:59:02Z</time>
      </trkpt>
      <trkpt lat="46.28407" lon="6.54885">
        <ele>746.6</ele>
        <time>2021-04-03T13:59:03Z</time>
      </trkpt>
      <trkpt lat="46.28406" lon="6.54896">
        <ele>747</ele>
        <time>2021-04-03T13:59:04Z</time>
      </trkpt>
      <trkpt lat="46.28405" lon="6.54906">
        <ele>747.2</ele>
        <time>2021-04-03T13:59:05Z</time>
      </trkpt>
      <trkpt lat="46.28403" lon="6.54916">
        <ele>747.6</ele>
        <time>2021-04-03T13:59:06Z</time>
      </trkpt>
      <trkpt lat="46.28401" lon="6.54926">
        <ele>747.8</ele>
        <time>2021-04-03T13:59:07Z</time>
      </trkpt>
      <trkpt lat="46.284" lon="6.54935">
        <ele>747.8</ele>
        <time>2021-04-03T13:59:08Z</time>
      </trkpt>
      <trkpt lat="46.28399" lon="6.54943">
        <ele>747.8</ele>
        <time>2021-04-03T13:59:09Z</time>
      </trkpt>
      <trkpt lat="46.28397" lon="6.54952">
        <ele>748</ele>
        <time>2021-04-03T13:59:10Z</time>
      </trkpt>
      <trkpt lat="46.28396" lon="6.5496">
        <ele>748.4</ele>
        <time>2021-04-03T13:59:11Z</time>
      </trkpt>
      <trkpt lat="46.28395" lon="6.54968">
        <ele>748.8</ele>
        <time>2021-04-03T13:59:12Z</time>
      </trkpt>
      <trkpt lat="46.28394" lon="6.54976">
        <ele>749.4</ele>
        <time>2021-04-03T13:59:13Z</time>
      </trkpt>
      <trkpt lat="46.28393" lon="6.54984">
        <ele>749.6</ele>
        <time>2021-04-03T13:59:14Z</time>
      </trkpt>
      <trkpt lat="46.28392" lon="6.54991">
        <ele>749.8</ele>
        <time>2021-04-03T13:59:15Z</time>
      </trkpt>
      <trkpt lat="46.28392" lon="6.54998">
        <ele>750.4</ele>
        <time>2021-04-03T13:59:16Z</time>
      </trkpt>
      <trkpt lat="46.28391" lon="6.55006">
        <ele>750.8</ele>
        <time>2021-04-03T13:59:17Z</time>
      </trkpt>
      <trkpt lat="46.2839" lon="6.55013">
        <ele>751</ele>
        <time>2021-04-03T13:59:18Z</time>
      </trkpt>
      <trkpt lat="46.28389" lon="6.5502">
        <ele>751.4</ele>
        <time>2021-04-03T13:59:19Z</time>
      </trkpt>
      <trkpt lat="46.28388" lon="6.55028">
        <ele>751.6</ele>
        <time>2021-04-03T13:59:20Z</time>
      </trkpt>
      <trkpt lat="46.28386" lon="6.55036">
        <ele>752</ele>
        <time>2021-04-03T13:59:21Z</time>
      </trkpt>
      <trkpt lat="46.28385" lon="6.55043">
        <ele>752.4</ele>
        <time>2021-04-03T13:59:22Z</time>
      </trkpt>
      <trkpt lat="46.28385" lon="6.5505">
        <ele>752.8</ele>
        <time>2021-04-03T13:59:23Z</time>
      </trkpt>
      <trkpt lat="46.28384" lon="6.55057">
        <ele>753.2</ele>
        <time>2021-04-03T13:59:24Z</time>
      </trkpt>
      <trkpt lat="46.28383" lon="6.55063">
        <ele>753.6</ele>
        <time>2021-04-03T13:59:25Z</time>
      </trkpt>
      <trkpt lat="46.28382" lon="6.5507">
        <ele>754.2</ele>
        <time>2021-04-03T13:59:26Z</time>
      </trkpt>
      <trkpt lat="46.28381" lon="6.55076">
        <ele>754.2</ele>
        <time>2021-04-03T13:59:27Z</time>
      </trkpt>
      <trkpt lat="46.28381" lon="6.55082">
        <ele>754.6</ele>
        <time>2021-04-03T13:59:28Z</time>
      </trkpt>
      <trkpt lat="46.2838" lon="6.55088">
        <ele>754.8</ele>
        <time>2021-04-03T13:59:29Z</time>
      </trkpt>
      <trkpt lat="46.28379" lon="6.55095">
        <ele>755.2</ele>
        <time>2021-04-03T13:59:30Z</time>
      </trkpt>
      <trkpt lat="46.28378" lon="6.551">
        <ele>755.4</ele>
        <time>2021-04-03T13:59:31Z</time>
      </trkpt>
      <trkpt lat="46.28377" lon="6.55106">
        <ele>755.8</ele>
        <time>2021-04-03T13:59:32Z</time>
      </trkpt>
      <trkpt lat="46.28376" lon="6.55112">
        <ele>756.2</ele>
        <time>2021-04-03T13:59:33Z</time>
      </trkpt>
      <trkpt lat="46.28374" lon="6.55117">
        <ele>756.6</ele>
        <time>2021-04-03T13:59:34Z</time>
      </trkpt>
      <trkpt lat="46.28372" lon="6.55122">
        <ele>757</ele>
        <time>2021-04-03T13:59:35Z</time>
      </trkpt>
      <trkpt lat="46.2837" lon="6.55127">
        <ele>757.6</ele>
        <time>2021-04-03T13:59:36Z</time>
      </trkpt>
      <trkpt lat="46.28368" lon="6.55132">
        <ele>757.8</ele>
        <time>2021-04-03T13:59:37Z</time>
      </trkpt>
      <trkpt lat="46.28366" lon="6.55136">
        <ele>758.2</ele>
        <time>2021-04-03T13:59:38Z</time>
      </trkpt>
      <trkpt lat="46.28363" lon="6.55141">
        <ele>758.6</ele>
        <time>2021-04-03T13:59:39Z</time>
      </trkpt>
      <trkpt lat="46.28361" lon="6.55145">
        <ele>758.8</ele>
        <time>2021-04-03T13:59:40Z</time>
      </trkpt>
      <trkpt lat="46.28358" lon="6.55149">
        <ele>759.2</ele>
        <time>2021-04-03T13:59:41Z</time>
      </trkpt>
      <trkpt lat="46.28356" lon="6.55153">
        <ele>759.6</ele>
        <time>2021-04-03T13:59:42Z</time>
      </trkpt>
      <trkpt lat="46.28353" lon="6.55156">
        <ele>759.8</ele>
        <time>2021-04-03T13:59:43Z</time>
      </trkpt>
      <trkpt lat="46.2835" lon="6.5516">
        <ele>760.2</ele>
        <time>2021-04-03T13:59:44Z</time>
      </trkpt>
      <trkpt lat="46.28348" lon="6.55163">
        <ele>760.4</ele>
        <time>2021-04-03T13:59:45Z</time>
      </trkpt>
      <trkpt lat="46.28345" lon="6.55167">
        <ele>760.6</ele>
        <time>2021-04-03T13:59:46Z</time>
      </trkpt>
      <trkpt lat="46.28343" lon="6.55171">
        <ele>761</ele>
        <time>2021-04-03T13:59:47Z</time>
      </trkpt>
      <trkpt lat="46.2834" lon="6.55174">
        <ele>761.4</ele>
        <time>2021-04-03T13:59:48Z</time>
      </trkpt>
      <trkpt lat="46.28337" lon="6.55178">
        <ele>761.6</ele>
        <time>2021-04-03T13:59:49Z</time>
      </trkpt>
      <trkpt lat="46.28335" lon="6.55181">
        <ele>762</ele>
        <time>2021-04-03T13:59:50Z</time>
      </trkpt>
      <trkpt lat="46.28333" lon="6.55185">
        <ele>762.4</ele>
        <time>2021-04-03T13:59:51Z</time>
      </trkpt>
      <trkpt lat="46.2833" lon="6.55188">
        <ele>762.8</ele>
        <time>2021-04-03T13:59:52Z</time>
      </trkpt>
      <trkpt lat="46.28328" lon="6.55191">
        <ele>763</ele>
        <time>2021-04-03T13:59:53Z</time>
      </trkpt>
      <trkpt lat="46.28325" lon="6.55194">
        <ele>763.4</ele>
        <time>2021-04-03T13:59:54Z</time>
      </trkpt>
      <trkpt lat="46.28323" lon="6.55196">
        <ele>763.6</ele>
        <time>2021-04-03T13:59:55Z</time>
      </trkpt>
      <trkpt lat="46.2832" lon="6.55199">
        <ele>763.8</ele>
        <time>2021-04-03T13:59:56Z</time>
      </trkpt>
      <trkpt lat="46.28317" lon="6.55201">
        <ele>764</ele>
        <time>2021-04-03T13:59:57Z</time>
      </trkpt>
      <trkpt lat="46.28314" lon="6.55204">
        <ele>764.2</ele>
        <time>2021-04-03T13:59:58Z</time>
      </trkpt>
      <trkpt lat="46.28312" lon="6.55206">
        <ele>764.6</ele>
        <time>2021-04-03T13:59:59Z</time>
      </trkpt>
      <trkpt lat="46.28308" lon="6.55208">
        <ele>765</ele>
        <time>2021-04-03T14:00:00Z</time>
      </trkpt>
      <trkpt lat="46.28305" lon="6.5521">
        <ele>765.2</ele>
        <time>2021-04-03T14:00:01Z</time>
      </trkpt>
      <trkpt lat="46.28302" lon="6.55211">
        <ele>765.8</ele>
        <time>2021-04-03T14:00:02Z</time>
      </trkpt>
      <trkpt lat="46.28299" lon="6.55212">
        <ele>766.2</ele>
        <time>2021-04-03T14:00:03Z</time>
      </trkpt>
      <trkpt lat="46.28296" lon="6.55213">
        <ele>766.4</ele>
        <time>2021-04-03T14:00:04Z</time>
      </trkpt>
      <trkpt lat="46.28291" lon="6.55214">
        <ele>767</ele>
        <time>2021-04-03T14:00:05Z</time>
      </trkpt>
      <trkpt lat="46.28287" lon="6.55215">
        <ele>767.4</ele>
        <time>2021-04-03T14:00:06Z</time>
      </trkpt>
      <trkpt lat="46.28282" lon="6.55216">
        <ele>767.6</ele>
        <time>2021-04-03T14:00:07Z</time>
      </trkpt>
      <trkpt lat="46.28277" lon="6.55216">
        <ele>768.2</ele>
        <time>2021-04-03T14:00:08Z</time>
      </trkpt>
      <trkpt lat="46.28272" lon="6.55216">
        <ele>768.6</ele>
        <time>2021-04-03T14:00:09Z</time>
      </trkpt>
      <trkpt lat="46.28267" lon="6.55216">
        <ele>769</ele>
        <time>2021-04-03T14:00:10Z</time>
      </trkpt>
      <trkpt lat="46.28261" lon="6.55216">
        <ele>769.2</ele>
        <time>2021-04-03T14:00:11Z</time>
      </trkpt>
      <trkpt lat="46.28255" lon="6.55216">
        <ele>769.4</ele>
        <time>2021-04-03T14:00:12Z</time>
      </trkpt>
      <trkpt lat="46.28249" lon="6.55216">
        <ele>769.4</ele>
        <time>2021-04-03T14:00:13Z</time>
      </trkpt>
      <trkpt lat="46.28243" lon="6.55216">
        <ele>769.4</ele>
        <time>2021-04-03T14:00:14Z</time>
      </trkpt>
      <trkpt lat="46.28237" lon="6.55217">
        <ele>769.8</ele>
        <time>2021-04-03T14:00:15Z</time>
      </trkpt>
      <trkpt lat="46.28231" lon="6.55217">
        <ele>770</ele>
        <time>2021-04-03T14:00:16Z</time>
      </trkpt>
      <trkpt lat="46.28225" lon="6.55217">
        <ele>770.4</ele>
        <time>2021-04-03T14:00:17Z</time>
      </trkpt>
      <trkpt lat="46.28219" lon="6.55217">
        <ele>770.6</ele>
        <time>2021-04-03T14:00:18Z</time>
      </trkpt>
      <trkpt lat="46.28213" lon="6.55217">
        <ele>770.8</ele>
        <time>2021-04-03T14:00:19Z</time>
      </trkpt>
      <trkpt lat="46.28207" lon="6.55218">
        <ele>771.4</ele>
        <time>2021-04-03T14:00:20Z</time>
      </trkpt>
      <trkpt lat="46.28201" lon="6.55219">
        <ele>771.8</ele>
        <time>2021-04-03T14:00:21Z</time>
      </trkpt>
      <trkpt lat="46.28194" lon="6.55221">
        <ele>772</ele>
        <time>2021-04-03T14:00:22Z</time>
      </trkpt>
      <trkpt lat="46.28188" lon="6.55223">
        <ele>772.2</ele>
        <time>2021-04-03T14:00:23Z</time>
      </trkpt>
      <trkpt lat="46.28181" lon="6.55225">
        <ele>772.2</ele>
        <time>2021-04-03T14:00:24Z</time>
      </trkpt>
      <trkpt lat="46.28175" lon="6.55227">
        <ele>772.4</ele>
        <time>2021-04-03T14:00:25Z</time>
      </trkpt>
      <trkpt lat="46.28168" lon="6.55229">
        <ele>772.6</ele>
        <time>2021-04-03T14:00:26Z</time>
      </trkpt>
      <trkpt lat="46.28162" lon="6.55231">
        <ele>772.8</ele>
        <time>2021-04-03T14:00:27Z</time>
      </trkpt>
      <trkpt lat="46.28157" lon="6.55233">
        <ele>772.8</ele>
        <time>2021-04-03T14:00:28Z</time>
      </trkpt>
      <trkpt lat="46.28151" lon="6.55235">
        <ele>772.8</ele>
        <time>2021-04-03T14:00:29Z</time>
      </trkpt>
      <trkpt lat="46.28146" lon="6.55237">
        <ele>773</ele>
        <time>2021-04-03T14:00:30Z</time>
      </trkpt>
      <trkpt lat="46.2814" lon="6.55239">
        <ele>773</ele>
        <time>2021-04-03T14:00:31Z</time>
      </trkpt>
      <trkpt lat="46.28135" lon="6.5524">
        <ele>773.2</ele>
        <time>2021-04-03T14:00:32Z</time>
      </trkpt>
      <trkpt lat="46.2813" lon="6.55241">
        <ele>773.4</ele>
        <time>2021-04-03T14:00:33Z</time>
      </trkpt>
      <trkpt lat="46.28125" lon="6.55242">
        <ele>773.2</ele>
        <time>2021-04-03T14:00:34Z</time>
      </trkpt>
      <trkpt lat="46.2812" lon="6.55244">
        <ele>773.4</ele>
        <time>2021-04-03T14:00:35Z</time>
      </trkpt>
      <trkpt lat="46.28116" lon="6.55244">
        <ele>773.8</ele>
        <time>2021-04-03T14:00:36Z</time>
      </trkpt>
      <trkpt lat="46.28111" lon="6.55244">
        <ele>774.2</ele>
        <time>2021-04-03T14:00:37Z</time>
      </trkpt>
      <trkpt lat="46.28106" lon="6.55245">
        <ele>774.2</ele>
        <time>2021-04-03T14:00:38Z</time>
      </trkpt>
      <trkpt lat="46.28101" lon="6.55246">
        <ele>774.6</ele>
        <time>2021-04-03T14:00:39Z</time>
      </trkpt>
      <trkpt lat="46.28096" lon="6.55246">
        <ele>775.2</ele>
        <time>2021-04-03T14:00:40Z</time>
      </trkpt>
      <trkpt lat="46.28091" lon="6.55246">
        <ele>775.4</ele>
        <time>2021-04-03T14:00:41Z</time>
      </trkpt>
      <trkpt lat="46.28086" lon="6.55246">
        <ele>775.6</ele>
        <time>2021-04-03T14:00:42Z</time>
      </trkpt>
      <trkpt lat="46.28082" lon="6.55246">
        <ele>775.8</ele>
        <time>2021-04-03T14:00:43Z</time>
      </trkpt>
      <trkpt lat="46.28077" lon="6.55247">
        <ele>776.2</ele>
        <time>2021-04-03T14:00:44Z</time>
      </trkpt>
      <trkpt lat="46.28073" lon="6.55247">
        <ele>776.2</ele>
        <time>2021-04-03T14:00:45Z</time>
      </trkpt>
      <trkpt lat="46.28068" lon="6.55247">
        <ele>776.6</ele>
        <time>2021-04-03T14:00:46Z</time>
      </trkpt>
      <trkpt lat="46.28064" lon="6.55247">
        <ele>776.6</ele>
        <time>2021-04-03T14:00:47Z</time>
      </trkpt>
      <trkpt lat="46.2806" lon="6.55247">
        <ele>777</ele>
        <time>2021-04-03T14:00:48Z</time>
      </trkpt>
      <trkpt lat="46.28055" lon="6.55247">
        <ele>777.4</ele>
        <time>2021-04-03T14:00:49Z</time>
      </trkpt>
      <trkpt lat="46.28051" lon="6.55248">
        <ele>777.6</ele>
        <time>2021-04-03T14:00:50Z</time>
      </trkpt>
      <trkpt lat="46.28047" lon="6.55248">
        <ele>777.8</ele>
        <time>2021-04-03T14:00:51Z</time>
      </trkpt>
      <trkpt lat="46.28042" lon="6.55248">
        <ele>778</ele>
        <time>2021-04-03T14:00:52Z</time>
      </trkpt>
      <trkpt lat="46.28038" lon="6.55248">
        <ele>778.2</ele>
        <time>2021-04-03T14:00:53Z</time>
      </trkpt>
      <trkpt lat="46.28034" lon="6.55248">
        <ele>778.4</ele>
        <time>2021-04-03T14:00:54Z</time>
      </trkpt>
      <trkpt lat="46.28029" lon="6.55248">
        <ele>778.4</ele>
        <time>2021-04-03T14:00:55Z</time>
      </trkpt>
      <trkpt lat="46.28025" lon="6.55248">
        <ele>778.6</ele>
        <time>2021-04-03T14:00:56Z</time>
      </trkpt>
      <trkpt lat="46.2802" lon="6.55249">
        <ele>779</ele>
        <time>2021-04-03T14:00:57Z</time>
      </trkpt>
      <trkpt lat="46.28015" lon="6.55249">
        <ele>779</ele>
        <time>2021-04-03T14:00:58Z</time>
      </trkpt>
      <trkpt lat="46.28011" lon="6.55249">
        <ele>779.2</ele>
        <time>2021-04-03T14:00:59Z</time>
      </trkpt>
      <trkpt lat="46.28007" lon="6.55249">
        <ele>779.2</ele>
        <time>2021-04-03T14:01:00Z</time>
      </trkpt>
      <trkpt lat="46.28002" lon="6.55249">
        <ele>779.4</ele>
        <time>2021-04-03T14:01:01Z</time>
      </trkpt>
      <trkpt lat="46.27998" lon="6.55249">
        <ele>779.6</ele>
        <time>2021-04-03T14:01:02Z</time>
      </trkpt>
      <trkpt lat="46.27994" lon="6.55249">
        <ele>779.8</ele>
        <time>2021-04-03T14:01:03Z</time>
      </trkpt>
      <trkpt lat="46.2799" lon="6.55249">
        <ele>780</ele>
        <time>2021-04-03T14:01:04Z</time>
      </trkpt>
      <trkpt lat="46.27986" lon="6.55249">
        <ele>780.2</ele>
        <time>2021-04-03T14:01:05Z</time>
      </trkpt>
      <trkpt lat="46.27982" lon="6.55249">
        <ele>780.2</ele>
        <time>2021-04-03T14:01:06Z</time>
      </trkpt>
      <trkpt lat="46.27978" lon="6.55249">
        <ele>780.2</ele>
        <time>2021-04-03T14:01:07Z</time>
      </trkpt>
      <trkpt lat="46.27973" lon="6.55249">
        <ele>780.4</ele>
        <time>2021-04-03T14:01:08Z</time>
      </trkpt>
      <trkpt lat="46.27969" lon="6.55249">
        <ele>780.6</ele>
        <time>2021-04-03T14:01:09Z</time>
      </trkpt>
      <trkpt lat="46.27965" lon="6.55249">
        <ele>780.6</ele>
        <time>2021-04-03T14:01:10Z</time>
      </trkpt>
      <trkpt lat="46.2796" lon="6.55249">
        <ele>780.8</ele>
        <time>2021-04-03T14:01:11Z</time>
      </trkpt>
      <trkpt lat="46.27956" lon="6.55249">
        <ele>781.2</ele>
        <time>2021-04-03T14:01:12Z</time>
      </trkpt>
      <trkpt lat="46.27952" lon="6.55248">
        <ele>781.2</ele>
        <time>2021-04-03T14:01:13Z</time>
      </trkpt>
      <trkpt lat="46.27948" lon="6.55247">
        <ele>781.4</ele>
        <time>2021-04-03T14:01:14Z</time>
      </trkpt>
      <trkpt lat="46.27944" lon="6.55247">
        <ele>781.4</ele>
        <time>2021-04-03T14:01:15Z</time>
      </trkpt>
      <trkpt lat="46.27939" lon="6.55246">
        <ele>781.4</ele>
        <time>2021-04-03T14:01:16Z</time>
      </trkpt>
      <trkpt lat="46.27936" lon="6.55244">
        <ele>781.6</ele>
        <time>2021-04-03T14:01:17Z</time>
      </trkpt>
      <trkpt lat="46.27932" lon="6.55242">
        <ele>781.8</ele>
        <time>2021-04-03T14:01:18Z</time>
      </trkpt>
      <trkpt lat="46.27928" lon="6.5524">
        <ele>782.2</ele>
        <time>2021-04-03T14:01:19Z</time>
      </trkpt>
      <trkpt lat="46.27924" lon="6.55237">
        <ele>782.6</ele>
        <time>2021-04-03T14:01:20Z</time>
      </trkpt>
      <trkpt lat="46.2792" lon="6.55234">
        <ele>782.8</ele>
        <time>2021-04-03T14:01:21Z</time>
      </trkpt>
      <trkpt lat="46.27917" lon="6.55231">
        <ele>783</ele>
        <time>2021-04-03T14:01:22Z</time>
      </trkpt>
      <trkpt lat="46.27913" lon="6.55227">
        <ele>783.2</ele>
        <time>2021-04-03T14:01:23Z</time>
      </trkpt>
      <trkpt lat="46.27909" lon="6.55224">
        <ele>783.4</ele>
        <time>2021-04-03T14:01:24Z</time>
      </trkpt>
      <trkpt lat="46.27905" lon="6.55221">
        <ele>783.8</ele>
        <time>2021-04-03T14:01:25Z</time>
      </trkpt>
      <trkpt lat="46.27901" lon="6.55216">
        <ele>784</ele>
        <time>2021-04-03T14:01:26Z</time>
      </trkpt>
      <trkpt lat="46.27898" lon="6.55212">
        <ele>784.2</ele>
        <time>2021-04-03T14:01:27Z</time>
      </trkpt>
      <trkpt lat="46.27894" lon="6.55208">
        <ele>784.4</ele>
        <time>2021-04-03T14:01:28Z</time>
      </trkpt>
      <trkpt lat="46.2789" lon="6.55204">
        <ele>784.6</ele>
        <time>2021-04-03T14:01:29Z</time>
      </trkpt>
      <trkpt lat="46.27886" lon="6.552">
        <ele>784.8</ele>
        <time>2021-04-03T14:01:30Z</time>
      </trkpt>
      <trkpt lat="46.27882" lon="6.55196">
        <ele>785</ele>
        <time>2021-04-03T14:01:31Z</time>
      </trkpt>
      <trkpt lat="46.27878" lon="6.55192">
        <ele>785.2</ele>
        <time>2021-04-03T14:01:32Z</time>
      </trkpt>
      <trkpt lat="46.27874" lon="6.55188">
        <ele>785.6</ele>
        <time>2021-04-03T14:01:33Z</time>
      </trkpt>
      <trkpt lat="46.2787" lon="6.55184">
        <ele>785.8</ele>
        <time>2021-04-03T14:01:34Z</time>
      </trkpt>
      <trkpt lat="46.27866" lon="6.5518">
        <ele>786</ele>
        <time>2021-04-03T14:01:35Z</time>
      </trkpt>
      <trkpt lat="46.27861" lon="6.55176">
        <ele>786.2</ele>
        <time>2021-04-03T14:01:36Z</time>
      </trkpt>
      <trkpt lat="46.27857" lon="6.55171">
        <ele>786.6</ele>
        <time>2021-04-03T14:01:37Z</time>
      </trkpt>
      <trkpt lat="46.27853" lon="6.55168">
        <ele>786.6</ele>
        <time>2021-04-03T14:01:38Z</time>
      </trkpt>
      <trkpt lat="46.27848" lon="6.55164">
        <ele>786.8</ele>
        <time>2021-04-03T14:01:39Z</time>
      </trkpt>
      <trkpt lat="46.27843" lon="6.5516">
        <ele>787</ele>
        <time>2021-04-03T14:01:40Z</time>
      </trkpt>
      <trkpt lat="46.27838" lon="6.55157">
        <ele>787.2</ele>
        <time>2021-04-03T14:01:41Z</time>
      </trkpt>
      <trkpt lat="46.27833" lon="6.55153">
        <ele>787.2</ele>
        <time>2021-04-03T14:01:42Z</time>
      </trkpt>
      <trkpt lat="46.27827" lon="6.5515">
        <ele>787.4</ele>
        <time>2021-04-03T14:01:43Z</time>
      </trkpt>
      <trkpt lat="46.27821" lon="6.55147">
        <ele>787.4</ele>
        <time>2021-04-03T14:01:44Z</time>
      </trkpt>
      <trkpt lat="46.27815" lon="6.55145">
        <ele>787.6</ele>
        <time>2021-04-03T14:01:45Z</time>
      </trkpt>
      <trkpt lat="46.2781" lon="6.55143">
        <ele>787.6</ele>
        <time>2021-04-03T14:01:46Z</time>
      </trkpt>
      <trkpt lat="46.27804" lon="6.55142">
        <ele>787.4</ele>
        <time>2021-04-03T14:01:47Z</time>
      </trkpt>
      <trkpt lat="46.27798" lon="6.55139">
        <ele>787.6</ele>
        <time>2021-04-03T14:01:48Z</time>
      </trkpt>
      <trkpt lat="46.27793" lon="6.55136">
        <ele>787.4</ele>
        <time>2021-04-03T14:01:49Z</time>
      </trkpt>
      <trkpt lat="46.27788" lon="6.55132">
        <ele>787.6</ele>
        <time>2021-04-03T14:01:50Z</time>
      </trkpt>
      <trkpt lat="46.27783" lon="6.55128">
        <ele>787.8</ele>
        <time>2021-04-03T14:01:51Z</time>
      </trkpt>
      <trkpt lat="46.27777" lon="6.55125">
        <ele>787.8</ele>
        <time>2021-04-03T14:01:52Z</time>
      </trkpt>
      <trkpt lat="46.27772" lon="6.5512">
        <ele>787.8</ele>
        <time>2021-04-03T14:01:53Z</time>
      </trkpt>
      <trkpt lat="46.27767" lon="6.55115">
        <ele>787.8</ele>
        <time>2021-04-03T14:01:54Z</time>
      </trkpt>
      <trkpt lat="46.27762" lon="6.55109">
        <ele>787.8</ele>
        <time>2021-04-03T14:01:55Z</time>
      </trkpt>
      <trkpt lat="46.27756" lon="6.55103">
        <ele>788</ele>
        <time>2021-04-03T14:01:56Z</time>
      </trkpt>
      <trkpt lat="46.27752" lon="6.55096">
        <ele>788</ele>
        <time>2021-04-03T14:01:57Z</time>
      </trkpt>
      <trkpt lat="46.27749" lon="6.55089">
        <ele>788</ele>
        <time>2021-04-03T14:01:58Z</time>
      </trkpt>
      <trkpt lat="46.27745" lon="6.55082">
        <ele>788.2</ele>
        <time>2021-04-03T14:01:59Z</time>
      </trkpt>
      <trkpt lat="46.27741" lon="6.55076">
        <ele>788.2</ele>
        <time>2021-04-03T14:02:00Z</time>
      </trkpt>
      <trkpt lat="46.27736" lon="6.55069">
        <ele>788.4</ele>
        <time>2021-04-03T14:02:01Z</time>
      </trkpt>
      <trkpt lat="46.27731" lon="6.55061">
        <ele>788.6</ele>
        <time>2021-04-03T14:02:02Z</time>
      </trkpt>
      <trkpt lat="46.27727" lon="6.55054">
        <ele>788.8</ele>
        <time>2021-04-03T14:02:03Z</time>
      </trkpt>
      <trkpt lat="46.27722" lon="6.55047">
        <ele>788.8</ele>
        <time>2021-04-03T14:02:04Z</time>
      </trkpt>
      <trkpt lat="46.27717" lon="6.5504">
        <ele>788.8</ele>
        <time>2021-04-03T14:02:05Z</time>
      </trkpt>
      <trkpt lat="46.27712" lon="6.55033">
        <ele>789.2</ele>
        <time>2021-04-03T14:02:06Z</time>
      </trkpt>
      <trkpt lat="46.27708" lon="6.55026">
        <ele>789.2</ele>
        <time>2021-04-03T14:02:07Z</time>
      </trkpt>
      <trkpt lat="46.27703" lon="6.55019">
        <ele>789.6</ele>
        <time>2021-04-03T14:02:08Z</time>
      </trkpt>
      <trkpt lat="46.27699" lon="6.55011">
        <ele>789.6</ele>
        <time>2021-04-03T14:02:09Z</time>
      </trkpt>
      <trkpt lat="46.27696" lon="6.55003">
        <ele>789.6</ele>
        <time>2021-04-03T14:02:10Z</time>
      </trkpt>
      <trkpt lat="46.27693" lon="6.54994">
        <ele>789.8</ele>
        <time>2021-04-03T14:02:11Z</time>
      </trkpt>
      <trkpt lat="46.2769" lon="6.54986">
        <ele>789.6</ele>
        <time>2021-04-03T14:02:12Z</time>
      </trkpt>
      <trkpt lat="46.27687" lon="6.54977">
        <ele>789.8</ele>
        <time>2021-04-03T14:02:13Z</time>
      </trkpt>
      <trkpt lat="46.27684" lon="6.54968">
        <ele>789.8</ele>
        <time>2021-04-03T14:02:14Z</time>
      </trkpt>
      <trkpt lat="46.27681" lon="6.54959">
        <ele>790</ele>
        <time>2021-04-03T14:02:15Z</time>
      </trkpt>
      <trkpt lat="46.27678" lon="6.54952">
        <ele>790</ele>
        <time>2021-04-03T14:02:16Z</time>
      </trkpt>
      <trkpt lat="46.27674" lon="6.54944">
        <ele>790.2</ele>
        <time>2021-04-03T14:02:17Z</time>
      </trkpt>
      <trkpt lat="46.27669" lon="6.54938">
        <ele>790.2</ele>
        <time>2021-04-03T14:02:18Z</time>
      </trkpt>
      <trkpt lat="46.27665" lon="6.54931">
        <ele>790.4</ele>
        <time>2021-04-03T14:02:19Z</time>
      </trkpt>
      <trkpt lat="46.27661" lon="6.54925">
        <ele>790.6</ele>
        <time>2021-04-03T14:02:20Z</time>
      </trkpt>
      <trkpt lat="46.27656" lon="6.5492">
        <ele>790.6</ele>
        <time>2021-04-03T14:02:21Z</time>
      </trkpt>
      <trkpt lat="46.27651" lon="6.54915">
        <ele>790.6</ele>
        <time>2021-04-03T14:02:22Z</time>
      </trkpt>
      <trkpt lat="46.27646" lon="6.54911">
        <ele>790.8</ele>
        <time>2021-04-03T14:02:23Z</time>
      </trkpt>
      <trkpt lat="46.27641" lon="6.54907">
        <ele>790.6</ele>
        <time>2021-04-03T14:02:24Z</time>
      </trkpt>
      <trkpt lat="46.27637" lon="6.54903">
        <ele>791</ele>
        <time>2021-04-03T14:02:25Z</time>
      </trkpt>
      <trkpt lat="46.27632" lon="6.54899">
        <ele>791</ele>
        <time>2021-04-03T14:02:26Z</time>
      </trkpt>
      <trkpt lat="46.27628" lon="6.54894">
        <ele>791</ele>
        <time>2021-04-03T14:02:27Z</time>
      </trkpt>
      <trkpt lat="46.27624" lon="6.5489">
        <ele>791.2</ele>
        <time>2021-04-03T14:02:28Z</time>
      </trkpt>
      <trkpt lat="46.27619" lon="6.54886">
        <ele>791.2</ele>
        <time>2021-04-03T14:02:29Z</time>
      </trkpt>
      <trkpt lat="46.27615" lon="6.54882">
        <ele>791.4</ele>
        <time>2021-04-03T14:02:30Z</time>
      </trkpt>
      <trkpt lat="46.27611" lon="6.54878">
        <ele>791.6</ele>
        <time>2021-04-03T14:02:31Z</time>
      </trkpt>
      <trkpt lat="46.27607" lon="6.54874">
        <ele>791.8</ele>
        <time>2021-04-03T14:02:32Z</time>
      </trkpt>
      <trkpt lat="46.27603" lon="6.5487">
        <ele>792</ele>
        <time>2021-04-03T14:02:33Z</time>
      </trkpt>
      <trkpt lat="46.27598" lon="6.54866">
        <ele>792.4</ele>
        <time>2021-04-03T14:02:34Z</time>
      </trkpt>
      <trkpt lat="46.27594" lon="6.54861">
        <ele>792.4</ele>
        <time>2021-04-03T14:02:35Z</time>
      </trkpt>
      <trkpt lat="46.2759" lon="6.54857">
        <ele>792.4</ele>
        <time>2021-04-03T14:02:36Z</time>
      </trkpt>
      <trkpt lat="46.27586" lon="6.54853">
        <ele>792.8</ele>
        <time>2021-04-03T14:02:37Z</time>
      </trkpt>
      <trkpt lat="46.27582" lon="6.54849">
        <ele>792.8</ele>
        <time>2021-04-03T14:02:38Z</time>
      </trkpt>
      <trkpt lat="46.27578" lon="6.54844">
        <ele>793</ele>
        <time>2021-04-03T14:02:39Z</time>
      </trkpt>
      <trkpt lat="46.27574" lon="6.54839">
        <ele>793.4</ele>
        <time>2021-04-03T14:02:40Z</time>
      </trkpt>
      <trkpt lat="46.27569" lon="6.54835">
        <ele>793.6</ele>
        <time>2021-04-03T14:02:41Z</time>
      </trkpt>
      <trkpt lat="46.27566" lon="6.54831">
        <ele>794</ele>
        <time>2021-04-03T14:02:42Z</time>
      </trkpt>
      <trkpt lat="46.27562" lon="6.54826">
        <ele>794.2</ele>
        <time>2021-04-03T14:02:43Z</time>
      </trkpt>
      <trkpt lat="46.27558" lon="6.54822">
        <ele>794.4</ele>
        <time>2021-04-03T14:02:44Z</time>
      </trkpt>
      <trkpt lat="46.27555" lon="6.54818">
        <ele>794.8</ele>
        <time>2021-04-03T14:02:45Z</time>
      </trkpt>
      <trkpt lat="46.27551" lon="6.54813">
        <ele>795</ele>
        <time>2021-04-03T14:02:46Z</time>
      </trkpt>
      <trkpt lat="46.27548" lon="6.54809">
        <ele>795.2</ele>
        <time>2021-04-03T14:02:47Z</time>
      </trkpt>
      <trkpt lat="46.27544" lon="6.54803">
        <ele>795.4</ele>
        <time>2021-04-03T14:02:48Z</time>
      </trkpt>
      <trkpt lat="46.2754" lon="6.54798">
        <ele>795.8</ele>
        <time>2021-04-03T14:02:49Z</time>
      </trkpt>
      <trkpt lat="46.27537" lon="6.54793">
        <ele>796</ele>
        <time>2021-04-03T14:02:50Z</time>
      </trkpt>
      <trkpt lat="46.27533" lon="6.54788">
        <ele>796.4</ele>
        <time>2021-04-03T14:02:51Z</time>
      </trkpt>
      <trkpt lat="46.2753" lon="6.54783">
        <ele>796.6</ele>
        <time>2021-04-03T14:02:52Z</time>
      </trkpt>
      <trkpt lat="46.27526" lon="6.54778">
        <ele>796.8</ele>
        <time>2021-04-03T14:02:53Z</time>
      </trkpt>
      <trkpt lat="46.27523" lon="6.54773">
        <ele>797.2</ele>
        <time>2021-04-03T14:02:54Z</time>
      </trkpt>
      <trkpt lat="46.27519" lon="6.5477">
        <ele>797.2</ele>
        <time>2021-04-03T14:02:55Z</time>
      </trkpt>
      <trkpt lat="46.27515" lon="6.54765">
        <ele>797.6</ele>
        <time>2021-04-03T14:02:56Z</time>
      </trkpt>
      <trkpt lat="46.27511" lon="6.54761">
        <ele>797.8</ele>
        <time>2021-04-03T14:02:57Z</time>
      </trkpt>
      <trkpt lat="46.27507" lon="6.54757">
        <ele>797.6</ele>
        <time>2021-04-03T14:02:58Z</time>
      </trkpt>
      <trkpt lat="46.27503" lon="6.54752">
        <ele>798.2</ele>
        <time>2021-04-03T14:02:59Z</time>
      </trkpt>
      <trkpt lat="46.27499" lon="6.54748">
        <ele>798.4</ele>
        <time>2021-04-03T14:03:00Z</time>
      </trkpt>
      <trkpt lat="46.27495" lon="6.54744">
        <ele>798.6</ele>
        <time>2021-04-03T14:03:01Z</time>
      </trkpt>
      <trkpt lat="46.2749" lon="6.54741">
        <ele>798.8</ele>
        <time>2021-04-03T14:03:02Z</time>
      </trkpt>
      <trkpt lat="46.27486" lon="6.54737">
        <ele>799</ele>
        <time>2021-04-03T14:03:03Z</time>
      </trkpt>
      <trkpt lat="46.27482" lon="6.54733">
        <ele>799.4</ele>
        <time>2021-04-03T14:03:04Z</time>
      </trkpt>
      <trkpt lat="46.27477" lon="6.54729">
        <ele>799.6</ele>
        <time>2021-04-03T14:03:05Z</time>
      </trkpt>
      <trkpt lat="46.27474" lon="6.54726">
        <ele>799.6</ele>
        <time>2021-04-03T14:03:06Z</time>
      </trkpt>
      <trkpt lat="46.2747" lon="6.54722">
        <ele>799.8</ele>
        <time>2021-04-03T14:03:07Z</time>
      </trkpt>
      <trkpt lat="46.27466" lon="6.54719">
        <ele>800</ele>
        <time>2021-04-03T14:03:08Z</time>
      </trkpt>
      <trkpt lat="46.27463" lon="6.54715">
        <ele>800.2</ele>
        <time>2021-04-03T14:03:09Z</time>
      </trkpt>
      <trkpt lat="46.27459" lon="6.54711">
        <ele>800.4</ele>
        <time>2021-04-03T14:03:10Z</time>
      </trkpt>
      <trkpt lat="46.27455" lon="6.54708">
        <ele>800.4</ele>
        <time>2021-04-03T14:03:11Z</time>
      </trkpt>
      <trkpt lat="46.27451" lon="6.54706">
        <ele>800.8</ele>
        <time>2021-04-03T14:03:12Z</time>
      </trkpt>
      <trkpt lat="46.27447" lon="6.54702">
        <ele>801</ele>
        <time>2021-04-03T14:03:13Z</time>
      </trkpt>
      <trkpt lat="46.27443" lon="6.54699">
        <ele>801.2</ele>
        <time>2021-04-03T14:03:14Z</time>
      </trkpt>
      <trkpt lat="46.2744" lon="6.54696">
        <ele>801.4</ele>
        <time>2021-04-03T14:03:15Z</time>
      </trkpt>
      <trkpt lat="46.27435" lon="6.54694">
        <ele>801.6</ele>
        <time>2021-04-03T14:03:16Z</time>
      </trkpt>
      <trkpt lat="46.27431" lon="6.54692">
        <ele>802</ele>
        <time>2021-04-03T14:03:17Z</time>
      </trkpt>
      <trkpt lat="46.27427" lon="6.54689">
        <ele>802</ele>
        <time>2021-04-03T14:03:18Z</time>
      </trkpt>
      <trkpt lat="46.27422" lon="6.54685">
        <ele>802.2</ele>
        <time>2021-04-03T14:03:19Z</time>
      </trkpt>
      <trkpt lat="46.27419" lon="6.5468">
        <ele>802.4</ele>
        <time>2021-04-03T14:03:20Z</time>
      </trkpt>
      <trkpt lat="46.27415" lon="6.54676">
        <ele>802.8</ele>
        <time>2021-04-03T14:03:21Z</time>
      </trkpt>
      <trkpt lat="46.27411" lon="6.5467">
        <ele>803</ele>
        <time>2021-04-03T14:03:22Z</time>
      </trkpt>
      <trkpt lat="46.27407" lon="6.54666">
        <ele>803.4</ele>
        <time>2021-04-03T14:03:23Z</time>
      </trkpt>
      <trkpt lat="46.27403" lon="6.5466">
        <ele>803.4</ele>
        <time>2021-04-03T14:03:24Z</time>
      </trkpt>
      <trkpt lat="46.27399" lon="6.54655">
        <ele>803.8</ele>
        <time>2021-04-03T14:03:25Z</time>
      </trkpt>
      <trkpt lat="46.27396" lon="6.54649">
        <ele>804.2</ele>
        <time>2021-04-03T14:03:26Z</time>
      </trkpt>
      <trkpt lat="46.27393" lon="6.54644">
        <ele>804.4</ele>
        <time>2021-04-03T14:03:27Z</time>
      </trkpt>
      <trkpt lat="46.27389" lon="6.54638">
        <ele>804.6</ele>
        <time>2021-04-03T14:03:28Z</time>
      </trkpt>
      <trkpt lat="46.27387" lon="6.54632">
        <ele>804.6</ele>
        <time>2021-04-03T14:03:29Z</time>
      </trkpt>
      <trkpt lat="46.27384" lon="6.54626">
        <ele>804.8</ele>
        <time>2021-04-03T14:03:30Z</time>
      </trkpt>
      <trkpt lat="46.27381" lon="6.5462">
        <ele>805.2</ele>
        <time>2021-04-03T14:03:31Z</time>
      </trkpt>
      <trkpt lat="46.27378" lon="6.54613">
        <ele>805.2</ele>
        <time>2021-04-03T14:03:32Z</time>
      </trkpt>
      <trkpt lat="46.27375" lon="6.54607">
        <ele>806</ele>
        <time>2021-04-03T14:03:33Z</time>
      </trkpt>
      <trkpt lat="46.27373" lon="6.54601">
        <ele>806.8</ele>
        <time>2021-04-03T14:03:34Z</time>
      </trkpt>
      <trkpt lat="46.2737" lon="6.54595">
        <ele>807.4</ele>
        <time>2021-04-03T14:03:35Z</time>
      </trkpt>
      <trkpt lat="46.27367" lon="6.54589">
        <ele>807.8</ele>
        <time>2021-04-03T14:03:36Z</time>
      </trkpt>
      <trkpt lat="46.27364" lon="6.54583">
        <ele>808</ele>
        <time>2021-04-03T14:03:37Z</time>
      </trkpt>
      <trkpt lat="46.27361" lon="6.54578">
        <ele>808</ele>
        <time>2021-04-03T14:03:38Z</time>
      </trkpt>
      <trkpt lat="46.27357" lon="6.54572">
        <ele>808.2</ele>
        <time>2021-04-03T14:03:39Z</time>
      </trkpt>
      <trkpt lat="46.27354" lon="6.54565">
        <ele>808.2</ele>
        <time>2021-04-03T14:03:40Z</time>
      </trkpt>
      <trkpt lat="46.27351" lon="6.54559">
        <ele>808.4</ele>
        <time>2021-04-03T14:03:41Z</time>
      </trkpt>
      <trkpt lat="46.27348" lon="6.54553">
        <ele>808.4</ele>
        <time>2021-04-03T14:03:42Z</time>
      </trkpt>
      <trkpt lat="46.27345" lon="6.54547">
        <ele>809</ele>
        <time>2021-04-03T14:03:43Z</time>
      </trkpt>
      <trkpt lat="46.27341" lon="6.5454">
        <ele>809.2</ele>
        <time>2021-04-03T14:03:44Z</time>
      </trkpt>
      <trkpt lat="46.27338" lon="6.54535">
        <ele>809.4</ele>
        <time>2021-04-03T14:03:45Z</time>
      </trkpt>
      <trkpt lat="46.27334" lon="6.54529">
        <ele>809.4</ele>
        <time>2021-04-03T14:03:46Z</time>
      </trkpt>
      <trkpt lat="46.2733" lon="6.54524">
        <ele>809.6</ele>
        <time>2021-04-03T14:03:47Z</time>
      </trkpt>
      <trkpt lat="46.27326" lon="6.54519">
        <ele>809.8</ele>
        <time>2021-04-03T14:03:48Z</time>
      </trkpt>
      <trkpt lat="46.27321" lon="6.54516">
        <ele>810</ele>
        <time>2021-04-03T14:03:49Z</time>
      </trkpt>
      <trkpt lat="46.27316" lon="6.54513">
        <ele>810.2</ele>
        <time>2021-04-03T14:03:50Z</time>
      </trkpt>
      <trkpt lat="46.27311" lon="6.54511">
        <ele>810.2</ele>
        <time>2021-04-03T14:03:51Z</time>
      </trkpt>
      <trkpt lat="46.27306" lon="6.5451">
        <ele>810.2</ele>
        <time>2021-04-03T14:03:52Z</time>
      </trkpt>
      <trkpt lat="46.27301" lon="6.54509">
        <ele>810.4</ele>
        <time>2021-04-03T14:03:53Z</time>
      </trkpt>
      <trkpt lat="46.27296" lon="6.54508">
        <ele>810.4</ele>
        <time>2021-04-03T14:03:54Z</time>
      </trkpt>
      <trkpt lat="46.27291" lon="6.54508">
        <ele>810.6</ele>
        <time>2021-04-03T14:03:55Z</time>
      </trkpt>
      <trkpt lat="46.27286" lon="6.54508">
        <ele>810.8</ele>
        <time>2021-04-03T14:03:56Z</time>
      </trkpt>
      <trkpt lat="46.27281" lon="6.54508">
        <ele>811</ele>
        <time>2021-04-03T14:03:57Z</time>
      </trkpt>
      <trkpt lat="46.27276" lon="6.54508">
        <ele>810.8</ele>
        <time>2021-04-03T14:03:58Z</time>
      </trkpt>
      <trkpt lat="46.27272" lon="6.54508">
        <ele>811</ele>
        <time>2021-04-03T14:03:59Z</time>
      </trkpt>
      <trkpt lat="46.27267" lon="6.54508">
        <ele>811</ele>
        <time>2021-04-03T14:04:00Z</time>
      </trkpt>
      <trkpt lat="46.27263" lon="6.54508">
        <ele>811</ele>
        <time>2021-04-03T14:04:01Z</time>
      </trkpt>
      <trkpt lat="46.27258" lon="6.54507">
        <ele>811.2</ele>
        <time>2021-04-03T14:04:02Z</time>
      </trkpt>
      <trkpt lat="46.27253" lon="6.54507">
        <ele>811.4</ele>
        <time>2021-04-03T14:04:03Z</time>
      </trkpt>
      <trkpt lat="46.27248" lon="6.54507">
        <ele>811.4</ele>
        <time>2021-04-03T14:04:04Z</time>
      </trkpt>
      <trkpt lat="46.27244" lon="6.54506">
        <ele>811.4</ele>
        <time>2021-04-03T14:04:05Z</time>
      </trkpt>
      <trkpt lat="46.27239" lon="6.54504">
        <ele>811.4</ele>
        <time>2021-04-03T14:04:06Z</time>
      </trkpt>
      <trkpt lat="46.27235" lon="6.54502">
        <ele>811.6</ele>
        <time>2021-04-03T14:04:07Z</time>
      </trkpt>
      <trkpt lat="46.2723" lon="6.545">
        <ele>811.6</ele>
        <time>2021-04-03T14:04:08Z</time>
      </trkpt>
      <trkpt lat="46.27226" lon="6.54497">
        <ele>811.8</ele>
        <time>2021-04-03T14:04:09Z</time>
      </trkpt>
      <trkpt lat="46.27221" lon="6.54494">
        <ele>811.6</ele>
        <time>2021-04-03T14:04:10Z</time>
      </trkpt>
      <trkpt lat="46.27217" lon="6.54491">
        <ele>812</ele>
        <time>2021-04-03T14:04:11Z</time>
      </trkpt>
      <trkpt lat="46.27212" lon="6.54488">
        <ele>812</ele>
        <time>2021-04-03T14:04:12Z</time>
      </trkpt>
      <trkpt lat="46.27208" lon="6.54485">
        <ele>811.8</ele>
        <time>2021-04-03T14:04:13Z</time>
      </trkpt>
      <trkpt lat="46.27204" lon="6.54482">
        <ele>812</ele>
        <time>2021-04-03T14:04:14Z</time>
      </trkpt>
      <trkpt lat="46.27199" lon="6.54479">
        <ele>812.4</ele>
        <time>2021-04-03T14:04:15Z</time>
      </trkpt>
      <trkpt lat="46.27195" lon="6.54477">
        <ele>812.8</ele>
        <time>2021-04-03T14:04:16Z</time>
      </trkpt>
      <trkpt lat="46.2719" lon="6.54474">
        <ele>813</ele>
        <time>2021-04-03T14:04:17Z</time>
      </trkpt>
      <trkpt lat="46.27186" lon="6.54472">
        <ele>813.2</ele>
        <time>2021-04-03T14:04:18Z</time>
      </trkpt>
      <trkpt lat="46.27182" lon="6.54469">
        <ele>813.4</ele>
        <time>2021-04-03T14:04:19Z</time>
      </trkpt>
      <trkpt lat="46.27177" lon="6.54467">
        <ele>813.6</ele>
        <time>2021-04-03T14:04:20Z</time>
      </trkpt>
      <trkpt lat="46.27172" lon="6.54465">
        <ele>813.8</ele>
        <time>2021-04-03T14:04:21Z</time>
      </trkpt>
      <trkpt lat="46.27168" lon="6.54462">
        <ele>814</ele>
        <time>2021-04-03T14:04:22Z</time>
      </trkpt>
      <trkpt lat="46.27163" lon="6.5446">
        <ele>814</ele>
        <time>2021-04-03T14:04:23Z</time>
      </trkpt>
      <trkpt lat="46.27159" lon="6.54458">
        <ele>814</ele>
        <time>2021-04-03T14:04:24Z</time>
      </trkpt>
      <trkpt lat="46.27154" lon="6.54456">
        <ele>814</ele>
        <time>2021-04-03T14:04:25Z</time>
      </trkpt>
      <trkpt lat="46.2715" lon="6.54453">
        <ele>814.4</ele>
        <time>2021-04-03T14:04:26Z</time>
      </trkpt>
      <trkpt lat="46.27145" lon="6.54451">
        <ele>814.6</ele>
        <time>2021-04-03T14:04:27Z</time>
      </trkpt>
      <trkpt lat="46.27141" lon="6.54448">
        <ele>814.8</ele>
        <time>2021-04-03T14:04:28Z</time>
      </trkpt>
      <trkpt lat="46.27137" lon="6.54444">
        <ele>815</ele>
        <time>2021-04-03T14:04:29Z</time>
      </trkpt>
      <trkpt lat="46.27133" lon="6.54439">
        <ele>815.4</ele>
        <time>2021-04-03T14:04:30Z</time>
      </trkpt>
      <trkpt lat="46.27129" lon="6.54434">
        <ele>815.4</ele>
        <time>2021-04-03T14:04:31Z</time>
      </trkpt>
      <trkpt lat="46.27126" lon="6.54429">
        <ele>815.8</ele>
        <time>2021-04-03T14:04:32Z</time>
      </trkpt>
      <trkpt lat="46.27123" lon="6.54423">
        <ele>815.8</ele>
        <time>2021-04-03T14:04:33Z</time>
      </trkpt>
      <trkpt lat="46.27121" lon="6.54417">
        <ele>816</ele>
        <time>2021-04-03T14:04:34Z</time>
      </trkpt>
      <trkpt lat="46.27118" lon="6.54411">
        <ele>816.4</ele>
        <time>2021-04-03T14:04:35Z</time>
      </trkpt>
      <trkpt lat="46.27116" lon="6.54405">
        <ele>816.4</ele>
        <time>2021-04-03T14:04:36Z</time>
      </trkpt>
      <trkpt lat="46.27114" lon="6.54398">
        <ele>816.6</ele>
        <time>2021-04-03T14:04:37Z</time>
      </trkpt>
      <trkpt lat="46.27112" lon="6.54392">
        <ele>817</ele>
        <time>2021-04-03T14:04:38Z</time>
      </trkpt>
      <trkpt lat="46.2711" lon="6.54385">
        <ele>817</ele>
        <time>2021-04-03T14:04:39Z</time>
      </trkpt>
      <trkpt lat="46.27108" lon="6.54379">
        <ele>817.4</ele>
        <time>2021-04-03T14:04:40Z</time>
      </trkpt>
      <trkpt lat="46.27105" lon="6.54372">
        <ele>817.6</ele>
        <time>2021-04-03T14:04:41Z</time>
      </trkpt>
      <trkpt lat="46.27103" lon="6.54366">
        <ele>817.8</ele>
        <time>2021-04-03T14:04:42Z</time>
      </trkpt>
      <trkpt lat="46.27101" lon="6.5436">
        <ele>818</ele>
        <time>2021-04-03T14:04:43Z</time>
      </trkpt>
      <trkpt lat="46.27098" lon="6.54354">
        <ele>818.2</ele>
        <time>2021-04-03T14:04:44Z</time>
      </trkpt>
      <trkpt lat="46.27096" lon="6.54347">
        <ele>818.4</ele>
        <time>2021-04-03T14:04:45Z</time>
      </trkpt>
      <trkpt lat="46.27094" lon="6.54341">
        <ele>818.4</ele>
        <time>2021-04-03T14:04:46Z</time>
      </trkpt>
      <trkpt lat="46.27092" lon="6.54335">
        <ele>818.6</ele>
        <time>2021-04-03T14:04:47Z</time>
      </trkpt>
      <trkpt lat="46.27089" lon="6.54328">
        <ele>818.8</ele>
        <time>2021-04-03T14:04:48Z</time>
      </trkpt>
      <trkpt lat="46.27087" lon="6.54321">
        <ele>818.8</ele>
        <time>2021-04-03T14:04:49Z</time>
      </trkpt>
      <trkpt lat="46.27085" lon="6.54315">
        <ele>818.8</ele>
        <time>2021-04-03T14:04:50Z</time>
      </trkpt>
      <trkpt lat="46.27083" lon="6.54308">
        <ele>819</ele>
        <time>2021-04-03T14:04:51Z</time>
      </trkpt>
      <trkpt lat="46.27081" lon="6.543">
        <ele>819.2</ele>
        <time>2021-04-03T14:04:52Z</time>
      </trkpt>
      <trkpt lat="46.2708" lon="6.54293">
        <ele>819.4</ele>
        <time>2021-04-03T14:04:53Z</time>
      </trkpt>
      <trkpt lat="46.27079" lon="6.54286">
        <ele>819.6</ele>
        <time>2021-04-03T14:04:54Z</time>
      </trkpt>
      <trkpt lat="46.27079" lon="6.54278">
        <ele>819.8</ele>
        <time>2021-04-03T14:04:55Z</time>
      </trkpt>
      <trkpt lat="46.27079" lon="6.54271">
        <ele>820</ele>
        <time>2021-04-03T14:04:56Z</time>
      </trkpt>
      <trkpt lat="46.27079" lon="6.54264">
        <ele>820</ele>
        <time>2021-04-03T14:04:57Z</time>
      </trkpt>
      <trkpt lat="46.27079" lon="6.54257">
        <ele>820.4</ele>
        <time>2021-04-03T14:04:58Z</time>
      </trkpt>
      <trkpt lat="46.27079" lon="6.5425">
        <ele>820.4</ele>
        <time>2021-04-03T14:04:59Z</time>
      </trkpt>
      <trkpt lat="46.2708" lon="6.54244">
        <ele>820.4</ele>
        <time>2021-04-03T14:05:00Z</time>
      </trkpt>
      <trkpt lat="46.27082" lon="6.54238">
        <ele>820.4</ele>
        <time>2021-04-03T14:05:01Z</time>
      </trkpt>
      <trkpt lat="46.27083" lon="6.54231">
        <ele>820.8</ele>
        <time>2021-04-03T14:05:02Z</time>
      </trkpt>
      <trkpt lat="46.27083" lon="6.54224">
        <ele>821.4</ele>
        <time>2021-04-03T14:05:03Z</time>
      </trkpt>
      <trkpt lat="46.27083" lon="6.54217">
        <ele>822</ele>
        <time>2021-04-03T14:05:04Z</time>
      </trkpt>
      <trkpt lat="46.27082" lon="6.54211">
        <ele>822</ele>
        <time>2021-04-03T14:05:05Z</time>
      </trkpt>
      <trkpt lat="46.27081" lon="6.54204">
        <ele>822.2</ele>
        <time>2021-04-03T14:05:06Z</time>
      </trkpt>
      <trkpt lat="46.27079" lon="6.54198">
        <ele>822.4</ele>
        <time>2021-04-03T14:05:07Z</time>
      </trkpt>
      <trkpt lat="46.27076" lon="6.54192">
        <ele>822.4</ele>
        <time>2021-04-03T14:05:08Z</time>
      </trkpt>
      <trkpt lat="46.27073" lon="6.54187">
        <ele>822.4</ele>
        <time>2021-04-03T14:05:09Z</time>
      </trkpt>
      <trkpt lat="46.2707" lon="6.54181">
        <ele>822.6</ele>
        <time>2021-04-03T14:05:10Z</time>
      </trkpt>
      <trkpt lat="46.27067" lon="6.54176">
        <ele>823</ele>
        <time>2021-04-03T14:05:11Z</time>
      </trkpt>
      <trkpt lat="46.27064" lon="6.5417">
        <ele>823</ele>
        <time>2021-04-03T14:05:12Z</time>
      </trkpt>
      <trkpt lat="46.27061" lon="6.54165">
        <ele>823.4</ele>
        <time>2021-04-03T14:05:13Z</time>
      </trkpt>
      <trkpt lat="46.27057" lon="6.54159">
        <ele>823.4</ele>
        <time>2021-04-03T14:05:14Z</time>
      </trkpt>
      <trkpt lat="46.27054" lon="6.54154">
        <ele>823.8</ele>
        <time>2021-04-03T14:05:15Z</time>
      </trkpt>
      <trkpt lat="46.2705" lon="6.54149">
        <ele>824</ele>
        <time>2021-04-03T14:05:16Z</time>
      </trkpt>
      <trkpt lat="46.27046" lon="6.54144">
        <ele>824.4</ele>
        <time>2021-04-03T14:05:17Z</time>
      </trkpt>
      <trkpt lat="46.27042" lon="6.5414">
        <ele>824.6</ele>
        <time>2021-04-03T14:05:18Z</time>
      </trkpt>
      <trkpt lat="46.27038" lon="6.54135">
        <ele>825</ele>
        <time>2021-04-03T14:05:19Z</time>
      </trkpt>
      <trkpt lat="46.27034" lon="6.54131">
        <ele>825.2</ele>
        <time>2021-04-03T14:05:20Z</time>
      </trkpt>
      <trkpt lat="46.27029" lon="6.54127">
        <ele>825.4</ele>
        <time>2021-04-03T14:05:21Z</time>
      </trkpt>
      <trkpt lat="46.27025" lon="6.54122">
        <ele>825.6</ele>
        <time>2021-04-03T14:05:22Z</time>
      </trkpt>
      <trkpt lat="46.27021" lon="6.54118">
        <ele>825.8</ele>
        <time>2021-04-03T14:05:23Z</time>
      </trkpt>
      <trkpt lat="46.27017" lon="6.54114">
        <ele>826</ele>
        <time>2021-04-03T14:05:24Z</time>
      </trkpt>
      <trkpt lat="46.27012" lon="6.54109">
        <ele>826.2</ele>
        <time>2021-04-03T14:05:25Z</time>
      </trkpt>
      <trkpt lat="46.27008" lon="6.54105">
        <ele>826.6</ele>
        <time>2021-04-03T14:05:26Z</time>
      </trkpt>
      <trkpt lat="46.27004" lon="6.54101">
        <ele>827</ele>
        <time>2021-04-03T14:05:27Z</time>
      </trkpt>
      <trkpt lat="46.27" lon="6.54097">
        <ele>827.4</ele>
        <time>2021-04-03T14:05:28Z</time>
      </trkpt>
      <trkpt lat="46.26996" lon="6.54092">
        <ele>827.8</ele>
        <time>2021-04-03T14:05:29Z</time>
      </trkpt>
      <trkpt lat="46.26992" lon="6.54087">
        <ele>828</ele>
        <time>2021-04-03T14:05:30Z</time>
      </trkpt>
      <trkpt lat="46.26988" lon="6.54082">
        <ele>828</ele>
        <time>2021-04-03T14:05:31Z</time>
      </trkpt>
      <trkpt lat="46.26985" lon="6.54077">
        <ele>828.4</ele>
        <time>2021-04-03T14:05:32Z</time>
      </trkpt>
      <trkpt lat="46.26981" lon="6.54072">
        <ele>828.8</ele>
        <time>2021-04-03T14:05:33Z</time>
      </trkpt>
      <trkpt lat="46.26978" lon="6.54066">
        <ele>829</ele>
        <time>2021-04-03T14:05:34Z</time>
      </trkpt>
      <trkpt lat="46.26976" lon="6.5406">
        <ele>829</ele>
        <time>2021-04-03T14:05:35Z</time>
      </trkpt>
      <trkpt lat="46.26973" lon="6.54054">
        <ele>829</ele>
        <time>2021-04-03T14:05:36Z</time>
      </trkpt>
      <trkpt lat="46.2697" lon="6.54049">
        <ele>829.2</ele>
        <time>2021-04-03T14:05:37Z</time>
      </trkpt>
      <trkpt lat="46.26968" lon="6.54043">
        <ele>829.4</ele>
        <time>2021-04-03T14:05:38Z</time>
      </trkpt>
      <trkpt lat="46.26965" lon="6.54038">
        <ele>829.2</ele>
        <time>2021-04-03T14:05:39Z</time>
      </trkpt>
      <trkpt lat="46.26963" lon="6.54032">
        <ele>829.4</ele>
        <time>2021-04-03T14:05:40Z</time>
      </trkpt>
      <trkpt lat="46.26961" lon="6.54026">
        <ele>829.6</ele>
        <time>2021-04-03T14:05:41Z</time>
      </trkpt>
      <trkpt lat="46.26959" lon="6.5402">
        <ele>829.8</ele>
        <time>2021-04-03T14:05:42Z</time>
      </trkpt>
      <trkpt lat="46.26956" lon="6.54015">
        <ele>830.2</ele>
        <time>2021-04-03T14:05:43Z</time>
      </trkpt>
      <trkpt lat="46.26953" lon="6.54009">
        <ele>830.4</ele>
        <time>2021-04-03T14:05:44Z</time>
      </trkpt>
      <trkpt lat="46.2695" lon="6.54004">
        <ele>830.6</ele>
        <time>2021-04-03T14:05:45Z</time>
      </trkpt>
      <trkpt lat="46.26947" lon="6.54">
        <ele>830.8</ele>
        <time>2021-04-03T14:05:46Z</time>
      </trkpt>
      <trkpt lat="46.26944" lon="6.53995">
        <ele>831</ele>
        <time>2021-04-03T14:05:47Z</time>
      </trkpt>
      <trkpt lat="46.2694" lon="6.53991">
        <ele>831.4</ele>
        <time>2021-04-03T14:05:48Z</time>
      </trkpt>
      <trkpt lat="46.26936" lon="6.53987">
        <ele>831.4</ele>
        <time>2021-04-03T14:05:49Z</time>
      </trkpt>
      <trkpt lat="46.26932" lon="6.53983">
        <ele>831.4</ele>
        <time>2021-04-03T14:05:50Z</time>
      </trkpt>
      <trkpt lat="46.26928" lon="6.5398">
        <ele>831.8</ele>
        <time>2021-04-03T14:05:51Z</time>
      </trkpt>
      <trkpt lat="46.26923" lon="6.53977">
        <ele>831.8</ele>
        <time>2021-04-03T14:05:52Z</time>
      </trkpt>
      <trkpt lat="46.26919" lon="6.53973">
        <ele>832.2</ele>
        <time>2021-04-03T14:05:53Z</time>
      </trkpt>
      <trkpt lat="46.26915" lon="6.5397">
        <ele>832.6</ele>
        <time>2021-04-03T14:05:54Z</time>
      </trkpt>
      <trkpt lat="46.26911" lon="6.53966">
        <ele>832.8</ele>
        <time>2021-04-03T14:05:55Z</time>
      </trkpt>
      <trkpt lat="46.26907" lon="6.53962">
        <ele>833</ele>
        <time>2021-04-03T14:05:56Z</time>
      </trkpt>
      <trkpt lat="46.26903" lon="6.53959">
        <ele>833</ele>
        <time>2021-04-03T14:05:57Z</time>
      </trkpt>
      <trkpt lat="46.26899" lon="6.53955">
        <ele>833.4</ele>
        <time>2021-04-03T14:05:58Z</time>
      </trkpt>
      <trkpt lat="46.26895" lon="6.53951">
        <ele>833.4</ele>
        <time>2021-04-03T14:05:59Z</time>
      </trkpt>
      <trkpt lat="46.26892" lon="6.53947">
        <ele>833.6</ele>
        <time>2021-04-03T14:06:00Z</time>
      </trkpt>
      <trkpt lat="46.26888" lon="6.53943">
        <ele>833.8</ele>
        <time>2021-04-03T14:06:01Z</time>
      </trkpt>
      <trkpt lat="46.26884" lon="6.53939">
        <ele>834.2</ele>
        <time>2021-04-03T14:06:02Z</time>
      </trkpt>
      <trkpt lat="46.2688" lon="6.53935">
        <ele>834.2</ele>
        <time>2021-04-03T14:06:03Z</time>
      </trkpt>
      <trkpt lat="46.26876" lon="6.53931">
        <ele>834.6</ele>
        <time>2021-04-03T14:06:04Z</time>
      </trkpt>
      <trkpt lat="46.26873" lon="6.53928">
        <ele>834.8</ele>
        <time>2021-04-03T14:06:05Z</time>
      </trkpt>
      <trkpt lat="46.26869" lon="6.53924">
        <ele>835</ele>
        <time>2021-04-03T14:06:06Z</time>
      </trkpt>
      <trkpt lat="46.26865" lon="6.5392">
        <ele>835</ele>
        <time>2021-04-03T14:06:07Z</time>
      </trkpt>
      <trkpt lat="46.26862" lon="6.53915">
        <ele>835.4</ele>
        <time>2021-04-03T14:06:08Z</time>
      </trkpt>
      <trkpt lat="46.26859" lon="6.53911">
        <ele>835.6</ele>
        <time>2021-04-03T14:06:09Z</time>
      </trkpt>
      <trkpt lat="46.26855" lon="6.53907">
        <ele>835.8</ele>
        <time>2021-04-03T14:06:10Z</time>
      </trkpt>
      <trkpt lat="46.26852" lon="6.53903">
        <ele>835.8</ele>
        <time>2021-04-03T14:06:11Z</time>
      </trkpt>
      <trkpt lat="46.26849" lon="6.53898">
        <ele>836</ele>
        <time>2021-04-03T14:06:12Z</time>
      </trkpt>
      <trkpt lat="46.26845" lon="6.53894">
        <ele>836.2</ele>
        <time>2021-04-03T14:06:13Z</time>
      </trkpt>
      <trkpt lat="46.26842" lon="6.5389">
        <ele>836.4</ele>
        <time>2021-04-03T14:06:14Z</time>
      </trkpt>
      <trkpt lat="46.26838" lon="6.53885">
        <ele>836.6</ele>
        <time>2021-04-03T14:06:15Z</time>
      </trkpt>
      <trkpt lat="46.26835" lon="6.53881">
        <ele>836.8</ele>
        <time>2021-04-03T14:06:16Z</time>
      </trkpt>
      <trkpt lat="46.26831" lon="6.53876">
        <ele>837</ele>
        <time>2021-04-03T14:06:17Z</time>
      </trkpt>
      <trkpt lat="46.26827" lon="6.53872">
        <ele>837.2</ele>
        <time>2021-04-03T14:06:18Z</time>
      </trkpt>
      <trkpt lat="46.26823" lon="6.53868">
        <ele>837.4</ele>
        <time>2021-04-03T14:06:19Z</time>
      </trkpt>
      <trkpt lat="46.2682" lon="6.53864">
        <ele>837.6</ele>
        <time>2021-04-03T14:06:20Z</time>
      </trkpt>
      <trkpt lat="46.26816" lon="6.53859">
        <ele>837.8</ele>
        <time>2021-04-03T14:06:21Z</time>
      </trkpt>
      <trkpt lat="46.26812" lon="6.53855">
        <ele>838.2</ele>
        <time>2021-04-03T14:06:22Z</time>
      </trkpt>
      <trkpt lat="46.26808" lon="6.53851">
        <ele>838.6</ele>
        <time>2021-04-03T14:06:23Z</time>
      </trkpt>
      <trkpt lat="46.26804" lon="6.53848">
        <ele>838.6</ele>
        <time>2021-04-03T14:06:24Z</time>
      </trkpt>
      <trkpt lat="46.268" lon="6.53844">
        <ele>838.8</ele>
        <time>2021-04-03T14:06:25Z</time>
      </trkpt>
      <trkpt lat="46.26796" lon="6.53841">
        <ele>839.2</ele>
        <time>2021-04-03T14:06:26Z</time>
      </trkpt>
      <trkpt lat="46.26791" lon="6.53839">
        <ele>839.4</ele>
        <time>2021-04-03T14:06:27Z</time>
      </trkpt>
      <trkpt lat="46.26787" lon="6.53837">
        <ele>839.6</ele>
        <time>2021-04-03T14:06:28Z</time>
      </trkpt>
      <trkpt lat="46.26782" lon="6.53834">
        <ele>839.6</ele>
        <time>2021-04-03T14:06:29Z</time>
      </trkpt>
      <trkpt lat="46.26778" lon="6.53832">
        <ele>840</ele>
        <time>2021-04-03T14:06:30Z</time>
      </trkpt>
      <trkpt lat="46.26772" lon="6.53831">
        <ele>840.2</ele>
        <time>2021-04-03T14:06:31Z</time>
      </trkpt>
      <trkpt lat="46.26767" lon="6.53829">
        <ele>840.4</ele>
        <time>2021-04-03T14:06:32Z</time>
      </trkpt>
      <trkpt lat="46.26762" lon="6.53828">
        <ele>840.4</ele>
        <time>2021-04-03T14:06:33Z</time>
      </trkpt>
      <trkpt lat="46.26757" lon="6.53827">
        <ele>840.6</ele>
        <time>2021-04-03T14:06:34Z</time>
      </trkpt>
      <trkpt lat="46.26752" lon="6.53825">
        <ele>840.8</ele>
        <time>2021-04-03T14:06:35Z</time>
      </trkpt>
      <trkpt lat="46.26748" lon="6.53823">
        <ele>841</ele>
        <time>2021-04-03T14:06:36Z</time>
      </trkpt>
      <trkpt lat="46.26744" lon="6.5382">
        <ele>841.2</ele>
        <time>2021-04-03T14:06:37Z</time>
      </trkpt>
      <trkpt lat="46.2674" lon="6.53816">
        <ele>841.4</ele>
        <time>2021-04-03T14:06:38Z</time>
      </trkpt>
      <trkpt lat="46.26736" lon="6.53813">
        <ele>841.4</ele>
        <time>2021-04-03T14:06:39Z</time>
      </trkpt>
      <trkpt lat="46.26731" lon="6.5381">
        <ele>841.6</ele>
        <time>2021-04-03T14:06:40Z</time>
      </trkpt>
      <trkpt lat="46.26727" lon="6.53807">
        <ele>841.8</ele>
        <time>2021-04-03T14:06:41Z</time>
      </trkpt>
      <trkpt lat="46.26723" lon="6.53803">
        <ele>842.2</ele>
        <time>2021-04-03T14:06:42Z</time>
      </trkpt>
      <trkpt lat="46.26718" lon="6.53801">
        <ele>842.2</ele>
        <time>2021-04-03T14:06:43Z</time>
      </trkpt>
      <trkpt lat="46.26713" lon="6.53798">
        <ele>842.6</ele>
        <time>2021-04-03T14:06:44Z</time>
      </trkpt>
      <trkpt lat="46.26708" lon="6.53795">
        <ele>842.6</ele>
        <time>2021-04-03T14:06:45Z</time>
      </trkpt>
      <trkpt lat="46.26704" lon="6.53793">
        <ele>843</ele>
        <time>2021-04-03T14:06:46Z</time>
      </trkpt>
      <trkpt lat="46.267" lon="6.5379">
        <ele>843.4</ele>
        <time>2021-04-03T14:06:47Z</time>
      </trkpt>
      <trkpt lat="46.26696" lon="6.53788">
        <ele>843.6</ele>
        <time>2021-04-03T14:06:48Z</time>
      </trkpt>
      <trkpt lat="46.26692" lon="6.53784">
        <ele>843.8</ele>
        <time>2021-04-03T14:06:49Z</time>
      </trkpt>
      <trkpt lat="46.26689" lon="6.53781">
        <ele>844</ele>
        <time>2021-04-03T14:06:50Z</time>
      </trkpt>
      <trkpt lat="46.26685" lon="6.53778">
        <ele>844</ele>
        <time>2021-04-03T14:06:51Z</time>
      </trkpt>
      <trkpt lat="46.26681" lon="6.53775">
        <ele>844.2</ele>
        <time>2021-04-03T14:06:52Z</time>
      </trkpt>
      <trkpt lat="46.26678" lon="6.53771">
        <ele>844.4</ele>
        <time>2021-04-03T14:06:53Z</time>
      </trkpt>
      <trkpt lat="46.26674" lon="6.53766">
        <ele>844.8</ele>
        <time>2021-04-03T14:06:54Z</time>
      </trkpt>
      <trkpt lat="46.2667" lon="6.53762">
        <ele>845</ele>
        <time>2021-04-03T14:06:55Z</time>
      </trkpt>
      <trkpt lat="46.26666" lon="6.53757">
        <ele>845.4</ele>
        <time>2021-04-03T14:06:56Z</time>
      </trkpt>
      <trkpt lat="46.26663" lon="6.53753">
        <ele>845.4</ele>
        <time>2021-04-03T14:06:57Z</time>
      </trkpt>
      <trkpt lat="46.26659" lon="6.53748">
        <ele>845.6</ele>
        <time>2021-04-03T14:06:58Z</time>
      </trkpt>
      <trkpt lat="46.26655" lon="6.53743">
        <ele>845.8</ele>
        <time>2021-04-03T14:06:59Z</time>
      </trkpt>
      <trkpt lat="46.2665" lon="6.53739">
        <ele>846.2</ele>
        <time>2021-04-03T14:07:00Z</time>
      </trkpt>
      <trkpt lat="46.26646" lon="6.53734">
        <ele>846.4</ele>
        <time>2021-04-03T14:07:01Z</time>
      </trkpt>
      <trkpt lat="46.26641" lon="6.5373">
        <ele>846.6</ele>
        <time>2021-04-03T14:07:02Z</time>
      </trkpt>
      <trkpt lat="46.26636" lon="6.53727">
        <ele>846.8</ele>
        <time>2021-04-03T14:07:03Z</time>
      </trkpt>
      <trkpt lat="46.26632" lon="6.53722">
        <ele>846.8</ele>
        <time>2021-04-03T14:07:04Z</time>
      </trkpt>
      <trkpt lat="46.26628" lon="6.53717">
        <ele>847.2</ele>
        <time>2021-04-03T14:07:05Z</time>
      </trkpt>
      <trkpt lat="46.26623" lon="6.53711">
        <ele>847.2</ele>
        <time>2021-04-03T14:07:06Z</time>
      </trkpt>
      <trkpt lat="46.26619" lon="6.53706">
        <ele>847.6</ele>
        <time>2021-04-03T14:07:07Z</time>
      </trkpt>
      <trkpt lat="46.26615" lon="6.53701">
        <ele>847.8</ele>
        <time>2021-04-03T14:07:08Z</time>
      </trkpt>
      <trkpt lat="46.26611" lon="6.53696">
        <ele>847.8</ele>
        <time>2021-04-03T14:07:09Z</time>
      </trkpt>
      <trkpt lat="46.26607" lon="6.53691">
        <ele>848</ele>
        <time>2021-04-03T14:07:10Z</time>
      </trkpt>
      <trkpt lat="46.26603" lon="6.53686">
        <ele>847.8</ele>
        <time>2021-04-03T14:07:11Z</time>
      </trkpt>
      <trkpt lat="46.266" lon="6.53682">
        <ele>848</ele>
        <time>2021-04-03T14:07:12Z</time>
      </trkpt>
      <trkpt lat="46.26596" lon="6.53677">
        <ele>848</ele>
        <time>2021-04-03T14:07:13Z</time>
      </trkpt>
      <trkpt lat="46.26593" lon="6.53673">
        <ele>848.2</ele>
        <time>2021-04-03T14:07:14Z</time>
      </trkpt>
      <trkpt lat="46.26589" lon="6.53668">
        <ele>848.2</ele>
        <time>2021-04-03T14:07:15Z</time>
      </trkpt>
      <trkpt lat="46.26585" lon="6.53664">
        <ele>848.6</ele>
        <time>2021-04-03T14:07:16Z</time>
      </trkpt>
      <trkpt lat="46.26581" lon="6.5366">
        <ele>848.8</ele>
        <time>2021-04-03T14:07:17Z</time>
      </trkpt>
      <trkpt lat="46.26578" lon="6.53656">
        <ele>848.8</ele>
        <time>2021-04-03T14:07:18Z</time>
      </trkpt>
      <trkpt lat="46.26574" lon="6.53652">
        <ele>849</ele>
        <time>2021-04-03T14:07:19Z</time>
      </trkpt>
      <trkpt lat="46.2657" lon="6.53648">
        <ele>849.2</ele>
        <time>2021-04-03T14:07:20Z</time>
      </trkpt>
      <trkpt lat="46.26566" lon="6.53644">
        <ele>849.6</ele>
        <time>2021-04-03T14:07:21Z</time>
      </trkpt>
      <trkpt lat="46.26562" lon="6.5364">
        <ele>849.8</ele>
        <time>2021-04-03T14:07:22Z</time>
      </trkpt>
      <trkpt lat="46.26558" lon="6.53636">
        <ele>849.8</ele>
        <time>2021-04-03T14:07:23Z</time>
      </trkpt>
      <trkpt lat="46.26555" lon="6.53632">
        <ele>850</ele>
        <time>2021-04-03T14:07:24Z</time>
      </trkpt>
      <trkpt lat="46.26551" lon="6.53628">
        <ele>850.4</ele>
        <time>2021-04-03T14:07:25Z</time>
      </trkpt>
      <trkpt lat="46.26547" lon="6.53623">
        <ele>850.6</ele>
        <time>2021-04-03T14:07:26Z</time>
      </trkpt>
      <trkpt lat="46.26543" lon="6.53619">
        <ele>850.8</ele>
        <time>2021-04-03T14:07:27Z</time>
      </trkpt>
      <trkpt lat="46.26539" lon="6.53615">
        <ele>850.8</ele>
        <time>2021-04-03T14:07:28Z</time>
      </trkpt>
      <trkpt lat="46.26534" lon="6.53612">
        <ele>851</ele>
        <time>2021-04-03T14:07:29Z</time>
      </trkpt>
      <trkpt lat="46.26529" lon="6.53609">
        <ele>851.2</ele>
        <time>2021-04-03T14:07:30Z</time>
      </trkpt>
      <trkpt lat="46.26525" lon="6.53606">
        <ele>851.6</ele>
        <time>2021-04-03T14:07:31Z</time>
      </trkpt>
      <trkpt lat="46.2652" lon="6.53603">
        <ele>851.6</ele>
        <time>2021-04-03T14:07:32Z</time>
      </trkpt>
      <trkpt lat="46.26516" lon="6.536">
        <ele>851.6</ele>
        <time>2021-04-03T14:07:33Z</time>
      </trkpt>
      <trkpt lat="46.26512" lon="6.53597">
        <ele>852</ele>
        <time>2021-04-03T14:07:34Z</time>
      </trkpt>
      <trkpt lat="46.26508" lon="6.53595">
        <ele>852.4</ele>
        <time>2021-04-03T14:07:35Z</time>
      </trkpt>
      <trkpt lat="46.26503" lon="6.53592">
        <ele>852.4</ele>
        <time>2021-04-03T14:07:36Z</time>
      </trkpt>
      <trkpt lat="46.26499" lon="6.5359">
        <ele>852.6</ele>
        <time>2021-04-03T14:07:37Z</time>
      </trkpt>
      <trkpt lat="46.26494" lon="6.53587">
        <ele>852.8</ele>
        <time>2021-04-03T14:07:38Z</time>
      </trkpt>
      <trkpt lat="46.2649" lon="6.53584">
        <ele>853.2</ele>
        <time>2021-04-03T14:07:39Z</time>
      </trkpt>
      <trkpt lat="46.26485" lon="6.53582">
        <ele>853.4</ele>
        <time>2021-04-03T14:07:40Z</time>
      </trkpt>
      <trkpt lat="46.26481" lon="6.5358">
        <ele>853.6</ele>
        <time>2021-04-03T14:07:41Z</time>
      </trkpt>
      <trkpt lat="46.26476" lon="6.53578">
        <ele>853.8</ele>
        <time>2021-04-03T14:07:42Z</time>
      </trkpt>
      <trkpt lat="46.26472" lon="6.53576">
        <ele>854</ele>
        <time>2021-04-03T14:07:43Z</time>
      </trkpt>
      <trkpt lat="46.26467" lon="6.53574">
        <ele>854.4</ele>
        <time>2021-04-03T14:07:44Z</time>
      </trkpt>
      <trkpt lat="46.26463" lon="6.53572">
        <ele>854.4</ele>
        <time>2021-04-03T14:07:45Z</time>
      </trkpt>
      <trkpt lat="46.26459" lon="6.5357">
        <ele>854.6</ele>
        <time>2021-04-03T14:07:46Z</time>
      </trkpt>
      <trkpt lat="46.26454" lon="6.53568">
        <ele>854.8</ele>
        <time>2021-04-03T14:07:47Z</time>
      </trkpt>
      <trkpt lat="46.26449" lon="6.53566">
        <ele>855</ele>
        <time>2021-04-03T14:07:48Z</time>
      </trkpt>
      <trkpt lat="46.26445" lon="6.53564">
        <ele>855</ele>
        <time>2021-04-03T14:07:49Z</time>
      </trkpt>
      <trkpt lat="46.2644" lon="6.53563">
        <ele>855.2</ele>
        <time>2021-04-03T14:07:50Z</time>
      </trkpt>
      <trkpt lat="46.26436" lon="6.53561">
        <ele>855.4</ele>
        <time>2021-04-03T14:07:51Z</time>
      </trkpt>
      <trkpt lat="46.26431" lon="6.53561">
        <ele>855.4</ele>
        <time>2021-04-03T14:07:52Z</time>
      </trkpt>
      <trkpt lat="46.26427" lon="6.53561">
        <ele>855.6</ele>
        <time>2021-04-03T14:07:53Z</time>
      </trkpt>
      <trkpt lat="46.26422" lon="6.53561">
        <ele>856</ele>
        <time>2021-04-03T14:07:54Z</time>
      </trkpt>
      <trkpt lat="46.26417" lon="6.53561">
        <ele>856.2</ele>
        <time>2021-04-03T14:07:55Z</time>
      </trkpt>
      <trkpt lat="46.26412" lon="6.53561">
        <ele>856.4</ele>
        <time>2021-04-03T14:07:56Z</time>
      </trkpt>
      <trkpt lat="46.26408" lon="6.53561">
        <ele>856.6</ele>
        <time>2021-04-03T14:07:57Z</time>
      </trkpt>
      <trkpt lat="46.26403" lon="6.53561">
        <ele>856.8</ele>
        <time>2021-04-03T14:07:58Z</time>
      </trkpt>
      <trkpt lat="46.26398" lon="6.53561">
        <ele>857</ele>
        <time>2021-04-03T14:07:59Z</time>
      </trkpt>
      <trkpt lat="46.26394" lon="6.53561">
        <ele>857</ele>
        <time>2021-04-03T14:08:00Z</time>
      </trkpt>
      <trkpt lat="46.26389" lon="6.53562">
        <ele>857.2</ele>
        <time>2021-04-03T14:08:01Z</time>
      </trkpt>
      <trkpt lat="46.26384" lon="6.53562">
        <ele>857.2</ele>
        <time>2021-04-03T14:08:02Z</time>
      </trkpt>
      <trkpt lat="46.26379" lon="6.53563">
        <ele>857.2</ele>
        <time>2021-04-03T14:08:03Z</time>
      </trkpt>
      <trkpt lat="46.26374" lon="6.53564">
        <ele>857.4</ele>
        <time>2021-04-03T14:08:04Z</time>
      </trkpt>
      <trkpt lat="46.26369" lon="6.53565">
        <ele>857.4</ele>
        <time>2021-04-03T14:08:05Z</time>
      </trkpt>
      <trkpt lat="46.26365" lon="6.53565">
        <ele>857.6</ele>
        <time>2021-04-03T14:08:06Z</time>
      </trkpt>
      <trkpt lat="46.2636" lon="6.53566">
        <ele>857.8</ele>
        <time>2021-04-03T14:08:07Z</time>
      </trkpt>
      <trkpt lat="46.26355" lon="6.53567">
        <ele>858.4</ele>
        <time>2021-04-03T14:08:08Z</time>
      </trkpt>
      <trkpt lat="46.26351" lon="6.53568">
        <ele>858.8</ele>
        <time>2021-04-03T14:08:09Z</time>
      </trkpt>
      <trkpt lat="46.26346" lon="6.53568">
        <ele>859.2</ele>
        <time>2021-04-03T14:08:10Z</time>
      </trkpt>
      <trkpt lat="46.26342" lon="6.53569">
        <ele>859</ele>
        <time>2021-04-03T14:08:11Z</time>
      </trkpt>
      <trkpt lat="46.26337" lon="6.5357">
        <ele>859.2</ele>
        <time>2021-04-03T14:08:12Z</time>
      </trkpt>
      <trkpt lat="46.26333" lon="6.53571">
        <ele>859.4</ele>
        <time>2021-04-03T14:08:13Z</time>
      </trkpt>
      <trkpt lat="46.26329" lon="6.53571">
        <ele>859.4</ele>
        <time>2021-04-03T14:08:14Z</time>
      </trkpt>
      <trkpt lat="46.26324" lon="6.53572">
        <ele>859.6</ele>
        <time>2021-04-03T14:08:15Z</time>
      </trkpt>
      <trkpt lat="46.2632" lon="6.53572">
        <ele>859.8</ele>
        <time>2021-04-03T14:08:16Z</time>
      </trkpt>
      <trkpt lat="46.26315" lon="6.53573">
        <ele>860</ele>
        <time>2021-04-03T14:08:17Z</time>
      </trkpt>
      <trkpt lat="46.26311" lon="6.53573">
        <ele>860.2</ele>
        <time>2021-04-03T14:08:18Z</time>
      </trkpt>
      <trkpt lat="46.26306" lon="6.53574">
        <ele>860.4</ele>
        <time>2021-04-03T14:08:19Z</time>
      </trkpt>
      <trkpt lat="46.26302" lon="6.53574">
        <ele>860.4</ele>
        <time>2021-04-03T14:08:20Z</time>
      </trkpt>
      <trkpt lat="46.26297" lon="6.53573">
        <ele>860.4</ele>
        <time>2021-04-03T14:08:21Z</time>
      </trkpt>
      <trkpt lat="46.26293" lon="6.53572">
        <ele>860.6</ele>
        <time>2021-04-03T14:08:22Z</time>
      </trkpt>
      <trkpt lat="46.26289" lon="6.5357">
        <ele>861</ele>
        <time>2021-04-03T14:08:23Z</time>
      </trkpt>
      <trkpt lat="46.26285" lon="6.53568">
        <ele>861.2</ele>
        <time>2021-04-03T14:08:24Z</time>
      </trkpt>
      <trkpt lat="46.2628" lon="6.53566">
        <ele>861.4</ele>
        <time>2021-04-03T14:08:25Z</time>
      </trkpt>
      <trkpt lat="46.26276" lon="6.53564">
        <ele>861.4</ele>
        <time>2021-04-03T14:08:26Z</time>
      </trkpt>
      <trkpt lat="46.26273" lon="6.53561">
        <ele>861.6</ele>
        <time>2021-04-03T14:08:27Z</time>
      </trkpt>
      <trkpt lat="46.26269" lon="6.53558">
        <ele>862</ele>
        <time>2021-04-03T14:08:28Z</time>
      </trkpt>
      <trkpt lat="46.26265" lon="6.53555">
        <ele>862</ele>
        <time>2021-04-03T14:08:29Z</time>
      </trkpt>
      <trkpt lat="46.26261" lon="6.53552">
        <ele>862.4</ele>
        <time>2021-04-03T14:08:30Z</time>
      </trkpt>
      <trkpt lat="46.26257" lon="6.53549">
        <ele>862.4</ele>
        <time>2021-04-03T14:08:31Z</time>
      </trkpt>
      <trkpt lat="46.26253" lon="6.53546">
        <ele>862.6</ele>
        <time>2021-04-03T14:08:32Z</time>
      </trkpt>
      <trkpt lat="46.26249" lon="6.53543">
        <ele>862.8</ele>
        <time>2021-04-03T14:08:33Z</time>
      </trkpt>
      <trkpt lat="46.26244" lon="6.5354">
        <ele>863</ele>
        <time>2021-04-03T14:08:34Z</time>
      </trkpt>
      <trkpt lat="46.2624" lon="6.53537">
        <ele>863.2</ele>
        <time>2021-04-03T14:08:35Z</time>
      </trkpt>
      <trkpt lat="46.26236" lon="6.53534">
        <ele>863.6</ele>
        <time>2021-04-03T14:08:36Z</time>
      </trkpt>
      <trkpt lat="46.26232" lon="6.53531">
        <ele>863.6</ele>
        <time>2021-04-03T14:08:37Z</time>
      </trkpt>
      <trkpt lat="46.26227" lon="6.53528">
        <ele>864</ele>
        <time>2021-04-03T14:08:38Z</time>
      </trkpt>
      <trkpt lat="46.26223" lon="6.53525">
        <ele>864.2</ele>
        <time>2021-04-03T14:08:39Z</time>
      </trkpt>
      <trkpt lat="46.26219" lon="6.53522">
        <ele>864.2</ele>
        <time>2021-04-03T14:08:40Z</time>
      </trkpt>
      <trkpt lat="46.26214" lon="6.53519">
        <ele>864.4</ele>
        <time>2021-04-03T14:08:41Z</time>
      </trkpt>
      <trkpt lat="46.2621" lon="6.53516">
        <ele>864.4</ele>
        <time>2021-04-03T14:08:42Z</time>
      </trkpt>
      <trkpt lat="46.26205" lon="6.53514">
        <ele>864.6</ele>
        <time>2021-04-03T14:08:43Z</time>
      </trkpt>
      <trkpt lat="46.26201" lon="6.53512">
        <ele>865</ele>
        <time>2021-04-03T14:08:44Z</time>
      </trkpt>
      <trkpt lat="46.26196" lon="6.5351">
        <ele>865.2</ele>
        <time>2021-04-03T14:08:45Z</time>
      </trkpt>
      <trkpt lat="46.26192" lon="6.53507">
        <ele>865.4</ele>
        <time>2021-04-03T14:08:46Z</time>
      </trkpt>
      <trkpt lat="46.26187" lon="6.53505">
        <ele>865.8</ele>
        <time>2021-04-03T14:08:47Z</time>
      </trkpt>
      <trkpt lat="46.26183" lon="6.53502">
        <ele>866</ele>
        <time>2021-04-03T14:08:48Z</time>
      </trkpt>
      <trkpt lat="46.26178" lon="6.535">
        <ele>866</ele>
        <time>2021-04-03T14:08:49Z</time>
      </trkpt>
      <trkpt lat="46.26174" lon="6.53498">
        <ele>866.6</ele>
        <time>2021-04-03T14:08:50Z</time>
      </trkpt>
      <trkpt lat="46.26169" lon="6.53496">
        <ele>866.8</ele>
        <time>2021-04-03T14:08:51Z</time>
      </trkpt>
      <trkpt lat="46.26164" lon="6.53494">
        <ele>866.8</ele>
        <time>2021-04-03T14:08:52Z</time>
      </trkpt>
      <trkpt lat="46.26159" lon="6.53492">
        <ele>867</ele>
        <time>2021-04-03T14:08:53Z</time>
      </trkpt>
      <trkpt lat="46.26155" lon="6.5349">
        <ele>867.2</ele>
        <time>2021-04-03T14:08:54Z</time>
      </trkpt>
      <trkpt lat="46.2615" lon="6.53488">
        <ele>867.4</ele>
        <time>2021-04-03T14:08:55Z</time>
      </trkpt>
      <trkpt lat="46.26146" lon="6.53485">
        <ele>867.4</ele>
        <time>2021-04-03T14:08:56Z</time>
      </trkpt>
      <trkpt lat="46.26141" lon="6.53482">
        <ele>867.4</ele>
        <time>2021-04-03T14:08:57Z</time>
      </trkpt>
      <trkpt lat="46.26137" lon="6.53479">
        <ele>867.4</ele>
        <time>2021-04-03T14:08:58Z</time>
      </trkpt>
      <trkpt lat="46.26132" lon="6.53475">
        <ele>867.8</ele>
        <time>2021-04-03T14:08:59Z</time>
      </trkpt>
      <trkpt lat="46.26128" lon="6.53471">
        <ele>868</ele>
        <time>2021-04-03T14:09:00Z</time>
      </trkpt>
      <trkpt lat="46.26124" lon="6.53468">
        <ele>868.2</ele>
        <time>2021-04-03T14:09:01Z</time>
      </trkpt>
      <trkpt lat="46.2612" lon="6.53464">
        <ele>868.4</ele>
        <time>2021-04-03T14:09:02Z</time>
      </trkpt>
      <trkpt lat="46.26115" lon="6.5346">
        <ele>868.6</ele>
        <time>2021-04-03T14:09:03Z</time>
      </trkpt>
      <trkpt lat="46.26111" lon="6.53456">
        <ele>869</ele>
        <time>2021-04-03T14:09:04Z</time>
      </trkpt>
      <trkpt lat="46.26107" lon="6.53453">
        <ele>869</ele>
        <time>2021-04-03T14:09:05Z</time>
      </trkpt>
      <trkpt lat="46.26103" lon="6.53449">
        <ele>869.2</ele>
        <time>2021-04-03T14:09:06Z</time>
      </trkpt>
      <trkpt lat="46.26098" lon="6.53446">
        <ele>869.4</ele>
        <time>2021-04-03T14:09:07Z</time>
      </trkpt>
      <trkpt lat="46.26094" lon="6.53444">
        <ele>869.8</ele>
        <time>2021-04-03T14:09:08Z</time>
      </trkpt>
      <trkpt lat="46.26089" lon="6.53441">
        <ele>870</ele>
        <time>2021-04-03T14:09:09Z</time>
      </trkpt>
      <trkpt lat="46.26084" lon="6.53438">
        <ele>870.2</ele>
        <time>2021-04-03T14:09:10Z</time>
      </trkpt>
      <trkpt lat="46.26079" lon="6.53436">
        <ele>870.2</ele>
        <time>2021-04-03T14:09:11Z</time>
      </trkpt>
      <trkpt lat="46.26075" lon="6.53434">
        <ele>870.4</ele>
        <time>2021-04-03T14:09:12Z</time>
      </trkpt>
      <trkpt lat="46.2607" lon="6.53431">
        <ele>870.6</ele>
        <time>2021-04-03T14:09:13Z</time>
      </trkpt>
      <trkpt lat="46.26066" lon="6.53429">
        <ele>870.6</ele>
        <time>2021-04-03T14:09:14Z</time>
      </trkpt>
      <trkpt lat="46.26061" lon="6.53426">
        <ele>870.6</ele>
        <time>2021-04-03T14:09:15Z</time>
      </trkpt>
      <trkpt lat="46.26057" lon="6.53423">
        <ele>871</ele>
        <time>2021-04-03T14:09:16Z</time>
      </trkpt>
      <trkpt lat="46.26052" lon="6.5342">
        <ele>870.8</ele>
        <time>2021-04-03T14:09:17Z</time>
      </trkpt>
      <trkpt lat="46.26048" lon="6.53416">
        <ele>871</ele>
        <time>2021-04-03T14:09:18Z</time>
      </trkpt>
      <trkpt lat="46.26043" lon="6.53413">
        <ele>871.2</ele>
        <time>2021-04-03T14:09:19Z</time>
      </trkpt>
      <trkpt lat="46.26039" lon="6.53409">
        <ele>871.4</ele>
        <time>2021-04-03T14:09:20Z</time>
      </trkpt>
      <trkpt lat="46.26035" lon="6.53406">
        <ele>871.6</ele>
        <time>2021-04-03T14:09:21Z</time>
      </trkpt>
      <trkpt lat="46.2603" lon="6.53402">
        <ele>871.8</ele>
        <time>2021-04-03T14:09:22Z</time>
      </trkpt>
      <trkpt lat="46.26026" lon="6.53398">
        <ele>872</ele>
        <time>2021-04-03T14:09:23Z</time>
      </trkpt>
      <trkpt lat="46.26022" lon="6.53394">
        <ele>872.4</ele>
        <time>2021-04-03T14:09:24Z</time>
      </trkpt>
      <trkpt lat="46.26018" lon="6.5339">
        <ele>872.4</ele>
        <time>2021-04-03T14:09:25Z</time>
      </trkpt>
      <trkpt lat="46.26014" lon="6.53387">
        <ele>872.8</ele>
        <time>2021-04-03T14:09:26Z</time>
      </trkpt>
      <trkpt lat="46.2601" lon="6.53383">
        <ele>872.8</ele>
        <time>2021-04-03T14:09:27Z</time>
      </trkpt>
      <trkpt lat="46.26006" lon="6.53379">
        <ele>873.2</ele>
        <time>2021-04-03T14:09:28Z</time>
      </trkpt>
      <trkpt lat="46.26001" lon="6.53375">
        <ele>873</ele>
        <time>2021-04-03T14:09:29Z</time>
      </trkpt>
      <trkpt lat="46.25997" lon="6.53372">
        <ele>873.2</ele>
        <time>2021-04-03T14:09:30Z</time>
      </trkpt>
      <trkpt lat="46.25993" lon="6.53368">
        <ele>873.2</ele>
        <time>2021-04-03T14:09:31Z</time>
      </trkpt>
      <trkpt lat="46.25989" lon="6.53364">
        <ele>873.6</ele>
        <time>2021-04-03T14:09:32Z</time>
      </trkpt>
      <trkpt lat="46.25984" lon="6.5336">
        <ele>873.8</ele>
        <time>2021-04-03T14:09:33Z</time>
      </trkpt>
      <trkpt lat="46.2598" lon="6.53356">
        <ele>874</ele>
        <time>2021-04-03T14:09:34Z</time>
      </trkpt>
      <trkpt lat="46.25976" lon="6.53352">
        <ele>874</ele>
        <time>2021-04-03T14:09:35Z</time>
      </trkpt>
      <trkpt lat="46.25971" lon="6.53348">
        <ele>874.2</ele>
        <time>2021-04-03T14:09:36Z</time>
      </trkpt>
      <trkpt lat="46.25967" lon="6.53344">
        <ele>874.4</ele>
        <time>2021-04-03T14:09:37Z</time>
      </trkpt>
      <trkpt lat="46.25963" lon="6.53341">
        <ele>874.6</ele>
        <time>2021-04-03T14:09:38Z</time>
      </trkpt>
      <trkpt lat="46.25959" lon="6.53337">
        <ele>874.6</ele>
        <time>2021-04-03T14:09:39Z</time>
      </trkpt>
      <trkpt lat="46.25954" lon="6.53333">
        <ele>874.8</ele>
        <time>2021-04-03T14:09:40Z</time>
      </trkpt>
      <trkpt lat="46.2595" lon="6.53329">
        <ele>874.8</ele>
        <time>2021-04-03T14:09:41Z</time>
      </trkpt>
      <trkpt lat="46.25946" lon="6.53325">
        <ele>875</ele>
        <time>2021-04-03T14:09:42Z</time>
      </trkpt>
      <trkpt lat="46.25941" lon="6.53321">
        <ele>875.2</ele>
        <time>2021-04-03T14:09:43Z</time>
      </trkpt>
      <trkpt lat="46.25936" lon="6.53317">
        <ele>875.4</ele>
        <time>2021-04-03T14:09:44Z</time>
      </trkpt>
      <trkpt lat="46.25931" lon="6.53313">
        <ele>876</ele>
        <time>2021-04-03T14:09:45Z</time>
      </trkpt>
      <trkpt lat="46.25926" lon="6.53309">
        <ele>876.2</ele>
        <time>2021-04-03T14:09:46Z</time>
      </trkpt>
      <trkpt lat="46.25921" lon="6.53305">
        <ele>876.2</ele>
        <time>2021-04-03T14:09:47Z</time>
      </trkpt>
      <trkpt lat="46.25916" lon="6.53301">
        <ele>876.4</ele>
        <time>2021-04-03T14:09:48Z</time>
      </trkpt>
      <trkpt lat="46.25911" lon="6.53297">
        <ele>876.6</ele>
        <time>2021-04-03T14:09:49Z</time>
      </trkpt>
      <trkpt lat="46.25907" lon="6.53293">
        <ele>876.6</ele>
        <time>2021-04-03T14:09:50Z</time>
      </trkpt>
      <trkpt lat="46.25902" lon="6.53289">
        <ele>877</ele>
        <time>2021-04-03T14:09:51Z</time>
      </trkpt>
      <trkpt lat="46.25897" lon="6.53285">
        <ele>877.2</ele>
        <time>2021-04-03T14:09:52Z</time>
      </trkpt>
      <trkpt lat="46.25893" lon="6.53281">
        <ele>877.4</ele>
        <time>2021-04-03T14:09:53Z</time>
      </trkpt>
      <trkpt lat="46.25888" lon="6.53277">
        <ele>877.4</ele>
        <time>2021-04-03T14:09:54Z</time>
      </trkpt>
      <trkpt lat="46.25884" lon="6.53273">
        <ele>877.6</ele>
        <time>2021-04-03T14:09:55Z</time>
      </trkpt>
      <trkpt lat="46.2588" lon="6.53269">
        <ele>877.8</ele>
        <time>2021-04-03T14:09:56Z</time>
      </trkpt>
      <trkpt lat="46.25876" lon="6.53265">
        <ele>878.2</ele>
        <time>2021-04-03T14:09:57Z</time>
      </trkpt>
      <trkpt lat="46.25872" lon="6.53261">
        <ele>878.4</ele>
        <time>2021-04-03T14:09:58Z</time>
      </trkpt>
      <trkpt lat="46.25868" lon="6.53256">
        <ele>878.6</ele>
        <time>2021-04-03T14:09:59Z</time>
      </trkpt>
      <trkpt lat="46.25864" lon="6.53252">
        <ele>878.6</ele>
        <time>2021-04-03T14:10:00Z</time>
      </trkpt>
      <trkpt lat="46.2586" lon="6.53248">
        <ele>879.2</ele>
        <time>2021-04-03T14:10:01Z</time>
      </trkpt>
      <trkpt lat="46.25856" lon="6.53244">
        <ele>879.6</ele>
        <time>2021-04-03T14:10:02Z</time>
      </trkpt>
      <trkpt lat="46.25851" lon="6.5324">
        <ele>880</ele>
        <time>2021-04-03T14:10:03Z</time>
      </trkpt>
      <trkpt lat="46.25846" lon="6.53237">
        <ele>880.4</ele>
        <time>2021-04-03T14:10:04Z</time>
      </trkpt>
      <trkpt lat="46.25842" lon="6.53234">
        <ele>880.4</ele>
        <time>2021-04-03T14:10:05Z</time>
      </trkpt>
      <trkpt lat="46.25837" lon="6.53231">
        <ele>880.8</ele>
        <time>2021-04-03T14:10:06Z</time>
      </trkpt>
      <trkpt lat="46.25833" lon="6.53228">
        <ele>881.2</ele>
        <time>2021-04-03T14:10:07Z</time>
      </trkpt>
      <trkpt lat="46.25828" lon="6.53225">
        <ele>881.6</ele>
        <time>2021-04-03T14:10:08Z</time>
      </trkpt>
      <trkpt lat="46.25824" lon="6.53223">
        <ele>881.6</ele>
        <time>2021-04-03T14:10:09Z</time>
      </trkpt>
      <trkpt lat="46.25819" lon="6.53221">
        <ele>881.8</ele>
        <time>2021-04-03T14:10:10Z</time>
      </trkpt>
      <trkpt lat="46.25814" lon="6.53218">
        <ele>882.2</ele>
        <time>2021-04-03T14:10:11Z</time>
      </trkpt>
      <trkpt lat="46.2581" lon="6.53216">
        <ele>882.2</ele>
        <time>2021-04-03T14:10:12Z</time>
      </trkpt>
      <trkpt lat="46.25805" lon="6.53213">
        <ele>882.2</ele>
        <time>2021-04-03T14:10:13Z</time>
      </trkpt>
      <trkpt lat="46.25801" lon="6.53211">
        <ele>882.6</ele>
        <time>2021-04-03T14:10:14Z</time>
      </trkpt>
      <trkpt lat="46.25797" lon="6.53209">
        <ele>882.8</ele>
        <time>2021-04-03T14:10:15Z</time>
      </trkpt>
      <trkpt lat="46.25793" lon="6.53206">
        <ele>883</ele>
        <time>2021-04-03T14:10:16Z</time>
      </trkpt>
      <trkpt lat="46.25789" lon="6.53203">
        <ele>883.2</ele>
        <time>2021-04-03T14:10:17Z</time>
      </trkpt>
      <trkpt lat="46.25785" lon="6.532">
        <ele>883.4</ele>
        <time>2021-04-03T14:10:18Z</time>
      </trkpt>
      <trkpt lat="46.2578" lon="6.53197">
        <ele>883.4</ele>
        <time>2021-04-03T14:10:19Z</time>
      </trkpt>
      <trkpt lat="46.25776" lon="6.53195">
        <ele>883.6</ele>
        <time>2021-04-03T14:10:20Z</time>
      </trkpt>
      <trkpt lat="46.25772" lon="6.53192">
        <ele>883.8</ele>
        <time>2021-04-03T14:10:21Z</time>
      </trkpt>
      <trkpt lat="46.25768" lon="6.53188">
        <ele>883.8</ele>
        <time>2021-04-03T14:10:22Z</time>
      </trkpt>
      <trkpt lat="46.25764" lon="6.53185">
        <ele>883.6</ele>
        <time>2021-04-03T14:10:23Z</time>
      </trkpt>
      <trkpt lat="46.2576" lon="6.53181">
        <ele>884</ele>
        <time>2021-04-03T14:10:24Z</time>
      </trkpt>
      <trkpt lat="46.25756" lon="6.53177">
        <ele>884</ele>
        <time>2021-04-03T14:10:25Z</time>
      </trkpt>
      <trkpt lat="46.25753" lon="6.53172">
        <ele>884.6</ele>
        <time>2021-04-03T14:10:26Z</time>
      </trkpt>
      <trkpt lat="46.25749" lon="6.53168">
        <ele>884.8</ele>
        <time>2021-04-03T14:10:27Z</time>
      </trkpt>
      <trkpt lat="46.25746" lon="6.53163">
        <ele>885.2</ele>
        <time>2021-04-03T14:10:28Z</time>
      </trkpt>
      <trkpt lat="46.25742" lon="6.53159">
        <ele>885.4</ele>
        <time>2021-04-03T14:10:29Z</time>
      </trkpt>
      <trkpt lat="46.25739" lon="6.53154">
        <ele>885.6</ele>
        <time>2021-04-03T14:10:30Z</time>
      </trkpt>
      <trkpt lat="46.25735" lon="6.5315">
        <ele>885.8</ele>
        <time>2021-04-03T14:10:31Z</time>
      </trkpt>
      <trkpt lat="46.25732" lon="6.53146">
        <ele>886</ele>
        <time>2021-04-03T14:10:32Z</time>
      </trkpt>
      <trkpt lat="46.25729" lon="6.53142">
        <ele>886.4</ele>
        <time>2021-04-03T14:10:33Z</time>
      </trkpt>
      <trkpt lat="46.25725" lon="6.53137">
        <ele>886.8</ele>
        <time>2021-04-03T14:10:34Z</time>
      </trkpt>
      <trkpt lat="46.25722" lon="6.53133">
        <ele>887.2</ele>
        <time>2021-04-03T14:10:35Z</time>
      </trkpt>
      <trkpt lat="46.25718" lon="6.53129">
        <ele>887.4</ele>
        <time>2021-04-03T14:10:36Z</time>
      </trkpt>
      <trkpt lat="46.25714" lon="6.53125">
        <ele>887.8</ele>
        <time>2021-04-03T14:10:37Z</time>
      </trkpt>
      <trkpt lat="46.25711" lon="6.53121">
        <ele>888</ele>
        <time>2021-04-03T14:10:38Z</time>
      </trkpt>
      <trkpt lat="46.25707" lon="6.53116">
        <ele>888.2</ele>
        <time>2021-04-03T14:10:39Z</time>
      </trkpt>
      <trkpt lat="46.25704" lon="6.53112">
        <ele>888.4</ele>
        <time>2021-04-03T14:10:40Z</time>
      </trkpt>
      <trkpt lat="46.257" lon="6.53107">
        <ele>888.4</ele>
        <time>2021-04-03T14:10:41Z</time>
      </trkpt>
      <trkpt lat="46.25697" lon="6.53103">
        <ele>888.6</ele>
        <time>2021-04-03T14:10:42Z</time>
      </trkpt>
      <trkpt lat="46.25693" lon="6.53099">
        <ele>888.6</ele>
        <time>2021-04-03T14:10:43Z</time>
      </trkpt>
      <trkpt lat="46.2569" lon="6.53095">
        <ele>888.8</ele>
        <time>2021-04-03T14:10:44Z</time>
      </trkpt>
      <trkpt lat="46.25687" lon="6.5309">
        <ele>888.6</ele>
        <time>2021-04-03T14:10:45Z</time>
      </trkpt>
      <trkpt lat="46.25684" lon="6.53087">
        <ele>888.8</ele>
        <time>2021-04-03T14:10:46Z</time>
      </trkpt>
      <trkpt lat="46.25681" lon="6.53083">
        <ele>888.8</ele>
        <time>2021-04-03T14:10:47Z</time>
      </trkpt>
      <trkpt lat="46.25678" lon="6.5308">
        <ele>889</ele>
        <time>2021-04-03T14:10:48Z</time>
      </trkpt>
      <trkpt lat="46.25675" lon="6.53077">
        <ele>889</ele>
        <time>2021-04-03T14:10:49Z</time>
      </trkpt>
      <trkpt lat="46.25672" lon="6.53073">
        <ele>889.4</ele>
        <time>2021-04-03T14:10:50Z</time>
      </trkpt>
      <trkpt lat="46.2567" lon="6.5307">
        <ele>889.4</ele>
        <time>2021-04-03T14:10:51Z</time>
      </trkpt>
      <trkpt lat="46.25667" lon="6.53066">
        <ele>889.6</ele>
        <time>2021-04-03T14:10:52Z</time>
      </trkpt>
      <trkpt lat="46.25664" lon="6.53063">
        <ele>889.8</ele>
        <time>2021-04-03T14:10:53Z</time>
      </trkpt>
      <trkpt lat="46.25661" lon="6.5306">
        <ele>890</ele>
        <time>2021-04-03T14:10:54Z</time>
      </trkpt>
      <trkpt lat="46.25659" lon="6.53056">
        <ele>890.4</ele>
        <time>2021-04-03T14:10:55Z</time>
      </trkpt>
      <trkpt lat="46.25656" lon="6.53053">
        <ele>890.8</ele>
        <time>2021-04-03T14:10:56Z</time>
      </trkpt>
      <trkpt lat="46.25653" lon="6.53049">
        <ele>891.2</ele>
        <time>2021-04-03T14:10:57Z</time>
      </trkpt>
      <trkpt lat="46.25651" lon="6.53045">
        <ele>891.6</ele>
        <time>2021-04-03T14:10:58Z</time>
      </trkpt>
      <trkpt lat="46.25649" lon="6.53041">
        <ele>892</ele>
        <time>2021-04-03T14:10:59Z</time>
      </trkpt>
      <trkpt lat="46.25646" lon="6.53037">
        <ele>892</ele>
        <time>2021-04-03T14:11:00Z</time>
      </trkpt>
      <trkpt lat="46.25644" lon="6.53034">
        <ele>892.2</ele>
        <time>2021-04-03T14:11:01Z</time>
      </trkpt>
      <trkpt lat="46.25641" lon="6.5303">
        <ele>892.4</ele>
        <time>2021-04-03T14:11:02Z</time>
      </trkpt>
      <trkpt lat="46.25639" lon="6.53027">
        <ele>892.6</ele>
        <time>2021-04-03T14:11:03Z</time>
      </trkpt>
      <trkpt lat="46.25636" lon="6.53023">
        <ele>892.6</ele>
        <time>2021-04-03T14:11:04Z</time>
      </trkpt>
      <trkpt lat="46.25633" lon="6.53019">
        <ele>892.6</ele>
        <time>2021-04-03T14:11:05Z</time>
      </trkpt>
      <trkpt lat="46.25631" lon="6.53015">
        <ele>892.6</ele>
        <time>2021-04-03T14:11:06Z</time>
      </trkpt>
      <trkpt lat="46.25628" lon="6.53012">
        <ele>893</ele>
        <time>2021-04-03T14:11:07Z</time>
      </trkpt>
      <trkpt lat="46.25626" lon="6.53008">
        <ele>893</ele>
        <time>2021-04-03T14:11:08Z</time>
      </trkpt>
      <trkpt lat="46.25623" lon="6.53005">
        <ele>893.4</ele>
        <time>2021-04-03T14:11:09Z</time>
      </trkpt>
      <trkpt lat="46.2562" lon="6.53001">
        <ele>894</ele>
        <time>2021-04-03T14:11:10Z</time>
      </trkpt>
      <trkpt lat="46.25618" lon="6.52997">
        <ele>894.6</ele>
        <time>2021-04-03T14:11:11Z</time>
      </trkpt>
      <trkpt lat="46.25615" lon="6.52994">
        <ele>894.8</ele>
        <time>2021-04-03T14:11:12Z</time>
      </trkpt>
      <trkpt lat="46.25612" lon="6.5299">
        <ele>895</ele>
        <time>2021-04-03T14:11:13Z</time>
      </trkpt>
      <trkpt lat="46.2561" lon="6.52986">
        <ele>895.2</ele>
        <time>2021-04-03T14:11:14Z</time>
      </trkpt>
      <trkpt lat="46.25607" lon="6.52982">
        <ele>895.4</ele>
        <time>2021-04-03T14:11:15Z</time>
      </trkpt>
      <trkpt lat="46.25604" lon="6.52978">
        <ele>895.6</ele>
        <time>2021-04-03T14:11:16Z</time>
      </trkpt>
      <trkpt lat="46.25602" lon="6.52975">
        <ele>895.8</ele>
        <time>2021-04-03T14:11:17Z</time>
      </trkpt>
      <trkpt lat="46.25599" lon="6.52971">
        <ele>896.2</ele>
        <time>2021-04-03T14:11:18Z</time>
      </trkpt>
      <trkpt lat="46.25596" lon="6.52968">
        <ele>896.6</ele>
        <time>2021-04-03T14:11:19Z</time>
      </trkpt>
      <trkpt lat="46.25593" lon="6.52965">
        <ele>896.8</ele>
        <time>2021-04-03T14:11:20Z</time>
      </trkpt>
      <trkpt lat="46.2559" lon="6.52962">
        <ele>897</ele>
        <time>2021-04-03T14:11:21Z</time>
      </trkpt>
      <trkpt lat="46.25587" lon="6.52959">
        <ele>897.4</ele>
        <time>2021-04-03T14:11:22Z</time>
      </trkpt>
      <trkpt lat="46.25584" lon="6.52956">
        <ele>897.6</ele>
        <time>2021-04-03T14:11:23Z</time>
      </trkpt>
      <trkpt lat="46.25581" lon="6.52954">
        <ele>898.2</ele>
        <time>2021-04-03T14:11:24Z</time>
      </trkpt>
      <trkpt lat="46.25577" lon="6.52951">
        <ele>898.4</ele>
        <time>2021-04-03T14:11:25Z</time>
      </trkpt>
      <trkpt lat="46.25574" lon="6.52949">
        <ele>898.8</ele>
        <time>2021-04-03T14:11:26Z</time>
      </trkpt>
      <trkpt lat="46.25571" lon="6.52947">
        <ele>898.8</ele>
        <time>2021-04-03T14:11:27Z</time>
      </trkpt>
      <trkpt lat="46.25567" lon="6.52945">
        <ele>899</ele>
        <time>2021-04-03T14:11:28Z</time>
      </trkpt>
      <trkpt lat="46.25564" lon="6.52944">
        <ele>899.4</ele>
        <time>2021-04-03T14:11:29Z</time>
      </trkpt>
      <trkpt lat="46.2556" lon="6.52942">
        <ele>899.6</ele>
        <time>2021-04-03T14:11:30Z</time>
      </trkpt>
      <trkpt lat="46.25557" lon="6.5294">
        <ele>899.8</ele>
        <time>2021-04-03T14:11:31Z</time>
      </trkpt>
      <trkpt lat="46.25554" lon="6.5294">
        <ele>900</ele>
        <time>2021-04-03T14:11:32Z</time>
      </trkpt>
      <trkpt lat="46.2555" lon="6.52939">
        <ele>900.4</ele>
        <time>2021-04-03T14:11:33Z</time>
      </trkpt>
      <trkpt lat="46.25547" lon="6.52938">
        <ele>900.4</ele>
        <time>2021-04-03T14:11:34Z</time>
      </trkpt>
      <trkpt lat="46.25544" lon="6.52936">
        <ele>900.6</ele>
        <time>2021-04-03T14:11:35Z</time>
      </trkpt>
      <trkpt lat="46.25541" lon="6.52935">
        <ele>900.8</ele>
        <time>2021-04-03T14:11:36Z</time>
      </trkpt>
      <trkpt lat="46.25538" lon="6.52933">
        <ele>901</ele>
        <time>2021-04-03T14:11:37Z</time>
      </trkpt>
      <trkpt lat="46.25535" lon="6.52931">
        <ele>901</ele>
        <time>2021-04-03T14:11:38Z</time>
      </trkpt>
      <trkpt lat="46.25532" lon="6.5293">
        <ele>901.4</ele>
        <time>2021-04-03T14:11:39Z</time>
      </trkpt>
      <trkpt lat="46.25529" lon="6.52928">
        <ele>901.6</ele>
        <time>2021-04-03T14:11:40Z</time>
      </trkpt>
      <trkpt lat="46.25526" lon="6.52927">
        <ele>901.6</ele>
        <time>2021-04-03T14:11:41Z</time>
      </trkpt>
      <trkpt lat="46.25523" lon="6.52926">
        <ele>901.8</ele>
        <time>2021-04-03T14:11:42Z</time>
      </trkpt>
      <trkpt lat="46.2552" lon="6.52924">
        <ele>902.2</ele>
        <time>2021-04-03T14:11:43Z</time>
      </trkpt>
      <trkpt lat="46.25517" lon="6.52922">
        <ele>902.4</ele>
        <time>2021-04-03T14:11:44Z</time>
      </trkpt>
      <trkpt lat="46.25514" lon="6.5292">
        <ele>902.6</ele>
        <time>2021-04-03T14:11:45Z</time>
      </trkpt>
      <trkpt lat="46.25511" lon="6.52918">
        <ele>902.8</ele>
        <time>2021-04-03T14:11:46Z</time>
      </trkpt>
      <trkpt lat="46.25508" lon="6.52915">
        <ele>903</ele>
        <time>2021-04-03T14:11:47Z</time>
      </trkpt>
      <trkpt lat="46.25505" lon="6.52913">
        <ele>903</ele>
        <time>2021-04-03T14:11:48Z</time>
      </trkpt>
      <trkpt lat="46.25502" lon="6.5291">
        <ele>903.2</ele>
        <time>2021-04-03T14:11:49Z</time>
      </trkpt>
      <trkpt lat="46.25499" lon="6.52907">
        <ele>903.6</ele>
        <time>2021-04-03T14:11:50Z</time>
      </trkpt>
      <trkpt lat="46.25496" lon="6.52904">
        <ele>904</ele>
        <time>2021-04-03T14:11:51Z</time>
      </trkpt>
      <trkpt lat="46.25494" lon="6.52901">
        <ele>904</ele>
        <time>2021-04-03T14:11:52Z</time>
      </trkpt>
      <trkpt lat="46.25492" lon="6.52897">
        <ele>904.6</ele>
        <time>2021-04-03T14:11:53Z</time>
      </trkpt>
      <trkpt lat="46.25489" lon="6.52893">
        <ele>905</ele>
        <time>2021-04-03T14:11:54Z</time>
      </trkpt>
      <trkpt lat="46.25487" lon="6.5289">
        <ele>905</ele>
        <time>2021-04-03T14:11:55Z</time>
      </trkpt>
      <trkpt lat="46.25485" lon="6.52886">
        <ele>905.2</ele>
        <time>2021-04-03T14:11:56Z</time>
      </trkpt>
      <trkpt lat="46.25482" lon="6.52882">
        <ele>905.2</ele>
        <time>2021-04-03T14:11:57Z</time>
      </trkpt>
      <trkpt lat="46.2548" lon="6.52878">
        <ele>905.4</ele>
        <time>2021-04-03T14:11:58Z</time>
      </trkpt>
      <trkpt lat="46.25478" lon="6.52874">
        <ele>905.4</ele>
        <time>2021-04-03T14:11:59Z</time>
      </trkpt>
      <trkpt lat="46.25475" lon="6.5287">
        <ele>905.8</ele>
        <time>2021-04-03T14:12:00Z</time>
      </trkpt>
      <trkpt lat="46.25472" lon="6.52866">
        <ele>905.8</ele>
        <time>2021-04-03T14:12:01Z</time>
      </trkpt>
      <trkpt lat="46.25469" lon="6.52863">
        <ele>906</ele>
        <time>2021-04-03T14:12:02Z</time>
      </trkpt>
      <trkpt lat="46.25467" lon="6.52858">
        <ele>906.2</ele>
        <time>2021-04-03T14:12:03Z</time>
      </trkpt>
      <trkpt lat="46.25464" lon="6.52854">
        <ele>906.4</ele>
        <time>2021-04-03T14:12:04Z</time>
      </trkpt>
      <trkpt lat="46.25462" lon="6.5285">
        <ele>906.6</ele>
        <time>2021-04-03T14:12:05Z</time>
      </trkpt>
      <trkpt lat="46.2546" lon="6.52846">
        <ele>906.8</ele>
        <time>2021-04-03T14:12:06Z</time>
      </trkpt>
      <trkpt lat="46.25457" lon="6.52842">
        <ele>907</ele>
        <time>2021-04-03T14:12:07Z</time>
      </trkpt>
      <trkpt lat="46.25455" lon="6.52838">
        <ele>907.2</ele>
        <time>2021-04-03T14:12:08Z</time>
      </trkpt>
      <trkpt lat="46.25453" lon="6.52834">
        <ele>907.4</ele>
        <time>2021-04-03T14:12:09Z</time>
      </trkpt>
      <trkpt lat="46.2545" lon="6.5283">
        <ele>907.6</ele>
        <time>2021-04-03T14:12:10Z</time>
      </trkpt>
      <trkpt lat="46.25448" lon="6.52826">
        <ele>907.8</ele>
        <time>2021-04-03T14:12:11Z</time>
      </trkpt>
      <trkpt lat="46.25446" lon="6.52822">
        <ele>908</ele>
        <time>2021-04-03T14:12:12Z</time>
      </trkpt>
      <trkpt lat="46.25444" lon="6.52818">
        <ele>908.2</ele>
        <time>2021-04-03T14:12:13Z</time>
      </trkpt>
      <trkpt lat="46.25442" lon="6.52814">
        <ele>908.4</ele>
        <time>2021-04-03T14:12:14Z</time>
      </trkpt>
      <trkpt lat="46.25439" lon="6.52811">
        <ele>908.8</ele>
        <time>2021-04-03T14:12:15Z</time>
      </trkpt>
      <trkpt lat="46.25437" lon="6.52807">
        <ele>909</ele>
        <time>2021-04-03T14:12:16Z</time>
      </trkpt>
      <trkpt lat="46.25436" lon="6.52803">
        <ele>909.4</ele>
        <time>2021-04-03T14:12:17Z</time>
      </trkpt>
      <trkpt lat="46.25434" lon="6.52799">
        <ele>909.4</ele>
        <time>2021-04-03T14:12:18Z</time>
      </trkpt>
      <trkpt lat="46.25432" lon="6.52796">
        <ele>909.8</ele>
        <time>2021-04-03T14:12:19Z</time>
      </trkpt>
      <trkpt lat="46.2543" lon="6.52793">
        <ele>909.8</ele>
        <time>2021-04-03T14:12:20Z</time>
      </trkpt>
      <trkpt lat="46.25427" lon="6.5279">
        <ele>910.2</ele>
        <time>2021-04-03T14:12:21Z</time>
      </trkpt>
      <trkpt lat="46.25425" lon="6.52787">
        <ele>910.4</ele>
        <time>2021-04-03T14:12:22Z</time>
      </trkpt>
      <trkpt lat="46.25422" lon="6.52785">
        <ele>910.6</ele>
        <time>2021-04-03T14:12:23Z</time>
      </trkpt>
      <trkpt lat="46.25419" lon="6.52783">
        <ele>910.8</ele>
        <time>2021-04-03T14:12:24Z</time>
      </trkpt>
      <trkpt lat="46.25416" lon="6.52781">
        <ele>911.2</ele>
        <time>2021-04-03T14:12:25Z</time>
      </trkpt>
      <trkpt lat="46.25413" lon="6.52779">
        <ele>911.4</ele>
        <time>2021-04-03T14:12:26Z</time>
      </trkpt>
      <trkpt lat="46.2541" lon="6.52778">
        <ele>911.4</ele>
        <time>2021-04-03T14:12:27Z</time>
      </trkpt>
      <trkpt lat="46.25407" lon="6.52777">
        <ele>911.8</ele>
        <time>2021-04-03T14:12:28Z</time>
      </trkpt>
      <trkpt lat="46.25403" lon="6.52776">
        <ele>912</ele>
        <time>2021-04-03T14:12:29Z</time>
      </trkpt>
      <trkpt lat="46.254" lon="6.52775">
        <ele>912.4</ele>
        <time>2021-04-03T14:12:30Z</time>
      </trkpt>
      <trkpt lat="46.25396" lon="6.52774">
        <ele>912.4</ele>
        <time>2021-04-03T14:12:31Z</time>
      </trkpt>
      <trkpt lat="46.25393" lon="6.52773">
        <ele>912.6</ele>
        <time>2021-04-03T14:12:32Z</time>
      </trkpt>
      <trkpt lat="46.25391" lon="6.52772">
        <ele>912.6</ele>
        <time>2021-04-03T14:12:33Z</time>
      </trkpt>
      <trkpt lat="46.25388" lon="6.52771">
        <ele>912.6</ele>
        <time>2021-04-03T14:12:34Z</time>
      </trkpt>
      <trkpt lat="46.25385" lon="6.5277">
        <ele>913</ele>
        <time>2021-04-03T14:12:35Z</time>
      </trkpt>
      <trkpt lat="46.25382" lon="6.52768">
        <ele>913</ele>
        <time>2021-04-03T14:12:36Z</time>
      </trkpt>
      <trkpt lat="46.2538" lon="6.52766">
        <ele>913.2</ele>
        <time>2021-04-03T14:12:37Z</time>
      </trkpt>
      <trkpt lat="46.2538" lon="6.52765">
        <ele>913.2</ele>
        <time>2021-04-03T14:12:38Z</time>
      </trkpt>
      <trkpt lat="46.25379" lon="6.52764">
        <ele>913.2</ele>
        <time>2021-04-03T14:12:39Z</time>
      </trkpt>
      <trkpt lat="46.25379" lon="6.52764">
        <ele>913.4</ele>
        <time>2021-04-03T14:12:41Z</time>
      </trkpt>
      <trkpt lat="46.2538" lon="6.52765">
        <ele>913.4</ele>
        <time>2021-04-03T14:12:42Z</time>
      </trkpt>
      <trkpt lat="46.2538" lon="6.52765">
        <ele>913.8</ele>
        <time>2021-04-03T14:12:43Z</time>
      </trkpt>
      <trkpt lat="46.2538" lon="6.52765">
        <ele>914</ele>
        <time>2021-04-03T14:12:44Z</time>
      </trkpt>
      <trkpt lat="46.2538" lon="6.52765">
        <ele>914.4</ele>
        <time>2021-04-03T14:12:45Z</time>
      </trkpt>
      <trkpt lat="46.2538" lon="6.52765">
        <ele>914.4</ele>
        <time>2021-04-03T14:12:46Z</time>
      </trkpt>
      <trkpt lat="46.2538" lon="6.52766">
        <ele>914.8</ele>
        <time>2021-04-03T14:12:47Z</time>
      </trkpt>
      <trkpt lat="46.2538" lon="6.52766">
        <ele>915</ele>
        <time>2021-04-03T14:12:49Z</time>
      </trkpt>
      <trkpt lat="46.2538" lon="6.52765">
        <ele>915</ele>
        <time>2021-04-03T14:12:50Z</time>
      </trkpt>
      <trkpt lat="46.2538" lon="6.52766">
        <ele>915.2</ele>
        <time>2021-04-03T14:12:51Z</time>
      </trkpt>
      <trkpt lat="46.2538" lon="6.52766">
        <ele>915.2</ele>
        <time>2021-04-03T14:12:53Z</time>
      </trkpt>
      <trkpt lat="46.2538" lon="6.52766">
        <ele>915.2</ele>
        <time>2021-04-03T14:12:54Z</time>
      </trkpt>
      <trkpt lat="46.2538" lon="6.52766">
        <ele>915.4</ele>
        <time>2021-04-03T14:12:56Z</time>
      </trkpt>
      <trkpt lat="46.2538" lon="6.52766">
        <ele>915.6</ele>
        <time>2021-04-03T14:13:02Z</time>
      </trkpt>
      <trkpt lat="46.2538" lon="6.52766">
        <ele>915.6</ele>
        <time>2021-04-03T14:13:03Z</time>
      </trkpt>
      <trkpt lat="46.2538" lon="6.52766">
        <ele>915.4</ele>
        <time>2021-04-03T14:13:08Z</time>
      </trkpt>
      <trkpt lat="46.2538" lon="6.52766">
        <ele>915.6</ele>
        <time>2021-04-03T14:13:12Z</time>
      </trkpt>
      <trkpt lat="46.2538" lon="6.52766">
        <ele>915.6</ele>
        <time>2021-04-03T14:13:13Z</time>
      </trkpt>
      <trkpt lat="46.2538" lon="6.52766">
        <ele>915.6</ele>
        <time>2021-04-03T14:13:14Z</time>
      </trkpt>
      <trkpt lat="46.2538" lon="6.52766">
        <ele>915.6</ele>
        <time>2021-04-03T14:13:20Z</time>
      </trkpt>
      <trkpt lat="46.2538" lon="6.52766">
        <ele>915.6</ele>
        <time>2021-04-03T14:13:21Z</time>
      </trkpt>
      <trkpt lat="46.2538" lon="6.52766">
        <ele>915.6</ele>
        <time>2021-04-03T14:13:29Z</time>
      </trkpt>
      <trkpt lat="46.2538" lon="6.52766">
        <ele>915.6</ele>
        <time>2021-04-03T14:13:37Z</time>
      </trkpt>
      <trkpt lat="46.2538" lon="6.52766">
        <ele>915.6</ele>
        <time>2021-04-03T14:13:39Z</time>
      </trkpt>
      <trkpt lat="46.2538" lon="6.52766">
        <ele>915.6</ele>
        <time>2021-04-03T14:13:44Z</time>
      </trkpt>
      <trkpt lat="46.2538" lon="6.52766">
        <ele>915.6</ele>
        <time>2021-04-03T14:13:48Z</time>
      </trkpt>
      <trkpt lat="46.2538" lon="6.52766">
        <ele>915.6</ele>
        <time>2021-04-03T14:13:49Z</time>
      </trkpt>
      <trkpt lat="46.2538" lon="6.52766">
        <ele>915.6</ele>
        <time>2021-04-03T14:13:50Z</time>
      </trkpt>
      <trkpt lat="46.2538" lon="6.52766">
        <ele>915.6</ele>
        <time>2021-04-03T14:13:51Z</time>
      </trkpt>
      <trkpt lat="46.25379" lon="6.52766">
        <ele>915.6</ele>
        <time>2021-04-03T14:13:52Z</time>
      </trkpt>
      <trkpt lat="46.25379" lon="6.52766">
        <ele>915.6</ele>
        <time>2021-04-03T14:13:53Z</time>
      </trkpt>
      <trkpt lat="46.25379" lon="6.52766">
        <ele>915.8</ele>
        <time>2021-04-03T14:13:54Z</time>
      </trkpt>
      <trkpt lat="46.25379" lon="6.52766">
        <ele>915.8</ele>
        <time>2021-04-03T14:13:55Z</time>
      </trkpt>
      <trkpt lat="46.25379" lon="6.52767">
        <ele>915.8</ele>
        <time>2021-04-03T14:13:56Z</time>
      </trkpt>
      <trkpt lat="46.25379" lon="6.52767">
        <ele>915.8</ele>
        <time>2021-04-03T14:13:57Z</time>
      </trkpt>
      <trkpt lat="46.25379" lon="6.52767">
        <ele>915.8</ele>
        <time>2021-04-03T14:13:58Z</time>
      </trkpt>
      <trkpt lat="46.25379" lon="6.52767">
        <ele>915.8</ele>
        <time>2021-04-03T14:13:59Z</time>
      </trkpt>
      <trkpt lat="46.25379" lon="6.52768">
        <ele>915.8</ele>
        <time>2021-04-03T14:14:00Z</time>
      </trkpt>
      <trkpt lat="46.25379" lon="6.52768">
        <ele>915.8</ele>
        <time>2021-04-03T14:14:01Z</time>
      </trkpt>
      <trkpt lat="46.25378" lon="6.52768">
        <ele>915.8</ele>
        <time>2021-04-03T14:14:02Z</time>
      </trkpt>
      <trkpt lat="46.25378" lon="6.52768">
        <ele>915.8</ele>
        <time>2021-04-03T14:14:04Z</time>
      </trkpt>
      <trkpt lat="46.25378" lon="6.52768">
        <ele>915.8</ele>
        <time>2021-04-03T14:14:06Z</time>
      </trkpt>
      <trkpt lat="46.25378" lon="6.52768">
        <ele>915.8</ele>
        <time>2021-04-03T14:14:07Z</time>
      </trkpt>
      <trkpt lat="46.25378" lon="6.52768">
        <ele>915.8</ele>
        <time>2021-04-03T14:14:09Z</time>
      </trkpt>
      <trkpt lat="46.25378" lon="6.52768">
        <ele>916</ele>
        <time>2021-04-03T14:14:11Z</time>
      </trkpt>
      <trkpt lat="46.25378" lon="6.52768">
        <ele>916</ele>
        <time>2021-04-03T14:14:12Z</time>
      </trkpt>
      <trkpt lat="46.25377" lon="6.52768">
        <ele>915.8</ele>
        <time>2021-04-03T14:14:13Z</time>
      </trkpt>
      <trkpt lat="46.25377" lon="6.52768">
        <ele>915.8</ele>
        <time>2021-04-03T14:14:14Z</time>
      </trkpt>
      <trkpt lat="46.25377" lon="6.52768">
        <ele>915.8</ele>
        <time>2021-04-03T14:14:15Z</time>
      </trkpt>
      <trkpt lat="46.25377" lon="6.52768">
        <ele>915.8</ele>
        <time>2021-04-03T14:14:16Z</time>
      </trkpt>
      <trkpt lat="46.25377" lon="6.52768">
        <ele>915.8</ele>
        <time>2021-04-03T14:14:17Z</time>
      </trkpt>
      <trkpt lat="46.25377" lon="6.52768">
        <ele>915.8</ele>
        <time>2021-04-03T14:14:18Z</time>
      </trkpt>
      <trkpt lat="46.25376" lon="6.52768">
        <ele>915.8</ele>
        <time>2021-04-03T14:14:19Z</time>
      </trkpt>
      <trkpt lat="46.25376" lon="6.52768">
        <ele>916</ele>
        <time>2021-04-03T14:14:20Z</time>
      </trkpt>
      <trkpt lat="46.25377" lon="6.52768">
        <ele>915.8</ele>
        <time>2021-04-03T14:14:24Z</time>
      </trkpt>
      <trkpt lat="46.25376" lon="6.52768">
        <ele>915.8</ele>
        <time>2021-04-03T14:14:28Z</time>
      </trkpt>
      <trkpt lat="46.25377" lon="6.52768">
        <ele>915.8</ele>
        <time>2021-04-03T14:14:33Z</time>
      </trkpt>
      <trkpt lat="46.25377" lon="6.52768">
        <ele>915.8</ele>
        <time>2021-04-03T14:14:34Z</time>
      </trkpt>
      <trkpt lat="46.25377" lon="6.52768">
        <ele>915.8</ele>
        <time>2021-04-03T14:14:35Z</time>
      </trkpt>
      <trkpt lat="46.25376" lon="6.52768">
        <ele>915.8</ele>
        <time>2021-04-03T14:14:36Z</time>
      </trkpt>
      <trkpt lat="46.25375" lon="6.52768">
        <ele>915.8</ele>
        <time>2021-04-03T14:14:37Z</time>
      </trkpt>
      <trkpt lat="46.25374" lon="6.52768">
        <ele>915.8</ele>
        <time>2021-04-03T14:14:38Z</time>
      </trkpt>
      <trkpt lat="46.25373" lon="6.52768">
        <ele>915.8</ele>
        <time>2021-04-03T14:14:39Z</time>
      </trkpt>
      <trkpt lat="46.25371" lon="6.52768">
        <ele>915.8</ele>
        <time>2021-04-03T14:14:40Z</time>
      </trkpt>
      <trkpt lat="46.25369" lon="6.52767">
        <ele>915.8</ele>
        <time>2021-04-03T14:14:41Z</time>
      </trkpt>
      <trkpt lat="46.25366" lon="6.52766">
        <ele>915.8</ele>
        <time>2021-04-03T14:14:42Z</time>
      </trkpt>
      <trkpt lat="46.25364" lon="6.52764">
        <ele>915.8</ele>
        <time>2021-04-03T14:14:43Z</time>
      </trkpt>
      <trkpt lat="46.25361" lon="6.52762">
        <ele>915.8</ele>
        <time>2021-04-03T14:14:44Z</time>
      </trkpt>
      <trkpt lat="46.25358" lon="6.52761">
        <ele>916</ele>
        <time>2021-04-03T14:14:45Z</time>
      </trkpt>
      <trkpt lat="46.25354" lon="6.52759">
        <ele>915.8</ele>
        <time>2021-04-03T14:14:46Z</time>
      </trkpt>
      <trkpt lat="46.2535" lon="6.52758">
        <ele>915.8</ele>
        <time>2021-04-03T14:14:47Z</time>
      </trkpt>
      <trkpt lat="46.25347" lon="6.52756">
        <ele>916</ele>
        <time>2021-04-03T14:14:48Z</time>
      </trkpt>
      <trkpt lat="46.25343" lon="6.52754">
        <ele>915.8</ele>
        <time>2021-04-03T14:14:49Z</time>
      </trkpt>
      <trkpt lat="46.25339" lon="6.52752">
        <ele>916</ele>
        <time>2021-04-03T14:14:50Z</time>
      </trkpt>
      <trkpt lat="46.25335" lon="6.5275">
        <ele>915.8</ele>
        <time>2021-04-03T14:14:51Z</time>
      </trkpt>
      <trkpt lat="46.25331" lon="6.52748">
        <ele>915.8</ele>
        <time>2021-04-03T14:14:52Z</time>
      </trkpt>
      <trkpt lat="46.25327" lon="6.52746">
        <ele>916</ele>
        <time>2021-04-03T14:14:53Z</time>
      </trkpt>
      <trkpt lat="46.25323" lon="6.52744">
        <ele>916.2</ele>
        <time>2021-04-03T14:14:54Z</time>
      </trkpt>
      <trkpt lat="46.25319" lon="6.52741">
        <ele>916.4</ele>
        <time>2021-04-03T14:14:55Z</time>
      </trkpt>
      <trkpt lat="46.25314" lon="6.52739">
        <ele>916.6</ele>
        <time>2021-04-03T14:14:56Z</time>
      </trkpt>
      <trkpt lat="46.2531" lon="6.52736">
        <ele>916.8</ele>
        <time>2021-04-03T14:14:57Z</time>
      </trkpt>
      <trkpt lat="46.25306" lon="6.52734">
        <ele>916.8</ele>
        <time>2021-04-03T14:14:58Z</time>
      </trkpt>
      <trkpt lat="46.25301" lon="6.52732">
        <ele>917</ele>
        <time>2021-04-03T14:14:59Z</time>
      </trkpt>
      <trkpt lat="46.25297" lon="6.52729">
        <ele>917.2</ele>
        <time>2021-04-03T14:15:00Z</time>
      </trkpt>
      <trkpt lat="46.25292" lon="6.52727">
        <ele>917.6</ele>
        <time>2021-04-03T14:15:01Z</time>
      </trkpt>
      <trkpt lat="46.25288" lon="6.52725">
        <ele>917.6</ele>
        <time>2021-04-03T14:15:02Z</time>
      </trkpt>
      <trkpt lat="46.25283" lon="6.52724">
        <ele>917.8</ele>
        <time>2021-04-03T14:15:03Z</time>
      </trkpt>
      <trkpt lat="46.25279" lon="6.52722">
        <ele>918</ele>
        <time>2021-04-03T14:15:04Z</time>
      </trkpt>
      <trkpt lat="46.25274" lon="6.52721">
        <ele>918.4</ele>
        <time>2021-04-03T14:15:05Z</time>
      </trkpt>
      <trkpt lat="46.25269" lon="6.52719">
        <ele>918.4</ele>
        <time>2021-04-03T14:15:06Z</time>
      </trkpt>
      <trkpt lat="46.25265" lon="6.52718">
        <ele>918.8</ele>
        <time>2021-04-03T14:15:07Z</time>
      </trkpt>
      <trkpt lat="46.2526" lon="6.52718">
        <ele>919</ele>
        <time>2021-04-03T14:15:08Z</time>
      </trkpt>
      <trkpt lat="46.25256" lon="6.52718">
        <ele>919.6</ele>
        <time>2021-04-03T14:15:09Z</time>
      </trkpt>
      <trkpt lat="46.25251" lon="6.52719">
        <ele>920.2</ele>
        <time>2021-04-03T14:15:10Z</time>
      </trkpt>
      <trkpt lat="46.25246" lon="6.52719">
        <ele>920.4</ele>
        <time>2021-04-03T14:15:11Z</time>
      </trkpt>
      <trkpt lat="46.25242" lon="6.52719">
        <ele>920.4</ele>
        <time>2021-04-03T14:15:12Z</time>
      </trkpt>
      <trkpt lat="46.25237" lon="6.52718">
        <ele>921</ele>
        <time>2021-04-03T14:15:13Z</time>
      </trkpt>
      <trkpt lat="46.25232" lon="6.52717">
        <ele>921.2</ele>
        <time>2021-04-03T14:15:14Z</time>
      </trkpt>
      <trkpt lat="46.25228" lon="6.52715">
        <ele>921.6</ele>
        <time>2021-04-03T14:15:15Z</time>
      </trkpt>
      <trkpt lat="46.25223" lon="6.52714">
        <ele>921.6</ele>
        <time>2021-04-03T14:15:16Z</time>
      </trkpt>
      <trkpt lat="46.25219" lon="6.52711">
        <ele>922</ele>
        <time>2021-04-03T14:15:17Z</time>
      </trkpt>
      <trkpt lat="46.25215" lon="6.52709">
        <ele>922.2</ele>
        <time>2021-04-03T14:15:18Z</time>
      </trkpt>
      <trkpt lat="46.25211" lon="6.52706">
        <ele>922.6</ele>
        <time>2021-04-03T14:15:19Z</time>
      </trkpt>
      <trkpt lat="46.25207" lon="6.52703">
        <ele>923.2</ele>
        <time>2021-04-03T14:15:20Z</time>
      </trkpt>
      <trkpt lat="46.25203" lon="6.52701">
        <ele>923.6</ele>
        <time>2021-04-03T14:15:21Z</time>
      </trkpt>
      <trkpt lat="46.25199" lon="6.52698">
        <ele>923.4</ele>
        <time>2021-04-03T14:15:22Z</time>
      </trkpt>
      <trkpt lat="46.25195" lon="6.52695">
        <ele>923.8</ele>
        <time>2021-04-03T14:15:23Z</time>
      </trkpt>
      <trkpt lat="46.25191" lon="6.52691">
        <ele>924.2</ele>
        <time>2021-04-03T14:15:24Z</time>
      </trkpt>
      <trkpt lat="46.25187" lon="6.52688">
        <ele>924.4</ele>
        <time>2021-04-03T14:15:25Z</time>
      </trkpt>
      <trkpt lat="46.25183" lon="6.52684">
        <ele>924.8</ele>
        <time>2021-04-03T14:15:26Z</time>
      </trkpt>
      <trkpt lat="46.25179" lon="6.52681">
        <ele>925</ele>
        <time>2021-04-03T14:15:27Z</time>
      </trkpt>
      <trkpt lat="46.25175" lon="6.52678">
        <ele>925.4</ele>
        <time>2021-04-03T14:15:28Z</time>
      </trkpt>
      <trkpt lat="46.25171" lon="6.52676">
        <ele>925.8</ele>
        <time>2021-04-03T14:15:29Z</time>
      </trkpt>
      <trkpt lat="46.25167" lon="6.52673">
        <ele>925.8</ele>
        <time>2021-04-03T14:15:30Z</time>
      </trkpt>
      <trkpt lat="46.25164" lon="6.5267">
        <ele>926</ele>
        <time>2021-04-03T14:15:31Z</time>
      </trkpt>
      <trkpt lat="46.2516" lon="6.52667">
        <ele>926.4</ele>
        <time>2021-04-03T14:15:32Z</time>
      </trkpt>
      <trkpt lat="46.25157" lon="6.52665">
        <ele>926.6</ele>
        <time>2021-04-03T14:15:33Z</time>
      </trkpt>
      <trkpt lat="46.25153" lon="6.52662">
        <ele>926.6</ele>
        <time>2021-04-03T14:15:34Z</time>
      </trkpt>
      <trkpt lat="46.2515" lon="6.5266">
        <ele>927</ele>
        <time>2021-04-03T14:15:35Z</time>
      </trkpt>
      <trkpt lat="46.25148" lon="6.52657">
        <ele>927.2</ele>
        <time>2021-04-03T14:15:36Z</time>
      </trkpt>
      <trkpt lat="46.25145" lon="6.52655">
        <ele>927.4</ele>
        <time>2021-04-03T14:15:37Z</time>
      </trkpt>
      <trkpt lat="46.25142" lon="6.52653">
        <ele>927.8</ele>
        <time>2021-04-03T14:15:38Z</time>
      </trkpt>
      <trkpt lat="46.2514" lon="6.52651">
        <ele>928.4</ele>
        <time>2021-04-03T14:15:39Z</time>
      </trkpt>
      <trkpt lat="46.25137" lon="6.5265">
        <ele>928.6</ele>
        <time>2021-04-03T14:15:40Z</time>
      </trkpt>
      <trkpt lat="46.25135" lon="6.52648">
        <ele>928.6</ele>
        <time>2021-04-03T14:15:41Z</time>
      </trkpt>
      <trkpt lat="46.25133" lon="6.52646">
        <ele>929</ele>
        <time>2021-04-03T14:15:42Z</time>
      </trkpt>
      <trkpt lat="46.2513" lon="6.52645">
        <ele>929</ele>
        <time>2021-04-03T14:15:43Z</time>
      </trkpt>
      <trkpt lat="46.25128" lon="6.52643">
        <ele>929.4</ele>
        <time>2021-04-03T14:15:44Z</time>
      </trkpt>
      <trkpt lat="46.25125" lon="6.52641">
        <ele>929.8</ele>
        <time>2021-04-03T14:15:45Z</time>
      </trkpt>
      <trkpt lat="46.25123" lon="6.52639">
        <ele>930</ele>
        <time>2021-04-03T14:15:46Z</time>
      </trkpt>
      <trkpt lat="46.2512" lon="6.52638">
        <ele>930.6</ele>
        <time>2021-04-03T14:15:47Z</time>
      </trkpt>
      <trkpt lat="46.25117" lon="6.52636">
        <ele>931</ele>
        <time>2021-04-03T14:15:48Z</time>
      </trkpt>
      <trkpt lat="46.25115" lon="6.52635">
        <ele>931.2</ele>
        <time>2021-04-03T14:15:49Z</time>
      </trkpt>
      <trkpt lat="46.25112" lon="6.52634">
        <ele>931.6</ele>
        <time>2021-04-03T14:15:50Z</time>
      </trkpt>
      <trkpt lat="46.25109" lon="6.52633">
        <ele>931.6</ele>
        <time>2021-04-03T14:15:51Z</time>
      </trkpt>
      <trkpt lat="46.25106" lon="6.52632">
        <ele>932</ele>
        <time>2021-04-03T14:15:52Z</time>
      </trkpt>
      <trkpt lat="46.25103" lon="6.52631">
        <ele>932.2</ele>
        <time>2021-04-03T14:15:53Z</time>
      </trkpt>
      <trkpt lat="46.251" lon="6.5263">
        <ele>932.4</ele>
        <time>2021-04-03T14:15:54Z</time>
      </trkpt>
      <trkpt lat="46.25098" lon="6.5263">
        <ele>932.6</ele>
        <time>2021-04-03T14:15:55Z</time>
      </trkpt>
      <trkpt lat="46.25095" lon="6.52629">
        <ele>932.8</ele>
        <time>2021-04-03T14:15:56Z</time>
      </trkpt>
      <trkpt lat="46.25093" lon="6.52628">
        <ele>932.8</ele>
        <time>2021-04-03T14:15:57Z</time>
      </trkpt>
      <trkpt lat="46.2509" lon="6.52627">
        <ele>932.8</ele>
        <time>2021-04-03T14:15:58Z</time>
      </trkpt>
      <trkpt lat="46.25087" lon="6.52627">
        <ele>933.2</ele>
        <time>2021-04-03T14:15:59Z</time>
      </trkpt>
      <trkpt lat="46.25084" lon="6.52626">
        <ele>933.4</ele>
        <time>2021-04-03T14:16:00Z</time>
      </trkpt>
      <trkpt lat="46.25081" lon="6.52626">
        <ele>933.4</ele>
        <time>2021-04-03T14:16:01Z</time>
      </trkpt>
      <trkpt lat="46.25078" lon="6.52627">
        <ele>933.6</ele>
        <time>2021-04-03T14:16:02Z</time>
      </trkpt>
      <trkpt lat="46.25074" lon="6.52627">
        <ele>933.8</ele>
        <time>2021-04-03T14:16:03Z</time>
      </trkpt>
      <trkpt lat="46.2507" lon="6.52626">
        <ele>933.8</ele>
        <time>2021-04-03T14:16:04Z</time>
      </trkpt>
      <trkpt lat="46.25066" lon="6.52625">
        <ele>934</ele>
        <time>2021-04-03T14:16:05Z</time>
      </trkpt>
      <trkpt lat="46.25062" lon="6.52624">
        <ele>934.2</ele>
        <time>2021-04-03T14:16:06Z</time>
      </trkpt>
      <trkpt lat="46.25059" lon="6.52624">
        <ele>934.4</ele>
        <time>2021-04-03T14:16:07Z</time>
      </trkpt>
      <trkpt lat="46.25055" lon="6.52623">
        <ele>934.4</ele>
        <time>2021-04-03T14:16:08Z</time>
      </trkpt>
      <trkpt lat="46.25052" lon="6.52623">
        <ele>934.6</ele>
        <time>2021-04-03T14:16:09Z</time>
      </trkpt>
      <trkpt lat="46.25049" lon="6.52623">
        <ele>934.8</ele>
        <time>2021-04-03T14:16:10Z</time>
      </trkpt>
      <trkpt lat="46.25046" lon="6.52622">
        <ele>934.8</ele>
        <time>2021-04-03T14:16:11Z</time>
      </trkpt>
      <trkpt lat="46.25043" lon="6.52622">
        <ele>935</ele>
        <time>2021-04-03T14:16:12Z</time>
      </trkpt>
      <trkpt lat="46.2504" lon="6.52622">
        <ele>935.2</ele>
        <time>2021-04-03T14:16:13Z</time>
      </trkpt>
      <trkpt lat="46.25037" lon="6.52622">
        <ele>935.4</ele>
        <time>2021-04-03T14:16:14Z</time>
      </trkpt>
      <trkpt lat="46.25034" lon="6.52622">
        <ele>935.6</ele>
        <time>2021-04-03T14:16:15Z</time>
      </trkpt>
      <trkpt lat="46.25031" lon="6.52622">
        <ele>936</ele>
        <time>2021-04-03T14:16:16Z</time>
      </trkpt>
      <trkpt lat="46.25028" lon="6.52621">
        <ele>936</ele>
        <time>2021-04-03T14:16:17Z</time>
      </trkpt>
      <trkpt lat="46.25025" lon="6.52621">
        <ele>936.4</ele>
        <time>2021-04-03T14:16:18Z</time>
      </trkpt>
      <trkpt lat="46.25022" lon="6.5262">
        <ele>936.8</ele>
        <time>2021-04-03T14:16:19Z</time>
      </trkpt>
      <trkpt lat="46.25019" lon="6.52619">
        <ele>937</ele>
        <time>2021-04-03T14:16:20Z</time>
      </trkpt>
      <trkpt lat="46.25016" lon="6.52618">
        <ele>937.2</ele>
        <time>2021-04-03T14:16:21Z</time>
      </trkpt>
      <trkpt lat="46.25013" lon="6.52617">
        <ele>937.4</ele>
        <time>2021-04-03T14:16:22Z</time>
      </trkpt>
      <trkpt lat="46.25011" lon="6.52615">
        <ele>937.6</ele>
        <time>2021-04-03T14:16:23Z</time>
      </trkpt>
      <trkpt lat="46.25008" lon="6.52613">
        <ele>937.6</ele>
        <time>2021-04-03T14:16:24Z</time>
      </trkpt>
      <trkpt lat="46.25005" lon="6.52611">
        <ele>937.8</ele>
        <time>2021-04-03T14:16:25Z</time>
      </trkpt>
      <trkpt lat="46.25003" lon="6.52609">
        <ele>938.2</ele>
        <time>2021-04-03T14:16:26Z</time>
      </trkpt>
      <trkpt lat="46.25" lon="6.52607">
        <ele>938.4</ele>
        <time>2021-04-03T14:16:27Z</time>
      </trkpt>
      <trkpt lat="46.24998" lon="6.52605">
        <ele>938.6</ele>
        <time>2021-04-03T14:16:28Z</time>
      </trkpt>
      <trkpt lat="46.24995" lon="6.52603">
        <ele>938.6</ele>
        <time>2021-04-03T14:16:29Z</time>
      </trkpt>
      <trkpt lat="46.24992" lon="6.52601">
        <ele>938.8</ele>
        <time>2021-04-03T14:16:30Z</time>
      </trkpt>
      <trkpt lat="46.24989" lon="6.52599">
        <ele>939</ele>
        <time>2021-04-03T14:16:31Z</time>
      </trkpt>
      <trkpt lat="46.24986" lon="6.52598">
        <ele>939.2</ele>
        <time>2021-04-03T14:16:32Z</time>
      </trkpt>
      <trkpt lat="46.24984" lon="6.52596">
        <ele>939.4</ele>
        <time>2021-04-03T14:16:33Z</time>
      </trkpt>
      <trkpt lat="46.24981" lon="6.52594">
        <ele>939.6</ele>
        <time>2021-04-03T14:16:34Z</time>
      </trkpt>
      <trkpt lat="46.24977" lon="6.52593">
        <ele>939.8</ele>
        <time>2021-04-03T14:16:35Z</time>
      </trkpt>
      <trkpt lat="46.24974" lon="6.52593">
        <ele>940.2</ele>
        <time>2021-04-03T14:16:36Z</time>
      </trkpt>
      <trkpt lat="46.2497" lon="6.52592">
        <ele>940.4</ele>
        <time>2021-04-03T14:16:37Z</time>
      </trkpt>
      <trkpt lat="46.24966" lon="6.52591">
        <ele>940.4</ele>
        <time>2021-04-03T14:16:38Z</time>
      </trkpt>
      <trkpt lat="46.24962" lon="6.5259">
        <ele>940.4</ele>
        <time>2021-04-03T14:16:39Z</time>
      </trkpt>
      <trkpt lat="46.24958" lon="6.52589">
        <ele>940.8</ele>
        <time>2021-04-03T14:16:40Z</time>
      </trkpt>
      <trkpt lat="46.24954" lon="6.52588">
        <ele>941</ele>
        <time>2021-04-03T14:16:41Z</time>
      </trkpt>
      <trkpt lat="46.24951" lon="6.52587">
        <ele>941.2</ele>
        <time>2021-04-03T14:16:42Z</time>
      </trkpt>
      <trkpt lat="46.24947" lon="6.52587">
        <ele>941.4</ele>
        <time>2021-04-03T14:16:43Z</time>
      </trkpt>
      <trkpt lat="46.24944" lon="6.52587">
        <ele>941.4</ele>
        <time>2021-04-03T14:16:44Z</time>
      </trkpt>
      <trkpt lat="46.24941" lon="6.52587">
        <ele>941.8</ele>
        <time>2021-04-03T14:16:45Z</time>
      </trkpt>
      <trkpt lat="46.24937" lon="6.52587">
        <ele>942</ele>
        <time>2021-04-03T14:16:46Z</time>
      </trkpt>
      <trkpt lat="46.24934" lon="6.52588">
        <ele>942</ele>
        <time>2021-04-03T14:16:47Z</time>
      </trkpt>
      <trkpt lat="46.24931" lon="6.52589">
        <ele>942</ele>
        <time>2021-04-03T14:16:48Z</time>
      </trkpt>
      <trkpt lat="46.24927" lon="6.5259">
        <ele>942.4</ele>
        <time>2021-04-03T14:16:49Z</time>
      </trkpt>
      <trkpt lat="46.24924" lon="6.52591">
        <ele>942.6</ele>
        <time>2021-04-03T14:16:50Z</time>
      </trkpt>
      <trkpt lat="46.2492" lon="6.52592">
        <ele>943.2</ele>
        <time>2021-04-03T14:16:51Z</time>
      </trkpt>
      <trkpt lat="46.24917" lon="6.52594">
        <ele>943.4</ele>
        <time>2021-04-03T14:16:52Z</time>
      </trkpt>
      <trkpt lat="46.24913" lon="6.52595">
        <ele>943.6</ele>
        <time>2021-04-03T14:16:53Z</time>
      </trkpt>
      <trkpt lat="46.24909" lon="6.52596">
        <ele>943.8</ele>
        <time>2021-04-03T14:16:54Z</time>
      </trkpt>
      <trkpt lat="46.24906" lon="6.52598">
        <ele>944.2</ele>
        <time>2021-04-03T14:16:55Z</time>
      </trkpt>
      <trkpt lat="46.24902" lon="6.52599">
        <ele>944.2</ele>
        <time>2021-04-03T14:16:56Z</time>
      </trkpt>
      <trkpt lat="46.24898" lon="6.52601">
        <ele>944.4</ele>
        <time>2021-04-03T14:16:57Z</time>
      </trkpt>
      <trkpt lat="46.24894" lon="6.52602">
        <ele>944.8</ele>
        <time>2021-04-03T14:16:58Z</time>
      </trkpt>
      <trkpt lat="46.24891" lon="6.52604">
        <ele>945</ele>
        <time>2021-04-03T14:16:59Z</time>
      </trkpt>
      <trkpt lat="46.24887" lon="6.52606">
        <ele>945.4</ele>
        <time>2021-04-03T14:17:00Z</time>
      </trkpt>
      <trkpt lat="46.24883" lon="6.52608">
        <ele>945.6</ele>
        <time>2021-04-03T14:17:01Z</time>
      </trkpt>
      <trkpt lat="46.2488" lon="6.52609">
        <ele>945.6</ele>
        <time>2021-04-03T14:17:02Z</time>
      </trkpt>
      <trkpt lat="46.24876" lon="6.52611">
        <ele>945.8</ele>
        <time>2021-04-03T14:17:03Z</time>
      </trkpt>
      <trkpt lat="46.24872" lon="6.52613">
        <ele>946</ele>
        <time>2021-04-03T14:17:04Z</time>
      </trkpt>
      <trkpt lat="46.24868" lon="6.52615">
        <ele>946.2</ele>
        <time>2021-04-03T14:17:05Z</time>
      </trkpt>
      <trkpt lat="46.24864" lon="6.52617">
        <ele>946.6</ele>
        <time>2021-04-03T14:17:06Z</time>
      </trkpt>
      <trkpt lat="46.24861" lon="6.52619">
        <ele>946.8</ele>
        <time>2021-04-03T14:17:07Z</time>
      </trkpt>
      <trkpt lat="46.24857" lon="6.52621">
        <ele>947</ele>
        <time>2021-04-03T14:17:08Z</time>
      </trkpt>
      <trkpt lat="46.24853" lon="6.52623">
        <ele>947.2</ele>
        <time>2021-04-03T14:17:09Z</time>
      </trkpt>
      <trkpt lat="46.2485" lon="6.52625">
        <ele>947.2</ele>
        <time>2021-04-03T14:17:10Z</time>
      </trkpt>
      <trkpt lat="46.24842" lon="6.5263">
        <ele>947.8</ele>
        <time>2021-04-03T14:17:12Z</time>
      </trkpt>
      <trkpt lat="46.24839" lon="6.52632">
        <ele>948</ele>
        <time>2021-04-03T14:17:13Z</time>
      </trkpt>
      <trkpt lat="46.24835" lon="6.52634">
        <ele>948.2</ele>
        <time>2021-04-03T14:17:14Z</time>
      </trkpt>
      <trkpt lat="46.24827" lon="6.5264">
        <ele>948.6</ele>
        <time>2021-04-03T14:17:16Z</time>
      </trkpt>
      <trkpt lat="46.24824" lon="6.52642">
        <ele>948.6</ele>
        <time>2021-04-03T14:17:17Z</time>
      </trkpt>
      <trkpt lat="46.2482" lon="6.52645">
        <ele>948.8</ele>
        <time>2021-04-03T14:17:18Z</time>
      </trkpt>
      <trkpt lat="46.24816" lon="6.52647">
        <ele>949</ele>
        <time>2021-04-03T14:17:19Z</time>
      </trkpt>
      <trkpt lat="46.24812" lon="6.52649">
        <ele>949.2</ele>
        <time>2021-04-03T14:17:20Z</time>
      </trkpt>
      <trkpt lat="46.24808" lon="6.52652">
        <ele>949.4</ele>
        <time>2021-04-03T14:17:21Z</time>
      </trkpt>
      <trkpt lat="46.24805" lon="6.52654">
        <ele>949.8</ele>
        <time>2021-04-03T14:17:22Z</time>
      </trkpt>
      <trkpt lat="46.24801" lon="6.52657">
        <ele>950</ele>
        <time>2021-04-03T14:17:23Z</time>
      </trkpt>
      <trkpt lat="46.24797" lon="6.52659">
        <ele>950.2</ele>
        <time>2021-04-03T14:17:24Z</time>
      </trkpt>
      <trkpt lat="46.24793" lon="6.52662">
        <ele>950.6</ele>
        <time>2021-04-03T14:17:25Z</time>
      </trkpt>
      <trkpt lat="46.24789" lon="6.52664">
        <ele>951</ele>
        <time>2021-04-03T14:17:26Z</time>
      </trkpt>
      <trkpt lat="46.24786" lon="6.52666">
        <ele>951.2</ele>
        <time>2021-04-03T14:17:27Z</time>
      </trkpt>
      <trkpt lat="46.24782" lon="6.52668">
        <ele>951.6</ele>
        <time>2021-04-03T14:17:28Z</time>
      </trkpt>
      <trkpt lat="46.24778" lon="6.5267">
        <ele>952.2</ele>
        <time>2021-04-03T14:17:29Z</time>
      </trkpt>
      <trkpt lat="46.24774" lon="6.52672">
        <ele>952.4</ele>
        <time>2021-04-03T14:17:30Z</time>
      </trkpt>
      <trkpt lat="46.2477" lon="6.52674">
        <ele>952.6</ele>
        <time>2021-04-03T14:17:31Z</time>
      </trkpt>
      <trkpt lat="46.24766" lon="6.52675">
        <ele>952.8</ele>
        <time>2021-04-03T14:17:32Z</time>
      </trkpt>
      <trkpt lat="46.24762" lon="6.52677">
        <ele>953</ele>
        <time>2021-04-03T14:17:33Z</time>
      </trkpt>
      <trkpt lat="46.24759" lon="6.52679">
        <ele>953</ele>
        <time>2021-04-03T14:17:34Z</time>
      </trkpt>
      <trkpt lat="46.24755" lon="6.52681">
        <ele>953.2</ele>
        <time>2021-04-03T14:17:35Z</time>
      </trkpt>
      <trkpt lat="46.24751" lon="6.52682">
        <ele>953.4</ele>
        <time>2021-04-03T14:17:36Z</time>
      </trkpt>
      <trkpt lat="46.24747" lon="6.52684">
        <ele>953.6</ele>
        <time>2021-04-03T14:17:37Z</time>
      </trkpt>
      <trkpt lat="46.24743" lon="6.52686">
        <ele>953.8</ele>
        <time>2021-04-03T14:17:38Z</time>
      </trkpt>
      <trkpt lat="46.24739" lon="6.52687">
        <ele>953.8</ele>
        <time>2021-04-03T14:17:39Z</time>
      </trkpt>
      <trkpt lat="46.24735" lon="6.52689">
        <ele>954.2</ele>
        <time>2021-04-03T14:17:40Z</time>
      </trkpt>
      <trkpt lat="46.24731" lon="6.52691">
        <ele>954.6</ele>
        <time>2021-04-03T14:17:41Z</time>
      </trkpt>
      <trkpt lat="46.24727" lon="6.52693">
        <ele>954.8</ele>
        <time>2021-04-03T14:17:42Z</time>
      </trkpt>
      <trkpt lat="46.24723" lon="6.52694">
        <ele>955.2</ele>
        <time>2021-04-03T14:17:43Z</time>
      </trkpt>
      <trkpt lat="46.24719" lon="6.52696">
        <ele>955.4</ele>
        <time>2021-04-03T14:17:44Z</time>
      </trkpt>
      <trkpt lat="46.24715" lon="6.52698">
        <ele>955.6</ele>
        <time>2021-04-03T14:17:45Z</time>
      </trkpt>
      <trkpt lat="46.24711" lon="6.52699">
        <ele>955.8</ele>
        <time>2021-04-03T14:17:46Z</time>
      </trkpt>
      <trkpt lat="46.24707" lon="6.52701">
        <ele>956</ele>
        <time>2021-04-03T14:17:47Z</time>
      </trkpt>
      <trkpt lat="46.24703" lon="6.52703">
        <ele>955.8</ele>
        <time>2021-04-03T14:17:48Z</time>
      </trkpt>
      <trkpt lat="46.247" lon="6.52705">
        <ele>956</ele>
        <time>2021-04-03T14:17:49Z</time>
      </trkpt>
      <trkpt lat="46.24696" lon="6.52707">
        <ele>956.2</ele>
        <time>2021-04-03T14:17:50Z</time>
      </trkpt>
      <trkpt lat="46.24692" lon="6.5271">
        <ele>956.4</ele>
        <time>2021-04-03T14:17:51Z</time>
      </trkpt>
      <trkpt lat="46.24688" lon="6.52712">
        <ele>956.8</ele>
        <time>2021-04-03T14:17:52Z</time>
      </trkpt>
      <trkpt lat="46.24685" lon="6.52715">
        <ele>957</ele>
        <time>2021-04-03T14:17:53Z</time>
      </trkpt>
      <trkpt lat="46.24681" lon="6.52719">
        <ele>957</ele>
        <time>2021-04-03T14:17:54Z</time>
      </trkpt>
      <trkpt lat="46.24678" lon="6.52722">
        <ele>957.2</ele>
        <time>2021-04-03T14:17:55Z</time>
      </trkpt>
      <trkpt lat="46.24675" lon="6.52726">
        <ele>957.6</ele>
        <time>2021-04-03T14:17:56Z</time>
      </trkpt>
      <trkpt lat="46.24671" lon="6.5273">
        <ele>957.8</ele>
        <time>2021-04-03T14:17:57Z</time>
      </trkpt>
      <trkpt lat="46.24668" lon="6.52733">
        <ele>958.2</ele>
        <time>2021-04-03T14:17:58Z</time>
      </trkpt>
      <trkpt lat="46.24665" lon="6.52737">
        <ele>958.2</ele>
        <time>2021-04-03T14:17:59Z</time>
      </trkpt>
      <trkpt lat="46.24662" lon="6.52741">
        <ele>958.4</ele>
        <time>2021-04-03T14:18:00Z</time>
      </trkpt>
      <trkpt lat="46.24659" lon="6.52745">
        <ele>958.8</ele>
        <time>2021-04-03T14:18:01Z</time>
      </trkpt>
      <trkpt lat="46.24655" lon="6.52748">
        <ele>959</ele>
        <time>2021-04-03T14:18:02Z</time>
      </trkpt>
      <trkpt lat="46.24652" lon="6.52752">
        <ele>959.4</ele>
        <time>2021-04-03T14:18:03Z</time>
      </trkpt>
      <trkpt lat="46.24648" lon="6.52755">
        <ele>959.4</ele>
        <time>2021-04-03T14:18:04Z</time>
      </trkpt>
      <trkpt lat="46.24645" lon="6.52758">
        <ele>959.8</ele>
        <time>2021-04-03T14:18:05Z</time>
      </trkpt>
      <trkpt lat="46.24641" lon="6.5276">
        <ele>960</ele>
        <time>2021-04-03T14:18:06Z</time>
      </trkpt>
      <trkpt lat="46.24637" lon="6.52763">
        <ele>960.4</ele>
        <time>2021-04-03T14:18:07Z</time>
      </trkpt>
      <trkpt lat="46.24633" lon="6.52765">
        <ele>960.6</ele>
        <time>2021-04-03T14:18:08Z</time>
      </trkpt>
      <trkpt lat="46.24629" lon="6.52767">
        <ele>960.8</ele>
        <time>2021-04-03T14:18:09Z</time>
      </trkpt>
      <trkpt lat="46.24625" lon="6.52769">
        <ele>961.2</ele>
        <time>2021-04-03T14:18:10Z</time>
      </trkpt>
      <trkpt lat="46.24621" lon="6.52771">
        <ele>961.6</ele>
        <time>2021-04-03T14:18:11Z</time>
      </trkpt>
      <trkpt lat="46.24617" lon="6.52772">
        <ele>962.2</ele>
        <time>2021-04-03T14:18:12Z</time>
      </trkpt>
      <trkpt lat="46.24613" lon="6.52773">
        <ele>962.4</ele>
        <time>2021-04-03T14:18:13Z</time>
      </trkpt>
      <trkpt lat="46.24609" lon="6.52774">
        <ele>962.4</ele>
        <time>2021-04-03T14:18:14Z</time>
      </trkpt>
      <trkpt lat="46.24605" lon="6.52775">
        <ele>962.8</ele>
        <time>2021-04-03T14:18:15Z</time>
      </trkpt>
      <trkpt lat="46.24601" lon="6.52775">
        <ele>963.2</ele>
        <time>2021-04-03T14:18:16Z</time>
      </trkpt>
      <trkpt lat="46.24597" lon="6.52775">
        <ele>963.2</ele>
        <time>2021-04-03T14:18:17Z</time>
      </trkpt>
      <trkpt lat="46.24593" lon="6.52774">
        <ele>963.6</ele>
        <time>2021-04-03T14:18:18Z</time>
      </trkpt>
      <trkpt lat="46.24589" lon="6.52773">
        <ele>963.8</ele>
        <time>2021-04-03T14:18:19Z</time>
      </trkpt>
      <trkpt lat="46.24585" lon="6.52771">
        <ele>964.2</ele>
        <time>2021-04-03T14:18:20Z</time>
      </trkpt>
      <trkpt lat="46.24581" lon="6.5277">
        <ele>964.4</ele>
        <time>2021-04-03T14:18:21Z</time>
      </trkpt>
      <trkpt lat="46.24578" lon="6.52767">
        <ele>964.8</ele>
        <time>2021-04-03T14:18:22Z</time>
      </trkpt>
      <trkpt lat="46.24574" lon="6.52765">
        <ele>965.2</ele>
        <time>2021-04-03T14:18:23Z</time>
      </trkpt>
      <trkpt lat="46.24571" lon="6.52762">
        <ele>965.6</ele>
        <time>2021-04-03T14:18:24Z</time>
      </trkpt>
      <trkpt lat="46.24567" lon="6.52759">
        <ele>965.8</ele>
        <time>2021-04-03T14:18:25Z</time>
      </trkpt>
      <trkpt lat="46.24564" lon="6.52756">
        <ele>966</ele>
        <time>2021-04-03T14:18:26Z</time>
      </trkpt>
      <trkpt lat="46.2456" lon="6.52754">
        <ele>966.4</ele>
        <time>2021-04-03T14:18:27Z</time>
      </trkpt>
      <trkpt lat="46.24556" lon="6.52752">
        <ele>966.8</ele>
        <time>2021-04-03T14:18:28Z</time>
      </trkpt>
      <trkpt lat="46.24553" lon="6.52751">
        <ele>967</ele>
        <time>2021-04-03T14:18:29Z</time>
      </trkpt>
      <trkpt lat="46.24549" lon="6.5275">
        <ele>967.6</ele>
        <time>2021-04-03T14:18:30Z</time>
      </trkpt>
      <trkpt lat="46.24545" lon="6.5275">
        <ele>967.8</ele>
        <time>2021-04-03T14:18:31Z</time>
      </trkpt>
      <trkpt lat="46.24541" lon="6.5275">
        <ele>968.2</ele>
        <time>2021-04-03T14:18:32Z</time>
      </trkpt>
      <trkpt lat="46.24537" lon="6.52751">
        <ele>968.6</ele>
        <time>2021-04-03T14:18:33Z</time>
      </trkpt>
      <trkpt lat="46.24533" lon="6.52753">
        <ele>968.8</ele>
        <time>2021-04-03T14:18:34Z</time>
      </trkpt>
      <trkpt lat="46.24529" lon="6.52754">
        <ele>969</ele>
        <time>2021-04-03T14:18:35Z</time>
      </trkpt>
      <trkpt lat="46.24526" lon="6.52757">
        <ele>969.4</ele>
        <time>2021-04-03T14:18:36Z</time>
      </trkpt>
      <trkpt lat="46.24523" lon="6.52759">
        <ele>969.6</ele>
        <time>2021-04-03T14:18:37Z</time>
      </trkpt>
      <trkpt lat="46.24519" lon="6.52762">
        <ele>969.8</ele>
        <time>2021-04-03T14:18:38Z</time>
      </trkpt>
      <trkpt lat="46.24517" lon="6.52765">
        <ele>969.8</ele>
        <time>2021-04-03T14:18:39Z</time>
      </trkpt>
      <trkpt lat="46.24514" lon="6.52768">
        <ele>970</ele>
        <time>2021-04-03T14:18:40Z</time>
      </trkpt>
      <trkpt lat="46.24512" lon="6.52772">
        <ele>970.4</ele>
        <time>2021-04-03T14:18:41Z</time>
      </trkpt>
      <trkpt lat="46.2451" lon="6.52776">
        <ele>970.6</ele>
        <time>2021-04-03T14:18:42Z</time>
      </trkpt>
      <trkpt lat="46.24507" lon="6.52781">
        <ele>970.8</ele>
        <time>2021-04-03T14:18:43Z</time>
      </trkpt>
      <trkpt lat="46.24504" lon="6.52785">
        <ele>971</ele>
        <time>2021-04-03T14:18:44Z</time>
      </trkpt>
      <trkpt lat="46.24502" lon="6.5279">
        <ele>971.2</ele>
        <time>2021-04-03T14:18:45Z</time>
      </trkpt>
      <trkpt lat="46.24499" lon="6.52794">
        <ele>971.4</ele>
        <time>2021-04-03T14:18:46Z</time>
      </trkpt>
      <trkpt lat="46.24495" lon="6.52798">
        <ele>971.6</ele>
        <time>2021-04-03T14:18:47Z</time>
      </trkpt>
      <trkpt lat="46.24492" lon="6.52801">
        <ele>971.8</ele>
        <time>2021-04-03T14:18:48Z</time>
      </trkpt>
      <trkpt lat="46.24489" lon="6.52804">
        <ele>972</ele>
        <time>2021-04-03T14:18:49Z</time>
      </trkpt>
      <trkpt lat="46.24485" lon="6.52807">
        <ele>972</ele>
        <time>2021-04-03T14:18:50Z</time>
      </trkpt>
      <trkpt lat="46.24481" lon="6.52809">
        <ele>972.2</ele>
        <time>2021-04-03T14:18:51Z</time>
      </trkpt>
      <trkpt lat="46.24477" lon="6.5281">
        <ele>972.8</ele>
        <time>2021-04-03T14:18:52Z</time>
      </trkpt>
      <trkpt lat="46.24473" lon="6.52812">
        <ele>973</ele>
        <time>2021-04-03T14:18:53Z</time>
      </trkpt>
      <trkpt lat="46.24469" lon="6.52814">
        <ele>973.4</ele>
        <time>2021-04-03T14:18:54Z</time>
      </trkpt>
      <trkpt lat="46.24465" lon="6.52816">
        <ele>973.4</ele>
        <time>2021-04-03T14:18:55Z</time>
      </trkpt>
      <trkpt lat="46.24461" lon="6.52817">
        <ele>973.8</ele>
        <time>2021-04-03T14:18:56Z</time>
      </trkpt>
      <trkpt lat="46.24457" lon="6.52819">
        <ele>974</ele>
        <time>2021-04-03T14:18:57Z</time>
      </trkpt>
      <trkpt lat="46.24453" lon="6.52823">
        <ele>974.2</ele>
        <time>2021-04-03T14:18:58Z</time>
      </trkpt>
      <trkpt lat="46.24449" lon="6.52825">
        <ele>974.6</ele>
        <time>2021-04-03T14:18:59Z</time>
      </trkpt>
      <trkpt lat="46.24445" lon="6.52828">
        <ele>975.2</ele>
        <time>2021-04-03T14:19:00Z</time>
      </trkpt>
      <trkpt lat="46.24441" lon="6.5283">
        <ele>975.6</ele>
        <time>2021-04-03T14:19:01Z</time>
      </trkpt>
      <trkpt lat="46.24437" lon="6.52831">
        <ele>975.8</ele>
        <time>2021-04-03T14:19:02Z</time>
      </trkpt>
      <trkpt lat="46.24433" lon="6.52833">
        <ele>976</ele>
        <time>2021-04-03T14:19:03Z</time>
      </trkpt>
      <trkpt lat="46.24429" lon="6.52834">
        <ele>976.2</ele>
        <time>2021-04-03T14:19:04Z</time>
      </trkpt>
      <trkpt lat="46.24425" lon="6.52834">
        <ele>976.2</ele>
        <time>2021-04-03T14:19:05Z</time>
      </trkpt>
      <trkpt lat="46.2442" lon="6.52835">
        <ele>976.4</ele>
        <time>2021-04-03T14:19:06Z</time>
      </trkpt>
      <trkpt lat="46.24416" lon="6.52835">
        <ele>976.6</ele>
        <time>2021-04-03T14:19:07Z</time>
      </trkpt>
      <trkpt lat="46.24412" lon="6.52836">
        <ele>976.8</ele>
        <time>2021-04-03T14:19:08Z</time>
      </trkpt>
      <trkpt lat="46.24408" lon="6.52836">
        <ele>977</ele>
        <time>2021-04-03T14:19:09Z</time>
      </trkpt>
      <trkpt lat="46.24404" lon="6.52836">
        <ele>977.2</ele>
        <time>2021-04-03T14:19:10Z</time>
      </trkpt>
      <trkpt lat="46.24399" lon="6.52837">
        <ele>977.6</ele>
        <time>2021-04-03T14:19:11Z</time>
      </trkpt>
      <trkpt lat="46.24395" lon="6.52837">
        <ele>977.8</ele>
        <time>2021-04-03T14:19:12Z</time>
      </trkpt>
      <trkpt lat="46.24391" lon="6.52837">
        <ele>978</ele>
        <time>2021-04-03T14:19:13Z</time>
      </trkpt>
      <trkpt lat="46.24387" lon="6.52837">
        <ele>978.2</ele>
        <time>2021-04-03T14:19:14Z</time>
      </trkpt>
      <trkpt lat="46.24383" lon="6.52838">
        <ele>978.6</ele>
        <time>2021-04-03T14:19:15Z</time>
      </trkpt>
      <trkpt lat="46.24379" lon="6.52839">
        <ele>978.4</ele>
        <time>2021-04-03T14:19:16Z</time>
      </trkpt>
      <trkpt lat="46.24375" lon="6.5284">
        <ele>978.8</ele>
        <time>2021-04-03T14:19:17Z</time>
      </trkpt>
      <trkpt lat="46.24371" lon="6.52841">
        <ele>979</ele>
        <time>2021-04-03T14:19:18Z</time>
      </trkpt>
      <trkpt lat="46.24367" lon="6.52842">
        <ele>979.2</ele>
        <time>2021-04-03T14:19:19Z</time>
      </trkpt>
      <trkpt lat="46.24364" lon="6.52844">
        <ele>979.4</ele>
        <time>2021-04-03T14:19:20Z</time>
      </trkpt>
      <trkpt lat="46.2436" lon="6.52845">
        <ele>979.8</ele>
        <time>2021-04-03T14:19:21Z</time>
      </trkpt>
      <trkpt lat="46.24356" lon="6.52846">
        <ele>980</ele>
        <time>2021-04-03T14:19:22Z</time>
      </trkpt>
      <trkpt lat="46.24352" lon="6.52846">
        <ele>980.2</ele>
        <time>2021-04-03T14:19:23Z</time>
      </trkpt>
      <trkpt lat="46.24348" lon="6.52846">
        <ele>980.2</ele>
        <time>2021-04-03T14:19:24Z</time>
      </trkpt>
      <trkpt lat="46.24344" lon="6.52845">
        <ele>980.4</ele>
        <time>2021-04-03T14:19:25Z</time>
      </trkpt>
      <trkpt lat="46.2434" lon="6.52842">
        <ele>980.6</ele>
        <time>2021-04-03T14:19:26Z</time>
      </trkpt>
      <trkpt lat="46.24337" lon="6.52839">
        <ele>981</ele>
        <time>2021-04-03T14:19:27Z</time>
      </trkpt>
      <trkpt lat="46.24334" lon="6.52835">
        <ele>981.4</ele>
        <time>2021-04-03T14:19:28Z</time>
      </trkpt>
      <trkpt lat="46.24331" lon="6.5283">
        <ele>981.8</ele>
        <time>2021-04-03T14:19:29Z</time>
      </trkpt>
      <trkpt lat="46.24328" lon="6.52825">
        <ele>982</ele>
        <time>2021-04-03T14:19:30Z</time>
      </trkpt>
      <trkpt lat="46.24325" lon="6.5282">
        <ele>982.2</ele>
        <time>2021-04-03T14:19:31Z</time>
      </trkpt>
      <trkpt lat="46.24322" lon="6.52814">
        <ele>982.4</ele>
        <time>2021-04-03T14:19:32Z</time>
      </trkpt>
      <trkpt lat="46.24319" lon="6.52809">
        <ele>982.6</ele>
        <time>2021-04-03T14:19:33Z</time>
      </trkpt>
      <trkpt lat="46.24316" lon="6.52804">
        <ele>983</ele>
        <time>2021-04-03T14:19:34Z</time>
      </trkpt>
      <trkpt lat="46.24313" lon="6.52799">
        <ele>983.4</ele>
        <time>2021-04-03T14:19:35Z</time>
      </trkpt>
      <trkpt lat="46.24309" lon="6.52793">
        <ele>983.4</ele>
        <time>2021-04-03T14:19:36Z</time>
      </trkpt>
      <trkpt lat="46.24306" lon="6.52788">
        <ele>983.6</ele>
        <time>2021-04-03T14:19:37Z</time>
      </trkpt>
      <trkpt lat="46.24303" lon="6.52783">
        <ele>983.8</ele>
        <time>2021-04-03T14:19:38Z</time>
      </trkpt>
      <trkpt lat="46.24299" lon="6.52778">
        <ele>983.8</ele>
        <time>2021-04-03T14:19:39Z</time>
      </trkpt>
      <trkpt lat="46.24295" lon="6.52773">
        <ele>983.8</ele>
        <time>2021-04-03T14:19:40Z</time>
      </trkpt>
      <trkpt lat="46.24291" lon="6.52769">
        <ele>983.8</ele>
        <time>2021-04-03T14:19:41Z</time>
      </trkpt>
      <trkpt lat="46.24287" lon="6.52764">
        <ele>984</ele>
        <time>2021-04-03T14:19:42Z</time>
      </trkpt>
      <trkpt lat="46.24284" lon="6.52759">
        <ele>983.8</ele>
        <time>2021-04-03T14:19:43Z</time>
      </trkpt>
      <trkpt lat="46.2428" lon="6.52754">
        <ele>984</ele>
        <time>2021-04-03T14:19:44Z</time>
      </trkpt>
      <trkpt lat="46.24276" lon="6.52749">
        <ele>984.2</ele>
        <time>2021-04-03T14:19:45Z</time>
      </trkpt>
      <trkpt lat="46.24272" lon="6.52744">
        <ele>984</ele>
        <time>2021-04-03T14:19:46Z</time>
      </trkpt>
      <trkpt lat="46.24268" lon="6.52739">
        <ele>984.2</ele>
        <time>2021-04-03T14:19:47Z</time>
      </trkpt>
      <trkpt lat="46.24264" lon="6.52734">
        <ele>984.2</ele>
        <time>2021-04-03T14:19:48Z</time>
      </trkpt>
      <trkpt lat="46.2426" lon="6.52729">
        <ele>984.2</ele>
        <time>2021-04-03T14:19:49Z</time>
      </trkpt>
      <trkpt lat="46.24256" lon="6.52724">
        <ele>984.2</ele>
        <time>2021-04-03T14:19:50Z</time>
      </trkpt>
      <trkpt lat="46.24253" lon="6.52719">
        <ele>984.4</ele>
        <time>2021-04-03T14:19:51Z</time>
      </trkpt>
      <trkpt lat="46.24249" lon="6.52714">
        <ele>984.6</ele>
        <time>2021-04-03T14:19:52Z</time>
      </trkpt>
      <trkpt lat="46.24245" lon="6.52709">
        <ele>984.4</ele>
        <time>2021-04-03T14:19:53Z</time>
      </trkpt>
      <trkpt lat="46.2424" lon="6.52705">
        <ele>984.8</ele>
        <time>2021-04-03T14:19:54Z</time>
      </trkpt>
      <trkpt lat="46.24236" lon="6.527">
        <ele>985</ele>
        <time>2021-04-03T14:19:55Z</time>
      </trkpt>
      <trkpt lat="46.24232" lon="6.52696">
        <ele>985.2</ele>
        <time>2021-04-03T14:19:56Z</time>
      </trkpt>
      <trkpt lat="46.24227" lon="6.52693">
        <ele>985.6</ele>
        <time>2021-04-03T14:19:57Z</time>
      </trkpt>
      <trkpt lat="46.24221" lon="6.5269">
        <ele>985.8</ele>
        <time>2021-04-03T14:19:58Z</time>
      </trkpt>
      <trkpt lat="46.24216" lon="6.52688">
        <ele>985.8</ele>
        <time>2021-04-03T14:19:59Z</time>
      </trkpt>
      <trkpt lat="46.24211" lon="6.52686">
        <ele>986.2</ele>
        <time>2021-04-03T14:20:00Z</time>
      </trkpt>
      <trkpt lat="46.24206" lon="6.52684">
        <ele>986.2</ele>
        <time>2021-04-03T14:20:01Z</time>
      </trkpt>
      <trkpt lat="46.24201" lon="6.52683">
        <ele>986.4</ele>
        <time>2021-04-03T14:20:02Z</time>
      </trkpt>
      <trkpt lat="46.24195" lon="6.52682">
        <ele>986.4</ele>
        <time>2021-04-03T14:20:03Z</time>
      </trkpt>
      <trkpt lat="46.2419" lon="6.52681">
        <ele>986.4</ele>
        <time>2021-04-03T14:20:04Z</time>
      </trkpt>
      <trkpt lat="46.24185" lon="6.52679">
        <ele>986.6</ele>
        <time>2021-04-03T14:20:05Z</time>
      </trkpt>
      <trkpt lat="46.2418" lon="6.52678">
        <ele>986.6</ele>
        <time>2021-04-03T14:20:06Z</time>
      </trkpt>
      <trkpt lat="46.24174" lon="6.52675">
        <ele>986.6</ele>
        <time>2021-04-03T14:20:07Z</time>
      </trkpt>
      <trkpt lat="46.2417" lon="6.52672">
        <ele>986.6</ele>
        <time>2021-04-03T14:20:08Z</time>
      </trkpt>
      <trkpt lat="46.24165" lon="6.52668">
        <ele>986.6</ele>
        <time>2021-04-03T14:20:09Z</time>
      </trkpt>
      <trkpt lat="46.24162" lon="6.52662">
        <ele>986.8</ele>
        <time>2021-04-03T14:20:10Z</time>
      </trkpt>
      <trkpt lat="46.24158" lon="6.52656">
        <ele>986.8</ele>
        <time>2021-04-03T14:20:11Z</time>
      </trkpt>
      <trkpt lat="46.24155" lon="6.5265">
        <ele>986.8</ele>
        <time>2021-04-03T14:20:12Z</time>
      </trkpt>
      <trkpt lat="46.24152" lon="6.52644">
        <ele>987</ele>
        <time>2021-04-03T14:20:13Z</time>
      </trkpt>
      <trkpt lat="46.2415" lon="6.52637">
        <ele>987.4</ele>
        <time>2021-04-03T14:20:14Z</time>
      </trkpt>
      <trkpt lat="46.24147" lon="6.52631">
        <ele>987.6</ele>
        <time>2021-04-03T14:20:15Z</time>
      </trkpt>
      <trkpt lat="46.24144" lon="6.52624">
        <ele>987.8</ele>
        <time>2021-04-03T14:20:16Z</time>
      </trkpt>
      <trkpt lat="46.24141" lon="6.52618">
        <ele>987.8</ele>
        <time>2021-04-03T14:20:17Z</time>
      </trkpt>
      <trkpt lat="46.24138" lon="6.52613">
        <ele>988</ele>
        <time>2021-04-03T14:20:18Z</time>
      </trkpt>
      <trkpt lat="46.24134" lon="6.52608">
        <ele>988</ele>
        <time>2021-04-03T14:20:19Z</time>
      </trkpt>
      <trkpt lat="46.2413" lon="6.52605">
        <ele>988</ele>
        <time>2021-04-03T14:20:20Z</time>
      </trkpt>
      <trkpt lat="46.24126" lon="6.52601">
        <ele>988</ele>
        <time>2021-04-03T14:20:21Z</time>
      </trkpt>
      <trkpt lat="46.24122" lon="6.52599">
        <ele>988.2</ele>
        <time>2021-04-03T14:20:22Z</time>
      </trkpt>
      <trkpt lat="46.24117" lon="6.52597">
        <ele>988.4</ele>
        <time>2021-04-03T14:20:23Z</time>
      </trkpt>
      <trkpt lat="46.24113" lon="6.52596">
        <ele>988.4</ele>
        <time>2021-04-03T14:20:24Z</time>
      </trkpt>
      <trkpt lat="46.24108" lon="6.52595">
        <ele>988.4</ele>
        <time>2021-04-03T14:20:25Z</time>
      </trkpt>
      <trkpt lat="46.24103" lon="6.52595">
        <ele>988.8</ele>
        <time>2021-04-03T14:20:26Z</time>
      </trkpt>
      <trkpt lat="46.24098" lon="6.52595">
        <ele>988.8</ele>
        <time>2021-04-03T14:20:27Z</time>
      </trkpt>
      <trkpt lat="46.24093" lon="6.52596">
        <ele>989</ele>
        <time>2021-04-03T14:20:28Z</time>
      </trkpt>
      <trkpt lat="46.24088" lon="6.52597">
        <ele>989</ele>
        <time>2021-04-03T14:20:29Z</time>
      </trkpt>
      <trkpt lat="46.24083" lon="6.526">
        <ele>989.2</ele>
        <time>2021-04-03T14:20:30Z</time>
      </trkpt>
      <trkpt lat="46.24078" lon="6.52602">
        <ele>989.6</ele>
        <time>2021-04-03T14:20:31Z</time>
      </trkpt>
      <trkpt lat="46.24074" lon="6.52604">
        <ele>990</ele>
        <time>2021-04-03T14:20:32Z</time>
      </trkpt>
      <trkpt lat="46.2407" lon="6.52607">
        <ele>990</ele>
        <time>2021-04-03T14:20:33Z</time>
      </trkpt>
      <trkpt lat="46.24067" lon="6.5261">
        <ele>990.2</ele>
        <time>2021-04-03T14:20:34Z</time>
      </trkpt>
      <trkpt lat="46.24064" lon="6.52613">
        <ele>990.2</ele>
        <time>2021-04-03T14:20:35Z</time>
      </trkpt>
      <trkpt lat="46.24061" lon="6.52617">
        <ele>990.4</ele>
        <time>2021-04-03T14:20:36Z</time>
      </trkpt>
      <trkpt lat="46.24059" lon="6.5262">
        <ele>990.4</ele>
        <time>2021-04-03T14:20:37Z</time>
      </trkpt>
      <trkpt lat="46.24058" lon="6.52624">
        <ele>990.4</ele>
        <time>2021-04-03T14:20:38Z</time>
      </trkpt>
      <trkpt lat="46.24056" lon="6.5263">
        <ele>990.4</ele>
        <time>2021-04-03T14:20:39Z</time>
      </trkpt>
      <trkpt lat="46.24055" lon="6.52637">
        <ele>990.6</ele>
        <time>2021-04-03T14:20:40Z</time>
      </trkpt>
      <trkpt lat="46.24053" lon="6.52645">
        <ele>990.6</ele>
        <time>2021-04-03T14:20:41Z</time>
      </trkpt>
      <trkpt lat="46.24052" lon="6.52653">
        <ele>990.6</ele>
        <time>2021-04-03T14:20:42Z</time>
      </trkpt>
      <trkpt lat="46.2405" lon="6.52661">
        <ele>990.6</ele>
        <time>2021-04-03T14:20:43Z</time>
      </trkpt>
      <trkpt lat="46.24048" lon="6.52669">
        <ele>990.8</ele>
        <time>2021-04-03T14:20:44Z</time>
      </trkpt>
      <trkpt lat="46.24046" lon="6.52676">
        <ele>990.8</ele>
        <time>2021-04-03T14:20:45Z</time>
      </trkpt>
      <trkpt lat="46.24042" lon="6.52682">
        <ele>990.8</ele>
        <time>2021-04-03T14:20:46Z</time>
      </trkpt>
      <trkpt lat="46.24039" lon="6.52687">
        <ele>991</ele>
        <time>2021-04-03T14:20:47Z</time>
      </trkpt>
      <trkpt lat="46.24035" lon="6.52692">
        <ele>991.2</ele>
        <time>2021-04-03T14:20:48Z</time>
      </trkpt>
      <trkpt lat="46.2403" lon="6.52695">
        <ele>991.4</ele>
        <time>2021-04-03T14:20:49Z</time>
      </trkpt>
      <trkpt lat="46.24025" lon="6.52698">
        <ele>991.4</ele>
        <time>2021-04-03T14:20:50Z</time>
      </trkpt>
      <trkpt lat="46.2402" lon="6.527">
        <ele>992</ele>
        <time>2021-04-03T14:20:51Z</time>
      </trkpt>
      <trkpt lat="46.24014" lon="6.52701">
        <ele>992.4</ele>
        <time>2021-04-03T14:20:52Z</time>
      </trkpt>
      <trkpt lat="46.24008" lon="6.52702">
        <ele>992.8</ele>
        <time>2021-04-03T14:20:53Z</time>
      </trkpt>
      <trkpt lat="46.24002" lon="6.52703">
        <ele>993.2</ele>
        <time>2021-04-03T14:20:54Z</time>
      </trkpt>
      <trkpt lat="46.23996" lon="6.52703">
        <ele>994.6</ele>
        <time>2021-04-03T14:20:55Z</time>
      </trkpt>
      <trkpt lat="46.23991" lon="6.52703">
        <ele>995.2</ele>
        <time>2021-04-03T14:20:56Z</time>
      </trkpt>
      <trkpt lat="46.23985" lon="6.52702">
        <ele>995.6</ele>
        <time>2021-04-03T14:20:57Z</time>
      </trkpt>
      <trkpt lat="46.2398" lon="6.52703">
        <ele>995.8</ele>
        <time>2021-04-03T14:20:58Z</time>
      </trkpt>
      <trkpt lat="46.23974" lon="6.52703">
        <ele>996</ele>
        <time>2021-04-03T14:20:59Z</time>
      </trkpt>
      <trkpt lat="46.23969" lon="6.52703">
        <ele>996</ele>
        <time>2021-04-03T14:21:00Z</time>
      </trkpt>
      <trkpt lat="46.23963" lon="6.52703">
        <ele>996</ele>
        <time>2021-04-03T14:21:01Z</time>
      </trkpt>
      <trkpt lat="46.23957" lon="6.52703">
        <ele>996.4</ele>
        <time>2021-04-03T14:21:02Z</time>
      </trkpt>
      <trkpt lat="46.23952" lon="6.52703">
        <ele>996.6</ele>
        <time>2021-04-03T14:21:03Z</time>
      </trkpt>
      <trkpt lat="46.23946" lon="6.52703">
        <ele>996.6</ele>
        <time>2021-04-03T14:21:04Z</time>
      </trkpt>
      <trkpt lat="46.2394" lon="6.52703">
        <ele>996.6</ele>
        <time>2021-04-03T14:21:05Z</time>
      </trkpt>
      <trkpt lat="46.23935" lon="6.52702">
        <ele>996.6</ele>
        <time>2021-04-03T14:21:06Z</time>
      </trkpt>
      <trkpt lat="46.23929" lon="6.52701">
        <ele>996.6</ele>
        <time>2021-04-03T14:21:07Z</time>
      </trkpt>
      <trkpt lat="46.23923" lon="6.527">
        <ele>996.8</ele>
        <time>2021-04-03T14:21:08Z</time>
      </trkpt>
      <trkpt lat="46.23917" lon="6.52699">
        <ele>996.6</ele>
        <time>2021-04-03T14:21:09Z</time>
      </trkpt>
      <trkpt lat="46.23911" lon="6.52698">
        <ele>996.8</ele>
        <time>2021-04-03T14:21:10Z</time>
      </trkpt>
      <trkpt lat="46.23905" lon="6.52697">
        <ele>996.8</ele>
        <time>2021-04-03T14:21:11Z</time>
      </trkpt>
      <trkpt lat="46.23899" lon="6.52696">
        <ele>997</ele>
        <time>2021-04-03T14:21:12Z</time>
      </trkpt>
      <trkpt lat="46.23893" lon="6.52695">
        <ele>997.4</ele>
        <time>2021-04-03T14:21:13Z</time>
      </trkpt>
      <trkpt lat="46.23888" lon="6.52693">
        <ele>997.6</ele>
        <time>2021-04-03T14:21:14Z</time>
      </trkpt>
      <trkpt lat="46.23882" lon="6.52692">
        <ele>997.8</ele>
        <time>2021-04-03T14:21:15Z</time>
      </trkpt>
      <trkpt lat="46.23876" lon="6.52691">
        <ele>998</ele>
        <time>2021-04-03T14:21:16Z</time>
      </trkpt>
      <trkpt lat="46.2387" lon="6.52689">
        <ele>998.4</ele>
        <time>2021-04-03T14:21:17Z</time>
      </trkpt>
      <trkpt lat="46.23864" lon="6.52687">
        <ele>998.6</ele>
        <time>2021-04-03T14:21:18Z</time>
      </trkpt>
      <trkpt lat="46.23859" lon="6.52685">
        <ele>998.6</ele>
        <time>2021-04-03T14:21:19Z</time>
      </trkpt>
      <trkpt lat="46.23853" lon="6.52684">
        <ele>998.8</ele>
        <time>2021-04-03T14:21:20Z</time>
      </trkpt>
      <trkpt lat="46.23847" lon="6.52682">
        <ele>999</ele>
        <time>2021-04-03T14:21:21Z</time>
      </trkpt>
      <trkpt lat="46.23842" lon="6.5268">
        <ele>998.8</ele>
        <time>2021-04-03T14:21:22Z</time>
      </trkpt>
      <trkpt lat="46.23836" lon="6.52678">
        <ele>999.2</ele>
        <time>2021-04-03T14:21:23Z</time>
      </trkpt>
      <trkpt lat="46.23831" lon="6.52677">
        <ele>999.4</ele>
        <time>2021-04-03T14:21:24Z</time>
      </trkpt>
      <trkpt lat="46.23825" lon="6.52675">
        <ele>999.4</ele>
        <time>2021-04-03T14:21:25Z</time>
      </trkpt>
      <trkpt lat="46.2382" lon="6.52673">
        <ele>999.4</ele>
        <time>2021-04-03T14:21:26Z</time>
      </trkpt>
      <trkpt lat="46.23814" lon="6.52672">
        <ele>1000</ele>
        <time>2021-04-03T14:21:27Z</time>
      </trkpt>
      <trkpt lat="46.23808" lon="6.52671">
        <ele>1000.2</ele>
        <time>2021-04-03T14:21:28Z</time>
      </trkpt>
      <trkpt lat="46.23803" lon="6.5267">
        <ele>1000.2</ele>
        <time>2021-04-03T14:21:29Z</time>
      </trkpt>
      <trkpt lat="46.23797" lon="6.5267">
        <ele>1000.4</ele>
        <time>2021-04-03T14:21:30Z</time>
      </trkpt>
      <trkpt lat="46.23791" lon="6.5267">
        <ele>1000.8</ele>
        <time>2021-04-03T14:21:31Z</time>
      </trkpt>
      <trkpt lat="46.23785" lon="6.5267">
        <ele>1001</ele>
        <time>2021-04-03T14:21:32Z</time>
      </trkpt>
      <trkpt lat="46.2378" lon="6.52671">
        <ele>1001.2</ele>
        <time>2021-04-03T14:21:33Z</time>
      </trkpt>
      <trkpt lat="46.23774" lon="6.52671">
        <ele>1001.6</ele>
        <time>2021-04-03T14:21:34Z</time>
      </trkpt>
      <trkpt lat="46.23768" lon="6.52671">
        <ele>1001.4</ele>
        <time>2021-04-03T14:21:35Z</time>
      </trkpt>
      <trkpt lat="46.23762" lon="6.52671">
        <ele>1001.8</ele>
        <time>2021-04-03T14:21:36Z</time>
      </trkpt>
      <trkpt lat="46.23756" lon="6.52671">
        <ele>1001.8</ele>
        <time>2021-04-03T14:21:37Z</time>
      </trkpt>
      <trkpt lat="46.2375" lon="6.5267">
        <ele>1002</ele>
        <time>2021-04-03T14:21:38Z</time>
      </trkpt>
      <trkpt lat="46.23745" lon="6.52669">
        <ele>1002.2</ele>
        <time>2021-04-03T14:21:39Z</time>
      </trkpt>
      <trkpt lat="46.23739" lon="6.52667">
        <ele>1002.6</ele>
        <time>2021-04-03T14:21:40Z</time>
      </trkpt>
      <trkpt lat="46.23734" lon="6.52663">
        <ele>1002.8</ele>
        <time>2021-04-03T14:21:41Z</time>
      </trkpt>
      <trkpt lat="46.23729" lon="6.52659">
        <ele>1003.2</ele>
        <time>2021-04-03T14:21:42Z</time>
      </trkpt>
      <trkpt lat="46.23724" lon="6.52654">
        <ele>1003.2</ele>
        <time>2021-04-03T14:21:43Z</time>
      </trkpt>
      <trkpt lat="46.2372" lon="6.52648">
        <ele>1003.4</ele>
        <time>2021-04-03T14:21:44Z</time>
      </trkpt>
      <trkpt lat="46.23715" lon="6.52642">
        <ele>1004</ele>
        <time>2021-04-03T14:21:45Z</time>
      </trkpt>
      <trkpt lat="46.23711" lon="6.52635">
        <ele>1004</ele>
        <time>2021-04-03T14:21:46Z</time>
      </trkpt>
      <trkpt lat="46.23708" lon="6.52628">
        <ele>1004.2</ele>
        <time>2021-04-03T14:21:47Z</time>
      </trkpt>
      <trkpt lat="46.23704" lon="6.52621">
        <ele>1004.4</ele>
        <time>2021-04-03T14:21:48Z</time>
      </trkpt>
      <trkpt lat="46.23701" lon="6.52614">
        <ele>1004.6</ele>
        <time>2021-04-03T14:21:49Z</time>
      </trkpt>
      <trkpt lat="46.23697" lon="6.52607">
        <ele>1004.8</ele>
        <time>2021-04-03T14:21:50Z</time>
      </trkpt>
      <trkpt lat="46.23692" lon="6.52601">
        <ele>1005</ele>
        <time>2021-04-03T14:21:51Z</time>
      </trkpt>
      <trkpt lat="46.23688" lon="6.52595">
        <ele>1005</ele>
        <time>2021-04-03T14:21:52Z</time>
      </trkpt>
      <trkpt lat="46.23682" lon="6.5259">
        <ele>1005</ele>
        <time>2021-04-03T14:21:53Z</time>
      </trkpt>
      <trkpt lat="46.23677" lon="6.52587">
        <ele>1005</ele>
        <time>2021-04-03T14:21:54Z</time>
      </trkpt>
      <trkpt lat="46.2367" lon="6.52585">
        <ele>1005.4</ele>
        <time>2021-04-03T14:21:55Z</time>
      </trkpt>
      <trkpt lat="46.23664" lon="6.52583">
        <ele>1005.2</ele>
        <time>2021-04-03T14:21:56Z</time>
      </trkpt>
      <trkpt lat="46.23658" lon="6.52581">
        <ele>1005.2</ele>
        <time>2021-04-03T14:21:57Z</time>
      </trkpt>
      <trkpt lat="46.23652" lon="6.52579">
        <ele>1005.6</ele>
        <time>2021-04-03T14:21:58Z</time>
      </trkpt>
      <trkpt lat="46.23646" lon="6.52577">
        <ele>1005.6</ele>
        <time>2021-04-03T14:21:59Z</time>
      </trkpt>
      <trkpt lat="46.23641" lon="6.52574">
        <ele>1005.8</ele>
        <time>2021-04-03T14:22:00Z</time>
      </trkpt>
      <trkpt lat="46.23635" lon="6.52572">
        <ele>1005.8</ele>
        <time>2021-04-03T14:22:01Z</time>
      </trkpt>
      <trkpt lat="46.2363" lon="6.52568">
        <ele>1006</ele>
        <time>2021-04-03T14:22:02Z</time>
      </trkpt>
      <trkpt lat="46.23625" lon="6.52565">
        <ele>1006.2</ele>
        <time>2021-04-03T14:22:03Z</time>
      </trkpt>
      <trkpt lat="46.2362" lon="6.5256">
        <ele>1006.4</ele>
        <time>2021-04-03T14:22:04Z</time>
      </trkpt>
      <trkpt lat="46.23616" lon="6.52555">
        <ele>1006.6</ele>
        <time>2021-04-03T14:22:05Z</time>
      </trkpt>
      <trkpt lat="46.23612" lon="6.5255">
        <ele>1007</ele>
        <time>2021-04-03T14:22:06Z</time>
      </trkpt>
      <trkpt lat="46.23608" lon="6.52544">
        <ele>1007</ele>
        <time>2021-04-03T14:22:07Z</time>
      </trkpt>
      <trkpt lat="46.23605" lon="6.52538">
        <ele>1007.2</ele>
        <time>2021-04-03T14:22:08Z</time>
      </trkpt>
      <trkpt lat="46.23601" lon="6.52531">
        <ele>1007.6</ele>
        <time>2021-04-03T14:22:09Z</time>
      </trkpt>
      <trkpt lat="46.23598" lon="6.52525">
        <ele>1007.6</ele>
        <time>2021-04-03T14:22:10Z</time>
      </trkpt>
      <trkpt lat="46.23595" lon="6.52518">
        <ele>1007.8</ele>
        <time>2021-04-03T14:22:11Z</time>
      </trkpt>
      <trkpt lat="46.23593" lon="6.52511">
        <ele>1008</ele>
        <time>2021-04-03T14:22:12Z</time>
      </trkpt>
      <trkpt lat="46.2359" lon="6.52504">
        <ele>1008</ele>
        <time>2021-04-03T14:22:13Z</time>
      </trkpt>
      <trkpt lat="46.23587" lon="6.52497">
        <ele>1008.2</ele>
        <time>2021-04-03T14:22:14Z</time>
      </trkpt>
      <trkpt lat="46.23584" lon="6.5249">
        <ele>1008.6</ele>
        <time>2021-04-03T14:22:15Z</time>
      </trkpt>
      <trkpt lat="46.23581" lon="6.52483">
        <ele>1008.6</ele>
        <time>2021-04-03T14:22:16Z</time>
      </trkpt>
      <trkpt lat="46.23579" lon="6.52476">
        <ele>1009</ele>
        <time>2021-04-03T14:22:17Z</time>
      </trkpt>
      <trkpt lat="46.23576" lon="6.5247">
        <ele>1009</ele>
        <time>2021-04-03T14:22:18Z</time>
      </trkpt>
      <trkpt lat="46.23573" lon="6.52463">
        <ele>1009.4</ele>
        <time>2021-04-03T14:22:19Z</time>
      </trkpt>
      <trkpt lat="46.23571" lon="6.52456">
        <ele>1009.8</ele>
        <time>2021-04-03T14:22:20Z</time>
      </trkpt>
      <trkpt lat="46.23568" lon="6.52449">
        <ele>1010</ele>
        <time>2021-04-03T14:22:21Z</time>
      </trkpt>
      <trkpt lat="46.23565" lon="6.52443">
        <ele>1010.2</ele>
        <time>2021-04-03T14:22:22Z</time>
      </trkpt>
      <trkpt lat="46.23562" lon="6.52436">
        <ele>1010.2</ele>
        <time>2021-04-03T14:22:23Z</time>
      </trkpt>
      <trkpt lat="46.2356" lon="6.5243">
        <ele>1010.2</ele>
        <time>2021-04-03T14:22:24Z</time>
      </trkpt>
      <trkpt lat="46.23557" lon="6.52423">
        <ele>1010.4</ele>
        <time>2021-04-03T14:22:25Z</time>
      </trkpt>
      <trkpt lat="46.23554" lon="6.52417">
        <ele>1010.6</ele>
        <time>2021-04-03T14:22:26Z</time>
      </trkpt>
      <trkpt lat="46.23551" lon="6.52411">
        <ele>1010.8</ele>
        <time>2021-04-03T14:22:27Z</time>
      </trkpt>
      <trkpt lat="46.23549" lon="6.52405">
        <ele>1011.2</ele>
        <time>2021-04-03T14:22:28Z</time>
      </trkpt>
      <trkpt lat="46.23546" lon="6.52399">
        <ele>1011.2</ele>
        <time>2021-04-03T14:22:29Z</time>
      </trkpt>
      <trkpt lat="46.23543" lon="6.52393">
        <ele>1011.2</ele>
        <time>2021-04-03T14:22:30Z</time>
      </trkpt>
      <trkpt lat="46.23541" lon="6.52388">
        <ele>1011.2</ele>
        <time>2021-04-03T14:22:31Z</time>
      </trkpt>
      <trkpt lat="46.23538" lon="6.52382">
        <ele>1011.4</ele>
        <time>2021-04-03T14:22:32Z</time>
      </trkpt>
      <trkpt lat="46.23536" lon="6.52375">
        <ele>1011.6</ele>
        <time>2021-04-03T14:22:33Z</time>
      </trkpt>
      <trkpt lat="46.23533" lon="6.52369">
        <ele>1011.8</ele>
        <time>2021-04-03T14:22:34Z</time>
      </trkpt>
      <trkpt lat="46.23531" lon="6.52363">
        <ele>1012</ele>
        <time>2021-04-03T14:22:35Z</time>
      </trkpt>
      <trkpt lat="46.23528" lon="6.52357">
        <ele>1012.2</ele>
        <time>2021-04-03T14:22:36Z</time>
      </trkpt>
      <trkpt lat="46.23526" lon="6.52351">
        <ele>1012.4</ele>
        <time>2021-04-03T14:22:37Z</time>
      </trkpt>
      <trkpt lat="46.23524" lon="6.52345">
        <ele>1012.8</ele>
        <time>2021-04-03T14:22:38Z</time>
      </trkpt>
      <trkpt lat="46.23521" lon="6.52339">
        <ele>1013.2</ele>
        <time>2021-04-03T14:22:39Z</time>
      </trkpt>
      <trkpt lat="46.23519" lon="6.52333">
        <ele>1013.4</ele>
        <time>2021-04-03T14:22:40Z</time>
      </trkpt>
      <trkpt lat="46.23516" lon="6.52327">
        <ele>1013.8</ele>
        <time>2021-04-03T14:22:41Z</time>
      </trkpt>
      <trkpt lat="46.23514" lon="6.52321">
        <ele>1014</ele>
        <time>2021-04-03T14:22:42Z</time>
      </trkpt>
      <trkpt lat="46.23512" lon="6.52315">
        <ele>1014.4</ele>
        <time>2021-04-03T14:22:43Z</time>
      </trkpt>
      <trkpt lat="46.23509" lon="6.52309">
        <ele>1014.4</ele>
        <time>2021-04-03T14:22:44Z</time>
      </trkpt>
      <trkpt lat="46.23507" lon="6.52303">
        <ele>1014.6</ele>
        <time>2021-04-03T14:22:45Z</time>
      </trkpt>
      <trkpt lat="46.23506" lon="6.52296">
        <ele>1014.6</ele>
        <time>2021-04-03T14:22:46Z</time>
      </trkpt>
      <trkpt lat="46.23504" lon="6.52289">
        <ele>1014.6</ele>
        <time>2021-04-03T14:22:47Z</time>
      </trkpt>
      <trkpt lat="46.23503" lon="6.52282">
        <ele>1014.8</ele>
        <time>2021-04-03T14:22:48Z</time>
      </trkpt>
      <trkpt lat="46.23502" lon="6.52274">
        <ele>1014.8</ele>
        <time>2021-04-03T14:22:49Z</time>
      </trkpt>
      <trkpt lat="46.23502" lon="6.52266">
        <ele>1015</ele>
        <time>2021-04-03T14:22:50Z</time>
      </trkpt>
      <trkpt lat="46.23502" lon="6.52257">
        <ele>1015.2</ele>
        <time>2021-04-03T14:22:51Z</time>
      </trkpt>
      <trkpt lat="46.23502" lon="6.52249">
        <ele>1015.4</ele>
        <time>2021-04-03T14:22:52Z</time>
      </trkpt>
      <trkpt lat="46.23502" lon="6.5224">
        <ele>1015.6</ele>
        <time>2021-04-03T14:22:53Z</time>
      </trkpt>
      <trkpt lat="46.23502" lon="6.52231">
        <ele>1015.8</ele>
        <time>2021-04-03T14:22:54Z</time>
      </trkpt>
      <trkpt lat="46.23502" lon="6.52222">
        <ele>1016</ele>
        <time>2021-04-03T14:22:55Z</time>
      </trkpt>
      <trkpt lat="46.23503" lon="6.52212">
        <ele>1015.8</ele>
        <time>2021-04-03T14:22:56Z</time>
      </trkpt>
      <trkpt lat="46.23503" lon="6.52203">
        <ele>1015.8</ele>
        <time>2021-04-03T14:22:57Z</time>
      </trkpt>
      <trkpt lat="46.23504" lon="6.52193">
        <ele>1015.8</ele>
        <time>2021-04-03T14:22:58Z</time>
      </trkpt>
      <trkpt lat="46.23504" lon="6.52182">
        <ele>1016</ele>
        <time>2021-04-03T14:22:59Z</time>
      </trkpt>
      <trkpt lat="46.23505" lon="6.52172">
        <ele>1016</ele>
        <time>2021-04-03T14:23:00Z</time>
      </trkpt>
      <trkpt lat="46.23506" lon="6.52161">
        <ele>1016</ele>
        <time>2021-04-03T14:23:01Z</time>
      </trkpt>
      <trkpt lat="46.23506" lon="6.5215">
        <ele>1016</ele>
        <time>2021-04-03T14:23:02Z</time>
      </trkpt>
      <trkpt lat="46.23507" lon="6.52139">
        <ele>1016</ele>
        <time>2021-04-03T14:23:03Z</time>
      </trkpt>
      <trkpt lat="46.23507" lon="6.52128">
        <ele>1016</ele>
        <time>2021-04-03T14:23:04Z</time>
      </trkpt>
      <trkpt lat="46.23508" lon="6.52116">
        <ele>1016.2</ele>
        <time>2021-04-03T14:23:05Z</time>
      </trkpt>
      <trkpt lat="46.23508" lon="6.52105">
        <ele>1016.2</ele>
        <time>2021-04-03T14:23:06Z</time>
      </trkpt>
      <trkpt lat="46.23509" lon="6.52093">
        <ele>1016.4</ele>
        <time>2021-04-03T14:23:07Z</time>
      </trkpt>
      <trkpt lat="46.23509" lon="6.52082">
        <ele>1016.4</ele>
        <time>2021-04-03T14:23:08Z</time>
      </trkpt>
      <trkpt lat="46.2351" lon="6.52071">
        <ele>1016.6</ele>
        <time>2021-04-03T14:23:09Z</time>
      </trkpt>
      <trkpt lat="46.2351" lon="6.5206">
        <ele>1016.8</ele>
        <time>2021-04-03T14:23:10Z</time>
      </trkpt>
      <trkpt lat="46.23511" lon="6.52048">
        <ele>1016.8</ele>
        <time>2021-04-03T14:23:11Z</time>
      </trkpt>
      <trkpt lat="46.23511" lon="6.52038">
        <ele>1016.8</ele>
        <time>2021-04-03T14:23:12Z</time>
      </trkpt>
      <trkpt lat="46.23512" lon="6.52027">
        <ele>1017</ele>
        <time>2021-04-03T14:23:13Z</time>
      </trkpt>
      <trkpt lat="46.23513" lon="6.52018">
        <ele>1016.8</ele>
        <time>2021-04-03T14:23:14Z</time>
      </trkpt>
      <trkpt lat="46.23514" lon="6.52011">
        <ele>1016.8</ele>
        <time>2021-04-03T14:23:15Z</time>
      </trkpt>
      <trkpt lat="46.23515" lon="6.52004">
        <ele>1016.8</ele>
        <time>2021-04-03T14:23:16Z</time>
      </trkpt>
      <trkpt lat="46.23516" lon="6.51999">
        <ele>1016.8</ele>
        <time>2021-04-03T14:23:17Z</time>
      </trkpt>
      <trkpt lat="46.23516" lon="6.51995">
        <ele>1016.8</ele>
        <time>2021-04-03T14:23:18Z</time>
      </trkpt>
      <trkpt lat="46.23516" lon="6.51993">
        <ele>1017</ele>
        <time>2021-04-03T14:23:19Z</time>
      </trkpt>
      <trkpt lat="46.23515" lon="6.51992">
        <ele>1016.8</ele>
        <time>2021-04-03T14:23:20Z</time>
      </trkpt>
      <trkpt lat="46.23515" lon="6.51992">
        <ele>1016.8</ele>
        <time>2021-04-03T14:23:21Z</time>
      </trkpt>
      <trkpt lat="46.23515" lon="6.51992">
        <ele>1016.8</ele>
        <time>2021-04-03T14:23:22Z</time>
      </trkpt>
      <trkpt lat="46.23515" lon="6.51992">
        <ele>1016.8</ele>
        <time>2021-04-03T14:23:23Z</time>
      </trkpt>
      <trkpt lat="46.23515" lon="6.51992">
        <ele>1016.6</ele>
        <time>2021-04-03T14:23:24Z</time>
      </trkpt>
      <trkpt lat="46.23515" lon="6.51992">
        <ele>1016.8</ele>
        <time>2021-04-03T14:23:25Z</time>
      </trkpt>
      <trkpt lat="46.23515" lon="6.51992">
        <ele>1016.6</ele>
        <time>2021-04-03T14:23:26Z</time>
      </trkpt>
      <trkpt lat="46.23515" lon="6.51992">
        <ele>1016.6</ele>
        <time>2021-04-03T14:23:27Z</time>
      </trkpt>
      <trkpt lat="46.23515" lon="6.51992">
        <ele>1016.6</ele>
        <time>2021-04-03T14:23:28Z</time>
      </trkpt>
      <trkpt lat="46.23515" lon="6.51992">
        <ele>1016.8</ele>
        <time>2021-04-03T14:23:29Z</time>
      </trkpt>
      <trkpt lat="46.23515" lon="6.51992">
        <ele>1016.8</ele>
        <time>2021-04-03T14:23:30Z</time>
      </trkpt>
      <trkpt lat="46.23515" lon="6.51992">
        <ele>1016.8</ele>
        <time>2021-04-03T14:23:31Z</time>
      </trkpt>
      <trkpt lat="46.23515" lon="6.51992">
        <ele>1016.8</ele>
        <time>2021-04-03T14:23:32Z</time>
      </trkpt>
      <trkpt lat="46.23515" lon="6.51992">
        <ele>1016.6</ele>
        <time>2021-04-03T14:23:33Z</time>
      </trkpt>
      <trkpt lat="46.23515" lon="6.51992">
        <ele>1016.8</ele>
        <time>2021-04-03T14:23:34Z</time>
      </trkpt>
      <trkpt lat="46.23515" lon="6.51992">
        <ele>1016.6</ele>
        <time>2021-04-03T14:23:37Z</time>
      </trkpt>
      <trkpt lat="46.23515" lon="6.51992">
        <ele>1016.6</ele>
        <time>2021-04-03T14:23:43Z</time>
      </trkpt>
      <trkpt lat="46.23515" lon="6.51992">
        <ele>1016.8</ele>
        <time>2021-04-03T14:23:44Z</time>
      </trkpt>
      <trkpt lat="46.23515" lon="6.51992">
        <ele>1016.8</ele>
        <time>2021-04-03T14:23:52Z</time>
      </trkpt>
      <trkpt lat="46.23515" lon="6.51992">
        <ele>1016.8</ele>
        <time>2021-04-03T14:23:54Z</time>
      </trkpt>
      <trkpt lat="46.23515" lon="6.51992">
        <ele>1017</ele>
        <time>2021-04-03T14:23:55Z</time>
      </trkpt>
      <trkpt lat="46.23515" lon="6.51992">
        <ele>1017</ele>
        <time>2021-04-03T14:24:03Z</time>
      </trkpt>
      <trkpt lat="46.23515" lon="6.51992">
        <ele>1017.2</ele>
        <time>2021-04-03T14:24:06Z</time>
      </trkpt>
      <trkpt lat="46.23515" lon="6.51992">
        <ele>1017.2</ele>
        <time>2021-04-03T14:24:11Z</time>
      </trkpt>
      <trkpt lat="46.23515" lon="6.51992">
        <ele>1017.2</ele>
        <time>2021-04-03T14:24:13Z</time>
      </trkpt>
      <trkpt lat="46.23515" lon="6.51992">
        <ele>1017.2</ele>
        <time>2021-04-03T14:24:18Z</time>
      </trkpt>
      <trkpt lat="46.23515" lon="6.51992">
        <ele>1016.6</ele>
        <time>2021-04-03T14:24:22Z</time>
      </trkpt>
      <trkpt lat="46.23515" lon="6.51992">
        <ele>1016.6</ele>
        <time>2021-04-03T14:24:24Z</time>
      </trkpt>
      <trkpt lat="46.23515" lon="6.51992">
        <ele>1016</ele>
        <time>2021-04-03T14:24:31Z</time>
      </trkpt>
      <trkpt lat="46.23515" lon="6.51992">
        <ele>1016</ele>
        <time>2021-04-03T14:24:32Z</time>
      </trkpt>
      <trkpt lat="46.23515" lon="6.51992">
        <ele>1015.8</ele>
        <time>2021-04-03T14:24:39Z</time>
      </trkpt>
      <trkpt lat="46.23515" lon="6.51992">
        <ele>1015.8</ele>
        <time>2021-04-03T14:24:41Z</time>
      </trkpt>
      <trkpt lat="46.23515" lon="6.51992">
        <ele>1015.8</ele>
        <time>2021-04-03T14:24:42Z</time>
      </trkpt>
      <trkpt lat="46.23515" lon="6.51991">
        <ele>1015.8</ele>
        <time>2021-04-03T14:24:48Z</time>
      </trkpt>
      <trkpt lat="46.23515" lon="6.51991">
        <ele>1016</ele>
        <time>2021-04-03T14:24:51Z</time>
      </trkpt>
      <trkpt lat="46.23515" lon="6.51991">
        <ele>1015.8</ele>
        <time>2021-04-03T14:24:59Z</time>
      </trkpt>
      <trkpt lat="46.23515" lon="6.51991">
        <ele>1016</ele>
        <time>2021-04-03T14:25:07Z</time>
      </trkpt>
      <trkpt lat="46.23515" lon="6.51991">
        <ele>1015.8</ele>
        <time>2021-04-03T14:25:10Z</time>
      </trkpt>
      <trkpt lat="46.23516" lon="6.51991">
        <ele>1015.8</ele>
        <time>2021-04-03T14:25:12Z</time>
      </trkpt>
      <trkpt lat="46.23516" lon="6.51991">
        <ele>1016</ele>
        <time>2021-04-03T14:25:19Z</time>
      </trkpt>
      <trkpt lat="46.23516" lon="6.51991">
        <ele>1015.8</ele>
        <time>2021-04-03T14:25:20Z</time>
      </trkpt>
      <trkpt lat="46.23516" lon="6.51991">
        <ele>1016.4</ele>
        <time>2021-04-03T14:25:25Z</time>
      </trkpt>
      <trkpt lat="46.23516" lon="6.51991">
        <ele>1016.4</ele>
        <time>2021-04-03T14:25:29Z</time>
      </trkpt>
      <trkpt lat="46.23516" lon="6.51991">
        <ele>1016.4</ele>
        <time>2021-04-03T14:25:33Z</time>
      </trkpt>
      <trkpt lat="46.23516" lon="6.51991">
        <ele>1016.4</ele>
        <time>2021-04-03T14:25:38Z</time>
      </trkpt>
      <trkpt lat="46.23516" lon="6.51991">
        <ele>1016.6</ele>
        <time>2021-04-03T14:25:39Z</time>
      </trkpt>
      <trkpt lat="46.23516" lon="6.51991">
        <ele>1016</ele>
        <time>2021-04-03T14:25:47Z</time>
      </trkpt>
      <trkpt lat="46.23516" lon="6.51991">
        <ele>1016.2</ele>
        <time>2021-04-03T14:25:51Z</time>
      </trkpt>
      <trkpt lat="46.23516" lon="6.51991">
        <ele>1016.2</ele>
        <time>2021-04-03T14:25:53Z</time>
      </trkpt>
      <trkpt lat="46.23515" lon="6.51991">
        <ele>1016</ele>
        <time>2021-04-03T14:25:54Z</time>
      </trkpt>
      <trkpt lat="46.23515" lon="6.51991">
        <ele>1016</ele>
        <time>2021-04-03T14:25:55Z</time>
      </trkpt>
      <trkpt lat="46.23515" lon="6.51991">
        <ele>1016</ele>
        <time>2021-04-03T14:25:56Z</time>
      </trkpt>
      <trkpt lat="46.23515" lon="6.51991">
        <ele>1016</ele>
        <time>2021-04-03T14:25:57Z</time>
      </trkpt>
      <trkpt lat="46.23515" lon="6.51992">
        <ele>1016</ele>
        <time>2021-04-03T14:25:58Z</time>
      </trkpt>
      <trkpt lat="46.23515" lon="6.51991">
        <ele>1016</ele>
        <time>2021-04-03T14:26:00Z</time>
      </trkpt>
      <trkpt lat="46.23515" lon="6.51991">
        <ele>1016.4</ele>
        <time>2021-04-03T14:26:05Z</time>
      </trkpt>
      <trkpt lat="46.23515" lon="6.51991">
        <ele>1016.4</ele>
        <time>2021-04-03T14:26:07Z</time>
      </trkpt>
      <trkpt lat="46.23515" lon="6.51991">
        <ele>1016.2</ele>
        <time>2021-04-03T14:26:08Z</time>
      </trkpt>
      <trkpt lat="46.23515" lon="6.51991">
        <ele>1016.2</ele>
        <time>2021-04-03T14:26:09Z</time>
      </trkpt>
      <trkpt lat="46.23515" lon="6.51991">
        <ele>1016.4</ele>
        <time>2021-04-03T14:26:10Z</time>
      </trkpt>
      <trkpt lat="46.23515" lon="6.51991">
        <ele>1016.2</ele>
        <time>2021-04-03T14:26:12Z</time>
      </trkpt>
      <trkpt lat="46.23515" lon="6.51991">
        <ele>1016.2</ele>
        <time>2021-04-03T14:26:16Z</time>
      </trkpt>
      <trkpt lat="46.23515" lon="6.51991">
        <ele>1016.2</ele>
        <time>2021-04-03T14:26:20Z</time>
      </trkpt>
      <trkpt lat="46.23515" lon="6.51991">
        <ele>1016.2</ele>
        <time>2021-04-03T14:26:28Z</time>
      </trkpt>
      <trkpt lat="46.23515" lon="6.51991">
        <ele>1016.4</ele>
        <time>2021-04-03T14:26:30Z</time>
      </trkpt>
      <trkpt lat="46.23515" lon="6.51991">
        <ele>1016.2</ele>
        <time>2021-04-03T14:26:34Z</time>
      </trkpt>
      <trkpt lat="46.23515" lon="6.51991">
        <ele>1016.4</ele>
        <time>2021-04-03T14:26:37Z</time>
      </trkpt>
      <trkpt lat="46.23515" lon="6.51991">
        <ele>1016.2</ele>
        <time>2021-04-03T14:26:38Z</time>
      </trkpt>
      <trkpt lat="46.23515" lon="6.51991">
        <ele>1016.4</ele>
        <time>2021-04-03T14:26:39Z</time>
      </trkpt>
      <trkpt lat="46.23515" lon="6.51991">
        <ele>1016.6</ele>
        <time>2021-04-03T14:26:40Z</time>
      </trkpt>
      <trkpt lat="46.23515" lon="6.51991">
        <ele>1016.6</ele>
        <time>2021-04-03T14:26:48Z</time>
      </trkpt>
      <trkpt lat="46.23515" lon="6.51991">
        <ele>1016.6</ele>
        <time>2021-04-03T14:26:56Z</time>
      </trkpt>
      <trkpt lat="46.23516" lon="6.51991">
        <ele>1016.8</ele>
        <time>2021-04-03T14:27:02Z</time>
      </trkpt>
      <trkpt lat="46.23516" lon="6.51991">
        <ele>1016.8</ele>
        <time>2021-04-03T14:27:05Z</time>
      </trkpt>
      <trkpt lat="46.23516" lon="6.51991">
        <ele>1016.8</ele>
        <time>2021-04-03T14:27:06Z</time>
      </trkpt>
      <trkpt lat="46.23516" lon="6.51991">
        <ele>1016.8</ele>
        <time>2021-04-03T14:27:07Z</time>
      </trkpt>
      <trkpt lat="46.23516" lon="6.51991">
        <ele>1016.8</ele>
        <time>2021-04-03T14:27:09Z</time>
      </trkpt>
      <trkpt lat="46.23516" lon="6.51991">
        <ele>1016.6</ele>
        <time>2021-04-03T14:27:14Z</time>
      </trkpt>
      <trkpt lat="46.23515" lon="6.51991">
        <ele>1016.6</ele>
        <time>2021-04-03T14:27:16Z</time>
      </trkpt>
      <trkpt lat="46.23515" lon="6.51991">
        <ele>1016.8</ele>
        <time>2021-04-03T14:27:17Z</time>
      </trkpt>
      <trkpt lat="46.23515" lon="6.51991">
        <ele>1016.8</ele>
        <time>2021-04-03T14:27:24Z</time>
      </trkpt>
      <trkpt lat="46.23516" lon="6.51991">
        <ele>1016.8</ele>
        <time>2021-04-03T14:27:25Z</time>
      </trkpt>
      <trkpt lat="46.23515" lon="6.51991">
        <ele>1016.6</ele>
        <time>2021-04-03T14:27:26Z</time>
      </trkpt>
      <trkpt lat="46.23515" lon="6.51991">
        <ele>1016.8</ele>
        <time>2021-04-03T14:27:32Z</time>
      </trkpt>
      <trkpt lat="46.23515" lon="6.51991">
        <ele>1016.8</ele>
        <time>2021-04-03T14:27:35Z</time>
      </trkpt>
      <trkpt lat="46.23516" lon="6.51991">
        <ele>1016.8</ele>
        <time>2021-04-03T14:27:37Z</time>
      </trkpt>
      <trkpt lat="46.23516" lon="6.51991">
        <ele>1016.8</ele>
        <time>2021-04-03T14:27:39Z</time>
      </trkpt>
      <trkpt lat="46.23516" lon="6.51991">
        <ele>1016.8</ele>
        <time>2021-04-03T14:27:41Z</time>
      </trkpt>
      <trkpt lat="46.23516" lon="6.51991">
        <ele>1017</ele>
        <time>2021-04-03T14:27:43Z</time>
      </trkpt>
      <trkpt lat="46.23516" lon="6.51991">
        <ele>1017</ele>
        <time>2021-04-03T14:27:45Z</time>
      </trkpt>
      <trkpt lat="46.23516" lon="6.51991">
        <ele>1017</ele>
        <time>2021-04-03T14:27:50Z</time>
      </trkpt>
      <trkpt lat="46.23516" lon="6.51991">
        <ele>1017</ele>
        <time>2021-04-03T14:27:54Z</time>
      </trkpt>
      <trkpt lat="46.23516" lon="6.51992">
        <ele>1017.2</ele>
        <time>2021-04-03T14:28:00Z</time>
      </trkpt>
      <trkpt lat="46.23516" lon="6.51992">
        <ele>1017.2</ele>
        <time>2021-04-03T14:28:01Z</time>
      </trkpt>
      <trkpt lat="46.23515" lon="6.51992">
        <ele>1017.2</ele>
        <time>2021-04-03T14:28:02Z</time>
      </trkpt>
      <trkpt lat="46.23515" lon="6.51992">
        <ele>1017.2</ele>
        <time>2021-04-03T14:28:03Z</time>
      </trkpt>
      <trkpt lat="46.23515" lon="6.51992">
        <ele>1017.2</ele>
        <time>2021-04-03T14:28:04Z</time>
      </trkpt>
      <trkpt lat="46.23515" lon="6.51992">
        <ele>1017.2</ele>
        <time>2021-04-03T14:28:05Z</time>
      </trkpt>
      <trkpt lat="46.23514" lon="6.51992">
        <ele>1017</ele>
        <time>2021-04-03T14:28:06Z</time>
      </trkpt>
      <trkpt lat="46.23514" lon="6.51992">
        <ele>1017.2</ele>
        <time>2021-04-03T14:28:07Z</time>
      </trkpt>
      <trkpt lat="46.23514" lon="6.51993">
        <ele>1017.2</ele>
        <time>2021-04-03T14:28:08Z</time>
      </trkpt>
      <trkpt lat="46.23513" lon="6.51992">
        <ele>1017.2</ele>
        <time>2021-04-03T14:28:09Z</time>
      </trkpt>
      <trkpt lat="46.23512" lon="6.51991">
        <ele>1017.2</ele>
        <time>2021-04-03T14:28:10Z</time>
      </trkpt>
      <trkpt lat="46.23511" lon="6.5199">
        <ele>1017.2</ele>
        <time>2021-04-03T14:28:11Z</time>
      </trkpt>
      <trkpt lat="46.23509" lon="6.51989">
        <ele>1017.2</ele>
        <time>2021-04-03T14:28:12Z</time>
      </trkpt>
      <trkpt lat="46.23506" lon="6.51987">
        <ele>1017.2</ele>
        <time>2021-04-03T14:28:13Z</time>
      </trkpt>
      <trkpt lat="46.23503" lon="6.51983">
        <ele>1017.2</ele>
        <time>2021-04-03T14:28:14Z</time>
      </trkpt>
      <trkpt lat="46.235" lon="6.51979">
        <ele>1017</ele>
        <time>2021-04-03T14:28:15Z</time>
      </trkpt>
      <trkpt lat="46.23496" lon="6.51975">
        <ele>1017.2</ele>
        <time>2021-04-03T14:28:16Z</time>
      </trkpt>
      <trkpt lat="46.23492" lon="6.51969">
        <ele>1017.2</ele>
        <time>2021-04-03T14:28:17Z</time>
      </trkpt>
      <trkpt lat="46.23487" lon="6.51964">
        <ele>1017.2</ele>
        <time>2021-04-03T14:28:18Z</time>
      </trkpt>
      <trkpt lat="46.23483" lon="6.51958">
        <ele>1017</ele>
        <time>2021-04-03T14:28:19Z</time>
      </trkpt>
      <trkpt lat="46.23478" lon="6.51951">
        <ele>1017</ele>
        <time>2021-04-03T14:28:20Z</time>
      </trkpt>
      <trkpt lat="46.23473" lon="6.51945">
        <ele>1017</ele>
        <time>2021-04-03T14:28:21Z</time>
      </trkpt>
      <trkpt lat="46.23468" lon="6.51938">
        <ele>1016.8</ele>
        <time>2021-04-03T14:28:22Z</time>
      </trkpt>
      <trkpt lat="46.23462" lon="6.51932">
        <ele>1016.8</ele>
        <time>2021-04-03T14:28:23Z</time>
      </trkpt>
      <trkpt lat="46.23456" lon="6.51925">
        <ele>1016.4</ele>
        <time>2021-04-03T14:28:24Z</time>
      </trkpt>
      <trkpt lat="46.23449" lon="6.51919">
        <ele>1016</ele>
        <time>2021-04-03T14:28:25Z</time>
      </trkpt>
      <trkpt lat="46.23443" lon="6.51912">
        <ele>1015.4</ele>
        <time>2021-04-03T14:28:26Z</time>
      </trkpt>
      <trkpt lat="46.23436" lon="6.51906">
        <ele>1015.2</ele>
        <time>2021-04-03T14:28:27Z</time>
      </trkpt>
      <trkpt lat="46.23428" lon="6.519">
        <ele>1014.4</ele>
        <time>2021-04-03T14:28:28Z</time>
      </trkpt>
      <trkpt lat="46.2342" lon="6.51894">
        <ele>1013.8</ele>
        <time>2021-04-03T14:28:29Z</time>
      </trkpt>
      <trkpt lat="46.23412" lon="6.51887">
        <ele>1013</ele>
        <time>2021-04-03T14:28:30Z</time>
      </trkpt>
      <trkpt lat="46.23404" lon="6.5188">
        <ele>1012.2</ele>
        <time>2021-04-03T14:28:31Z</time>
      </trkpt>
      <trkpt lat="46.23396" lon="6.51873">
        <ele>1012</ele>
        <time>2021-04-03T14:28:32Z</time>
      </trkpt>
      <trkpt lat="46.23388" lon="6.51865">
        <ele>1011.6</ele>
        <time>2021-04-03T14:28:33Z</time>
      </trkpt>
      <trkpt lat="46.2338" lon="6.51857">
        <ele>1011.2</ele>
        <time>2021-04-03T14:28:34Z</time>
      </trkpt>
      <trkpt lat="46.23372" lon="6.51849">
        <ele>1010.8</ele>
        <time>2021-04-03T14:28:35Z</time>
      </trkpt>
      <trkpt lat="46.23363" lon="6.51841">
        <ele>1010</ele>
        <time>2021-04-03T14:28:36Z</time>
      </trkpt>
      <trkpt lat="46.23355" lon="6.51833">
        <ele>1009.4</ele>
        <time>2021-04-03T14:28:37Z</time>
      </trkpt>
      <trkpt lat="46.23346" lon="6.51826">
        <ele>1009</ele>
        <time>2021-04-03T14:28:38Z</time>
      </trkpt>
      <trkpt lat="46.23337" lon="6.51818">
        <ele>1008.8</ele>
        <time>2021-04-03T14:28:39Z</time>
      </trkpt>
      <trkpt lat="46.23328" lon="6.5181">
        <ele>1008.4</ele>
        <time>2021-04-03T14:28:40Z</time>
      </trkpt>
      <trkpt lat="46.23319" lon="6.51802">
        <ele>1007.6</ele>
        <time>2021-04-03T14:28:41Z</time>
      </trkpt>
      <trkpt lat="46.2331" lon="6.51794">
        <ele>1006.6</ele>
        <time>2021-04-03T14:28:42Z</time>
      </trkpt>
      <trkpt lat="46.233" lon="6.51787">
        <ele>1005.4</ele>
        <time>2021-04-03T14:28:43Z</time>
      </trkpt>
      <trkpt lat="46.23289" lon="6.5178">
        <ele>1004.6</ele>
        <time>2021-04-03T14:28:44Z</time>
      </trkpt>
      <trkpt lat="46.23279" lon="6.51774">
        <ele>1004</ele>
        <time>2021-04-03T14:28:45Z</time>
      </trkpt>
      <trkpt lat="46.23268" lon="6.51768">
        <ele>1003.4</ele>
        <time>2021-04-03T14:28:46Z</time>
      </trkpt>
      <trkpt lat="46.23258" lon="6.51761">
        <ele>1003.2</ele>
        <time>2021-04-03T14:28:47Z</time>
      </trkpt>
      <trkpt lat="46.23247" lon="6.51754">
        <ele>1003</ele>
        <time>2021-04-03T14:28:48Z</time>
      </trkpt>
      <trkpt lat="46.23237" lon="6.51746">
        <ele>1002.8</ele>
        <time>2021-04-03T14:28:49Z</time>
      </trkpt>
      <trkpt lat="46.23226" lon="6.51738">
        <ele>1002.4</ele>
        <time>2021-04-03T14:28:50Z</time>
      </trkpt>
      <trkpt lat="46.23216" lon="6.51731">
        <ele>1002</ele>
        <time>2021-04-03T14:28:51Z</time>
      </trkpt>
      <trkpt lat="46.23205" lon="6.51724">
        <ele>1001.8</ele>
        <time>2021-04-03T14:28:52Z</time>
      </trkpt>
      <trkpt lat="46.23194" lon="6.51716">
        <ele>1001</ele>
        <time>2021-04-03T14:28:53Z</time>
      </trkpt>
      <trkpt lat="46.23184" lon="6.51708">
        <ele>999.6</ele>
        <time>2021-04-03T14:28:54Z</time>
      </trkpt>
      <trkpt lat="46.23173" lon="6.517">
        <ele>998.6</ele>
        <time>2021-04-03T14:28:55Z</time>
      </trkpt>
      <trkpt lat="46.23162" lon="6.51693">
        <ele>998</ele>
        <time>2021-04-03T14:28:56Z</time>
      </trkpt>
      <trkpt lat="46.2315" lon="6.51686">
        <ele>997.2</ele>
        <time>2021-04-03T14:28:57Z</time>
      </trkpt>
      <trkpt lat="46.23139" lon="6.51679">
        <ele>996.4</ele>
        <time>2021-04-03T14:28:58Z</time>
      </trkpt>
      <trkpt lat="46.23127" lon="6.51673">
        <ele>995.8</ele>
        <time>2021-04-03T14:28:59Z</time>
      </trkpt>
      <trkpt lat="46.23116" lon="6.51665">
        <ele>994.8</ele>
        <time>2021-04-03T14:29:00Z</time>
      </trkpt>
      <trkpt lat="46.23105" lon="6.51656">
        <ele>994.2</ele>
        <time>2021-04-03T14:29:01Z</time>
      </trkpt>
      <trkpt lat="46.23095" lon="6.51646">
        <ele>993.8</ele>
        <time>2021-04-03T14:29:02Z</time>
      </trkpt>
      <trkpt lat="46.23084" lon="6.51635">
        <ele>993.6</ele>
        <time>2021-04-03T14:29:03Z</time>
      </trkpt>
      <trkpt lat="46.23073" lon="6.51625">
        <ele>992.4</ele>
        <time>2021-04-03T14:29:04Z</time>
      </trkpt>
      <trkpt lat="46.23061" lon="6.51617">
        <ele>991.6</ele>
        <time>2021-04-03T14:29:05Z</time>
      </trkpt>
      <trkpt lat="46.23049" lon="6.51609">
        <ele>991</ele>
        <time>2021-04-03T14:29:06Z</time>
      </trkpt>
      <trkpt lat="46.23037" lon="6.51601">
        <ele>990.4</ele>
        <time>2021-04-03T14:29:07Z</time>
      </trkpt>
      <trkpt lat="46.23025" lon="6.51594">
        <ele>990</ele>
        <time>2021-04-03T14:29:08Z</time>
      </trkpt>
      <trkpt lat="46.23012" lon="6.51586">
        <ele>989.2</ele>
        <time>2021-04-03T14:29:09Z</time>
      </trkpt>
      <trkpt lat="46.23" lon="6.51579">
        <ele>988.4</ele>
        <time>2021-04-03T14:29:10Z</time>
      </trkpt>
      <trkpt lat="46.22987" lon="6.51572">
        <ele>987.4</ele>
        <time>2021-04-03T14:29:11Z</time>
      </trkpt>
      <trkpt lat="46.22975" lon="6.51565">
        <ele>986.6</ele>
        <time>2021-04-03T14:29:12Z</time>
      </trkpt>
      <trkpt lat="46.22962" lon="6.51558">
        <ele>986</ele>
        <time>2021-04-03T14:29:13Z</time>
      </trkpt>
      <trkpt lat="46.2295" lon="6.51551">
        <ele>985.4</ele>
        <time>2021-04-03T14:29:14Z</time>
      </trkpt>
      <trkpt lat="46.22937" lon="6.51545">
        <ele>984.4</ele>
        <time>2021-04-03T14:29:15Z</time>
      </trkpt>
      <trkpt lat="46.22925" lon="6.51539">
        <ele>983.4</ele>
        <time>2021-04-03T14:29:16Z</time>
      </trkpt>
      <trkpt lat="46.22912" lon="6.51537">
        <ele>982.4</ele>
        <time>2021-04-03T14:29:17Z</time>
      </trkpt>
      <trkpt lat="46.22899" lon="6.51539">
        <ele>981.2</ele>
        <time>2021-04-03T14:29:18Z</time>
      </trkpt>
      <trkpt lat="46.22886" lon="6.51543">
        <ele>980.4</ele>
        <time>2021-04-03T14:29:19Z</time>
      </trkpt>
      <trkpt lat="46.22873" lon="6.51545">
        <ele>980</ele>
        <time>2021-04-03T14:29:20Z</time>
      </trkpt>
      <trkpt lat="46.2286" lon="6.51545">
        <ele>979.2</ele>
        <time>2021-04-03T14:29:21Z</time>
      </trkpt>
      <trkpt lat="46.22848" lon="6.51541">
        <ele>978.8</ele>
        <time>2021-04-03T14:29:22Z</time>
      </trkpt>
      <trkpt lat="46.22837" lon="6.51534">
        <ele>978</ele>
        <time>2021-04-03T14:29:23Z</time>
      </trkpt>
      <trkpt lat="46.22827" lon="6.51526">
        <ele>977.8</ele>
        <time>2021-04-03T14:29:24Z</time>
      </trkpt>
      <trkpt lat="46.22817" lon="6.51515">
        <ele>977.2</ele>
        <time>2021-04-03T14:29:25Z</time>
      </trkpt>
      <trkpt lat="46.22806" lon="6.51506">
        <ele>976.4</ele>
        <time>2021-04-03T14:29:26Z</time>
      </trkpt>
      <trkpt lat="46.22795" lon="6.515">
        <ele>975.4</ele>
        <time>2021-04-03T14:29:27Z</time>
      </trkpt>
      <trkpt lat="46.22783" lon="6.51497">
        <ele>974.4</ele>
        <time>2021-04-03T14:29:28Z</time>
      </trkpt>
      <trkpt lat="46.2277" lon="6.51494">
        <ele>974</ele>
        <time>2021-04-03T14:29:29Z</time>
      </trkpt>
      <trkpt lat="46.22759" lon="6.51489">
        <ele>973</ele>
        <time>2021-04-03T14:29:30Z</time>
      </trkpt>
      <trkpt lat="46.22748" lon="6.51482">
        <ele>972.2</ele>
        <time>2021-04-03T14:29:31Z</time>
      </trkpt>
      <trkpt lat="46.22737" lon="6.51475">
        <ele>971.6</ele>
        <time>2021-04-03T14:29:32Z</time>
      </trkpt>
      <trkpt lat="46.22726" lon="6.51469">
        <ele>971.6</ele>
        <time>2021-04-03T14:29:33Z</time>
      </trkpt>
      <trkpt lat="46.22715" lon="6.51463">
        <ele>971.2</ele>
        <time>2021-04-03T14:29:34Z</time>
      </trkpt>
      <trkpt lat="46.22703" lon="6.51457">
        <ele>970.6</ele>
        <time>2021-04-03T14:29:35Z</time>
      </trkpt>
      <trkpt lat="46.22691" lon="6.51452">
        <ele>970</ele>
        <time>2021-04-03T14:29:36Z</time>
      </trkpt>
      <trkpt lat="46.2268" lon="6.51446">
        <ele>968.8</ele>
        <time>2021-04-03T14:29:37Z</time>
      </trkpt>
      <trkpt lat="46.22669" lon="6.51439">
        <ele>967.4</ele>
        <time>2021-04-03T14:29:38Z</time>
      </trkpt>
      <trkpt lat="46.22659" lon="6.51431">
        <ele>966.4</ele>
        <time>2021-04-03T14:29:39Z</time>
      </trkpt>
      <trkpt lat="46.22648" lon="6.5142">
        <ele>966</ele>
        <time>2021-04-03T14:29:40Z</time>
      </trkpt>
      <trkpt lat="46.22637" lon="6.5141">
        <ele>965.2</ele>
        <time>2021-04-03T14:29:41Z</time>
      </trkpt>
      <trkpt lat="46.22626" lon="6.51401">
        <ele>964.6</ele>
        <time>2021-04-03T14:29:42Z</time>
      </trkpt>
      <trkpt lat="46.22615" lon="6.51392">
        <ele>964.2</ele>
        <time>2021-04-03T14:29:43Z</time>
      </trkpt>
      <trkpt lat="46.22603" lon="6.51385">
        <ele>964</ele>
        <time>2021-04-03T14:29:44Z</time>
      </trkpt>
      <trkpt lat="46.22591" lon="6.51379">
        <ele>963.8</ele>
        <time>2021-04-03T14:29:45Z</time>
      </trkpt>
      <trkpt lat="46.22579" lon="6.51372">
        <ele>963</ele>
        <time>2021-04-03T14:29:46Z</time>
      </trkpt>
      <trkpt lat="46.22567" lon="6.51366">
        <ele>962.2</ele>
        <time>2021-04-03T14:29:47Z</time>
      </trkpt>
      <trkpt lat="46.22555" lon="6.51361">
        <ele>961.2</ele>
        <time>2021-04-03T14:29:48Z</time>
      </trkpt>
      <trkpt lat="46.22543" lon="6.51356">
        <ele>960.8</ele>
        <time>2021-04-03T14:29:49Z</time>
      </trkpt>
      <trkpt lat="46.22532" lon="6.51349">
        <ele>960.4</ele>
        <time>2021-04-03T14:29:50Z</time>
      </trkpt>
      <trkpt lat="46.22521" lon="6.51343">
        <ele>959.8</ele>
        <time>2021-04-03T14:29:51Z</time>
      </trkpt>
      <trkpt lat="46.22511" lon="6.51337">
        <ele>959.2</ele>
        <time>2021-04-03T14:29:52Z</time>
      </trkpt>
      <trkpt lat="46.22501" lon="6.5133">
        <ele>958.4</ele>
        <time>2021-04-03T14:29:53Z</time>
      </trkpt>
      <trkpt lat="46.22492" lon="6.51322">
        <ele>957.8</ele>
        <time>2021-04-03T14:29:54Z</time>
      </trkpt>
      <trkpt lat="46.22483" lon="6.51314">
        <ele>956.8</ele>
        <time>2021-04-03T14:29:55Z</time>
      </trkpt>
      <trkpt lat="46.22475" lon="6.51303">
        <ele>956</ele>
        <time>2021-04-03T14:29:56Z</time>
      </trkpt>
      <trkpt lat="46.22467" lon="6.5129">
        <ele>954.6</ele>
        <time>2021-04-03T14:29:57Z</time>
      </trkpt>
      <trkpt lat="46.2246" lon="6.51277">
        <ele>953.6</ele>
        <time>2021-04-03T14:29:58Z</time>
      </trkpt>
      <trkpt lat="46.22451" lon="6.51264">
        <ele>952.6</ele>
        <time>2021-04-03T14:29:59Z</time>
      </trkpt>
      <trkpt lat="46.22443" lon="6.51251">
        <ele>952</ele>
        <time>2021-04-03T14:30:00Z</time>
      </trkpt>
      <trkpt lat="46.22433" lon="6.5124">
        <ele>951.2</ele>
        <time>2021-04-03T14:30:01Z</time>
      </trkpt>
      <trkpt lat="46.22422" lon="6.5123">
        <ele>950.6</ele>
        <time>2021-04-03T14:30:02Z</time>
      </trkpt>
      <trkpt lat="46.22412" lon="6.51218">
        <ele>950.2</ele>
        <time>2021-04-03T14:30:03Z</time>
      </trkpt>
      <trkpt lat="46.22401" lon="6.51208">
        <ele>949.4</ele>
        <time>2021-04-03T14:30:04Z</time>
      </trkpt>
      <trkpt lat="46.2239" lon="6.51198">
        <ele>948.8</ele>
        <time>2021-04-03T14:30:05Z</time>
      </trkpt>
      <trkpt lat="46.22379" lon="6.51189">
        <ele>948.4</ele>
        <time>2021-04-03T14:30:06Z</time>
      </trkpt>
      <trkpt lat="46.22368" lon="6.51181">
        <ele>948</ele>
        <time>2021-04-03T14:30:07Z</time>
      </trkpt>
      <trkpt lat="46.22356" lon="6.51174">
        <ele>947.8</ele>
        <time>2021-04-03T14:30:08Z</time>
      </trkpt>
      <trkpt lat="46.22344" lon="6.51169">
        <ele>947.6</ele>
        <time>2021-04-03T14:30:09Z</time>
      </trkpt>
      <trkpt lat="46.22331" lon="6.51162">
        <ele>947</ele>
        <time>2021-04-03T14:30:10Z</time>
      </trkpt>
      <trkpt lat="46.2232" lon="6.51153">
        <ele>946.4</ele>
        <time>2021-04-03T14:30:11Z</time>
      </trkpt>
      <trkpt lat="46.22308" lon="6.51143">
        <ele>945.4</ele>
        <time>2021-04-03T14:30:12Z</time>
      </trkpt>
      <trkpt lat="46.22297" lon="6.51133">
        <ele>944.6</ele>
        <time>2021-04-03T14:30:13Z</time>
      </trkpt>
      <trkpt lat="46.22286" lon="6.51123">
        <ele>944</ele>
        <time>2021-04-03T14:30:14Z</time>
      </trkpt>
      <trkpt lat="46.22275" lon="6.51114">
        <ele>943</ele>
        <time>2021-04-03T14:30:15Z</time>
      </trkpt>
      <trkpt lat="46.22263" lon="6.51105">
        <ele>942.4</ele>
        <time>2021-04-03T14:30:16Z</time>
      </trkpt>
      <trkpt lat="46.22253" lon="6.51096">
        <ele>941.8</ele>
        <time>2021-04-03T14:30:17Z</time>
      </trkpt>
      <trkpt lat="46.22243" lon="6.51087">
        <ele>941.2</ele>
        <time>2021-04-03T14:30:18Z</time>
      </trkpt>
      <trkpt lat="46.22233" lon="6.51078">
        <ele>940</ele>
        <time>2021-04-03T14:30:19Z</time>
      </trkpt>
      <trkpt lat="46.22223" lon="6.51071">
        <ele>938.8</ele>
        <time>2021-04-03T14:30:20Z</time>
      </trkpt>
      <trkpt lat="46.22213" lon="6.51064">
        <ele>937.8</ele>
        <time>2021-04-03T14:30:21Z</time>
      </trkpt>
      <trkpt lat="46.22204" lon="6.51057">
        <ele>936.4</ele>
        <time>2021-04-03T14:30:22Z</time>
      </trkpt>
      <trkpt lat="46.22194" lon="6.51049">
        <ele>935.6</ele>
        <time>2021-04-03T14:30:23Z</time>
      </trkpt>
      <trkpt lat="46.22185" lon="6.51042">
        <ele>935.4</ele>
        <time>2021-04-03T14:30:24Z</time>
      </trkpt>
      <trkpt lat="46.22176" lon="6.51035">
        <ele>934.2</ele>
        <time>2021-04-03T14:30:25Z</time>
      </trkpt>
      <trkpt lat="46.22166" lon="6.51027">
        <ele>933.8</ele>
        <time>2021-04-03T14:30:26Z</time>
      </trkpt>
      <trkpt lat="46.22156" lon="6.5102">
        <ele>933</ele>
        <time>2021-04-03T14:30:27Z</time>
      </trkpt>
      <trkpt lat="46.22146" lon="6.51013">
        <ele>932.6</ele>
        <time>2021-04-03T14:30:28Z</time>
      </trkpt>
      <trkpt lat="46.22137" lon="6.51004">
        <ele>932.2</ele>
        <time>2021-04-03T14:30:29Z</time>
      </trkpt>
      <trkpt lat="46.22127" lon="6.50995">
        <ele>931.8</ele>
        <time>2021-04-03T14:30:30Z</time>
      </trkpt>
      <trkpt lat="46.22118" lon="6.50986">
        <ele>931.4</ele>
        <time>2021-04-03T14:30:31Z</time>
      </trkpt>
      <trkpt lat="46.22108" lon="6.50976">
        <ele>931.4</ele>
        <time>2021-04-03T14:30:32Z</time>
      </trkpt>
      <trkpt lat="46.22098" lon="6.50967">
        <ele>930.8</ele>
        <time>2021-04-03T14:30:33Z</time>
      </trkpt>
      <trkpt lat="46.22088" lon="6.50959">
        <ele>930.2</ele>
        <time>2021-04-03T14:30:34Z</time>
      </trkpt>
      <trkpt lat="46.22077" lon="6.50952">
        <ele>929.8</ele>
        <time>2021-04-03T14:30:35Z</time>
      </trkpt>
      <trkpt lat="46.22067" lon="6.50944">
        <ele>929.2</ele>
        <time>2021-04-03T14:30:36Z</time>
      </trkpt>
      <trkpt lat="46.22056" lon="6.50937">
        <ele>928.4</ele>
        <time>2021-04-03T14:30:37Z</time>
      </trkpt>
      <trkpt lat="46.22046" lon="6.50929">
        <ele>928</ele>
        <time>2021-04-03T14:30:38Z</time>
      </trkpt>
      <trkpt lat="46.22035" lon="6.5092">
        <ele>927.2</ele>
        <time>2021-04-03T14:30:39Z</time>
      </trkpt>
      <trkpt lat="46.22025" lon="6.50912">
        <ele>926.2</ele>
        <time>2021-04-03T14:30:40Z</time>
      </trkpt>
      <trkpt lat="46.22015" lon="6.50904">
        <ele>925.8</ele>
        <time>2021-04-03T14:30:41Z</time>
      </trkpt>
      <trkpt lat="46.22004" lon="6.50895">
        <ele>925.2</ele>
        <time>2021-04-03T14:30:42Z</time>
      </trkpt>
      <trkpt lat="46.21994" lon="6.50886">
        <ele>924.2</ele>
        <time>2021-04-03T14:30:43Z</time>
      </trkpt>
      <trkpt lat="46.21983" lon="6.50877">
        <ele>923</ele>
        <time>2021-04-03T14:30:44Z</time>
      </trkpt>
      <trkpt lat="46.21972" lon="6.50868">
        <ele>922.4</ele>
        <time>2021-04-03T14:30:45Z</time>
      </trkpt>
      <trkpt lat="46.21961" lon="6.50859">
        <ele>922.4</ele>
        <time>2021-04-03T14:30:46Z</time>
      </trkpt>
      <trkpt lat="46.2195" lon="6.50849">
        <ele>922</ele>
        <time>2021-04-03T14:30:47Z</time>
      </trkpt>
      <trkpt lat="46.21938" lon="6.50838">
        <ele>921.6</ele>
        <time>2021-04-03T14:30:48Z</time>
      </trkpt>
      <trkpt lat="46.21928" lon="6.50828">
        <ele>920.8</ele>
        <time>2021-04-03T14:30:49Z</time>
      </trkpt>
      <trkpt lat="46.21917" lon="6.50816">
        <ele>919.8</ele>
        <time>2021-04-03T14:30:50Z</time>
      </trkpt>
      <trkpt lat="46.21907" lon="6.50806">
        <ele>919</ele>
        <time>2021-04-03T14:30:51Z</time>
      </trkpt>
      <trkpt lat="46.21897" lon="6.50795">
        <ele>918.2</ele>
        <time>2021-04-03T14:30:52Z</time>
      </trkpt>
      <trkpt lat="46.21886" lon="6.50784">
        <ele>917.6</ele>
        <time>2021-04-03T14:30:53Z</time>
      </trkpt>
      <trkpt lat="46.21876" lon="6.50774">
        <ele>917.2</ele>
        <time>2021-04-03T14:30:54Z</time>
      </trkpt>
      <trkpt lat="46.21866" lon="6.50763">
        <ele>916.6</ele>
        <time>2021-04-03T14:30:55Z</time>
      </trkpt>
      <trkpt lat="46.21856" lon="6.50753">
        <ele>916</ele>
        <time>2021-04-03T14:30:56Z</time>
      </trkpt>
      <trkpt lat="46.21846" lon="6.50743">
        <ele>915.2</ele>
        <time>2021-04-03T14:30:57Z</time>
      </trkpt>
      <trkpt lat="46.21837" lon="6.50733">
        <ele>915</ele>
        <time>2021-04-03T14:30:58Z</time>
      </trkpt>
      <trkpt lat="46.21828" lon="6.50723">
        <ele>914.2</ele>
        <time>2021-04-03T14:30:59Z</time>
      </trkpt>
      <trkpt lat="46.21818" lon="6.50712">
        <ele>912.8</ele>
        <time>2021-04-03T14:31:00Z</time>
      </trkpt>
      <trkpt lat="46.2181" lon="6.507">
        <ele>911.6</ele>
        <time>2021-04-03T14:31:01Z</time>
      </trkpt>
      <trkpt lat="46.21801" lon="6.50689">
        <ele>910.4</ele>
        <time>2021-04-03T14:31:02Z</time>
      </trkpt>
      <trkpt lat="46.21793" lon="6.50677">
        <ele>909.6</ele>
        <time>2021-04-03T14:31:03Z</time>
      </trkpt>
      <trkpt lat="46.21784" lon="6.50665">
        <ele>909.2</ele>
        <time>2021-04-03T14:31:04Z</time>
      </trkpt>
      <trkpt lat="46.21776" lon="6.50654">
        <ele>909</ele>
        <time>2021-04-03T14:31:05Z</time>
      </trkpt>
      <trkpt lat="46.21768" lon="6.50642">
        <ele>908</ele>
        <time>2021-04-03T14:31:06Z</time>
      </trkpt>
      <trkpt lat="46.21759" lon="6.50631">
        <ele>907</ele>
        <time>2021-04-03T14:31:07Z</time>
      </trkpt>
      <trkpt lat="46.2175" lon="6.5062">
        <ele>906.4</ele>
        <time>2021-04-03T14:31:08Z</time>
      </trkpt>
      <trkpt lat="46.21741" lon="6.50609">
        <ele>906</ele>
        <time>2021-04-03T14:31:09Z</time>
      </trkpt>
      <trkpt lat="46.21733" lon="6.50598">
        <ele>905.6</ele>
        <time>2021-04-03T14:31:10Z</time>
      </trkpt>
      <trkpt lat="46.21724" lon="6.50587">
        <ele>905.2</ele>
        <time>2021-04-03T14:31:11Z</time>
      </trkpt>
      <trkpt lat="46.21715" lon="6.50575">
        <ele>905</ele>
        <time>2021-04-03T14:31:12Z</time>
      </trkpt>
      <trkpt lat="46.21706" lon="6.50564">
        <ele>905</ele>
        <time>2021-04-03T14:31:13Z</time>
      </trkpt>
      <trkpt lat="46.21697" lon="6.50553">
        <ele>904.6</ele>
        <time>2021-04-03T14:31:14Z</time>
      </trkpt>
      <trkpt lat="46.21687" lon="6.50542">
        <ele>904.4</ele>
        <time>2021-04-03T14:31:15Z</time>
      </trkpt>
      <trkpt lat="46.21678" lon="6.50531">
        <ele>904.2</ele>
        <time>2021-04-03T14:31:16Z</time>
      </trkpt>
      <trkpt lat="46.21669" lon="6.50519">
        <ele>904.2</ele>
        <time>2021-04-03T14:31:17Z</time>
      </trkpt>
      <trkpt lat="46.2166" lon="6.50508">
        <ele>904</ele>
        <time>2021-04-03T14:31:18Z</time>
      </trkpt>
      <trkpt lat="46.2165" lon="6.50497">
        <ele>903.8</ele>
        <time>2021-04-03T14:31:19Z</time>
      </trkpt>
      <trkpt lat="46.21641" lon="6.50485">
        <ele>903.6</ele>
        <time>2021-04-03T14:31:20Z</time>
      </trkpt>
      <trkpt lat="46.21631" lon="6.50474">
        <ele>903.2</ele>
        <time>2021-04-03T14:31:21Z</time>
      </trkpt>
      <trkpt lat="46.21621" lon="6.50462">
        <ele>902.6</ele>
        <time>2021-04-03T14:31:22Z</time>
      </trkpt>
      <trkpt lat="46.21611" lon="6.5045">
        <ele>902.4</ele>
        <time>2021-04-03T14:31:23Z</time>
      </trkpt>
      <trkpt lat="46.21601" lon="6.50438">
        <ele>902.2</ele>
        <time>2021-04-03T14:31:24Z</time>
      </trkpt>
      <trkpt lat="46.21592" lon="6.50426">
        <ele>901.8</ele>
        <time>2021-04-03T14:31:25Z</time>
      </trkpt>
      <trkpt lat="46.21582" lon="6.50413">
        <ele>901.8</ele>
        <time>2021-04-03T14:31:26Z</time>
      </trkpt>
      <trkpt lat="46.21572" lon="6.50401">
        <ele>901.6</ele>
        <time>2021-04-03T14:31:27Z</time>
      </trkpt>
      <trkpt lat="46.21562" lon="6.50389">
        <ele>901.6</ele>
        <time>2021-04-03T14:31:28Z</time>
      </trkpt>
      <trkpt lat="46.21552" lon="6.50377">
        <ele>901.2</ele>
        <time>2021-04-03T14:31:29Z</time>
      </trkpt>
      <trkpt lat="46.21543" lon="6.50364">
        <ele>901</ele>
        <time>2021-04-03T14:31:30Z</time>
      </trkpt>
      <trkpt lat="46.21533" lon="6.50352">
        <ele>900.8</ele>
        <time>2021-04-03T14:31:31Z</time>
      </trkpt>
      <trkpt lat="46.21522" lon="6.50339">
        <ele>899.4</ele>
        <time>2021-04-03T14:31:32Z</time>
      </trkpt>
      <trkpt lat="46.21512" lon="6.50328">
        <ele>898.8</ele>
        <time>2021-04-03T14:31:33Z</time>
      </trkpt>
      <trkpt lat="46.215" lon="6.50318">
        <ele>898.6</ele>
        <time>2021-04-03T14:31:34Z</time>
      </trkpt>
      <trkpt lat="46.21488" lon="6.50309">
        <ele>898.2</ele>
        <time>2021-04-03T14:31:35Z</time>
      </trkpt>
      <trkpt lat="46.21476" lon="6.503">
        <ele>898</ele>
        <time>2021-04-03T14:31:36Z</time>
      </trkpt>
      <trkpt lat="46.21463" lon="6.50293">
        <ele>897.8</ele>
        <time>2021-04-03T14:31:37Z</time>
      </trkpt>
      <trkpt lat="46.21451" lon="6.50287">
        <ele>897.8</ele>
        <time>2021-04-03T14:31:38Z</time>
      </trkpt>
      <trkpt lat="46.21438" lon="6.50281">
        <ele>897.4</ele>
        <time>2021-04-03T14:31:39Z</time>
      </trkpt>
      <trkpt lat="46.21425" lon="6.50277">
        <ele>897</ele>
        <time>2021-04-03T14:31:40Z</time>
      </trkpt>
      <trkpt lat="46.21411" lon="6.50272">
        <ele>896.8</ele>
        <time>2021-04-03T14:31:41Z</time>
      </trkpt>
      <trkpt lat="46.21399" lon="6.50268">
        <ele>896.8</ele>
        <time>2021-04-03T14:31:42Z</time>
      </trkpt>
      <trkpt lat="46.21385" lon="6.50263">
        <ele>896.6</ele>
        <time>2021-04-03T14:31:43Z</time>
      </trkpt>
      <trkpt lat="46.21372" lon="6.50259">
        <ele>896</ele>
        <time>2021-04-03T14:31:44Z</time>
      </trkpt>
      <trkpt lat="46.21359" lon="6.50255">
        <ele>895.2</ele>
        <time>2021-04-03T14:31:45Z</time>
      </trkpt>
      <trkpt lat="46.21346" lon="6.5025">
        <ele>895</ele>
        <time>2021-04-03T14:31:46Z</time>
      </trkpt>
      <trkpt lat="46.21333" lon="6.50246">
        <ele>894.4</ele>
        <time>2021-04-03T14:31:47Z</time>
      </trkpt>
      <trkpt lat="46.21319" lon="6.50242">
        <ele>893.2</ele>
        <time>2021-04-03T14:31:48Z</time>
      </trkpt>
      <trkpt lat="46.21306" lon="6.50237">
        <ele>892.2</ele>
        <time>2021-04-03T14:31:49Z</time>
      </trkpt>
      <trkpt lat="46.21293" lon="6.50233">
        <ele>892.2</ele>
        <time>2021-04-03T14:31:50Z</time>
      </trkpt>
      <trkpt lat="46.2128" lon="6.50229">
        <ele>891.8</ele>
        <time>2021-04-03T14:31:51Z</time>
      </trkpt>
      <trkpt lat="46.21266" lon="6.50224">
        <ele>891.6</ele>
        <time>2021-04-03T14:31:52Z</time>
      </trkpt>
      <trkpt lat="46.21253" lon="6.5022">
        <ele>891.2</ele>
        <time>2021-04-03T14:31:53Z</time>
      </trkpt>
      <trkpt lat="46.2124" lon="6.50215">
        <ele>890.4</ele>
        <time>2021-04-03T14:31:54Z</time>
      </trkpt>
      <trkpt lat="46.21226" lon="6.5021">
        <ele>889.4</ele>
        <time>2021-04-03T14:31:55Z</time>
      </trkpt>
      <trkpt lat="46.21213" lon="6.50206">
        <ele>888.6</ele>
        <time>2021-04-03T14:31:56Z</time>
      </trkpt>
      <trkpt lat="46.21199" lon="6.50201">
        <ele>888.2</ele>
        <time>2021-04-03T14:31:57Z</time>
      </trkpt>
      <trkpt lat="46.21185" lon="6.50197">
        <ele>887.8</ele>
        <time>2021-04-03T14:31:58Z</time>
      </trkpt>
      <trkpt lat="46.21172" lon="6.50193">
        <ele>887.4</ele>
        <time>2021-04-03T14:31:59Z</time>
      </trkpt>
      <trkpt lat="46.21158" lon="6.50188">
        <ele>887.4</ele>
        <time>2021-04-03T14:32:00Z</time>
      </trkpt>
      <trkpt lat="46.21145" lon="6.50184">
        <ele>887.2</ele>
        <time>2021-04-03T14:32:01Z</time>
      </trkpt>
      <trkpt lat="46.21131" lon="6.50179">
        <ele>887.2</ele>
        <time>2021-04-03T14:32:02Z</time>
      </trkpt>
      <trkpt lat="46.21103" lon="6.5017">
        <ele>887</ele>
        <time>2021-04-03T14:32:04Z</time>
      </trkpt>
      <trkpt lat="46.21089" lon="6.50165">
        <ele>886.6</ele>
        <time>2021-04-03T14:32:05Z</time>
      </trkpt>
      <trkpt lat="46.21076" lon="6.50161">
        <ele>885.4</ele>
        <time>2021-04-03T14:32:06Z</time>
      </trkpt>
      <trkpt lat="46.21062" lon="6.50156">
        <ele>885.2</ele>
        <time>2021-04-03T14:32:07Z</time>
      </trkpt>
      <trkpt lat="46.21048" lon="6.50151">
        <ele>884.6</ele>
        <time>2021-04-03T14:32:08Z</time>
      </trkpt>
      <trkpt lat="46.21034" lon="6.50147">
        <ele>884.4</ele>
        <time>2021-04-03T14:32:09Z</time>
      </trkpt>
      <trkpt lat="46.2102" lon="6.50142">
        <ele>884.2</ele>
        <time>2021-04-03T14:32:10Z</time>
      </trkpt>
      <trkpt lat="46.21006" lon="6.50138">
        <ele>884</ele>
        <time>2021-04-03T14:32:11Z</time>
      </trkpt>
      <trkpt lat="46.20992" lon="6.50133">
        <ele>883.6</ele>
        <time>2021-04-03T14:32:12Z</time>
      </trkpt>
      <trkpt lat="46.20978" lon="6.50129">
        <ele>883</ele>
        <time>2021-04-03T14:32:13Z</time>
      </trkpt>
      <trkpt lat="46.20964" lon="6.50124">
        <ele>882.6</ele>
        <time>2021-04-03T14:32:14Z</time>
      </trkpt>
      <trkpt lat="46.20951" lon="6.5012">
        <ele>882</ele>
        <time>2021-04-03T14:32:15Z</time>
      </trkpt>
      <trkpt lat="46.20937" lon="6.50115">
        <ele>881.6</ele>
        <time>2021-04-03T14:32:16Z</time>
      </trkpt>
      <trkpt lat="46.20924" lon="6.50111">
        <ele>881</ele>
        <time>2021-04-03T14:32:17Z</time>
      </trkpt>
      <trkpt lat="46.20911" lon="6.50107">
        <ele>880.8</ele>
        <time>2021-04-03T14:32:18Z</time>
      </trkpt>
      <trkpt lat="46.20897" lon="6.50102">
        <ele>880</ele>
        <time>2021-04-03T14:32:19Z</time>
      </trkpt>
      <trkpt lat="46.20884" lon="6.50098">
        <ele>879.6</ele>
        <time>2021-04-03T14:32:20Z</time>
      </trkpt>
      <trkpt lat="46.20871" lon="6.50094">
        <ele>879</ele>
        <time>2021-04-03T14:32:21Z</time>
      </trkpt>
      <trkpt lat="46.20858" lon="6.50089">
        <ele>878.8</ele>
        <time>2021-04-03T14:32:22Z</time>
      </trkpt>
      <trkpt lat="46.20846" lon="6.50085">
        <ele>878.4</ele>
        <time>2021-04-03T14:32:23Z</time>
      </trkpt>
      <trkpt lat="46.20833" lon="6.50081">
        <ele>878.2</ele>
        <time>2021-04-03T14:32:24Z</time>
      </trkpt>
      <trkpt lat="46.2082" lon="6.50077">
        <ele>877.8</ele>
        <time>2021-04-03T14:32:25Z</time>
      </trkpt>
      <trkpt lat="46.20807" lon="6.50073">
        <ele>877.8</ele>
        <time>2021-04-03T14:32:26Z</time>
      </trkpt>
      <trkpt lat="46.20795" lon="6.50069">
        <ele>877.8</ele>
        <time>2021-04-03T14:32:27Z</time>
      </trkpt>
      <trkpt lat="46.20782" lon="6.50065">
        <ele>877.6</ele>
        <time>2021-04-03T14:32:28Z</time>
      </trkpt>
      <trkpt lat="46.20769" lon="6.50061">
        <ele>877.6</ele>
        <time>2021-04-03T14:32:29Z</time>
      </trkpt>
      <trkpt lat="46.20757" lon="6.50056">
        <ele>877.4</ele>
        <time>2021-04-03T14:32:30Z</time>
      </trkpt>
      <trkpt lat="46.20745" lon="6.50052">
        <ele>877.4</ele>
        <time>2021-04-03T14:32:31Z</time>
      </trkpt>
      <trkpt lat="46.20732" lon="6.50048">
        <ele>877.4</ele>
        <time>2021-04-03T14:32:32Z</time>
      </trkpt>
      <trkpt lat="46.2072" lon="6.50044">
        <ele>877.4</ele>
        <time>2021-04-03T14:32:33Z</time>
      </trkpt>
      <trkpt lat="46.20708" lon="6.5004">
        <ele>877.2</ele>
        <time>2021-04-03T14:32:34Z</time>
      </trkpt>
      <trkpt lat="46.20696" lon="6.50037">
        <ele>877.2</ele>
        <time>2021-04-03T14:32:35Z</time>
      </trkpt>
      <trkpt lat="46.20684" lon="6.50033">
        <ele>877.2</ele>
        <time>2021-04-03T14:32:36Z</time>
      </trkpt>
      <trkpt lat="46.20672" lon="6.50028">
        <ele>877</ele>
        <time>2021-04-03T14:32:37Z</time>
      </trkpt>
      <trkpt lat="46.2066" lon="6.50024">
        <ele>877</ele>
        <time>2021-04-03T14:32:38Z</time>
      </trkpt>
      <trkpt lat="46.20648" lon="6.5002">
        <ele>876.8</ele>
        <time>2021-04-03T14:32:39Z</time>
      </trkpt>
      <trkpt lat="46.20636" lon="6.50016">
        <ele>876.8</ele>
        <time>2021-04-03T14:32:40Z</time>
      </trkpt>
      <trkpt lat="46.20624" lon="6.50012">
        <ele>876.6</ele>
        <time>2021-04-03T14:32:41Z</time>
      </trkpt>
      <trkpt lat="46.20611" lon="6.50008">
        <ele>876.6</ele>
        <time>2021-04-03T14:32:42Z</time>
      </trkpt>
      <trkpt lat="46.20599" lon="6.50004">
        <ele>876.8</ele>
        <time>2021-04-03T14:32:43Z</time>
      </trkpt>
      <trkpt lat="46.20587" lon="6.5">
        <ele>876.4</ele>
        <time>2021-04-03T14:32:44Z</time>
      </trkpt>
      <trkpt lat="46.20574" lon="6.49996">
        <ele>876</ele>
        <time>2021-04-03T14:32:45Z</time>
      </trkpt>
      <trkpt lat="46.20561" lon="6.49992">
        <ele>876</ele>
        <time>2021-04-03T14:32:46Z</time>
      </trkpt>
      <trkpt lat="46.20549" lon="6.49987">
        <ele>875.8</ele>
        <time>2021-04-03T14:32:47Z</time>
      </trkpt>
      <trkpt lat="46.20537" lon="6.49983">
        <ele>875.8</ele>
        <time>2021-04-03T14:32:48Z</time>
      </trkpt>
      <trkpt lat="46.20525" lon="6.49979">
        <ele>875.8</ele>
        <time>2021-04-03T14:32:49Z</time>
      </trkpt>
      <trkpt lat="46.20512" lon="6.49975">
        <ele>875.6</ele>
        <time>2021-04-03T14:32:50Z</time>
      </trkpt>
      <trkpt lat="46.205" lon="6.49971">
        <ele>875.4</ele>
        <time>2021-04-03T14:32:51Z</time>
      </trkpt>
      <trkpt lat="46.20488" lon="6.49968">
        <ele>875.2</ele>
        <time>2021-04-03T14:32:52Z</time>
      </trkpt>
      <trkpt lat="46.20477" lon="6.49964">
        <ele>875.2</ele>
        <time>2021-04-03T14:32:53Z</time>
      </trkpt>
      <trkpt lat="46.20465" lon="6.4996">
        <ele>874.8</ele>
        <time>2021-04-03T14:32:54Z</time>
      </trkpt>
      <trkpt lat="46.20453" lon="6.49956">
        <ele>874.4</ele>
        <time>2021-04-03T14:32:55Z</time>
      </trkpt>
      <trkpt lat="46.20442" lon="6.49952">
        <ele>874.2</ele>
        <time>2021-04-03T14:32:56Z</time>
      </trkpt>
      <trkpt lat="46.2043" lon="6.49949">
        <ele>874.2</ele>
        <time>2021-04-03T14:32:57Z</time>
      </trkpt>
      <trkpt lat="46.20419" lon="6.49945">
        <ele>874.2</ele>
        <time>2021-04-03T14:32:58Z</time>
      </trkpt>
      <trkpt lat="46.20407" lon="6.49941">
        <ele>874.2</ele>
        <time>2021-04-03T14:32:59Z</time>
      </trkpt>
      <trkpt lat="46.20396" lon="6.49937">
        <ele>874</ele>
        <time>2021-04-03T14:33:00Z</time>
      </trkpt>
      <trkpt lat="46.20384" lon="6.49933">
        <ele>873.8</ele>
        <time>2021-04-03T14:33:01Z</time>
      </trkpt>
      <trkpt lat="46.20373" lon="6.4993">
        <ele>873.8</ele>
        <time>2021-04-03T14:33:02Z</time>
      </trkpt>
      <trkpt lat="46.20362" lon="6.49926">
        <ele>873.6</ele>
        <time>2021-04-03T14:33:03Z</time>
      </trkpt>
      <trkpt lat="46.20351" lon="6.49923">
        <ele>873.4</ele>
        <time>2021-04-03T14:33:04Z</time>
      </trkpt>
      <trkpt lat="46.2034" lon="6.49919">
        <ele>873.6</ele>
        <time>2021-04-03T14:33:05Z</time>
      </trkpt>
      <trkpt lat="46.20329" lon="6.49916">
        <ele>873.6</ele>
        <time>2021-04-03T14:33:06Z</time>
      </trkpt>
      <trkpt lat="46.20319" lon="6.49912">
        <ele>873.6</ele>
        <time>2021-04-03T14:33:07Z</time>
      </trkpt>
      <trkpt lat="46.20309" lon="6.49908">
        <ele>873.8</ele>
        <time>2021-04-03T14:33:08Z</time>
      </trkpt>
      <trkpt lat="46.20299" lon="6.49905">
        <ele>873.8</ele>
        <time>2021-04-03T14:33:09Z</time>
      </trkpt>
      <trkpt lat="46.20289" lon="6.49902">
        <ele>874</ele>
        <time>2021-04-03T14:33:10Z</time>
      </trkpt>
      <trkpt lat="46.20279" lon="6.49899">
        <ele>874</ele>
        <time>2021-04-03T14:33:11Z</time>
      </trkpt>
      <trkpt lat="46.20269" lon="6.49896">
        <ele>874</ele>
        <time>2021-04-03T14:33:12Z</time>
      </trkpt>
      <trkpt lat="46.2026" lon="6.49893">
        <ele>874</ele>
        <time>2021-04-03T14:33:13Z</time>
      </trkpt>
      <trkpt lat="46.2025" lon="6.4989">
        <ele>874.2</ele>
        <time>2021-04-03T14:33:14Z</time>
      </trkpt>
      <trkpt lat="46.2024" lon="6.49886">
        <ele>874.4</ele>
        <time>2021-04-03T14:33:15Z</time>
      </trkpt>
      <trkpt lat="46.20231" lon="6.49883">
        <ele>874.4</ele>
        <time>2021-04-03T14:33:16Z</time>
      </trkpt>
      <trkpt lat="46.20221" lon="6.4988">
        <ele>874.4</ele>
        <time>2021-04-03T14:33:17Z</time>
      </trkpt>
      <trkpt lat="46.20211" lon="6.49877">
        <ele>874.4</ele>
        <time>2021-04-03T14:33:18Z</time>
      </trkpt>
      <trkpt lat="46.20202" lon="6.49873">
        <ele>874.6</ele>
        <time>2021-04-03T14:33:19Z</time>
      </trkpt>
      <trkpt lat="46.20192" lon="6.4987">
        <ele>874.6</ele>
        <time>2021-04-03T14:33:20Z</time>
      </trkpt>
      <trkpt lat="46.20183" lon="6.49867">
        <ele>874.8</ele>
        <time>2021-04-03T14:33:21Z</time>
      </trkpt>
      <trkpt lat="46.20173" lon="6.49863">
        <ele>874.8</ele>
        <time>2021-04-03T14:33:22Z</time>
      </trkpt>
      <trkpt lat="46.20164" lon="6.49861">
        <ele>874.8</ele>
        <time>2021-04-03T14:33:23Z</time>
      </trkpt>
      <trkpt lat="46.20154" lon="6.49858">
        <ele>874.8</ele>
        <time>2021-04-03T14:33:24Z</time>
      </trkpt>
      <trkpt lat="46.20145" lon="6.49854">
        <ele>874.8</ele>
        <time>2021-04-03T14:33:25Z</time>
      </trkpt>
      <trkpt lat="46.20135" lon="6.49851">
        <ele>875</ele>
        <time>2021-04-03T14:33:26Z</time>
      </trkpt>
      <trkpt lat="46.20125" lon="6.49848">
        <ele>874.8</ele>
        <time>2021-04-03T14:33:27Z</time>
      </trkpt>
      <trkpt lat="46.20116" lon="6.49844">
        <ele>874.8</ele>
        <time>2021-04-03T14:33:28Z</time>
      </trkpt>
      <trkpt lat="46.20106" lon="6.49841">
        <ele>875</ele>
        <time>2021-04-03T14:33:29Z</time>
      </trkpt>
      <trkpt lat="46.20097" lon="6.49838">
        <ele>875</ele>
        <time>2021-04-03T14:33:30Z</time>
      </trkpt>
      <trkpt lat="46.20087" lon="6.49836">
        <ele>875</ele>
        <time>2021-04-03T14:33:31Z</time>
      </trkpt>
      <trkpt lat="46.20078" lon="6.49833">
        <ele>875</ele>
        <time>2021-04-03T14:33:32Z</time>
      </trkpt>
      <trkpt lat="46.20069" lon="6.4983">
        <ele>875</ele>
        <time>2021-04-03T14:33:33Z</time>
      </trkpt>
      <trkpt lat="46.2006" lon="6.49827">
        <ele>875.2</ele>
        <time>2021-04-03T14:33:34Z</time>
      </trkpt>
      <trkpt lat="46.20052" lon="6.49824">
        <ele>875.2</ele>
        <time>2021-04-03T14:33:35Z</time>
      </trkpt>
      <trkpt lat="46.20044" lon="6.49822">
        <ele>875.2</ele>
        <time>2021-04-03T14:33:36Z</time>
      </trkpt>
      <trkpt lat="46.20037" lon="6.49819">
        <ele>875.2</ele>
        <time>2021-04-03T14:33:37Z</time>
      </trkpt>
      <trkpt lat="46.20029" lon="6.49817">
        <ele>875.2</ele>
        <time>2021-04-03T14:33:38Z</time>
      </trkpt>
      <trkpt lat="46.20023" lon="6.49815">
        <ele>875.2</ele>
        <time>2021-04-03T14:33:39Z</time>
      </trkpt>
      <trkpt lat="46.20016" lon="6.49813">
        <ele>875.4</ele>
        <time>2021-04-03T14:33:40Z</time>
      </trkpt>
      <trkpt lat="46.20009" lon="6.49811">
        <ele>875.4</ele>
        <time>2021-04-03T14:33:41Z</time>
      </trkpt>
      <trkpt lat="46.20002" lon="6.49809">
        <ele>875.4</ele>
        <time>2021-04-03T14:33:42Z</time>
      </trkpt>
      <trkpt lat="46.19996" lon="6.49807">
        <ele>875.4</ele>
        <time>2021-04-03T14:33:43Z</time>
      </trkpt>
      <trkpt lat="46.1999" lon="6.49806">
        <ele>875.4</ele>
        <time>2021-04-03T14:33:44Z</time>
      </trkpt>
      <trkpt lat="46.19984" lon="6.49803">
        <ele>875.4</ele>
        <time>2021-04-03T14:33:45Z</time>
      </trkpt>
      <trkpt lat="46.19979" lon="6.49801">
        <ele>875.4</ele>
        <time>2021-04-03T14:33:46Z</time>
      </trkpt>
      <trkpt lat="46.19973" lon="6.49799">
        <ele>875.4</ele>
        <time>2021-04-03T14:33:47Z</time>
      </trkpt>
      <trkpt lat="46.19968" lon="6.49796">
        <ele>875.2</ele>
        <time>2021-04-03T14:33:48Z</time>
      </trkpt>
      <trkpt lat="46.19963" lon="6.49794">
        <ele>875.4</ele>
        <time>2021-04-03T14:33:49Z</time>
      </trkpt>
      <trkpt lat="46.19958" lon="6.49792">
        <ele>875.4</ele>
        <time>2021-04-03T14:33:50Z</time>
      </trkpt>
      <trkpt lat="46.19953" lon="6.4979">
        <ele>875.6</ele>
        <time>2021-04-03T14:33:51Z</time>
      </trkpt>
      <trkpt lat="46.19948" lon="6.49788">
        <ele>875.6</ele>
        <time>2021-04-03T14:33:52Z</time>
      </trkpt>
      <trkpt lat="46.19944" lon="6.49786">
        <ele>875.8</ele>
        <time>2021-04-03T14:33:53Z</time>
      </trkpt>
      <trkpt lat="46.1994" lon="6.49784">
        <ele>875.8</ele>
        <time>2021-04-03T14:33:54Z</time>
      </trkpt>
      <trkpt lat="46.19936" lon="6.49782">
        <ele>876</ele>
        <time>2021-04-03T14:33:55Z</time>
      </trkpt>
      <trkpt lat="46.19933" lon="6.49779">
        <ele>876</ele>
        <time>2021-04-03T14:33:56Z</time>
      </trkpt>
      <trkpt lat="46.19931" lon="6.49775">
        <ele>876</ele>
        <time>2021-04-03T14:33:57Z</time>
      </trkpt>
      <trkpt lat="46.1993" lon="6.4977">
        <ele>876</ele>
        <time>2021-04-03T14:33:58Z</time>
      </trkpt>
      <trkpt lat="46.19929" lon="6.49766">
        <ele>876</ele>
        <time>2021-04-03T14:33:59Z</time>
      </trkpt>
      <trkpt lat="46.19929" lon="6.49765">
        <ele>876</ele>
        <time>2021-04-03T14:34:00Z</time>
      </trkpt>
      <trkpt lat="46.19929" lon="6.49764">
        <ele>876.2</ele>
        <time>2021-04-03T14:34:01Z</time>
      </trkpt>
      <trkpt lat="46.19929" lon="6.49764">
        <ele>876.4</ele>
        <time>2021-04-03T14:34:02Z</time>
      </trkpt>
      <trkpt lat="46.19929" lon="6.49764">
        <ele>876.4</ele>
        <time>2021-04-03T14:34:03Z</time>
      </trkpt>
      <trkpt lat="46.19929" lon="6.49764">
        <ele>876.6</ele>
        <time>2021-04-03T14:34:04Z</time>
      </trkpt>
      <trkpt lat="46.19929" lon="6.49764">
        <ele>876.6</ele>
        <time>2021-04-03T14:34:05Z</time>
      </trkpt>
      <trkpt lat="46.19929" lon="6.49765">
        <ele>876.8</ele>
        <time>2021-04-03T14:34:06Z</time>
      </trkpt>
      <trkpt lat="46.1993" lon="6.49765">
        <ele>876.8</ele>
        <time>2021-04-03T14:34:07Z</time>
      </trkpt>
      <trkpt lat="46.1993" lon="6.49765">
        <ele>876.8</ele>
        <time>2021-04-03T14:34:08Z</time>
      </trkpt>
      <trkpt lat="46.1993" lon="6.49765">
        <ele>876.8</ele>
        <time>2021-04-03T14:34:09Z</time>
      </trkpt>
      <trkpt lat="46.1993" lon="6.49765">
        <ele>877</ele>
        <time>2021-04-03T14:34:10Z</time>
      </trkpt>
      <trkpt lat="46.1993" lon="6.49765">
        <ele>877</ele>
        <time>2021-04-03T14:34:11Z</time>
      </trkpt>
      <trkpt lat="46.1993" lon="6.49765">
        <ele>877.2</ele>
        <time>2021-04-03T14:34:14Z</time>
      </trkpt>
      <trkpt lat="46.1993" lon="6.49765">
        <ele>877</ele>
        <time>2021-04-03T14:34:15Z</time>
      </trkpt>
      <trkpt lat="46.1993" lon="6.49765">
        <ele>877</ele>
        <time>2021-04-03T14:34:16Z</time>
      </trkpt>
      <trkpt lat="46.1993" lon="6.49765">
        <ele>877.2</ele>
        <time>2021-04-03T14:34:17Z</time>
      </trkpt>
      <trkpt lat="46.1993" lon="6.49765">
        <ele>877.2</ele>
        <time>2021-04-03T14:34:18Z</time>
      </trkpt>
      <trkpt lat="46.19931" lon="6.49766">
        <ele>877.2</ele>
        <time>2021-04-03T14:34:19Z</time>
      </trkpt>
      <trkpt lat="46.1993" lon="6.49766">
        <ele>877.2</ele>
        <time>2021-04-03T14:34:20Z</time>
      </trkpt>
      <trkpt lat="46.19931" lon="6.49766">
        <ele>877</ele>
        <time>2021-04-03T14:34:21Z</time>
      </trkpt>
      <trkpt lat="46.19931" lon="6.49766">
        <ele>877.2</ele>
        <time>2021-04-03T14:34:22Z</time>
      </trkpt>
      <trkpt lat="46.19931" lon="6.49766">
        <ele>877.2</ele>
        <time>2021-04-03T14:34:23Z</time>
      </trkpt>
      <trkpt lat="46.19931" lon="6.49767">
        <ele>877</ele>
        <time>2021-04-03T14:34:24Z</time>
      </trkpt>
      <trkpt lat="46.19931" lon="6.49766">
        <ele>877.2</ele>
        <time>2021-04-03T14:34:25Z</time>
      </trkpt>
      <trkpt lat="46.19931" lon="6.49767">
        <ele>877.2</ele>
        <time>2021-04-03T14:34:26Z</time>
      </trkpt>
      <trkpt lat="46.19931" lon="6.49768">
        <ele>877.2</ele>
        <time>2021-04-03T14:34:27Z</time>
      </trkpt>
      <trkpt lat="46.19931" lon="6.49768">
        <ele>877.2</ele>
        <time>2021-04-03T14:34:28Z</time>
      </trkpt>
      <trkpt lat="46.19932" lon="6.49768">
        <ele>877.2</ele>
        <time>2021-04-03T14:34:29Z</time>
      </trkpt>
      <trkpt lat="46.19932" lon="6.49768">
        <ele>877.2</ele>
        <time>2021-04-03T14:34:30Z</time>
      </trkpt>
      <trkpt lat="46.19932" lon="6.49768">
        <ele>877</ele>
        <time>2021-04-03T14:34:31Z</time>
      </trkpt>
      <trkpt lat="46.19932" lon="6.49768">
        <ele>877</ele>
        <time>2021-04-03T14:34:33Z</time>
      </trkpt>
      <trkpt lat="46.19932" lon="6.49767">
        <ele>877</ele>
        <time>2021-04-03T14:34:34Z</time>
      </trkpt>
      <trkpt lat="46.19932" lon="6.49766">
        <ele>877.2</ele>
        <time>2021-04-03T14:34:35Z</time>
      </trkpt>
      <trkpt lat="46.19932" lon="6.49766">
        <ele>877</ele>
        <time>2021-04-03T14:34:36Z</time>
      </trkpt>
      <trkpt lat="46.19932" lon="6.49765">
        <ele>877</ele>
        <time>2021-04-03T14:34:37Z</time>
      </trkpt>
      <trkpt lat="46.19932" lon="6.49764">
        <ele>877</ele>
        <time>2021-04-03T14:34:38Z</time>
      </trkpt>
      <trkpt lat="46.19932" lon="6.49763">
        <ele>877</ele>
        <time>2021-04-03T14:34:39Z</time>
      </trkpt>
      <trkpt lat="46.19932" lon="6.49763">
        <ele>877</ele>
        <time>2021-04-03T14:34:40Z</time>
      </trkpt>
      <trkpt lat="46.19932" lon="6.49763">
        <ele>877</ele>
        <time>2021-04-03T14:34:41Z</time>
      </trkpt>
      <trkpt lat="46.19933" lon="6.49763">
        <ele>877</ele>
        <time>2021-04-03T14:34:42Z</time>
      </trkpt>
      <trkpt lat="46.19933" lon="6.49763">
        <ele>877.2</ele>
        <time>2021-04-03T14:34:43Z</time>
      </trkpt>
      <trkpt lat="46.19933" lon="6.49763">
        <ele>877.2</ele>
        <time>2021-04-03T14:34:45Z</time>
      </trkpt>
      <trkpt lat="46.19933" lon="6.49763">
        <ele>877</ele>
        <time>2021-04-03T14:34:46Z</time>
      </trkpt>
      <trkpt lat="46.19933" lon="6.49763">
        <ele>877</ele>
        <time>2021-04-03T14:34:47Z</time>
      </trkpt>
      <trkpt lat="46.19933" lon="6.49764">
        <ele>877.2</ele>
        <time>2021-04-03T14:34:48Z</time>
      </trkpt>
      <trkpt lat="46.19933" lon="6.49764">
        <ele>877.2</ele>
        <time>2021-04-03T14:34:49Z</time>
      </trkpt>
      <trkpt lat="46.19933" lon="6.49764">
        <ele>877.4</ele>
        <time>2021-04-03T14:34:51Z</time>
      </trkpt>
      <trkpt lat="46.19933" lon="6.49764">
        <ele>877.2</ele>
        <time>2021-04-03T14:34:52Z</time>
      </trkpt>
      <trkpt lat="46.19932" lon="6.49764">
        <ele>877.4</ele>
        <time>2021-04-03T14:34:53Z</time>
      </trkpt>
      <trkpt lat="46.19932" lon="6.49765">
        <ele>877.4</ele>
        <time>2021-04-03T14:34:54Z</time>
      </trkpt>
      <trkpt lat="46.19932" lon="6.49765">
        <ele>877.2</ele>
        <time>2021-04-03T14:34:55Z</time>
      </trkpt>
      <trkpt lat="46.19932" lon="6.49765">
        <ele>877.4</ele>
        <time>2021-04-03T14:34:56Z</time>
      </trkpt>
      <trkpt lat="46.19932" lon="6.49765">
        <ele>877.4</ele>
        <time>2021-04-03T14:34:58Z</time>
      </trkpt>
      <trkpt lat="46.19932" lon="6.49765">
        <ele>877.6</ele>
        <time>2021-04-03T14:35:00Z</time>
      </trkpt>
      <trkpt lat="46.19932" lon="6.49765">
        <ele>877.6</ele>
        <time>2021-04-03T14:35:01Z</time>
      </trkpt>
      <trkpt lat="46.19932" lon="6.49765">
        <ele>877.6</ele>
        <time>2021-04-03T14:35:03Z</time>
      </trkpt>
      <trkpt lat="46.19932" lon="6.49765">
        <ele>877.6</ele>
        <time>2021-04-03T14:35:05Z</time>
      </trkpt>
      <trkpt lat="46.19932" lon="6.49765">
        <ele>877.6</ele>
        <time>2021-04-03T14:35:06Z</time>
      </trkpt>
      <trkpt lat="46.19932" lon="6.49765">
        <ele>877.8</ele>
        <time>2021-04-03T14:35:08Z</time>
      </trkpt>
      <trkpt lat="46.19932" lon="6.49765">
        <ele>877.8</ele>
        <time>2021-04-03T14:35:10Z</time>
      </trkpt>
      <trkpt lat="46.19932" lon="6.49765">
        <ele>877.6</ele>
        <time>2021-04-03T14:35:11Z</time>
      </trkpt>
      <trkpt lat="46.19932" lon="6.49765">
        <ele>877.6</ele>
        <time>2021-04-03T14:35:12Z</time>
      </trkpt>
      <trkpt lat="46.19932" lon="6.49766">
        <ele>877.6</ele>
        <time>2021-04-03T14:35:13Z</time>
      </trkpt>
      <trkpt lat="46.19932" lon="6.49766">
        <ele>877.6</ele>
        <time>2021-04-03T14:35:16Z</time>
      </trkpt>
      <trkpt lat="46.19932" lon="6.49766">
        <ele>877.6</ele>
        <time>2021-04-03T14:35:17Z</time>
      </trkpt>
      <trkpt lat="46.19932" lon="6.49766">
        <ele>877.8</ele>
        <time>2021-04-03T14:35:18Z</time>
      </trkpt>
      <trkpt lat="46.19932" lon="6.49766">
        <ele>877.6</ele>
        <time>2021-04-03T14:35:19Z</time>
      </trkpt>
      <trkpt lat="46.19932" lon="6.49766">
        <ele>877.6</ele>
        <time>2021-04-03T14:35:20Z</time>
      </trkpt>
      <trkpt lat="46.19932" lon="6.49765">
        <ele>877.6</ele>
        <time>2021-04-03T14:35:22Z</time>
      </trkpt>
      <trkpt lat="46.19932" lon="6.49765">
        <ele>877.6</ele>
        <time>2021-04-03T14:35:23Z</time>
      </trkpt>
      <trkpt lat="46.19932" lon="6.49765">
        <ele>877.6</ele>
        <time>2021-04-03T14:35:25Z</time>
      </trkpt>
      <trkpt lat="46.19932" lon="6.49765">
        <ele>877.6</ele>
        <time>2021-04-03T14:35:26Z</time>
      </trkpt>
      <trkpt lat="46.19932" lon="6.49765">
        <ele>877.6</ele>
        <time>2021-04-03T14:35:27Z</time>
      </trkpt>
      <trkpt lat="46.19932" lon="6.49765">
        <ele>877.6</ele>
        <time>2021-04-03T14:35:32Z</time>
      </trkpt>
      <trkpt lat="46.19932" lon="6.49765">
        <ele>877.6</ele>
        <time>2021-04-03T14:35:33Z</time>
      </trkpt>
      <trkpt lat="46.19932" lon="6.49766">
        <ele>877.8</ele>
        <time>2021-04-03T14:35:34Z</time>
      </trkpt>
      <trkpt lat="46.19932" lon="6.49766">
        <ele>877.8</ele>
        <time>2021-04-03T14:35:35Z</time>
      </trkpt>
      <trkpt lat="46.19932" lon="6.49766">
        <ele>877.6</ele>
        <time>2021-04-03T14:35:36Z</time>
      </trkpt>
      <trkpt lat="46.19932" lon="6.49766">
        <ele>877.8</ele>
        <time>2021-04-03T14:35:37Z</time>
      </trkpt>
      <trkpt lat="46.19932" lon="6.49766">
        <ele>877.8</ele>
        <time>2021-04-03T14:35:38Z</time>
      </trkpt>
      <trkpt lat="46.19932" lon="6.49766">
        <ele>877.8</ele>
        <time>2021-04-03T14:35:39Z</time>
      </trkpt>
      <trkpt lat="46.19932" lon="6.49766">
        <ele>877.8</ele>
        <time>2021-04-03T14:35:41Z</time>
      </trkpt>
      <trkpt lat="46.19932" lon="6.49766">
        <ele>877.8</ele>
        <time>2021-04-03T14:35:42Z</time>
      </trkpt>
      <trkpt lat="46.19932" lon="6.49766">
        <ele>877.8</ele>
        <time>2021-04-03T14:35:50Z</time>
      </trkpt>
      <trkpt lat="46.19932" lon="6.49766">
        <ele>877.8</ele>
        <time>2021-04-03T14:35:52Z</time>
      </trkpt>
      <trkpt lat="46.19932" lon="6.49766">
        <ele>877.6</ele>
        <time>2021-04-03T14:35:59Z</time>
      </trkpt>
      <trkpt lat="46.19932" lon="6.49766">
        <ele>877.6</ele>
        <time>2021-04-03T14:36:00Z</time>
      </trkpt>
      <trkpt lat="46.19931" lon="6.49766">
        <ele>877.6</ele>
        <time>2021-04-03T14:36:01Z</time>
      </trkpt>
      <trkpt lat="46.1993" lon="6.49765">
        <ele>877.6</ele>
        <time>2021-04-03T14:36:02Z</time>
      </trkpt>
      <trkpt lat="46.19929" lon="6.49765">
        <ele>877.4</ele>
        <time>2021-04-03T14:36:03Z</time>
      </trkpt>
      <trkpt lat="46.19928" lon="6.49765">
        <ele>877.4</ele>
        <time>2021-04-03T14:36:04Z</time>
      </trkpt>
      <trkpt lat="46.19927" lon="6.49764">
        <ele>877.6</ele>
        <time>2021-04-03T14:36:05Z</time>
      </trkpt>
      <trkpt lat="46.19926" lon="6.49764">
        <ele>877.4</ele>
        <time>2021-04-03T14:36:06Z</time>
      </trkpt>
      <trkpt lat="46.19925" lon="6.49764">
        <ele>877.4</ele>
        <time>2021-04-03T14:36:07Z</time>
      </trkpt>
      <trkpt lat="46.19924" lon="6.49764">
        <ele>877.4</ele>
        <time>2021-04-03T14:36:08Z</time>
      </trkpt>
      <trkpt lat="46.19924" lon="6.49763">
        <ele>877.4</ele>
        <time>2021-04-03T14:36:09Z</time>
      </trkpt>
      <trkpt lat="46.19924" lon="6.49763">
        <ele>877.4</ele>
        <time>2021-04-03T14:36:10Z</time>
      </trkpt>
      <trkpt lat="46.19924" lon="6.49763">
        <ele>877.4</ele>
        <time>2021-04-03T14:36:11Z</time>
      </trkpt>
      <trkpt lat="46.19924" lon="6.49763">
        <ele>877.4</ele>
        <time>2021-04-03T14:36:12Z</time>
      </trkpt>
      <trkpt lat="46.19923" lon="6.49762">
        <ele>877.4</ele>
        <time>2021-04-03T14:36:13Z</time>
      </trkpt>
      <trkpt lat="46.19922" lon="6.49762">
        <ele>877.6</ele>
        <time>2021-04-03T14:36:14Z</time>
      </trkpt>
      <trkpt lat="46.19922" lon="6.49761">
        <ele>877.6</ele>
        <time>2021-04-03T14:36:15Z</time>
      </trkpt>
      <trkpt lat="46.1992" lon="6.49761">
        <ele>877.6</ele>
        <time>2021-04-03T14:36:16Z</time>
      </trkpt>
      <trkpt lat="46.19919" lon="6.49761">
        <ele>877.6</ele>
        <time>2021-04-03T14:36:17Z</time>
      </trkpt>
      <trkpt lat="46.19917" lon="6.49762">
        <ele>877.6</ele>
        <time>2021-04-03T14:36:18Z</time>
      </trkpt>
      <trkpt lat="46.19915" lon="6.49763">
        <ele>877.8</ele>
        <time>2021-04-03T14:36:19Z</time>
      </trkpt>
      <trkpt lat="46.19912" lon="6.49763">
        <ele>877.8</ele>
        <time>2021-04-03T14:36:20Z</time>
      </trkpt>
      <trkpt lat="46.19909" lon="6.49762">
        <ele>877.8</ele>
        <time>2021-04-03T14:36:21Z</time>
      </trkpt>
      <trkpt lat="46.19906" lon="6.49761">
        <ele>877.8</ele>
        <time>2021-04-03T14:36:22Z</time>
      </trkpt>
      <trkpt lat="46.19903" lon="6.49761">
        <ele>877.6</ele>
        <time>2021-04-03T14:36:23Z</time>
      </trkpt>
      <trkpt lat="46.19902" lon="6.49761">
        <ele>877.8</ele>
        <time>2021-04-03T14:36:24Z</time>
      </trkpt>
      <trkpt lat="46.19901" lon="6.49762">
        <ele>877.8</ele>
        <time>2021-04-03T14:36:25Z</time>
      </trkpt>
      <trkpt lat="46.199" lon="6.49763">
        <ele>877.8</ele>
        <time>2021-04-03T14:36:26Z</time>
      </trkpt>
      <trkpt lat="46.199" lon="6.49764">
        <ele>877.8</ele>
        <time>2021-04-03T14:36:27Z</time>
      </trkpt>
      <trkpt lat="46.199" lon="6.49764">
        <ele>877.8</ele>
        <time>2021-04-03T14:36:28Z</time>
      </trkpt>
      <trkpt lat="46.199" lon="6.49765">
        <ele>877.6</ele>
        <time>2021-04-03T14:36:29Z</time>
      </trkpt>
      <trkpt lat="46.199" lon="6.49765">
        <ele>877.6</ele>
        <time>2021-04-03T14:36:30Z</time>
      </trkpt>
      <trkpt lat="46.199" lon="6.49765">
        <ele>877.4</ele>
        <time>2021-04-03T14:36:31Z</time>
      </trkpt>
      <trkpt lat="46.199" lon="6.49765">
        <ele>877.4</ele>
        <time>2021-04-03T14:36:32Z</time>
      </trkpt>
      <trkpt lat="46.199" lon="6.49766">
        <ele>877.4</ele>
        <time>2021-04-03T14:36:33Z</time>
      </trkpt>
      <trkpt lat="46.19899" lon="6.49766">
        <ele>877.4</ele>
        <time>2021-04-03T14:36:34Z</time>
      </trkpt>
      <trkpt lat="46.19898" lon="6.49767">
        <ele>877.4</ele>
        <time>2021-04-03T14:36:35Z</time>
      </trkpt>
      <trkpt lat="46.19897" lon="6.49768">
        <ele>877.4</ele>
        <time>2021-04-03T14:36:36Z</time>
      </trkpt>
      <trkpt lat="46.19894" lon="6.49768">
        <ele>877.4</ele>
        <time>2021-04-03T14:36:37Z</time>
      </trkpt>
      <trkpt lat="46.19891" lon="6.49768">
        <ele>877.2</ele>
        <time>2021-04-03T14:36:38Z</time>
      </trkpt>
      <trkpt lat="46.19888" lon="6.49767">
        <ele>877.2</ele>
        <time>2021-04-03T14:36:39Z</time>
      </trkpt>
      <trkpt lat="46.19885" lon="6.49766">
        <ele>877.2</ele>
        <time>2021-04-03T14:36:40Z</time>
      </trkpt>
      <trkpt lat="46.19882" lon="6.49765">
        <ele>877.2</ele>
        <time>2021-04-03T14:36:41Z</time>
      </trkpt>
      <trkpt lat="46.19878" lon="6.49764">
        <ele>877.2</ele>
        <time>2021-04-03T14:36:42Z</time>
      </trkpt>
      <trkpt lat="46.19874" lon="6.49763">
        <ele>877.2</ele>
        <time>2021-04-03T14:36:43Z</time>
      </trkpt>
      <trkpt lat="46.1987" lon="6.49762">
        <ele>877</ele>
        <time>2021-04-03T14:36:44Z</time>
      </trkpt>
      <trkpt lat="46.19867" lon="6.4976">
        <ele>877</ele>
        <time>2021-04-03T14:36:45Z</time>
      </trkpt>
      <trkpt lat="46.19863" lon="6.49759">
        <ele>877</ele>
        <time>2021-04-03T14:36:46Z</time>
      </trkpt>
      <trkpt lat="46.19859" lon="6.49758">
        <ele>876.8</ele>
        <time>2021-04-03T14:36:47Z</time>
      </trkpt>
      <trkpt lat="46.19855" lon="6.49757">
        <ele>876.8</ele>
        <time>2021-04-03T14:36:48Z</time>
      </trkpt>
      <trkpt lat="46.19851" lon="6.49756">
        <ele>876.6</ele>
        <time>2021-04-03T14:36:49Z</time>
      </trkpt>
      <trkpt lat="46.19847" lon="6.49754">
        <ele>876.8</ele>
        <time>2021-04-03T14:36:50Z</time>
      </trkpt>
      <trkpt lat="46.19842" lon="6.49753">
        <ele>876.8</ele>
        <time>2021-04-03T14:36:51Z</time>
      </trkpt>
      <trkpt lat="46.19836" lon="6.49751">
        <ele>876.6</ele>
        <time>2021-04-03T14:36:52Z</time>
      </trkpt>
      <trkpt lat="46.1983" lon="6.4975">
        <ele>876.6</ele>
        <time>2021-04-03T14:36:53Z</time>
      </trkpt>
      <trkpt lat="46.19824" lon="6.49748">
        <ele>876.6</ele>
        <time>2021-04-03T14:36:54Z</time>
      </trkpt>
      <trkpt lat="46.19818" lon="6.49746">
        <ele>876.6</ele>
        <time>2021-04-03T14:36:55Z</time>
      </trkpt>
      <trkpt lat="46.19812" lon="6.49744">
        <ele>876.6</ele>
        <time>2021-04-03T14:36:56Z</time>
      </trkpt>
      <trkpt lat="46.19806" lon="6.49742">
        <ele>876.6</ele>
        <time>2021-04-03T14:36:57Z</time>
      </trkpt>
      <trkpt lat="46.198" lon="6.4974">
        <ele>876.6</ele>
        <time>2021-04-03T14:36:58Z</time>
      </trkpt>
      <trkpt lat="46.19794" lon="6.49737">
        <ele>876.6</ele>
        <time>2021-04-03T14:36:59Z</time>
      </trkpt>
      <trkpt lat="46.19788" lon="6.49734">
        <ele>876.6</ele>
        <time>2021-04-03T14:37:00Z</time>
      </trkpt>
      <trkpt lat="46.19781" lon="6.49732">
        <ele>876.6</ele>
        <time>2021-04-03T14:37:01Z</time>
      </trkpt>
      <trkpt lat="46.19775" lon="6.49729">
        <ele>876.8</ele>
        <time>2021-04-03T14:37:02Z</time>
      </trkpt>
      <trkpt lat="46.19768" lon="6.49726">
        <ele>876.8</ele>
        <time>2021-04-03T14:37:03Z</time>
      </trkpt>
      <trkpt lat="46.19762" lon="6.49723">
        <ele>876.8</ele>
        <time>2021-04-03T14:37:04Z</time>
      </trkpt>
      <trkpt lat="46.19755" lon="6.4972">
        <ele>877</ele>
        <time>2021-04-03T14:37:05Z</time>
      </trkpt>
      <trkpt lat="46.19749" lon="6.49717">
        <ele>877</ele>
        <time>2021-04-03T14:37:06Z</time>
      </trkpt>
      <trkpt lat="46.19742" lon="6.49715">
        <ele>877.2</ele>
        <time>2021-04-03T14:37:07Z</time>
      </trkpt>
      <trkpt lat="46.19736" lon="6.49712">
        <ele>877</ele>
        <time>2021-04-03T14:37:08Z</time>
      </trkpt>
      <trkpt lat="46.1973" lon="6.4971">
        <ele>877.2</ele>
        <time>2021-04-03T14:37:09Z</time>
      </trkpt>
      <trkpt lat="46.19723" lon="6.49707">
        <ele>877</ele>
        <time>2021-04-03T14:37:10Z</time>
      </trkpt>
      <trkpt lat="46.19717" lon="6.49704">
        <ele>877</ele>
        <time>2021-04-03T14:37:11Z</time>
      </trkpt>
      <trkpt lat="46.1971" lon="6.49701">
        <ele>876.8</ele>
        <time>2021-04-03T14:37:12Z</time>
      </trkpt>
      <trkpt lat="46.19704" lon="6.49698">
        <ele>877</ele>
        <time>2021-04-03T14:37:13Z</time>
      </trkpt>
      <trkpt lat="46.19698" lon="6.49696">
        <ele>877</ele>
        <time>2021-04-03T14:37:14Z</time>
      </trkpt>
      <trkpt lat="46.19691" lon="6.49693">
        <ele>877</ele>
        <time>2021-04-03T14:37:15Z</time>
      </trkpt>
      <trkpt lat="46.19685" lon="6.4969">
        <ele>876.8</ele>
        <time>2021-04-03T14:37:16Z</time>
      </trkpt>
      <trkpt lat="46.19679" lon="6.49688">
        <ele>876.8</ele>
        <time>2021-04-03T14:37:17Z</time>
      </trkpt>
      <trkpt lat="46.19672" lon="6.49685">
        <ele>877</ele>
        <time>2021-04-03T14:37:18Z</time>
      </trkpt>
      <trkpt lat="46.19666" lon="6.49682">
        <ele>876.8</ele>
        <time>2021-04-03T14:37:19Z</time>
      </trkpt>
      <trkpt lat="46.19659" lon="6.4968">
        <ele>876.8</ele>
        <time>2021-04-03T14:37:20Z</time>
      </trkpt>
      <trkpt lat="46.19653" lon="6.49677">
        <ele>876.8</ele>
        <time>2021-04-03T14:37:21Z</time>
      </trkpt>
      <trkpt lat="46.19647" lon="6.49674">
        <ele>876.6</ele>
        <time>2021-04-03T14:37:22Z</time>
      </trkpt>
      <trkpt lat="46.1964" lon="6.49671">
        <ele>876.6</ele>
        <time>2021-04-03T14:37:23Z</time>
      </trkpt>
      <trkpt lat="46.19633" lon="6.49668">
        <ele>876.6</ele>
        <time>2021-04-03T14:37:24Z</time>
      </trkpt>
      <trkpt lat="46.19626" lon="6.49665">
        <ele>876.2</ele>
        <time>2021-04-03T14:37:25Z</time>
      </trkpt>
      <trkpt lat="46.19619" lon="6.49662">
        <ele>876.4</ele>
        <time>2021-04-03T14:37:26Z</time>
      </trkpt>
      <trkpt lat="46.19612" lon="6.49659">
        <ele>876.4</ele>
        <time>2021-04-03T14:37:27Z</time>
      </trkpt>
      <trkpt lat="46.19605" lon="6.49656">
        <ele>876.2</ele>
        <time>2021-04-03T14:37:28Z</time>
      </trkpt>
      <trkpt lat="46.19598" lon="6.49653">
        <ele>876</ele>
        <time>2021-04-03T14:37:29Z</time>
      </trkpt>
      <trkpt lat="46.19591" lon="6.4965">
        <ele>876</ele>
        <time>2021-04-03T14:37:30Z</time>
      </trkpt>
      <trkpt lat="46.19583" lon="6.49647">
        <ele>876</ele>
        <time>2021-04-03T14:37:31Z</time>
      </trkpt>
      <trkpt lat="46.19576" lon="6.49644">
        <ele>876</ele>
        <time>2021-04-03T14:37:32Z</time>
      </trkpt>
      <trkpt lat="46.19569" lon="6.49641">
        <ele>876</ele>
        <time>2021-04-03T14:37:33Z</time>
      </trkpt>
      <trkpt lat="46.19562" lon="6.49638">
        <ele>876.2</ele>
        <time>2021-04-03T14:37:34Z</time>
      </trkpt>
      <trkpt lat="46.19554" lon="6.49634">
        <ele>876</ele>
        <time>2021-04-03T14:37:35Z</time>
      </trkpt>
      <trkpt lat="46.19547" lon="6.49631">
        <ele>876</ele>
        <time>2021-04-03T14:37:36Z</time>
      </trkpt>
      <trkpt lat="46.1954" lon="6.49628">
        <ele>876</ele>
        <time>2021-04-03T14:37:37Z</time>
      </trkpt>
      <trkpt lat="46.19533" lon="6.49625">
        <ele>876</ele>
        <time>2021-04-03T14:37:38Z</time>
      </trkpt>
      <trkpt lat="46.19526" lon="6.49623">
        <ele>876.2</ele>
        <time>2021-04-03T14:37:39Z</time>
      </trkpt>
      <trkpt lat="46.19518" lon="6.49619">
        <ele>876.2</ele>
        <time>2021-04-03T14:37:40Z</time>
      </trkpt>
      <trkpt lat="46.19511" lon="6.49616">
        <ele>876</ele>
        <time>2021-04-03T14:37:41Z</time>
      </trkpt>
      <trkpt lat="46.19503" lon="6.49613">
        <ele>876</ele>
        <time>2021-04-03T14:37:42Z</time>
      </trkpt>
      <trkpt lat="46.19496" lon="6.4961">
        <ele>876.2</ele>
        <time>2021-04-03T14:37:43Z</time>
      </trkpt>
      <trkpt lat="46.19488" lon="6.49606">
        <ele>876</ele>
        <time>2021-04-03T14:37:44Z</time>
      </trkpt>
      <trkpt lat="46.1948" lon="6.49603">
        <ele>876.2</ele>
        <time>2021-04-03T14:37:45Z</time>
      </trkpt>
      <trkpt lat="46.19473" lon="6.496">
        <ele>876</ele>
        <time>2021-04-03T14:37:46Z</time>
      </trkpt>
      <trkpt lat="46.19465" lon="6.49597">
        <ele>876</ele>
        <time>2021-04-03T14:37:47Z</time>
      </trkpt>
      <trkpt lat="46.19458" lon="6.49593">
        <ele>876</ele>
        <time>2021-04-03T14:37:48Z</time>
      </trkpt>
      <trkpt lat="46.1945" lon="6.4959">
        <ele>876.2</ele>
        <time>2021-04-03T14:37:49Z</time>
      </trkpt>
      <trkpt lat="46.19443" lon="6.49587">
        <ele>876.2</ele>
        <time>2021-04-03T14:37:50Z</time>
      </trkpt>
      <trkpt lat="46.19435" lon="6.49584">
        <ele>876</ele>
        <time>2021-04-03T14:37:51Z</time>
      </trkpt>
      <trkpt lat="46.19428" lon="6.4958">
        <ele>876</ele>
        <time>2021-04-03T14:37:52Z</time>
      </trkpt>
      <trkpt lat="46.19421" lon="6.49577">
        <ele>876</ele>
        <time>2021-04-03T14:37:53Z</time>
      </trkpt>
      <trkpt lat="46.19413" lon="6.49573">
        <ele>876.2</ele>
        <time>2021-04-03T14:37:54Z</time>
      </trkpt>
      <trkpt lat="46.19406" lon="6.49568">
        <ele>875.8</ele>
        <time>2021-04-03T14:37:55Z</time>
      </trkpt>
      <trkpt lat="46.19399" lon="6.49562">
        <ele>876</ele>
        <time>2021-04-03T14:37:56Z</time>
      </trkpt>
      <trkpt lat="46.19392" lon="6.49557">
        <ele>876</ele>
        <time>2021-04-03T14:37:57Z</time>
      </trkpt>
      <trkpt lat="46.19384" lon="6.4955">
        <ele>876</ele>
        <time>2021-04-03T14:37:58Z</time>
      </trkpt>
      <trkpt lat="46.19377" lon="6.49544">
        <ele>876</ele>
        <time>2021-04-03T14:37:59Z</time>
      </trkpt>
      <trkpt lat="46.1937" lon="6.49538">
        <ele>875.8</ele>
        <time>2021-04-03T14:38:00Z</time>
      </trkpt>
      <trkpt lat="46.19363" lon="6.49532">
        <ele>876</ele>
        <time>2021-04-03T14:38:01Z</time>
      </trkpt>
      <trkpt lat="46.19356" lon="6.49525">
        <ele>876</ele>
        <time>2021-04-03T14:38:02Z</time>
      </trkpt>
      <trkpt lat="46.19349" lon="6.49519">
        <ele>875.8</ele>
        <time>2021-04-03T14:38:03Z</time>
      </trkpt>
      <trkpt lat="46.19342" lon="6.49512">
        <ele>876</ele>
        <time>2021-04-03T14:38:04Z</time>
      </trkpt>
      <trkpt lat="46.19335" lon="6.49506">
        <ele>875.6</ele>
        <time>2021-04-03T14:38:05Z</time>
      </trkpt>
      <trkpt lat="46.19328" lon="6.49499">
        <ele>875.8</ele>
        <time>2021-04-03T14:38:06Z</time>
      </trkpt>
      <trkpt lat="46.1932" lon="6.49493">
        <ele>875.6</ele>
        <time>2021-04-03T14:38:07Z</time>
      </trkpt>
      <trkpt lat="46.19313" lon="6.49488">
        <ele>875.4</ele>
        <time>2021-04-03T14:38:08Z</time>
      </trkpt>
      <trkpt lat="46.19306" lon="6.49483">
        <ele>875.6</ele>
        <time>2021-04-03T14:38:09Z</time>
      </trkpt>
      <trkpt lat="46.19299" lon="6.49478">
        <ele>875.4</ele>
        <time>2021-04-03T14:38:10Z</time>
      </trkpt>
      <trkpt lat="46.19291" lon="6.49474">
        <ele>875.4</ele>
        <time>2021-04-03T14:38:11Z</time>
      </trkpt>
      <trkpt lat="46.19284" lon="6.49471">
        <ele>875.2</ele>
        <time>2021-04-03T14:38:12Z</time>
      </trkpt>
      <trkpt lat="46.19276" lon="6.49469">
        <ele>875</ele>
        <time>2021-04-03T14:38:13Z</time>
      </trkpt>
      <trkpt lat="46.19268" lon="6.49467">
        <ele>874.8</ele>
        <time>2021-04-03T14:38:14Z</time>
      </trkpt>
      <trkpt lat="46.1926" lon="6.49465">
        <ele>874.6</ele>
        <time>2021-04-03T14:38:15Z</time>
      </trkpt>
      <trkpt lat="46.19251" lon="6.49464">
        <ele>874.4</ele>
        <time>2021-04-03T14:38:16Z</time>
      </trkpt>
      <trkpt lat="46.19242" lon="6.49463">
        <ele>874.6</ele>
        <time>2021-04-03T14:38:17Z</time>
      </trkpt>
      <trkpt lat="46.19234" lon="6.49462">
        <ele>874.4</ele>
        <time>2021-04-03T14:38:18Z</time>
      </trkpt>
      <trkpt lat="46.19225" lon="6.49462">
        <ele>874.2</ele>
        <time>2021-04-03T14:38:19Z</time>
      </trkpt>
      <trkpt lat="46.19215" lon="6.49461">
        <ele>874</ele>
        <time>2021-04-03T14:38:20Z</time>
      </trkpt>
      <trkpt lat="46.19206" lon="6.49461">
        <ele>874</ele>
        <time>2021-04-03T14:38:21Z</time>
      </trkpt>
      <trkpt lat="46.19197" lon="6.49459">
        <ele>873.8</ele>
        <time>2021-04-03T14:38:22Z</time>
      </trkpt>
      <trkpt lat="46.19187" lon="6.49458">
        <ele>873.6</ele>
        <time>2021-04-03T14:38:23Z</time>
      </trkpt>
      <trkpt lat="46.19178" lon="6.49457">
        <ele>873.4</ele>
        <time>2021-04-03T14:38:24Z</time>
      </trkpt>
      <trkpt lat="46.19168" lon="6.49455">
        <ele>873.4</ele>
        <time>2021-04-03T14:38:25Z</time>
      </trkpt>
      <trkpt lat="46.19158" lon="6.49451">
        <ele>873.2</ele>
        <time>2021-04-03T14:38:26Z</time>
      </trkpt>
      <trkpt lat="46.19149" lon="6.49445">
        <ele>873</ele>
        <time>2021-04-03T14:38:27Z</time>
      </trkpt>
      <trkpt lat="46.19139" lon="6.49438">
        <ele>872.6</ele>
        <time>2021-04-03T14:38:28Z</time>
      </trkpt>
      <trkpt lat="46.1913" lon="6.4943">
        <ele>872.4</ele>
        <time>2021-04-03T14:38:29Z</time>
      </trkpt>
      <trkpt lat="46.1912" lon="6.49422">
        <ele>872</ele>
        <time>2021-04-03T14:38:30Z</time>
      </trkpt>
      <trkpt lat="46.1911" lon="6.49413">
        <ele>871.8</ele>
        <time>2021-04-03T14:38:31Z</time>
      </trkpt>
      <trkpt lat="46.19101" lon="6.49404">
        <ele>871.8</ele>
        <time>2021-04-03T14:38:32Z</time>
      </trkpt>
      <trkpt lat="46.19091" lon="6.49394">
        <ele>871.2</ele>
        <time>2021-04-03T14:38:33Z</time>
      </trkpt>
      <trkpt lat="46.19081" lon="6.49385">
        <ele>870.8</ele>
        <time>2021-04-03T14:38:34Z</time>
      </trkpt>
      <trkpt lat="46.1907" lon="6.49376">
        <ele>870.6</ele>
        <time>2021-04-03T14:38:35Z</time>
      </trkpt>
      <trkpt lat="46.19059" lon="6.49369">
        <ele>870.4</ele>
        <time>2021-04-03T14:38:36Z</time>
      </trkpt>
      <trkpt lat="46.19047" lon="6.49362">
        <ele>870</ele>
        <time>2021-04-03T14:38:37Z</time>
      </trkpt>
      <trkpt lat="46.19035" lon="6.49357">
        <ele>869.6</ele>
        <time>2021-04-03T14:38:38Z</time>
      </trkpt>
      <trkpt lat="46.19023" lon="6.49353">
        <ele>869.2</ele>
        <time>2021-04-03T14:38:39Z</time>
      </trkpt>
      <trkpt lat="46.1901" lon="6.4935">
        <ele>868.8</ele>
        <time>2021-04-03T14:38:40Z</time>
      </trkpt>
      <trkpt lat="46.18997" lon="6.4935">
        <ele>868.2</ele>
        <time>2021-04-03T14:38:41Z</time>
      </trkpt>
      <trkpt lat="46.18984" lon="6.49354">
        <ele>867.8</ele>
        <time>2021-04-03T14:38:42Z</time>
      </trkpt>
      <trkpt lat="46.18972" lon="6.49361">
        <ele>867.4</ele>
        <time>2021-04-03T14:38:43Z</time>
      </trkpt>
      <trkpt lat="46.18961" lon="6.49371">
        <ele>866.8</ele>
        <time>2021-04-03T14:38:44Z</time>
      </trkpt>
      <trkpt lat="46.18951" lon="6.49384">
        <ele>866.4</ele>
        <time>2021-04-03T14:38:45Z</time>
      </trkpt>
      <trkpt lat="46.18942" lon="6.49398">
        <ele>866.2</ele>
        <time>2021-04-03T14:38:46Z</time>
      </trkpt>
      <trkpt lat="46.18933" lon="6.49412">
        <ele>866</ele>
        <time>2021-04-03T14:38:47Z</time>
      </trkpt>
      <trkpt lat="46.18924" lon="6.49426">
        <ele>865.4</ele>
        <time>2021-04-03T14:38:48Z</time>
      </trkpt>
      <trkpt lat="46.18914" lon="6.4944">
        <ele>865.2</ele>
        <time>2021-04-03T14:38:49Z</time>
      </trkpt>
      <trkpt lat="46.18904" lon="6.49453">
        <ele>865.2</ele>
        <time>2021-04-03T14:38:50Z</time>
      </trkpt>
      <trkpt lat="46.18893" lon="6.49462">
        <ele>864.8</ele>
        <time>2021-04-03T14:38:51Z</time>
      </trkpt>
      <trkpt lat="46.1888" lon="6.49467">
        <ele>864.4</ele>
        <time>2021-04-03T14:38:52Z</time>
      </trkpt>
      <trkpt lat="46.18867" lon="6.49466">
        <ele>863.8</ele>
        <time>2021-04-03T14:38:53Z</time>
      </trkpt>
      <trkpt lat="46.18854" lon="6.49462">
        <ele>863.4</ele>
        <time>2021-04-03T14:38:54Z</time>
      </trkpt>
      <trkpt lat="46.18842" lon="6.49456">
        <ele>863.2</ele>
        <time>2021-04-03T14:38:55Z</time>
      </trkpt>
      <trkpt lat="46.1883" lon="6.4945">
        <ele>862.8</ele>
        <time>2021-04-03T14:38:56Z</time>
      </trkpt>
      <trkpt lat="46.18817" lon="6.49446">
        <ele>862.4</ele>
        <time>2021-04-03T14:38:57Z</time>
      </trkpt>
      <trkpt lat="46.18804" lon="6.49445">
        <ele>861.8</ele>
        <time>2021-04-03T14:38:58Z</time>
      </trkpt>
      <trkpt lat="46.18792" lon="6.49448">
        <ele>861.6</ele>
        <time>2021-04-03T14:38:59Z</time>
      </trkpt>
      <trkpt lat="46.1878" lon="6.49456">
        <ele>861.2</ele>
        <time>2021-04-03T14:39:00Z</time>
      </trkpt>
      <trkpt lat="46.1877" lon="6.49465">
        <ele>860.8</ele>
        <time>2021-04-03T14:39:01Z</time>
      </trkpt>
      <trkpt lat="46.18762" lon="6.49477">
        <ele>860.2</ele>
        <time>2021-04-03T14:39:02Z</time>
      </trkpt>
      <trkpt lat="46.18754" lon="6.4949">
        <ele>859.6</ele>
        <time>2021-04-03T14:39:03Z</time>
      </trkpt>
      <trkpt lat="46.18746" lon="6.49504">
        <ele>858.6</ele>
        <time>2021-04-03T14:39:04Z</time>
      </trkpt>
      <trkpt lat="46.18738" lon="6.49517">
        <ele>858.2</ele>
        <time>2021-04-03T14:39:05Z</time>
      </trkpt>
      <trkpt lat="46.18731" lon="6.4953">
        <ele>857.8</ele>
        <time>2021-04-03T14:39:06Z</time>
      </trkpt>
      <trkpt lat="46.18723" lon="6.49544">
        <ele>857.4</ele>
        <time>2021-04-03T14:39:07Z</time>
      </trkpt>
      <trkpt lat="46.18715" lon="6.49557">
        <ele>857.4</ele>
        <time>2021-04-03T14:39:08Z</time>
      </trkpt>
      <trkpt lat="46.18707" lon="6.4957">
        <ele>857.4</ele>
        <time>2021-04-03T14:39:09Z</time>
      </trkpt>
      <trkpt lat="46.18698" lon="6.49581">
        <ele>857.2</ele>
        <time>2021-04-03T14:39:10Z</time>
      </trkpt>
      <trkpt lat="46.18688" lon="6.4959">
        <ele>857.2</ele>
        <time>2021-04-03T14:39:11Z</time>
      </trkpt>
      <trkpt lat="46.18677" lon="6.49598">
        <ele>857</ele>
        <time>2021-04-03T14:39:12Z</time>
      </trkpt>
      <trkpt lat="46.18666" lon="6.49604">
        <ele>856.6</ele>
        <time>2021-04-03T14:39:13Z</time>
      </trkpt>
      <trkpt lat="46.18655" lon="6.4961">
        <ele>856.2</ele>
        <time>2021-04-03T14:39:14Z</time>
      </trkpt>
      <trkpt lat="46.18643" lon="6.49617">
        <ele>856</ele>
        <time>2021-04-03T14:39:15Z</time>
      </trkpt>
      <trkpt lat="46.18632" lon="6.49627">
        <ele>855.6</ele>
        <time>2021-04-03T14:39:16Z</time>
      </trkpt>
      <trkpt lat="46.18621" lon="6.49638">
        <ele>855.2</ele>
        <time>2021-04-03T14:39:17Z</time>
      </trkpt>
      <trkpt lat="46.18611" lon="6.49651">
        <ele>854.8</ele>
        <time>2021-04-03T14:39:18Z</time>
      </trkpt>
      <trkpt lat="46.18603" lon="6.49665">
        <ele>854.4</ele>
        <time>2021-04-03T14:39:19Z</time>
      </trkpt>
      <trkpt lat="46.18594" lon="6.4968">
        <ele>854</ele>
        <time>2021-04-03T14:39:20Z</time>
      </trkpt>
      <trkpt lat="46.18585" lon="6.49695">
        <ele>854</ele>
        <time>2021-04-03T14:39:21Z</time>
      </trkpt>
      <trkpt lat="46.18576" lon="6.49708">
        <ele>853.8</ele>
        <time>2021-04-03T14:39:22Z</time>
      </trkpt>
      <trkpt lat="46.18567" lon="6.49722">
        <ele>853.4</ele>
        <time>2021-04-03T14:39:23Z</time>
      </trkpt>
      <trkpt lat="46.18557" lon="6.49736">
        <ele>853</ele>
        <time>2021-04-03T14:39:24Z</time>
      </trkpt>
      <trkpt lat="46.18547" lon="6.49748">
        <ele>852.8</ele>
        <time>2021-04-03T14:39:25Z</time>
      </trkpt>
      <trkpt lat="46.18536" lon="6.4976">
        <ele>852.6</ele>
        <time>2021-04-03T14:39:26Z</time>
      </trkpt>
      <trkpt lat="46.18525" lon="6.49772">
        <ele>852.4</ele>
        <time>2021-04-03T14:39:27Z</time>
      </trkpt>
      <trkpt lat="46.18514" lon="6.49782">
        <ele>852.2</ele>
        <time>2021-04-03T14:39:28Z</time>
      </trkpt>
      <trkpt lat="46.18503" lon="6.49793">
        <ele>852</ele>
        <time>2021-04-03T14:39:29Z</time>
      </trkpt>
      <trkpt lat="46.18492" lon="6.49804">
        <ele>852</ele>
        <time>2021-04-03T14:39:30Z</time>
      </trkpt>
      <trkpt lat="46.18481" lon="6.49814">
        <ele>851.8</ele>
        <time>2021-04-03T14:39:31Z</time>
      </trkpt>
      <trkpt lat="46.1847" lon="6.49824">
        <ele>851.8</ele>
        <time>2021-04-03T14:39:32Z</time>
      </trkpt>
      <trkpt lat="46.18459" lon="6.4983">
        <ele>851.6</ele>
        <time>2021-04-03T14:39:33Z</time>
      </trkpt>
      <trkpt lat="46.18446" lon="6.49837">
        <ele>851.4</ele>
        <time>2021-04-03T14:39:34Z</time>
      </trkpt>
      <trkpt lat="46.18433" lon="6.49843">
        <ele>851.2</ele>
        <time>2021-04-03T14:39:35Z</time>
      </trkpt>
      <trkpt lat="46.1842" lon="6.49849">
        <ele>851</ele>
        <time>2021-04-03T14:39:36Z</time>
      </trkpt>
      <trkpt lat="46.18408" lon="6.49856">
        <ele>851.2</ele>
        <time>2021-04-03T14:39:37Z</time>
      </trkpt>
      <trkpt lat="46.18396" lon="6.49864">
        <ele>851</ele>
        <time>2021-04-03T14:39:38Z</time>
      </trkpt>
      <trkpt lat="46.18385" lon="6.49872">
        <ele>850.6</ele>
        <time>2021-04-03T14:39:39Z</time>
      </trkpt>
      <trkpt lat="46.18374" lon="6.49882">
        <ele>850</ele>
        <time>2021-04-03T14:39:40Z</time>
      </trkpt>
      <trkpt lat="46.18364" lon="6.49894">
        <ele>849</ele>
        <time>2021-04-03T14:39:41Z</time>
      </trkpt>
      <trkpt lat="46.18356" lon="6.49907">
        <ele>848.4</ele>
        <time>2021-04-03T14:39:42Z</time>
      </trkpt>
      <trkpt lat="46.18348" lon="6.49922">
        <ele>848.2</ele>
        <time>2021-04-03T14:39:43Z</time>
      </trkpt>
      <trkpt lat="46.18342" lon="6.49936">
        <ele>848</ele>
        <time>2021-04-03T14:39:44Z</time>
      </trkpt>
      <trkpt lat="46.18335" lon="6.4995">
        <ele>847.8</ele>
        <time>2021-04-03T14:39:45Z</time>
      </trkpt>
      <trkpt lat="46.18327" lon="6.49963">
        <ele>847.6</ele>
        <time>2021-04-03T14:39:46Z</time>
      </trkpt>
      <trkpt lat="46.18318" lon="6.49974">
        <ele>847.4</ele>
        <time>2021-04-03T14:39:47Z</time>
      </trkpt>
      <trkpt lat="46.18308" lon="6.49983">
        <ele>847.4</ele>
        <time>2021-04-03T14:39:48Z</time>
      </trkpt>
      <trkpt lat="46.18299" lon="6.49992">
        <ele>847.2</ele>
        <time>2021-04-03T14:39:49Z</time>
      </trkpt>
      <trkpt lat="46.18289" lon="6.49999">
        <ele>846.8</ele>
        <time>2021-04-03T14:39:50Z</time>
      </trkpt>
      <trkpt lat="46.18278" lon="6.50002">
        <ele>846.8</ele>
        <time>2021-04-03T14:39:51Z</time>
      </trkpt>
      <trkpt lat="46.18267" lon="6.49999">
        <ele>846.8</ele>
        <time>2021-04-03T14:39:52Z</time>
      </trkpt>
      <trkpt lat="46.18258" lon="6.49992">
        <ele>846.6</ele>
        <time>2021-04-03T14:39:53Z</time>
      </trkpt>
      <trkpt lat="46.1825" lon="6.49981">
        <ele>846.6</ele>
        <time>2021-04-03T14:39:54Z</time>
      </trkpt>
      <trkpt lat="46.18244" lon="6.49968">
        <ele>846.6</ele>
        <time>2021-04-03T14:39:55Z</time>
      </trkpt>
      <trkpt lat="46.18239" lon="6.49953">
        <ele>846.4</ele>
        <time>2021-04-03T14:39:56Z</time>
      </trkpt>
      <trkpt lat="46.18235" lon="6.49937">
        <ele>846.4</ele>
        <time>2021-04-03T14:39:57Z</time>
      </trkpt>
      <trkpt lat="46.18231" lon="6.4992">
        <ele>846.4</ele>
        <time>2021-04-03T14:39:58Z</time>
      </trkpt>
      <trkpt lat="46.18226" lon="6.49903">
        <ele>846.2</ele>
        <time>2021-04-03T14:39:59Z</time>
      </trkpt>
      <trkpt lat="46.1822" lon="6.49888">
        <ele>846.2</ele>
        <time>2021-04-03T14:40:00Z</time>
      </trkpt>
      <trkpt lat="46.18212" lon="6.49876">
        <ele>846</ele>
        <time>2021-04-03T14:40:01Z</time>
      </trkpt>
      <trkpt lat="46.18202" lon="6.49868">
        <ele>846</ele>
        <time>2021-04-03T14:40:02Z</time>
      </trkpt>
      <trkpt lat="46.18191" lon="6.49861">
        <ele>845.8</ele>
        <time>2021-04-03T14:40:03Z</time>
      </trkpt>
      <trkpt lat="46.1818" lon="6.49854">
        <ele>845.8</ele>
        <time>2021-04-03T14:40:04Z</time>
      </trkpt>
      <trkpt lat="46.18169" lon="6.49846">
        <ele>845.4</ele>
        <time>2021-04-03T14:40:05Z</time>
      </trkpt>
      <trkpt lat="46.18157" lon="6.49839">
        <ele>845.4</ele>
        <time>2021-04-03T14:40:06Z</time>
      </trkpt>
      <trkpt lat="46.18145" lon="6.49833">
        <ele>845</ele>
        <time>2021-04-03T14:40:07Z</time>
      </trkpt>
      <trkpt lat="46.18133" lon="6.49827">
        <ele>844.8</ele>
        <time>2021-04-03T14:40:08Z</time>
      </trkpt>
      <trkpt lat="46.18122" lon="6.4982">
        <ele>844.4</ele>
        <time>2021-04-03T14:40:09Z</time>
      </trkpt>
      <trkpt lat="46.18111" lon="6.49811">
        <ele>843.6</ele>
        <time>2021-04-03T14:40:10Z</time>
      </trkpt>
      <trkpt lat="46.18103" lon="6.49798">
        <ele>843</ele>
        <time>2021-04-03T14:40:11Z</time>
      </trkpt>
      <trkpt lat="46.18095" lon="6.49784">
        <ele>842.8</ele>
        <time>2021-04-03T14:40:12Z</time>
      </trkpt>
      <trkpt lat="46.18089" lon="6.49769">
        <ele>842.4</ele>
        <time>2021-04-03T14:40:13Z</time>
      </trkpt>
      <trkpt lat="46.18083" lon="6.49754">
        <ele>842.2</ele>
        <time>2021-04-03T14:40:14Z</time>
      </trkpt>
      <trkpt lat="46.18077" lon="6.49738">
        <ele>841.8</ele>
        <time>2021-04-03T14:40:15Z</time>
      </trkpt>
      <trkpt lat="46.18072" lon="6.49722">
        <ele>841.8</ele>
        <time>2021-04-03T14:40:16Z</time>
      </trkpt>
      <trkpt lat="46.18066" lon="6.49706">
        <ele>841.4</ele>
        <time>2021-04-03T14:40:17Z</time>
      </trkpt>
      <trkpt lat="46.18059" lon="6.49692">
        <ele>841.2</ele>
        <time>2021-04-03T14:40:18Z</time>
      </trkpt>
      <trkpt lat="46.18052" lon="6.49679">
        <ele>840.8</ele>
        <time>2021-04-03T14:40:19Z</time>
      </trkpt>
      <trkpt lat="46.18043" lon="6.49669">
        <ele>840.6</ele>
        <time>2021-04-03T14:40:20Z</time>
      </trkpt>
      <trkpt lat="46.18035" lon="6.49658">
        <ele>840.6</ele>
        <time>2021-04-03T14:40:21Z</time>
      </trkpt>
      <trkpt lat="46.18025" lon="6.49649">
        <ele>840.4</ele>
        <time>2021-04-03T14:40:22Z</time>
      </trkpt>
      <trkpt lat="46.18016" lon="6.49639">
        <ele>840.4</ele>
        <time>2021-04-03T14:40:23Z</time>
      </trkpt>
      <trkpt lat="46.18007" lon="6.4963">
        <ele>840</ele>
        <time>2021-04-03T14:40:24Z</time>
      </trkpt>
      <trkpt lat="46.17998" lon="6.4962">
        <ele>838.4</ele>
        <time>2021-04-03T14:40:25Z</time>
      </trkpt>
      <trkpt lat="46.17989" lon="6.49611">
        <ele>837.4</ele>
        <time>2021-04-03T14:40:26Z</time>
      </trkpt>
      <trkpt lat="46.17979" lon="6.49603">
        <ele>836.8</ele>
        <time>2021-04-03T14:40:27Z</time>
      </trkpt>
      <trkpt lat="46.1797" lon="6.49594">
        <ele>836.4</ele>
        <time>2021-04-03T14:40:28Z</time>
      </trkpt>
      <trkpt lat="46.1796" lon="6.49586">
        <ele>836</ele>
        <time>2021-04-03T14:40:29Z</time>
      </trkpt>
      <trkpt lat="46.17949" lon="6.49578">
        <ele>836</ele>
        <time>2021-04-03T14:40:30Z</time>
      </trkpt>
      <trkpt lat="46.17938" lon="6.49572">
        <ele>836</ele>
        <time>2021-04-03T14:40:31Z</time>
      </trkpt>
      <trkpt lat="46.17927" lon="6.49567">
        <ele>835.8</ele>
        <time>2021-04-03T14:40:32Z</time>
      </trkpt>
      <trkpt lat="46.17916" lon="6.49564">
        <ele>835.8</ele>
        <time>2021-04-03T14:40:33Z</time>
      </trkpt>
      <trkpt lat="46.17904" lon="6.49561">
        <ele>835.6</ele>
        <time>2021-04-03T14:40:34Z</time>
      </trkpt>
      <trkpt lat="46.17891" lon="6.49558">
        <ele>835.6</ele>
        <time>2021-04-03T14:40:35Z</time>
      </trkpt>
      <trkpt lat="46.17879" lon="6.49555">
        <ele>835.6</ele>
        <time>2021-04-03T14:40:36Z</time>
      </trkpt>
      <trkpt lat="46.17868" lon="6.49551">
        <ele>835.6</ele>
        <time>2021-04-03T14:40:37Z</time>
      </trkpt>
      <trkpt lat="46.17857" lon="6.49544">
        <ele>835.4</ele>
        <time>2021-04-03T14:40:38Z</time>
      </trkpt>
      <trkpt lat="46.17848" lon="6.49533">
        <ele>835.4</ele>
        <time>2021-04-03T14:40:39Z</time>
      </trkpt>
      <trkpt lat="46.17841" lon="6.49521">
        <ele>835.4</ele>
        <time>2021-04-03T14:40:40Z</time>
      </trkpt>
      <trkpt lat="46.17834" lon="6.49508">
        <ele>835.2</ele>
        <time>2021-04-03T14:40:41Z</time>
      </trkpt>
      <trkpt lat="46.17827" lon="6.49494">
        <ele>834.6</ele>
        <time>2021-04-03T14:40:42Z</time>
      </trkpt>
      <trkpt lat="46.1782" lon="6.4948">
        <ele>833.6</ele>
        <time>2021-04-03T14:40:43Z</time>
      </trkpt>
      <trkpt lat="46.17814" lon="6.49466">
        <ele>831.8</ele>
        <time>2021-04-03T14:40:44Z</time>
      </trkpt>
      <trkpt lat="46.17807" lon="6.49451">
        <ele>830.6</ele>
        <time>2021-04-03T14:40:45Z</time>
      </trkpt>
      <trkpt lat="46.17801" lon="6.49436">
        <ele>830</ele>
        <time>2021-04-03T14:40:46Z</time>
      </trkpt>
      <trkpt lat="46.17795" lon="6.49421">
        <ele>829.4</ele>
        <time>2021-04-03T14:40:47Z</time>
      </trkpt>
      <trkpt lat="46.1779" lon="6.49404">
        <ele>829.2</ele>
        <time>2021-04-03T14:40:48Z</time>
      </trkpt>
      <trkpt lat="46.17784" lon="6.49388">
        <ele>828.4</ele>
        <time>2021-04-03T14:40:49Z</time>
      </trkpt>
      <trkpt lat="46.17779" lon="6.49371">
        <ele>828</ele>
        <time>2021-04-03T14:40:50Z</time>
      </trkpt>
      <trkpt lat="46.17773" lon="6.49355">
        <ele>827.2</ele>
        <time>2021-04-03T14:40:51Z</time>
      </trkpt>
      <trkpt lat="46.17768" lon="6.49338">
        <ele>827</ele>
        <time>2021-04-03T14:40:52Z</time>
      </trkpt>
      <trkpt lat="46.17762" lon="6.49322">
        <ele>826.6</ele>
        <time>2021-04-03T14:40:53Z</time>
      </trkpt>
      <trkpt lat="46.17757" lon="6.49305">
        <ele>826.4</ele>
        <time>2021-04-03T14:40:54Z</time>
      </trkpt>
      <trkpt lat="46.17752" lon="6.49288">
        <ele>826.4</ele>
        <time>2021-04-03T14:40:55Z</time>
      </trkpt>
      <trkpt lat="46.17749" lon="6.49271">
        <ele>826.2</ele>
        <time>2021-04-03T14:40:56Z</time>
      </trkpt>
      <trkpt lat="46.17746" lon="6.49253">
        <ele>826.2</ele>
        <time>2021-04-03T14:40:57Z</time>
      </trkpt>
      <trkpt lat="46.17744" lon="6.49234">
        <ele>826</ele>
        <time>2021-04-03T14:40:58Z</time>
      </trkpt>
      <trkpt lat="46.17742" lon="6.49215">
        <ele>825</ele>
        <time>2021-04-03T14:40:59Z</time>
      </trkpt>
      <trkpt lat="46.1774" lon="6.49197">
        <ele>824.2</ele>
        <time>2021-04-03T14:41:00Z</time>
      </trkpt>
      <trkpt lat="46.17737" lon="6.49178">
        <ele>824.2</ele>
        <time>2021-04-03T14:41:01Z</time>
      </trkpt>
      <trkpt lat="46.17732" lon="6.49159">
        <ele>823.4</ele>
        <time>2021-04-03T14:41:02Z</time>
      </trkpt>
      <trkpt lat="46.17728" lon="6.4914">
        <ele>822.4</ele>
        <time>2021-04-03T14:41:03Z</time>
      </trkpt>
      <trkpt lat="46.17723" lon="6.49121">
        <ele>821.8</ele>
        <time>2021-04-03T14:41:04Z</time>
      </trkpt>
      <trkpt lat="46.17718" lon="6.49103">
        <ele>821.4</ele>
        <time>2021-04-03T14:41:05Z</time>
      </trkpt>
      <trkpt lat="46.17712" lon="6.49084">
        <ele>821</ele>
        <time>2021-04-03T14:41:06Z</time>
      </trkpt>
      <trkpt lat="46.17707" lon="6.49065">
        <ele>820.4</ele>
        <time>2021-04-03T14:41:07Z</time>
      </trkpt>
      <trkpt lat="46.17702" lon="6.49047">
        <ele>819.8</ele>
        <time>2021-04-03T14:41:08Z</time>
      </trkpt>
      <trkpt lat="46.17696" lon="6.49028">
        <ele>819.2</ele>
        <time>2021-04-03T14:41:09Z</time>
      </trkpt>
      <trkpt lat="46.17691" lon="6.4901">
        <ele>818.6</ele>
        <time>2021-04-03T14:41:10Z</time>
      </trkpt>
      <trkpt lat="46.17686" lon="6.48992">
        <ele>818.4</ele>
        <time>2021-04-03T14:41:11Z</time>
      </trkpt>
      <trkpt lat="46.17679" lon="6.48976">
        <ele>817.8</ele>
        <time>2021-04-03T14:41:12Z</time>
      </trkpt>
      <trkpt lat="46.1767" lon="6.48962">
        <ele>817.2</ele>
        <time>2021-04-03T14:41:13Z</time>
      </trkpt>
      <trkpt lat="46.17661" lon="6.48949">
        <ele>816.4</ele>
        <time>2021-04-03T14:41:14Z</time>
      </trkpt>
      <trkpt lat="46.17651" lon="6.48937">
        <ele>816</ele>
        <time>2021-04-03T14:41:15Z</time>
      </trkpt>
      <trkpt lat="46.1764" lon="6.48925">
        <ele>815.2</ele>
        <time>2021-04-03T14:41:16Z</time>
      </trkpt>
      <trkpt lat="46.1763" lon="6.48914">
        <ele>814.6</ele>
        <time>2021-04-03T14:41:17Z</time>
      </trkpt>
      <trkpt lat="46.1762" lon="6.48901">
        <ele>814</ele>
        <time>2021-04-03T14:41:18Z</time>
      </trkpt>
      <trkpt lat="46.17611" lon="6.48889">
        <ele>813.4</ele>
        <time>2021-04-03T14:41:19Z</time>
      </trkpt>
      <trkpt lat="46.17602" lon="6.48875">
        <ele>812.6</ele>
        <time>2021-04-03T14:41:20Z</time>
      </trkpt>
      <trkpt lat="46.17595" lon="6.48859">
        <ele>812</ele>
        <time>2021-04-03T14:41:21Z</time>
      </trkpt>
      <trkpt lat="46.17589" lon="6.48843">
        <ele>810.8</ele>
        <time>2021-04-03T14:41:22Z</time>
      </trkpt>
      <trkpt lat="46.17584" lon="6.48826">
        <ele>810.2</ele>
        <time>2021-04-03T14:41:23Z</time>
      </trkpt>
      <trkpt lat="46.1758" lon="6.48808">
        <ele>809.2</ele>
        <time>2021-04-03T14:41:24Z</time>
      </trkpt>
      <trkpt lat="46.17578" lon="6.48789">
        <ele>808.8</ele>
        <time>2021-04-03T14:41:25Z</time>
      </trkpt>
      <trkpt lat="46.17575" lon="6.4877">
        <ele>808.2</ele>
        <time>2021-04-03T14:41:26Z</time>
      </trkpt>
      <trkpt lat="46.17572" lon="6.48752">
        <ele>807.4</ele>
        <time>2021-04-03T14:41:27Z</time>
      </trkpt>
      <trkpt lat="46.17568" lon="6.48735">
        <ele>807.2</ele>
        <time>2021-04-03T14:41:28Z</time>
      </trkpt>
      <trkpt lat="46.17563" lon="6.48719">
        <ele>806.6</ele>
        <time>2021-04-03T14:41:29Z</time>
      </trkpt>
      <trkpt lat="46.17558" lon="6.48703">
        <ele>805.8</ele>
        <time>2021-04-03T14:41:30Z</time>
      </trkpt>
      <trkpt lat="46.17553" lon="6.48687">
        <ele>805</ele>
        <time>2021-04-03T14:41:31Z</time>
      </trkpt>
      <trkpt lat="46.17548" lon="6.48672">
        <ele>804</ele>
        <time>2021-04-03T14:41:32Z</time>
      </trkpt>
      <trkpt lat="46.17543" lon="6.48656">
        <ele>803.2</ele>
        <time>2021-04-03T14:41:33Z</time>
      </trkpt>
      <trkpt lat="46.17538" lon="6.4864">
        <ele>802.6</ele>
        <time>2021-04-03T14:41:34Z</time>
      </trkpt>
      <trkpt lat="46.17531" lon="6.48626">
        <ele>802</ele>
        <time>2021-04-03T14:41:35Z</time>
      </trkpt>
      <trkpt lat="46.17523" lon="6.48614">
        <ele>801.6</ele>
        <time>2021-04-03T14:41:36Z</time>
      </trkpt>
      <trkpt lat="46.17515" lon="6.48603">
        <ele>800.6</ele>
        <time>2021-04-03T14:41:37Z</time>
      </trkpt>
      <trkpt lat="46.17507" lon="6.48593">
        <ele>799.6</ele>
        <time>2021-04-03T14:41:38Z</time>
      </trkpt>
      <trkpt lat="46.17491" lon="6.48575">
        <ele>798.4</ele>
        <time>2021-04-03T14:41:40Z</time>
      </trkpt>
      <trkpt lat="46.17484" lon="6.48567">
        <ele>798.2</ele>
        <time>2021-04-03T14:41:41Z</time>
      </trkpt>
      <trkpt lat="46.17476" lon="6.48559">
        <ele>798</ele>
        <time>2021-04-03T14:41:42Z</time>
      </trkpt>
      <trkpt lat="46.17469" lon="6.48551">
        <ele>797.2</ele>
        <time>2021-04-03T14:41:43Z</time>
      </trkpt>
      <trkpt lat="46.17461" lon="6.48543">
        <ele>796.2</ele>
        <time>2021-04-03T14:41:44Z</time>
      </trkpt>
      <trkpt lat="46.17454" lon="6.48535">
        <ele>795.2</ele>
        <time>2021-04-03T14:41:45Z</time>
      </trkpt>
      <trkpt lat="46.17447" lon="6.48525">
        <ele>794.6</ele>
        <time>2021-04-03T14:41:46Z</time>
      </trkpt>
      <trkpt lat="46.1744" lon="6.48515">
        <ele>794</ele>
        <time>2021-04-03T14:41:47Z</time>
      </trkpt>
      <trkpt lat="46.17434" lon="6.48504">
        <ele>793.8</ele>
        <time>2021-04-03T14:41:48Z</time>
      </trkpt>
      <trkpt lat="46.17428" lon="6.48493">
        <ele>793.6</ele>
        <time>2021-04-03T14:41:49Z</time>
      </trkpt>
      <trkpt lat="46.17422" lon="6.48482">
        <ele>793.2</ele>
        <time>2021-04-03T14:41:50Z</time>
      </trkpt>
      <trkpt lat="46.17416" lon="6.48471">
        <ele>793</ele>
        <time>2021-04-03T14:41:51Z</time>
      </trkpt>
      <trkpt lat="46.17411" lon="6.4846">
        <ele>792.4</ele>
        <time>2021-04-03T14:41:52Z</time>
      </trkpt>
      <trkpt lat="46.17405" lon="6.48449">
        <ele>792.2</ele>
        <time>2021-04-03T14:41:53Z</time>
      </trkpt>
      <trkpt lat="46.174" lon="6.48438">
        <ele>791.8</ele>
        <time>2021-04-03T14:41:54Z</time>
      </trkpt>
      <trkpt lat="46.17395" lon="6.48427">
        <ele>791.4</ele>
        <time>2021-04-03T14:41:55Z</time>
      </trkpt>
      <trkpt lat="46.17389" lon="6.48417">
        <ele>791</ele>
        <time>2021-04-03T14:41:56Z</time>
      </trkpt>
      <trkpt lat="46.17384" lon="6.48406">
        <ele>790.4</ele>
        <time>2021-04-03T14:41:57Z</time>
      </trkpt>
      <trkpt lat="46.17379" lon="6.48396">
        <ele>790</ele>
        <time>2021-04-03T14:41:58Z</time>
      </trkpt>
      <trkpt lat="46.17374" lon="6.48386">
        <ele>789.4</ele>
        <time>2021-04-03T14:41:59Z</time>
      </trkpt>
      <trkpt lat="46.17369" lon="6.48376">
        <ele>789.2</ele>
        <time>2021-04-03T14:42:00Z</time>
      </trkpt>
      <trkpt lat="46.17364" lon="6.48366">
        <ele>789</ele>
        <time>2021-04-03T14:42:01Z</time>
      </trkpt>
      <trkpt lat="46.17359" lon="6.48355">
        <ele>788.8</ele>
        <time>2021-04-03T14:42:02Z</time>
      </trkpt>
      <trkpt lat="46.17354" lon="6.48345">
        <ele>788.6</ele>
        <time>2021-04-03T14:42:03Z</time>
      </trkpt>
      <trkpt lat="46.17348" lon="6.48334">
        <ele>788.4</ele>
        <time>2021-04-03T14:42:04Z</time>
      </trkpt>
      <trkpt lat="46.17343" lon="6.48324">
        <ele>788</ele>
        <time>2021-04-03T14:42:05Z</time>
      </trkpt>
      <trkpt lat="46.17338" lon="6.48313">
        <ele>787.8</ele>
        <time>2021-04-03T14:42:06Z</time>
      </trkpt>
      <trkpt lat="46.17333" lon="6.48303">
        <ele>787.6</ele>
        <time>2021-04-03T14:42:07Z</time>
      </trkpt>
      <trkpt lat="46.17327" lon="6.48293">
        <ele>787.6</ele>
        <time>2021-04-03T14:42:08Z</time>
      </trkpt>
      <trkpt lat="46.17323" lon="6.48283">
        <ele>787.4</ele>
        <time>2021-04-03T14:42:09Z</time>
      </trkpt>
      <trkpt lat="46.17318" lon="6.48273">
        <ele>787</ele>
        <time>2021-04-03T14:42:10Z</time>
      </trkpt>
      <trkpt lat="46.17313" lon="6.48263">
        <ele>786.8</ele>
        <time>2021-04-03T14:42:11Z</time>
      </trkpt>
      <trkpt lat="46.17308" lon="6.48253">
        <ele>786.4</ele>
        <time>2021-04-03T14:42:12Z</time>
      </trkpt>
      <trkpt lat="46.17302" lon="6.48245">
        <ele>785.8</ele>
        <time>2021-04-03T14:42:13Z</time>
      </trkpt>
      <trkpt lat="46.17296" lon="6.48236">
        <ele>785.6</ele>
        <time>2021-04-03T14:42:14Z</time>
      </trkpt>
      <trkpt lat="46.1729" lon="6.48228">
        <ele>785.4</ele>
        <time>2021-04-03T14:42:15Z</time>
      </trkpt>
      <trkpt lat="46.17285" lon="6.4822">
        <ele>785.4</ele>
        <time>2021-04-03T14:42:16Z</time>
      </trkpt>
      <trkpt lat="46.1728" lon="6.48213">
        <ele>785.4</ele>
        <time>2021-04-03T14:42:17Z</time>
      </trkpt>
      <trkpt lat="46.17274" lon="6.48206">
        <ele>785.4</ele>
        <time>2021-04-03T14:42:18Z</time>
      </trkpt>
      <trkpt lat="46.17269" lon="6.48199">
        <ele>785.2</ele>
        <time>2021-04-03T14:42:19Z</time>
      </trkpt>
      <trkpt lat="46.17264" lon="6.48193">
        <ele>785.4</ele>
        <time>2021-04-03T14:42:20Z</time>
      </trkpt>
      <trkpt lat="46.1726" lon="6.48187">
        <ele>785.4</ele>
        <time>2021-04-03T14:42:21Z</time>
      </trkpt>
      <trkpt lat="46.17256" lon="6.48182">
        <ele>785.6</ele>
        <time>2021-04-03T14:42:22Z</time>
      </trkpt>
      <trkpt lat="46.17252" lon="6.48177">
        <ele>785.6</ele>
        <time>2021-04-03T14:42:23Z</time>
      </trkpt>
      <trkpt lat="46.17249" lon="6.48172">
        <ele>785.6</ele>
        <time>2021-04-03T14:42:24Z</time>
      </trkpt>
      <trkpt lat="46.17246" lon="6.48168">
        <ele>785.8</ele>
        <time>2021-04-03T14:42:25Z</time>
      </trkpt>
      <trkpt lat="46.17244" lon="6.48164">
        <ele>785.8</ele>
        <time>2021-04-03T14:42:26Z</time>
      </trkpt>
      <trkpt lat="46.17243" lon="6.4816">
        <ele>785.6</ele>
        <time>2021-04-03T14:42:27Z</time>
      </trkpt>
      <trkpt lat="46.17242" lon="6.48156">
        <ele>785.8</ele>
        <time>2021-04-03T14:42:28Z</time>
      </trkpt>
      <trkpt lat="46.17241" lon="6.48153">
        <ele>785.8</ele>
        <time>2021-04-03T14:42:29Z</time>
      </trkpt>
      <trkpt lat="46.1724" lon="6.48152">
        <ele>785.8</ele>
        <time>2021-04-03T14:42:30Z</time>
      </trkpt>
      <trkpt lat="46.1724" lon="6.48152">
        <ele>785.8</ele>
        <time>2021-04-03T14:42:31Z</time>
      </trkpt>
      <trkpt lat="46.17241" lon="6.48152">
        <ele>785.8</ele>
        <time>2021-04-03T14:42:32Z</time>
      </trkpt>
      <trkpt lat="46.17241" lon="6.48153">
        <ele>785.8</ele>
        <time>2021-04-03T14:42:33Z</time>
      </trkpt>
      <trkpt lat="46.17241" lon="6.48153">
        <ele>785.8</ele>
        <time>2021-04-03T14:42:34Z</time>
      </trkpt>
      <trkpt lat="46.17241" lon="6.48153">
        <ele>785.8</ele>
        <time>2021-04-03T14:42:35Z</time>
      </trkpt>
      <trkpt lat="46.17241" lon="6.48154">
        <ele>785.8</ele>
        <time>2021-04-03T14:42:36Z</time>
      </trkpt>
      <trkpt lat="46.17242" lon="6.48154">
        <ele>785.8</ele>
        <time>2021-04-03T14:42:38Z</time>
      </trkpt>
      <trkpt lat="46.17242" lon="6.48154">
        <ele>785.8</ele>
        <time>2021-04-03T14:42:39Z</time>
      </trkpt>
      <trkpt lat="46.17242" lon="6.48154">
        <ele>786</ele>
        <time>2021-04-03T14:42:40Z</time>
      </trkpt>
      <trkpt lat="46.17241" lon="6.48154">
        <ele>786</ele>
        <time>2021-04-03T14:42:42Z</time>
      </trkpt>
      <trkpt lat="46.17241" lon="6.48154">
        <ele>786.2</ele>
        <time>2021-04-03T14:42:43Z</time>
      </trkpt>
      <trkpt lat="46.17241" lon="6.48153">
        <ele>786.2</ele>
        <time>2021-04-03T14:42:44Z</time>
      </trkpt>
      <trkpt lat="46.1724" lon="6.48153">
        <ele>786.2</ele>
        <time>2021-04-03T14:42:45Z</time>
      </trkpt>
      <trkpt lat="46.17239" lon="6.48152">
        <ele>786.4</ele>
        <time>2021-04-03T14:42:46Z</time>
      </trkpt>
      <trkpt lat="46.17238" lon="6.48152">
        <ele>786.4</ele>
        <time>2021-04-03T14:42:47Z</time>
      </trkpt>
      <trkpt lat="46.17237" lon="6.48151">
        <ele>786.4</ele>
        <time>2021-04-03T14:42:48Z</time>
      </trkpt>
      <trkpt lat="46.17236" lon="6.4815">
        <ele>786.4</ele>
        <time>2021-04-03T14:42:49Z</time>
      </trkpt>
      <trkpt lat="46.17235" lon="6.48148">
        <ele>786.6</ele>
        <time>2021-04-03T14:42:50Z</time>
      </trkpt>
      <trkpt lat="46.17234" lon="6.48147">
        <ele>786.4</ele>
        <time>2021-04-03T14:42:51Z</time>
      </trkpt>
      <trkpt lat="46.17233" lon="6.48147">
        <ele>786.6</ele>
        <time>2021-04-03T14:42:52Z</time>
      </trkpt>
      <trkpt lat="46.17233" lon="6.48147">
        <ele>786.6</ele>
        <time>2021-04-03T14:42:53Z</time>
      </trkpt>
      <trkpt lat="46.17232" lon="6.48146">
        <ele>786.6</ele>
        <time>2021-04-03T14:42:54Z</time>
      </trkpt>
      <trkpt lat="46.17231" lon="6.48145">
        <ele>786.8</ele>
        <time>2021-04-03T14:42:55Z</time>
      </trkpt>
      <trkpt lat="46.1723" lon="6.48143">
        <ele>786.6</ele>
        <time>2021-04-03T14:42:56Z</time>
      </trkpt>
      <trkpt lat="46.17229" lon="6.48142">
        <ele>786.6</ele>
        <time>2021-04-03T14:42:57Z</time>
      </trkpt>
      <trkpt lat="46.17228" lon="6.4814">
        <ele>786.6</ele>
        <time>2021-04-03T14:42:58Z</time>
      </trkpt>
      <trkpt lat="46.17227" lon="6.48139">
        <ele>786.8</ele>
        <time>2021-04-03T14:42:59Z</time>
      </trkpt>
      <trkpt lat="46.17227" lon="6.48139">
        <ele>786.8</ele>
        <time>2021-04-03T14:43:00Z</time>
      </trkpt>
      <trkpt lat="46.17227" lon="6.48138">
        <ele>786.6</ele>
        <time>2021-04-03T14:43:01Z</time>
      </trkpt>
      <trkpt lat="46.17227" lon="6.48139">
        <ele>787</ele>
        <time>2021-04-03T14:43:03Z</time>
      </trkpt>
      <trkpt lat="46.17227" lon="6.48138">
        <ele>786.8</ele>
        <time>2021-04-03T14:43:04Z</time>
      </trkpt>
      <trkpt lat="46.17225" lon="6.48138">
        <ele>786.8</ele>
        <time>2021-04-03T14:43:05Z</time>
      </trkpt>
      <trkpt lat="46.17224" lon="6.48137">
        <ele>786.8</ele>
        <time>2021-04-03T14:43:06Z</time>
      </trkpt>
      <trkpt lat="46.17222" lon="6.48137">
        <ele>786.8</ele>
        <time>2021-04-03T14:43:07Z</time>
      </trkpt>
      <trkpt lat="46.1722" lon="6.48135">
        <ele>786.8</ele>
        <time>2021-04-03T14:43:08Z</time>
      </trkpt>
      <trkpt lat="46.17218" lon="6.48133">
        <ele>786.8</ele>
        <time>2021-04-03T14:43:09Z</time>
      </trkpt>
      <trkpt lat="46.17216" lon="6.48131">
        <ele>786.8</ele>
        <time>2021-04-03T14:43:10Z</time>
      </trkpt>
      <trkpt lat="46.17213" lon="6.48127">
        <ele>786.8</ele>
        <time>2021-04-03T14:43:11Z</time>
      </trkpt>
      <trkpt lat="46.1721" lon="6.48124">
        <ele>786.6</ele>
        <time>2021-04-03T14:43:12Z</time>
      </trkpt>
      <trkpt lat="46.17207" lon="6.4812">
        <ele>786.6</ele>
        <time>2021-04-03T14:43:13Z</time>
      </trkpt>
      <trkpt lat="46.17204" lon="6.48115">
        <ele>786.8</ele>
        <time>2021-04-03T14:43:14Z</time>
      </trkpt>
      <trkpt lat="46.17201" lon="6.48111">
        <ele>786.6</ele>
        <time>2021-04-03T14:43:15Z</time>
      </trkpt>
      <trkpt lat="46.17197" lon="6.48106">
        <ele>786.6</ele>
        <time>2021-04-03T14:43:16Z</time>
      </trkpt>
      <trkpt lat="46.17194" lon="6.48102">
        <ele>786.6</ele>
        <time>2021-04-03T14:43:17Z</time>
      </trkpt>
      <trkpt lat="46.1719" lon="6.48098">
        <ele>786.4</ele>
        <time>2021-04-03T14:43:18Z</time>
      </trkpt>
      <trkpt lat="46.17186" lon="6.48094">
        <ele>786.4</ele>
        <time>2021-04-03T14:43:19Z</time>
      </trkpt>
      <trkpt lat="46.17182" lon="6.48091">
        <ele>786.4</ele>
        <time>2021-04-03T14:43:20Z</time>
      </trkpt>
      <trkpt lat="46.17178" lon="6.48087">
        <ele>786.2</ele>
        <time>2021-04-03T14:43:21Z</time>
      </trkpt>
      <trkpt lat="46.17174" lon="6.48083">
        <ele>786.2</ele>
        <time>2021-04-03T14:43:22Z</time>
      </trkpt>
      <trkpt lat="46.1717" lon="6.48079">
        <ele>786.2</ele>
        <time>2021-04-03T14:43:23Z</time>
      </trkpt>
      <trkpt lat="46.17165" lon="6.48075">
        <ele>786.2</ele>
        <time>2021-04-03T14:43:24Z</time>
      </trkpt>
      <trkpt lat="46.17161" lon="6.48071">
        <ele>785.8</ele>
        <time>2021-04-03T14:43:25Z</time>
      </trkpt>
      <trkpt lat="46.17156" lon="6.48066">
        <ele>785.8</ele>
        <time>2021-04-03T14:43:26Z</time>
      </trkpt>
      <trkpt lat="46.17151" lon="6.48061">
        <ele>785.8</ele>
        <time>2021-04-03T14:43:27Z</time>
      </trkpt>
      <trkpt lat="46.17146" lon="6.48056">
        <ele>785.8</ele>
        <time>2021-04-03T14:43:28Z</time>
      </trkpt>
      <trkpt lat="46.17141" lon="6.4805">
        <ele>785.8</ele>
        <time>2021-04-03T14:43:29Z</time>
      </trkpt>
      <trkpt lat="46.17136" lon="6.48044">
        <ele>785.8</ele>
        <time>2021-04-03T14:43:30Z</time>
      </trkpt>
      <trkpt lat="46.17131" lon="6.48038">
        <ele>785.8</ele>
        <time>2021-04-03T14:43:31Z</time>
      </trkpt>
      <trkpt lat="46.17126" lon="6.48032">
        <ele>785.6</ele>
        <time>2021-04-03T14:43:32Z</time>
      </trkpt>
      <trkpt lat="46.17122" lon="6.48025">
        <ele>785.8</ele>
        <time>2021-04-03T14:43:33Z</time>
      </trkpt>
      <trkpt lat="46.17119" lon="6.48017">
        <ele>785.6</ele>
        <time>2021-04-03T14:43:34Z</time>
      </trkpt>
      <trkpt lat="46.17117" lon="6.48008">
        <ele>785.6</ele>
        <time>2021-04-03T14:43:35Z</time>
      </trkpt>
      <trkpt lat="46.17116" lon="6.47999">
        <ele>785.4</ele>
        <time>2021-04-03T14:43:36Z</time>
      </trkpt>
      <trkpt lat="46.17116" lon="6.47989">
        <ele>785.6</ele>
        <time>2021-04-03T14:43:37Z</time>
      </trkpt>
      <trkpt lat="46.17115" lon="6.47979">
        <ele>785.6</ele>
        <time>2021-04-03T14:43:38Z</time>
      </trkpt>
      <trkpt lat="46.17115" lon="6.47968">
        <ele>785.4</ele>
        <time>2021-04-03T14:43:39Z</time>
      </trkpt>
      <trkpt lat="46.17114" lon="6.47957">
        <ele>785.2</ele>
        <time>2021-04-03T14:43:40Z</time>
      </trkpt>
      <trkpt lat="46.17114" lon="6.47946">
        <ele>785.4</ele>
        <time>2021-04-03T14:43:41Z</time>
      </trkpt>
      <trkpt lat="46.17114" lon="6.47934">
        <ele>785.4</ele>
        <time>2021-04-03T14:43:42Z</time>
      </trkpt>
      <trkpt lat="46.17114" lon="6.47923">
        <ele>785.4</ele>
        <time>2021-04-03T14:43:43Z</time>
      </trkpt>
      <trkpt lat="46.17113" lon="6.4791">
        <ele>785.2</ele>
        <time>2021-04-03T14:43:44Z</time>
      </trkpt>
      <trkpt lat="46.17111" lon="6.47898">
        <ele>785.2</ele>
        <time>2021-04-03T14:43:45Z</time>
      </trkpt>
      <trkpt lat="46.17108" lon="6.47886">
        <ele>785</ele>
        <time>2021-04-03T14:43:46Z</time>
      </trkpt>
      <trkpt lat="46.17104" lon="6.47874">
        <ele>785.2</ele>
        <time>2021-04-03T14:43:47Z</time>
      </trkpt>
      <trkpt lat="46.17099" lon="6.47863">
        <ele>785</ele>
        <time>2021-04-03T14:43:48Z</time>
      </trkpt>
      <trkpt lat="46.17093" lon="6.47853">
        <ele>785</ele>
        <time>2021-04-03T14:43:49Z</time>
      </trkpt>
      <trkpt lat="46.17088" lon="6.47844">
        <ele>785</ele>
        <time>2021-04-03T14:43:50Z</time>
      </trkpt>
      <trkpt lat="46.17082" lon="6.47834">
        <ele>784.8</ele>
        <time>2021-04-03T14:43:51Z</time>
      </trkpt>
      <trkpt lat="46.17076" lon="6.47825">
        <ele>784.8</ele>
        <time>2021-04-03T14:43:52Z</time>
      </trkpt>
      <trkpt lat="46.1707" lon="6.47815">
        <ele>784.4</ele>
        <time>2021-04-03T14:43:53Z</time>
      </trkpt>
      <trkpt lat="46.17064" lon="6.47806">
        <ele>784.2</ele>
        <time>2021-04-03T14:43:54Z</time>
      </trkpt>
      <trkpt lat="46.17057" lon="6.47799">
        <ele>784.2</ele>
        <time>2021-04-03T14:43:55Z</time>
      </trkpt>
      <trkpt lat="46.1705" lon="6.47791">
        <ele>784</ele>
        <time>2021-04-03T14:43:56Z</time>
      </trkpt>
      <trkpt lat="46.17042" lon="6.47784">
        <ele>783.4</ele>
        <time>2021-04-03T14:43:57Z</time>
      </trkpt>
      <trkpt lat="46.17033" lon="6.47778">
        <ele>782.2</ele>
        <time>2021-04-03T14:43:58Z</time>
      </trkpt>
      <trkpt lat="46.17023" lon="6.47774">
        <ele>781.4</ele>
        <time>2021-04-03T14:43:59Z</time>
      </trkpt>
      <trkpt lat="46.17013" lon="6.47771">
        <ele>780.8</ele>
        <time>2021-04-03T14:44:00Z</time>
      </trkpt>
      <trkpt lat="46.17003" lon="6.47768">
        <ele>780</ele>
        <time>2021-04-03T14:44:01Z</time>
      </trkpt>
      <trkpt lat="46.16992" lon="6.47765">
        <ele>779.6</ele>
        <time>2021-04-03T14:44:02Z</time>
      </trkpt>
      <trkpt lat="46.16981" lon="6.47762">
        <ele>779.2</ele>
        <time>2021-04-03T14:44:03Z</time>
      </trkpt>
      <trkpt lat="46.1697" lon="6.47759">
        <ele>778.8</ele>
        <time>2021-04-03T14:44:04Z</time>
      </trkpt>
      <trkpt lat="46.1696" lon="6.47755">
        <ele>778.6</ele>
        <time>2021-04-03T14:44:05Z</time>
      </trkpt>
      <trkpt lat="46.16949" lon="6.4775">
        <ele>778.4</ele>
        <time>2021-04-03T14:44:06Z</time>
      </trkpt>
      <trkpt lat="46.16938" lon="6.47742">
        <ele>778</ele>
        <time>2021-04-03T14:44:07Z</time>
      </trkpt>
      <trkpt lat="46.16929" lon="6.47731">
        <ele>777.4</ele>
        <time>2021-04-03T14:44:08Z</time>
      </trkpt>
      <trkpt lat="46.1692" lon="6.47719">
        <ele>777</ele>
        <time>2021-04-03T14:44:09Z</time>
      </trkpt>
      <trkpt lat="46.16912" lon="6.47705">
        <ele>776.6</ele>
        <time>2021-04-03T14:44:10Z</time>
      </trkpt>
      <trkpt lat="46.16906" lon="6.47691">
        <ele>776.4</ele>
        <time>2021-04-03T14:44:11Z</time>
      </trkpt>
      <trkpt lat="46.16899" lon="6.47676">
        <ele>776</ele>
        <time>2021-04-03T14:44:12Z</time>
      </trkpt>
      <trkpt lat="46.16891" lon="6.47664">
        <ele>775.4</ele>
        <time>2021-04-03T14:44:13Z</time>
      </trkpt>
      <trkpt lat="46.16881" lon="6.47654">
        <ele>775</ele>
        <time>2021-04-03T14:44:14Z</time>
      </trkpt>
      <trkpt lat="46.1687" lon="6.47648">
        <ele>774.4</ele>
        <time>2021-04-03T14:44:15Z</time>
      </trkpt>
      <trkpt lat="46.16859" lon="6.47646">
        <ele>773.4</ele>
        <time>2021-04-03T14:44:16Z</time>
      </trkpt>
      <trkpt lat="46.16848" lon="6.47648">
        <ele>773</ele>
        <time>2021-04-03T14:44:17Z</time>
      </trkpt>
      <trkpt lat="46.16837" lon="6.47654">
        <ele>772.2</ele>
        <time>2021-04-03T14:44:18Z</time>
      </trkpt>
      <trkpt lat="46.16827" lon="6.47661">
        <ele>771.6</ele>
        <time>2021-04-03T14:44:19Z</time>
      </trkpt>
      <trkpt lat="46.16816" lon="6.4767">
        <ele>771.2</ele>
        <time>2021-04-03T14:44:20Z</time>
      </trkpt>
      <trkpt lat="46.16806" lon="6.47679">
        <ele>771.2</ele>
        <time>2021-04-03T14:44:21Z</time>
      </trkpt>
      <trkpt lat="46.16796" lon="6.47688">
        <ele>770.8</ele>
        <time>2021-04-03T14:44:22Z</time>
      </trkpt>
      <trkpt lat="46.16786" lon="6.47697">
        <ele>770</ele>
        <time>2021-04-03T14:44:23Z</time>
      </trkpt>
      <trkpt lat="46.16775" lon="6.47704">
        <ele>769.2</ele>
        <time>2021-04-03T14:44:24Z</time>
      </trkpt>
      <trkpt lat="46.16764" lon="6.47706">
        <ele>768.4</ele>
        <time>2021-04-03T14:44:25Z</time>
      </trkpt>
      <trkpt lat="46.16754" lon="6.47703">
        <ele>768</ele>
        <time>2021-04-03T14:44:26Z</time>
      </trkpt>
      <trkpt lat="46.16744" lon="6.47697">
        <ele>767</ele>
        <time>2021-04-03T14:44:27Z</time>
      </trkpt>
      <trkpt lat="46.16733" lon="6.47689">
        <ele>765.8</ele>
        <time>2021-04-03T14:44:28Z</time>
      </trkpt>
      <trkpt lat="46.16723" lon="6.47681">
        <ele>765.2</ele>
        <time>2021-04-03T14:44:29Z</time>
      </trkpt>
      <trkpt lat="46.16712" lon="6.47674">
        <ele>764.8</ele>
        <time>2021-04-03T14:44:30Z</time>
      </trkpt>
      <trkpt lat="46.167" lon="6.47669">
        <ele>764.2</ele>
        <time>2021-04-03T14:44:31Z</time>
      </trkpt>
      <trkpt lat="46.16688" lon="6.47668">
        <ele>763.6</ele>
        <time>2021-04-03T14:44:32Z</time>
      </trkpt>
      <trkpt lat="46.16676" lon="6.47672">
        <ele>763</ele>
        <time>2021-04-03T14:44:33Z</time>
      </trkpt>
      <trkpt lat="46.16665" lon="6.47678">
        <ele>762.8</ele>
        <time>2021-04-03T14:44:34Z</time>
      </trkpt>
      <trkpt lat="46.16653" lon="6.47686">
        <ele>762.2</ele>
        <time>2021-04-03T14:44:35Z</time>
      </trkpt>
      <trkpt lat="46.16642" lon="6.47693">
        <ele>762</ele>
        <time>2021-04-03T14:44:36Z</time>
      </trkpt>
      <trkpt lat="46.1663" lon="6.47696">
        <ele>761.6</ele>
        <time>2021-04-03T14:44:37Z</time>
      </trkpt>
      <trkpt lat="46.16618" lon="6.47696">
        <ele>761.2</ele>
        <time>2021-04-03T14:44:38Z</time>
      </trkpt>
      <trkpt lat="46.16605" lon="6.47693">
        <ele>760.6</ele>
        <time>2021-04-03T14:44:39Z</time>
      </trkpt>
      <trkpt lat="46.16592" lon="6.47689">
        <ele>759.6</ele>
        <time>2021-04-03T14:44:40Z</time>
      </trkpt>
      <trkpt lat="46.1658" lon="6.47684">
        <ele>758.4</ele>
        <time>2021-04-03T14:44:41Z</time>
      </trkpt>
      <trkpt lat="46.16567" lon="6.47677">
        <ele>757.6</ele>
        <time>2021-04-03T14:44:42Z</time>
      </trkpt>
      <trkpt lat="46.16555" lon="6.47668">
        <ele>756.8</ele>
        <time>2021-04-03T14:44:43Z</time>
      </trkpt>
      <trkpt lat="46.16543" lon="6.47659">
        <ele>755.2</ele>
        <time>2021-04-03T14:44:44Z</time>
      </trkpt>
      <trkpt lat="46.1653" lon="6.4765">
        <ele>754.6</ele>
        <time>2021-04-03T14:44:45Z</time>
      </trkpt>
      <trkpt lat="46.16517" lon="6.47644">
        <ele>754.4</ele>
        <time>2021-04-03T14:44:46Z</time>
      </trkpt>
      <trkpt lat="46.16503" lon="6.47639">
        <ele>754.2</ele>
        <time>2021-04-03T14:44:47Z</time>
      </trkpt>
      <trkpt lat="46.1649" lon="6.47634">
        <ele>754</ele>
        <time>2021-04-03T14:44:48Z</time>
      </trkpt>
      <trkpt lat="46.16477" lon="6.47629">
        <ele>753.2</ele>
        <time>2021-04-03T14:44:49Z</time>
      </trkpt>
      <trkpt lat="46.16466" lon="6.47622">
        <ele>752.4</ele>
        <time>2021-04-03T14:44:50Z</time>
      </trkpt>
      <trkpt lat="46.16456" lon="6.47614">
        <ele>751</ele>
        <time>2021-04-03T14:44:51Z</time>
      </trkpt>
      <trkpt lat="46.16446" lon="6.47608">
        <ele>749.8</ele>
        <time>2021-04-03T14:44:52Z</time>
      </trkpt>
      <trkpt lat="46.16436" lon="6.47606">
        <ele>749</ele>
        <time>2021-04-03T14:44:53Z</time>
      </trkpt>
      <trkpt lat="46.16425" lon="6.47607">
        <ele>748.4</ele>
        <time>2021-04-03T14:44:54Z</time>
      </trkpt>
      <trkpt lat="46.16416" lon="6.47613">
        <ele>747.8</ele>
        <time>2021-04-03T14:44:55Z</time>
      </trkpt>
      <trkpt lat="46.16408" lon="6.47621">
        <ele>747.2</ele>
        <time>2021-04-03T14:44:56Z</time>
      </trkpt>
      <trkpt lat="46.164" lon="6.47633">
        <ele>747.2</ele>
        <time>2021-04-03T14:44:57Z</time>
      </trkpt>
      <trkpt lat="46.16394" lon="6.47647">
        <ele>746</ele>
        <time>2021-04-03T14:44:58Z</time>
      </trkpt>
      <trkpt lat="46.16388" lon="6.47662">
        <ele>745.2</ele>
        <time>2021-04-03T14:44:59Z</time>
      </trkpt>
      <trkpt lat="46.16382" lon="6.47676">
        <ele>744.6</ele>
        <time>2021-04-03T14:45:00Z</time>
      </trkpt>
      <trkpt lat="46.16376" lon="6.47691">
        <ele>744.4</ele>
        <time>2021-04-03T14:45:01Z</time>
      </trkpt>
      <trkpt lat="46.16368" lon="6.47704">
        <ele>744.2</ele>
        <time>2021-04-03T14:45:02Z</time>
      </trkpt>
      <trkpt lat="46.1636" lon="6.47714">
        <ele>743.4</ele>
        <time>2021-04-03T14:45:03Z</time>
      </trkpt>
      <trkpt lat="46.1635" lon="6.47719">
        <ele>742</ele>
        <time>2021-04-03T14:45:04Z</time>
      </trkpt>
      <trkpt lat="46.16339" lon="6.47721">
        <ele>741.4</ele>
        <time>2021-04-03T14:45:05Z</time>
      </trkpt>
      <trkpt lat="46.16327" lon="6.47722">
        <ele>740.4</ele>
        <time>2021-04-03T14:45:06Z</time>
      </trkpt>
      <trkpt lat="46.16315" lon="6.47723">
        <ele>740</ele>
        <time>2021-04-03T14:45:07Z</time>
      </trkpt>
      <trkpt lat="46.16302" lon="6.47726">
        <ele>739.8</ele>
        <time>2021-04-03T14:45:08Z</time>
      </trkpt>
      <trkpt lat="46.1629" lon="6.47729">
        <ele>739.6</ele>
        <time>2021-04-03T14:45:09Z</time>
      </trkpt>
      <trkpt lat="46.16277" lon="6.4773">
        <ele>739.2</ele>
        <time>2021-04-03T14:45:10Z</time>
      </trkpt>
      <trkpt lat="46.16263" lon="6.47728">
        <ele>738.6</ele>
        <time>2021-04-03T14:45:11Z</time>
      </trkpt>
      <trkpt lat="46.1625" lon="6.47725">
        <ele>737.6</ele>
        <time>2021-04-03T14:45:12Z</time>
      </trkpt>
      <trkpt lat="46.16236" lon="6.47724">
        <ele>736.6</ele>
        <time>2021-04-03T14:45:13Z</time>
      </trkpt>
      <trkpt lat="46.16221" lon="6.47724">
        <ele>736</ele>
        <time>2021-04-03T14:45:14Z</time>
      </trkpt>
      <trkpt lat="46.16205" lon="6.47723">
        <ele>735.6</ele>
        <time>2021-04-03T14:45:15Z</time>
      </trkpt>
      <trkpt lat="46.1619" lon="6.47721">
        <ele>735.4</ele>
        <time>2021-04-03T14:45:16Z</time>
      </trkpt>
      <trkpt lat="46.16174" lon="6.47717">
        <ele>735.2</ele>
        <time>2021-04-03T14:45:17Z</time>
      </trkpt>
      <trkpt lat="46.1616" lon="6.47711">
        <ele>734.6</ele>
        <time>2021-04-03T14:45:18Z</time>
      </trkpt>
      <trkpt lat="46.16145" lon="6.47704">
        <ele>734</ele>
        <time>2021-04-03T14:45:19Z</time>
      </trkpt>
      <trkpt lat="46.16131" lon="6.47696">
        <ele>733.6</ele>
        <time>2021-04-03T14:45:20Z</time>
      </trkpt>
      <trkpt lat="46.16117" lon="6.47688">
        <ele>732</ele>
        <time>2021-04-03T14:45:21Z</time>
      </trkpt>
      <trkpt lat="46.16103" lon="6.47682">
        <ele>731</ele>
        <time>2021-04-03T14:45:22Z</time>
      </trkpt>
      <trkpt lat="46.16089" lon="6.47676">
        <ele>730.4</ele>
        <time>2021-04-03T14:45:23Z</time>
      </trkpt>
      <trkpt lat="46.16075" lon="6.4767">
        <ele>729.2</ele>
        <time>2021-04-03T14:45:24Z</time>
      </trkpt>
      <trkpt lat="46.16059" lon="6.47668">
        <ele>728</ele>
        <time>2021-04-03T14:45:25Z</time>
      </trkpt>
      <trkpt lat="46.16044" lon="6.47674">
        <ele>726.6</ele>
        <time>2021-04-03T14:45:26Z</time>
      </trkpt>
      <trkpt lat="46.1603" lon="6.4768">
        <ele>725.8</ele>
        <time>2021-04-03T14:45:27Z</time>
      </trkpt>
      <trkpt lat="46.16016" lon="6.47682">
        <ele>725.2</ele>
        <time>2021-04-03T14:45:28Z</time>
      </trkpt>
      <trkpt lat="46.16002" lon="6.47684">
        <ele>724.6</ele>
        <time>2021-04-03T14:45:29Z</time>
      </trkpt>
      <trkpt lat="46.15988" lon="6.47688">
        <ele>723.8</ele>
        <time>2021-04-03T14:45:30Z</time>
      </trkpt>
      <trkpt lat="46.15975" lon="6.47694">
        <ele>723</ele>
        <time>2021-04-03T14:45:31Z</time>
      </trkpt>
      <trkpt lat="46.15962" lon="6.47702">
        <ele>722.4</ele>
        <time>2021-04-03T14:45:32Z</time>
      </trkpt>
      <trkpt lat="46.15949" lon="6.47707">
        <ele>721.8</ele>
        <time>2021-04-03T14:45:33Z</time>
      </trkpt>
      <trkpt lat="46.15935" lon="6.47711">
        <ele>720.6</ele>
        <time>2021-04-03T14:45:34Z</time>
      </trkpt>
      <trkpt lat="46.15921" lon="6.47711">
        <ele>718.6</ele>
        <time>2021-04-03T14:45:35Z</time>
      </trkpt>
      <trkpt lat="46.15907" lon="6.47709">
        <ele>717.4</ele>
        <time>2021-04-03T14:45:36Z</time>
      </trkpt>
      <trkpt lat="46.15893" lon="6.47707">
        <ele>716.6</ele>
        <time>2021-04-03T14:45:37Z</time>
      </trkpt>
      <trkpt lat="46.15879" lon="6.47706">
        <ele>716</ele>
        <time>2021-04-03T14:45:38Z</time>
      </trkpt>
      <trkpt lat="46.15865" lon="6.47702">
        <ele>715.4</ele>
        <time>2021-04-03T14:45:39Z</time>
      </trkpt>
      <trkpt lat="46.15851" lon="6.47695">
        <ele>715.2</ele>
        <time>2021-04-03T14:45:40Z</time>
      </trkpt>
      <trkpt lat="46.15845" lon="6.47685">
        <ele>714.8</ele>
        <time>2021-04-03T14:45:41Z</time>
      </trkpt>
      <trkpt lat="46.1584" lon="6.47676">
        <ele>714.6</ele>
        <time>2021-04-03T14:45:42Z</time>
      </trkpt>
      <trkpt lat="46.15834" lon="6.47666">
        <ele>714.4</ele>
        <time>2021-04-03T14:45:43Z</time>
      </trkpt>
      <trkpt lat="46.15828" lon="6.47657">
        <ele>713.2</ele>
        <time>2021-04-03T14:45:44Z</time>
      </trkpt>
      <trkpt lat="46.15822" lon="6.47647">
        <ele>712.6</ele>
        <time>2021-04-03T14:45:45Z</time>
      </trkpt>
      <trkpt lat="46.15793" lon="6.476">
        <ele>712</ele>
        <time>2021-04-03T14:45:46Z</time>
      </trkpt>
      <trkpt lat="46.15785" lon="6.47581">
        <ele>711.6</ele>
        <time>2021-04-03T14:45:47Z</time>
      </trkpt>
      <trkpt lat="46.15777" lon="6.47563">
        <ele>711.4</ele>
        <time>2021-04-03T14:45:48Z</time>
      </trkpt>
      <trkpt lat="46.15767" lon="6.47551">
        <ele>710.8</ele>
        <time>2021-04-03T14:45:49Z</time>
      </trkpt>
      <trkpt lat="46.15755" lon="6.47542">
        <ele>710</ele>
        <time>2021-04-03T14:45:50Z</time>
      </trkpt>
      <trkpt lat="46.15742" lon="6.47535">
        <ele>709.2</ele>
        <time>2021-04-03T14:45:51Z</time>
      </trkpt>
      <trkpt lat="46.15728" lon="6.47532">
        <ele>708.8</ele>
        <time>2021-04-03T14:45:52Z</time>
      </trkpt>
      <trkpt lat="46.15713" lon="6.47527">
        <ele>707.8</ele>
        <time>2021-04-03T14:45:53Z</time>
      </trkpt>
      <trkpt lat="46.15698" lon="6.47522">
        <ele>706.4</ele>
        <time>2021-04-03T14:45:54Z</time>
      </trkpt>
      <trkpt lat="46.15685" lon="6.47514">
        <ele>705</ele>
        <time>2021-04-03T14:45:55Z</time>
      </trkpt>
      <trkpt lat="46.15672" lon="6.47506">
        <ele>703.6</ele>
        <time>2021-04-03T14:45:56Z</time>
      </trkpt>
      <trkpt lat="46.15658" lon="6.47497">
        <ele>702</ele>
        <time>2021-04-03T14:45:57Z</time>
      </trkpt>
      <trkpt lat="46.15644" lon="6.47492">
        <ele>701</ele>
        <time>2021-04-03T14:45:58Z</time>
      </trkpt>
      <trkpt lat="46.15629" lon="6.47491">
        <ele>700.2</ele>
        <time>2021-04-03T14:45:59Z</time>
      </trkpt>
      <trkpt lat="46.15615" lon="6.47491">
        <ele>699</ele>
        <time>2021-04-03T14:46:00Z</time>
      </trkpt>
      <trkpt lat="46.15601" lon="6.4749">
        <ele>698.4</ele>
        <time>2021-04-03T14:46:01Z</time>
      </trkpt>
      <trkpt lat="46.15587" lon="6.47489">
        <ele>697</ele>
        <time>2021-04-03T14:46:02Z</time>
      </trkpt>
      <trkpt lat="46.15574" lon="6.47487">
        <ele>695.6</ele>
        <time>2021-04-03T14:46:03Z</time>
      </trkpt>
      <trkpt lat="46.1556" lon="6.47483">
        <ele>694.8</ele>
        <time>2021-04-03T14:46:04Z</time>
      </trkpt>
      <trkpt lat="46.15547" lon="6.47476">
        <ele>694.2</ele>
        <time>2021-04-03T14:46:05Z</time>
      </trkpt>
      <trkpt lat="46.15535" lon="6.47468">
        <ele>693.4</ele>
        <time>2021-04-03T14:46:06Z</time>
      </trkpt>
      <trkpt lat="46.15522" lon="6.47461">
        <ele>692.6</ele>
        <time>2021-04-03T14:46:07Z</time>
      </trkpt>
      <trkpt lat="46.15509" lon="6.47454">
        <ele>692</ele>
        <time>2021-04-03T14:46:08Z</time>
      </trkpt>
      <trkpt lat="46.15496" lon="6.47447">
        <ele>692</ele>
        <time>2021-04-03T14:46:09Z</time>
      </trkpt>
      <trkpt lat="46.15483" lon="6.47439">
        <ele>690.6</ele>
        <time>2021-04-03T14:46:10Z</time>
      </trkpt>
      <trkpt lat="46.15471" lon="6.47428">
        <ele>689.4</ele>
        <time>2021-04-03T14:46:11Z</time>
      </trkpt>
      <trkpt lat="46.15461" lon="6.47415">
        <ele>688.8</ele>
        <time>2021-04-03T14:46:12Z</time>
      </trkpt>
      <trkpt lat="46.1545" lon="6.47402">
        <ele>688</ele>
        <time>2021-04-03T14:46:13Z</time>
      </trkpt>
      <trkpt lat="46.1544" lon="6.47389">
        <ele>687.6</ele>
        <time>2021-04-03T14:46:14Z</time>
      </trkpt>
      <trkpt lat="46.1543" lon="6.47376">
        <ele>687</ele>
        <time>2021-04-03T14:46:15Z</time>
      </trkpt>
      <trkpt lat="46.15419" lon="6.47364">
        <ele>686.6</ele>
        <time>2021-04-03T14:46:16Z</time>
      </trkpt>
      <trkpt lat="46.15409" lon="6.47352">
        <ele>686</ele>
        <time>2021-04-03T14:46:17Z</time>
      </trkpt>
      <trkpt lat="46.15398" lon="6.47341">
        <ele>685.4</ele>
        <time>2021-04-03T14:46:18Z</time>
      </trkpt>
      <trkpt lat="46.15387" lon="6.4733">
        <ele>684</ele>
        <time>2021-04-03T14:46:19Z</time>
      </trkpt>
      <trkpt lat="46.15375" lon="6.4732">
        <ele>682.8</ele>
        <time>2021-04-03T14:46:20Z</time>
      </trkpt>
      <trkpt lat="46.15364" lon="6.4731">
        <ele>681.8</ele>
        <time>2021-04-03T14:46:21Z</time>
      </trkpt>
      <trkpt lat="46.15352" lon="6.473">
        <ele>681</ele>
        <time>2021-04-03T14:46:22Z</time>
      </trkpt>
      <trkpt lat="46.15341" lon="6.47289">
        <ele>680.4</ele>
        <time>2021-04-03T14:46:23Z</time>
      </trkpt>
      <trkpt lat="46.15331" lon="6.47277">
        <ele>680</ele>
        <time>2021-04-03T14:46:24Z</time>
      </trkpt>
      <trkpt lat="46.15322" lon="6.47262">
        <ele>679.8</ele>
        <time>2021-04-03T14:46:25Z</time>
      </trkpt>
      <trkpt lat="46.15316" lon="6.47245">
        <ele>678.6</ele>
        <time>2021-04-03T14:46:26Z</time>
      </trkpt>
      <trkpt lat="46.1531" lon="6.47227">
        <ele>677.8</ele>
        <time>2021-04-03T14:46:27Z</time>
      </trkpt>
      <trkpt lat="46.15303" lon="6.47211">
        <ele>677.2</ele>
        <time>2021-04-03T14:46:28Z</time>
      </trkpt>
      <trkpt lat="46.15295" lon="6.47195">
        <ele>676.6</ele>
        <time>2021-04-03T14:46:29Z</time>
      </trkpt>
      <trkpt lat="46.15286" lon="6.47181">
        <ele>675.4</ele>
        <time>2021-04-03T14:46:30Z</time>
      </trkpt>
      <trkpt lat="46.15277" lon="6.47166">
        <ele>674.6</ele>
        <time>2021-04-03T14:46:31Z</time>
      </trkpt>
      <trkpt lat="46.15269" lon="6.4715">
        <ele>673.8</ele>
        <time>2021-04-03T14:46:32Z</time>
      </trkpt>
      <trkpt lat="46.15262" lon="6.47134">
        <ele>673</ele>
        <time>2021-04-03T14:46:33Z</time>
      </trkpt>
      <trkpt lat="46.15254" lon="6.47118">
        <ele>671.8</ele>
        <time>2021-04-03T14:46:34Z</time>
      </trkpt>
      <trkpt lat="46.15245" lon="6.47103">
        <ele>671.4</ele>
        <time>2021-04-03T14:46:35Z</time>
      </trkpt>
      <trkpt lat="46.15236" lon="6.47088">
        <ele>670.6</ele>
        <time>2021-04-03T14:46:36Z</time>
      </trkpt>
      <trkpt lat="46.15227" lon="6.47073">
        <ele>669.6</ele>
        <time>2021-04-03T14:46:37Z</time>
      </trkpt>
      <trkpt lat="46.15219" lon="6.47059">
        <ele>668.8</ele>
        <time>2021-04-03T14:46:38Z</time>
      </trkpt>
      <trkpt lat="46.1521" lon="6.47044">
        <ele>668.2</ele>
        <time>2021-04-03T14:46:39Z</time>
      </trkpt>
      <trkpt lat="46.152" lon="6.4703">
        <ele>667.2</ele>
        <time>2021-04-03T14:46:40Z</time>
      </trkpt>
      <trkpt lat="46.15191" lon="6.47017">
        <ele>666.4</ele>
        <time>2021-04-03T14:46:41Z</time>
      </trkpt>
      <trkpt lat="46.1518" lon="6.47006">
        <ele>665.6</ele>
        <time>2021-04-03T14:46:42Z</time>
      </trkpt>
      <trkpt lat="46.15169" lon="6.46996">
        <ele>665</ele>
        <time>2021-04-03T14:46:43Z</time>
      </trkpt>
      <trkpt lat="46.15157" lon="6.46986">
        <ele>664.4</ele>
        <time>2021-04-03T14:46:44Z</time>
      </trkpt>
      <trkpt lat="46.15145" lon="6.46977">
        <ele>663.6</ele>
        <time>2021-04-03T14:46:45Z</time>
      </trkpt>
      <trkpt lat="46.15133" lon="6.46968">
        <ele>662.4</ele>
        <time>2021-04-03T14:46:46Z</time>
      </trkpt>
      <trkpt lat="46.15121" lon="6.46959">
        <ele>661.4</ele>
        <time>2021-04-03T14:46:47Z</time>
      </trkpt>
      <trkpt lat="46.15109" lon="6.4695">
        <ele>660.2</ele>
        <time>2021-04-03T14:46:48Z</time>
      </trkpt>
      <trkpt lat="46.15097" lon="6.46941">
        <ele>659.4</ele>
        <time>2021-04-03T14:46:49Z</time>
      </trkpt>
      <trkpt lat="46.15085" lon="6.46933">
        <ele>659</ele>
        <time>2021-04-03T14:46:50Z</time>
      </trkpt>
      <trkpt lat="46.15073" lon="6.46924">
        <ele>658.6</ele>
        <time>2021-04-03T14:46:51Z</time>
      </trkpt>
      <trkpt lat="46.15061" lon="6.46915">
        <ele>658</ele>
        <time>2021-04-03T14:46:52Z</time>
      </trkpt>
      <trkpt lat="46.1505" lon="6.46904">
        <ele>657.4</ele>
        <time>2021-04-03T14:46:53Z</time>
      </trkpt>
      <trkpt lat="46.15039" lon="6.46892">
        <ele>656.4</ele>
        <time>2021-04-03T14:46:54Z</time>
      </trkpt>
      <trkpt lat="46.15029" lon="6.46878">
        <ele>655.2</ele>
        <time>2021-04-03T14:46:55Z</time>
      </trkpt>
      <trkpt lat="46.15019" lon="6.46864">
        <ele>654.4</ele>
        <time>2021-04-03T14:46:56Z</time>
      </trkpt>
      <trkpt lat="46.15009" lon="6.46851">
        <ele>653.6</ele>
        <time>2021-04-03T14:46:57Z</time>
      </trkpt>
      <trkpt lat="46.14999" lon="6.46838">
        <ele>652.8</ele>
        <time>2021-04-03T14:46:58Z</time>
      </trkpt>
      <trkpt lat="46.14988" lon="6.46827">
        <ele>652</ele>
        <time>2021-04-03T14:46:59Z</time>
      </trkpt>
      <trkpt lat="46.14976" lon="6.46816">
        <ele>651.2</ele>
        <time>2021-04-03T14:47:00Z</time>
      </trkpt>
      <trkpt lat="46.14964" lon="6.46809">
        <ele>650.6</ele>
        <time>2021-04-03T14:47:01Z</time>
      </trkpt>
      <trkpt lat="46.14951" lon="6.46804">
        <ele>650.2</ele>
        <time>2021-04-03T14:47:02Z</time>
      </trkpt>
      <trkpt lat="46.14938" lon="6.468">
        <ele>649.6</ele>
        <time>2021-04-03T14:47:03Z</time>
      </trkpt>
      <trkpt lat="46.14925" lon="6.46796">
        <ele>648.4</ele>
        <time>2021-04-03T14:47:04Z</time>
      </trkpt>
      <trkpt lat="46.14912" lon="6.46792">
        <ele>647.6</ele>
        <time>2021-04-03T14:47:05Z</time>
      </trkpt>
      <trkpt lat="46.14899" lon="6.46788">
        <ele>647</ele>
        <time>2021-04-03T14:47:06Z</time>
      </trkpt>
      <trkpt lat="46.14887" lon="6.46784">
        <ele>646.4</ele>
        <time>2021-04-03T14:47:07Z</time>
      </trkpt>
      <trkpt lat="46.14875" lon="6.46781">
        <ele>645.6</ele>
        <time>2021-04-03T14:47:08Z</time>
      </trkpt>
      <trkpt lat="46.14863" lon="6.46778">
        <ele>644.6</ele>
        <time>2021-04-03T14:47:09Z</time>
      </trkpt>
      <trkpt lat="46.14852" lon="6.46775">
        <ele>644.6</ele>
        <time>2021-04-03T14:47:10Z</time>
      </trkpt>
      <trkpt lat="46.1484" lon="6.46771">
        <ele>644.4</ele>
        <time>2021-04-03T14:47:11Z</time>
      </trkpt>
      <trkpt lat="46.14829" lon="6.46768">
        <ele>644</ele>
        <time>2021-04-03T14:47:12Z</time>
      </trkpt>
      <trkpt lat="46.14819" lon="6.46765">
        <ele>643.8</ele>
        <time>2021-04-03T14:47:13Z</time>
      </trkpt>
      <trkpt lat="46.14808" lon="6.46761">
        <ele>643.2</ele>
        <time>2021-04-03T14:47:14Z</time>
      </trkpt>
      <trkpt lat="46.14797" lon="6.46758">
        <ele>642.4</ele>
        <time>2021-04-03T14:47:15Z</time>
      </trkpt>
      <trkpt lat="46.14786" lon="6.46755">
        <ele>642.2</ele>
        <time>2021-04-03T14:47:16Z</time>
      </trkpt>
      <trkpt lat="46.14776" lon="6.46752">
        <ele>641.4</ele>
        <time>2021-04-03T14:47:17Z</time>
      </trkpt>
      <trkpt lat="46.14766" lon="6.46748">
        <ele>641.2</ele>
        <time>2021-04-03T14:47:18Z</time>
      </trkpt>
      <trkpt lat="46.14755" lon="6.46744">
        <ele>640.8</ele>
        <time>2021-04-03T14:47:19Z</time>
      </trkpt>
      <trkpt lat="46.14745" lon="6.4674">
        <ele>641</ele>
        <time>2021-04-03T14:47:20Z</time>
      </trkpt>
      <trkpt lat="46.14735" lon="6.46735">
        <ele>640.6</ele>
        <time>2021-04-03T14:47:21Z</time>
      </trkpt>
      <trkpt lat="46.14725" lon="6.4673">
        <ele>640.6</ele>
        <time>2021-04-03T14:47:22Z</time>
      </trkpt>
      <trkpt lat="46.14715" lon="6.46724">
        <ele>640.6</ele>
        <time>2021-04-03T14:47:23Z</time>
      </trkpt>
      <trkpt lat="46.14705" lon="6.46718">
        <ele>640.4</ele>
        <time>2021-04-03T14:47:24Z</time>
      </trkpt>
      <trkpt lat="46.14696" lon="6.46712">
        <ele>640.2</ele>
        <time>2021-04-03T14:47:25Z</time>
      </trkpt>
      <trkpt lat="46.14686" lon="6.46705">
        <ele>640</ele>
        <time>2021-04-03T14:47:26Z</time>
      </trkpt>
      <trkpt lat="46.14676" lon="6.46698">
        <ele>639.8</ele>
        <time>2021-04-03T14:47:27Z</time>
      </trkpt>
      <trkpt lat="46.14667" lon="6.46692">
        <ele>639.6</ele>
        <time>2021-04-03T14:47:28Z</time>
      </trkpt>
      <trkpt lat="46.14657" lon="6.46685">
        <ele>639.6</ele>
        <time>2021-04-03T14:47:29Z</time>
      </trkpt>
      <trkpt lat="46.14647" lon="6.46678">
        <ele>639.6</ele>
        <time>2021-04-03T14:47:30Z</time>
      </trkpt>
      <trkpt lat="46.14638" lon="6.46671">
        <ele>639.2</ele>
        <time>2021-04-03T14:47:31Z</time>
      </trkpt>
      <trkpt lat="46.14628" lon="6.46665">
        <ele>639</ele>
        <time>2021-04-03T14:47:32Z</time>
      </trkpt>
      <trkpt lat="46.14619" lon="6.46658">
        <ele>638.8</ele>
        <time>2021-04-03T14:47:33Z</time>
      </trkpt>
      <trkpt lat="46.1461" lon="6.46651">
        <ele>638</ele>
        <time>2021-04-03T14:47:34Z</time>
      </trkpt>
      <trkpt lat="46.14601" lon="6.46644">
        <ele>637.8</ele>
        <time>2021-04-03T14:47:35Z</time>
      </trkpt>
      <trkpt lat="46.14591" lon="6.46637">
        <ele>637.4</ele>
        <time>2021-04-03T14:47:36Z</time>
      </trkpt>
      <trkpt lat="46.14581" lon="6.46631">
        <ele>637</ele>
        <time>2021-04-03T14:47:37Z</time>
      </trkpt>
      <trkpt lat="46.14572" lon="6.46624">
        <ele>636.8</ele>
        <time>2021-04-03T14:47:38Z</time>
      </trkpt>
      <trkpt lat="46.14563" lon="6.46618">
        <ele>636.8</ele>
        <time>2021-04-03T14:47:39Z</time>
      </trkpt>
      <trkpt lat="46.14553" lon="6.46612">
        <ele>636</ele>
        <time>2021-04-03T14:47:40Z</time>
      </trkpt>
      <trkpt lat="46.14544" lon="6.46605">
        <ele>635.6</ele>
        <time>2021-04-03T14:47:41Z</time>
      </trkpt>
      <trkpt lat="46.14535" lon="6.46599">
        <ele>635.4</ele>
        <time>2021-04-03T14:47:42Z</time>
      </trkpt>
      <trkpt lat="46.14526" lon="6.46592">
        <ele>635.2</ele>
        <time>2021-04-03T14:47:43Z</time>
      </trkpt>
      <trkpt lat="46.14516" lon="6.46585">
        <ele>634.8</ele>
        <time>2021-04-03T14:47:44Z</time>
      </trkpt>
      <trkpt lat="46.14507" lon="6.46577">
        <ele>634.2</ele>
        <time>2021-04-03T14:47:45Z</time>
      </trkpt>
      <trkpt lat="46.14497" lon="6.4657">
        <ele>634</ele>
        <time>2021-04-03T14:47:46Z</time>
      </trkpt>
      <trkpt lat="46.14488" lon="6.46562">
        <ele>633.6</ele>
        <time>2021-04-03T14:47:47Z</time>
      </trkpt>
      <trkpt lat="46.1448" lon="6.46553">
        <ele>633.2</ele>
        <time>2021-04-03T14:47:48Z</time>
      </trkpt>
      <trkpt lat="46.14471" lon="6.46545">
        <ele>633.2</ele>
        <time>2021-04-03T14:47:49Z</time>
      </trkpt>
      <trkpt lat="46.14462" lon="6.46536">
        <ele>633</ele>
        <time>2021-04-03T14:47:50Z</time>
      </trkpt>
      <trkpt lat="46.14453" lon="6.46528">
        <ele>632.8</ele>
        <time>2021-04-03T14:47:51Z</time>
      </trkpt>
      <trkpt lat="46.14444" lon="6.46519">
        <ele>632.4</ele>
        <time>2021-04-03T14:47:52Z</time>
      </trkpt>
      <trkpt lat="46.14435" lon="6.4651">
        <ele>632</ele>
        <time>2021-04-03T14:47:53Z</time>
      </trkpt>
      <trkpt lat="46.14426" lon="6.46502">
        <ele>631.8</ele>
        <time>2021-04-03T14:47:54Z</time>
      </trkpt>
      <trkpt lat="46.14417" lon="6.46493">
        <ele>631.6</ele>
        <time>2021-04-03T14:47:55Z</time>
      </trkpt>
      <trkpt lat="46.14408" lon="6.46485">
        <ele>631.6</ele>
        <time>2021-04-03T14:47:56Z</time>
      </trkpt>
      <trkpt lat="46.14398" lon="6.46476">
        <ele>630.8</ele>
        <time>2021-04-03T14:47:57Z</time>
      </trkpt>
      <trkpt lat="46.14389" lon="6.46468">
        <ele>630.4</ele>
        <time>2021-04-03T14:47:58Z</time>
      </trkpt>
      <trkpt lat="46.1438" lon="6.46459">
        <ele>629.8</ele>
        <time>2021-04-03T14:47:59Z</time>
      </trkpt>
      <trkpt lat="46.14371" lon="6.4645">
        <ele>629.4</ele>
        <time>2021-04-03T14:48:00Z</time>
      </trkpt>
      <trkpt lat="46.14363" lon="6.4644">
        <ele>629.2</ele>
        <time>2021-04-03T14:48:01Z</time>
      </trkpt>
      <trkpt lat="46.14354" lon="6.46431">
        <ele>628.4</ele>
        <time>2021-04-03T14:48:02Z</time>
      </trkpt>
      <trkpt lat="46.14344" lon="6.46422">
        <ele>627.8</ele>
        <time>2021-04-03T14:48:03Z</time>
      </trkpt>
      <trkpt lat="46.14335" lon="6.46413">
        <ele>627.4</ele>
        <time>2021-04-03T14:48:04Z</time>
      </trkpt>
      <trkpt lat="46.14325" lon="6.46404">
        <ele>627</ele>
        <time>2021-04-03T14:48:05Z</time>
      </trkpt>
      <trkpt lat="46.14316" lon="6.46395">
        <ele>626.8</ele>
        <time>2021-04-03T14:48:06Z</time>
      </trkpt>
      <trkpt lat="46.14307" lon="6.46386">
        <ele>626.4</ele>
        <time>2021-04-03T14:48:07Z</time>
      </trkpt>
      <trkpt lat="46.14298" lon="6.46377">
        <ele>626</ele>
        <time>2021-04-03T14:48:08Z</time>
      </trkpt>
      <trkpt lat="46.14289" lon="6.46368">
        <ele>625.6</ele>
        <time>2021-04-03T14:48:09Z</time>
      </trkpt>
      <trkpt lat="46.14279" lon="6.46359">
        <ele>625.2</ele>
        <time>2021-04-03T14:48:10Z</time>
      </trkpt>
      <trkpt lat="46.1427" lon="6.4635">
        <ele>624.8</ele>
        <time>2021-04-03T14:48:11Z</time>
      </trkpt>
      <trkpt lat="46.14261" lon="6.46341">
        <ele>624.2</ele>
        <time>2021-04-03T14:48:12Z</time>
      </trkpt>
      <trkpt lat="46.14252" lon="6.46332">
        <ele>623.4</ele>
        <time>2021-04-03T14:48:13Z</time>
      </trkpt>
      <trkpt lat="46.14242" lon="6.46323">
        <ele>622.4</ele>
        <time>2021-04-03T14:48:14Z</time>
      </trkpt>
      <trkpt lat="46.14233" lon="6.46314">
        <ele>622.2</ele>
        <time>2021-04-03T14:48:15Z</time>
      </trkpt>
      <trkpt lat="46.14224" lon="6.46305">
        <ele>621.6</ele>
        <time>2021-04-03T14:48:16Z</time>
      </trkpt>
      <trkpt lat="46.14215" lon="6.46295">
        <ele>621.4</ele>
        <time>2021-04-03T14:48:17Z</time>
      </trkpt>
      <trkpt lat="46.14206" lon="6.46286">
        <ele>620.8</ele>
        <time>2021-04-03T14:48:18Z</time>
      </trkpt>
      <trkpt lat="46.14197" lon="6.46277">
        <ele>620.4</ele>
        <time>2021-04-03T14:48:19Z</time>
      </trkpt>
      <trkpt lat="46.14188" lon="6.46269">
        <ele>620</ele>
        <time>2021-04-03T14:48:20Z</time>
      </trkpt>
      <trkpt lat="46.14179" lon="6.46261">
        <ele>619.4</ele>
        <time>2021-04-03T14:48:21Z</time>
      </trkpt>
      <trkpt lat="46.1417" lon="6.46252">
        <ele>618.6</ele>
        <time>2021-04-03T14:48:22Z</time>
      </trkpt>
      <trkpt lat="46.14162" lon="6.46243">
        <ele>618</ele>
        <time>2021-04-03T14:48:23Z</time>
      </trkpt>
      <trkpt lat="46.14153" lon="6.46234">
        <ele>617.6</ele>
        <time>2021-04-03T14:48:24Z</time>
      </trkpt>
      <trkpt lat="46.14144" lon="6.46225">
        <ele>616.8</ele>
        <time>2021-04-03T14:48:25Z</time>
      </trkpt>
      <trkpt lat="46.14135" lon="6.46215">
        <ele>616.8</ele>
        <time>2021-04-03T14:48:26Z</time>
      </trkpt>
      <trkpt lat="46.14126" lon="6.46206">
        <ele>616.4</ele>
        <time>2021-04-03T14:48:27Z</time>
      </trkpt>
      <trkpt lat="46.14117" lon="6.46196">
        <ele>615.8</ele>
        <time>2021-04-03T14:48:28Z</time>
      </trkpt>
      <trkpt lat="46.14107" lon="6.46187">
        <ele>615.4</ele>
        <time>2021-04-03T14:48:29Z</time>
      </trkpt>
      <trkpt lat="46.14097" lon="6.46177">
        <ele>615.2</ele>
        <time>2021-04-03T14:48:30Z</time>
      </trkpt>
      <trkpt lat="46.14088" lon="6.46168">
        <ele>615</ele>
        <time>2021-04-03T14:48:31Z</time>
      </trkpt>
      <trkpt lat="46.14078" lon="6.46159">
        <ele>614.8</ele>
        <time>2021-04-03T14:48:32Z</time>
      </trkpt>
      <trkpt lat="46.14069" lon="6.46149">
        <ele>614.6</ele>
        <time>2021-04-03T14:48:33Z</time>
      </trkpt>
      <trkpt lat="46.14059" lon="6.46139">
        <ele>614.4</ele>
        <time>2021-04-03T14:48:34Z</time>
      </trkpt>
      <trkpt lat="46.1405" lon="6.46129">
        <ele>614.4</ele>
        <time>2021-04-03T14:48:35Z</time>
      </trkpt>
      <trkpt lat="46.14041" lon="6.46119">
        <ele>614.2</ele>
        <time>2021-04-03T14:48:36Z</time>
      </trkpt>
      <trkpt lat="46.14031" lon="6.4611">
        <ele>614.2</ele>
        <time>2021-04-03T14:48:37Z</time>
      </trkpt>
      <trkpt lat="46.14021" lon="6.461">
        <ele>613.6</ele>
        <time>2021-04-03T14:48:38Z</time>
      </trkpt>
      <trkpt lat="46.14011" lon="6.4609">
        <ele>613.2</ele>
        <time>2021-04-03T14:48:39Z</time>
      </trkpt>
      <trkpt lat="46.14001" lon="6.46078">
        <ele>612.8</ele>
        <time>2021-04-03T14:48:40Z</time>
      </trkpt>
      <trkpt lat="46.13993" lon="6.46066">
        <ele>612.6</ele>
        <time>2021-04-03T14:48:41Z</time>
      </trkpt>
      <trkpt lat="46.13985" lon="6.46052">
        <ele>612.6</ele>
        <time>2021-04-03T14:48:42Z</time>
      </trkpt>
      <trkpt lat="46.1398" lon="6.46035">
        <ele>612.4</ele>
        <time>2021-04-03T14:48:43Z</time>
      </trkpt>
      <trkpt lat="46.13977" lon="6.46016">
        <ele>612.2</ele>
        <time>2021-04-03T14:48:44Z</time>
      </trkpt>
      <trkpt lat="46.13977" lon="6.45997">
        <ele>612</ele>
        <time>2021-04-03T14:48:45Z</time>
      </trkpt>
      <trkpt lat="46.13978" lon="6.45978">
        <ele>611.8</ele>
        <time>2021-04-03T14:48:46Z</time>
      </trkpt>
      <trkpt lat="46.13981" lon="6.45959">
        <ele>611.6</ele>
        <time>2021-04-03T14:48:47Z</time>
      </trkpt>
      <trkpt lat="46.13984" lon="6.4594">
        <ele>611.4</ele>
        <time>2021-04-03T14:48:48Z</time>
      </trkpt>
      <trkpt lat="46.13988" lon="6.45923">
        <ele>611</ele>
        <time>2021-04-03T14:48:49Z</time>
      </trkpt>
      <trkpt lat="46.13994" lon="6.45908">
        <ele>610.4</ele>
        <time>2021-04-03T14:48:50Z</time>
      </trkpt>
      <trkpt lat="46.14002" lon="6.45895">
        <ele>610</ele>
        <time>2021-04-03T14:48:51Z</time>
      </trkpt>
      <trkpt lat="46.14016" lon="6.45891">
        <ele>609.2</ele>
        <time>2021-04-03T14:48:52Z</time>
      </trkpt>
      <trkpt lat="46.14028" lon="6.45885">
        <ele>608.2</ele>
        <time>2021-04-03T14:48:53Z</time>
      </trkpt>
      <trkpt lat="46.14038" lon="6.45877">
        <ele>607.2</ele>
        <time>2021-04-03T14:48:54Z</time>
      </trkpt>
      <trkpt lat="46.14045" lon="6.45865">
        <ele>606.4</ele>
        <time>2021-04-03T14:48:55Z</time>
      </trkpt>
      <trkpt lat="46.1405" lon="6.45851">
        <ele>605.6</ele>
        <time>2021-04-03T14:48:56Z</time>
      </trkpt>
      <trkpt lat="46.14052" lon="6.45836">
        <ele>604.4</ele>
        <time>2021-04-03T14:48:57Z</time>
      </trkpt>
      <trkpt lat="46.14051" lon="6.45821">
        <ele>603.2</ele>
        <time>2021-04-03T14:48:58Z</time>
      </trkpt>
      <trkpt lat="46.14046" lon="6.45808">
        <ele>602.4</ele>
        <time>2021-04-03T14:48:59Z</time>
      </trkpt>
      <trkpt lat="46.14038" lon="6.45798">
        <ele>602</ele>
        <time>2021-04-03T14:49:00Z</time>
      </trkpt>
      <trkpt lat="46.14028" lon="6.45792">
        <ele>601.8</ele>
        <time>2021-04-03T14:49:01Z</time>
      </trkpt>
      <trkpt lat="46.14016" lon="6.45789">
        <ele>601.8</ele>
        <time>2021-04-03T14:49:02Z</time>
      </trkpt>
      <trkpt lat="46.14003" lon="6.45788">
        <ele>601.2</ele>
        <time>2021-04-03T14:49:03Z</time>
      </trkpt>
      <trkpt lat="46.1399" lon="6.45786">
        <ele>600.6</ele>
        <time>2021-04-03T14:49:04Z</time>
      </trkpt>
      <trkpt lat="46.13977" lon="6.45785">
        <ele>599.8</ele>
        <time>2021-04-03T14:49:05Z</time>
      </trkpt>
      <trkpt lat="46.13964" lon="6.45783">
        <ele>599.2</ele>
        <time>2021-04-03T14:49:06Z</time>
      </trkpt>
      <trkpt lat="46.1395" lon="6.45782">
        <ele>598.8</ele>
        <time>2021-04-03T14:49:07Z</time>
      </trkpt>
      <trkpt lat="46.13937" lon="6.4578">
        <ele>598.4</ele>
        <time>2021-04-03T14:49:08Z</time>
      </trkpt>
      <trkpt lat="46.13925" lon="6.45779">
        <ele>597.8</ele>
        <time>2021-04-03T14:49:09Z</time>
      </trkpt>
      <trkpt lat="46.13914" lon="6.45778">
        <ele>596.8</ele>
        <time>2021-04-03T14:49:10Z</time>
      </trkpt>
      <trkpt lat="46.13902" lon="6.45778">
        <ele>595.2</ele>
        <time>2021-04-03T14:49:11Z</time>
      </trkpt>
      <trkpt lat="46.1389" lon="6.45777">
        <ele>594</ele>
        <time>2021-04-03T14:49:12Z</time>
      </trkpt>
      <trkpt lat="46.13878" lon="6.45776">
        <ele>592.4</ele>
        <time>2021-04-03T14:49:13Z</time>
      </trkpt>
      <trkpt lat="46.13868" lon="6.45775">
        <ele>590.6</ele>
        <time>2021-04-03T14:49:14Z</time>
      </trkpt>
      <trkpt lat="46.13858" lon="6.45774">
        <ele>588.8</ele>
        <time>2021-04-03T14:49:15Z</time>
      </trkpt>
      <trkpt lat="46.13851" lon="6.45773">
        <ele>587.4</ele>
        <time>2021-04-03T14:49:16Z</time>
      </trkpt>
      <trkpt lat="46.13845" lon="6.45772">
        <ele>586</ele>
        <time>2021-04-03T14:49:17Z</time>
      </trkpt>
      <trkpt lat="46.13841" lon="6.4577">
        <ele>584.6</ele>
        <time>2021-04-03T14:49:18Z</time>
      </trkpt>
      <trkpt lat="46.13839" lon="6.45767">
        <ele>583.6</ele>
        <time>2021-04-03T14:49:19Z</time>
      </trkpt>
      <trkpt lat="46.13838" lon="6.45764">
        <ele>581.6</ele>
        <time>2021-04-03T14:49:20Z</time>
      </trkpt>
      <trkpt lat="46.13839" lon="6.4576">
        <ele>580.8</ele>
        <time>2021-04-03T14:49:21Z</time>
      </trkpt>
      <trkpt lat="46.1384" lon="6.45755">
        <ele>580</ele>
        <time>2021-04-03T14:49:22Z</time>
      </trkpt>
      <trkpt lat="46.13841" lon="6.45752">
        <ele>579.4</ele>
        <time>2021-04-03T14:49:23Z</time>
      </trkpt>
      <trkpt lat="46.13843" lon="6.4575">
        <ele>579.2</ele>
        <time>2021-04-03T14:49:24Z</time>
      </trkpt>
      <trkpt lat="46.13844" lon="6.45747">
        <ele>578.6</ele>
        <time>2021-04-03T14:49:25Z</time>
      </trkpt>
      <trkpt lat="46.13844" lon="6.45746">
        <ele>578.6</ele>
        <time>2021-04-03T14:49:26Z</time>
      </trkpt>
      <trkpt lat="46.13844" lon="6.45745">
        <ele>578.4</ele>
        <time>2021-04-03T14:49:27Z</time>
      </trkpt>
      <trkpt lat="46.13844" lon="6.45745">
        <ele>578.4</ele>
        <time>2021-04-03T14:49:28Z</time>
      </trkpt>
      <trkpt lat="46.13844" lon="6.45745">
        <ele>578.4</ele>
        <time>2021-04-03T14:49:29Z</time>
      </trkpt>
      <trkpt lat="46.13844" lon="6.45745">
        <ele>578.2</ele>
        <time>2021-04-03T14:49:30Z</time>
      </trkpt>
      <trkpt lat="46.13844" lon="6.45745">
        <ele>578.2</ele>
        <time>2021-04-03T14:49:31Z</time>
      </trkpt>
      <trkpt lat="46.13844" lon="6.45745">
        <ele>578.2</ele>
        <time>2021-04-03T14:49:32Z</time>
      </trkpt>
      <trkpt lat="46.13844" lon="6.45745">
        <ele>578.6</ele>
        <time>2021-04-03T14:49:35Z</time>
      </trkpt>
      <trkpt lat="46.13844" lon="6.45745">
        <ele>578.4</ele>
        <time>2021-04-03T14:49:36Z</time>
      </trkpt>
      <trkpt lat="46.13844" lon="6.45745">
        <ele>578.4</ele>
        <time>2021-04-03T14:49:37Z</time>
      </trkpt>
      <trkpt lat="46.13844" lon="6.45745">
        <ele>578.6</ele>
        <time>2021-04-03T14:49:39Z</time>
      </trkpt>
      <trkpt lat="46.13844" lon="6.45745">
        <ele>578.6</ele>
        <time>2021-04-03T14:49:40Z</time>
      </trkpt>
      <trkpt lat="46.13844" lon="6.45745">
        <ele>578.6</ele>
        <time>2021-04-03T14:49:41Z</time>
      </trkpt>
      <trkpt lat="46.13844" lon="6.45745">
        <ele>578.6</ele>
        <time>2021-04-03T14:49:42Z</time>
      </trkpt>
      <trkpt lat="46.13844" lon="6.45745">
        <ele>578.6</ele>
        <time>2021-04-03T14:49:43Z</time>
      </trkpt>
      <trkpt lat="46.13844" lon="6.45744">
        <ele>578.8</ele>
        <time>2021-04-03T14:49:44Z</time>
      </trkpt>
      <trkpt lat="46.13844" lon="6.45744">
        <ele>578.6</ele>
        <time>2021-04-03T14:49:45Z</time>
      </trkpt>
      <trkpt lat="46.13844" lon="6.45744">
        <ele>578.8</ele>
        <time>2021-04-03T14:49:46Z</time>
      </trkpt>
      <trkpt lat="46.13844" lon="6.45743">
        <ele>578.8</ele>
        <time>2021-04-03T14:49:47Z</time>
      </trkpt>
      <trkpt lat="46.13845" lon="6.45743">
        <ele>578.8</ele>
        <time>2021-04-03T14:49:48Z</time>
      </trkpt>
      <trkpt lat="46.13845" lon="6.45742">
        <ele>578.8</ele>
        <time>2021-04-03T14:49:49Z</time>
      </trkpt>
      <trkpt lat="46.13845" lon="6.4574">
        <ele>578.8</ele>
        <time>2021-04-03T14:49:50Z</time>
      </trkpt>
      <trkpt lat="46.13845" lon="6.45739">
        <ele>579</ele>
        <time>2021-04-03T14:49:51Z</time>
      </trkpt>
      <trkpt lat="46.13845" lon="6.45737">
        <ele>578.8</ele>
        <time>2021-04-03T14:49:52Z</time>
      </trkpt>
      <trkpt lat="46.13845" lon="6.45735">
        <ele>578.8</ele>
        <time>2021-04-03T14:49:53Z</time>
      </trkpt>
      <trkpt lat="46.13846" lon="6.45733">
        <ele>578.8</ele>
        <time>2021-04-03T14:49:54Z</time>
      </trkpt>
      <trkpt lat="46.13846" lon="6.45731">
        <ele>578.8</ele>
        <time>2021-04-03T14:49:55Z</time>
      </trkpt>
      <trkpt lat="46.13847" lon="6.45728">
        <ele>578.8</ele>
        <time>2021-04-03T14:49:56Z</time>
      </trkpt>
      <trkpt lat="46.13848" lon="6.45726">
        <ele>578.8</ele>
        <time>2021-04-03T14:49:57Z</time>
      </trkpt>
      <trkpt lat="46.13849" lon="6.45724">
        <ele>578.6</ele>
        <time>2021-04-03T14:49:58Z</time>
      </trkpt>
      <trkpt lat="46.13849" lon="6.45723">
        <ele>578.8</ele>
        <time>2021-04-03T14:49:59Z</time>
      </trkpt>
      <trkpt lat="46.1385" lon="6.45721">
        <ele>578.8</ele>
        <time>2021-04-03T14:50:00Z</time>
      </trkpt>
      <trkpt lat="46.1385" lon="6.45721">
        <ele>578.6</ele>
        <time>2021-04-03T14:50:01Z</time>
      </trkpt>
      <trkpt lat="46.1385" lon="6.4572">
        <ele>578.6</ele>
        <time>2021-04-03T14:50:02Z</time>
      </trkpt>
      <trkpt lat="46.1385" lon="6.4572">
        <ele>578.4</ele>
        <time>2021-04-03T14:50:04Z</time>
      </trkpt>
      <trkpt lat="46.1385" lon="6.4572">
        <ele>578.6</ele>
        <time>2021-04-03T14:50:05Z</time>
      </trkpt>
      <trkpt lat="46.1385" lon="6.4572">
        <ele>578.4</ele>
        <time>2021-04-03T14:50:06Z</time>
      </trkpt>
      <trkpt lat="46.1385" lon="6.45719">
        <ele>578.4</ele>
        <time>2021-04-03T14:50:07Z</time>
      </trkpt>
      <trkpt lat="46.1385" lon="6.45718">
        <ele>578.2</ele>
        <time>2021-04-03T14:50:08Z</time>
      </trkpt>
      <trkpt lat="46.13851" lon="6.45715">
        <ele>578.2</ele>
        <time>2021-04-03T14:50:09Z</time>
      </trkpt>
      <trkpt lat="46.13851" lon="6.45713">
        <ele>578.4</ele>
        <time>2021-04-03T14:50:10Z</time>
      </trkpt>
      <trkpt lat="46.13851" lon="6.45711">
        <ele>578.4</ele>
        <time>2021-04-03T14:50:11Z</time>
      </trkpt>
      <trkpt lat="46.13852" lon="6.45709">
        <ele>578.2</ele>
        <time>2021-04-03T14:50:12Z</time>
      </trkpt>
      <trkpt lat="46.13852" lon="6.45706">
        <ele>578.4</ele>
        <time>2021-04-03T14:50:13Z</time>
      </trkpt>
      <trkpt lat="46.13852" lon="6.45702">
        <ele>578.4</ele>
        <time>2021-04-03T14:50:14Z</time>
      </trkpt>
      <trkpt lat="46.13853" lon="6.45699">
        <ele>578.4</ele>
        <time>2021-04-03T14:50:15Z</time>
      </trkpt>
      <trkpt lat="46.13853" lon="6.45694">
        <ele>578.4</ele>
        <time>2021-04-03T14:50:16Z</time>
      </trkpt>
      <trkpt lat="46.13852" lon="6.45689">
        <ele>578.4</ele>
        <time>2021-04-03T14:50:17Z</time>
      </trkpt>
      <trkpt lat="46.13852" lon="6.45684">
        <ele>578.2</ele>
        <time>2021-04-03T14:50:18Z</time>
      </trkpt>
      <trkpt lat="46.13852" lon="6.45679">
        <ele>578.4</ele>
        <time>2021-04-03T14:50:19Z</time>
      </trkpt>
      <trkpt lat="46.13852" lon="6.45673">
        <ele>578.2</ele>
        <time>2021-04-03T14:50:20Z</time>
      </trkpt>
      <trkpt lat="46.13852" lon="6.45667">
        <ele>578.2</ele>
        <time>2021-04-03T14:50:21Z</time>
      </trkpt>
      <trkpt lat="46.13852" lon="6.45661">
        <ele>578.2</ele>
        <time>2021-04-03T14:50:22Z</time>
      </trkpt>
      <trkpt lat="46.13853" lon="6.45655">
        <ele>578.2</ele>
        <time>2021-04-03T14:50:23Z</time>
      </trkpt>
      <trkpt lat="46.13853" lon="6.45649">
        <ele>578.2</ele>
        <time>2021-04-03T14:50:24Z</time>
      </trkpt>
      <trkpt lat="46.13854" lon="6.45642">
        <ele>578.2</ele>
        <time>2021-04-03T14:50:25Z</time>
      </trkpt>
      <trkpt lat="46.13854" lon="6.45634">
        <ele>578.4</ele>
        <time>2021-04-03T14:50:26Z</time>
      </trkpt>
      <trkpt lat="46.13854" lon="6.45625">
        <ele>578.2</ele>
        <time>2021-04-03T14:50:27Z</time>
      </trkpt>
      <trkpt lat="46.13854" lon="6.45616">
        <ele>578.2</ele>
        <time>2021-04-03T14:50:28Z</time>
      </trkpt>
      <trkpt lat="46.13854" lon="6.45607">
        <ele>578</ele>
        <time>2021-04-03T14:50:29Z</time>
      </trkpt>
      <trkpt lat="46.13854" lon="6.45597">
        <ele>578</ele>
        <time>2021-04-03T14:50:30Z</time>
      </trkpt>
      <trkpt lat="46.13853" lon="6.45588">
        <ele>577.6</ele>
        <time>2021-04-03T14:50:31Z</time>
      </trkpt>
      <trkpt lat="46.13852" lon="6.45579">
        <ele>577.6</ele>
        <time>2021-04-03T14:50:32Z</time>
      </trkpt>
      <trkpt lat="46.13851" lon="6.45569">
        <ele>577.4</ele>
        <time>2021-04-03T14:50:33Z</time>
      </trkpt>
      <trkpt lat="46.1385" lon="6.45559">
        <ele>577.4</ele>
        <time>2021-04-03T14:50:34Z</time>
      </trkpt>
      <trkpt lat="46.13849" lon="6.45549">
        <ele>577.4</ele>
        <time>2021-04-03T14:50:35Z</time>
      </trkpt>
      <trkpt lat="46.13848" lon="6.45539">
        <ele>577.2</ele>
        <time>2021-04-03T14:50:36Z</time>
      </trkpt>
      <trkpt lat="46.13846" lon="6.45529">
        <ele>577</ele>
        <time>2021-04-03T14:50:37Z</time>
      </trkpt>
      <trkpt lat="46.13845" lon="6.45518">
        <ele>577</ele>
        <time>2021-04-03T14:50:38Z</time>
      </trkpt>
      <trkpt lat="46.13842" lon="6.45507">
        <ele>576.6</ele>
        <time>2021-04-03T14:50:39Z</time>
      </trkpt>
      <trkpt lat="46.1384" lon="6.45496">
        <ele>576.4</ele>
        <time>2021-04-03T14:50:40Z</time>
      </trkpt>
      <trkpt lat="46.13836" lon="6.45485">
        <ele>576.2</ele>
        <time>2021-04-03T14:50:41Z</time>
      </trkpt>
      <trkpt lat="46.13833" lon="6.45474">
        <ele>576</ele>
        <time>2021-04-03T14:50:42Z</time>
      </trkpt>
      <trkpt lat="46.13829" lon="6.45463">
        <ele>575.8</ele>
        <time>2021-04-03T14:50:43Z</time>
      </trkpt>
      <trkpt lat="46.13826" lon="6.45452">
        <ele>575.8</ele>
        <time>2021-04-03T14:50:44Z</time>
      </trkpt>
      <trkpt lat="46.13822" lon="6.45441">
        <ele>575.6</ele>
        <time>2021-04-03T14:50:45Z</time>
      </trkpt>
      <trkpt lat="46.13819" lon="6.45431">
        <ele>575.6</ele>
        <time>2021-04-03T14:50:46Z</time>
      </trkpt>
      <trkpt lat="46.13815" lon="6.4542">
        <ele>575.4</ele>
        <time>2021-04-03T14:50:47Z</time>
      </trkpt>
      <trkpt lat="46.13811" lon="6.4541">
        <ele>575.2</ele>
        <time>2021-04-03T14:50:48Z</time>
      </trkpt>
      <trkpt lat="46.13808" lon="6.45399">
        <ele>575</ele>
        <time>2021-04-03T14:50:49Z</time>
      </trkpt>
      <trkpt lat="46.13804" lon="6.45388">
        <ele>574.8</ele>
        <time>2021-04-03T14:50:50Z</time>
      </trkpt>
      <trkpt lat="46.138" lon="6.45377">
        <ele>574.6</ele>
        <time>2021-04-03T14:50:51Z</time>
      </trkpt>
      <trkpt lat="46.13796" lon="6.45367">
        <ele>574.2</ele>
        <time>2021-04-03T14:50:52Z</time>
      </trkpt>
      <trkpt lat="46.13792" lon="6.45356">
        <ele>574</ele>
        <time>2021-04-03T14:50:53Z</time>
      </trkpt>
      <trkpt lat="46.13788" lon="6.45346">
        <ele>574</ele>
        <time>2021-04-03T14:50:54Z</time>
      </trkpt>
      <trkpt lat="46.13785" lon="6.45336">
        <ele>573.8</ele>
        <time>2021-04-03T14:50:55Z</time>
      </trkpt>
      <trkpt lat="46.13782" lon="6.45327">
        <ele>573.6</ele>
        <time>2021-04-03T14:50:56Z</time>
      </trkpt>
      <trkpt lat="46.13778" lon="6.45318">
        <ele>573.8</ele>
        <time>2021-04-03T14:50:57Z</time>
      </trkpt>
      <trkpt lat="46.13775" lon="6.4531">
        <ele>573.6</ele>
        <time>2021-04-03T14:50:58Z</time>
      </trkpt>
      <trkpt lat="46.13772" lon="6.45302">
        <ele>573.6</ele>
        <time>2021-04-03T14:50:59Z</time>
      </trkpt>
      <trkpt lat="46.1377" lon="6.45293">
        <ele>573.8</ele>
        <time>2021-04-03T14:51:00Z</time>
      </trkpt>
      <trkpt lat="46.13767" lon="6.45285">
        <ele>573.8</ele>
        <time>2021-04-03T14:51:01Z</time>
      </trkpt>
      <trkpt lat="46.13764" lon="6.45277">
        <ele>573.8</ele>
        <time>2021-04-03T14:51:02Z</time>
      </trkpt>
      <trkpt lat="46.13762" lon="6.45268">
        <ele>573.8</ele>
        <time>2021-04-03T14:51:03Z</time>
      </trkpt>
      <trkpt lat="46.13758" lon="6.4526">
        <ele>573.8</ele>
        <time>2021-04-03T14:51:04Z</time>
      </trkpt>
      <trkpt lat="46.13755" lon="6.45251">
        <ele>574</ele>
        <time>2021-04-03T14:51:05Z</time>
      </trkpt>
      <trkpt lat="46.13752" lon="6.45243">
        <ele>574.2</ele>
        <time>2021-04-03T14:51:06Z</time>
      </trkpt>
      <trkpt lat="46.13749" lon="6.45234">
        <ele>574.2</ele>
        <time>2021-04-03T14:51:07Z</time>
      </trkpt>
      <trkpt lat="46.13746" lon="6.45226">
        <ele>574.4</ele>
        <time>2021-04-03T14:51:08Z</time>
      </trkpt>
      <trkpt lat="46.13743" lon="6.45217">
        <ele>574.4</ele>
        <time>2021-04-03T14:51:09Z</time>
      </trkpt>
      <trkpt lat="46.1374" lon="6.45208">
        <ele>574.4</ele>
        <time>2021-04-03T14:51:10Z</time>
      </trkpt>
      <trkpt lat="46.13737" lon="6.452">
        <ele>574.4</ele>
        <time>2021-04-03T14:51:11Z</time>
      </trkpt>
      <trkpt lat="46.13734" lon="6.45191">
        <ele>574.8</ele>
        <time>2021-04-03T14:51:12Z</time>
      </trkpt>
      <trkpt lat="46.13732" lon="6.45183">
        <ele>574.8</ele>
        <time>2021-04-03T14:51:13Z</time>
      </trkpt>
      <trkpt lat="46.13729" lon="6.45175">
        <ele>574.8</ele>
        <time>2021-04-03T14:51:14Z</time>
      </trkpt>
      <trkpt lat="46.13726" lon="6.45167">
        <ele>574.8</ele>
        <time>2021-04-03T14:51:15Z</time>
      </trkpt>
      <trkpt lat="46.13723" lon="6.45159">
        <ele>575</ele>
        <time>2021-04-03T14:51:16Z</time>
      </trkpt>
      <trkpt lat="46.13721" lon="6.4515">
        <ele>575</ele>
        <time>2021-04-03T14:51:17Z</time>
      </trkpt>
      <trkpt lat="46.13717" lon="6.45142">
        <ele>575.2</ele>
        <time>2021-04-03T14:51:18Z</time>
      </trkpt>
      <trkpt lat="46.13715" lon="6.45134">
        <ele>575.4</ele>
        <time>2021-04-03T14:51:19Z</time>
      </trkpt>
      <trkpt lat="46.13712" lon="6.45126">
        <ele>575.6</ele>
        <time>2021-04-03T14:51:20Z</time>
      </trkpt>
      <trkpt lat="46.13709" lon="6.45118">
        <ele>575.8</ele>
        <time>2021-04-03T14:51:21Z</time>
      </trkpt>
      <trkpt lat="46.13707" lon="6.45111">
        <ele>576</ele>
        <time>2021-04-03T14:51:22Z</time>
      </trkpt>
      <trkpt lat="46.13705" lon="6.45104">
        <ele>576.2</ele>
        <time>2021-04-03T14:51:23Z</time>
      </trkpt>
      <trkpt lat="46.13703" lon="6.45097">
        <ele>576.4</ele>
        <time>2021-04-03T14:51:24Z</time>
      </trkpt>
      <trkpt lat="46.137" lon="6.4509">
        <ele>576.6</ele>
        <time>2021-04-03T14:51:25Z</time>
      </trkpt>
      <trkpt lat="46.13698" lon="6.45083">
        <ele>576.6</ele>
        <time>2021-04-03T14:51:26Z</time>
      </trkpt>
      <trkpt lat="46.13696" lon="6.45076">
        <ele>577</ele>
        <time>2021-04-03T14:51:27Z</time>
      </trkpt>
      <trkpt lat="46.13693" lon="6.45069">
        <ele>577</ele>
        <time>2021-04-03T14:51:28Z</time>
      </trkpt>
      <trkpt lat="46.13691" lon="6.45063">
        <ele>577.2</ele>
        <time>2021-04-03T14:51:29Z</time>
      </trkpt>
      <trkpt lat="46.13688" lon="6.45056">
        <ele>577.6</ele>
        <time>2021-04-03T14:51:30Z</time>
      </trkpt>
      <trkpt lat="46.13686" lon="6.45049">
        <ele>577.6</ele>
        <time>2021-04-03T14:51:31Z</time>
      </trkpt>
      <trkpt lat="46.13684" lon="6.45042">
        <ele>577.8</ele>
        <time>2021-04-03T14:51:32Z</time>
      </trkpt>
      <trkpt lat="46.13682" lon="6.45036">
        <ele>578</ele>
        <time>2021-04-03T14:51:33Z</time>
      </trkpt>
      <trkpt lat="46.13679" lon="6.45029">
        <ele>578.2</ele>
        <time>2021-04-03T14:51:34Z</time>
      </trkpt>
      <trkpt lat="46.13677" lon="6.45022">
        <ele>578.4</ele>
        <time>2021-04-03T14:51:35Z</time>
      </trkpt>
      <trkpt lat="46.13674" lon="6.45015">
        <ele>578.6</ele>
        <time>2021-04-03T14:51:36Z</time>
      </trkpt>
      <trkpt lat="46.13672" lon="6.45007">
        <ele>578.8</ele>
        <time>2021-04-03T14:51:37Z</time>
      </trkpt>
      <trkpt lat="46.1367" lon="6.45">
        <ele>579</ele>
        <time>2021-04-03T14:51:38Z</time>
      </trkpt>
      <trkpt lat="46.13668" lon="6.44993">
        <ele>579.2</ele>
        <time>2021-04-03T14:51:39Z</time>
      </trkpt>
      <trkpt lat="46.13666" lon="6.44986">
        <ele>579.4</ele>
        <time>2021-04-03T14:51:40Z</time>
      </trkpt>
      <trkpt lat="46.13663" lon="6.44979">
        <ele>579.6</ele>
        <time>2021-04-03T14:51:41Z</time>
      </trkpt>
      <trkpt lat="46.13661" lon="6.44973">
        <ele>579.8</ele>
        <time>2021-04-03T14:51:42Z</time>
      </trkpt>
      <trkpt lat="46.13659" lon="6.44967">
        <ele>580</ele>
        <time>2021-04-03T14:51:43Z</time>
      </trkpt>
      <trkpt lat="46.13657" lon="6.44961">
        <ele>580.2</ele>
        <time>2021-04-03T14:51:44Z</time>
      </trkpt>
      <trkpt lat="46.13655" lon="6.44955">
        <ele>580.2</ele>
        <time>2021-04-03T14:51:45Z</time>
      </trkpt>
      <trkpt lat="46.13653" lon="6.44949">
        <ele>580.4</ele>
        <time>2021-04-03T14:51:46Z</time>
      </trkpt>
      <trkpt lat="46.13651" lon="6.44943">
        <ele>580.4</ele>
        <time>2021-04-03T14:51:47Z</time>
      </trkpt>
      <trkpt lat="46.13649" lon="6.44937">
        <ele>580.6</ele>
        <time>2021-04-03T14:51:48Z</time>
      </trkpt>
      <trkpt lat="46.13647" lon="6.44931">
        <ele>580.8</ele>
        <time>2021-04-03T14:51:49Z</time>
      </trkpt>
      <trkpt lat="46.13645" lon="6.44925">
        <ele>581</ele>
        <time>2021-04-03T14:51:50Z</time>
      </trkpt>
      <trkpt lat="46.13644" lon="6.44918">
        <ele>581</ele>
        <time>2021-04-03T14:51:51Z</time>
      </trkpt>
      <trkpt lat="46.13642" lon="6.44912">
        <ele>581.2</ele>
        <time>2021-04-03T14:51:52Z</time>
      </trkpt>
      <trkpt lat="46.1364" lon="6.44905">
        <ele>581.2</ele>
        <time>2021-04-03T14:51:53Z</time>
      </trkpt>
      <trkpt lat="46.13638" lon="6.44898">
        <ele>581.4</ele>
        <time>2021-04-03T14:51:54Z</time>
      </trkpt>
      <trkpt lat="46.13635" lon="6.44891">
        <ele>581.6</ele>
        <time>2021-04-03T14:51:55Z</time>
      </trkpt>
      <trkpt lat="46.13633" lon="6.44884">
        <ele>581.8</ele>
        <time>2021-04-03T14:51:56Z</time>
      </trkpt>
      <trkpt lat="46.1363" lon="6.44878">
        <ele>582</ele>
        <time>2021-04-03T14:51:57Z</time>
      </trkpt>
      <trkpt lat="46.13628" lon="6.44871">
        <ele>582.4</ele>
        <time>2021-04-03T14:51:58Z</time>
      </trkpt>
      <trkpt lat="46.13626" lon="6.44865">
        <ele>582.4</ele>
        <time>2021-04-03T14:51:59Z</time>
      </trkpt>
      <trkpt lat="46.13623" lon="6.44858">
        <ele>582.8</ele>
        <time>2021-04-03T14:52:00Z</time>
      </trkpt>
      <trkpt lat="46.13621" lon="6.44851">
        <ele>583</ele>
        <time>2021-04-03T14:52:01Z</time>
      </trkpt>
      <trkpt lat="46.13619" lon="6.44845">
        <ele>583.2</ele>
        <time>2021-04-03T14:52:02Z</time>
      </trkpt>
      <trkpt lat="46.13617" lon="6.44838">
        <ele>583.6</ele>
        <time>2021-04-03T14:52:03Z</time>
      </trkpt>
      <trkpt lat="46.13615" lon="6.44832">
        <ele>583.8</ele>
        <time>2021-04-03T14:52:04Z</time>
      </trkpt>
      <trkpt lat="46.13613" lon="6.44826">
        <ele>583.8</ele>
        <time>2021-04-03T14:52:05Z</time>
      </trkpt>
      <trkpt lat="46.13611" lon="6.4482">
        <ele>584.2</ele>
        <time>2021-04-03T14:52:06Z</time>
      </trkpt>
      <trkpt lat="46.13609" lon="6.44814">
        <ele>584.2</ele>
        <time>2021-04-03T14:52:07Z</time>
      </trkpt>
      <trkpt lat="46.13607" lon="6.44808">
        <ele>584.2</ele>
        <time>2021-04-03T14:52:08Z</time>
      </trkpt>
      <trkpt lat="46.13605" lon="6.44802">
        <ele>584.6</ele>
        <time>2021-04-03T14:52:09Z</time>
      </trkpt>
      <trkpt lat="46.13603" lon="6.44796">
        <ele>584.4</ele>
        <time>2021-04-03T14:52:10Z</time>
      </trkpt>
      <trkpt lat="46.13601" lon="6.4479">
        <ele>584.6</ele>
        <time>2021-04-03T14:52:11Z</time>
      </trkpt>
      <trkpt lat="46.136" lon="6.44783">
        <ele>584.8</ele>
        <time>2021-04-03T14:52:12Z</time>
      </trkpt>
      <trkpt lat="46.13598" lon="6.44777">
        <ele>585</ele>
        <time>2021-04-03T14:52:13Z</time>
      </trkpt>
      <trkpt lat="46.13596" lon="6.4477">
        <ele>585.2</ele>
        <time>2021-04-03T14:52:14Z</time>
      </trkpt>
      <trkpt lat="46.13595" lon="6.44764">
        <ele>585.4</ele>
        <time>2021-04-03T14:52:15Z</time>
      </trkpt>
      <trkpt lat="46.13593" lon="6.44757">
        <ele>585.6</ele>
        <time>2021-04-03T14:52:16Z</time>
      </trkpt>
      <trkpt lat="46.13592" lon="6.4475">
        <ele>585.8</ele>
        <time>2021-04-03T14:52:17Z</time>
      </trkpt>
      <trkpt lat="46.13591" lon="6.44744">
        <ele>586</ele>
        <time>2021-04-03T14:52:18Z</time>
      </trkpt>
      <trkpt lat="46.13589" lon="6.44738">
        <ele>586</ele>
        <time>2021-04-03T14:52:19Z</time>
      </trkpt>
      <trkpt lat="46.13588" lon="6.44731">
        <ele>586.2</ele>
        <time>2021-04-03T14:52:20Z</time>
      </trkpt>
      <trkpt lat="46.13587" lon="6.44724">
        <ele>586.4</ele>
        <time>2021-04-03T14:52:21Z</time>
      </trkpt>
      <trkpt lat="46.13585" lon="6.44718">
        <ele>586.4</ele>
        <time>2021-04-03T14:52:22Z</time>
      </trkpt>
      <trkpt lat="46.13584" lon="6.44712">
        <ele>586.6</ele>
        <time>2021-04-03T14:52:23Z</time>
      </trkpt>
      <trkpt lat="46.13583" lon="6.44705">
        <ele>586.8</ele>
        <time>2021-04-03T14:52:24Z</time>
      </trkpt>
      <trkpt lat="46.13582" lon="6.44699">
        <ele>587</ele>
        <time>2021-04-03T14:52:25Z</time>
      </trkpt>
      <trkpt lat="46.1358" lon="6.44693">
        <ele>587.2</ele>
        <time>2021-04-03T14:52:26Z</time>
      </trkpt>
      <trkpt lat="46.13579" lon="6.44687">
        <ele>587.2</ele>
        <time>2021-04-03T14:52:27Z</time>
      </trkpt>
      <trkpt lat="46.13578" lon="6.4468">
        <ele>587.2</ele>
        <time>2021-04-03T14:52:28Z</time>
      </trkpt>
      <trkpt lat="46.13576" lon="6.44674">
        <ele>587.4</ele>
        <time>2021-04-03T14:52:29Z</time>
      </trkpt>
      <trkpt lat="46.13575" lon="6.44667">
        <ele>587.6</ele>
        <time>2021-04-03T14:52:30Z</time>
      </trkpt>
      <trkpt lat="46.13574" lon="6.44661">
        <ele>587.8</ele>
        <time>2021-04-03T14:52:31Z</time>
      </trkpt>
      <trkpt lat="46.13572" lon="6.44655">
        <ele>587.8</ele>
        <time>2021-04-03T14:52:32Z</time>
      </trkpt>
      <trkpt lat="46.13571" lon="6.44648">
        <ele>588.4</ele>
        <time>2021-04-03T14:52:33Z</time>
      </trkpt>
      <trkpt lat="46.1357" lon="6.44642">
        <ele>588.4</ele>
        <time>2021-04-03T14:52:34Z</time>
      </trkpt>
      <trkpt lat="46.13569" lon="6.44635">
        <ele>588.6</ele>
        <time>2021-04-03T14:52:35Z</time>
      </trkpt>
      <trkpt lat="46.13568" lon="6.44628">
        <ele>589</ele>
        <time>2021-04-03T14:52:36Z</time>
      </trkpt>
      <trkpt lat="46.13566" lon="6.4462">
        <ele>588.8</ele>
        <time>2021-04-03T14:52:37Z</time>
      </trkpt>
      <trkpt lat="46.13565" lon="6.44614">
        <ele>589</ele>
        <time>2021-04-03T14:52:38Z</time>
      </trkpt>
      <trkpt lat="46.13563" lon="6.44607">
        <ele>589.2</ele>
        <time>2021-04-03T14:52:39Z</time>
      </trkpt>
      <trkpt lat="46.13562" lon="6.446">
        <ele>589.6</ele>
        <time>2021-04-03T14:52:40Z</time>
      </trkpt>
      <trkpt lat="46.13561" lon="6.44594">
        <ele>589.8</ele>
        <time>2021-04-03T14:52:41Z</time>
      </trkpt>
      <trkpt lat="46.1356" lon="6.44587">
        <ele>590</ele>
        <time>2021-04-03T14:52:42Z</time>
      </trkpt>
      <trkpt lat="46.13558" lon="6.44581">
        <ele>590.2</ele>
        <time>2021-04-03T14:52:43Z</time>
      </trkpt>
      <trkpt lat="46.13557" lon="6.44574">
        <ele>590.4</ele>
        <time>2021-04-03T14:52:44Z</time>
      </trkpt>
      <trkpt lat="46.13555" lon="6.44568">
        <ele>590.8</ele>
        <time>2021-04-03T14:52:45Z</time>
      </trkpt>
      <trkpt lat="46.13554" lon="6.44562">
        <ele>591</ele>
        <time>2021-04-03T14:52:46Z</time>
      </trkpt>
      <trkpt lat="46.13553" lon="6.44556">
        <ele>591</ele>
        <time>2021-04-03T14:52:47Z</time>
      </trkpt>
      <trkpt lat="46.13552" lon="6.4455">
        <ele>591.4</ele>
        <time>2021-04-03T14:52:48Z</time>
      </trkpt>
      <trkpt lat="46.1355" lon="6.44543">
        <ele>591.2</ele>
        <time>2021-04-03T14:52:49Z</time>
      </trkpt>
      <trkpt lat="46.13549" lon="6.44536">
        <ele>591.6</ele>
        <time>2021-04-03T14:52:50Z</time>
      </trkpt>
      <trkpt lat="46.13548" lon="6.4453">
        <ele>591.4</ele>
        <time>2021-04-03T14:52:51Z</time>
      </trkpt>
      <trkpt lat="46.13546" lon="6.44523">
        <ele>592</ele>
        <time>2021-04-03T14:52:52Z</time>
      </trkpt>
      <trkpt lat="46.13544" lon="6.44516">
        <ele>592</ele>
        <time>2021-04-03T14:52:53Z</time>
      </trkpt>
      <trkpt lat="46.13543" lon="6.4451">
        <ele>592</ele>
        <time>2021-04-03T14:52:54Z</time>
      </trkpt>
      <trkpt lat="46.13541" lon="6.44504">
        <ele>592.2</ele>
        <time>2021-04-03T14:52:55Z</time>
      </trkpt>
      <trkpt lat="46.1354" lon="6.44498">
        <ele>592.4</ele>
        <time>2021-04-03T14:52:56Z</time>
      </trkpt>
      <trkpt lat="46.13538" lon="6.44492">
        <ele>592.6</ele>
        <time>2021-04-03T14:52:57Z</time>
      </trkpt>
      <trkpt lat="46.13537" lon="6.44485">
        <ele>592.6</ele>
        <time>2021-04-03T14:52:58Z</time>
      </trkpt>
      <trkpt lat="46.13536" lon="6.44478">
        <ele>592.6</ele>
        <time>2021-04-03T14:52:59Z</time>
      </trkpt>
      <trkpt lat="46.13534" lon="6.44472">
        <ele>592.6</ele>
        <time>2021-04-03T14:53:00Z</time>
      </trkpt>
      <trkpt lat="46.13533" lon="6.44465">
        <ele>592.8</ele>
        <time>2021-04-03T14:53:01Z</time>
      </trkpt>
      <trkpt lat="46.13532" lon="6.44458">
        <ele>593</ele>
        <time>2021-04-03T14:53:02Z</time>
      </trkpt>
      <trkpt lat="46.1353" lon="6.44452">
        <ele>593.4</ele>
        <time>2021-04-03T14:53:03Z</time>
      </trkpt>
      <trkpt lat="46.13529" lon="6.44445">
        <ele>593.4</ele>
        <time>2021-04-03T14:53:04Z</time>
      </trkpt>
      <trkpt lat="46.13528" lon="6.44439">
        <ele>593.4</ele>
        <time>2021-04-03T14:53:05Z</time>
      </trkpt>
      <trkpt lat="46.13527" lon="6.44432">
        <ele>593.6</ele>
        <time>2021-04-03T14:53:06Z</time>
      </trkpt>
      <trkpt lat="46.13525" lon="6.44426">
        <ele>593.8</ele>
        <time>2021-04-03T14:53:07Z</time>
      </trkpt>
      <trkpt lat="46.13524" lon="6.44419">
        <ele>594</ele>
        <time>2021-04-03T14:53:08Z</time>
      </trkpt>
      <trkpt lat="46.13523" lon="6.44413">
        <ele>594.2</ele>
        <time>2021-04-03T14:53:09Z</time>
      </trkpt>
      <trkpt lat="46.13522" lon="6.44407">
        <ele>594.2</ele>
        <time>2021-04-03T14:53:10Z</time>
      </trkpt>
      <trkpt lat="46.13521" lon="6.444">
        <ele>594.4</ele>
        <time>2021-04-03T14:53:11Z</time>
      </trkpt>
      <trkpt lat="46.13519" lon="6.44394">
        <ele>594.6</ele>
        <time>2021-04-03T14:53:12Z</time>
      </trkpt>
      <trkpt lat="46.13518" lon="6.44387">
        <ele>594.8</ele>
        <time>2021-04-03T14:53:13Z</time>
      </trkpt>
      <trkpt lat="46.13517" lon="6.44381">
        <ele>595</ele>
        <time>2021-04-03T14:53:14Z</time>
      </trkpt>
      <trkpt lat="46.13516" lon="6.44374">
        <ele>595</ele>
        <time>2021-04-03T14:53:15Z</time>
      </trkpt>
      <trkpt lat="46.13515" lon="6.44368">
        <ele>595.2</ele>
        <time>2021-04-03T14:53:16Z</time>
      </trkpt>
      <trkpt lat="46.13514" lon="6.44362">
        <ele>595.4</ele>
        <time>2021-04-03T14:53:17Z</time>
      </trkpt>
      <trkpt lat="46.13513" lon="6.44355">
        <ele>595.4</ele>
        <time>2021-04-03T14:53:18Z</time>
      </trkpt>
      <trkpt lat="46.13512" lon="6.44349">
        <ele>595.6</ele>
        <time>2021-04-03T14:53:19Z</time>
      </trkpt>
      <trkpt lat="46.13511" lon="6.44342">
        <ele>596</ele>
        <time>2021-04-03T14:53:20Z</time>
      </trkpt>
      <trkpt lat="46.1351" lon="6.44336">
        <ele>596</ele>
        <time>2021-04-03T14:53:21Z</time>
      </trkpt>
      <trkpt lat="46.13509" lon="6.44329">
        <ele>596</ele>
        <time>2021-04-03T14:53:22Z</time>
      </trkpt>
      <trkpt lat="46.13509" lon="6.44322">
        <ele>596.4</ele>
        <time>2021-04-03T14:53:23Z</time>
      </trkpt>
      <trkpt lat="46.13509" lon="6.44315">
        <ele>596.6</ele>
        <time>2021-04-03T14:53:24Z</time>
      </trkpt>
      <trkpt lat="46.13509" lon="6.44309">
        <ele>596.4</ele>
        <time>2021-04-03T14:53:25Z</time>
      </trkpt>
      <trkpt lat="46.13509" lon="6.44302">
        <ele>596.8</ele>
        <time>2021-04-03T14:53:26Z</time>
      </trkpt>
      <trkpt lat="46.1351" lon="6.44295">
        <ele>596.6</ele>
        <time>2021-04-03T14:53:27Z</time>
      </trkpt>
      <trkpt lat="46.1351" lon="6.44288">
        <ele>596.8</ele>
        <time>2021-04-03T14:53:28Z</time>
      </trkpt>
      <trkpt lat="46.13511" lon="6.44282">
        <ele>596.8</ele>
        <time>2021-04-03T14:53:29Z</time>
      </trkpt>
      <trkpt lat="46.13512" lon="6.44275">
        <ele>597</ele>
        <time>2021-04-03T14:53:30Z</time>
      </trkpt>
      <trkpt lat="46.13514" lon="6.44268">
        <ele>597.2</ele>
        <time>2021-04-03T14:53:31Z</time>
      </trkpt>
      <trkpt lat="46.13515" lon="6.44261">
        <ele>597.4</ele>
        <time>2021-04-03T14:53:32Z</time>
      </trkpt>
      <trkpt lat="46.13515" lon="6.44253">
        <ele>597.8</ele>
        <time>2021-04-03T14:53:33Z</time>
      </trkpt>
      <trkpt lat="46.13516" lon="6.44246">
        <ele>597.8</ele>
        <time>2021-04-03T14:53:34Z</time>
      </trkpt>
      <trkpt lat="46.13517" lon="6.44239">
        <ele>598</ele>
        <time>2021-04-03T14:53:35Z</time>
      </trkpt>
      <trkpt lat="46.13518" lon="6.44231">
        <ele>598.2</ele>
        <time>2021-04-03T14:53:36Z</time>
      </trkpt>
      <trkpt lat="46.1352" lon="6.44223">
        <ele>598.2</ele>
        <time>2021-04-03T14:53:37Z</time>
      </trkpt>
      <trkpt lat="46.13521" lon="6.44216">
        <ele>598.4</ele>
        <time>2021-04-03T14:53:38Z</time>
      </trkpt>
      <trkpt lat="46.13522" lon="6.44208">
        <ele>598.4</ele>
        <time>2021-04-03T14:53:39Z</time>
      </trkpt>
      <trkpt lat="46.13524" lon="6.442">
        <ele>598.4</ele>
        <time>2021-04-03T14:53:40Z</time>
      </trkpt>
      <trkpt lat="46.13525" lon="6.44192">
        <ele>598.6</ele>
        <time>2021-04-03T14:53:41Z</time>
      </trkpt>
      <trkpt lat="46.13527" lon="6.44184">
        <ele>598.6</ele>
        <time>2021-04-03T14:53:42Z</time>
      </trkpt>
      <trkpt lat="46.13528" lon="6.44176">
        <ele>598.8</ele>
        <time>2021-04-03T14:53:43Z</time>
      </trkpt>
      <trkpt lat="46.1353" lon="6.44167">
        <ele>598.6</ele>
        <time>2021-04-03T14:53:44Z</time>
      </trkpt>
      <trkpt lat="46.13532" lon="6.44159">
        <ele>598.6</ele>
        <time>2021-04-03T14:53:45Z</time>
      </trkpt>
      <trkpt lat="46.13533" lon="6.44151">
        <ele>598.6</ele>
        <time>2021-04-03T14:53:46Z</time>
      </trkpt>
      <trkpt lat="46.13535" lon="6.44143">
        <ele>598.8</ele>
        <time>2021-04-03T14:53:47Z</time>
      </trkpt>
      <trkpt lat="46.13536" lon="6.44135">
        <ele>598.8</ele>
        <time>2021-04-03T14:53:48Z</time>
      </trkpt>
      <trkpt lat="46.13538" lon="6.44127">
        <ele>598.8</ele>
        <time>2021-04-03T14:53:49Z</time>
      </trkpt>
      <trkpt lat="46.13539" lon="6.44119">
        <ele>598.8</ele>
        <time>2021-04-03T14:53:50Z</time>
      </trkpt>
      <trkpt lat="46.13541" lon="6.44111">
        <ele>598.8</ele>
        <time>2021-04-03T14:53:51Z</time>
      </trkpt>
      <trkpt lat="46.13542" lon="6.44103">
        <ele>598.8</ele>
        <time>2021-04-03T14:53:52Z</time>
      </trkpt>
      <trkpt lat="46.13544" lon="6.44095">
        <ele>599</ele>
        <time>2021-04-03T14:53:53Z</time>
      </trkpt>
      <trkpt lat="46.13545" lon="6.44087">
        <ele>599.2</ele>
        <time>2021-04-03T14:53:54Z</time>
      </trkpt>
      <trkpt lat="46.13547" lon="6.4408">
        <ele>599.2</ele>
        <time>2021-04-03T14:53:55Z</time>
      </trkpt>
      <trkpt lat="46.13548" lon="6.44072">
        <ele>599.2</ele>
        <time>2021-04-03T14:53:56Z</time>
      </trkpt>
      <trkpt lat="46.1355" lon="6.44064">
        <ele>599.4</ele>
        <time>2021-04-03T14:53:57Z</time>
      </trkpt>
      <trkpt lat="46.13551" lon="6.44055">
        <ele>599.6</ele>
        <time>2021-04-03T14:53:58Z</time>
      </trkpt>
      <trkpt lat="46.13553" lon="6.44047">
        <ele>599.6</ele>
        <time>2021-04-03T14:53:59Z</time>
      </trkpt>
      <trkpt lat="46.13554" lon="6.44039">
        <ele>599.8</ele>
        <time>2021-04-03T14:54:00Z</time>
      </trkpt>
      <trkpt lat="46.13556" lon="6.44031">
        <ele>599.8</ele>
        <time>2021-04-03T14:54:01Z</time>
      </trkpt>
      <trkpt lat="46.13558" lon="6.44022">
        <ele>600</ele>
        <time>2021-04-03T14:54:02Z</time>
      </trkpt>
      <trkpt lat="46.13559" lon="6.44014">
        <ele>600</ele>
        <time>2021-04-03T14:54:03Z</time>
      </trkpt>
      <trkpt lat="46.13561" lon="6.44006">
        <ele>600.2</ele>
        <time>2021-04-03T14:54:04Z</time>
      </trkpt>
      <trkpt lat="46.13563" lon="6.43998">
        <ele>600.2</ele>
        <time>2021-04-03T14:54:05Z</time>
      </trkpt>
      <trkpt lat="46.13564" lon="6.4399">
        <ele>600.4</ele>
        <time>2021-04-03T14:54:06Z</time>
      </trkpt>
      <trkpt lat="46.13566" lon="6.43982">
        <ele>600.2</ele>
        <time>2021-04-03T14:54:07Z</time>
      </trkpt>
      <trkpt lat="46.13567" lon="6.43974">
        <ele>600.4</ele>
        <time>2021-04-03T14:54:08Z</time>
      </trkpt>
      <trkpt lat="46.13568" lon="6.43966">
        <ele>600.6</ele>
        <time>2021-04-03T14:54:09Z</time>
      </trkpt>
      <trkpt lat="46.13569" lon="6.43958">
        <ele>600.8</ele>
        <time>2021-04-03T14:54:10Z</time>
      </trkpt>
      <trkpt lat="46.1357" lon="6.4395">
        <ele>600.8</ele>
        <time>2021-04-03T14:54:11Z</time>
      </trkpt>
      <trkpt lat="46.13571" lon="6.43941">
        <ele>600.8</ele>
        <time>2021-04-03T14:54:12Z</time>
      </trkpt>
      <trkpt lat="46.13572" lon="6.43933">
        <ele>601</ele>
        <time>2021-04-03T14:54:13Z</time>
      </trkpt>
      <trkpt lat="46.13573" lon="6.43925">
        <ele>600.8</ele>
        <time>2021-04-03T14:54:14Z</time>
      </trkpt>
      <trkpt lat="46.13575" lon="6.43917">
        <ele>601</ele>
        <time>2021-04-03T14:54:15Z</time>
      </trkpt>
      <trkpt lat="46.13576" lon="6.43909">
        <ele>601</ele>
        <time>2021-04-03T14:54:16Z</time>
      </trkpt>
      <trkpt lat="46.13578" lon="6.43902">
        <ele>601</ele>
        <time>2021-04-03T14:54:17Z</time>
      </trkpt>
      <trkpt lat="46.13579" lon="6.43894">
        <ele>601.2</ele>
        <time>2021-04-03T14:54:18Z</time>
      </trkpt>
      <trkpt lat="46.1358" lon="6.43887">
        <ele>601.2</ele>
        <time>2021-04-03T14:54:19Z</time>
      </trkpt>
      <trkpt lat="46.1358" lon="6.43879">
        <ele>601.4</ele>
        <time>2021-04-03T14:54:20Z</time>
      </trkpt>
      <trkpt lat="46.1358" lon="6.43872">
        <ele>601.2</ele>
        <time>2021-04-03T14:54:21Z</time>
      </trkpt>
      <trkpt lat="46.13578" lon="6.43865">
        <ele>601.2</ele>
        <time>2021-04-03T14:54:22Z</time>
      </trkpt>
      <trkpt lat="46.13577" lon="6.43858">
        <ele>601.4</ele>
        <time>2021-04-03T14:54:23Z</time>
      </trkpt>
      <trkpt lat="46.13574" lon="6.43852">
        <ele>601.4</ele>
        <time>2021-04-03T14:54:24Z</time>
      </trkpt>
      <trkpt lat="46.13572" lon="6.43846">
        <ele>601.8</ele>
        <time>2021-04-03T14:54:25Z</time>
      </trkpt>
      <trkpt lat="46.1357" lon="6.43839">
        <ele>601.8</ele>
        <time>2021-04-03T14:54:26Z</time>
      </trkpt>
      <trkpt lat="46.13568" lon="6.43832">
        <ele>602</ele>
        <time>2021-04-03T14:54:27Z</time>
      </trkpt>
      <trkpt lat="46.13567" lon="6.43825">
        <ele>602.2</ele>
        <time>2021-04-03T14:54:28Z</time>
      </trkpt>
      <trkpt lat="46.13565" lon="6.43817">
        <ele>602.6</ele>
        <time>2021-04-03T14:54:29Z</time>
      </trkpt>
      <trkpt lat="46.13564" lon="6.43809">
        <ele>602.8</ele>
        <time>2021-04-03T14:54:30Z</time>
      </trkpt>
      <trkpt lat="46.13563" lon="6.43801">
        <ele>602.8</ele>
        <time>2021-04-03T14:54:31Z</time>
      </trkpt>
      <trkpt lat="46.13562" lon="6.43793">
        <ele>603</ele>
        <time>2021-04-03T14:54:32Z</time>
      </trkpt>
      <trkpt lat="46.13562" lon="6.43784">
        <ele>603.2</ele>
        <time>2021-04-03T14:54:33Z</time>
      </trkpt>
      <trkpt lat="46.13562" lon="6.43775">
        <ele>603.6</ele>
        <time>2021-04-03T14:54:34Z</time>
      </trkpt>
      <trkpt lat="46.13561" lon="6.43765">
        <ele>603.4</ele>
        <time>2021-04-03T14:54:35Z</time>
      </trkpt>
      <trkpt lat="46.1356" lon="6.43756">
        <ele>603.8</ele>
        <time>2021-04-03T14:54:36Z</time>
      </trkpt>
      <trkpt lat="46.13559" lon="6.43746">
        <ele>603.8</ele>
        <time>2021-04-03T14:54:37Z</time>
      </trkpt>
      <trkpt lat="46.13559" lon="6.43736">
        <ele>603.8</ele>
        <time>2021-04-03T14:54:38Z</time>
      </trkpt>
      <trkpt lat="46.13558" lon="6.43726">
        <ele>604</ele>
        <time>2021-04-03T14:54:39Z</time>
      </trkpt>
      <trkpt lat="46.13557" lon="6.43716">
        <ele>603.8</ele>
        <time>2021-04-03T14:54:40Z</time>
      </trkpt>
      <trkpt lat="46.13556" lon="6.43706">
        <ele>603.8</ele>
        <time>2021-04-03T14:54:41Z</time>
      </trkpt>
      <trkpt lat="46.13556" lon="6.43696">
        <ele>603.8</ele>
        <time>2021-04-03T14:54:42Z</time>
      </trkpt>
      <trkpt lat="46.13556" lon="6.43685">
        <ele>603.8</ele>
        <time>2021-04-03T14:54:43Z</time>
      </trkpt>
      <trkpt lat="46.13557" lon="6.43676">
        <ele>604</ele>
        <time>2021-04-03T14:54:44Z</time>
      </trkpt>
      <trkpt lat="46.1356" lon="6.43667">
        <ele>604</ele>
        <time>2021-04-03T14:54:45Z</time>
      </trkpt>
      <trkpt lat="46.13562" lon="6.43659">
        <ele>604</ele>
        <time>2021-04-03T14:54:46Z</time>
      </trkpt>
      <trkpt lat="46.13565" lon="6.43651">
        <ele>604</ele>
        <time>2021-04-03T14:54:47Z</time>
      </trkpt>
      <trkpt lat="46.13568" lon="6.43645">
        <ele>604</ele>
        <time>2021-04-03T14:54:48Z</time>
      </trkpt>
      <trkpt lat="46.13571" lon="6.4364">
        <ele>604</ele>
        <time>2021-04-03T14:54:49Z</time>
      </trkpt>
      <trkpt lat="46.13573" lon="6.43636">
        <ele>604</ele>
        <time>2021-04-03T14:54:50Z</time>
      </trkpt>
      <trkpt lat="46.13576" lon="6.43633">
        <ele>604</ele>
        <time>2021-04-03T14:54:51Z</time>
      </trkpt>
      <trkpt lat="46.13578" lon="6.43629">
        <ele>604</ele>
        <time>2021-04-03T14:54:52Z</time>
      </trkpt>
      <trkpt lat="46.1358" lon="6.43626">
        <ele>604</ele>
        <time>2021-04-03T14:54:53Z</time>
      </trkpt>
      <trkpt lat="46.13582" lon="6.43624">
        <ele>604.2</ele>
        <time>2021-04-03T14:54:54Z</time>
      </trkpt>
      <trkpt lat="46.13585" lon="6.43621">
        <ele>604.8</ele>
        <time>2021-04-03T14:54:55Z</time>
      </trkpt>
      <trkpt lat="46.13587" lon="6.43618">
        <ele>605.2</ele>
        <time>2021-04-03T14:54:56Z</time>
      </trkpt>
      <trkpt lat="46.13589" lon="6.43616">
        <ele>605.6</ele>
        <time>2021-04-03T14:54:57Z</time>
      </trkpt>
      <trkpt lat="46.13594" lon="6.43611">
        <ele>606.8</ele>
        <time>2021-04-03T14:54:59Z</time>
      </trkpt>
      <trkpt lat="46.13595" lon="6.43609">
        <ele>607.6</ele>
        <time>2021-04-03T14:55:00Z</time>
      </trkpt>
      <trkpt lat="46.13597" lon="6.43606">
        <ele>608.2</ele>
        <time>2021-04-03T14:55:01Z</time>
      </trkpt>
      <trkpt lat="46.13598" lon="6.43604">
        <ele>608.8</ele>
        <time>2021-04-03T14:55:02Z</time>
      </trkpt>
      <trkpt lat="46.13602" lon="6.43599">
        <ele>609.4</ele>
        <time>2021-04-03T14:55:04Z</time>
      </trkpt>
      <trkpt lat="46.13604" lon="6.43596">
        <ele>609.8</ele>
        <time>2021-04-03T14:55:05Z</time>
      </trkpt>
      <trkpt lat="46.13606" lon="6.43594">
        <ele>610.2</ele>
        <time>2021-04-03T14:55:06Z</time>
      </trkpt>
      <trkpt lat="46.13608" lon="6.43591">
        <ele>610.6</ele>
        <time>2021-04-03T14:55:07Z</time>
      </trkpt>
      <trkpt lat="46.13612" lon="6.43586">
        <ele>611.4</ele>
        <time>2021-04-03T14:55:09Z</time>
      </trkpt>
      <trkpt lat="46.13614" lon="6.43581">
        <ele>612.2</ele>
        <time>2021-04-03T14:55:11Z</time>
      </trkpt>
      <trkpt lat="46.13615" lon="6.43577">
        <ele>612.8</ele>
        <time>2021-04-03T14:55:12Z</time>
      </trkpt>
      <trkpt lat="46.13615" lon="6.43573">
        <ele>613</ele>
        <time>2021-04-03T14:55:13Z</time>
      </trkpt>
      <trkpt lat="46.13616" lon="6.43569">
        <ele>613.2</ele>
        <time>2021-04-03T14:55:14Z</time>
      </trkpt>
      <trkpt lat="46.13616" lon="6.43561">
        <ele>613.6</ele>
        <time>2021-04-03T14:55:16Z</time>
      </trkpt>
      <trkpt lat="46.13616" lon="6.43556">
        <ele>613.8</ele>
        <time>2021-04-03T14:55:17Z</time>
      </trkpt>
      <trkpt lat="46.13616" lon="6.43551">
        <ele>614</ele>
        <time>2021-04-03T14:55:18Z</time>
      </trkpt>
      <trkpt lat="46.13616" lon="6.43546">
        <ele>614.4</ele>
        <time>2021-04-03T14:55:19Z</time>
      </trkpt>
      <trkpt lat="46.13615" lon="6.43541">
        <ele>614.6</ele>
        <time>2021-04-03T14:55:20Z</time>
      </trkpt>
      <trkpt lat="46.13615" lon="6.43537">
        <ele>615</ele>
        <time>2021-04-03T14:55:21Z</time>
      </trkpt>
      <trkpt lat="46.13614" lon="6.43532">
        <ele>615.2</ele>
        <time>2021-04-03T14:55:22Z</time>
      </trkpt>
      <trkpt lat="46.13613" lon="6.43527">
        <ele>615.6</ele>
        <time>2021-04-03T14:55:23Z</time>
      </trkpt>
      <trkpt lat="46.13611" lon="6.43523">
        <ele>615.8</ele>
        <time>2021-04-03T14:55:24Z</time>
      </trkpt>
      <trkpt lat="46.13609" lon="6.43519">
        <ele>616</ele>
        <time>2021-04-03T14:55:25Z</time>
      </trkpt>
      <trkpt lat="46.13607" lon="6.43515">
        <ele>616.2</ele>
        <time>2021-04-03T14:55:26Z</time>
      </trkpt>
      <trkpt lat="46.13605" lon="6.43512">
        <ele>616.4</ele>
        <time>2021-04-03T14:55:27Z</time>
      </trkpt>
      <trkpt lat="46.13603" lon="6.43509">
        <ele>616.8</ele>
        <time>2021-04-03T14:55:28Z</time>
      </trkpt>
      <trkpt lat="46.13601" lon="6.43506">
        <ele>616.8</ele>
        <time>2021-04-03T14:55:29Z</time>
      </trkpt>
      <trkpt lat="46.13599" lon="6.43503">
        <ele>617</ele>
        <time>2021-04-03T14:55:30Z</time>
      </trkpt>
      <trkpt lat="46.13596" lon="6.435">
        <ele>617.4</ele>
        <time>2021-04-03T14:55:31Z</time>
      </trkpt>
      <trkpt lat="46.13594" lon="6.43497">
        <ele>618</ele>
        <time>2021-04-03T14:55:32Z</time>
      </trkpt>
      <trkpt lat="46.13591" lon="6.43494">
        <ele>618.4</ele>
        <time>2021-04-03T14:55:33Z</time>
      </trkpt>
      <trkpt lat="46.13589" lon="6.43491">
        <ele>618.8</ele>
        <time>2021-04-03T14:55:34Z</time>
      </trkpt>
      <trkpt lat="46.13586" lon="6.43488">
        <ele>619</ele>
        <time>2021-04-03T14:55:35Z</time>
      </trkpt>
      <trkpt lat="46.13584" lon="6.43485">
        <ele>619</ele>
        <time>2021-04-03T14:55:36Z</time>
      </trkpt>
      <trkpt lat="46.13581" lon="6.43482">
        <ele>619.2</ele>
        <time>2021-04-03T14:55:37Z</time>
      </trkpt>
      <trkpt lat="46.13579" lon="6.43479">
        <ele>619.4</ele>
        <time>2021-04-03T14:55:38Z</time>
      </trkpt>
      <trkpt lat="46.13577" lon="6.43476">
        <ele>619.4</ele>
        <time>2021-04-03T14:55:39Z</time>
      </trkpt>
      <trkpt lat="46.13574" lon="6.43472">
        <ele>619.6</ele>
        <time>2021-04-03T14:55:40Z</time>
      </trkpt>
      <trkpt lat="46.13572" lon="6.43469">
        <ele>620</ele>
        <time>2021-04-03T14:55:41Z</time>
      </trkpt>
      <trkpt lat="46.13569" lon="6.43466">
        <ele>620.2</ele>
        <time>2021-04-03T14:55:42Z</time>
      </trkpt>
      <trkpt lat="46.13566" lon="6.43463">
        <ele>620.4</ele>
        <time>2021-04-03T14:55:43Z</time>
      </trkpt>
      <trkpt lat="46.13563" lon="6.4346">
        <ele>620.4</ele>
        <time>2021-04-03T14:55:44Z</time>
      </trkpt>
      <trkpt lat="46.13561" lon="6.43457">
        <ele>620.4</ele>
        <time>2021-04-03T14:55:45Z</time>
      </trkpt>
      <trkpt lat="46.13558" lon="6.43454">
        <ele>620.6</ele>
        <time>2021-04-03T14:55:46Z</time>
      </trkpt>
      <trkpt lat="46.13555" lon="6.43451">
        <ele>620.4</ele>
        <time>2021-04-03T14:55:47Z</time>
      </trkpt>
      <trkpt lat="46.13552" lon="6.43448">
        <ele>620.6</ele>
        <time>2021-04-03T14:55:48Z</time>
      </trkpt>
      <trkpt lat="46.13549" lon="6.43445">
        <ele>620.8</ele>
        <time>2021-04-03T14:55:49Z</time>
      </trkpt>
      <trkpt lat="46.13546" lon="6.43441">
        <ele>621</ele>
        <time>2021-04-03T14:55:50Z</time>
      </trkpt>
      <trkpt lat="46.13542" lon="6.43438">
        <ele>621.4</ele>
        <time>2021-04-03T14:55:51Z</time>
      </trkpt>
      <trkpt lat="46.13539" lon="6.43435">
        <ele>621.4</ele>
        <time>2021-04-03T14:55:52Z</time>
      </trkpt>
      <trkpt lat="46.13537" lon="6.43432">
        <ele>621.6</ele>
        <time>2021-04-03T14:55:53Z</time>
      </trkpt>
      <trkpt lat="46.13534" lon="6.43428">
        <ele>621.6</ele>
        <time>2021-04-03T14:55:54Z</time>
      </trkpt>
      <trkpt lat="46.13532" lon="6.43425">
        <ele>621.6</ele>
        <time>2021-04-03T14:55:55Z</time>
      </trkpt>
      <trkpt lat="46.1353" lon="6.43421">
        <ele>622</ele>
        <time>2021-04-03T14:55:56Z</time>
      </trkpt>
      <trkpt lat="46.13529" lon="6.43417">
        <ele>622.4</ele>
        <time>2021-04-03T14:55:57Z</time>
      </trkpt>
      <trkpt lat="46.13527" lon="6.43414">
        <ele>622.6</ele>
        <time>2021-04-03T14:55:58Z</time>
      </trkpt>
      <trkpt lat="46.13526" lon="6.43411">
        <ele>622.8</ele>
        <time>2021-04-03T14:55:59Z</time>
      </trkpt>
      <trkpt lat="46.13524" lon="6.43408">
        <ele>623.2</ele>
        <time>2021-04-03T14:56:00Z</time>
      </trkpt>
      <trkpt lat="46.13522" lon="6.43405">
        <ele>623.4</ele>
        <time>2021-04-03T14:56:01Z</time>
      </trkpt>
      <trkpt lat="46.13519" lon="6.43403">
        <ele>623.6</ele>
        <time>2021-04-03T14:56:02Z</time>
      </trkpt>
      <trkpt lat="46.13517" lon="6.43402">
        <ele>624</ele>
        <time>2021-04-03T14:56:03Z</time>
      </trkpt>
      <trkpt lat="46.13514" lon="6.43401">
        <ele>624.4</ele>
        <time>2021-04-03T14:56:04Z</time>
      </trkpt>
      <trkpt lat="46.13511" lon="6.434">
        <ele>624.6</ele>
        <time>2021-04-03T14:56:05Z</time>
      </trkpt>
      <trkpt lat="46.13507" lon="6.43399">
        <ele>624.8</ele>
        <time>2021-04-03T14:56:06Z</time>
      </trkpt>
      <trkpt lat="46.13504" lon="6.43398">
        <ele>625</ele>
        <time>2021-04-03T14:56:07Z</time>
      </trkpt>
      <trkpt lat="46.135" lon="6.43397">
        <ele>625</ele>
        <time>2021-04-03T14:56:08Z</time>
      </trkpt>
      <trkpt lat="46.13496" lon="6.43396">
        <ele>625.4</ele>
        <time>2021-04-03T14:56:09Z</time>
      </trkpt>
      <trkpt lat="46.13492" lon="6.43395">
        <ele>626.2</ele>
        <time>2021-04-03T14:56:10Z</time>
      </trkpt>
      <trkpt lat="46.13488" lon="6.43394">
        <ele>626.2</ele>
        <time>2021-04-03T14:56:11Z</time>
      </trkpt>
      <trkpt lat="46.13484" lon="6.43393">
        <ele>626.4</ele>
        <time>2021-04-03T14:56:12Z</time>
      </trkpt>
      <trkpt lat="46.1348" lon="6.43393">
        <ele>626.6</ele>
        <time>2021-04-03T14:56:13Z</time>
      </trkpt>
      <trkpt lat="46.13476" lon="6.43393">
        <ele>626.4</ele>
        <time>2021-04-03T14:56:14Z</time>
      </trkpt>
      <trkpt lat="46.13472" lon="6.43393">
        <ele>626.8</ele>
        <time>2021-04-03T14:56:15Z</time>
      </trkpt>
      <trkpt lat="46.13468" lon="6.43393">
        <ele>627</ele>
        <time>2021-04-03T14:56:16Z</time>
      </trkpt>
      <trkpt lat="46.13463" lon="6.43393">
        <ele>627.4</ele>
        <time>2021-04-03T14:56:17Z</time>
      </trkpt>
      <trkpt lat="46.13459" lon="6.43394">
        <ele>627.6</ele>
        <time>2021-04-03T14:56:18Z</time>
      </trkpt>
      <trkpt lat="46.13454" lon="6.43394">
        <ele>627.6</ele>
        <time>2021-04-03T14:56:19Z</time>
      </trkpt>
      <trkpt lat="46.13449" lon="6.43394">
        <ele>628.2</ele>
        <time>2021-04-03T14:56:20Z</time>
      </trkpt>
      <trkpt lat="46.13444" lon="6.43394">
        <ele>628.4</ele>
        <time>2021-04-03T14:56:21Z</time>
      </trkpt>
      <trkpt lat="46.1344" lon="6.43395">
        <ele>628.4</ele>
        <time>2021-04-03T14:56:22Z</time>
      </trkpt>
      <trkpt lat="46.13435" lon="6.43395">
        <ele>628.6</ele>
        <time>2021-04-03T14:56:23Z</time>
      </trkpt>
      <trkpt lat="46.1343" lon="6.43396">
        <ele>628.8</ele>
        <time>2021-04-03T14:56:24Z</time>
      </trkpt>
      <trkpt lat="46.13425" lon="6.43397">
        <ele>628.8</ele>
        <time>2021-04-03T14:56:25Z</time>
      </trkpt>
      <trkpt lat="46.1342" lon="6.43397">
        <ele>628.8</ele>
        <time>2021-04-03T14:56:26Z</time>
      </trkpt>
      <trkpt lat="46.13415" lon="6.43398">
        <ele>629</ele>
        <time>2021-04-03T14:56:27Z</time>
      </trkpt>
      <trkpt lat="46.1341" lon="6.43398">
        <ele>629</ele>
        <time>2021-04-03T14:56:28Z</time>
      </trkpt>
      <trkpt lat="46.13404" lon="6.43398">
        <ele>629</ele>
        <time>2021-04-03T14:56:29Z</time>
      </trkpt>
      <trkpt lat="46.13399" lon="6.43397">
        <ele>629.2</ele>
        <time>2021-04-03T14:56:30Z</time>
      </trkpt>
      <trkpt lat="46.13394" lon="6.43396">
        <ele>629.2</ele>
        <time>2021-04-03T14:56:31Z</time>
      </trkpt>
      <trkpt lat="46.13389" lon="6.43395">
        <ele>629.4</ele>
        <time>2021-04-03T14:56:32Z</time>
      </trkpt>
      <trkpt lat="46.13383" lon="6.43393">
        <ele>629.6</ele>
        <time>2021-04-03T14:56:33Z</time>
      </trkpt>
      <trkpt lat="46.13378" lon="6.4339">
        <ele>629.6</ele>
        <time>2021-04-03T14:56:34Z</time>
      </trkpt>
      <trkpt lat="46.13373" lon="6.43387">
        <ele>629.6</ele>
        <time>2021-04-03T14:56:35Z</time>
      </trkpt>
      <trkpt lat="46.13368" lon="6.43384">
        <ele>629.8</ele>
        <time>2021-04-03T14:56:36Z</time>
      </trkpt>
      <trkpt lat="46.13363" lon="6.4338">
        <ele>629.8</ele>
        <time>2021-04-03T14:56:37Z</time>
      </trkpt>
      <trkpt lat="46.13359" lon="6.43375">
        <ele>629.8</ele>
        <time>2021-04-03T14:56:38Z</time>
      </trkpt>
      <trkpt lat="46.13355" lon="6.4337">
        <ele>630</ele>
        <time>2021-04-03T14:56:39Z</time>
      </trkpt>
      <trkpt lat="46.13351" lon="6.43365">
        <ele>630</ele>
        <time>2021-04-03T14:56:40Z</time>
      </trkpt>
      <trkpt lat="46.13347" lon="6.4336">
        <ele>630.2</ele>
        <time>2021-04-03T14:56:41Z</time>
      </trkpt>
      <trkpt lat="46.13343" lon="6.43354">
        <ele>630.2</ele>
        <time>2021-04-03T14:56:42Z</time>
      </trkpt>
      <trkpt lat="46.1334" lon="6.43348">
        <ele>630.2</ele>
        <time>2021-04-03T14:56:43Z</time>
      </trkpt>
      <trkpt lat="46.13336" lon="6.43342">
        <ele>630.4</ele>
        <time>2021-04-03T14:56:44Z</time>
      </trkpt>
      <trkpt lat="46.13333" lon="6.43336">
        <ele>630.4</ele>
        <time>2021-04-03T14:56:45Z</time>
      </trkpt>
      <trkpt lat="46.1333" lon="6.4333">
        <ele>630.6</ele>
        <time>2021-04-03T14:56:46Z</time>
      </trkpt>
      <trkpt lat="46.13328" lon="6.43323">
        <ele>630.6</ele>
        <time>2021-04-03T14:56:47Z</time>
      </trkpt>
      <trkpt lat="46.13325" lon="6.43317">
        <ele>630.6</ele>
        <time>2021-04-03T14:56:48Z</time>
      </trkpt>
      <trkpt lat="46.13323" lon="6.4331">
        <ele>630.6</ele>
        <time>2021-04-03T14:56:49Z</time>
      </trkpt>
      <trkpt lat="46.13321" lon="6.43303">
        <ele>630.6</ele>
        <time>2021-04-03T14:56:50Z</time>
      </trkpt>
      <trkpt lat="46.13319" lon="6.43296">
        <ele>630.6</ele>
        <time>2021-04-03T14:56:51Z</time>
      </trkpt>
      <trkpt lat="46.13317" lon="6.43289">
        <ele>630.8</ele>
        <time>2021-04-03T14:56:52Z</time>
      </trkpt>
      <trkpt lat="46.13316" lon="6.43282">
        <ele>630.8</ele>
        <time>2021-04-03T14:56:53Z</time>
      </trkpt>
      <trkpt lat="46.13315" lon="6.43274">
        <ele>630.8</ele>
        <time>2021-04-03T14:56:54Z</time>
      </trkpt>
      <trkpt lat="46.13314" lon="6.43267">
        <ele>631.2</ele>
        <time>2021-04-03T14:56:55Z</time>
      </trkpt>
      <trkpt lat="46.13313" lon="6.43259">
        <ele>631.4</ele>
        <time>2021-04-03T14:56:56Z</time>
      </trkpt>
      <trkpt lat="46.13312" lon="6.43252">
        <ele>631.6</ele>
        <time>2021-04-03T14:56:57Z</time>
      </trkpt>
      <trkpt lat="46.13311" lon="6.43245">
        <ele>631.4</ele>
        <time>2021-04-03T14:56:58Z</time>
      </trkpt>
      <trkpt lat="46.1331" lon="6.43237">
        <ele>631.6</ele>
        <time>2021-04-03T14:56:59Z</time>
      </trkpt>
      <trkpt lat="46.13309" lon="6.4323">
        <ele>631.6</ele>
        <time>2021-04-03T14:57:00Z</time>
      </trkpt>
      <trkpt lat="46.13308" lon="6.43224">
        <ele>631.6</ele>
        <time>2021-04-03T14:57:01Z</time>
      </trkpt>
      <trkpt lat="46.13308" lon="6.43217">
        <ele>631.4</ele>
        <time>2021-04-03T14:57:02Z</time>
      </trkpt>
      <trkpt lat="46.13307" lon="6.4321">
        <ele>631.4</ele>
        <time>2021-04-03T14:57:03Z</time>
      </trkpt>
      <trkpt lat="46.13307" lon="6.43202">
        <ele>631.4</ele>
        <time>2021-04-03T14:57:04Z</time>
      </trkpt>
      <trkpt lat="46.13308" lon="6.43195">
        <ele>631.6</ele>
        <time>2021-04-03T14:57:05Z</time>
      </trkpt>
      <trkpt lat="46.13308" lon="6.43188">
        <ele>631.6</ele>
        <time>2021-04-03T14:57:06Z</time>
      </trkpt>
      <trkpt lat="46.13308" lon="6.4318">
        <ele>631.6</ele>
        <time>2021-04-03T14:57:07Z</time>
      </trkpt>
      <trkpt lat="46.13309" lon="6.43172">
        <ele>631.6</ele>
        <time>2021-04-03T14:57:08Z</time>
      </trkpt>
      <trkpt lat="46.13309" lon="6.43164">
        <ele>631.4</ele>
        <time>2021-04-03T14:57:09Z</time>
      </trkpt>
      <trkpt lat="46.13309" lon="6.43156">
        <ele>631.4</ele>
        <time>2021-04-03T14:57:10Z</time>
      </trkpt>
      <trkpt lat="46.1331" lon="6.43147">
        <ele>631.4</ele>
        <time>2021-04-03T14:57:11Z</time>
      </trkpt>
      <trkpt lat="46.13312" lon="6.43139">
        <ele>631.2</ele>
        <time>2021-04-03T14:57:12Z</time>
      </trkpt>
      <trkpt lat="46.13314" lon="6.43132">
        <ele>630.8</ele>
        <time>2021-04-03T14:57:13Z</time>
      </trkpt>
      <trkpt lat="46.13316" lon="6.43125">
        <ele>630.8</ele>
        <time>2021-04-03T14:57:14Z</time>
      </trkpt>
      <trkpt lat="46.13319" lon="6.43118">
        <ele>630.8</ele>
        <time>2021-04-03T14:57:15Z</time>
      </trkpt>
      <trkpt lat="46.13322" lon="6.4311">
        <ele>630.8</ele>
        <time>2021-04-03T14:57:16Z</time>
      </trkpt>
      <trkpt lat="46.13325" lon="6.43102">
        <ele>630.6</ele>
        <time>2021-04-03T14:57:17Z</time>
      </trkpt>
      <trkpt lat="46.13327" lon="6.43094">
        <ele>630.6</ele>
        <time>2021-04-03T14:57:18Z</time>
      </trkpt>
      <trkpt lat="46.13329" lon="6.43086">
        <ele>630.6</ele>
        <time>2021-04-03T14:57:19Z</time>
      </trkpt>
      <trkpt lat="46.1333" lon="6.43076">
        <ele>630.4</ele>
        <time>2021-04-03T14:57:20Z</time>
      </trkpt>
      <trkpt lat="46.13331" lon="6.43066">
        <ele>629.8</ele>
        <time>2021-04-03T14:57:21Z</time>
      </trkpt>
      <trkpt lat="46.13332" lon="6.43056">
        <ele>629.6</ele>
        <time>2021-04-03T14:57:22Z</time>
      </trkpt>
      <trkpt lat="46.13332" lon="6.43046">
        <ele>629.4</ele>
        <time>2021-04-03T14:57:23Z</time>
      </trkpt>
      <trkpt lat="46.1333" lon="6.43036">
        <ele>628.8</ele>
        <time>2021-04-03T14:57:24Z</time>
      </trkpt>
      <trkpt lat="46.13326" lon="6.43026">
        <ele>628.6</ele>
        <time>2021-04-03T14:57:25Z</time>
      </trkpt>
      <trkpt lat="46.13322" lon="6.43018">
        <ele>628.2</ele>
        <time>2021-04-03T14:57:26Z</time>
      </trkpt>
      <trkpt lat="46.13318" lon="6.43009">
        <ele>628</ele>
        <time>2021-04-03T14:57:27Z</time>
      </trkpt>
      <trkpt lat="46.13314" lon="6.43">
        <ele>627.4</ele>
        <time>2021-04-03T14:57:28Z</time>
      </trkpt>
      <trkpt lat="46.13311" lon="6.4299">
        <ele>627</ele>
        <time>2021-04-03T14:57:29Z</time>
      </trkpt>
      <trkpt lat="46.13309" lon="6.42979">
        <ele>626.8</ele>
        <time>2021-04-03T14:57:30Z</time>
      </trkpt>
      <trkpt lat="46.13307" lon="6.42967">
        <ele>626.6</ele>
        <time>2021-04-03T14:57:31Z</time>
      </trkpt>
      <trkpt lat="46.13305" lon="6.42956">
        <ele>626.4</ele>
        <time>2021-04-03T14:57:32Z</time>
      </trkpt>
      <trkpt lat="46.13303" lon="6.42944">
        <ele>626.4</ele>
        <time>2021-04-03T14:57:33Z</time>
      </trkpt>
      <trkpt lat="46.133" lon="6.42933">
        <ele>626</ele>
        <time>2021-04-03T14:57:34Z</time>
      </trkpt>
      <trkpt lat="46.13298" lon="6.42922">
        <ele>625.8</ele>
        <time>2021-04-03T14:57:35Z</time>
      </trkpt>
      <trkpt lat="46.13295" lon="6.42911">
        <ele>625.2</ele>
        <time>2021-04-03T14:57:36Z</time>
      </trkpt>
      <trkpt lat="46.13293" lon="6.429">
        <ele>625</ele>
        <time>2021-04-03T14:57:37Z</time>
      </trkpt>
      <trkpt lat="46.13291" lon="6.42888">
        <ele>624.4</ele>
        <time>2021-04-03T14:57:38Z</time>
      </trkpt>
      <trkpt lat="46.13289" lon="6.42877">
        <ele>623.4</ele>
        <time>2021-04-03T14:57:39Z</time>
      </trkpt>
      <trkpt lat="46.13288" lon="6.42866">
        <ele>622.6</ele>
        <time>2021-04-03T14:57:40Z</time>
      </trkpt>
      <trkpt lat="46.13286" lon="6.42855">
        <ele>621.8</ele>
        <time>2021-04-03T14:57:41Z</time>
      </trkpt>
      <trkpt lat="46.13284" lon="6.42844">
        <ele>621.2</ele>
        <time>2021-04-03T14:57:42Z</time>
      </trkpt>
      <trkpt lat="46.13281" lon="6.42834">
        <ele>620.8</ele>
        <time>2021-04-03T14:57:43Z</time>
      </trkpt>
      <trkpt lat="46.13279" lon="6.42824">
        <ele>620.4</ele>
        <time>2021-04-03T14:57:44Z</time>
      </trkpt>
      <trkpt lat="46.13277" lon="6.42813">
        <ele>619.8</ele>
        <time>2021-04-03T14:57:45Z</time>
      </trkpt>
      <trkpt lat="46.13276" lon="6.42802">
        <ele>619.6</ele>
        <time>2021-04-03T14:57:46Z</time>
      </trkpt>
      <trkpt lat="46.13275" lon="6.42791">
        <ele>619.4</ele>
        <time>2021-04-03T14:57:47Z</time>
      </trkpt>
      <trkpt lat="46.13274" lon="6.42781">
        <ele>618.8</ele>
        <time>2021-04-03T14:57:48Z</time>
      </trkpt>
      <trkpt lat="46.13274" lon="6.4277">
        <ele>618.8</ele>
        <time>2021-04-03T14:57:49Z</time>
      </trkpt>
      <trkpt lat="46.13273" lon="6.4276">
        <ele>618.6</ele>
        <time>2021-04-03T14:57:50Z</time>
      </trkpt>
      <trkpt lat="46.13272" lon="6.4275">
        <ele>618.4</ele>
        <time>2021-04-03T14:57:51Z</time>
      </trkpt>
      <trkpt lat="46.13271" lon="6.4274">
        <ele>618.2</ele>
        <time>2021-04-03T14:57:52Z</time>
      </trkpt>
      <trkpt lat="46.1327" lon="6.42731">
        <ele>617.8</ele>
        <time>2021-04-03T14:57:53Z</time>
      </trkpt>
      <trkpt lat="46.13269" lon="6.42722">
        <ele>617.6</ele>
        <time>2021-04-03T14:57:54Z</time>
      </trkpt>
      <trkpt lat="46.13269" lon="6.42713">
        <ele>617.4</ele>
        <time>2021-04-03T14:57:55Z</time>
      </trkpt>
      <trkpt lat="46.13268" lon="6.42704">
        <ele>617.4</ele>
        <time>2021-04-03T14:57:56Z</time>
      </trkpt>
      <trkpt lat="46.13268" lon="6.42696">
        <ele>617.4</ele>
        <time>2021-04-03T14:57:57Z</time>
      </trkpt>
      <trkpt lat="46.13267" lon="6.42687">
        <ele>617.4</ele>
        <time>2021-04-03T14:57:58Z</time>
      </trkpt>
      <trkpt lat="46.13267" lon="6.42678">
        <ele>617.6</ele>
        <time>2021-04-03T14:57:59Z</time>
      </trkpt>
      <trkpt lat="46.13266" lon="6.4267">
        <ele>617.6</ele>
        <time>2021-04-03T14:58:00Z</time>
      </trkpt>
      <trkpt lat="46.13266" lon="6.42661">
        <ele>617.6</ele>
        <time>2021-04-03T14:58:01Z</time>
      </trkpt>
      <trkpt lat="46.13266" lon="6.42652">
        <ele>617.8</ele>
        <time>2021-04-03T14:58:02Z</time>
      </trkpt>
      <trkpt lat="46.13266" lon="6.42644">
        <ele>617.6</ele>
        <time>2021-04-03T14:58:03Z</time>
      </trkpt>
      <trkpt lat="46.13265" lon="6.42635">
        <ele>617.6</ele>
        <time>2021-04-03T14:58:04Z</time>
      </trkpt>
      <trkpt lat="46.13265" lon="6.42627">
        <ele>617.8</ele>
        <time>2021-04-03T14:58:05Z</time>
      </trkpt>
      <trkpt lat="46.13265" lon="6.42618">
        <ele>617.8</ele>
        <time>2021-04-03T14:58:06Z</time>
      </trkpt>
      <trkpt lat="46.13264" lon="6.4261">
        <ele>618</ele>
        <time>2021-04-03T14:58:07Z</time>
      </trkpt>
      <trkpt lat="46.13264" lon="6.42602">
        <ele>617.8</ele>
        <time>2021-04-03T14:58:08Z</time>
      </trkpt>
      <trkpt lat="46.13264" lon="6.42593">
        <ele>617.8</ele>
        <time>2021-04-03T14:58:09Z</time>
      </trkpt>
      <trkpt lat="46.13263" lon="6.42585">
        <ele>618</ele>
        <time>2021-04-03T14:58:10Z</time>
      </trkpt>
      <trkpt lat="46.13263" lon="6.42577">
        <ele>617.8</ele>
        <time>2021-04-03T14:58:11Z</time>
      </trkpt>
      <trkpt lat="46.13262" lon="6.42569">
        <ele>617.8</ele>
        <time>2021-04-03T14:58:12Z</time>
      </trkpt>
      <trkpt lat="46.13262" lon="6.42561">
        <ele>618</ele>
        <time>2021-04-03T14:58:13Z</time>
      </trkpt>
      <trkpt lat="46.13262" lon="6.42552">
        <ele>617.8</ele>
        <time>2021-04-03T14:58:14Z</time>
      </trkpt>
      <trkpt lat="46.13261" lon="6.42544">
        <ele>617.6</ele>
        <time>2021-04-03T14:58:15Z</time>
      </trkpt>
      <trkpt lat="46.13261" lon="6.42535">
        <ele>617.2</ele>
        <time>2021-04-03T14:58:16Z</time>
      </trkpt>
      <trkpt lat="46.13261" lon="6.42527">
        <ele>617</ele>
        <time>2021-04-03T14:58:17Z</time>
      </trkpt>
      <trkpt lat="46.1326" lon="6.42519">
        <ele>616.4</ele>
        <time>2021-04-03T14:58:18Z</time>
      </trkpt>
      <trkpt lat="46.1326" lon="6.4251">
        <ele>616.2</ele>
        <time>2021-04-03T14:58:19Z</time>
      </trkpt>
      <trkpt lat="46.13259" lon="6.42502">
        <ele>616</ele>
        <time>2021-04-03T14:58:20Z</time>
      </trkpt>
      <trkpt lat="46.13259" lon="6.42494">
        <ele>616.2</ele>
        <time>2021-04-03T14:58:21Z</time>
      </trkpt>
      <trkpt lat="46.13258" lon="6.42486">
        <ele>616</ele>
        <time>2021-04-03T14:58:22Z</time>
      </trkpt>
      <trkpt lat="46.13258" lon="6.42477">
        <ele>615.8</ele>
        <time>2021-04-03T14:58:23Z</time>
      </trkpt>
      <trkpt lat="46.13257" lon="6.42469">
        <ele>615.8</ele>
        <time>2021-04-03T14:58:24Z</time>
      </trkpt>
      <trkpt lat="46.13257" lon="6.42461">
        <ele>615.8</ele>
        <time>2021-04-03T14:58:25Z</time>
      </trkpt>
      <trkpt lat="46.13257" lon="6.42453">
        <ele>615.8</ele>
        <time>2021-04-03T14:58:26Z</time>
      </trkpt>
      <trkpt lat="46.13256" lon="6.42445">
        <ele>615.6</ele>
        <time>2021-04-03T14:58:27Z</time>
      </trkpt>
      <trkpt lat="46.13256" lon="6.42438">
        <ele>615.6</ele>
        <time>2021-04-03T14:58:28Z</time>
      </trkpt>
      <trkpt lat="46.13256" lon="6.4243">
        <ele>615.4</ele>
        <time>2021-04-03T14:58:29Z</time>
      </trkpt>
      <trkpt lat="46.13255" lon="6.42422">
        <ele>615.2</ele>
        <time>2021-04-03T14:58:30Z</time>
      </trkpt>
      <trkpt lat="46.13255" lon="6.42414">
        <ele>615</ele>
        <time>2021-04-03T14:58:31Z</time>
      </trkpt>
      <trkpt lat="46.13254" lon="6.42406">
        <ele>615</ele>
        <time>2021-04-03T14:58:32Z</time>
      </trkpt>
      <trkpt lat="46.13254" lon="6.42397">
        <ele>614.8</ele>
        <time>2021-04-03T14:58:33Z</time>
      </trkpt>
      <trkpt lat="46.13253" lon="6.42389">
        <ele>615</ele>
        <time>2021-04-03T14:58:34Z</time>
      </trkpt>
      <trkpt lat="46.13253" lon="6.42381">
        <ele>615</ele>
        <time>2021-04-03T14:58:35Z</time>
      </trkpt>
      <trkpt lat="46.13253" lon="6.42373">
        <ele>615</ele>
        <time>2021-04-03T14:58:36Z</time>
      </trkpt>
      <trkpt lat="46.13252" lon="6.42364">
        <ele>615</ele>
        <time>2021-04-03T14:58:37Z</time>
      </trkpt>
      <trkpt lat="46.13252" lon="6.42356">
        <ele>614.8</ele>
        <time>2021-04-03T14:58:38Z</time>
      </trkpt>
      <trkpt lat="46.13251" lon="6.42348">
        <ele>614.8</ele>
        <time>2021-04-03T14:58:39Z</time>
      </trkpt>
      <trkpt lat="46.13251" lon="6.4234">
        <ele>614.6</ele>
        <time>2021-04-03T14:58:40Z</time>
      </trkpt>
      <trkpt lat="46.13251" lon="6.42332">
        <ele>614.4</ele>
        <time>2021-04-03T14:58:41Z</time>
      </trkpt>
      <trkpt lat="46.1325" lon="6.42324">
        <ele>614.2</ele>
        <time>2021-04-03T14:58:42Z</time>
      </trkpt>
      <trkpt lat="46.1325" lon="6.42317">
        <ele>614.4</ele>
        <time>2021-04-03T14:58:43Z</time>
      </trkpt>
      <trkpt lat="46.13249" lon="6.42309">
        <ele>614.2</ele>
        <time>2021-04-03T14:58:44Z</time>
      </trkpt>
      <trkpt lat="46.13249" lon="6.42301">
        <ele>614.4</ele>
        <time>2021-04-03T14:58:45Z</time>
      </trkpt>
      <trkpt lat="46.13248" lon="6.42294">
        <ele>614.4</ele>
        <time>2021-04-03T14:58:46Z</time>
      </trkpt>
      <trkpt lat="46.13248" lon="6.42287">
        <ele>614.6</ele>
        <time>2021-04-03T14:58:47Z</time>
      </trkpt>
      <trkpt lat="46.13248" lon="6.4228">
        <ele>614.4</ele>
        <time>2021-04-03T14:58:48Z</time>
      </trkpt>
      <trkpt lat="46.13247" lon="6.42272">
        <ele>614.4</ele>
        <time>2021-04-03T14:58:49Z</time>
      </trkpt>
      <trkpt lat="46.13247" lon="6.42265">
        <ele>614.4</ele>
        <time>2021-04-03T14:58:50Z</time>
      </trkpt>
      <trkpt lat="46.13246" lon="6.42257">
        <ele>614.2</ele>
        <time>2021-04-03T14:58:51Z</time>
      </trkpt>
      <trkpt lat="46.13246" lon="6.42249">
        <ele>614</ele>
        <time>2021-04-03T14:58:52Z</time>
      </trkpt>
      <trkpt lat="46.13245" lon="6.42241">
        <ele>613.8</ele>
        <time>2021-04-03T14:58:53Z</time>
      </trkpt>
      <trkpt lat="46.13245" lon="6.42233">
        <ele>614</ele>
        <time>2021-04-03T14:58:54Z</time>
      </trkpt>
      <trkpt lat="46.13244" lon="6.42225">
        <ele>613.8</ele>
        <time>2021-04-03T14:58:55Z</time>
      </trkpt>
      <trkpt lat="46.13244" lon="6.42217">
        <ele>614</ele>
        <time>2021-04-03T14:58:56Z</time>
      </trkpt>
      <trkpt lat="46.13243" lon="6.42209">
        <ele>613.8</ele>
        <time>2021-04-03T14:58:57Z</time>
      </trkpt>
      <trkpt lat="46.13243" lon="6.42201">
        <ele>613.8</ele>
        <time>2021-04-03T14:58:58Z</time>
      </trkpt>
      <trkpt lat="46.13242" lon="6.42194">
        <ele>614</ele>
        <time>2021-04-03T14:58:59Z</time>
      </trkpt>
      <trkpt lat="46.13242" lon="6.42186">
        <ele>614</ele>
        <time>2021-04-03T14:59:00Z</time>
      </trkpt>
      <trkpt lat="46.13241" lon="6.42178">
        <ele>614</ele>
        <time>2021-04-03T14:59:01Z</time>
      </trkpt>
      <trkpt lat="46.1324" lon="6.42169">
        <ele>614</ele>
        <time>2021-04-03T14:59:02Z</time>
      </trkpt>
      <trkpt lat="46.1324" lon="6.42161">
        <ele>613.8</ele>
        <time>2021-04-03T14:59:03Z</time>
      </trkpt>
      <trkpt lat="46.13239" lon="6.42153">
        <ele>614</ele>
        <time>2021-04-03T14:59:04Z</time>
      </trkpt>
      <trkpt lat="46.13239" lon="6.42145">
        <ele>614</ele>
        <time>2021-04-03T14:59:05Z</time>
      </trkpt>
      <trkpt lat="46.13238" lon="6.42137">
        <ele>613.8</ele>
        <time>2021-04-03T14:59:06Z</time>
      </trkpt>
      <trkpt lat="46.13238" lon="6.42128">
        <ele>613.8</ele>
        <time>2021-04-03T14:59:07Z</time>
      </trkpt>
      <trkpt lat="46.13237" lon="6.42119">
        <ele>614</ele>
        <time>2021-04-03T14:59:08Z</time>
      </trkpt>
      <trkpt lat="46.13236" lon="6.42111">
        <ele>613.8</ele>
        <time>2021-04-03T14:59:09Z</time>
      </trkpt>
      <trkpt lat="46.13236" lon="6.42102">
        <ele>613.8</ele>
        <time>2021-04-03T14:59:10Z</time>
      </trkpt>
      <trkpt lat="46.13235" lon="6.42093">
        <ele>614</ele>
        <time>2021-04-03T14:59:11Z</time>
      </trkpt>
      <trkpt lat="46.13234" lon="6.42084">
        <ele>613.8</ele>
        <time>2021-04-03T14:59:12Z</time>
      </trkpt>
      <trkpt lat="46.13234" lon="6.42075">
        <ele>613.8</ele>
        <time>2021-04-03T14:59:13Z</time>
      </trkpt>
      <trkpt lat="46.13233" lon="6.42065">
        <ele>613.8</ele>
        <time>2021-04-03T14:59:14Z</time>
      </trkpt>
      <trkpt lat="46.13232" lon="6.42056">
        <ele>613.8</ele>
        <time>2021-04-03T14:59:15Z</time>
      </trkpt>
      <trkpt lat="46.13232" lon="6.42047">
        <ele>613.6</ele>
        <time>2021-04-03T14:59:16Z</time>
      </trkpt>
      <trkpt lat="46.13231" lon="6.42038">
        <ele>613.4</ele>
        <time>2021-04-03T14:59:17Z</time>
      </trkpt>
      <trkpt lat="46.13231" lon="6.42029">
        <ele>613.4</ele>
        <time>2021-04-03T14:59:18Z</time>
      </trkpt>
      <trkpt lat="46.1323" lon="6.4202">
        <ele>613.4</ele>
        <time>2021-04-03T14:59:19Z</time>
      </trkpt>
      <trkpt lat="46.13229" lon="6.42011">
        <ele>613.2</ele>
        <time>2021-04-03T14:59:20Z</time>
      </trkpt>
      <trkpt lat="46.13229" lon="6.42002">
        <ele>613.2</ele>
        <time>2021-04-03T14:59:21Z</time>
      </trkpt>
      <trkpt lat="46.13228" lon="6.41993">
        <ele>612.8</ele>
        <time>2021-04-03T14:59:22Z</time>
      </trkpt>
      <trkpt lat="46.13228" lon="6.41983">
        <ele>612.8</ele>
        <time>2021-04-03T14:59:23Z</time>
      </trkpt>
      <trkpt lat="46.13227" lon="6.41974">
        <ele>612.6</ele>
        <time>2021-04-03T14:59:24Z</time>
      </trkpt>
      <trkpt lat="46.13227" lon="6.41965">
        <ele>612.4</ele>
        <time>2021-04-03T14:59:25Z</time>
      </trkpt>
      <trkpt lat="46.13226" lon="6.41955">
        <ele>612.6</ele>
        <time>2021-04-03T14:59:26Z</time>
      </trkpt>
      <trkpt lat="46.13226" lon="6.41946">
        <ele>612.4</ele>
        <time>2021-04-03T14:59:27Z</time>
      </trkpt>
      <trkpt lat="46.13225" lon="6.41937">
        <ele>612</ele>
        <time>2021-04-03T14:59:28Z</time>
      </trkpt>
      <trkpt lat="46.13225" lon="6.41927">
        <ele>611.6</ele>
        <time>2021-04-03T14:59:29Z</time>
      </trkpt>
      <trkpt lat="46.13224" lon="6.41918">
        <ele>611.4</ele>
        <time>2021-04-03T14:59:30Z</time>
      </trkpt>
      <trkpt lat="46.13224" lon="6.4191">
        <ele>611</ele>
        <time>2021-04-03T14:59:31Z</time>
      </trkpt>
      <trkpt lat="46.13224" lon="6.41901">
        <ele>610.8</ele>
        <time>2021-04-03T14:59:32Z</time>
      </trkpt>
      <trkpt lat="46.13224" lon="6.41892">
        <ele>610.8</ele>
        <time>2021-04-03T14:59:33Z</time>
      </trkpt>
      <trkpt lat="46.13223" lon="6.41884">
        <ele>610.6</ele>
        <time>2021-04-03T14:59:34Z</time>
      </trkpt>
      <trkpt lat="46.13223" lon="6.41875">
        <ele>610.6</ele>
        <time>2021-04-03T14:59:35Z</time>
      </trkpt>
      <trkpt lat="46.13223" lon="6.41866">
        <ele>610.8</ele>
        <time>2021-04-03T14:59:36Z</time>
      </trkpt>
      <trkpt lat="46.13222" lon="6.41857">
        <ele>610.6</ele>
        <time>2021-04-03T14:59:37Z</time>
      </trkpt>
      <trkpt lat="46.13222" lon="6.41848">
        <ele>610.8</ele>
        <time>2021-04-03T14:59:38Z</time>
      </trkpt>
      <trkpt lat="46.13222" lon="6.4184">
        <ele>610.6</ele>
        <time>2021-04-03T14:59:39Z</time>
      </trkpt>
      <trkpt lat="46.13221" lon="6.41831">
        <ele>610.6</ele>
        <time>2021-04-03T14:59:40Z</time>
      </trkpt>
      <trkpt lat="46.13221" lon="6.41822">
        <ele>610.6</ele>
        <time>2021-04-03T14:59:41Z</time>
      </trkpt>
      <trkpt lat="46.1322" lon="6.41813">
        <ele>610.4</ele>
        <time>2021-04-03T14:59:42Z</time>
      </trkpt>
      <trkpt lat="46.1322" lon="6.41804">
        <ele>610.4</ele>
        <time>2021-04-03T14:59:43Z</time>
      </trkpt>
      <trkpt lat="46.13219" lon="6.41796">
        <ele>610.4</ele>
        <time>2021-04-03T14:59:44Z</time>
      </trkpt>
      <trkpt lat="46.13219" lon="6.41787">
        <ele>610.2</ele>
        <time>2021-04-03T14:59:45Z</time>
      </trkpt>
      <trkpt lat="46.13219" lon="6.41778">
        <ele>610</ele>
        <time>2021-04-03T14:59:46Z</time>
      </trkpt>
      <trkpt lat="46.13218" lon="6.41769">
        <ele>610</ele>
        <time>2021-04-03T14:59:47Z</time>
      </trkpt>
      <trkpt lat="46.13218" lon="6.4176">
        <ele>609.8</ele>
        <time>2021-04-03T14:59:48Z</time>
      </trkpt>
      <trkpt lat="46.13217" lon="6.41751">
        <ele>609.8</ele>
        <time>2021-04-03T14:59:49Z</time>
      </trkpt>
      <trkpt lat="46.13217" lon="6.41742">
        <ele>609.6</ele>
        <time>2021-04-03T14:59:50Z</time>
      </trkpt>
      <trkpt lat="46.13216" lon="6.41733">
        <ele>609.4</ele>
        <time>2021-04-03T14:59:51Z</time>
      </trkpt>
      <trkpt lat="46.13216" lon="6.41724">
        <ele>609.2</ele>
        <time>2021-04-03T14:59:52Z</time>
      </trkpt>
      <trkpt lat="46.13215" lon="6.41715">
        <ele>609</ele>
        <time>2021-04-03T14:59:53Z</time>
      </trkpt>
      <trkpt lat="46.13215" lon="6.41706">
        <ele>609.2</ele>
        <time>2021-04-03T14:59:54Z</time>
      </trkpt>
      <trkpt lat="46.13214" lon="6.41696">
        <ele>609</ele>
        <time>2021-04-03T14:59:55Z</time>
      </trkpt>
      <trkpt lat="46.13214" lon="6.41687">
        <ele>609</ele>
        <time>2021-04-03T14:59:56Z</time>
      </trkpt>
      <trkpt lat="46.13213" lon="6.41677">
        <ele>609</ele>
        <time>2021-04-03T14:59:57Z</time>
      </trkpt>
      <trkpt lat="46.13213" lon="6.41668">
        <ele>609</ele>
        <time>2021-04-03T14:59:58Z</time>
      </trkpt>
      <trkpt lat="46.13212" lon="6.41658">
        <ele>608.8</ele>
        <time>2021-04-03T14:59:59Z</time>
      </trkpt>
      <trkpt lat="46.1321" lon="6.41649">
        <ele>608.8</ele>
        <time>2021-04-03T15:00:00Z</time>
      </trkpt>
      <trkpt lat="46.13209" lon="6.41639">
        <ele>609</ele>
        <time>2021-04-03T15:00:01Z</time>
      </trkpt>
      <trkpt lat="46.13208" lon="6.41629">
        <ele>608.8</ele>
        <time>2021-04-03T15:00:02Z</time>
      </trkpt>
      <trkpt lat="46.13207" lon="6.41619">
        <ele>608.8</ele>
        <time>2021-04-03T15:00:03Z</time>
      </trkpt>
      <trkpt lat="46.13206" lon="6.41609">
        <ele>608.8</ele>
        <time>2021-04-03T15:00:04Z</time>
      </trkpt>
      <trkpt lat="46.13204" lon="6.41599">
        <ele>609</ele>
        <time>2021-04-03T15:00:05Z</time>
      </trkpt>
      <trkpt lat="46.13203" lon="6.41589">
        <ele>609</ele>
        <time>2021-04-03T15:00:06Z</time>
      </trkpt>
      <trkpt lat="46.13203" lon="6.41579">
        <ele>609</ele>
        <time>2021-04-03T15:00:07Z</time>
      </trkpt>
      <trkpt lat="46.13202" lon="6.41569">
        <ele>608.8</ele>
        <time>2021-04-03T15:00:08Z</time>
      </trkpt>
      <trkpt lat="46.13202" lon="6.41559">
        <ele>609</ele>
        <time>2021-04-03T15:00:09Z</time>
      </trkpt>
      <trkpt lat="46.13202" lon="6.4155">
        <ele>608.8</ele>
        <time>2021-04-03T15:00:10Z</time>
      </trkpt>
      <trkpt lat="46.13202" lon="6.4154">
        <ele>608.6</ele>
        <time>2021-04-03T15:00:11Z</time>
      </trkpt>
      <trkpt lat="46.13202" lon="6.4153">
        <ele>608.6</ele>
        <time>2021-04-03T15:00:12Z</time>
      </trkpt>
      <trkpt lat="46.13202" lon="6.4152">
        <ele>608.6</ele>
        <time>2021-04-03T15:00:13Z</time>
      </trkpt>
      <trkpt lat="46.13201" lon="6.41511">
        <ele>608.4</ele>
        <time>2021-04-03T15:00:14Z</time>
      </trkpt>
      <trkpt lat="46.13201" lon="6.41501">
        <ele>608.4</ele>
        <time>2021-04-03T15:00:15Z</time>
      </trkpt>
      <trkpt lat="46.13201" lon="6.41492">
        <ele>608.6</ele>
        <time>2021-04-03T15:00:16Z</time>
      </trkpt>
      <trkpt lat="46.13202" lon="6.41482">
        <ele>608.4</ele>
        <time>2021-04-03T15:00:17Z</time>
      </trkpt>
      <trkpt lat="46.13202" lon="6.41473">
        <ele>608.4</ele>
        <time>2021-04-03T15:00:18Z</time>
      </trkpt>
      <trkpt lat="46.13203" lon="6.41463">
        <ele>608.4</ele>
        <time>2021-04-03T15:00:19Z</time>
      </trkpt>
      <trkpt lat="46.13203" lon="6.41453">
        <ele>608.2</ele>
        <time>2021-04-03T15:00:20Z</time>
      </trkpt>
      <trkpt lat="46.13204" lon="6.41443">
        <ele>608.2</ele>
        <time>2021-04-03T15:00:21Z</time>
      </trkpt>
      <trkpt lat="46.13205" lon="6.41433">
        <ele>608</ele>
        <time>2021-04-03T15:00:22Z</time>
      </trkpt>
      <trkpt lat="46.13207" lon="6.41423">
        <ele>607.8</ele>
        <time>2021-04-03T15:00:23Z</time>
      </trkpt>
      <trkpt lat="46.13208" lon="6.41413">
        <ele>607.8</ele>
        <time>2021-04-03T15:00:24Z</time>
      </trkpt>
      <trkpt lat="46.13209" lon="6.41402">
        <ele>607.6</ele>
        <time>2021-04-03T15:00:25Z</time>
      </trkpt>
      <trkpt lat="46.1321" lon="6.41392">
        <ele>607.4</ele>
        <time>2021-04-03T15:00:26Z</time>
      </trkpt>
      <trkpt lat="46.13212" lon="6.41382">
        <ele>607.2</ele>
        <time>2021-04-03T15:00:27Z</time>
      </trkpt>
      <trkpt lat="46.13214" lon="6.41371">
        <ele>607.2</ele>
        <time>2021-04-03T15:00:28Z</time>
      </trkpt>
      <trkpt lat="46.13215" lon="6.41361">
        <ele>607</ele>
        <time>2021-04-03T15:00:29Z</time>
      </trkpt>
      <trkpt lat="46.13217" lon="6.41351">
        <ele>606.8</ele>
        <time>2021-04-03T15:00:30Z</time>
      </trkpt>
      <trkpt lat="46.13219" lon="6.4134">
        <ele>606.6</ele>
        <time>2021-04-03T15:00:31Z</time>
      </trkpt>
      <trkpt lat="46.1322" lon="6.41329">
        <ele>606.4</ele>
        <time>2021-04-03T15:00:32Z</time>
      </trkpt>
      <trkpt lat="46.13222" lon="6.41319">
        <ele>606.2</ele>
        <time>2021-04-03T15:00:33Z</time>
      </trkpt>
      <trkpt lat="46.13223" lon="6.41308">
        <ele>606.2</ele>
        <time>2021-04-03T15:00:34Z</time>
      </trkpt>
      <trkpt lat="46.13225" lon="6.41298">
        <ele>606</ele>
        <time>2021-04-03T15:00:35Z</time>
      </trkpt>
      <trkpt lat="46.13226" lon="6.41287">
        <ele>605.8</ele>
        <time>2021-04-03T15:00:36Z</time>
      </trkpt>
      <trkpt lat="46.13228" lon="6.41276">
        <ele>605.8</ele>
        <time>2021-04-03T15:00:37Z</time>
      </trkpt>
      <trkpt lat="46.13229" lon="6.41266">
        <ele>606</ele>
        <time>2021-04-03T15:00:38Z</time>
      </trkpt>
      <trkpt lat="46.13231" lon="6.41255">
        <ele>605.6</ele>
        <time>2021-04-03T15:00:39Z</time>
      </trkpt>
      <trkpt lat="46.13232" lon="6.41245">
        <ele>605.8</ele>
        <time>2021-04-03T15:00:40Z</time>
      </trkpt>
      <trkpt lat="46.13234" lon="6.41234">
        <ele>606</ele>
        <time>2021-04-03T15:00:41Z</time>
      </trkpt>
      <trkpt lat="46.13235" lon="6.41223">
        <ele>606.2</ele>
        <time>2021-04-03T15:00:42Z</time>
      </trkpt>
      <trkpt lat="46.13236" lon="6.41212">
        <ele>606</ele>
        <time>2021-04-03T15:00:43Z</time>
      </trkpt>
      <trkpt lat="46.13236" lon="6.41201">
        <ele>606</ele>
        <time>2021-04-03T15:00:44Z</time>
      </trkpt>
      <trkpt lat="46.13237" lon="6.4119">
        <ele>606</ele>
        <time>2021-04-03T15:00:45Z</time>
      </trkpt>
      <trkpt lat="46.13238" lon="6.41179">
        <ele>606</ele>
        <time>2021-04-03T15:00:46Z</time>
      </trkpt>
      <trkpt lat="46.13238" lon="6.41168">
        <ele>606</ele>
        <time>2021-04-03T15:00:47Z</time>
      </trkpt>
      <trkpt lat="46.13239" lon="6.41157">
        <ele>606</ele>
        <time>2021-04-03T15:00:48Z</time>
      </trkpt>
      <trkpt lat="46.1324" lon="6.41146">
        <ele>606</ele>
        <time>2021-04-03T15:00:49Z</time>
      </trkpt>
      <trkpt lat="46.13241" lon="6.41135">
        <ele>606</ele>
        <time>2021-04-03T15:00:50Z</time>
      </trkpt>
      <trkpt lat="46.13242" lon="6.41124">
        <ele>605.8</ele>
        <time>2021-04-03T15:00:51Z</time>
      </trkpt>
      <trkpt lat="46.13243" lon="6.41113">
        <ele>606</ele>
        <time>2021-04-03T15:00:52Z</time>
      </trkpt>
      <trkpt lat="46.13244" lon="6.41102">
        <ele>605.8</ele>
        <time>2021-04-03T15:00:53Z</time>
      </trkpt>
      <trkpt lat="46.13245" lon="6.41091">
        <ele>606</ele>
        <time>2021-04-03T15:00:54Z</time>
      </trkpt>
      <trkpt lat="46.13246" lon="6.4108">
        <ele>605.8</ele>
        <time>2021-04-03T15:00:55Z</time>
      </trkpt>
      <trkpt lat="46.13246" lon="6.4107">
        <ele>606</ele>
        <time>2021-04-03T15:00:56Z</time>
      </trkpt>
      <trkpt lat="46.13247" lon="6.41059">
        <ele>605.6</ele>
        <time>2021-04-03T15:00:57Z</time>
      </trkpt>
      <trkpt lat="46.13248" lon="6.41048">
        <ele>605.6</ele>
        <time>2021-04-03T15:00:58Z</time>
      </trkpt>
      <trkpt lat="46.13249" lon="6.41037">
        <ele>605.4</ele>
        <time>2021-04-03T15:00:59Z</time>
      </trkpt>
      <trkpt lat="46.13249" lon="6.41026">
        <ele>604.8</ele>
        <time>2021-04-03T15:01:00Z</time>
      </trkpt>
      <trkpt lat="46.1325" lon="6.41014">
        <ele>604.4</ele>
        <time>2021-04-03T15:01:01Z</time>
      </trkpt>
      <trkpt lat="46.1325" lon="6.41003">
        <ele>603.8</ele>
        <time>2021-04-03T15:01:02Z</time>
      </trkpt>
      <trkpt lat="46.13251" lon="6.40991">
        <ele>603.8</ele>
        <time>2021-04-03T15:01:03Z</time>
      </trkpt>
      <trkpt lat="46.13252" lon="6.40979">
        <ele>603.6</ele>
        <time>2021-04-03T15:01:04Z</time>
      </trkpt>
      <trkpt lat="46.13253" lon="6.40967">
        <ele>603.4</ele>
        <time>2021-04-03T15:01:05Z</time>
      </trkpt>
      <trkpt lat="46.13253" lon="6.40954">
        <ele>603.4</ele>
        <time>2021-04-03T15:01:06Z</time>
      </trkpt>
      <trkpt lat="46.13254" lon="6.40941">
        <ele>603.2</ele>
        <time>2021-04-03T15:01:07Z</time>
      </trkpt>
      <trkpt lat="46.13254" lon="6.40927">
        <ele>602.6</ele>
        <time>2021-04-03T15:01:08Z</time>
      </trkpt>
      <trkpt lat="46.13254" lon="6.40913">
        <ele>601.6</ele>
        <time>2021-04-03T15:01:09Z</time>
      </trkpt>
      <trkpt lat="46.13254" lon="6.40898">
        <ele>601.2</ele>
        <time>2021-04-03T15:01:10Z</time>
      </trkpt>
      <trkpt lat="46.13255" lon="6.40883">
        <ele>600.8</ele>
        <time>2021-04-03T15:01:11Z</time>
      </trkpt>
      <trkpt lat="46.13256" lon="6.40867">
        <ele>600.4</ele>
        <time>2021-04-03T15:01:12Z</time>
      </trkpt>
      <trkpt lat="46.13256" lon="6.40852">
        <ele>600.2</ele>
        <time>2021-04-03T15:01:13Z</time>
      </trkpt>
      <trkpt lat="46.13257" lon="6.40836">
        <ele>599.6</ele>
        <time>2021-04-03T15:01:14Z</time>
      </trkpt>
      <trkpt lat="46.13257" lon="6.4082">
        <ele>598.4</ele>
        <time>2021-04-03T15:01:15Z</time>
      </trkpt>
      <trkpt lat="46.13257" lon="6.40805">
        <ele>597.8</ele>
        <time>2021-04-03T15:01:16Z</time>
      </trkpt>
      <trkpt lat="46.13257" lon="6.40789">
        <ele>597.2</ele>
        <time>2021-04-03T15:01:17Z</time>
      </trkpt>
      <trkpt lat="46.13257" lon="6.40773">
        <ele>596.8</ele>
        <time>2021-04-03T15:01:18Z</time>
      </trkpt>
      <trkpt lat="46.13256" lon="6.40757">
        <ele>596.2</ele>
        <time>2021-04-03T15:01:19Z</time>
      </trkpt>
      <trkpt lat="46.13256" lon="6.40742">
        <ele>595.2</ele>
        <time>2021-04-03T15:01:20Z</time>
      </trkpt>
      <trkpt lat="46.13255" lon="6.40727">
        <ele>594</ele>
        <time>2021-04-03T15:01:21Z</time>
      </trkpt>
      <trkpt lat="46.13255" lon="6.40713">
        <ele>592.8</ele>
        <time>2021-04-03T15:01:22Z</time>
      </trkpt>
      <trkpt lat="46.13255" lon="6.40698">
        <ele>591.4</ele>
        <time>2021-04-03T15:01:23Z</time>
      </trkpt>
      <trkpt lat="46.13254" lon="6.40685">
        <ele>590.4</ele>
        <time>2021-04-03T15:01:24Z</time>
      </trkpt>
      <trkpt lat="46.13254" lon="6.40672">
        <ele>589.6</ele>
        <time>2021-04-03T15:01:25Z</time>
      </trkpt>
      <trkpt lat="46.13254" lon="6.40659">
        <ele>589.4</ele>
        <time>2021-04-03T15:01:26Z</time>
      </trkpt>
      <trkpt lat="46.13254" lon="6.40646">
        <ele>589.2</ele>
        <time>2021-04-03T15:01:27Z</time>
      </trkpt>
      <trkpt lat="46.13254" lon="6.40634">
        <ele>589</ele>
        <time>2021-04-03T15:01:28Z</time>
      </trkpt>
      <trkpt lat="46.13253" lon="6.40622">
        <ele>589</ele>
        <time>2021-04-03T15:01:29Z</time>
      </trkpt>
      <trkpt lat="46.13253" lon="6.40611">
        <ele>589</ele>
        <time>2021-04-03T15:01:30Z</time>
      </trkpt>
      <trkpt lat="46.13253" lon="6.406">
        <ele>589</ele>
        <time>2021-04-03T15:01:31Z</time>
      </trkpt>
      <trkpt lat="46.13253" lon="6.40589">
        <ele>589</ele>
        <time>2021-04-03T15:01:32Z</time>
      </trkpt>
      <trkpt lat="46.13253" lon="6.40579">
        <ele>589</ele>
        <time>2021-04-03T15:01:33Z</time>
      </trkpt>
      <trkpt lat="46.13253" lon="6.40569">
        <ele>588.8</ele>
        <time>2021-04-03T15:01:34Z</time>
      </trkpt>
      <trkpt lat="46.13253" lon="6.40559">
        <ele>589</ele>
        <time>2021-04-03T15:01:35Z</time>
      </trkpt>
      <trkpt lat="46.13253" lon="6.40549">
        <ele>589.2</ele>
        <time>2021-04-03T15:01:36Z</time>
      </trkpt>
      <trkpt lat="46.13253" lon="6.40539">
        <ele>589.4</ele>
        <time>2021-04-03T15:01:37Z</time>
      </trkpt>
      <trkpt lat="46.13253" lon="6.40529">
        <ele>589.8</ele>
        <time>2021-04-03T15:01:38Z</time>
      </trkpt>
      <trkpt lat="46.13253" lon="6.40519">
        <ele>590.4</ele>
        <time>2021-04-03T15:01:39Z</time>
      </trkpt>
      <trkpt lat="46.13253" lon="6.4051">
        <ele>591</ele>
        <time>2021-04-03T15:01:40Z</time>
      </trkpt>
      <trkpt lat="46.13253" lon="6.405">
        <ele>591.8</ele>
        <time>2021-04-03T15:01:41Z</time>
      </trkpt>
      <trkpt lat="46.13253" lon="6.4049">
        <ele>592</ele>
        <time>2021-04-03T15:01:42Z</time>
      </trkpt>
      <trkpt lat="46.13253" lon="6.4048">
        <ele>592.6</ele>
        <time>2021-04-03T15:01:43Z</time>
      </trkpt>
      <trkpt lat="46.13253" lon="6.4047">
        <ele>593</ele>
        <time>2021-04-03T15:01:44Z</time>
      </trkpt>
      <trkpt lat="46.13253" lon="6.40461">
        <ele>593</ele>
        <time>2021-04-03T15:01:45Z</time>
      </trkpt>
      <trkpt lat="46.13253" lon="6.40451">
        <ele>593.4</ele>
        <time>2021-04-03T15:01:46Z</time>
      </trkpt>
      <trkpt lat="46.13253" lon="6.40441">
        <ele>593.8</ele>
        <time>2021-04-03T15:01:47Z</time>
      </trkpt>
      <trkpt lat="46.13253" lon="6.40432">
        <ele>593.8</ele>
        <time>2021-04-03T15:01:48Z</time>
      </trkpt>
      <trkpt lat="46.13254" lon="6.40423">
        <ele>594.2</ele>
        <time>2021-04-03T15:01:49Z</time>
      </trkpt>
      <trkpt lat="46.13254" lon="6.40414">
        <ele>594.2</ele>
        <time>2021-04-03T15:01:50Z</time>
      </trkpt>
      <trkpt lat="46.13254" lon="6.40404">
        <ele>594.2</ele>
        <time>2021-04-03T15:01:51Z</time>
      </trkpt>
      <trkpt lat="46.13254" lon="6.40395">
        <ele>594.2</ele>
        <time>2021-04-03T15:01:52Z</time>
      </trkpt>
      <trkpt lat="46.13255" lon="6.40386">
        <ele>594.2</ele>
        <time>2021-04-03T15:01:53Z</time>
      </trkpt>
      <trkpt lat="46.13255" lon="6.40378">
        <ele>594.4</ele>
        <time>2021-04-03T15:01:54Z</time>
      </trkpt>
      <trkpt lat="46.13255" lon="6.40369">
        <ele>594.4</ele>
        <time>2021-04-03T15:01:55Z</time>
      </trkpt>
      <trkpt lat="46.13256" lon="6.4036">
        <ele>594.4</ele>
        <time>2021-04-03T15:01:56Z</time>
      </trkpt>
      <trkpt lat="46.13257" lon="6.40352">
        <ele>594.4</ele>
        <time>2021-04-03T15:01:57Z</time>
      </trkpt>
      <trkpt lat="46.13257" lon="6.40343">
        <ele>594.2</ele>
        <time>2021-04-03T15:01:58Z</time>
      </trkpt>
      <trkpt lat="46.13258" lon="6.40335">
        <ele>594.2</ele>
        <time>2021-04-03T15:01:59Z</time>
      </trkpt>
      <trkpt lat="46.13259" lon="6.40327">
        <ele>594.2</ele>
        <time>2021-04-03T15:02:00Z</time>
      </trkpt>
      <trkpt lat="46.1326" lon="6.40318">
        <ele>594.2</ele>
        <time>2021-04-03T15:02:01Z</time>
      </trkpt>
      <trkpt lat="46.13261" lon="6.4031">
        <ele>594</ele>
        <time>2021-04-03T15:02:02Z</time>
      </trkpt>
      <trkpt lat="46.13262" lon="6.40302">
        <ele>594.2</ele>
        <time>2021-04-03T15:02:03Z</time>
      </trkpt>
      <trkpt lat="46.13263" lon="6.40295">
        <ele>594.4</ele>
        <time>2021-04-03T15:02:04Z</time>
      </trkpt>
      <trkpt lat="46.13264" lon="6.40287">
        <ele>594.4</ele>
        <time>2021-04-03T15:02:05Z</time>
      </trkpt>
      <trkpt lat="46.13265" lon="6.40279">
        <ele>594.4</ele>
        <time>2021-04-03T15:02:06Z</time>
      </trkpt>
      <trkpt lat="46.13266" lon="6.40271">
        <ele>594.4</ele>
        <time>2021-04-03T15:02:07Z</time>
      </trkpt>
      <trkpt lat="46.13267" lon="6.40264">
        <ele>594.4</ele>
        <time>2021-04-03T15:02:08Z</time>
      </trkpt>
      <trkpt lat="46.13268" lon="6.40256">
        <ele>594.4</ele>
        <time>2021-04-03T15:02:09Z</time>
      </trkpt>
      <trkpt lat="46.13269" lon="6.40249">
        <ele>594.6</ele>
        <time>2021-04-03T15:02:10Z</time>
      </trkpt>
      <trkpt lat="46.1327" lon="6.40242">
        <ele>594.6</ele>
        <time>2021-04-03T15:02:11Z</time>
      </trkpt>
      <trkpt lat="46.13271" lon="6.40234">
        <ele>594.8</ele>
        <time>2021-04-03T15:02:12Z</time>
      </trkpt>
      <trkpt lat="46.13272" lon="6.40227">
        <ele>595.2</ele>
        <time>2021-04-03T15:02:13Z</time>
      </trkpt>
      <trkpt lat="46.13273" lon="6.4022">
        <ele>595.4</ele>
        <time>2021-04-03T15:02:14Z</time>
      </trkpt>
      <trkpt lat="46.13274" lon="6.40213">
        <ele>595.6</ele>
        <time>2021-04-03T15:02:15Z</time>
      </trkpt>
      <trkpt lat="46.13275" lon="6.40206">
        <ele>596</ele>
        <time>2021-04-03T15:02:16Z</time>
      </trkpt>
      <trkpt lat="46.13276" lon="6.40198">
        <ele>596.4</ele>
        <time>2021-04-03T15:02:17Z</time>
      </trkpt>
      <trkpt lat="46.13277" lon="6.40191">
        <ele>596.6</ele>
        <time>2021-04-03T15:02:18Z</time>
      </trkpt>
      <trkpt lat="46.13278" lon="6.40184">
        <ele>597.4</ele>
        <time>2021-04-03T15:02:19Z</time>
      </trkpt>
      <trkpt lat="46.13279" lon="6.40177">
        <ele>597.6</ele>
        <time>2021-04-03T15:02:20Z</time>
      </trkpt>
      <trkpt lat="46.13279" lon="6.40171">
        <ele>598</ele>
        <time>2021-04-03T15:02:21Z</time>
      </trkpt>
      <trkpt lat="46.1328" lon="6.40164">
        <ele>598</ele>
        <time>2021-04-03T15:02:22Z</time>
      </trkpt>
      <trkpt lat="46.13281" lon="6.40157">
        <ele>598.2</ele>
        <time>2021-04-03T15:02:23Z</time>
      </trkpt>
      <trkpt lat="46.13281" lon="6.4015">
        <ele>598.2</ele>
        <time>2021-04-03T15:02:24Z</time>
      </trkpt>
      <trkpt lat="46.13282" lon="6.40143">
        <ele>598.2</ele>
        <time>2021-04-03T15:02:25Z</time>
      </trkpt>
      <trkpt lat="46.13283" lon="6.40137">
        <ele>598.2</ele>
        <time>2021-04-03T15:02:26Z</time>
      </trkpt>
      <trkpt lat="46.13284" lon="6.40131">
        <ele>598.2</ele>
        <time>2021-04-03T15:02:27Z</time>
      </trkpt>
      <trkpt lat="46.13285" lon="6.40124">
        <ele>598.2</ele>
        <time>2021-04-03T15:02:28Z</time>
      </trkpt>
      <trkpt lat="46.13286" lon="6.40118">
        <ele>598.4</ele>
        <time>2021-04-03T15:02:29Z</time>
      </trkpt>
      <trkpt lat="46.13287" lon="6.40111">
        <ele>598.4</ele>
        <time>2021-04-03T15:02:30Z</time>
      </trkpt>
      <trkpt lat="46.13288" lon="6.40104">
        <ele>598.4</ele>
        <time>2021-04-03T15:02:31Z</time>
      </trkpt>
      <trkpt lat="46.13289" lon="6.40098">
        <ele>598.2</ele>
        <time>2021-04-03T15:02:32Z</time>
      </trkpt>
      <trkpt lat="46.1329" lon="6.40091">
        <ele>598.2</ele>
        <time>2021-04-03T15:02:33Z</time>
      </trkpt>
      <trkpt lat="46.13292" lon="6.40077">
        <ele>598</ele>
        <time>2021-04-03T15:02:35Z</time>
      </trkpt>
      <trkpt lat="46.13293" lon="6.4007">
        <ele>598</ele>
        <time>2021-04-03T15:02:36Z</time>
      </trkpt>
      <trkpt lat="46.13293" lon="6.40064">
        <ele>598</ele>
        <time>2021-04-03T15:02:37Z</time>
      </trkpt>
      <trkpt lat="46.13294" lon="6.40057">
        <ele>598</ele>
        <time>2021-04-03T15:02:38Z</time>
      </trkpt>
      <trkpt lat="46.13295" lon="6.4005">
        <ele>598</ele>
        <time>2021-04-03T15:02:39Z</time>
      </trkpt>
      <trkpt lat="46.13296" lon="6.40043">
        <ele>597.8</ele>
        <time>2021-04-03T15:02:40Z</time>
      </trkpt>
      <trkpt lat="46.13297" lon="6.40036">
        <ele>598</ele>
        <time>2021-04-03T15:02:41Z</time>
      </trkpt>
      <trkpt lat="46.13298" lon="6.40029">
        <ele>598.2</ele>
        <time>2021-04-03T15:02:42Z</time>
      </trkpt>
      <trkpt lat="46.133" lon="6.40021">
        <ele>598.2</ele>
        <time>2021-04-03T15:02:43Z</time>
      </trkpt>
      <trkpt lat="46.13301" lon="6.40014">
        <ele>598.2</ele>
        <time>2021-04-03T15:02:44Z</time>
      </trkpt>
      <trkpt lat="46.13303" lon="6.40006">
        <ele>598.2</ele>
        <time>2021-04-03T15:02:45Z</time>
      </trkpt>
      <trkpt lat="46.13305" lon="6.39998">
        <ele>598.2</ele>
        <time>2021-04-03T15:02:46Z</time>
      </trkpt>
      <trkpt lat="46.13307" lon="6.3999">
        <ele>598</ele>
        <time>2021-04-03T15:02:47Z</time>
      </trkpt>
      <trkpt lat="46.13309" lon="6.39982">
        <ele>598</ele>
        <time>2021-04-03T15:02:48Z</time>
      </trkpt>
      <trkpt lat="46.13311" lon="6.39974">
        <ele>597.8</ele>
        <time>2021-04-03T15:02:49Z</time>
      </trkpt>
      <trkpt lat="46.13314" lon="6.39966">
        <ele>597.6</ele>
        <time>2021-04-03T15:02:50Z</time>
      </trkpt>
      <trkpt lat="46.13316" lon="6.39957">
        <ele>597.2</ele>
        <time>2021-04-03T15:02:51Z</time>
      </trkpt>
      <trkpt lat="46.13319" lon="6.39949">
        <ele>597</ele>
        <time>2021-04-03T15:02:52Z</time>
      </trkpt>
      <trkpt lat="46.13322" lon="6.3994">
        <ele>596.8</ele>
        <time>2021-04-03T15:02:53Z</time>
      </trkpt>
      <trkpt lat="46.13325" lon="6.39932">
        <ele>596.8</ele>
        <time>2021-04-03T15:02:54Z</time>
      </trkpt>
      <trkpt lat="46.13328" lon="6.39923">
        <ele>596.8</ele>
        <time>2021-04-03T15:02:55Z</time>
      </trkpt>
      <trkpt lat="46.13331" lon="6.39914">
        <ele>596.6</ele>
        <time>2021-04-03T15:02:56Z</time>
      </trkpt>
      <trkpt lat="46.13335" lon="6.39905">
        <ele>596.6</ele>
        <time>2021-04-03T15:02:57Z</time>
      </trkpt>
      <trkpt lat="46.13338" lon="6.39896">
        <ele>596.4</ele>
        <time>2021-04-03T15:02:58Z</time>
      </trkpt>
      <trkpt lat="46.13342" lon="6.39887">
        <ele>596.2</ele>
        <time>2021-04-03T15:02:59Z</time>
      </trkpt>
      <trkpt lat="46.13345" lon="6.39877">
        <ele>596</ele>
        <time>2021-04-03T15:03:00Z</time>
      </trkpt>
      <trkpt lat="46.13349" lon="6.39867">
        <ele>596</ele>
        <time>2021-04-03T15:03:01Z</time>
      </trkpt>
      <trkpt lat="46.13352" lon="6.39857">
        <ele>595.8</ele>
        <time>2021-04-03T15:03:02Z</time>
      </trkpt>
      <trkpt lat="46.13355" lon="6.39847">
        <ele>595.2</ele>
        <time>2021-04-03T15:03:03Z</time>
      </trkpt>
      <trkpt lat="46.13359" lon="6.39837">
        <ele>595</ele>
        <time>2021-04-03T15:03:04Z</time>
      </trkpt>
      <trkpt lat="46.13362" lon="6.39827">
        <ele>594.6</ele>
        <time>2021-04-03T15:03:05Z</time>
      </trkpt>
      <trkpt lat="46.13366" lon="6.39816">
        <ele>594.2</ele>
        <time>2021-04-03T15:03:06Z</time>
      </trkpt>
      <trkpt lat="46.13369" lon="6.39805">
        <ele>594</ele>
        <time>2021-04-03T15:03:07Z</time>
      </trkpt>
      <trkpt lat="46.13371" lon="6.39794">
        <ele>593.8</ele>
        <time>2021-04-03T15:03:08Z</time>
      </trkpt>
      <trkpt lat="46.13374" lon="6.39783">
        <ele>593.4</ele>
        <time>2021-04-03T15:03:09Z</time>
      </trkpt>
      <trkpt lat="46.13377" lon="6.39772">
        <ele>593</ele>
        <time>2021-04-03T15:03:10Z</time>
      </trkpt>
      <trkpt lat="46.13379" lon="6.39761">
        <ele>592.8</ele>
        <time>2021-04-03T15:03:11Z</time>
      </trkpt>
      <trkpt lat="46.1338" lon="6.3975">
        <ele>592.6</ele>
        <time>2021-04-03T15:03:12Z</time>
      </trkpt>
      <trkpt lat="46.13382" lon="6.3974">
        <ele>592</ele>
        <time>2021-04-03T15:03:13Z</time>
      </trkpt>
      <trkpt lat="46.13383" lon="6.39729">
        <ele>591.6</ele>
        <time>2021-04-03T15:03:14Z</time>
      </trkpt>
      <trkpt lat="46.13384" lon="6.39717">
        <ele>591.6</ele>
        <time>2021-04-03T15:03:15Z</time>
      </trkpt>
      <trkpt lat="46.13386" lon="6.39706">
        <ele>591.2</ele>
        <time>2021-04-03T15:03:16Z</time>
      </trkpt>
      <trkpt lat="46.13386" lon="6.39694">
        <ele>591.2</ele>
        <time>2021-04-03T15:03:17Z</time>
      </trkpt>
      <trkpt lat="46.13387" lon="6.39683">
        <ele>590.8</ele>
        <time>2021-04-03T15:03:18Z</time>
      </trkpt>
      <trkpt lat="46.13388" lon="6.39671">
        <ele>590.4</ele>
        <time>2021-04-03T15:03:19Z</time>
      </trkpt>
      <trkpt lat="46.13389" lon="6.39658">
        <ele>590</ele>
        <time>2021-04-03T15:03:20Z</time>
      </trkpt>
      <trkpt lat="46.1339" lon="6.39646">
        <ele>589.8</ele>
        <time>2021-04-03T15:03:21Z</time>
      </trkpt>
      <trkpt lat="46.13392" lon="6.39634">
        <ele>589.4</ele>
        <time>2021-04-03T15:03:22Z</time>
      </trkpt>
      <trkpt lat="46.13395" lon="6.39623">
        <ele>588.6</ele>
        <time>2021-04-03T15:03:23Z</time>
      </trkpt>
      <trkpt lat="46.13398" lon="6.39611">
        <ele>588</ele>
        <time>2021-04-03T15:03:24Z</time>
      </trkpt>
      <trkpt lat="46.13402" lon="6.396">
        <ele>587.8</ele>
        <time>2021-04-03T15:03:25Z</time>
      </trkpt>
      <trkpt lat="46.13406" lon="6.39589">
        <ele>587.6</ele>
        <time>2021-04-03T15:03:26Z</time>
      </trkpt>
      <trkpt lat="46.13409" lon="6.39578">
        <ele>587.2</ele>
        <time>2021-04-03T15:03:27Z</time>
      </trkpt>
      <trkpt lat="46.13413" lon="6.39568">
        <ele>586.8</ele>
        <time>2021-04-03T15:03:28Z</time>
      </trkpt>
      <trkpt lat="46.13416" lon="6.39558">
        <ele>586.8</ele>
        <time>2021-04-03T15:03:29Z</time>
      </trkpt>
      <trkpt lat="46.13419" lon="6.39548">
        <ele>586.4</ele>
        <time>2021-04-03T15:03:30Z</time>
      </trkpt>
      <trkpt lat="46.13421" lon="6.39538">
        <ele>585.8</ele>
        <time>2021-04-03T15:03:31Z</time>
      </trkpt>
      <trkpt lat="46.13423" lon="6.39528">
        <ele>585.4</ele>
        <time>2021-04-03T15:03:32Z</time>
      </trkpt>
      <trkpt lat="46.13425" lon="6.39518">
        <ele>585.4</ele>
        <time>2021-04-03T15:03:33Z</time>
      </trkpt>
      <trkpt lat="46.13427" lon="6.39508">
        <ele>585.4</ele>
        <time>2021-04-03T15:03:34Z</time>
      </trkpt>
      <trkpt lat="46.13429" lon="6.39498">
        <ele>585.4</ele>
        <time>2021-04-03T15:03:35Z</time>
      </trkpt>
      <trkpt lat="46.1343" lon="6.39489">
        <ele>585.4</ele>
        <time>2021-04-03T15:03:36Z</time>
      </trkpt>
      <trkpt lat="46.1343" lon="6.39479">
        <ele>585.2</ele>
        <time>2021-04-03T15:03:37Z</time>
      </trkpt>
      <trkpt lat="46.13431" lon="6.39469">
        <ele>585</ele>
        <time>2021-04-03T15:03:38Z</time>
      </trkpt>
      <trkpt lat="46.13432" lon="6.39459">
        <ele>584.6</ele>
        <time>2021-04-03T15:03:39Z</time>
      </trkpt>
      <trkpt lat="46.13433" lon="6.39449">
        <ele>584.6</ele>
        <time>2021-04-03T15:03:40Z</time>
      </trkpt>
      <trkpt lat="46.13434" lon="6.39439">
        <ele>584.4</ele>
        <time>2021-04-03T15:03:41Z</time>
      </trkpt>
      <trkpt lat="46.13435" lon="6.39429">
        <ele>584.4</ele>
        <time>2021-04-03T15:03:42Z</time>
      </trkpt>
      <trkpt lat="46.13436" lon="6.3942">
        <ele>584</ele>
        <time>2021-04-03T15:03:43Z</time>
      </trkpt>
      <trkpt lat="46.13439" lon="6.3941">
        <ele>583.8</ele>
        <time>2021-04-03T15:03:44Z</time>
      </trkpt>
      <trkpt lat="46.13441" lon="6.39401">
        <ele>583.4</ele>
        <time>2021-04-03T15:03:45Z</time>
      </trkpt>
      <trkpt lat="46.13443" lon="6.39391">
        <ele>583.4</ele>
        <time>2021-04-03T15:03:46Z</time>
      </trkpt>
      <trkpt lat="46.13445" lon="6.39382">
        <ele>583.6</ele>
        <time>2021-04-03T15:03:47Z</time>
      </trkpt>
      <trkpt lat="46.13447" lon="6.39373">
        <ele>583.2</ele>
        <time>2021-04-03T15:03:48Z</time>
      </trkpt>
      <trkpt lat="46.1345" lon="6.39364">
        <ele>583.2</ele>
        <time>2021-04-03T15:03:49Z</time>
      </trkpt>
      <trkpt lat="46.13452" lon="6.39356">
        <ele>583</ele>
        <time>2021-04-03T15:03:50Z</time>
      </trkpt>
      <trkpt lat="46.13455" lon="6.39347">
        <ele>583</ele>
        <time>2021-04-03T15:03:51Z</time>
      </trkpt>
      <trkpt lat="46.1346" lon="6.3934">
        <ele>583</ele>
        <time>2021-04-03T15:03:52Z</time>
      </trkpt>
      <trkpt lat="46.13464" lon="6.39333">
        <ele>582.6</ele>
        <time>2021-04-03T15:03:53Z</time>
      </trkpt>
      <trkpt lat="46.13467" lon="6.39325">
        <ele>582.4</ele>
        <time>2021-04-03T15:03:54Z</time>
      </trkpt>
      <trkpt lat="46.13468" lon="6.39315">
        <ele>582</ele>
        <time>2021-04-03T15:03:55Z</time>
      </trkpt>
      <trkpt lat="46.13468" lon="6.39306">
        <ele>581.8</ele>
        <time>2021-04-03T15:03:56Z</time>
      </trkpt>
      <trkpt lat="46.13466" lon="6.39288">
        <ele>581.6</ele>
        <time>2021-04-03T15:03:58Z</time>
      </trkpt>
      <trkpt lat="46.13464" lon="6.39279">
        <ele>581.8</ele>
        <time>2021-04-03T15:03:59Z</time>
      </trkpt>
      <trkpt lat="46.13463" lon="6.3927">
        <ele>581.6</ele>
        <time>2021-04-03T15:04:00Z</time>
      </trkpt>
      <trkpt lat="46.13462" lon="6.39261">
        <ele>581.4</ele>
        <time>2021-04-03T15:04:01Z</time>
      </trkpt>
      <trkpt lat="46.13461" lon="6.39252">
        <ele>581.6</ele>
        <time>2021-04-03T15:04:02Z</time>
      </trkpt>
      <trkpt lat="46.13461" lon="6.39242">
        <ele>581.8</ele>
        <time>2021-04-03T15:04:03Z</time>
      </trkpt>
      <trkpt lat="46.13461" lon="6.39233">
        <ele>582</ele>
        <time>2021-04-03T15:04:04Z</time>
      </trkpt>
      <trkpt lat="46.13461" lon="6.39223">
        <ele>582</ele>
        <time>2021-04-03T15:04:05Z</time>
      </trkpt>
      <trkpt lat="46.13461" lon="6.39213">
        <ele>582.6</ele>
        <time>2021-04-03T15:04:06Z</time>
      </trkpt>
      <trkpt lat="46.13461" lon="6.39203">
        <ele>582.8</ele>
        <time>2021-04-03T15:04:07Z</time>
      </trkpt>
      <trkpt lat="46.13462" lon="6.39193">
        <ele>583</ele>
        <time>2021-04-03T15:04:08Z</time>
      </trkpt>
      <trkpt lat="46.13462" lon="6.39183">
        <ele>583.2</ele>
        <time>2021-04-03T15:04:09Z</time>
      </trkpt>
      <trkpt lat="46.13462" lon="6.39174">
        <ele>583</ele>
        <time>2021-04-03T15:04:10Z</time>
      </trkpt>
      <trkpt lat="46.13462" lon="6.39164">
        <ele>583</ele>
        <time>2021-04-03T15:04:11Z</time>
      </trkpt>
      <trkpt lat="46.13463" lon="6.39154">
        <ele>583</ele>
        <time>2021-04-03T15:04:12Z</time>
      </trkpt>
      <trkpt lat="46.13463" lon="6.39143">
        <ele>583</ele>
        <time>2021-04-03T15:04:13Z</time>
      </trkpt>
      <trkpt lat="46.13463" lon="6.39132">
        <ele>583.2</ele>
        <time>2021-04-03T15:04:14Z</time>
      </trkpt>
      <trkpt lat="46.13464" lon="6.39122">
        <ele>583</ele>
        <time>2021-04-03T15:04:15Z</time>
      </trkpt>
      <trkpt lat="46.13464" lon="6.39111">
        <ele>583</ele>
        <time>2021-04-03T15:04:16Z</time>
      </trkpt>
      <trkpt lat="46.13464" lon="6.39101">
        <ele>583</ele>
        <time>2021-04-03T15:04:17Z</time>
      </trkpt>
      <trkpt lat="46.13465" lon="6.3909">
        <ele>583</ele>
        <time>2021-04-03T15:04:18Z</time>
      </trkpt>
      <trkpt lat="46.13465" lon="6.3908">
        <ele>583</ele>
        <time>2021-04-03T15:04:19Z</time>
      </trkpt>
      <trkpt lat="46.13465" lon="6.39069">
        <ele>582.6</ele>
        <time>2021-04-03T15:04:20Z</time>
      </trkpt>
      <trkpt lat="46.13466" lon="6.39059">
        <ele>582.4</ele>
        <time>2021-04-03T15:04:21Z</time>
      </trkpt>
      <trkpt lat="46.13466" lon="6.39048">
        <ele>582.4</ele>
        <time>2021-04-03T15:04:22Z</time>
      </trkpt>
      <trkpt lat="46.13466" lon="6.39038">
        <ele>581.4</ele>
        <time>2021-04-03T15:04:23Z</time>
      </trkpt>
      <trkpt lat="46.13467" lon="6.39028">
        <ele>581.2</ele>
        <time>2021-04-03T15:04:24Z</time>
      </trkpt>
      <trkpt lat="46.13467" lon="6.39018">
        <ele>580.8</ele>
        <time>2021-04-03T15:04:25Z</time>
      </trkpt>
      <trkpt lat="46.13467" lon="6.39008">
        <ele>581</ele>
        <time>2021-04-03T15:04:26Z</time>
      </trkpt>
      <trkpt lat="46.13468" lon="6.38997">
        <ele>580.8</ele>
        <time>2021-04-03T15:04:27Z</time>
      </trkpt>
      <trkpt lat="46.13468" lon="6.38987">
        <ele>580.6</ele>
        <time>2021-04-03T15:04:28Z</time>
      </trkpt>
      <trkpt lat="46.13468" lon="6.38976">
        <ele>580.6</ele>
        <time>2021-04-03T15:04:29Z</time>
      </trkpt>
      <trkpt lat="46.13469" lon="6.38966">
        <ele>580.8</ele>
        <time>2021-04-03T15:04:30Z</time>
      </trkpt>
      <trkpt lat="46.13469" lon="6.38955">
        <ele>580.6</ele>
        <time>2021-04-03T15:04:31Z</time>
      </trkpt>
      <trkpt lat="46.13469" lon="6.38945">
        <ele>580.6</ele>
        <time>2021-04-03T15:04:32Z</time>
      </trkpt>
      <trkpt lat="46.1347" lon="6.38935">
        <ele>580.6</ele>
        <time>2021-04-03T15:04:33Z</time>
      </trkpt>
      <trkpt lat="46.1347" lon="6.38924">
        <ele>580.6</ele>
        <time>2021-04-03T15:04:34Z</time>
      </trkpt>
      <trkpt lat="46.1347" lon="6.38914">
        <ele>580.4</ele>
        <time>2021-04-03T15:04:35Z</time>
      </trkpt>
      <trkpt lat="46.13471" lon="6.38904">
        <ele>580.6</ele>
        <time>2021-04-03T15:04:36Z</time>
      </trkpt>
      <trkpt lat="46.13471" lon="6.38894">
        <ele>580.6</ele>
        <time>2021-04-03T15:04:37Z</time>
      </trkpt>
      <trkpt lat="46.13471" lon="6.38884">
        <ele>580.4</ele>
        <time>2021-04-03T15:04:38Z</time>
      </trkpt>
      <trkpt lat="46.13471" lon="6.38873">
        <ele>580.4</ele>
        <time>2021-04-03T15:04:39Z</time>
      </trkpt>
      <trkpt lat="46.13472" lon="6.38863">
        <ele>580.4</ele>
        <time>2021-04-03T15:04:40Z</time>
      </trkpt>
      <trkpt lat="46.13472" lon="6.38853">
        <ele>580.2</ele>
        <time>2021-04-03T15:04:41Z</time>
      </trkpt>
      <trkpt lat="46.13473" lon="6.38843">
        <ele>580</ele>
        <time>2021-04-03T15:04:42Z</time>
      </trkpt>
      <trkpt lat="46.13473" lon="6.38833">
        <ele>579.6</ele>
        <time>2021-04-03T15:04:43Z</time>
      </trkpt>
      <trkpt lat="46.13473" lon="6.38824">
        <ele>579.4</ele>
        <time>2021-04-03T15:04:44Z</time>
      </trkpt>
      <trkpt lat="46.13473" lon="6.38815">
        <ele>579.4</ele>
        <time>2021-04-03T15:04:45Z</time>
      </trkpt>
      <trkpt lat="46.13474" lon="6.38805">
        <ele>579.2</ele>
        <time>2021-04-03T15:04:46Z</time>
      </trkpt>
      <trkpt lat="46.13474" lon="6.38796">
        <ele>579.2</ele>
        <time>2021-04-03T15:04:47Z</time>
      </trkpt>
      <trkpt lat="46.13474" lon="6.38787">
        <ele>579.2</ele>
        <time>2021-04-03T15:04:48Z</time>
      </trkpt>
      <trkpt lat="46.13474" lon="6.38778">
        <ele>579.2</ele>
        <time>2021-04-03T15:04:49Z</time>
      </trkpt>
      <trkpt lat="46.13475" lon="6.38769">
        <ele>579.2</ele>
        <time>2021-04-03T15:04:50Z</time>
      </trkpt>
      <trkpt lat="46.13476" lon="6.38761">
        <ele>579.2</ele>
        <time>2021-04-03T15:04:51Z</time>
      </trkpt>
      <trkpt lat="46.13477" lon="6.38753">
        <ele>579.4</ele>
        <time>2021-04-03T15:04:52Z</time>
      </trkpt>
      <trkpt lat="46.13479" lon="6.38745">
        <ele>579.2</ele>
        <time>2021-04-03T15:04:53Z</time>
      </trkpt>
      <trkpt lat="46.1348" lon="6.38737">
        <ele>579.4</ele>
        <time>2021-04-03T15:04:54Z</time>
      </trkpt>
      <trkpt lat="46.13482" lon="6.3873">
        <ele>579.6</ele>
        <time>2021-04-03T15:04:55Z</time>
      </trkpt>
      <trkpt lat="46.13484" lon="6.38724">
        <ele>579.4</ele>
        <time>2021-04-03T15:04:56Z</time>
      </trkpt>
      <trkpt lat="46.13487" lon="6.38717">
        <ele>579.6</ele>
        <time>2021-04-03T15:04:57Z</time>
      </trkpt>
      <trkpt lat="46.13489" lon="6.38711">
        <ele>579.6</ele>
        <time>2021-04-03T15:04:58Z</time>
      </trkpt>
      <trkpt lat="46.13491" lon="6.38704">
        <ele>580</ele>
        <time>2021-04-03T15:04:59Z</time>
      </trkpt>
      <trkpt lat="46.13493" lon="6.38697">
        <ele>580.2</ele>
        <time>2021-04-03T15:05:00Z</time>
      </trkpt>
      <trkpt lat="46.13496" lon="6.3869">
        <ele>580.2</ele>
        <time>2021-04-03T15:05:01Z</time>
      </trkpt>
      <trkpt lat="46.13498" lon="6.38682">
        <ele>580.2</ele>
        <time>2021-04-03T15:05:02Z</time>
      </trkpt>
      <trkpt lat="46.13501" lon="6.38674">
        <ele>580.2</ele>
        <time>2021-04-03T15:05:03Z</time>
      </trkpt>
      <trkpt lat="46.13503" lon="6.38667">
        <ele>580.4</ele>
        <time>2021-04-03T15:05:04Z</time>
      </trkpt>
      <trkpt lat="46.13506" lon="6.3866">
        <ele>580.6</ele>
        <time>2021-04-03T15:05:05Z</time>
      </trkpt>
      <trkpt lat="46.13509" lon="6.38653">
        <ele>580.4</ele>
        <time>2021-04-03T15:05:06Z</time>
      </trkpt>
      <trkpt lat="46.13512" lon="6.38645">
        <ele>580.6</ele>
        <time>2021-04-03T15:05:07Z</time>
      </trkpt>
      <trkpt lat="46.13514" lon="6.38638">
        <ele>580.6</ele>
        <time>2021-04-03T15:05:08Z</time>
      </trkpt>
      <trkpt lat="46.13517" lon="6.3863">
        <ele>580.4</ele>
        <time>2021-04-03T15:05:09Z</time>
      </trkpt>
      <trkpt lat="46.1352" lon="6.38623">
        <ele>580.6</ele>
        <time>2021-04-03T15:05:10Z</time>
      </trkpt>
      <trkpt lat="46.13522" lon="6.38615">
        <ele>580.4</ele>
        <time>2021-04-03T15:05:11Z</time>
      </trkpt>
      <trkpt lat="46.13525" lon="6.38608">
        <ele>580.4</ele>
        <time>2021-04-03T15:05:12Z</time>
      </trkpt>
      <trkpt lat="46.13527" lon="6.386">
        <ele>580.4</ele>
        <time>2021-04-03T15:05:13Z</time>
      </trkpt>
      <trkpt lat="46.1353" lon="6.38593">
        <ele>580.6</ele>
        <time>2021-04-03T15:05:14Z</time>
      </trkpt>
      <trkpt lat="46.13532" lon="6.38585">
        <ele>580.4</ele>
        <time>2021-04-03T15:05:15Z</time>
      </trkpt>
      <trkpt lat="46.13535" lon="6.38577">
        <ele>580.6</ele>
        <time>2021-04-03T15:05:16Z</time>
      </trkpt>
      <trkpt lat="46.13537" lon="6.3857">
        <ele>580.8</ele>
        <time>2021-04-03T15:05:17Z</time>
      </trkpt>
      <trkpt lat="46.1354" lon="6.38562">
        <ele>581.6</ele>
        <time>2021-04-03T15:05:18Z</time>
      </trkpt>
      <trkpt lat="46.13543" lon="6.38555">
        <ele>582</ele>
        <time>2021-04-03T15:05:19Z</time>
      </trkpt>
      <trkpt lat="46.13545" lon="6.38547">
        <ele>582</ele>
        <time>2021-04-03T15:05:20Z</time>
      </trkpt>
      <trkpt lat="46.13548" lon="6.3854">
        <ele>582.8</ele>
        <time>2021-04-03T15:05:21Z</time>
      </trkpt>
      <trkpt lat="46.13551" lon="6.38533">
        <ele>583.6</ele>
        <time>2021-04-03T15:05:22Z</time>
      </trkpt>
      <trkpt lat="46.13554" lon="6.38526">
        <ele>584.4</ele>
        <time>2021-04-03T15:05:23Z</time>
      </trkpt>
      <trkpt lat="46.13557" lon="6.38519">
        <ele>584.8</ele>
        <time>2021-04-03T15:05:24Z</time>
      </trkpt>
      <trkpt lat="46.1356" lon="6.38513">
        <ele>585</ele>
        <time>2021-04-03T15:05:25Z</time>
      </trkpt>
      <trkpt lat="46.13563" lon="6.38508">
        <ele>585.4</ele>
        <time>2021-04-03T15:05:26Z</time>
      </trkpt>
      <trkpt lat="46.13566" lon="6.38503">
        <ele>585.8</ele>
        <time>2021-04-03T15:05:27Z</time>
      </trkpt>
      <trkpt lat="46.13569" lon="6.38498">
        <ele>586.2</ele>
        <time>2021-04-03T15:05:28Z</time>
      </trkpt>
      <trkpt lat="46.13572" lon="6.38494">
        <ele>586.6</ele>
        <time>2021-04-03T15:05:29Z</time>
      </trkpt>
      <trkpt lat="46.13575" lon="6.38489">
        <ele>587</ele>
        <time>2021-04-03T15:05:30Z</time>
      </trkpt>
      <trkpt lat="46.13578" lon="6.38485">
        <ele>587.4</ele>
        <time>2021-04-03T15:05:31Z</time>
      </trkpt>
      <trkpt lat="46.1358" lon="6.38481">
        <ele>587.6</ele>
        <time>2021-04-03T15:05:32Z</time>
      </trkpt>
      <trkpt lat="46.13583" lon="6.38477">
        <ele>588</ele>
        <time>2021-04-03T15:05:33Z</time>
      </trkpt>
      <trkpt lat="46.13586" lon="6.38473">
        <ele>588</ele>
        <time>2021-04-03T15:05:34Z</time>
      </trkpt>
      <trkpt lat="46.13589" lon="6.3847">
        <ele>588.2</ele>
        <time>2021-04-03T15:05:35Z</time>
      </trkpt>
      <trkpt lat="46.13592" lon="6.38466">
        <ele>588.2</ele>
        <time>2021-04-03T15:05:36Z</time>
      </trkpt>
      <trkpt lat="46.13595" lon="6.38462">
        <ele>588.6</ele>
        <time>2021-04-03T15:05:37Z</time>
      </trkpt>
      <trkpt lat="46.13597" lon="6.38458">
        <ele>588.6</ele>
        <time>2021-04-03T15:05:38Z</time>
      </trkpt>
      <trkpt lat="46.136" lon="6.38455">
        <ele>589</ele>
        <time>2021-04-03T15:05:39Z</time>
      </trkpt>
      <trkpt lat="46.13603" lon="6.38451">
        <ele>589</ele>
        <time>2021-04-03T15:05:40Z</time>
      </trkpt>
      <trkpt lat="46.13605" lon="6.38447">
        <ele>589.2</ele>
        <time>2021-04-03T15:05:41Z</time>
      </trkpt>
      <trkpt lat="46.13608" lon="6.38443">
        <ele>589.2</ele>
        <time>2021-04-03T15:05:42Z</time>
      </trkpt>
      <trkpt lat="46.1361" lon="6.38439">
        <ele>589.6</ele>
        <time>2021-04-03T15:05:43Z</time>
      </trkpt>
      <trkpt lat="46.13613" lon="6.38435">
        <ele>589.6</ele>
        <time>2021-04-03T15:05:44Z</time>
      </trkpt>
      <trkpt lat="46.13615" lon="6.38431">
        <ele>590</ele>
        <time>2021-04-03T15:05:45Z</time>
      </trkpt>
      <trkpt lat="46.13617" lon="6.38426">
        <ele>590.2</ele>
        <time>2021-04-03T15:05:46Z</time>
      </trkpt>
      <trkpt lat="46.13619" lon="6.38422">
        <ele>590.2</ele>
        <time>2021-04-03T15:05:47Z</time>
      </trkpt>
      <trkpt lat="46.13622" lon="6.38417">
        <ele>590.4</ele>
        <time>2021-04-03T15:05:48Z</time>
      </trkpt>
      <trkpt lat="46.13624" lon="6.38413">
        <ele>590.4</ele>
        <time>2021-04-03T15:05:49Z</time>
      </trkpt>
      <trkpt lat="46.13626" lon="6.38408">
        <ele>590.6</ele>
        <time>2021-04-03T15:05:50Z</time>
      </trkpt>
      <trkpt lat="46.13628" lon="6.38403">
        <ele>590.4</ele>
        <time>2021-04-03T15:05:51Z</time>
      </trkpt>
      <trkpt lat="46.1363" lon="6.38398">
        <ele>590.8</ele>
        <time>2021-04-03T15:05:52Z</time>
      </trkpt>
      <trkpt lat="46.13632" lon="6.38393">
        <ele>591</ele>
        <time>2021-04-03T15:05:53Z</time>
      </trkpt>
      <trkpt lat="46.13633" lon="6.38388">
        <ele>591.2</ele>
        <time>2021-04-03T15:05:54Z</time>
      </trkpt>
      <trkpt lat="46.13635" lon="6.38383">
        <ele>591.4</ele>
        <time>2021-04-03T15:05:55Z</time>
      </trkpt>
      <trkpt lat="46.13637" lon="6.38378">
        <ele>591.8</ele>
        <time>2021-04-03T15:05:56Z</time>
      </trkpt>
      <trkpt lat="46.13639" lon="6.38373">
        <ele>592.2</ele>
        <time>2021-04-03T15:05:57Z</time>
      </trkpt>
      <trkpt lat="46.13641" lon="6.38368">
        <ele>592.6</ele>
        <time>2021-04-03T15:05:58Z</time>
      </trkpt>
      <trkpt lat="46.13643" lon="6.38363">
        <ele>592.8</ele>
        <time>2021-04-03T15:05:59Z</time>
      </trkpt>
      <trkpt lat="46.13645" lon="6.38358">
        <ele>592.8</ele>
        <time>2021-04-03T15:06:00Z</time>
      </trkpt>
      <trkpt lat="46.13647" lon="6.38353">
        <ele>593</ele>
        <time>2021-04-03T15:06:01Z</time>
      </trkpt>
      <trkpt lat="46.13649" lon="6.38348">
        <ele>593.4</ele>
        <time>2021-04-03T15:06:02Z</time>
      </trkpt>
      <trkpt lat="46.13651" lon="6.38342">
        <ele>593.6</ele>
        <time>2021-04-03T15:06:03Z</time>
      </trkpt>
      <trkpt lat="46.13653" lon="6.38337">
        <ele>593.6</ele>
        <time>2021-04-03T15:06:04Z</time>
      </trkpt>
      <trkpt lat="46.13654" lon="6.38332">
        <ele>594</ele>
        <time>2021-04-03T15:06:05Z</time>
      </trkpt>
      <trkpt lat="46.13656" lon="6.38327">
        <ele>593.8</ele>
        <time>2021-04-03T15:06:06Z</time>
      </trkpt>
      <trkpt lat="46.13659" lon="6.38322">
        <ele>593.8</ele>
        <time>2021-04-03T15:06:07Z</time>
      </trkpt>
      <trkpt lat="46.13661" lon="6.38317">
        <ele>594</ele>
        <time>2021-04-03T15:06:08Z</time>
      </trkpt>
      <trkpt lat="46.13663" lon="6.38312">
        <ele>594</ele>
        <time>2021-04-03T15:06:09Z</time>
      </trkpt>
      <trkpt lat="46.13666" lon="6.38307">
        <ele>593.8</ele>
        <time>2021-04-03T15:06:10Z</time>
      </trkpt>
      <trkpt lat="46.13668" lon="6.38302">
        <ele>594.2</ele>
        <time>2021-04-03T15:06:11Z</time>
      </trkpt>
      <trkpt lat="46.13671" lon="6.38296">
        <ele>594.2</ele>
        <time>2021-04-03T15:06:12Z</time>
      </trkpt>
      <trkpt lat="46.13673" lon="6.38291">
        <ele>594</ele>
        <time>2021-04-03T15:06:13Z</time>
      </trkpt>
      <trkpt lat="46.13676" lon="6.38285">
        <ele>594.2</ele>
        <time>2021-04-03T15:06:14Z</time>
      </trkpt>
      <trkpt lat="46.13679" lon="6.3828">
        <ele>594.2</ele>
        <time>2021-04-03T15:06:15Z</time>
      </trkpt>
      <trkpt lat="46.13681" lon="6.38274">
        <ele>594.2</ele>
        <time>2021-04-03T15:06:16Z</time>
      </trkpt>
      <trkpt lat="46.13684" lon="6.38269">
        <ele>594.2</ele>
        <time>2021-04-03T15:06:17Z</time>
      </trkpt>
      <trkpt lat="46.13687" lon="6.38263">
        <ele>594.2</ele>
        <time>2021-04-03T15:06:18Z</time>
      </trkpt>
      <trkpt lat="46.13689" lon="6.38257">
        <ele>594.4</ele>
        <time>2021-04-03T15:06:19Z</time>
      </trkpt>
      <trkpt lat="46.13692" lon="6.38252">
        <ele>594.8</ele>
        <time>2021-04-03T15:06:20Z</time>
      </trkpt>
      <trkpt lat="46.13694" lon="6.38246">
        <ele>594.8</ele>
        <time>2021-04-03T15:06:21Z</time>
      </trkpt>
      <trkpt lat="46.13697" lon="6.3824">
        <ele>595</ele>
        <time>2021-04-03T15:06:22Z</time>
      </trkpt>
      <trkpt lat="46.137" lon="6.38235">
        <ele>595.2</ele>
        <time>2021-04-03T15:06:23Z</time>
      </trkpt>
      <trkpt lat="46.13702" lon="6.38229">
        <ele>595.6</ele>
        <time>2021-04-03T15:06:24Z</time>
      </trkpt>
      <trkpt lat="46.13705" lon="6.38223">
        <ele>595.8</ele>
        <time>2021-04-03T15:06:25Z</time>
      </trkpt>
      <trkpt lat="46.13708" lon="6.38218">
        <ele>596.2</ele>
        <time>2021-04-03T15:06:26Z</time>
      </trkpt>
      <trkpt lat="46.1371" lon="6.38212">
        <ele>596.4</ele>
        <time>2021-04-03T15:06:27Z</time>
      </trkpt>
      <trkpt lat="46.13713" lon="6.38207">
        <ele>596.8</ele>
        <time>2021-04-03T15:06:28Z</time>
      </trkpt>
      <trkpt lat="46.13715" lon="6.38202">
        <ele>596.8</ele>
        <time>2021-04-03T15:06:29Z</time>
      </trkpt>
      <trkpt lat="46.13718" lon="6.38197">
        <ele>597</ele>
        <time>2021-04-03T15:06:30Z</time>
      </trkpt>
      <trkpt lat="46.13721" lon="6.38192">
        <ele>597.2</ele>
        <time>2021-04-03T15:06:31Z</time>
      </trkpt>
      <trkpt lat="46.13723" lon="6.38187">
        <ele>597.2</ele>
        <time>2021-04-03T15:06:32Z</time>
      </trkpt>
      <trkpt lat="46.13726" lon="6.38183">
        <ele>597.4</ele>
        <time>2021-04-03T15:06:33Z</time>
      </trkpt>
      <trkpt lat="46.13729" lon="6.38177">
        <ele>597.6</ele>
        <time>2021-04-03T15:06:34Z</time>
      </trkpt>
      <trkpt lat="46.13732" lon="6.38172">
        <ele>597.6</ele>
        <time>2021-04-03T15:06:35Z</time>
      </trkpt>
      <trkpt lat="46.13735" lon="6.38168">
        <ele>597.8</ele>
        <time>2021-04-03T15:06:36Z</time>
      </trkpt>
      <trkpt lat="46.13739" lon="6.38163">
        <ele>598</ele>
        <time>2021-04-03T15:06:37Z</time>
      </trkpt>
      <trkpt lat="46.13743" lon="6.38158">
        <ele>598</ele>
        <time>2021-04-03T15:06:38Z</time>
      </trkpt>
      <trkpt lat="46.13747" lon="6.38153">
        <ele>598.2</ele>
        <time>2021-04-03T15:06:39Z</time>
      </trkpt>
      <trkpt lat="46.13751" lon="6.38148">
        <ele>598.2</ele>
        <time>2021-04-03T15:06:40Z</time>
      </trkpt>
      <trkpt lat="46.13755" lon="6.38144">
        <ele>598.8</ele>
        <time>2021-04-03T15:06:41Z</time>
      </trkpt>
      <trkpt lat="46.13759" lon="6.38139">
        <ele>599</ele>
        <time>2021-04-03T15:06:42Z</time>
      </trkpt>
      <trkpt lat="46.13763" lon="6.38135">
        <ele>599</ele>
        <time>2021-04-03T15:06:43Z</time>
      </trkpt>
      <trkpt lat="46.13768" lon="6.3813">
        <ele>599.2</ele>
        <time>2021-04-03T15:06:44Z</time>
      </trkpt>
      <trkpt lat="46.13772" lon="6.38125">
        <ele>599.2</ele>
        <time>2021-04-03T15:06:45Z</time>
      </trkpt>
      <trkpt lat="46.13776" lon="6.3812">
        <ele>599.4</ele>
        <time>2021-04-03T15:06:46Z</time>
      </trkpt>
      <trkpt lat="46.13781" lon="6.38115">
        <ele>599.2</ele>
        <time>2021-04-03T15:06:47Z</time>
      </trkpt>
      <trkpt lat="46.13785" lon="6.38109">
        <ele>599.2</ele>
        <time>2021-04-03T15:06:48Z</time>
      </trkpt>
      <trkpt lat="46.13789" lon="6.38104">
        <ele>599.2</ele>
        <time>2021-04-03T15:06:49Z</time>
      </trkpt>
      <trkpt lat="46.13793" lon="6.38098">
        <ele>599.2</ele>
        <time>2021-04-03T15:06:50Z</time>
      </trkpt>
      <trkpt lat="46.13797" lon="6.38091">
        <ele>599.4</ele>
        <time>2021-04-03T15:06:51Z</time>
      </trkpt>
      <trkpt lat="46.13801" lon="6.38085">
        <ele>599.2</ele>
        <time>2021-04-03T15:06:52Z</time>
      </trkpt>
      <trkpt lat="46.13805" lon="6.38078">
        <ele>599.4</ele>
        <time>2021-04-03T15:06:53Z</time>
      </trkpt>
      <trkpt lat="46.13809" lon="6.38071">
        <ele>599.4</ele>
        <time>2021-04-03T15:06:54Z</time>
      </trkpt>
      <trkpt lat="46.13813" lon="6.38063">
        <ele>599.4</ele>
        <time>2021-04-03T15:06:55Z</time>
      </trkpt>
      <trkpt lat="46.13817" lon="6.38056">
        <ele>599.4</ele>
        <time>2021-04-03T15:06:56Z</time>
      </trkpt>
      <trkpt lat="46.13821" lon="6.38048">
        <ele>599.4</ele>
        <time>2021-04-03T15:06:57Z</time>
      </trkpt>
      <trkpt lat="46.13825" lon="6.3804">
        <ele>599.4</ele>
        <time>2021-04-03T15:06:58Z</time>
      </trkpt>
      <trkpt lat="46.13829" lon="6.38033">
        <ele>599.4</ele>
        <time>2021-04-03T15:06:59Z</time>
      </trkpt>
      <trkpt lat="46.13833" lon="6.38026">
        <ele>599.4</ele>
        <time>2021-04-03T15:07:00Z</time>
      </trkpt>
      <trkpt lat="46.13837" lon="6.38018">
        <ele>599.2</ele>
        <time>2021-04-03T15:07:01Z</time>
      </trkpt>
      <trkpt lat="46.1384" lon="6.38011">
        <ele>599</ele>
        <time>2021-04-03T15:07:02Z</time>
      </trkpt>
      <trkpt lat="46.13844" lon="6.38004">
        <ele>599</ele>
        <time>2021-04-03T15:07:03Z</time>
      </trkpt>
      <trkpt lat="46.13848" lon="6.37997">
        <ele>599</ele>
        <time>2021-04-03T15:07:04Z</time>
      </trkpt>
      <trkpt lat="46.13852" lon="6.3799">
        <ele>599</ele>
        <time>2021-04-03T15:07:05Z</time>
      </trkpt>
      <trkpt lat="46.13855" lon="6.37983">
        <ele>598.8</ele>
        <time>2021-04-03T15:07:06Z</time>
      </trkpt>
      <trkpt lat="46.13859" lon="6.37977">
        <ele>599</ele>
        <time>2021-04-03T15:07:07Z</time>
      </trkpt>
      <trkpt lat="46.13862" lon="6.3797">
        <ele>599.2</ele>
        <time>2021-04-03T15:07:08Z</time>
      </trkpt>
      <trkpt lat="46.13866" lon="6.37964">
        <ele>599.4</ele>
        <time>2021-04-03T15:07:09Z</time>
      </trkpt>
      <trkpt lat="46.13869" lon="6.37957">
        <ele>599.4</ele>
        <time>2021-04-03T15:07:10Z</time>
      </trkpt>
      <trkpt lat="46.13872" lon="6.3795">
        <ele>599.4</ele>
        <time>2021-04-03T15:07:11Z</time>
      </trkpt>
      <trkpt lat="46.13875" lon="6.37943">
        <ele>599.4</ele>
        <time>2021-04-03T15:07:12Z</time>
      </trkpt>
      <trkpt lat="46.13879" lon="6.37935">
        <ele>599.4</ele>
        <time>2021-04-03T15:07:13Z</time>
      </trkpt>
      <trkpt lat="46.13882" lon="6.37928">
        <ele>599.6</ele>
        <time>2021-04-03T15:07:14Z</time>
      </trkpt>
      <trkpt lat="46.13885" lon="6.37921">
        <ele>599.6</ele>
        <time>2021-04-03T15:07:15Z</time>
      </trkpt>
      <trkpt lat="46.13888" lon="6.37913">
        <ele>599.4</ele>
        <time>2021-04-03T15:07:16Z</time>
      </trkpt>
      <trkpt lat="46.1389" lon="6.37905">
        <ele>600</ele>
        <time>2021-04-03T15:07:17Z</time>
      </trkpt>
      <trkpt lat="46.13893" lon="6.37897">
        <ele>600.2</ele>
        <time>2021-04-03T15:07:18Z</time>
      </trkpt>
      <trkpt lat="46.13894" lon="6.37889">
        <ele>600.4</ele>
        <time>2021-04-03T15:07:19Z</time>
      </trkpt>
      <trkpt lat="46.13895" lon="6.37881">
        <ele>600.4</ele>
        <time>2021-04-03T15:07:20Z</time>
      </trkpt>
      <trkpt lat="46.13896" lon="6.37872">
        <ele>600.6</ele>
        <time>2021-04-03T15:07:21Z</time>
      </trkpt>
      <trkpt lat="46.13897" lon="6.37863">
        <ele>600.4</ele>
        <time>2021-04-03T15:07:22Z</time>
      </trkpt>
      <trkpt lat="46.13897" lon="6.37855">
        <ele>600.8</ele>
        <time>2021-04-03T15:07:23Z</time>
      </trkpt>
      <trkpt lat="46.13897" lon="6.37846">
        <ele>601</ele>
        <time>2021-04-03T15:07:24Z</time>
      </trkpt>
      <trkpt lat="46.13896" lon="6.37838">
        <ele>601</ele>
        <time>2021-04-03T15:07:25Z</time>
      </trkpt>
      <trkpt lat="46.13896" lon="6.3783">
        <ele>601.2</ele>
        <time>2021-04-03T15:07:26Z</time>
      </trkpt>
      <trkpt lat="46.13895" lon="6.37822">
        <ele>601.4</ele>
        <time>2021-04-03T15:07:27Z</time>
      </trkpt>
      <trkpt lat="46.13894" lon="6.37814">
        <ele>601.4</ele>
        <time>2021-04-03T15:07:28Z</time>
      </trkpt>
      <trkpt lat="46.13894" lon="6.37805">
        <ele>601.6</ele>
        <time>2021-04-03T15:07:29Z</time>
      </trkpt>
      <trkpt lat="46.13893" lon="6.37797">
        <ele>602</ele>
        <time>2021-04-03T15:07:30Z</time>
      </trkpt>
      <trkpt lat="46.13893" lon="6.37789">
        <ele>602</ele>
        <time>2021-04-03T15:07:31Z</time>
      </trkpt>
      <trkpt lat="46.13893" lon="6.37782">
        <ele>602</ele>
        <time>2021-04-03T15:07:32Z</time>
      </trkpt>
      <trkpt lat="46.13892" lon="6.37774">
        <ele>602.2</ele>
        <time>2021-04-03T15:07:33Z</time>
      </trkpt>
      <trkpt lat="46.13892" lon="6.37766">
        <ele>602.4</ele>
        <time>2021-04-03T15:07:34Z</time>
      </trkpt>
      <trkpt lat="46.13892" lon="6.37759">
        <ele>602.4</ele>
        <time>2021-04-03T15:07:35Z</time>
      </trkpt>
      <trkpt lat="46.13892" lon="6.37751">
        <ele>603</ele>
        <time>2021-04-03T15:07:36Z</time>
      </trkpt>
      <trkpt lat="46.13892" lon="6.37744">
        <ele>603.4</ele>
        <time>2021-04-03T15:07:37Z</time>
      </trkpt>
      <trkpt lat="46.13893" lon="6.37737">
        <ele>603.8</ele>
        <time>2021-04-03T15:07:38Z</time>
      </trkpt>
      <trkpt lat="46.13894" lon="6.37731">
        <ele>604</ele>
        <time>2021-04-03T15:07:39Z</time>
      </trkpt>
      <trkpt lat="46.13895" lon="6.37724">
        <ele>604.4</ele>
        <time>2021-04-03T15:07:40Z</time>
      </trkpt>
      <trkpt lat="46.13896" lon="6.37718">
        <ele>604.8</ele>
        <time>2021-04-03T15:07:41Z</time>
      </trkpt>
      <trkpt lat="46.13898" lon="6.37711">
        <ele>605</ele>
        <time>2021-04-03T15:07:42Z</time>
      </trkpt>
      <trkpt lat="46.13899" lon="6.37704">
        <ele>605.2</ele>
        <time>2021-04-03T15:07:43Z</time>
      </trkpt>
      <trkpt lat="46.139" lon="6.37697">
        <ele>605.4</ele>
        <time>2021-04-03T15:07:44Z</time>
      </trkpt>
      <trkpt lat="46.13902" lon="6.3769">
        <ele>605.8</ele>
        <time>2021-04-03T15:07:45Z</time>
      </trkpt>
      <trkpt lat="46.13904" lon="6.37683">
        <ele>606.2</ele>
        <time>2021-04-03T15:07:46Z</time>
      </trkpt>
      <trkpt lat="46.13906" lon="6.37676">
        <ele>606.6</ele>
        <time>2021-04-03T15:07:47Z</time>
      </trkpt>
      <trkpt lat="46.13908" lon="6.37669">
        <ele>606.8</ele>
        <time>2021-04-03T15:07:48Z</time>
      </trkpt>
      <trkpt lat="46.13911" lon="6.37662">
        <ele>607.2</ele>
        <time>2021-04-03T15:07:49Z</time>
      </trkpt>
      <trkpt lat="46.13914" lon="6.37655">
        <ele>607.6</ele>
        <time>2021-04-03T15:07:50Z</time>
      </trkpt>
      <trkpt lat="46.13917" lon="6.37648">
        <ele>608</ele>
        <time>2021-04-03T15:07:51Z</time>
      </trkpt>
      <trkpt lat="46.13921" lon="6.37641">
        <ele>608.2</ele>
        <time>2021-04-03T15:07:52Z</time>
      </trkpt>
      <trkpt lat="46.13925" lon="6.37634">
        <ele>608.4</ele>
        <time>2021-04-03T15:07:53Z</time>
      </trkpt>
      <trkpt lat="46.13928" lon="6.37628">
        <ele>608.6</ele>
        <time>2021-04-03T15:07:54Z</time>
      </trkpt>
      <trkpt lat="46.13932" lon="6.37622">
        <ele>608.4</ele>
        <time>2021-04-03T15:07:55Z</time>
      </trkpt>
      <trkpt lat="46.13937" lon="6.37616">
        <ele>608.6</ele>
        <time>2021-04-03T15:07:56Z</time>
      </trkpt>
      <trkpt lat="46.13941" lon="6.37611">
        <ele>608.6</ele>
        <time>2021-04-03T15:07:57Z</time>
      </trkpt>
      <trkpt lat="46.13945" lon="6.37606">
        <ele>608.6</ele>
        <time>2021-04-03T15:07:58Z</time>
      </trkpt>
      <trkpt lat="46.13949" lon="6.376">
        <ele>608.8</ele>
        <time>2021-04-03T15:07:59Z</time>
      </trkpt>
      <trkpt lat="46.13953" lon="6.37595">
        <ele>608.8</ele>
        <time>2021-04-03T15:08:00Z</time>
      </trkpt>
      <trkpt lat="46.13957" lon="6.37589">
        <ele>608.8</ele>
        <time>2021-04-03T15:08:01Z</time>
      </trkpt>
      <trkpt lat="46.13961" lon="6.37583">
        <ele>609</ele>
        <time>2021-04-03T15:08:02Z</time>
      </trkpt>
      <trkpt lat="46.13964" lon="6.37577">
        <ele>609.2</ele>
        <time>2021-04-03T15:08:03Z</time>
      </trkpt>
      <trkpt lat="46.13968" lon="6.37571">
        <ele>609.2</ele>
        <time>2021-04-03T15:08:04Z</time>
      </trkpt>
      <trkpt lat="46.13971" lon="6.37564">
        <ele>609</ele>
        <time>2021-04-03T15:08:05Z</time>
      </trkpt>
      <trkpt lat="46.13974" lon="6.37558">
        <ele>609.2</ele>
        <time>2021-04-03T15:08:06Z</time>
      </trkpt>
      <trkpt lat="46.13977" lon="6.37551">
        <ele>609.2</ele>
        <time>2021-04-03T15:08:07Z</time>
      </trkpt>
      <trkpt lat="46.1398" lon="6.37544">
        <ele>609.2</ele>
        <time>2021-04-03T15:08:08Z</time>
      </trkpt>
      <trkpt lat="46.13982" lon="6.37537">
        <ele>609.2</ele>
        <time>2021-04-03T15:08:09Z</time>
      </trkpt>
      <trkpt lat="46.13985" lon="6.3753">
        <ele>609.4</ele>
        <time>2021-04-03T15:08:10Z</time>
      </trkpt>
      <trkpt lat="46.13988" lon="6.37523">
        <ele>609.2</ele>
        <time>2021-04-03T15:08:11Z</time>
      </trkpt>
      <trkpt lat="46.13991" lon="6.37517">
        <ele>609.2</ele>
        <time>2021-04-03T15:08:12Z</time>
      </trkpt>
      <trkpt lat="46.13993" lon="6.3751">
        <ele>609.4</ele>
        <time>2021-04-03T15:08:13Z</time>
      </trkpt>
      <trkpt lat="46.13996" lon="6.37504">
        <ele>609.2</ele>
        <time>2021-04-03T15:08:14Z</time>
      </trkpt>
      <trkpt lat="46.13999" lon="6.37497">
        <ele>609.4</ele>
        <time>2021-04-03T15:08:15Z</time>
      </trkpt>
      <trkpt lat="46.14002" lon="6.37491">
        <ele>609.4</ele>
        <time>2021-04-03T15:08:16Z</time>
      </trkpt>
      <trkpt lat="46.14004" lon="6.37485">
        <ele>609.2</ele>
        <time>2021-04-03T15:08:17Z</time>
      </trkpt>
      <trkpt lat="46.14007" lon="6.37479">
        <ele>609.4</ele>
        <time>2021-04-03T15:08:18Z</time>
      </trkpt>
      <trkpt lat="46.1401" lon="6.37473">
        <ele>609.2</ele>
        <time>2021-04-03T15:08:19Z</time>
      </trkpt>
      <trkpt lat="46.14012" lon="6.37467">
        <ele>609.2</ele>
        <time>2021-04-03T15:08:20Z</time>
      </trkpt>
      <trkpt lat="46.14015" lon="6.37462">
        <ele>609.4</ele>
        <time>2021-04-03T15:08:21Z</time>
      </trkpt>
      <trkpt lat="46.14017" lon="6.37456">
        <ele>609.2</ele>
        <time>2021-04-03T15:08:22Z</time>
      </trkpt>
      <trkpt lat="46.14019" lon="6.37451">
        <ele>609.2</ele>
        <time>2021-04-03T15:08:23Z</time>
      </trkpt>
      <trkpt lat="46.14022" lon="6.37445">
        <ele>609.2</ele>
        <time>2021-04-03T15:08:24Z</time>
      </trkpt>
      <trkpt lat="46.14025" lon="6.37439">
        <ele>609.2</ele>
        <time>2021-04-03T15:08:25Z</time>
      </trkpt>
      <trkpt lat="46.14028" lon="6.37432">
        <ele>609.2</ele>
        <time>2021-04-03T15:08:26Z</time>
      </trkpt>
      <trkpt lat="46.14031" lon="6.37425">
        <ele>609.4</ele>
        <time>2021-04-03T15:08:27Z</time>
      </trkpt>
      <trkpt lat="46.14034" lon="6.37418">
        <ele>609.4</ele>
        <time>2021-04-03T15:08:28Z</time>
      </trkpt>
      <trkpt lat="46.14038" lon="6.37411">
        <ele>609.6</ele>
        <time>2021-04-03T15:08:29Z</time>
      </trkpt>
      <trkpt lat="46.14041" lon="6.37404">
        <ele>609.6</ele>
        <time>2021-04-03T15:08:30Z</time>
      </trkpt>
      <trkpt lat="46.14044" lon="6.37398">
        <ele>609.6</ele>
        <time>2021-04-03T15:08:31Z</time>
      </trkpt>
      <trkpt lat="46.14048" lon="6.37391">
        <ele>610</ele>
        <time>2021-04-03T15:08:32Z</time>
      </trkpt>
      <trkpt lat="46.14051" lon="6.37383">
        <ele>610</ele>
        <time>2021-04-03T15:08:33Z</time>
      </trkpt>
      <trkpt lat="46.14054" lon="6.37376">
        <ele>610.2</ele>
        <time>2021-04-03T15:08:34Z</time>
      </trkpt>
      <trkpt lat="46.14057" lon="6.37369">
        <ele>610.4</ele>
        <time>2021-04-03T15:08:35Z</time>
      </trkpt>
      <trkpt lat="46.14061" lon="6.37362">
        <ele>610.4</ele>
        <time>2021-04-03T15:08:36Z</time>
      </trkpt>
      <trkpt lat="46.14064" lon="6.37355">
        <ele>610.6</ele>
        <time>2021-04-03T15:08:37Z</time>
      </trkpt>
      <trkpt lat="46.14067" lon="6.37349">
        <ele>610.6</ele>
        <time>2021-04-03T15:08:38Z</time>
      </trkpt>
      <trkpt lat="46.1407" lon="6.37342">
        <ele>611</ele>
        <time>2021-04-03T15:08:39Z</time>
      </trkpt>
      <trkpt lat="46.14073" lon="6.37336">
        <ele>611.6</ele>
        <time>2021-04-03T15:08:40Z</time>
      </trkpt>
      <trkpt lat="46.14076" lon="6.37329">
        <ele>612.2</ele>
        <time>2021-04-03T15:08:41Z</time>
      </trkpt>
      <trkpt lat="46.14079" lon="6.37323">
        <ele>612.6</ele>
        <time>2021-04-03T15:08:42Z</time>
      </trkpt>
      <trkpt lat="46.14082" lon="6.37317">
        <ele>612.8</ele>
        <time>2021-04-03T15:08:43Z</time>
      </trkpt>
      <trkpt lat="46.14085" lon="6.37312">
        <ele>612.8</ele>
        <time>2021-04-03T15:08:44Z</time>
      </trkpt>
      <trkpt lat="46.14088" lon="6.37307">
        <ele>612.8</ele>
        <time>2021-04-03T15:08:45Z</time>
      </trkpt>
      <trkpt lat="46.14091" lon="6.37302">
        <ele>612.8</ele>
        <time>2021-04-03T15:08:46Z</time>
      </trkpt>
      <trkpt lat="46.14094" lon="6.37298">
        <ele>613</ele>
        <time>2021-04-03T15:08:47Z</time>
      </trkpt>
      <trkpt lat="46.14097" lon="6.37293">
        <ele>613.2</ele>
        <time>2021-04-03T15:08:48Z</time>
      </trkpt>
      <trkpt lat="46.141" lon="6.37289">
        <ele>613.2</ele>
        <time>2021-04-03T15:08:49Z</time>
      </trkpt>
      <trkpt lat="46.14103" lon="6.37284">
        <ele>613.2</ele>
        <time>2021-04-03T15:08:50Z</time>
      </trkpt>
      <trkpt lat="46.14105" lon="6.3728">
        <ele>613.4</ele>
        <time>2021-04-03T15:08:51Z</time>
      </trkpt>
      <trkpt lat="46.14109" lon="6.37275">
        <ele>613.6</ele>
        <time>2021-04-03T15:08:52Z</time>
      </trkpt>
      <trkpt lat="46.14112" lon="6.37271">
        <ele>613.8</ele>
        <time>2021-04-03T15:08:53Z</time>
      </trkpt>
      <trkpt lat="46.14116" lon="6.37266">
        <ele>614</ele>
        <time>2021-04-03T15:08:54Z</time>
      </trkpt>
      <trkpt lat="46.14119" lon="6.37262">
        <ele>614.2</ele>
        <time>2021-04-03T15:08:55Z</time>
      </trkpt>
      <trkpt lat="46.14123" lon="6.37257">
        <ele>614.4</ele>
        <time>2021-04-03T15:08:56Z</time>
      </trkpt>
      <trkpt lat="46.14126" lon="6.37252">
        <ele>614.6</ele>
        <time>2021-04-03T15:08:57Z</time>
      </trkpt>
      <trkpt lat="46.1413" lon="6.37248">
        <ele>615</ele>
        <time>2021-04-03T15:08:58Z</time>
      </trkpt>
      <trkpt lat="46.14134" lon="6.37243">
        <ele>615.2</ele>
        <time>2021-04-03T15:08:59Z</time>
      </trkpt>
      <trkpt lat="46.14138" lon="6.37239">
        <ele>615.8</ele>
        <time>2021-04-03T15:09:00Z</time>
      </trkpt>
      <trkpt lat="46.14142" lon="6.37235">
        <ele>616.2</ele>
        <time>2021-04-03T15:09:01Z</time>
      </trkpt>
      <trkpt lat="46.14146" lon="6.3723">
        <ele>616.4</ele>
        <time>2021-04-03T15:09:02Z</time>
      </trkpt>
      <trkpt lat="46.14151" lon="6.37226">
        <ele>616.8</ele>
        <time>2021-04-03T15:09:03Z</time>
      </trkpt>
      <trkpt lat="46.14155" lon="6.37222">
        <ele>617</ele>
        <time>2021-04-03T15:09:04Z</time>
      </trkpt>
      <trkpt lat="46.14159" lon="6.37217">
        <ele>617</ele>
        <time>2021-04-03T15:09:05Z</time>
      </trkpt>
      <trkpt lat="46.14163" lon="6.37213">
        <ele>617</ele>
        <time>2021-04-03T15:09:06Z</time>
      </trkpt>
      <trkpt lat="46.14167" lon="6.37209">
        <ele>617</ele>
        <time>2021-04-03T15:09:07Z</time>
      </trkpt>
      <trkpt lat="46.14172" lon="6.37205">
        <ele>617.2</ele>
        <time>2021-04-03T15:09:08Z</time>
      </trkpt>
      <trkpt lat="46.14176" lon="6.37201">
        <ele>617.4</ele>
        <time>2021-04-03T15:09:09Z</time>
      </trkpt>
      <trkpt lat="46.1418" lon="6.37197">
        <ele>617.2</ele>
        <time>2021-04-03T15:09:10Z</time>
      </trkpt>
      <trkpt lat="46.14184" lon="6.37193">
        <ele>617.6</ele>
        <time>2021-04-03T15:09:11Z</time>
      </trkpt>
      <trkpt lat="46.14189" lon="6.37188">
        <ele>618</ele>
        <time>2021-04-03T15:09:12Z</time>
      </trkpt>
      <trkpt lat="46.14193" lon="6.37184">
        <ele>618</ele>
        <time>2021-04-03T15:09:13Z</time>
      </trkpt>
      <trkpt lat="46.14197" lon="6.3718">
        <ele>618.2</ele>
        <time>2021-04-03T15:09:14Z</time>
      </trkpt>
      <trkpt lat="46.14201" lon="6.37176">
        <ele>618.4</ele>
        <time>2021-04-03T15:09:15Z</time>
      </trkpt>
      <trkpt lat="46.14205" lon="6.37171">
        <ele>618.4</ele>
        <time>2021-04-03T15:09:16Z</time>
      </trkpt>
      <trkpt lat="46.14209" lon="6.37167">
        <ele>618.8</ele>
        <time>2021-04-03T15:09:17Z</time>
      </trkpt>
      <trkpt lat="46.14213" lon="6.37163">
        <ele>619</ele>
        <time>2021-04-03T15:09:18Z</time>
      </trkpt>
      <trkpt lat="46.14217" lon="6.37159">
        <ele>619.2</ele>
        <time>2021-04-03T15:09:19Z</time>
      </trkpt>
      <trkpt lat="46.14221" lon="6.37155">
        <ele>619.4</ele>
        <time>2021-04-03T15:09:20Z</time>
      </trkpt>
      <trkpt lat="46.14225" lon="6.37151">
        <ele>619.6</ele>
        <time>2021-04-03T15:09:21Z</time>
      </trkpt>
      <trkpt lat="46.14229" lon="6.37147">
        <ele>619.6</ele>
        <time>2021-04-03T15:09:22Z</time>
      </trkpt>
      <trkpt lat="46.14233" lon="6.37143">
        <ele>619.8</ele>
        <time>2021-04-03T15:09:23Z</time>
      </trkpt>
      <trkpt lat="46.14237" lon="6.37139">
        <ele>619.6</ele>
        <time>2021-04-03T15:09:24Z</time>
      </trkpt>
      <trkpt lat="46.14241" lon="6.37134">
        <ele>619.6</ele>
        <time>2021-04-03T15:09:25Z</time>
      </trkpt>
      <trkpt lat="46.14245" lon="6.3713">
        <ele>619.6</ele>
        <time>2021-04-03T15:09:26Z</time>
      </trkpt>
      <trkpt lat="46.14249" lon="6.37127">
        <ele>619.6</ele>
        <time>2021-04-03T15:09:27Z</time>
      </trkpt>
      <trkpt lat="46.14253" lon="6.37123">
        <ele>619.8</ele>
        <time>2021-04-03T15:09:28Z</time>
      </trkpt>
      <trkpt lat="46.14257" lon="6.37118">
        <ele>619.6</ele>
        <time>2021-04-03T15:09:29Z</time>
      </trkpt>
      <trkpt lat="46.14261" lon="6.37114">
        <ele>619.4</ele>
        <time>2021-04-03T15:09:30Z</time>
      </trkpt>
      <trkpt lat="46.14266" lon="6.3711">
        <ele>619.6</ele>
        <time>2021-04-03T15:09:31Z</time>
      </trkpt>
      <trkpt lat="46.1427" lon="6.37106">
        <ele>619.6</ele>
        <time>2021-04-03T15:09:32Z</time>
      </trkpt>
      <trkpt lat="46.14274" lon="6.37101">
        <ele>619.4</ele>
        <time>2021-04-03T15:09:33Z</time>
      </trkpt>
      <trkpt lat="46.14279" lon="6.37097">
        <ele>619.4</ele>
        <time>2021-04-03T15:09:34Z</time>
      </trkpt>
      <trkpt lat="46.14283" lon="6.37093">
        <ele>619.2</ele>
        <time>2021-04-03T15:09:35Z</time>
      </trkpt>
      <trkpt lat="46.14288" lon="6.37088">
        <ele>619.2</ele>
        <time>2021-04-03T15:09:36Z</time>
      </trkpt>
      <trkpt lat="46.14293" lon="6.37084">
        <ele>619</ele>
        <time>2021-04-03T15:09:37Z</time>
      </trkpt>
      <trkpt lat="46.14297" lon="6.37079">
        <ele>618.8</ele>
        <time>2021-04-03T15:09:38Z</time>
      </trkpt>
      <trkpt lat="46.14302" lon="6.37075">
        <ele>618.6</ele>
        <time>2021-04-03T15:09:39Z</time>
      </trkpt>
      <trkpt lat="46.14307" lon="6.3707">
        <ele>618.6</ele>
        <time>2021-04-03T15:09:40Z</time>
      </trkpt>
      <trkpt lat="46.14312" lon="6.37066">
        <ele>618.4</ele>
        <time>2021-04-03T15:09:41Z</time>
      </trkpt>
      <trkpt lat="46.14317" lon="6.37061">
        <ele>618.4</ele>
        <time>2021-04-03T15:09:42Z</time>
      </trkpt>
      <trkpt lat="46.14322" lon="6.37056">
        <ele>618.4</ele>
        <time>2021-04-03T15:09:43Z</time>
      </trkpt>
      <trkpt lat="46.14327" lon="6.37052">
        <ele>618.4</ele>
        <time>2021-04-03T15:09:44Z</time>
      </trkpt>
      <trkpt lat="46.14332" lon="6.37047">
        <ele>618.4</ele>
        <time>2021-04-03T15:09:45Z</time>
      </trkpt>
      <trkpt lat="46.14336" lon="6.37042">
        <ele>618.2</ele>
        <time>2021-04-03T15:09:46Z</time>
      </trkpt>
      <trkpt lat="46.14341" lon="6.37038">
        <ele>618</ele>
        <time>2021-04-03T15:09:47Z</time>
      </trkpt>
      <trkpt lat="46.14345" lon="6.37033">
        <ele>618</ele>
        <time>2021-04-03T15:09:48Z</time>
      </trkpt>
      <trkpt lat="46.1435" lon="6.37029">
        <ele>618</ele>
        <time>2021-04-03T15:09:49Z</time>
      </trkpt>
      <trkpt lat="46.14354" lon="6.37024">
        <ele>618</ele>
        <time>2021-04-03T15:09:50Z</time>
      </trkpt>
      <trkpt lat="46.14359" lon="6.3702">
        <ele>618.2</ele>
        <time>2021-04-03T15:09:51Z</time>
      </trkpt>
      <trkpt lat="46.14363" lon="6.37016">
        <ele>618</ele>
        <time>2021-04-03T15:09:52Z</time>
      </trkpt>
      <trkpt lat="46.14367" lon="6.37011">
        <ele>618.2</ele>
        <time>2021-04-03T15:09:53Z</time>
      </trkpt>
      <trkpt lat="46.14372" lon="6.37006">
        <ele>618.2</ele>
        <time>2021-04-03T15:09:54Z</time>
      </trkpt>
      <trkpt lat="46.14376" lon="6.37002">
        <ele>618.2</ele>
        <time>2021-04-03T15:09:55Z</time>
      </trkpt>
      <trkpt lat="46.14381" lon="6.36997">
        <ele>618.4</ele>
        <time>2021-04-03T15:09:56Z</time>
      </trkpt>
      <trkpt lat="46.14386" lon="6.36993">
        <ele>618.2</ele>
        <time>2021-04-03T15:09:57Z</time>
      </trkpt>
      <trkpt lat="46.1439" lon="6.36988">
        <ele>618.4</ele>
        <time>2021-04-03T15:09:58Z</time>
      </trkpt>
      <trkpt lat="46.14395" lon="6.36983">
        <ele>618.4</ele>
        <time>2021-04-03T15:09:59Z</time>
      </trkpt>
      <trkpt lat="46.144" lon="6.36978">
        <ele>618.8</ele>
        <time>2021-04-03T15:10:00Z</time>
      </trkpt>
      <trkpt lat="46.14405" lon="6.36974">
        <ele>619.2</ele>
        <time>2021-04-03T15:10:01Z</time>
      </trkpt>
      <trkpt lat="46.14409" lon="6.36969">
        <ele>619.8</ele>
        <time>2021-04-03T15:10:02Z</time>
      </trkpt>
      <trkpt lat="46.14414" lon="6.36964">
        <ele>620</ele>
        <time>2021-04-03T15:10:03Z</time>
      </trkpt>
      <trkpt lat="46.14419" lon="6.36959">
        <ele>620.2</ele>
        <time>2021-04-03T15:10:04Z</time>
      </trkpt>
      <trkpt lat="46.14424" lon="6.36954">
        <ele>620.4</ele>
        <time>2021-04-03T15:10:05Z</time>
      </trkpt>
      <trkpt lat="46.14429" lon="6.36949">
        <ele>620.6</ele>
        <time>2021-04-03T15:10:06Z</time>
      </trkpt>
      <trkpt lat="46.14434" lon="6.36944">
        <ele>620.6</ele>
        <time>2021-04-03T15:10:07Z</time>
      </trkpt>
      <trkpt lat="46.14439" lon="6.3694">
        <ele>620.6</ele>
        <time>2021-04-03T15:10:08Z</time>
      </trkpt>
      <trkpt lat="46.14443" lon="6.36935">
        <ele>620.6</ele>
        <time>2021-04-03T15:10:09Z</time>
      </trkpt>
      <trkpt lat="46.14448" lon="6.3693">
        <ele>620.8</ele>
        <time>2021-04-03T15:10:10Z</time>
      </trkpt>
      <trkpt lat="46.14453" lon="6.36925">
        <ele>620.8</ele>
        <time>2021-04-03T15:10:11Z</time>
      </trkpt>
      <trkpt lat="46.14458" lon="6.36921">
        <ele>620.6</ele>
        <time>2021-04-03T15:10:12Z</time>
      </trkpt>
      <trkpt lat="46.14462" lon="6.36916">
        <ele>620.8</ele>
        <time>2021-04-03T15:10:13Z</time>
      </trkpt>
      <trkpt lat="46.14467" lon="6.36911">
        <ele>620.8</ele>
        <time>2021-04-03T15:10:14Z</time>
      </trkpt>
      <trkpt lat="46.14472" lon="6.36907">
        <ele>620.6</ele>
        <time>2021-04-03T15:10:15Z</time>
      </trkpt>
      <trkpt lat="46.14477" lon="6.36902">
        <ele>620.8</ele>
        <time>2021-04-03T15:10:16Z</time>
      </trkpt>
      <trkpt lat="46.14481" lon="6.36897">
        <ele>620.8</ele>
        <time>2021-04-03T15:10:17Z</time>
      </trkpt>
      <trkpt lat="46.14486" lon="6.36893">
        <ele>620.6</ele>
        <time>2021-04-03T15:10:18Z</time>
      </trkpt>
      <trkpt lat="46.14491" lon="6.36888">
        <ele>620.8</ele>
        <time>2021-04-03T15:10:19Z</time>
      </trkpt>
      <trkpt lat="46.14496" lon="6.36883">
        <ele>620.8</ele>
        <time>2021-04-03T15:10:20Z</time>
      </trkpt>
      <trkpt lat="46.14501" lon="6.36878">
        <ele>621</ele>
        <time>2021-04-03T15:10:21Z</time>
      </trkpt>
      <trkpt lat="46.14506" lon="6.36873">
        <ele>621</ele>
        <time>2021-04-03T15:10:22Z</time>
      </trkpt>
      <trkpt lat="46.14511" lon="6.36867">
        <ele>621</ele>
        <time>2021-04-03T15:10:23Z</time>
      </trkpt>
      <trkpt lat="46.14517" lon="6.36862">
        <ele>620.8</ele>
        <time>2021-04-03T15:10:24Z</time>
      </trkpt>
      <trkpt lat="46.14522" lon="6.36856">
        <ele>621</ele>
        <time>2021-04-03T15:10:25Z</time>
      </trkpt>
      <trkpt lat="46.14528" lon="6.36851">
        <ele>621</ele>
        <time>2021-04-03T15:10:26Z</time>
      </trkpt>
      <trkpt lat="46.14534" lon="6.36845">
        <ele>621</ele>
        <time>2021-04-03T15:10:27Z</time>
      </trkpt>
      <trkpt lat="46.1454" lon="6.36839">
        <ele>621</ele>
        <time>2021-04-03T15:10:28Z</time>
      </trkpt>
      <trkpt lat="46.14546" lon="6.36833">
        <ele>621</ele>
        <time>2021-04-03T15:10:29Z</time>
      </trkpt>
      <trkpt lat="46.14552" lon="6.36826">
        <ele>621</ele>
        <time>2021-04-03T15:10:30Z</time>
      </trkpt>
      <trkpt lat="46.14558" lon="6.3682">
        <ele>621</ele>
        <time>2021-04-03T15:10:31Z</time>
      </trkpt>
      <trkpt lat="46.14565" lon="6.36814">
        <ele>621</ele>
        <time>2021-04-03T15:10:32Z</time>
      </trkpt>
      <trkpt lat="46.14571" lon="6.36808">
        <ele>620.8</ele>
        <time>2021-04-03T15:10:33Z</time>
      </trkpt>
      <trkpt lat="46.14577" lon="6.36802">
        <ele>620.8</ele>
        <time>2021-04-03T15:10:34Z</time>
      </trkpt>
      <trkpt lat="46.14583" lon="6.36796">
        <ele>620.6</ele>
        <time>2021-04-03T15:10:35Z</time>
      </trkpt>
      <trkpt lat="46.14588" lon="6.3679">
        <ele>620.6</ele>
        <time>2021-04-03T15:10:36Z</time>
      </trkpt>
      <trkpt lat="46.14594" lon="6.36785">
        <ele>620.4</ele>
        <time>2021-04-03T15:10:37Z</time>
      </trkpt>
      <trkpt lat="46.14599" lon="6.36779">
        <ele>620.4</ele>
        <time>2021-04-03T15:10:38Z</time>
      </trkpt>
      <trkpt lat="46.14605" lon="6.36774">
        <ele>620.4</ele>
        <time>2021-04-03T15:10:39Z</time>
      </trkpt>
      <trkpt lat="46.1461" lon="6.36769">
        <ele>620.4</ele>
        <time>2021-04-03T15:10:40Z</time>
      </trkpt>
      <trkpt lat="46.14615" lon="6.36764">
        <ele>620.2</ele>
        <time>2021-04-03T15:10:41Z</time>
      </trkpt>
      <trkpt lat="46.1462" lon="6.36759">
        <ele>620</ele>
        <time>2021-04-03T15:10:42Z</time>
      </trkpt>
      <trkpt lat="46.14625" lon="6.36754">
        <ele>620</ele>
        <time>2021-04-03T15:10:43Z</time>
      </trkpt>
      <trkpt lat="46.1463" lon="6.36749">
        <ele>620</ele>
        <time>2021-04-03T15:10:44Z</time>
      </trkpt>
      <trkpt lat="46.14635" lon="6.36745">
        <ele>619.6</ele>
        <time>2021-04-03T15:10:45Z</time>
      </trkpt>
      <trkpt lat="46.1464" lon="6.3674">
        <ele>619.6</ele>
        <time>2021-04-03T15:10:46Z</time>
      </trkpt>
      <trkpt lat="46.14645" lon="6.36735">
        <ele>619.6</ele>
        <time>2021-04-03T15:10:47Z</time>
      </trkpt>
      <trkpt lat="46.14649" lon="6.3673">
        <ele>619.4</ele>
        <time>2021-04-03T15:10:48Z</time>
      </trkpt>
      <trkpt lat="46.14654" lon="6.36726">
        <ele>619.2</ele>
        <time>2021-04-03T15:10:49Z</time>
      </trkpt>
      <trkpt lat="46.14659" lon="6.36721">
        <ele>619.2</ele>
        <time>2021-04-03T15:10:50Z</time>
      </trkpt>
      <trkpt lat="46.14664" lon="6.36716">
        <ele>619.2</ele>
        <time>2021-04-03T15:10:51Z</time>
      </trkpt>
      <trkpt lat="46.14668" lon="6.36711">
        <ele>619.2</ele>
        <time>2021-04-03T15:10:52Z</time>
      </trkpt>
      <trkpt lat="46.14673" lon="6.36706">
        <ele>619.2</ele>
        <time>2021-04-03T15:10:53Z</time>
      </trkpt>
      <trkpt lat="46.14678" lon="6.36702">
        <ele>619</ele>
        <time>2021-04-03T15:10:54Z</time>
      </trkpt>
      <trkpt lat="46.14683" lon="6.36697">
        <ele>619</ele>
        <time>2021-04-03T15:10:55Z</time>
      </trkpt>
      <trkpt lat="46.14687" lon="6.36692">
        <ele>618.8</ele>
        <time>2021-04-03T15:10:56Z</time>
      </trkpt>
      <trkpt lat="46.14692" lon="6.36688">
        <ele>619</ele>
        <time>2021-04-03T15:10:57Z</time>
      </trkpt>
      <trkpt lat="46.14696" lon="6.36683">
        <ele>619</ele>
        <time>2021-04-03T15:10:58Z</time>
      </trkpt>
      <trkpt lat="46.14701" lon="6.36678">
        <ele>619.2</ele>
        <time>2021-04-03T15:10:59Z</time>
      </trkpt>
      <trkpt lat="46.14706" lon="6.36673">
        <ele>619</ele>
        <time>2021-04-03T15:11:00Z</time>
      </trkpt>
      <trkpt lat="46.14711" lon="6.36669">
        <ele>619</ele>
        <time>2021-04-03T15:11:01Z</time>
      </trkpt>
      <trkpt lat="46.14715" lon="6.36664">
        <ele>619</ele>
        <time>2021-04-03T15:11:02Z</time>
      </trkpt>
      <trkpt lat="46.1472" lon="6.36659">
        <ele>619</ele>
        <time>2021-04-03T15:11:03Z</time>
      </trkpt>
      <trkpt lat="46.14725" lon="6.36654">
        <ele>618.8</ele>
        <time>2021-04-03T15:11:04Z</time>
      </trkpt>
      <trkpt lat="46.1473" lon="6.36649">
        <ele>618.6</ele>
        <time>2021-04-03T15:11:05Z</time>
      </trkpt>
      <trkpt lat="46.14735" lon="6.36644">
        <ele>618.8</ele>
        <time>2021-04-03T15:11:06Z</time>
      </trkpt>
      <trkpt lat="46.1474" lon="6.36639">
        <ele>618.6</ele>
        <time>2021-04-03T15:11:07Z</time>
      </trkpt>
      <trkpt lat="46.14745" lon="6.36634">
        <ele>618.6</ele>
        <time>2021-04-03T15:11:08Z</time>
      </trkpt>
      <trkpt lat="46.1475" lon="6.36629">
        <ele>618.6</ele>
        <time>2021-04-03T15:11:09Z</time>
      </trkpt>
      <trkpt lat="46.14756" lon="6.36624">
        <ele>618.4</ele>
        <time>2021-04-03T15:11:10Z</time>
      </trkpt>
      <trkpt lat="46.14761" lon="6.36619">
        <ele>618.4</ele>
        <time>2021-04-03T15:11:11Z</time>
      </trkpt>
      <trkpt lat="46.14765" lon="6.36613">
        <ele>618</ele>
        <time>2021-04-03T15:11:12Z</time>
      </trkpt>
      <trkpt lat="46.1477" lon="6.36609">
        <ele>617.8</ele>
        <time>2021-04-03T15:11:13Z</time>
      </trkpt>
      <trkpt lat="46.14775" lon="6.36604">
        <ele>617</ele>
        <time>2021-04-03T15:11:14Z</time>
      </trkpt>
      <trkpt lat="46.14781" lon="6.36599">
        <ele>616.6</ele>
        <time>2021-04-03T15:11:15Z</time>
      </trkpt>
      <trkpt lat="46.14786" lon="6.36594">
        <ele>616.4</ele>
        <time>2021-04-03T15:11:16Z</time>
      </trkpt>
      <trkpt lat="46.14792" lon="6.36588">
        <ele>616.2</ele>
        <time>2021-04-03T15:11:17Z</time>
      </trkpt>
      <trkpt lat="46.14797" lon="6.36583">
        <ele>616.4</ele>
        <time>2021-04-03T15:11:18Z</time>
      </trkpt>
      <trkpt lat="46.14803" lon="6.36577">
        <ele>616.4</ele>
        <time>2021-04-03T15:11:19Z</time>
      </trkpt>
      <trkpt lat="46.14808" lon="6.36572">
        <ele>616.8</ele>
        <time>2021-04-03T15:11:20Z</time>
      </trkpt>
      <trkpt lat="46.14814" lon="6.36566">
        <ele>617</ele>
        <time>2021-04-03T15:11:21Z</time>
      </trkpt>
      <trkpt lat="46.14819" lon="6.36561">
        <ele>617.2</ele>
        <time>2021-04-03T15:11:22Z</time>
      </trkpt>
      <trkpt lat="46.14825" lon="6.36555">
        <ele>617.2</ele>
        <time>2021-04-03T15:11:23Z</time>
      </trkpt>
      <trkpt lat="46.1483" lon="6.36549">
        <ele>617.2</ele>
        <time>2021-04-03T15:11:24Z</time>
      </trkpt>
      <trkpt lat="46.14836" lon="6.36544">
        <ele>617.4</ele>
        <time>2021-04-03T15:11:25Z</time>
      </trkpt>
      <trkpt lat="46.14842" lon="6.36538">
        <ele>617.8</ele>
        <time>2021-04-03T15:11:26Z</time>
      </trkpt>
      <trkpt lat="46.14847" lon="6.36532">
        <ele>618</ele>
        <time>2021-04-03T15:11:27Z</time>
      </trkpt>
      <trkpt lat="46.14853" lon="6.36527">
        <ele>618</ele>
        <time>2021-04-03T15:11:28Z</time>
      </trkpt>
      <trkpt lat="46.14859" lon="6.36521">
        <ele>618.2</ele>
        <time>2021-04-03T15:11:29Z</time>
      </trkpt>
      <trkpt lat="46.14865" lon="6.36515">
        <ele>618.4</ele>
        <time>2021-04-03T15:11:30Z</time>
      </trkpt>
      <trkpt lat="46.1487" lon="6.3651">
        <ele>618.8</ele>
        <time>2021-04-03T15:11:31Z</time>
      </trkpt>
      <trkpt lat="46.14876" lon="6.36504">
        <ele>619</ele>
        <time>2021-04-03T15:11:32Z</time>
      </trkpt>
      <trkpt lat="46.14882" lon="6.36498">
        <ele>619</ele>
        <time>2021-04-03T15:11:33Z</time>
      </trkpt>
      <trkpt lat="46.14887" lon="6.36493">
        <ele>619.2</ele>
        <time>2021-04-03T15:11:34Z</time>
      </trkpt>
      <trkpt lat="46.14893" lon="6.36487">
        <ele>619.2</ele>
        <time>2021-04-03T15:11:35Z</time>
      </trkpt>
      <trkpt lat="46.14899" lon="6.36481">
        <ele>619</ele>
        <time>2021-04-03T15:11:36Z</time>
      </trkpt>
      <trkpt lat="46.14904" lon="6.36476">
        <ele>619.2</ele>
        <time>2021-04-03T15:11:37Z</time>
      </trkpt>
      <trkpt lat="46.1491" lon="6.3647">
        <ele>619.2</ele>
        <time>2021-04-03T15:11:38Z</time>
      </trkpt>
      <trkpt lat="46.14916" lon="6.36465">
        <ele>619.2</ele>
        <time>2021-04-03T15:11:39Z</time>
      </trkpt>
      <trkpt lat="46.14921" lon="6.36459">
        <ele>619.2</ele>
        <time>2021-04-03T15:11:40Z</time>
      </trkpt>
      <trkpt lat="46.14927" lon="6.36453">
        <ele>619.2</ele>
        <time>2021-04-03T15:11:41Z</time>
      </trkpt>
      <trkpt lat="46.14932" lon="6.36447">
        <ele>619.2</ele>
        <time>2021-04-03T15:11:42Z</time>
      </trkpt>
      <trkpt lat="46.14938" lon="6.36441">
        <ele>619.2</ele>
        <time>2021-04-03T15:11:43Z</time>
      </trkpt>
      <trkpt lat="46.14943" lon="6.36435">
        <ele>619.2</ele>
        <time>2021-04-03T15:11:44Z</time>
      </trkpt>
      <trkpt lat="46.14948" lon="6.36429">
        <ele>619.2</ele>
        <time>2021-04-03T15:11:45Z</time>
      </trkpt>
      <trkpt lat="46.14954" lon="6.36423">
        <ele>619.2</ele>
        <time>2021-04-03T15:11:46Z</time>
      </trkpt>
      <trkpt lat="46.14959" lon="6.36416">
        <ele>619</ele>
        <time>2021-04-03T15:11:47Z</time>
      </trkpt>
      <trkpt lat="46.14964" lon="6.36409">
        <ele>618.8</ele>
        <time>2021-04-03T15:11:48Z</time>
      </trkpt>
      <trkpt lat="46.14969" lon="6.36402">
        <ele>618.8</ele>
        <time>2021-04-03T15:11:49Z</time>
      </trkpt>
      <trkpt lat="46.14974" lon="6.36395">
        <ele>618.8</ele>
        <time>2021-04-03T15:11:50Z</time>
      </trkpt>
      <trkpt lat="46.14979" lon="6.36387">
        <ele>618.8</ele>
        <time>2021-04-03T15:11:51Z</time>
      </trkpt>
      <trkpt lat="46.14984" lon="6.36379">
        <ele>618.6</ele>
        <time>2021-04-03T15:11:52Z</time>
      </trkpt>
      <trkpt lat="46.14989" lon="6.36371">
        <ele>618.6</ele>
        <time>2021-04-03T15:11:53Z</time>
      </trkpt>
      <trkpt lat="46.14994" lon="6.36363">
        <ele>618.2</ele>
        <time>2021-04-03T15:11:54Z</time>
      </trkpt>
      <trkpt lat="46.14999" lon="6.36356">
        <ele>618</ele>
        <time>2021-04-03T15:11:55Z</time>
      </trkpt>
      <trkpt lat="46.15004" lon="6.36348">
        <ele>617.8</ele>
        <time>2021-04-03T15:11:56Z</time>
      </trkpt>
      <trkpt lat="46.15009" lon="6.3634">
        <ele>617.4</ele>
        <time>2021-04-03T15:11:57Z</time>
      </trkpt>
      <trkpt lat="46.15014" lon="6.36332">
        <ele>617.4</ele>
        <time>2021-04-03T15:11:58Z</time>
      </trkpt>
      <trkpt lat="46.1502" lon="6.36323">
        <ele>616.8</ele>
        <time>2021-04-03T15:11:59Z</time>
      </trkpt>
      <trkpt lat="46.15025" lon="6.36315">
        <ele>616.6</ele>
        <time>2021-04-03T15:12:00Z</time>
      </trkpt>
      <trkpt lat="46.1503" lon="6.36307">
        <ele>616.4</ele>
        <time>2021-04-03T15:12:01Z</time>
      </trkpt>
      <trkpt lat="46.15035" lon="6.36298">
        <ele>616</ele>
        <time>2021-04-03T15:12:02Z</time>
      </trkpt>
      <trkpt lat="46.1504" lon="6.3629">
        <ele>615.6</ele>
        <time>2021-04-03T15:12:03Z</time>
      </trkpt>
      <trkpt lat="46.15045" lon="6.36281">
        <ele>615.2</ele>
        <time>2021-04-03T15:12:04Z</time>
      </trkpt>
      <trkpt lat="46.1505" lon="6.36272">
        <ele>614.8</ele>
        <time>2021-04-03T15:12:05Z</time>
      </trkpt>
      <trkpt lat="46.15056" lon="6.36263">
        <ele>614.8</ele>
        <time>2021-04-03T15:12:06Z</time>
      </trkpt>
      <trkpt lat="46.15061" lon="6.36253">
        <ele>614.6</ele>
        <time>2021-04-03T15:12:07Z</time>
      </trkpt>
      <trkpt lat="46.15066" lon="6.36244">
        <ele>614.4</ele>
        <time>2021-04-03T15:12:08Z</time>
      </trkpt>
      <trkpt lat="46.15072" lon="6.36235">
        <ele>614.6</ele>
        <time>2021-04-03T15:12:09Z</time>
      </trkpt>
      <trkpt lat="46.15077" lon="6.36225">
        <ele>614.4</ele>
        <time>2021-04-03T15:12:10Z</time>
      </trkpt>
      <trkpt lat="46.15082" lon="6.36216">
        <ele>614.2</ele>
        <time>2021-04-03T15:12:11Z</time>
      </trkpt>
      <trkpt lat="46.15087" lon="6.36206">
        <ele>614.2</ele>
        <time>2021-04-03T15:12:12Z</time>
      </trkpt>
      <trkpt lat="46.15093" lon="6.36196">
        <ele>614.2</ele>
        <time>2021-04-03T15:12:13Z</time>
      </trkpt>
      <trkpt lat="46.15098" lon="6.36186">
        <ele>614.2</ele>
        <time>2021-04-03T15:12:14Z</time>
      </trkpt>
      <trkpt lat="46.15103" lon="6.36176">
        <ele>613.8</ele>
        <time>2021-04-03T15:12:15Z</time>
      </trkpt>
      <trkpt lat="46.15108" lon="6.36166">
        <ele>613.6</ele>
        <time>2021-04-03T15:12:16Z</time>
      </trkpt>
      <trkpt lat="46.15114" lon="6.36156">
        <ele>613.4</ele>
        <time>2021-04-03T15:12:17Z</time>
      </trkpt>
      <trkpt lat="46.15119" lon="6.36146">
        <ele>613.4</ele>
        <time>2021-04-03T15:12:18Z</time>
      </trkpt>
      <trkpt lat="46.15124" lon="6.36136">
        <ele>613</ele>
        <time>2021-04-03T15:12:19Z</time>
      </trkpt>
      <trkpt lat="46.15129" lon="6.36126">
        <ele>612.6</ele>
        <time>2021-04-03T15:12:20Z</time>
      </trkpt>
      <trkpt lat="46.15134" lon="6.36115">
        <ele>612</ele>
        <time>2021-04-03T15:12:21Z</time>
      </trkpt>
      <trkpt lat="46.15139" lon="6.36104">
        <ele>611.6</ele>
        <time>2021-04-03T15:12:22Z</time>
      </trkpt>
      <trkpt lat="46.15143" lon="6.36092">
        <ele>611.4</ele>
        <time>2021-04-03T15:12:23Z</time>
      </trkpt>
      <trkpt lat="46.15147" lon="6.36079">
        <ele>610.8</ele>
        <time>2021-04-03T15:12:24Z</time>
      </trkpt>
      <trkpt lat="46.1515" lon="6.36066">
        <ele>610</ele>
        <time>2021-04-03T15:12:25Z</time>
      </trkpt>
      <trkpt lat="46.15154" lon="6.36053">
        <ele>609.6</ele>
        <time>2021-04-03T15:12:26Z</time>
      </trkpt>
      <trkpt lat="46.15157" lon="6.36039">
        <ele>609.2</ele>
        <time>2021-04-03T15:12:27Z</time>
      </trkpt>
      <trkpt lat="46.1516" lon="6.36026">
        <ele>609.2</ele>
        <time>2021-04-03T15:12:28Z</time>
      </trkpt>
      <trkpt lat="46.15162" lon="6.36012">
        <ele>608.8</ele>
        <time>2021-04-03T15:12:29Z</time>
      </trkpt>
      <trkpt lat="46.15165" lon="6.35999">
        <ele>608.6</ele>
        <time>2021-04-03T15:12:30Z</time>
      </trkpt>
      <trkpt lat="46.15167" lon="6.35986">
        <ele>608.2</ele>
        <time>2021-04-03T15:12:31Z</time>
      </trkpt>
      <trkpt lat="46.15169" lon="6.35973">
        <ele>608</ele>
        <time>2021-04-03T15:12:32Z</time>
      </trkpt>
      <trkpt lat="46.15171" lon="6.3596">
        <ele>607.6</ele>
        <time>2021-04-03T15:12:33Z</time>
      </trkpt>
      <trkpt lat="46.15173" lon="6.35947">
        <ele>607.2</ele>
        <time>2021-04-03T15:12:34Z</time>
      </trkpt>
      <trkpt lat="46.15174" lon="6.35935">
        <ele>606.8</ele>
        <time>2021-04-03T15:12:35Z</time>
      </trkpt>
      <trkpt lat="46.15176" lon="6.35922">
        <ele>606.2</ele>
        <time>2021-04-03T15:12:36Z</time>
      </trkpt>
      <trkpt lat="46.15177" lon="6.35909">
        <ele>606</ele>
        <time>2021-04-03T15:12:37Z</time>
      </trkpt>
      <trkpt lat="46.15178" lon="6.35896">
        <ele>605.6</ele>
        <time>2021-04-03T15:12:38Z</time>
      </trkpt>
      <trkpt lat="46.15179" lon="6.35882">
        <ele>604.8</ele>
        <time>2021-04-03T15:12:39Z</time>
      </trkpt>
      <trkpt lat="46.15179" lon="6.35869">
        <ele>604.4</ele>
        <time>2021-04-03T15:12:40Z</time>
      </trkpt>
      <trkpt lat="46.1518" lon="6.35855">
        <ele>604.2</ele>
        <time>2021-04-03T15:12:41Z</time>
      </trkpt>
      <trkpt lat="46.1518" lon="6.35841">
        <ele>604</ele>
        <time>2021-04-03T15:12:42Z</time>
      </trkpt>
      <trkpt lat="46.1518" lon="6.35826">
        <ele>603.8</ele>
        <time>2021-04-03T15:12:43Z</time>
      </trkpt>
      <trkpt lat="46.15179" lon="6.35811">
        <ele>603.6</ele>
        <time>2021-04-03T15:12:44Z</time>
      </trkpt>
      <trkpt lat="46.15179" lon="6.35796">
        <ele>603.2</ele>
        <time>2021-04-03T15:12:45Z</time>
      </trkpt>
      <trkpt lat="46.15179" lon="6.3578">
        <ele>603</ele>
        <time>2021-04-03T15:12:46Z</time>
      </trkpt>
      <trkpt lat="46.15179" lon="6.35764">
        <ele>602.6</ele>
        <time>2021-04-03T15:12:47Z</time>
      </trkpt>
      <trkpt lat="46.15179" lon="6.35749">
        <ele>602.6</ele>
        <time>2021-04-03T15:12:48Z</time>
      </trkpt>
      <trkpt lat="46.15178" lon="6.35733">
        <ele>602.6</ele>
        <time>2021-04-03T15:12:49Z</time>
      </trkpt>
      <trkpt lat="46.15179" lon="6.35718">
        <ele>602</ele>
        <time>2021-04-03T15:12:50Z</time>
      </trkpt>
      <trkpt lat="46.15179" lon="6.35703">
        <ele>601.6</ele>
        <time>2021-04-03T15:12:51Z</time>
      </trkpt>
      <trkpt lat="46.15179" lon="6.35689">
        <ele>601.4</ele>
        <time>2021-04-03T15:12:52Z</time>
      </trkpt>
      <trkpt lat="46.15179" lon="6.35676">
        <ele>601.4</ele>
        <time>2021-04-03T15:12:53Z</time>
      </trkpt>
      <trkpt lat="46.15179" lon="6.35665">
        <ele>601.2</ele>
        <time>2021-04-03T15:12:54Z</time>
      </trkpt>
      <trkpt lat="46.15179" lon="6.35655">
        <ele>601</ele>
        <time>2021-04-03T15:12:55Z</time>
      </trkpt>
      <trkpt lat="46.15179" lon="6.35645">
        <ele>601</ele>
        <time>2021-04-03T15:12:56Z</time>
      </trkpt>
      <trkpt lat="46.15179" lon="6.35637">
        <ele>600.8</ele>
        <time>2021-04-03T15:12:57Z</time>
      </trkpt>
      <trkpt lat="46.15179" lon="6.35629">
        <ele>600.6</ele>
        <time>2021-04-03T15:12:58Z</time>
      </trkpt>
      <trkpt lat="46.15178" lon="6.35623">
        <ele>600.4</ele>
        <time>2021-04-03T15:12:59Z</time>
      </trkpt>
      <trkpt lat="46.15177" lon="6.35618">
        <ele>600</ele>
        <time>2021-04-03T15:13:00Z</time>
      </trkpt>
      <trkpt lat="46.15176" lon="6.35613">
        <ele>599.8</ele>
        <time>2021-04-03T15:13:01Z</time>
      </trkpt>
      <trkpt lat="46.15176" lon="6.35609">
        <ele>599.8</ele>
        <time>2021-04-03T15:13:02Z</time>
      </trkpt>
      <trkpt lat="46.15176" lon="6.35606">
        <ele>599.4</ele>
        <time>2021-04-03T15:13:03Z</time>
      </trkpt>
      <trkpt lat="46.15175" lon="6.35604">
        <ele>599.4</ele>
        <time>2021-04-03T15:13:04Z</time>
      </trkpt>
      <trkpt lat="46.15175" lon="6.35603">
        <ele>599.4</ele>
        <time>2021-04-03T15:13:05Z</time>
      </trkpt>
      <trkpt lat="46.15175" lon="6.35603">
        <ele>599.4</ele>
        <time>2021-04-03T15:13:06Z</time>
      </trkpt>
      <trkpt lat="46.15175" lon="6.35603">
        <ele>599.4</ele>
        <time>2021-04-03T15:13:07Z</time>
      </trkpt>
      <trkpt lat="46.15175" lon="6.35604">
        <ele>599.4</ele>
        <time>2021-04-03T15:13:08Z</time>
      </trkpt>
      <trkpt lat="46.15175" lon="6.35604">
        <ele>599.4</ele>
        <time>2021-04-03T15:13:09Z</time>
      </trkpt>
      <trkpt lat="46.15175" lon="6.35605">
        <ele>599.4</ele>
        <time>2021-04-03T15:13:10Z</time>
      </trkpt>
      <trkpt lat="46.15175" lon="6.35605">
        <ele>599.4</ele>
        <time>2021-04-03T15:13:11Z</time>
      </trkpt>
      <trkpt lat="46.15175" lon="6.35605">
        <ele>599.2</ele>
        <time>2021-04-03T15:13:12Z</time>
      </trkpt>
      <trkpt lat="46.15175" lon="6.35606">
        <ele>599.2</ele>
        <time>2021-04-03T15:13:13Z</time>
      </trkpt>
      <trkpt lat="46.15174" lon="6.35606">
        <ele>599.4</ele>
        <time>2021-04-03T15:13:14Z</time>
      </trkpt>
      <trkpt lat="46.15174" lon="6.35606">
        <ele>599.2</ele>
        <time>2021-04-03T15:13:15Z</time>
      </trkpt>
      <trkpt lat="46.15174" lon="6.35606">
        <ele>599.2</ele>
        <time>2021-04-03T15:13:16Z</time>
      </trkpt>
      <trkpt lat="46.15174" lon="6.35606">
        <ele>599.4</ele>
        <time>2021-04-03T15:13:17Z</time>
      </trkpt>
      <trkpt lat="46.15174" lon="6.35607">
        <ele>599.2</ele>
        <time>2021-04-03T15:13:18Z</time>
      </trkpt>
      <trkpt lat="46.15174" lon="6.35607">
        <ele>599.2</ele>
        <time>2021-04-03T15:13:22Z</time>
      </trkpt>
      <trkpt lat="46.15174" lon="6.35607">
        <ele>599.4</ele>
        <time>2021-04-03T15:13:23Z</time>
      </trkpt>
      <trkpt lat="46.15174" lon="6.35607">
        <ele>599.2</ele>
        <time>2021-04-03T15:13:26Z</time>
      </trkpt>
      <trkpt lat="46.15174" lon="6.35607">
        <ele>599.4</ele>
        <time>2021-04-03T15:13:32Z</time>
      </trkpt>
      <trkpt lat="46.15174" lon="6.35607">
        <ele>599.6</ele>
        <time>2021-04-03T15:13:33Z</time>
      </trkpt>
      <trkpt lat="46.15174" lon="6.35607">
        <ele>599.6</ele>
        <time>2021-04-03T15:13:36Z</time>
      </trkpt>
      <trkpt lat="46.15174" lon="6.35607">
        <ele>599.8</ele>
        <time>2021-04-03T15:13:39Z</time>
      </trkpt>
      <trkpt lat="46.15173" lon="6.35605">
        <ele>599.8</ele>
        <time>2021-04-03T15:13:40Z</time>
      </trkpt>
      <trkpt lat="46.15172" lon="6.35603">
        <ele>599.8</ele>
        <time>2021-04-03T15:13:41Z</time>
      </trkpt>
      <trkpt lat="46.15171" lon="6.356">
        <ele>600</ele>
        <time>2021-04-03T15:13:42Z</time>
      </trkpt>
      <trkpt lat="46.1517" lon="6.35596">
        <ele>600</ele>
        <time>2021-04-03T15:13:43Z</time>
      </trkpt>
      <trkpt lat="46.15169" lon="6.3559">
        <ele>599.8</ele>
        <time>2021-04-03T15:13:44Z</time>
      </trkpt>
      <trkpt lat="46.15169" lon="6.35583">
        <ele>599.8</ele>
        <time>2021-04-03T15:13:45Z</time>
      </trkpt>
      <trkpt lat="46.15168" lon="6.35576">
        <ele>599.8</ele>
        <time>2021-04-03T15:13:46Z</time>
      </trkpt>
      <trkpt lat="46.15166" lon="6.35568">
        <ele>599.8</ele>
        <time>2021-04-03T15:13:47Z</time>
      </trkpt>
      <trkpt lat="46.15164" lon="6.35559">
        <ele>599.6</ele>
        <time>2021-04-03T15:13:48Z</time>
      </trkpt>
      <trkpt lat="46.15162" lon="6.3555">
        <ele>599.6</ele>
        <time>2021-04-03T15:13:49Z</time>
      </trkpt>
      <trkpt lat="46.15161" lon="6.35541">
        <ele>599.6</ele>
        <time>2021-04-03T15:13:50Z</time>
      </trkpt>
      <trkpt lat="46.15159" lon="6.35531">
        <ele>599</ele>
        <time>2021-04-03T15:13:51Z</time>
      </trkpt>
      <trkpt lat="46.15157" lon="6.35521">
        <ele>598.2</ele>
        <time>2021-04-03T15:13:52Z</time>
      </trkpt>
      <trkpt lat="46.15155" lon="6.35511">
        <ele>596.8</ele>
        <time>2021-04-03T15:13:53Z</time>
      </trkpt>
      <trkpt lat="46.15153" lon="6.355">
        <ele>596</ele>
        <time>2021-04-03T15:13:54Z</time>
      </trkpt>
      <trkpt lat="46.1515" lon="6.35488">
        <ele>595.6</ele>
        <time>2021-04-03T15:13:55Z</time>
      </trkpt>
      <trkpt lat="46.15148" lon="6.35476">
        <ele>595</ele>
        <time>2021-04-03T15:13:56Z</time>
      </trkpt>
      <trkpt lat="46.15145" lon="6.35464">
        <ele>594.6</ele>
        <time>2021-04-03T15:13:57Z</time>
      </trkpt>
      <trkpt lat="46.15143" lon="6.35451">
        <ele>594.2</ele>
        <time>2021-04-03T15:13:58Z</time>
      </trkpt>
      <trkpt lat="46.1514" lon="6.35439">
        <ele>594</ele>
        <time>2021-04-03T15:13:59Z</time>
      </trkpt>
      <trkpt lat="46.15138" lon="6.35426">
        <ele>593.2</ele>
        <time>2021-04-03T15:14:00Z</time>
      </trkpt>
      <trkpt lat="46.15136" lon="6.35412">
        <ele>592.6</ele>
        <time>2021-04-03T15:14:01Z</time>
      </trkpt>
      <trkpt lat="46.15133" lon="6.35399">
        <ele>592</ele>
        <time>2021-04-03T15:14:02Z</time>
      </trkpt>
      <trkpt lat="46.15131" lon="6.35385">
        <ele>591.2</ele>
        <time>2021-04-03T15:14:03Z</time>
      </trkpt>
      <trkpt lat="46.15129" lon="6.35373">
        <ele>590.4</ele>
        <time>2021-04-03T15:14:04Z</time>
      </trkpt>
      <trkpt lat="46.15128" lon="6.35362">
        <ele>589.8</ele>
        <time>2021-04-03T15:14:05Z</time>
      </trkpt>
      <trkpt lat="46.15126" lon="6.3535">
        <ele>589.4</ele>
        <time>2021-04-03T15:14:06Z</time>
      </trkpt>
      <trkpt lat="46.15124" lon="6.35339">
        <ele>589</ele>
        <time>2021-04-03T15:14:07Z</time>
      </trkpt>
      <trkpt lat="46.15122" lon="6.35326">
        <ele>588.6</ele>
        <time>2021-04-03T15:14:08Z</time>
      </trkpt>
      <trkpt lat="46.1512" lon="6.35313">
        <ele>588.2</ele>
        <time>2021-04-03T15:14:09Z</time>
      </trkpt>
      <trkpt lat="46.15118" lon="6.353">
        <ele>587.8</ele>
        <time>2021-04-03T15:14:10Z</time>
      </trkpt>
      <trkpt lat="46.15116" lon="6.35286">
        <ele>587.2</ele>
        <time>2021-04-03T15:14:11Z</time>
      </trkpt>
      <trkpt lat="46.15115" lon="6.35272">
        <ele>586.6</ele>
        <time>2021-04-03T15:14:12Z</time>
      </trkpt>
      <trkpt lat="46.15113" lon="6.35257">
        <ele>586.2</ele>
        <time>2021-04-03T15:14:13Z</time>
      </trkpt>
      <trkpt lat="46.15111" lon="6.35242">
        <ele>585.8</ele>
        <time>2021-04-03T15:14:14Z</time>
      </trkpt>
      <trkpt lat="46.15109" lon="6.35227">
        <ele>585.6</ele>
        <time>2021-04-03T15:14:15Z</time>
      </trkpt>
      <trkpt lat="46.15107" lon="6.35211">
        <ele>585.2</ele>
        <time>2021-04-03T15:14:16Z</time>
      </trkpt>
      <trkpt lat="46.15105" lon="6.35195">
        <ele>584.2</ele>
        <time>2021-04-03T15:14:17Z</time>
      </trkpt>
      <trkpt lat="46.15103" lon="6.3518">
        <ele>583.2</ele>
        <time>2021-04-03T15:14:18Z</time>
      </trkpt>
      <trkpt lat="46.15101" lon="6.35164">
        <ele>581.8</ele>
        <time>2021-04-03T15:14:19Z</time>
      </trkpt>
      <trkpt lat="46.15099" lon="6.35148">
        <ele>581</ele>
        <time>2021-04-03T15:14:20Z</time>
      </trkpt>
      <trkpt lat="46.15096" lon="6.35132">
        <ele>580.2</ele>
        <time>2021-04-03T15:14:21Z</time>
      </trkpt>
      <trkpt lat="46.15094" lon="6.35115">
        <ele>579.8</ele>
        <time>2021-04-03T15:14:22Z</time>
      </trkpt>
      <trkpt lat="46.15092" lon="6.35098">
        <ele>578.6</ele>
        <time>2021-04-03T15:14:23Z</time>
      </trkpt>
      <trkpt lat="46.1509" lon="6.35081">
        <ele>578.2</ele>
        <time>2021-04-03T15:14:24Z</time>
      </trkpt>
      <trkpt lat="46.15088" lon="6.35064">
        <ele>577.4</ele>
        <time>2021-04-03T15:14:25Z</time>
      </trkpt>
      <trkpt lat="46.15086" lon="6.35047">
        <ele>577</ele>
        <time>2021-04-03T15:14:26Z</time>
      </trkpt>
      <trkpt lat="46.15084" lon="6.3503">
        <ele>576.8</ele>
        <time>2021-04-03T15:14:27Z</time>
      </trkpt>
      <trkpt lat="46.15083" lon="6.35013">
        <ele>576.2</ele>
        <time>2021-04-03T15:14:28Z</time>
      </trkpt>
      <trkpt lat="46.15083" lon="6.34995">
        <ele>576</ele>
        <time>2021-04-03T15:14:29Z</time>
      </trkpt>
      <trkpt lat="46.15084" lon="6.34978">
        <ele>575.6</ele>
        <time>2021-04-03T15:14:30Z</time>
      </trkpt>
      <trkpt lat="46.15086" lon="6.34961">
        <ele>575.2</ele>
        <time>2021-04-03T15:14:31Z</time>
      </trkpt>
      <trkpt lat="46.1509" lon="6.34945">
        <ele>575.2</ele>
        <time>2021-04-03T15:14:32Z</time>
      </trkpt>
      <trkpt lat="46.15095" lon="6.3493">
        <ele>575</ele>
        <time>2021-04-03T15:14:33Z</time>
      </trkpt>
      <trkpt lat="46.15103" lon="6.34918">
        <ele>574.8</ele>
        <time>2021-04-03T15:14:34Z</time>
      </trkpt>
      <trkpt lat="46.1511" lon="6.34906">
        <ele>574.6</ele>
        <time>2021-04-03T15:14:35Z</time>
      </trkpt>
      <trkpt lat="46.15118" lon="6.34894">
        <ele>574</ele>
        <time>2021-04-03T15:14:36Z</time>
      </trkpt>
      <trkpt lat="46.15125" lon="6.34882">
        <ele>573.2</ele>
        <time>2021-04-03T15:14:37Z</time>
      </trkpt>
      <trkpt lat="46.15132" lon="6.34871">
        <ele>572.2</ele>
        <time>2021-04-03T15:14:38Z</time>
      </trkpt>
      <trkpt lat="46.1514" lon="6.34859">
        <ele>571.4</ele>
        <time>2021-04-03T15:14:39Z</time>
      </trkpt>
      <trkpt lat="46.15147" lon="6.34847">
        <ele>571</ele>
        <time>2021-04-03T15:14:40Z</time>
      </trkpt>
      <trkpt lat="46.15155" lon="6.34834">
        <ele>569.8</ele>
        <time>2021-04-03T15:14:41Z</time>
      </trkpt>
      <trkpt lat="46.15163" lon="6.34822">
        <ele>569</ele>
        <time>2021-04-03T15:14:42Z</time>
      </trkpt>
      <trkpt lat="46.1517" lon="6.34809">
        <ele>569</ele>
        <time>2021-04-03T15:14:43Z</time>
      </trkpt>
      <trkpt lat="46.15178" lon="6.34796">
        <ele>568.2</ele>
        <time>2021-04-03T15:14:44Z</time>
      </trkpt>
      <trkpt lat="46.15185" lon="6.34783">
        <ele>567.6</ele>
        <time>2021-04-03T15:14:45Z</time>
      </trkpt>
      <trkpt lat="46.15193" lon="6.3477">
        <ele>567.2</ele>
        <time>2021-04-03T15:14:46Z</time>
      </trkpt>
      <trkpt lat="46.152" lon="6.34757">
        <ele>566.6</ele>
        <time>2021-04-03T15:14:47Z</time>
      </trkpt>
      <trkpt lat="46.15208" lon="6.34743">
        <ele>566.4</ele>
        <time>2021-04-03T15:14:48Z</time>
      </trkpt>
      <trkpt lat="46.15216" lon="6.3473">
        <ele>566</ele>
        <time>2021-04-03T15:14:49Z</time>
      </trkpt>
      <trkpt lat="46.15224" lon="6.34718">
        <ele>566</ele>
        <time>2021-04-03T15:14:50Z</time>
      </trkpt>
      <trkpt lat="46.15232" lon="6.34705">
        <ele>565.4</ele>
        <time>2021-04-03T15:14:51Z</time>
      </trkpt>
      <trkpt lat="46.1524" lon="6.34693">
        <ele>565.2</ele>
        <time>2021-04-03T15:14:52Z</time>
      </trkpt>
      <trkpt lat="46.15248" lon="6.34681">
        <ele>564.6</ele>
        <time>2021-04-03T15:14:53Z</time>
      </trkpt>
      <trkpt lat="46.15255" lon="6.3467">
        <ele>564.2</ele>
        <time>2021-04-03T15:14:54Z</time>
      </trkpt>
      <trkpt lat="46.15262" lon="6.34659">
        <ele>564.2</ele>
        <time>2021-04-03T15:14:55Z</time>
      </trkpt>
      <trkpt lat="46.15269" lon="6.34647">
        <ele>563.6</ele>
        <time>2021-04-03T15:14:56Z</time>
      </trkpt>
      <trkpt lat="46.15274" lon="6.34636">
        <ele>562.6</ele>
        <time>2021-04-03T15:14:57Z</time>
      </trkpt>
      <trkpt lat="46.15278" lon="6.34623">
        <ele>561.8</ele>
        <time>2021-04-03T15:14:58Z</time>
      </trkpt>
      <trkpt lat="46.15279" lon="6.34609">
        <ele>560.8</ele>
        <time>2021-04-03T15:14:59Z</time>
      </trkpt>
      <trkpt lat="46.15278" lon="6.34596">
        <ele>560.2</ele>
        <time>2021-04-03T15:15:00Z</time>
      </trkpt>
      <trkpt lat="46.15277" lon="6.34582">
        <ele>559.8</ele>
        <time>2021-04-03T15:15:01Z</time>
      </trkpt>
      <trkpt lat="46.15275" lon="6.34568">
        <ele>559.4</ele>
        <time>2021-04-03T15:15:02Z</time>
      </trkpt>
      <trkpt lat="46.15273" lon="6.34554">
        <ele>559.2</ele>
        <time>2021-04-03T15:15:03Z</time>
      </trkpt>
      <trkpt lat="46.15272" lon="6.34541">
        <ele>559.2</ele>
        <time>2021-04-03T15:15:04Z</time>
      </trkpt>
      <trkpt lat="46.1527" lon="6.34528">
        <ele>558.6</ele>
        <time>2021-04-03T15:15:05Z</time>
      </trkpt>
      <trkpt lat="46.15269" lon="6.34516">
        <ele>558.4</ele>
        <time>2021-04-03T15:15:06Z</time>
      </trkpt>
      <trkpt lat="46.15269" lon="6.34506">
        <ele>558</ele>
        <time>2021-04-03T15:15:07Z</time>
      </trkpt>
      <trkpt lat="46.15268" lon="6.34496">
        <ele>558</ele>
        <time>2021-04-03T15:15:08Z</time>
      </trkpt>
      <trkpt lat="46.15267" lon="6.34487">
        <ele>558</ele>
        <time>2021-04-03T15:15:09Z</time>
      </trkpt>
      <trkpt lat="46.15265" lon="6.34478">
        <ele>558</ele>
        <time>2021-04-03T15:15:10Z</time>
      </trkpt>
      <trkpt lat="46.15265" lon="6.34469">
        <ele>558</ele>
        <time>2021-04-03T15:15:11Z</time>
      </trkpt>
      <trkpt lat="46.15264" lon="6.3446">
        <ele>557.8</ele>
        <time>2021-04-03T15:15:12Z</time>
      </trkpt>
      <trkpt lat="46.15264" lon="6.34451">
        <ele>557.8</ele>
        <time>2021-04-03T15:15:13Z</time>
      </trkpt>
      <trkpt lat="46.15262" lon="6.34442">
        <ele>557.6</ele>
        <time>2021-04-03T15:15:14Z</time>
      </trkpt>
      <trkpt lat="46.15261" lon="6.34433">
        <ele>557.6</ele>
        <time>2021-04-03T15:15:15Z</time>
      </trkpt>
      <trkpt lat="46.1526" lon="6.34425">
        <ele>557.8</ele>
        <time>2021-04-03T15:15:16Z</time>
      </trkpt>
      <trkpt lat="46.15258" lon="6.34418">
        <ele>557.6</ele>
        <time>2021-04-03T15:15:17Z</time>
      </trkpt>
      <trkpt lat="46.15257" lon="6.34411">
        <ele>557.4</ele>
        <time>2021-04-03T15:15:18Z</time>
      </trkpt>
      <trkpt lat="46.15256" lon="6.34405">
        <ele>557.6</ele>
        <time>2021-04-03T15:15:19Z</time>
      </trkpt>
      <trkpt lat="46.15254" lon="6.34399">
        <ele>557.2</ele>
        <time>2021-04-03T15:15:20Z</time>
      </trkpt>
      <trkpt lat="46.15253" lon="6.34393">
        <ele>557</ele>
        <time>2021-04-03T15:15:21Z</time>
      </trkpt>
      <trkpt lat="46.15254" lon="6.34387">
        <ele>556.8</ele>
        <time>2021-04-03T15:15:22Z</time>
      </trkpt>
      <trkpt lat="46.15257" lon="6.34384">
        <ele>556.4</ele>
        <time>2021-04-03T15:15:23Z</time>
      </trkpt>
      <trkpt lat="46.15262" lon="6.34384">
        <ele>556.2</ele>
        <time>2021-04-03T15:15:24Z</time>
      </trkpt>
      <trkpt lat="46.15267" lon="6.34388">
        <ele>556.2</ele>
        <time>2021-04-03T15:15:25Z</time>
      </trkpt>
      <trkpt lat="46.15271" lon="6.34393">
        <ele>555.8</ele>
        <time>2021-04-03T15:15:26Z</time>
      </trkpt>
      <trkpt lat="46.15276" lon="6.34398">
        <ele>555.6</ele>
        <time>2021-04-03T15:15:27Z</time>
      </trkpt>
      <trkpt lat="46.15281" lon="6.34403">
        <ele>555.6</ele>
        <time>2021-04-03T15:15:28Z</time>
      </trkpt>
      <trkpt lat="46.15286" lon="6.34407">
        <ele>555.2</ele>
        <time>2021-04-03T15:15:29Z</time>
      </trkpt>
      <trkpt lat="46.15291" lon="6.34411">
        <ele>554.6</ele>
        <time>2021-04-03T15:15:30Z</time>
      </trkpt>
      <trkpt lat="46.15296" lon="6.34416">
        <ele>554.2</ele>
        <time>2021-04-03T15:15:31Z</time>
      </trkpt>
      <trkpt lat="46.15302" lon="6.34421">
        <ele>553.8</ele>
        <time>2021-04-03T15:15:32Z</time>
      </trkpt>
      <trkpt lat="46.15307" lon="6.34426">
        <ele>553.6</ele>
        <time>2021-04-03T15:15:33Z</time>
      </trkpt>
      <trkpt lat="46.15312" lon="6.3443">
        <ele>553.4</ele>
        <time>2021-04-03T15:15:34Z</time>
      </trkpt>
      <trkpt lat="46.15318" lon="6.34434">
        <ele>553.2</ele>
        <time>2021-04-03T15:15:35Z</time>
      </trkpt>
      <trkpt lat="46.15324" lon="6.34437">
        <ele>553</ele>
        <time>2021-04-03T15:15:36Z</time>
      </trkpt>
      <trkpt lat="46.15329" lon="6.34439">
        <ele>552.6</ele>
        <time>2021-04-03T15:15:37Z</time>
      </trkpt>
      <trkpt lat="46.15336" lon="6.34438">
        <ele>551.4</ele>
        <time>2021-04-03T15:15:38Z</time>
      </trkpt>
      <trkpt lat="46.15342" lon="6.34437">
        <ele>550.8</ele>
        <time>2021-04-03T15:15:39Z</time>
      </trkpt>
      <trkpt lat="46.15348" lon="6.34435">
        <ele>550.2</ele>
        <time>2021-04-03T15:15:40Z</time>
      </trkpt>
      <trkpt lat="46.15353" lon="6.34431">
        <ele>549.6</ele>
        <time>2021-04-03T15:15:41Z</time>
      </trkpt>
      <trkpt lat="46.15358" lon="6.34428">
        <ele>549</ele>
        <time>2021-04-03T15:15:42Z</time>
      </trkpt>
      <trkpt lat="46.15362" lon="6.34424">
        <ele>548.4</ele>
        <time>2021-04-03T15:15:43Z</time>
      </trkpt>
      <trkpt lat="46.15366" lon="6.34421">
        <ele>548.4</ele>
        <time>2021-04-03T15:15:44Z</time>
      </trkpt>
      <trkpt lat="46.15368" lon="6.34419">
        <ele>548</ele>
        <time>2021-04-03T15:15:45Z</time>
      </trkpt>
      <trkpt lat="46.15368" lon="6.34418">
        <ele>547.8</ele>
        <time>2021-04-03T15:15:46Z</time>
      </trkpt>
      <trkpt lat="46.15368" lon="6.34417">
        <ele>547.6</ele>
        <time>2021-04-03T15:15:47Z</time>
      </trkpt>
      <trkpt lat="46.15369" lon="6.34417">
        <ele>547.6</ele>
        <time>2021-04-03T15:15:48Z</time>
      </trkpt>
      <trkpt lat="46.15369" lon="6.34416">
        <ele>547.6</ele>
        <time>2021-04-03T15:15:49Z</time>
      </trkpt>
      <trkpt lat="46.1537" lon="6.34413">
        <ele>547.4</ele>
        <time>2021-04-03T15:15:50Z</time>
      </trkpt>
      <trkpt lat="46.1537" lon="6.34409">
        <ele>547.2</ele>
        <time>2021-04-03T15:15:51Z</time>
      </trkpt>
      <trkpt lat="46.1537" lon="6.34403">
        <ele>547.4</ele>
        <time>2021-04-03T15:15:52Z</time>
      </trkpt>
      <trkpt lat="46.15369" lon="6.34397">
        <ele>547.2</ele>
        <time>2021-04-03T15:15:53Z</time>
      </trkpt>
      <trkpt lat="46.15366" lon="6.3439">
        <ele>547</ele>
        <time>2021-04-03T15:15:54Z</time>
      </trkpt>
      <trkpt lat="46.15363" lon="6.34383">
        <ele>546.8</ele>
        <time>2021-04-03T15:15:55Z</time>
      </trkpt>
      <trkpt lat="46.1536" lon="6.34376">
        <ele>547</ele>
        <time>2021-04-03T15:15:56Z</time>
      </trkpt>
      <trkpt lat="46.15357" lon="6.34368">
        <ele>546.6</ele>
        <time>2021-04-03T15:15:57Z</time>
      </trkpt>
      <trkpt lat="46.15354" lon="6.34358">
        <ele>546</ele>
        <time>2021-04-03T15:15:58Z</time>
      </trkpt>
      <trkpt lat="46.1535" lon="6.34349">
        <ele>545.6</ele>
        <time>2021-04-03T15:15:59Z</time>
      </trkpt>
      <trkpt lat="46.15346" lon="6.34339">
        <ele>545.2</ele>
        <time>2021-04-03T15:16:00Z</time>
      </trkpt>
      <trkpt lat="46.15342" lon="6.34328">
        <ele>544.8</ele>
        <time>2021-04-03T15:16:01Z</time>
      </trkpt>
      <trkpt lat="46.15337" lon="6.34317">
        <ele>544.8</ele>
        <time>2021-04-03T15:16:02Z</time>
      </trkpt>
      <trkpt lat="46.15333" lon="6.34306">
        <ele>544.8</ele>
        <time>2021-04-03T15:16:03Z</time>
      </trkpt>
      <trkpt lat="46.15328" lon="6.34294">
        <ele>544.4</ele>
        <time>2021-04-03T15:16:04Z</time>
      </trkpt>
      <trkpt lat="46.15323" lon="6.34282">
        <ele>544.2</ele>
        <time>2021-04-03T15:16:05Z</time>
      </trkpt>
      <trkpt lat="46.15319" lon="6.3427">
        <ele>544.2</ele>
        <time>2021-04-03T15:16:06Z</time>
      </trkpt>
      <trkpt lat="46.15314" lon="6.34257">
        <ele>544</ele>
        <time>2021-04-03T15:16:07Z</time>
      </trkpt>
      <trkpt lat="46.15309" lon="6.34244">
        <ele>543.4</ele>
        <time>2021-04-03T15:16:08Z</time>
      </trkpt>
      <trkpt lat="46.15304" lon="6.34231">
        <ele>543</ele>
        <time>2021-04-03T15:16:09Z</time>
      </trkpt>
      <trkpt lat="46.15299" lon="6.34218">
        <ele>542.4</ele>
        <time>2021-04-03T15:16:10Z</time>
      </trkpt>
      <trkpt lat="46.15295" lon="6.34204">
        <ele>542.2</ele>
        <time>2021-04-03T15:16:11Z</time>
      </trkpt>
      <trkpt lat="46.15291" lon="6.34189">
        <ele>541.4</ele>
        <time>2021-04-03T15:16:12Z</time>
      </trkpt>
      <trkpt lat="46.1529" lon="6.34172">
        <ele>541</ele>
        <time>2021-04-03T15:16:13Z</time>
      </trkpt>
      <trkpt lat="46.15289" lon="6.34155">
        <ele>540</ele>
        <time>2021-04-03T15:16:14Z</time>
      </trkpt>
      <trkpt lat="46.1529" lon="6.34137">
        <ele>539.6</ele>
        <time>2021-04-03T15:16:15Z</time>
      </trkpt>
      <trkpt lat="46.15291" lon="6.34118">
        <ele>539.2</ele>
        <time>2021-04-03T15:16:16Z</time>
      </trkpt>
      <trkpt lat="46.15292" lon="6.34098">
        <ele>538.8</ele>
        <time>2021-04-03T15:16:17Z</time>
      </trkpt>
      <trkpt lat="46.15293" lon="6.34078">
        <ele>538.6</ele>
        <time>2021-04-03T15:16:18Z</time>
      </trkpt>
      <trkpt lat="46.15292" lon="6.34057">
        <ele>537</ele>
        <time>2021-04-03T15:16:19Z</time>
      </trkpt>
      <trkpt lat="46.15291" lon="6.34037">
        <ele>536.4</ele>
        <time>2021-04-03T15:16:20Z</time>
      </trkpt>
      <trkpt lat="46.15287" lon="6.34017">
        <ele>535.8</ele>
        <time>2021-04-03T15:16:21Z</time>
      </trkpt>
      <trkpt lat="46.15282" lon="6.33999">
        <ele>534.8</ele>
        <time>2021-04-03T15:16:22Z</time>
      </trkpt>
      <trkpt lat="46.15277" lon="6.33981">
        <ele>534.8</ele>
        <time>2021-04-03T15:16:23Z</time>
      </trkpt>
      <trkpt lat="46.15272" lon="6.33964">
        <ele>533.8</ele>
        <time>2021-04-03T15:16:24Z</time>
      </trkpt>
      <trkpt lat="46.15267" lon="6.33948">
        <ele>533</ele>
        <time>2021-04-03T15:16:25Z</time>
      </trkpt>
      <trkpt lat="46.15263" lon="6.33932">
        <ele>531.6</ele>
        <time>2021-04-03T15:16:26Z</time>
      </trkpt>
      <trkpt lat="46.15259" lon="6.33917">
        <ele>529.8</ele>
        <time>2021-04-03T15:16:27Z</time>
      </trkpt>
      <trkpt lat="46.15256" lon="6.33903">
        <ele>529</ele>
        <time>2021-04-03T15:16:28Z</time>
      </trkpt>
      <trkpt lat="46.15254" lon="6.33889">
        <ele>528.4</ele>
        <time>2021-04-03T15:16:29Z</time>
      </trkpt>
      <trkpt lat="46.15251" lon="6.33875">
        <ele>528.2</ele>
        <time>2021-04-03T15:16:30Z</time>
      </trkpt>
      <trkpt lat="46.15249" lon="6.33862">
        <ele>528.2</ele>
        <time>2021-04-03T15:16:31Z</time>
      </trkpt>
      <trkpt lat="46.15247" lon="6.33849">
        <ele>528.2</ele>
        <time>2021-04-03T15:16:32Z</time>
      </trkpt>
      <trkpt lat="46.15246" lon="6.33837">
        <ele>528</ele>
        <time>2021-04-03T15:16:33Z</time>
      </trkpt>
      <trkpt lat="46.15244" lon="6.33824">
        <ele>528.2</ele>
        <time>2021-04-03T15:16:34Z</time>
      </trkpt>
      <trkpt lat="46.15243" lon="6.33812">
        <ele>528</ele>
        <time>2021-04-03T15:16:35Z</time>
      </trkpt>
      <trkpt lat="46.15241" lon="6.338">
        <ele>528.2</ele>
        <time>2021-04-03T15:16:36Z</time>
      </trkpt>
      <trkpt lat="46.15239" lon="6.33787">
        <ele>528</ele>
        <time>2021-04-03T15:16:37Z</time>
      </trkpt>
      <trkpt lat="46.15237" lon="6.33775">
        <ele>528.2</ele>
        <time>2021-04-03T15:16:38Z</time>
      </trkpt>
      <trkpt lat="46.15235" lon="6.33763">
        <ele>528.6</ele>
        <time>2021-04-03T15:16:39Z</time>
      </trkpt>
      <trkpt lat="46.15233" lon="6.3375">
        <ele>528.6</ele>
        <time>2021-04-03T15:16:40Z</time>
      </trkpt>
      <trkpt lat="46.15231" lon="6.33738">
        <ele>529</ele>
        <time>2021-04-03T15:16:41Z</time>
      </trkpt>
      <trkpt lat="46.15229" lon="6.33725">
        <ele>529.6</ele>
        <time>2021-04-03T15:16:42Z</time>
      </trkpt>
      <trkpt lat="46.15226" lon="6.33713">
        <ele>529.8</ele>
        <time>2021-04-03T15:16:43Z</time>
      </trkpt>
      <trkpt lat="46.15223" lon="6.33701">
        <ele>530.2</ele>
        <time>2021-04-03T15:16:44Z</time>
      </trkpt>
      <trkpt lat="46.1522" lon="6.33688">
        <ele>530.2</ele>
        <time>2021-04-03T15:16:45Z</time>
      </trkpt>
      <trkpt lat="46.15216" lon="6.33676">
        <ele>530.4</ele>
        <time>2021-04-03T15:16:46Z</time>
      </trkpt>
      <trkpt lat="46.15212" lon="6.33665">
        <ele>530.4</ele>
        <time>2021-04-03T15:16:47Z</time>
      </trkpt>
      <trkpt lat="46.15208" lon="6.33653">
        <ele>530.4</ele>
        <time>2021-04-03T15:16:48Z</time>
      </trkpt>
      <trkpt lat="46.15203" lon="6.33641">
        <ele>530.2</ele>
        <time>2021-04-03T15:16:49Z</time>
      </trkpt>
      <trkpt lat="46.15198" lon="6.33628">
        <ele>530.4</ele>
        <time>2021-04-03T15:16:50Z</time>
      </trkpt>
      <trkpt lat="46.15194" lon="6.33614">
        <ele>530.4</ele>
        <time>2021-04-03T15:16:51Z</time>
      </trkpt>
      <trkpt lat="46.15189" lon="6.336">
        <ele>530.6</ele>
        <time>2021-04-03T15:16:52Z</time>
      </trkpt>
      <trkpt lat="46.15185" lon="6.33586">
        <ele>530.4</ele>
        <time>2021-04-03T15:16:53Z</time>
      </trkpt>
      <trkpt lat="46.15182" lon="6.33571">
        <ele>530.6</ele>
        <time>2021-04-03T15:16:54Z</time>
      </trkpt>
      <trkpt lat="46.1518" lon="6.33555">
        <ele>530.4</ele>
        <time>2021-04-03T15:16:55Z</time>
      </trkpt>
      <trkpt lat="46.1518" lon="6.33539">
        <ele>530.4</ele>
        <time>2021-04-03T15:16:56Z</time>
      </trkpt>
      <trkpt lat="46.15181" lon="6.33523">
        <ele>530.4</ele>
        <time>2021-04-03T15:16:57Z</time>
      </trkpt>
      <trkpt lat="46.15184" lon="6.33508">
        <ele>529.8</ele>
        <time>2021-04-03T15:16:58Z</time>
      </trkpt>
      <trkpt lat="46.15187" lon="6.33493">
        <ele>529.4</ele>
        <time>2021-04-03T15:16:59Z</time>
      </trkpt>
      <trkpt lat="46.15192" lon="6.33478">
        <ele>529.2</ele>
        <time>2021-04-03T15:17:00Z</time>
      </trkpt>
      <trkpt lat="46.15197" lon="6.33464">
        <ele>529</ele>
        <time>2021-04-03T15:17:01Z</time>
      </trkpt>
      <trkpt lat="46.15202" lon="6.3345">
        <ele>528</ele>
        <time>2021-04-03T15:17:02Z</time>
      </trkpt>
      <trkpt lat="46.15207" lon="6.33436">
        <ele>527.2</ele>
        <time>2021-04-03T15:17:03Z</time>
      </trkpt>
      <trkpt lat="46.15212" lon="6.33422">
        <ele>526.6</ele>
        <time>2021-04-03T15:17:04Z</time>
      </trkpt>
      <trkpt lat="46.15217" lon="6.33408">
        <ele>526</ele>
        <time>2021-04-03T15:17:05Z</time>
      </trkpt>
      <trkpt lat="46.15222" lon="6.33395">
        <ele>525.6</ele>
        <time>2021-04-03T15:17:06Z</time>
      </trkpt>
      <trkpt lat="46.15226" lon="6.33381">
        <ele>525</ele>
        <time>2021-04-03T15:17:07Z</time>
      </trkpt>
      <trkpt lat="46.1523" lon="6.33367">
        <ele>524.8</ele>
        <time>2021-04-03T15:17:08Z</time>
      </trkpt>
      <trkpt lat="46.15233" lon="6.33352">
        <ele>524.6</ele>
        <time>2021-04-03T15:17:09Z</time>
      </trkpt>
      <trkpt lat="46.15235" lon="6.33338">
        <ele>524.6</ele>
        <time>2021-04-03T15:17:10Z</time>
      </trkpt>
      <trkpt lat="46.15235" lon="6.33323">
        <ele>524.6</ele>
        <time>2021-04-03T15:17:11Z</time>
      </trkpt>
      <trkpt lat="46.15235" lon="6.33309">
        <ele>524.6</ele>
        <time>2021-04-03T15:17:12Z</time>
      </trkpt>
      <trkpt lat="46.15233" lon="6.33296">
        <ele>524.6</ele>
        <time>2021-04-03T15:17:13Z</time>
      </trkpt>
      <trkpt lat="46.15231" lon="6.33283">
        <ele>524.4</ele>
        <time>2021-04-03T15:17:14Z</time>
      </trkpt>
      <trkpt lat="46.15228" lon="6.3327">
        <ele>524.8</ele>
        <time>2021-04-03T15:17:15Z</time>
      </trkpt>
      <trkpt lat="46.15224" lon="6.33259">
        <ele>525</ele>
        <time>2021-04-03T15:17:16Z</time>
      </trkpt>
      <trkpt lat="46.1522" lon="6.33248">
        <ele>525.2</ele>
        <time>2021-04-03T15:17:17Z</time>
      </trkpt>
      <trkpt lat="46.15215" lon="6.33238">
        <ele>525.6</ele>
        <time>2021-04-03T15:17:18Z</time>
      </trkpt>
      <trkpt lat="46.15209" lon="6.33227">
        <ele>526.2</ele>
        <time>2021-04-03T15:17:19Z</time>
      </trkpt>
      <trkpt lat="46.15205" lon="6.33215">
        <ele>526.2</ele>
        <time>2021-04-03T15:17:20Z</time>
      </trkpt>
      <trkpt lat="46.15204" lon="6.33203">
        <ele>526.4</ele>
        <time>2021-04-03T15:17:21Z</time>
      </trkpt>
      <trkpt lat="46.15207" lon="6.3319">
        <ele>526.4</ele>
        <time>2021-04-03T15:17:22Z</time>
      </trkpt>
      <trkpt lat="46.15211" lon="6.33179">
        <ele>526.4</ele>
        <time>2021-04-03T15:17:23Z</time>
      </trkpt>
      <trkpt lat="46.15216" lon="6.33168">
        <ele>526.4</ele>
        <time>2021-04-03T15:17:24Z</time>
      </trkpt>
      <trkpt lat="46.15221" lon="6.33159">
        <ele>526.4</ele>
        <time>2021-04-03T15:17:25Z</time>
      </trkpt>
      <trkpt lat="46.15226" lon="6.33149">
        <ele>526.4</ele>
        <time>2021-04-03T15:17:26Z</time>
      </trkpt>
      <trkpt lat="46.1523" lon="6.3314">
        <ele>526.4</ele>
        <time>2021-04-03T15:17:27Z</time>
      </trkpt>
      <trkpt lat="46.15234" lon="6.33131">
        <ele>526.4</ele>
        <time>2021-04-03T15:17:28Z</time>
      </trkpt>
      <trkpt lat="46.15239" lon="6.33122">
        <ele>526.4</ele>
        <time>2021-04-03T15:17:29Z</time>
      </trkpt>
      <trkpt lat="46.15243" lon="6.33114">
        <ele>525.2</ele>
        <time>2021-04-03T15:17:30Z</time>
      </trkpt>
      <trkpt lat="46.15247" lon="6.33106">
        <ele>524.6</ele>
        <time>2021-04-03T15:17:31Z</time>
      </trkpt>
      <trkpt lat="46.15251" lon="6.33099">
        <ele>524.4</ele>
        <time>2021-04-03T15:17:32Z</time>
      </trkpt>
      <trkpt lat="46.15255" lon="6.33093">
        <ele>524.2</ele>
        <time>2021-04-03T15:17:33Z</time>
      </trkpt>
      <trkpt lat="46.15258" lon="6.33087">
        <ele>524.2</ele>
        <time>2021-04-03T15:17:34Z</time>
      </trkpt>
      <trkpt lat="46.15261" lon="6.33081">
        <ele>524.2</ele>
        <time>2021-04-03T15:17:35Z</time>
      </trkpt>
      <trkpt lat="46.15264" lon="6.33075">
        <ele>524.2</ele>
        <time>2021-04-03T15:17:36Z</time>
      </trkpt>
      <trkpt lat="46.15266" lon="6.33069">
        <ele>524.2</ele>
        <time>2021-04-03T15:17:37Z</time>
      </trkpt>
      <trkpt lat="46.15267" lon="6.33063">
        <ele>524</ele>
        <time>2021-04-03T15:17:38Z</time>
      </trkpt>
      <trkpt lat="46.15269" lon="6.33058">
        <ele>524</ele>
        <time>2021-04-03T15:17:39Z</time>
      </trkpt>
      <trkpt lat="46.15271" lon="6.33052">
        <ele>525.2</ele>
        <time>2021-04-03T15:17:40Z</time>
      </trkpt>
      <trkpt lat="46.15272" lon="6.33047">
        <ele>525.8</ele>
        <time>2021-04-03T15:17:41Z</time>
      </trkpt>
      <trkpt lat="46.15273" lon="6.33041">
        <ele>526.4</ele>
        <time>2021-04-03T15:17:42Z</time>
      </trkpt>
      <trkpt lat="46.15275" lon="6.33035">
        <ele>527.8</ele>
        <time>2021-04-03T15:17:43Z</time>
      </trkpt>
      <trkpt lat="46.15276" lon="6.33029">
        <ele>528.6</ele>
        <time>2021-04-03T15:17:44Z</time>
      </trkpt>
      <trkpt lat="46.15278" lon="6.33023">
        <ele>529</ele>
        <time>2021-04-03T15:17:45Z</time>
      </trkpt>
      <trkpt lat="46.1528" lon="6.33017">
        <ele>529.6</ele>
        <time>2021-04-03T15:17:46Z</time>
      </trkpt>
      <trkpt lat="46.15281" lon="6.33012">
        <ele>529.8</ele>
        <time>2021-04-03T15:17:47Z</time>
      </trkpt>
      <trkpt lat="46.15283" lon="6.33006">
        <ele>530.2</ele>
        <time>2021-04-03T15:17:48Z</time>
      </trkpt>
      <trkpt lat="46.15285" lon="6.33">
        <ele>530.4</ele>
        <time>2021-04-03T15:17:49Z</time>
      </trkpt>
      <trkpt lat="46.15287" lon="6.32994">
        <ele>531</ele>
        <time>2021-04-03T15:17:50Z</time>
      </trkpt>
      <trkpt lat="46.15289" lon="6.32987">
        <ele>531.2</ele>
        <time>2021-04-03T15:17:51Z</time>
      </trkpt>
      <trkpt lat="46.1529" lon="6.32981">
        <ele>531.2</ele>
        <time>2021-04-03T15:17:52Z</time>
      </trkpt>
      <trkpt lat="46.15292" lon="6.32975">
        <ele>531.4</ele>
        <time>2021-04-03T15:17:53Z</time>
      </trkpt>
      <trkpt lat="46.15294" lon="6.32969">
        <ele>531.4</ele>
        <time>2021-04-03T15:17:54Z</time>
      </trkpt>
      <trkpt lat="46.15296" lon="6.32963">
        <ele>531.4</ele>
        <time>2021-04-03T15:17:55Z</time>
      </trkpt>
      <trkpt lat="46.15298" lon="6.32956">
        <ele>531.6</ele>
        <time>2021-04-03T15:17:56Z</time>
      </trkpt>
      <trkpt lat="46.15301" lon="6.3295">
        <ele>531.6</ele>
        <time>2021-04-03T15:17:57Z</time>
      </trkpt>
      <trkpt lat="46.15303" lon="6.32943">
        <ele>531.6</ele>
        <time>2021-04-03T15:17:58Z</time>
      </trkpt>
      <trkpt lat="46.15306" lon="6.32936">
        <ele>531.6</ele>
        <time>2021-04-03T15:17:59Z</time>
      </trkpt>
      <trkpt lat="46.15308" lon="6.32929">
        <ele>531.6</ele>
        <time>2021-04-03T15:18:00Z</time>
      </trkpt>
      <trkpt lat="46.1531" lon="6.32922">
        <ele>531.6</ele>
        <time>2021-04-03T15:18:01Z</time>
      </trkpt>
      <trkpt lat="46.15313" lon="6.32914">
        <ele>531.6</ele>
        <time>2021-04-03T15:18:02Z</time>
      </trkpt>
      <trkpt lat="46.15315" lon="6.32906">
        <ele>531.6</ele>
        <time>2021-04-03T15:18:03Z</time>
      </trkpt>
      <trkpt lat="46.15318" lon="6.32898">
        <ele>531.4</ele>
        <time>2021-04-03T15:18:04Z</time>
      </trkpt>
      <trkpt lat="46.15321" lon="6.32889">
        <ele>531.4</ele>
        <time>2021-04-03T15:18:05Z</time>
      </trkpt>
      <trkpt lat="46.15323" lon="6.3288">
        <ele>531.2</ele>
        <time>2021-04-03T15:18:06Z</time>
      </trkpt>
      <trkpt lat="46.15326" lon="6.3287">
        <ele>530.6</ele>
        <time>2021-04-03T15:18:07Z</time>
      </trkpt>
      <trkpt lat="46.15329" lon="6.32861">
        <ele>530.4</ele>
        <time>2021-04-03T15:18:08Z</time>
      </trkpt>
      <trkpt lat="46.15333" lon="6.32852">
        <ele>529.8</ele>
        <time>2021-04-03T15:18:09Z</time>
      </trkpt>
      <trkpt lat="46.15337" lon="6.32843">
        <ele>529.4</ele>
        <time>2021-04-03T15:18:10Z</time>
      </trkpt>
      <trkpt lat="46.15341" lon="6.32835">
        <ele>529.4</ele>
        <time>2021-04-03T15:18:11Z</time>
      </trkpt>
      <trkpt lat="46.15346" lon="6.32827">
        <ele>529.4</ele>
        <time>2021-04-03T15:18:12Z</time>
      </trkpt>
      <trkpt lat="46.1535" lon="6.3282">
        <ele>529.2</ele>
        <time>2021-04-03T15:18:13Z</time>
      </trkpt>
      <trkpt lat="46.15354" lon="6.32812">
        <ele>528.6</ele>
        <time>2021-04-03T15:18:14Z</time>
      </trkpt>
      <trkpt lat="46.15358" lon="6.32805">
        <ele>528.2</ele>
        <time>2021-04-03T15:18:15Z</time>
      </trkpt>
      <trkpt lat="46.15363" lon="6.32798">
        <ele>528.2</ele>
        <time>2021-04-03T15:18:16Z</time>
      </trkpt>
      <trkpt lat="46.15367" lon="6.32791">
        <ele>528</ele>
        <time>2021-04-03T15:18:17Z</time>
      </trkpt>
      <trkpt lat="46.15372" lon="6.32784">
        <ele>528</ele>
        <time>2021-04-03T15:18:18Z</time>
      </trkpt>
      <trkpt lat="46.15376" lon="6.32776">
        <ele>528.2</ele>
        <time>2021-04-03T15:18:19Z</time>
      </trkpt>
      <trkpt lat="46.15381" lon="6.32768">
        <ele>528.2</ele>
        <time>2021-04-03T15:18:20Z</time>
      </trkpt>
      <trkpt lat="46.15385" lon="6.3276">
        <ele>528.2</ele>
        <time>2021-04-03T15:18:21Z</time>
      </trkpt>
      <trkpt lat="46.1539" lon="6.32752">
        <ele>528.6</ele>
        <time>2021-04-03T15:18:22Z</time>
      </trkpt>
      <trkpt lat="46.15394" lon="6.32743">
        <ele>528.6</ele>
        <time>2021-04-03T15:18:23Z</time>
      </trkpt>
      <trkpt lat="46.15397" lon="6.32733">
        <ele>528.6</ele>
        <time>2021-04-03T15:18:24Z</time>
      </trkpt>
      <trkpt lat="46.154" lon="6.32722">
        <ele>528.4</ele>
        <time>2021-04-03T15:18:25Z</time>
      </trkpt>
      <trkpt lat="46.15401" lon="6.32711">
        <ele>528.4</ele>
        <time>2021-04-03T15:18:26Z</time>
      </trkpt>
      <trkpt lat="46.15401" lon="6.32699">
        <ele>528.4</ele>
        <time>2021-04-03T15:18:27Z</time>
      </trkpt>
      <trkpt lat="46.154" lon="6.32686">
        <ele>528.4</ele>
        <time>2021-04-03T15:18:28Z</time>
      </trkpt>
      <trkpt lat="46.15398" lon="6.32673">
        <ele>528.6</ele>
        <time>2021-04-03T15:18:29Z</time>
      </trkpt>
      <trkpt lat="46.15396" lon="6.32659">
        <ele>528.4</ele>
        <time>2021-04-03T15:18:30Z</time>
      </trkpt>
      <trkpt lat="46.15396" lon="6.32645">
        <ele>528.6</ele>
        <time>2021-04-03T15:18:31Z</time>
      </trkpt>
      <trkpt lat="46.15398" lon="6.32631">
        <ele>528.6</ele>
        <time>2021-04-03T15:18:32Z</time>
      </trkpt>
      <trkpt lat="46.15401" lon="6.32618">
        <ele>528.4</ele>
        <time>2021-04-03T15:18:33Z</time>
      </trkpt>
      <trkpt lat="46.15405" lon="6.32604">
        <ele>528.2</ele>
        <time>2021-04-03T15:18:34Z</time>
      </trkpt>
      <trkpt lat="46.1541" lon="6.32592">
        <ele>527.6</ele>
        <time>2021-04-03T15:18:35Z</time>
      </trkpt>
      <trkpt lat="46.15416" lon="6.32581">
        <ele>526.8</ele>
        <time>2021-04-03T15:18:36Z</time>
      </trkpt>
      <trkpt lat="46.15424" lon="6.32572">
        <ele>526.2</ele>
        <time>2021-04-03T15:18:37Z</time>
      </trkpt>
      <trkpt lat="46.15431" lon="6.32563">
        <ele>525.4</ele>
        <time>2021-04-03T15:18:38Z</time>
      </trkpt>
      <trkpt lat="46.15439" lon="6.32555">
        <ele>524.6</ele>
        <time>2021-04-03T15:18:39Z</time>
      </trkpt>
      <trkpt lat="46.15446" lon="6.32547">
        <ele>524</ele>
        <time>2021-04-03T15:18:40Z</time>
      </trkpt>
      <trkpt lat="46.15453" lon="6.32538">
        <ele>523.2</ele>
        <time>2021-04-03T15:18:41Z</time>
      </trkpt>
      <trkpt lat="46.15458" lon="6.32527">
        <ele>522.4</ele>
        <time>2021-04-03T15:18:42Z</time>
      </trkpt>
      <trkpt lat="46.15463" lon="6.32515">
        <ele>521.4</ele>
        <time>2021-04-03T15:18:43Z</time>
      </trkpt>
      <trkpt lat="46.15467" lon="6.32503">
        <ele>519.8</ele>
        <time>2021-04-03T15:18:44Z</time>
      </trkpt>
      <trkpt lat="46.15471" lon="6.32491">
        <ele>518.8</ele>
        <time>2021-04-03T15:18:45Z</time>
      </trkpt>
      <trkpt lat="46.15475" lon="6.32479">
        <ele>518</ele>
        <time>2021-04-03T15:18:46Z</time>
      </trkpt>
      <trkpt lat="46.15479" lon="6.32467">
        <ele>517.8</ele>
        <time>2021-04-03T15:18:47Z</time>
      </trkpt>
      <trkpt lat="46.15482" lon="6.32455">
        <ele>517.4</ele>
        <time>2021-04-03T15:18:48Z</time>
      </trkpt>
      <trkpt lat="46.15486" lon="6.32444">
        <ele>517.4</ele>
        <time>2021-04-03T15:18:49Z</time>
      </trkpt>
      <trkpt lat="46.1549" lon="6.32433">
        <ele>517.2</ele>
        <time>2021-04-03T15:18:50Z</time>
      </trkpt>
      <trkpt lat="46.15493" lon="6.32422">
        <ele>517.4</ele>
        <time>2021-04-03T15:18:51Z</time>
      </trkpt>
      <trkpt lat="46.15497" lon="6.32412">
        <ele>517.2</ele>
        <time>2021-04-03T15:18:52Z</time>
      </trkpt>
      <trkpt lat="46.155" lon="6.32402">
        <ele>517.2</ele>
        <time>2021-04-03T15:18:53Z</time>
      </trkpt>
      <trkpt lat="46.15503" lon="6.32392">
        <ele>517.4</ele>
        <time>2021-04-03T15:18:54Z</time>
      </trkpt>
      <trkpt lat="46.15506" lon="6.32384">
        <ele>517.4</ele>
        <time>2021-04-03T15:18:55Z</time>
      </trkpt>
      <trkpt lat="46.1551" lon="6.32376">
        <ele>517.4</ele>
        <time>2021-04-03T15:18:56Z</time>
      </trkpt>
      <trkpt lat="46.15514" lon="6.32369">
        <ele>517.6</ele>
        <time>2021-04-03T15:18:57Z</time>
      </trkpt>
      <trkpt lat="46.15518" lon="6.32365">
        <ele>518</ele>
        <time>2021-04-03T15:18:58Z</time>
      </trkpt>
      <trkpt lat="46.15523" lon="6.32362">
        <ele>518.4</ele>
        <time>2021-04-03T15:18:59Z</time>
      </trkpt>
      <trkpt lat="46.15528" lon="6.32359">
        <ele>518.6</ele>
        <time>2021-04-03T15:19:00Z</time>
      </trkpt>
      <trkpt lat="46.15534" lon="6.32357">
        <ele>519</ele>
        <time>2021-04-03T15:19:01Z</time>
      </trkpt>
      <trkpt lat="46.15539" lon="6.32356">
        <ele>519.2</ele>
        <time>2021-04-03T15:19:02Z</time>
      </trkpt>
      <trkpt lat="46.15545" lon="6.32355">
        <ele>519.6</ele>
        <time>2021-04-03T15:19:03Z</time>
      </trkpt>
      <trkpt lat="46.1555" lon="6.32354">
        <ele>520</ele>
        <time>2021-04-03T15:19:04Z</time>
      </trkpt>
      <trkpt lat="46.15556" lon="6.32352">
        <ele>520.2</ele>
        <time>2021-04-03T15:19:05Z</time>
      </trkpt>
      <trkpt lat="46.15562" lon="6.3235">
        <ele>520.8</ele>
        <time>2021-04-03T15:19:06Z</time>
      </trkpt>
      <trkpt lat="46.15568" lon="6.32346">
        <ele>521.2</ele>
        <time>2021-04-03T15:19:07Z</time>
      </trkpt>
      <trkpt lat="46.15574" lon="6.32342">
        <ele>521.4</ele>
        <time>2021-04-03T15:19:08Z</time>
      </trkpt>
      <trkpt lat="46.15579" lon="6.32337">
        <ele>521.4</ele>
        <time>2021-04-03T15:19:09Z</time>
      </trkpt>
      <trkpt lat="46.15585" lon="6.32332">
        <ele>521.6</ele>
        <time>2021-04-03T15:19:10Z</time>
      </trkpt>
      <trkpt lat="46.1559" lon="6.32326">
        <ele>521.8</ele>
        <time>2021-04-03T15:19:11Z</time>
      </trkpt>
      <trkpt lat="46.15594" lon="6.32319">
        <ele>522</ele>
        <time>2021-04-03T15:19:12Z</time>
      </trkpt>
      <trkpt lat="46.15598" lon="6.32312">
        <ele>522</ele>
        <time>2021-04-03T15:19:13Z</time>
      </trkpt>
      <trkpt lat="46.15603" lon="6.32306">
        <ele>522.2</ele>
        <time>2021-04-03T15:19:14Z</time>
      </trkpt>
      <trkpt lat="46.15607" lon="6.32299">
        <ele>522.2</ele>
        <time>2021-04-03T15:19:15Z</time>
      </trkpt>
      <trkpt lat="46.15611" lon="6.32293">
        <ele>522.4</ele>
        <time>2021-04-03T15:19:16Z</time>
      </trkpt>
      <trkpt lat="46.15614" lon="6.32287">
        <ele>522.6</ele>
        <time>2021-04-03T15:19:17Z</time>
      </trkpt>
      <trkpt lat="46.15617" lon="6.32281">
        <ele>522.8</ele>
        <time>2021-04-03T15:19:18Z</time>
      </trkpt>
      <trkpt lat="46.1562" lon="6.32275">
        <ele>523</ele>
        <time>2021-04-03T15:19:19Z</time>
      </trkpt>
      <trkpt lat="46.15623" lon="6.32269">
        <ele>523</ele>
        <time>2021-04-03T15:19:20Z</time>
      </trkpt>
      <trkpt lat="46.15626" lon="6.32263">
        <ele>523</ele>
        <time>2021-04-03T15:19:21Z</time>
      </trkpt>
      <trkpt lat="46.15629" lon="6.32256">
        <ele>523.2</ele>
        <time>2021-04-03T15:19:22Z</time>
      </trkpt>
      <trkpt lat="46.15633" lon="6.32249">
        <ele>523.2</ele>
        <time>2021-04-03T15:19:23Z</time>
      </trkpt>
      <trkpt lat="46.15636" lon="6.32241">
        <ele>523.2</ele>
        <time>2021-04-03T15:19:24Z</time>
      </trkpt>
      <trkpt lat="46.15639" lon="6.32234">
        <ele>523.4</ele>
        <time>2021-04-03T15:19:25Z</time>
      </trkpt>
      <trkpt lat="46.15643" lon="6.32226">
        <ele>523.4</ele>
        <time>2021-04-03T15:19:26Z</time>
      </trkpt>
      <trkpt lat="46.15646" lon="6.32218">
        <ele>523.6</ele>
        <time>2021-04-03T15:19:27Z</time>
      </trkpt>
      <trkpt lat="46.15649" lon="6.3221">
        <ele>523.8</ele>
        <time>2021-04-03T15:19:28Z</time>
      </trkpt>
      <trkpt lat="46.15653" lon="6.32202">
        <ele>524</ele>
        <time>2021-04-03T15:19:29Z</time>
      </trkpt>
      <trkpt lat="46.15656" lon="6.32194">
        <ele>524.2</ele>
        <time>2021-04-03T15:19:30Z</time>
      </trkpt>
      <trkpt lat="46.15659" lon="6.32185">
        <ele>524.2</ele>
        <time>2021-04-03T15:19:31Z</time>
      </trkpt>
      <trkpt lat="46.15663" lon="6.32177">
        <ele>524.2</ele>
        <time>2021-04-03T15:19:32Z</time>
      </trkpt>
      <trkpt lat="46.15666" lon="6.32169">
        <ele>524.2</ele>
        <time>2021-04-03T15:19:33Z</time>
      </trkpt>
      <trkpt lat="46.1567" lon="6.32161">
        <ele>524.4</ele>
        <time>2021-04-03T15:19:34Z</time>
      </trkpt>
      <trkpt lat="46.15673" lon="6.32153">
        <ele>524.6</ele>
        <time>2021-04-03T15:19:35Z</time>
      </trkpt>
      <trkpt lat="46.15676" lon="6.32146">
        <ele>524.6</ele>
        <time>2021-04-03T15:19:36Z</time>
      </trkpt>
      <trkpt lat="46.15679" lon="6.32138">
        <ele>524.6</ele>
        <time>2021-04-03T15:19:37Z</time>
      </trkpt>
      <trkpt lat="46.15682" lon="6.32132">
        <ele>524.6</ele>
        <time>2021-04-03T15:19:38Z</time>
      </trkpt>
      <trkpt lat="46.15686" lon="6.32125">
        <ele>524.8</ele>
        <time>2021-04-03T15:19:39Z</time>
      </trkpt>
      <trkpt lat="46.1569" lon="6.32119">
        <ele>524.8</ele>
        <time>2021-04-03T15:19:40Z</time>
      </trkpt>
      <trkpt lat="46.15694" lon="6.32114">
        <ele>525.2</ele>
        <time>2021-04-03T15:19:41Z</time>
      </trkpt>
      <trkpt lat="46.15698" lon="6.32108">
        <ele>525.2</ele>
        <time>2021-04-03T15:19:42Z</time>
      </trkpt>
      <trkpt lat="46.15703" lon="6.32103">
        <ele>525.4</ele>
        <time>2021-04-03T15:19:43Z</time>
      </trkpt>
      <trkpt lat="46.15708" lon="6.32099">
        <ele>525.6</ele>
        <time>2021-04-03T15:19:44Z</time>
      </trkpt>
      <trkpt lat="46.15714" lon="6.32095">
        <ele>525.6</ele>
        <time>2021-04-03T15:19:45Z</time>
      </trkpt>
      <trkpt lat="46.15719" lon="6.32091">
        <ele>525.6</ele>
        <time>2021-04-03T15:19:46Z</time>
      </trkpt>
      <trkpt lat="46.15724" lon="6.32088">
        <ele>525.6</ele>
        <time>2021-04-03T15:19:47Z</time>
      </trkpt>
      <trkpt lat="46.15729" lon="6.32085">
        <ele>525.4</ele>
        <time>2021-04-03T15:19:48Z</time>
      </trkpt>
      <trkpt lat="46.15734" lon="6.32082">
        <ele>525.6</ele>
        <time>2021-04-03T15:19:49Z</time>
      </trkpt>
      <trkpt lat="46.15739" lon="6.32079">
        <ele>525.6</ele>
        <time>2021-04-03T15:19:50Z</time>
      </trkpt>
      <trkpt lat="46.15745" lon="6.32075">
        <ele>525.6</ele>
        <time>2021-04-03T15:19:51Z</time>
      </trkpt>
      <trkpt lat="46.15751" lon="6.3207">
        <ele>525.6</ele>
        <time>2021-04-03T15:19:52Z</time>
      </trkpt>
      <trkpt lat="46.15757" lon="6.32066">
        <ele>525.6</ele>
        <time>2021-04-03T15:19:53Z</time>
      </trkpt>
      <trkpt lat="46.15763" lon="6.32061">
        <ele>525.6</ele>
        <time>2021-04-03T15:19:54Z</time>
      </trkpt>
      <trkpt lat="46.1577" lon="6.32056">
        <ele>525.4</ele>
        <time>2021-04-03T15:19:55Z</time>
      </trkpt>
      <trkpt lat="46.15777" lon="6.32051">
        <ele>525.6</ele>
        <time>2021-04-03T15:19:56Z</time>
      </trkpt>
      <trkpt lat="46.15784" lon="6.32046">
        <ele>525.6</ele>
        <time>2021-04-03T15:19:57Z</time>
      </trkpt>
      <trkpt lat="46.15791" lon="6.32042">
        <ele>525.4</ele>
        <time>2021-04-03T15:19:58Z</time>
      </trkpt>
      <trkpt lat="46.15799" lon="6.32037">
        <ele>525.2</ele>
        <time>2021-04-03T15:19:59Z</time>
      </trkpt>
      <trkpt lat="46.15806" lon="6.32033">
        <ele>524.8</ele>
        <time>2021-04-03T15:20:00Z</time>
      </trkpt>
      <trkpt lat="46.15812" lon="6.32029">
        <ele>524.4</ele>
        <time>2021-04-03T15:20:01Z</time>
      </trkpt>
      <trkpt lat="46.15819" lon="6.32026">
        <ele>524.4</ele>
        <time>2021-04-03T15:20:02Z</time>
      </trkpt>
      <trkpt lat="46.15826" lon="6.32022">
        <ele>523.8</ele>
        <time>2021-04-03T15:20:03Z</time>
      </trkpt>
      <trkpt lat="46.15833" lon="6.32018">
        <ele>523.2</ele>
        <time>2021-04-03T15:20:04Z</time>
      </trkpt>
      <trkpt lat="46.15839" lon="6.32015">
        <ele>522.8</ele>
        <time>2021-04-03T15:20:05Z</time>
      </trkpt>
      <trkpt lat="46.15846" lon="6.32011">
        <ele>522.2</ele>
        <time>2021-04-03T15:20:06Z</time>
      </trkpt>
      <trkpt lat="46.15852" lon="6.32007">
        <ele>521.6</ele>
        <time>2021-04-03T15:20:07Z</time>
      </trkpt>
      <trkpt lat="46.15858" lon="6.32004">
        <ele>521.2</ele>
        <time>2021-04-03T15:20:08Z</time>
      </trkpt>
      <trkpt lat="46.15864" lon="6.32">
        <ele>521</ele>
        <time>2021-04-03T15:20:09Z</time>
      </trkpt>
      <trkpt lat="46.1587" lon="6.31997">
        <ele>520.8</ele>
        <time>2021-04-03T15:20:10Z</time>
      </trkpt>
      <trkpt lat="46.15877" lon="6.31993">
        <ele>521</ele>
        <time>2021-04-03T15:20:11Z</time>
      </trkpt>
      <trkpt lat="46.15883" lon="6.31989">
        <ele>521</ele>
        <time>2021-04-03T15:20:12Z</time>
      </trkpt>
      <trkpt lat="46.1589" lon="6.31986">
        <ele>520.8</ele>
        <time>2021-04-03T15:20:13Z</time>
      </trkpt>
      <trkpt lat="46.15896" lon="6.31982">
        <ele>520.6</ele>
        <time>2021-04-03T15:20:14Z</time>
      </trkpt>
      <trkpt lat="46.15903" lon="6.31979">
        <ele>520.4</ele>
        <time>2021-04-03T15:20:15Z</time>
      </trkpt>
      <trkpt lat="46.15909" lon="6.31975">
        <ele>520.2</ele>
        <time>2021-04-03T15:20:16Z</time>
      </trkpt>
      <trkpt lat="46.15915" lon="6.31972">
        <ele>520.2</ele>
        <time>2021-04-03T15:20:17Z</time>
      </trkpt>
      <trkpt lat="46.15922" lon="6.31969">
        <ele>520.2</ele>
        <time>2021-04-03T15:20:18Z</time>
      </trkpt>
      <trkpt lat="46.15928" lon="6.31965">
        <ele>520</ele>
        <time>2021-04-03T15:20:19Z</time>
      </trkpt>
      <trkpt lat="46.15934" lon="6.31962">
        <ele>520</ele>
        <time>2021-04-03T15:20:20Z</time>
      </trkpt>
      <trkpt lat="46.1594" lon="6.31959">
        <ele>520</ele>
        <time>2021-04-03T15:20:21Z</time>
      </trkpt>
      <trkpt lat="46.15946" lon="6.31956">
        <ele>520</ele>
        <time>2021-04-03T15:20:22Z</time>
      </trkpt>
      <trkpt lat="46.15951" lon="6.31951">
        <ele>520</ele>
        <time>2021-04-03T15:20:23Z</time>
      </trkpt>
      <trkpt lat="46.15956" lon="6.31946">
        <ele>520</ele>
        <time>2021-04-03T15:20:24Z</time>
      </trkpt>
      <trkpt lat="46.15961" lon="6.3194">
        <ele>520</ele>
        <time>2021-04-03T15:20:25Z</time>
      </trkpt>
      <trkpt lat="46.15965" lon="6.31933">
        <ele>520</ele>
        <time>2021-04-03T15:20:26Z</time>
      </trkpt>
      <trkpt lat="46.15968" lon="6.31925">
        <ele>520</ele>
        <time>2021-04-03T15:20:27Z</time>
      </trkpt>
      <trkpt lat="46.15972" lon="6.31917">
        <ele>519.8</ele>
        <time>2021-04-03T15:20:28Z</time>
      </trkpt>
      <trkpt lat="46.15975" lon="6.31909">
        <ele>519.8</ele>
        <time>2021-04-03T15:20:29Z</time>
      </trkpt>
      <trkpt lat="46.15978" lon="6.319">
        <ele>519.8</ele>
        <time>2021-04-03T15:20:30Z</time>
      </trkpt>
      <trkpt lat="46.15982" lon="6.31892">
        <ele>519.8</ele>
        <time>2021-04-03T15:20:31Z</time>
      </trkpt>
      <trkpt lat="46.15985" lon="6.31883">
        <ele>519.6</ele>
        <time>2021-04-03T15:20:32Z</time>
      </trkpt>
      <trkpt lat="46.15988" lon="6.31875">
        <ele>519.6</ele>
        <time>2021-04-03T15:20:33Z</time>
      </trkpt>
      <trkpt lat="46.15991" lon="6.31867">
        <ele>519.6</ele>
        <time>2021-04-03T15:20:34Z</time>
      </trkpt>
      <trkpt lat="46.15995" lon="6.31858">
        <ele>519.4</ele>
        <time>2021-04-03T15:20:35Z</time>
      </trkpt>
      <trkpt lat="46.15998" lon="6.3185">
        <ele>519.2</ele>
        <time>2021-04-03T15:20:36Z</time>
      </trkpt>
      <trkpt lat="46.16001" lon="6.31841">
        <ele>519</ele>
        <time>2021-04-03T15:20:37Z</time>
      </trkpt>
      <trkpt lat="46.16005" lon="6.31832">
        <ele>519</ele>
        <time>2021-04-03T15:20:38Z</time>
      </trkpt>
      <trkpt lat="46.16008" lon="6.31824">
        <ele>519</ele>
        <time>2021-04-03T15:20:39Z</time>
      </trkpt>
      <trkpt lat="46.16012" lon="6.31815">
        <ele>518.8</ele>
        <time>2021-04-03T15:20:40Z</time>
      </trkpt>
      <trkpt lat="46.16015" lon="6.31807">
        <ele>518.6</ele>
        <time>2021-04-03T15:20:41Z</time>
      </trkpt>
      <trkpt lat="46.16018" lon="6.31798">
        <ele>518.6</ele>
        <time>2021-04-03T15:20:42Z</time>
      </trkpt>
      <trkpt lat="46.16022" lon="6.3179">
        <ele>518.6</ele>
        <time>2021-04-03T15:20:43Z</time>
      </trkpt>
      <trkpt lat="46.16025" lon="6.31781">
        <ele>518.6</ele>
        <time>2021-04-03T15:20:44Z</time>
      </trkpt>
      <trkpt lat="46.16028" lon="6.31773">
        <ele>518.6</ele>
        <time>2021-04-03T15:20:45Z</time>
      </trkpt>
      <trkpt lat="46.16032" lon="6.31765">
        <ele>518.4</ele>
        <time>2021-04-03T15:20:46Z</time>
      </trkpt>
      <trkpt lat="46.16036" lon="6.31756">
        <ele>518.6</ele>
        <time>2021-04-03T15:20:47Z</time>
      </trkpt>
      <trkpt lat="46.16039" lon="6.31748">
        <ele>518.4</ele>
        <time>2021-04-03T15:20:48Z</time>
      </trkpt>
      <trkpt lat="46.16043" lon="6.3174">
        <ele>518.6</ele>
        <time>2021-04-03T15:20:49Z</time>
      </trkpt>
      <trkpt lat="46.16047" lon="6.31732">
        <ele>518.4</ele>
        <time>2021-04-03T15:20:50Z</time>
      </trkpt>
      <trkpt lat="46.16052" lon="6.31724">
        <ele>518.4</ele>
        <time>2021-04-03T15:20:51Z</time>
      </trkpt>
      <trkpt lat="46.16056" lon="6.31716">
        <ele>518.2</ele>
        <time>2021-04-03T15:20:52Z</time>
      </trkpt>
      <trkpt lat="46.16061" lon="6.31708">
        <ele>518.2</ele>
        <time>2021-04-03T15:20:53Z</time>
      </trkpt>
      <trkpt lat="46.16066" lon="6.317">
        <ele>518</ele>
        <time>2021-04-03T15:20:54Z</time>
      </trkpt>
      <trkpt lat="46.16071" lon="6.31693">
        <ele>518</ele>
        <time>2021-04-03T15:20:55Z</time>
      </trkpt>
      <trkpt lat="46.16076" lon="6.31686">
        <ele>517.8</ele>
        <time>2021-04-03T15:20:56Z</time>
      </trkpt>
      <trkpt lat="46.16081" lon="6.3168">
        <ele>517.6</ele>
        <time>2021-04-03T15:20:57Z</time>
      </trkpt>
      <trkpt lat="46.16087" lon="6.31674">
        <ele>517.6</ele>
        <time>2021-04-03T15:20:58Z</time>
      </trkpt>
      <trkpt lat="46.16092" lon="6.31669">
        <ele>517.2</ele>
        <time>2021-04-03T15:20:59Z</time>
      </trkpt>
      <trkpt lat="46.16098" lon="6.31665">
        <ele>516.6</ele>
        <time>2021-04-03T15:21:00Z</time>
      </trkpt>
      <trkpt lat="46.16104" lon="6.31662">
        <ele>516.4</ele>
        <time>2021-04-03T15:21:01Z</time>
      </trkpt>
      <trkpt lat="46.16109" lon="6.31659">
        <ele>516.2</ele>
        <time>2021-04-03T15:21:02Z</time>
      </trkpt>
      <trkpt lat="46.16115" lon="6.31657">
        <ele>516</ele>
        <time>2021-04-03T15:21:03Z</time>
      </trkpt>
      <trkpt lat="46.1612" lon="6.31655">
        <ele>515.8</ele>
        <time>2021-04-03T15:21:04Z</time>
      </trkpt>
      <trkpt lat="46.16124" lon="6.31654">
        <ele>515.6</ele>
        <time>2021-04-03T15:21:05Z</time>
      </trkpt>
      <trkpt lat="46.16128" lon="6.31652">
        <ele>515</ele>
        <time>2021-04-03T15:21:06Z</time>
      </trkpt>
      <trkpt lat="46.16131" lon="6.31651">
        <ele>514.8</ele>
        <time>2021-04-03T15:21:07Z</time>
      </trkpt>
      <trkpt lat="46.16135" lon="6.31649">
        <ele>514.6</ele>
        <time>2021-04-03T15:21:08Z</time>
      </trkpt>
      <trkpt lat="46.16138" lon="6.31646">
        <ele>514.4</ele>
        <time>2021-04-03T15:21:09Z</time>
      </trkpt>
      <trkpt lat="46.16141" lon="6.31643">
        <ele>514.4</ele>
        <time>2021-04-03T15:21:10Z</time>
      </trkpt>
      <trkpt lat="46.16143" lon="6.31639">
        <ele>514.2</ele>
        <time>2021-04-03T15:21:11Z</time>
      </trkpt>
      <trkpt lat="46.16144" lon="6.31634">
        <ele>514.2</ele>
        <time>2021-04-03T15:21:12Z</time>
      </trkpt>
      <trkpt lat="46.16144" lon="6.31629">
        <ele>514.2</ele>
        <time>2021-04-03T15:21:13Z</time>
      </trkpt>
      <trkpt lat="46.16143" lon="6.31623">
        <ele>514.2</ele>
        <time>2021-04-03T15:21:14Z</time>
      </trkpt>
      <trkpt lat="46.16143" lon="6.31618">
        <ele>514.2</ele>
        <time>2021-04-03T15:21:15Z</time>
      </trkpt>
      <trkpt lat="46.16144" lon="6.31613">
        <ele>514.2</ele>
        <time>2021-04-03T15:21:16Z</time>
      </trkpt>
      <trkpt lat="46.16144" lon="6.31608">
        <ele>514.2</ele>
        <time>2021-04-03T15:21:17Z</time>
      </trkpt>
      <trkpt lat="46.16145" lon="6.31602">
        <ele>514.4</ele>
        <time>2021-04-03T15:21:18Z</time>
      </trkpt>
      <trkpt lat="46.16147" lon="6.31597">
        <ele>514.2</ele>
        <time>2021-04-03T15:21:19Z</time>
      </trkpt>
      <trkpt lat="46.16148" lon="6.3159">
        <ele>514.2</ele>
        <time>2021-04-03T15:21:20Z</time>
      </trkpt>
      <trkpt lat="46.16148" lon="6.31583">
        <ele>514.2</ele>
        <time>2021-04-03T15:21:21Z</time>
      </trkpt>
      <trkpt lat="46.16149" lon="6.31577">
        <ele>514.2</ele>
        <time>2021-04-03T15:21:22Z</time>
      </trkpt>
      <trkpt lat="46.16149" lon="6.31571">
        <ele>514.2</ele>
        <time>2021-04-03T15:21:23Z</time>
      </trkpt>
      <trkpt lat="46.1615" lon="6.31564">
        <ele>514.2</ele>
        <time>2021-04-03T15:21:24Z</time>
      </trkpt>
      <trkpt lat="46.16151" lon="6.31557">
        <ele>514.2</ele>
        <time>2021-04-03T15:21:25Z</time>
      </trkpt>
      <trkpt lat="46.16153" lon="6.3155">
        <ele>514.2</ele>
        <time>2021-04-03T15:21:26Z</time>
      </trkpt>
      <trkpt lat="46.16155" lon="6.31544">
        <ele>514.4</ele>
        <time>2021-04-03T15:21:27Z</time>
      </trkpt>
      <trkpt lat="46.16158" lon="6.31537">
        <ele>514.2</ele>
        <time>2021-04-03T15:21:28Z</time>
      </trkpt>
      <trkpt lat="46.16161" lon="6.31531">
        <ele>514.2</ele>
        <time>2021-04-03T15:21:29Z</time>
      </trkpt>
      <trkpt lat="46.16165" lon="6.31525">
        <ele>514.4</ele>
        <time>2021-04-03T15:21:30Z</time>
      </trkpt>
      <trkpt lat="46.16168" lon="6.31518">
        <ele>514.4</ele>
        <time>2021-04-03T15:21:31Z</time>
      </trkpt>
      <trkpt lat="46.16171" lon="6.31512">
        <ele>514.6</ele>
        <time>2021-04-03T15:21:32Z</time>
      </trkpt>
      <trkpt lat="46.16173" lon="6.31506">
        <ele>514.8</ele>
        <time>2021-04-03T15:21:33Z</time>
      </trkpt>
      <trkpt lat="46.16176" lon="6.31501">
        <ele>515</ele>
        <time>2021-04-03T15:21:34Z</time>
      </trkpt>
      <trkpt lat="46.16179" lon="6.31495">
        <ele>515</ele>
        <time>2021-04-03T15:21:35Z</time>
      </trkpt>
      <trkpt lat="46.16181" lon="6.31488">
        <ele>515.2</ele>
        <time>2021-04-03T15:21:36Z</time>
      </trkpt>
      <trkpt lat="46.16183" lon="6.3148">
        <ele>515.2</ele>
        <time>2021-04-03T15:21:37Z</time>
      </trkpt>
      <trkpt lat="46.16183" lon="6.31472">
        <ele>515.2</ele>
        <time>2021-04-03T15:21:38Z</time>
      </trkpt>
      <trkpt lat="46.16183" lon="6.31464">
        <ele>515.2</ele>
        <time>2021-04-03T15:21:39Z</time>
      </trkpt>
      <trkpt lat="46.16182" lon="6.31455">
        <ele>515.2</ele>
        <time>2021-04-03T15:21:40Z</time>
      </trkpt>
      <trkpt lat="46.16181" lon="6.31447">
        <ele>515.2</ele>
        <time>2021-04-03T15:21:41Z</time>
      </trkpt>
      <trkpt lat="46.16178" lon="6.31438">
        <ele>515.2</ele>
        <time>2021-04-03T15:21:42Z</time>
      </trkpt>
      <trkpt lat="46.16176" lon="6.31429">
        <ele>515.2</ele>
        <time>2021-04-03T15:21:43Z</time>
      </trkpt>
      <trkpt lat="46.16174" lon="6.3142">
        <ele>515.2</ele>
        <time>2021-04-03T15:21:44Z</time>
      </trkpt>
      <trkpt lat="46.16172" lon="6.3141">
        <ele>515.4</ele>
        <time>2021-04-03T15:21:45Z</time>
      </trkpt>
      <trkpt lat="46.1617" lon="6.314">
        <ele>515.2</ele>
        <time>2021-04-03T15:21:46Z</time>
      </trkpt>
      <trkpt lat="46.16167" lon="6.31391">
        <ele>515.2</ele>
        <time>2021-04-03T15:21:47Z</time>
      </trkpt>
      <trkpt lat="46.16165" lon="6.31381">
        <ele>515.4</ele>
        <time>2021-04-03T15:21:48Z</time>
      </trkpt>
      <trkpt lat="46.16162" lon="6.31372">
        <ele>515.4</ele>
        <time>2021-04-03T15:21:49Z</time>
      </trkpt>
      <trkpt lat="46.16159" lon="6.31362">
        <ele>515.4</ele>
        <time>2021-04-03T15:21:50Z</time>
      </trkpt>
      <trkpt lat="46.16157" lon="6.31353">
        <ele>515.4</ele>
        <time>2021-04-03T15:21:51Z</time>
      </trkpt>
      <trkpt lat="46.16155" lon="6.31345">
        <ele>515.2</ele>
        <time>2021-04-03T15:21:52Z</time>
      </trkpt>
      <trkpt lat="46.16153" lon="6.31337">
        <ele>515.2</ele>
        <time>2021-04-03T15:21:53Z</time>
      </trkpt>
      <trkpt lat="46.16151" lon="6.3133">
        <ele>515.2</ele>
        <time>2021-04-03T15:21:54Z</time>
      </trkpt>
      <trkpt lat="46.16149" lon="6.31324">
        <ele>515.2</ele>
        <time>2021-04-03T15:21:55Z</time>
      </trkpt>
      <trkpt lat="46.16148" lon="6.31317">
        <ele>515.4</ele>
        <time>2021-04-03T15:21:56Z</time>
      </trkpt>
      <trkpt lat="46.16148" lon="6.3131">
        <ele>515.4</ele>
        <time>2021-04-03T15:21:57Z</time>
      </trkpt>
      <trkpt lat="46.16148" lon="6.31304">
        <ele>515.6</ele>
        <time>2021-04-03T15:21:58Z</time>
      </trkpt>
      <trkpt lat="46.1615" lon="6.31297">
        <ele>515.6</ele>
        <time>2021-04-03T15:21:59Z</time>
      </trkpt>
      <trkpt lat="46.16152" lon="6.31291">
        <ele>515.8</ele>
        <time>2021-04-03T15:22:00Z</time>
      </trkpt>
      <trkpt lat="46.16155" lon="6.31284">
        <ele>516</ele>
        <time>2021-04-03T15:22:01Z</time>
      </trkpt>
      <trkpt lat="46.16157" lon="6.31277">
        <ele>516.4</ele>
        <time>2021-04-03T15:22:02Z</time>
      </trkpt>
      <trkpt lat="46.1616" lon="6.3127">
        <ele>516.8</ele>
        <time>2021-04-03T15:22:03Z</time>
      </trkpt>
      <trkpt lat="46.16163" lon="6.31262">
        <ele>517.2</ele>
        <time>2021-04-03T15:22:04Z</time>
      </trkpt>
      <trkpt lat="46.16166" lon="6.31254">
        <ele>517.4</ele>
        <time>2021-04-03T15:22:05Z</time>
      </trkpt>
      <trkpt lat="46.16168" lon="6.31245">
        <ele>517.4</ele>
        <time>2021-04-03T15:22:06Z</time>
      </trkpt>
      <trkpt lat="46.16171" lon="6.31237">
        <ele>517.6</ele>
        <time>2021-04-03T15:22:07Z</time>
      </trkpt>
      <trkpt lat="46.16175" lon="6.31228">
        <ele>517.6</ele>
        <time>2021-04-03T15:22:08Z</time>
      </trkpt>
      <trkpt lat="46.16178" lon="6.31218">
        <ele>517.8</ele>
        <time>2021-04-03T15:22:09Z</time>
      </trkpt>
      <trkpt lat="46.16181" lon="6.31209">
        <ele>517.8</ele>
        <time>2021-04-03T15:22:10Z</time>
      </trkpt>
      <trkpt lat="46.16185" lon="6.312">
        <ele>517.8</ele>
        <time>2021-04-03T15:22:11Z</time>
      </trkpt>
      <trkpt lat="46.16189" lon="6.3119">
        <ele>517.8</ele>
        <time>2021-04-03T15:22:12Z</time>
      </trkpt>
      <trkpt lat="46.16193" lon="6.31181">
        <ele>517.6</ele>
        <time>2021-04-03T15:22:13Z</time>
      </trkpt>
      <trkpt lat="46.16198" lon="6.31173">
        <ele>517.6</ele>
        <time>2021-04-03T15:22:14Z</time>
      </trkpt>
      <trkpt lat="46.16203" lon="6.31164">
        <ele>517.6</ele>
        <time>2021-04-03T15:22:15Z</time>
      </trkpt>
      <trkpt lat="46.16208" lon="6.31156">
        <ele>517.4</ele>
        <time>2021-04-03T15:22:16Z</time>
      </trkpt>
      <trkpt lat="46.16213" lon="6.31148">
        <ele>517</ele>
        <time>2021-04-03T15:22:17Z</time>
      </trkpt>
      <trkpt lat="46.16218" lon="6.31141">
        <ele>517</ele>
        <time>2021-04-03T15:22:18Z</time>
      </trkpt>
      <trkpt lat="46.16223" lon="6.31134">
        <ele>516.6</ele>
        <time>2021-04-03T15:22:19Z</time>
      </trkpt>
      <trkpt lat="46.16228" lon="6.31127">
        <ele>516.2</ele>
        <time>2021-04-03T15:22:20Z</time>
      </trkpt>
      <trkpt lat="46.16234" lon="6.3112">
        <ele>516</ele>
        <time>2021-04-03T15:22:21Z</time>
      </trkpt>
      <trkpt lat="46.1624" lon="6.31114">
        <ele>515.8</ele>
        <time>2021-04-03T15:22:22Z</time>
      </trkpt>
      <trkpt lat="46.16245" lon="6.31108">
        <ele>516</ele>
        <time>2021-04-03T15:22:23Z</time>
      </trkpt>
      <trkpt lat="46.16251" lon="6.31103">
        <ele>515.6</ele>
        <time>2021-04-03T15:22:24Z</time>
      </trkpt>
      <trkpt lat="46.16257" lon="6.31098">
        <ele>515.6</ele>
        <time>2021-04-03T15:22:25Z</time>
      </trkpt>
      <trkpt lat="46.16262" lon="6.31092">
        <ele>515.4</ele>
        <time>2021-04-03T15:22:26Z</time>
      </trkpt>
      <trkpt lat="46.16268" lon="6.31087">
        <ele>515.2</ele>
        <time>2021-04-03T15:22:27Z</time>
      </trkpt>
      <trkpt lat="46.16274" lon="6.31082">
        <ele>515</ele>
        <time>2021-04-03T15:22:28Z</time>
      </trkpt>
      <trkpt lat="46.1628" lon="6.31077">
        <ele>514.8</ele>
        <time>2021-04-03T15:22:29Z</time>
      </trkpt>
      <trkpt lat="46.16286" lon="6.31071">
        <ele>514.6</ele>
        <time>2021-04-03T15:22:30Z</time>
      </trkpt>
      <trkpt lat="46.16292" lon="6.31065">
        <ele>514.6</ele>
        <time>2021-04-03T15:22:31Z</time>
      </trkpt>
      <trkpt lat="46.16296" lon="6.31057">
        <ele>514.8</ele>
        <time>2021-04-03T15:22:32Z</time>
      </trkpt>
      <trkpt lat="46.16301" lon="6.31049">
        <ele>514.6</ele>
        <time>2021-04-03T15:22:33Z</time>
      </trkpt>
      <trkpt lat="46.16305" lon="6.31041">
        <ele>514.8</ele>
        <time>2021-04-03T15:22:34Z</time>
      </trkpt>
      <trkpt lat="46.16309" lon="6.31032">
        <ele>514.6</ele>
        <time>2021-04-03T15:22:35Z</time>
      </trkpt>
      <trkpt lat="46.16313" lon="6.31024">
        <ele>514.6</ele>
        <time>2021-04-03T15:22:36Z</time>
      </trkpt>
      <trkpt lat="46.16317" lon="6.31017">
        <ele>514.6</ele>
        <time>2021-04-03T15:22:37Z</time>
      </trkpt>
      <trkpt lat="46.16321" lon="6.3101">
        <ele>514.6</ele>
        <time>2021-04-03T15:22:38Z</time>
      </trkpt>
      <trkpt lat="46.16324" lon="6.31002">
        <ele>514.6</ele>
        <time>2021-04-03T15:22:39Z</time>
      </trkpt>
      <trkpt lat="46.16328" lon="6.30995">
        <ele>514.6</ele>
        <time>2021-04-03T15:22:40Z</time>
      </trkpt>
      <trkpt lat="46.16332" lon="6.30988">
        <ele>514.6</ele>
        <time>2021-04-03T15:22:41Z</time>
      </trkpt>
      <trkpt lat="46.16336" lon="6.3098">
        <ele>514.6</ele>
        <time>2021-04-03T15:22:42Z</time>
      </trkpt>
      <trkpt lat="46.1634" lon="6.30973">
        <ele>514.6</ele>
        <time>2021-04-03T15:22:43Z</time>
      </trkpt>
      <trkpt lat="46.16344" lon="6.30966">
        <ele>514.8</ele>
        <time>2021-04-03T15:22:44Z</time>
      </trkpt>
      <trkpt lat="46.16347" lon="6.30959">
        <ele>515</ele>
        <time>2021-04-03T15:22:45Z</time>
      </trkpt>
      <trkpt lat="46.16351" lon="6.30952">
        <ele>515</ele>
        <time>2021-04-03T15:22:46Z</time>
      </trkpt>
      <trkpt lat="46.16355" lon="6.30945">
        <ele>515</ele>
        <time>2021-04-03T15:22:47Z</time>
      </trkpt>
      <trkpt lat="46.1636" lon="6.30939">
        <ele>515</ele>
        <time>2021-04-03T15:22:48Z</time>
      </trkpt>
      <trkpt lat="46.16364" lon="6.30933">
        <ele>514.8</ele>
        <time>2021-04-03T15:22:49Z</time>
      </trkpt>
      <trkpt lat="46.16369" lon="6.30927">
        <ele>514.8</ele>
        <time>2021-04-03T15:22:50Z</time>
      </trkpt>
      <trkpt lat="46.16374" lon="6.30921">
        <ele>514.8</ele>
        <time>2021-04-03T15:22:51Z</time>
      </trkpt>
      <trkpt lat="46.16379" lon="6.30915">
        <ele>515</ele>
        <time>2021-04-03T15:22:52Z</time>
      </trkpt>
      <trkpt lat="46.16384" lon="6.30909">
        <ele>514.8</ele>
        <time>2021-04-03T15:22:53Z</time>
      </trkpt>
      <trkpt lat="46.16388" lon="6.30903">
        <ele>514.6</ele>
        <time>2021-04-03T15:22:54Z</time>
      </trkpt>
      <trkpt lat="46.16392" lon="6.30897">
        <ele>514.4</ele>
        <time>2021-04-03T15:22:55Z</time>
      </trkpt>
      <trkpt lat="46.16397" lon="6.30891">
        <ele>514.6</ele>
        <time>2021-04-03T15:22:56Z</time>
      </trkpt>
      <trkpt lat="46.16401" lon="6.30885">
        <ele>514.6</ele>
        <time>2021-04-03T15:22:57Z</time>
      </trkpt>
      <trkpt lat="46.16405" lon="6.30879">
        <ele>514.6</ele>
        <time>2021-04-03T15:22:58Z</time>
      </trkpt>
      <trkpt lat="46.1641" lon="6.30873">
        <ele>514.6</ele>
        <time>2021-04-03T15:22:59Z</time>
      </trkpt>
      <trkpt lat="46.16414" lon="6.30867">
        <ele>514.4</ele>
        <time>2021-04-03T15:23:00Z</time>
      </trkpt>
      <trkpt lat="46.16418" lon="6.30861">
        <ele>514.2</ele>
        <time>2021-04-03T15:23:01Z</time>
      </trkpt>
      <trkpt lat="46.16422" lon="6.30855">
        <ele>514.2</ele>
        <time>2021-04-03T15:23:02Z</time>
      </trkpt>
      <trkpt lat="46.16427" lon="6.30849">
        <ele>514.2</ele>
        <time>2021-04-03T15:23:03Z</time>
      </trkpt>
      <trkpt lat="46.16432" lon="6.30843">
        <ele>514.2</ele>
        <time>2021-04-03T15:23:04Z</time>
      </trkpt>
      <trkpt lat="46.16436" lon="6.30838">
        <ele>513.6</ele>
        <time>2021-04-03T15:23:05Z</time>
      </trkpt>
      <trkpt lat="46.16441" lon="6.30833">
        <ele>513.4</ele>
        <time>2021-04-03T15:23:06Z</time>
      </trkpt>
      <trkpt lat="46.16447" lon="6.30827">
        <ele>513</ele>
        <time>2021-04-03T15:23:07Z</time>
      </trkpt>
      <trkpt lat="46.16452" lon="6.30822">
        <ele>512.4</ele>
        <time>2021-04-03T15:23:08Z</time>
      </trkpt>
      <trkpt lat="46.16457" lon="6.30817">
        <ele>512.2</ele>
        <time>2021-04-03T15:23:09Z</time>
      </trkpt>
      <trkpt lat="46.16462" lon="6.30813">
        <ele>512</ele>
        <time>2021-04-03T15:23:10Z</time>
      </trkpt>
      <trkpt lat="46.16468" lon="6.30808">
        <ele>512</ele>
        <time>2021-04-03T15:23:11Z</time>
      </trkpt>
      <trkpt lat="46.16473" lon="6.30804">
        <ele>512</ele>
        <time>2021-04-03T15:23:12Z</time>
      </trkpt>
      <trkpt lat="46.16479" lon="6.308">
        <ele>511.8</ele>
        <time>2021-04-03T15:23:13Z</time>
      </trkpt>
      <trkpt lat="46.16484" lon="6.30795">
        <ele>511.6</ele>
        <time>2021-04-03T15:23:14Z</time>
      </trkpt>
      <trkpt lat="46.1649" lon="6.30791">
        <ele>511.4</ele>
        <time>2021-04-03T15:23:15Z</time>
      </trkpt>
      <trkpt lat="46.16495" lon="6.30787">
        <ele>511.2</ele>
        <time>2021-04-03T15:23:16Z</time>
      </trkpt>
      <trkpt lat="46.165" lon="6.30782">
        <ele>511</ele>
        <time>2021-04-03T15:23:17Z</time>
      </trkpt>
      <trkpt lat="46.16505" lon="6.30778">
        <ele>510.6</ele>
        <time>2021-04-03T15:23:18Z</time>
      </trkpt>
      <trkpt lat="46.1651" lon="6.30774">
        <ele>510.6</ele>
        <time>2021-04-03T15:23:19Z</time>
      </trkpt>
      <trkpt lat="46.16515" lon="6.3077">
        <ele>510.6</ele>
        <time>2021-04-03T15:23:20Z</time>
      </trkpt>
      <trkpt lat="46.1652" lon="6.30766">
        <ele>510.6</ele>
        <time>2021-04-03T15:23:21Z</time>
      </trkpt>
      <trkpt lat="46.16525" lon="6.30762">
        <ele>510.6</ele>
        <time>2021-04-03T15:23:22Z</time>
      </trkpt>
      <trkpt lat="46.1653" lon="6.30758">
        <ele>510.6</ele>
        <time>2021-04-03T15:23:23Z</time>
      </trkpt>
      <trkpt lat="46.16535" lon="6.30754">
        <ele>510.6</ele>
        <time>2021-04-03T15:23:24Z</time>
      </trkpt>
      <trkpt lat="46.1654" lon="6.3075">
        <ele>510.6</ele>
        <time>2021-04-03T15:23:25Z</time>
      </trkpt>
      <trkpt lat="46.16545" lon="6.30746">
        <ele>510.6</ele>
        <time>2021-04-03T15:23:26Z</time>
      </trkpt>
      <trkpt lat="46.1655" lon="6.30742">
        <ele>510.6</ele>
        <time>2021-04-03T15:23:27Z</time>
      </trkpt>
      <trkpt lat="46.16554" lon="6.30737">
        <ele>510.6</ele>
        <time>2021-04-03T15:23:28Z</time>
      </trkpt>
      <trkpt lat="46.16559" lon="6.30732">
        <ele>510.4</ele>
        <time>2021-04-03T15:23:29Z</time>
      </trkpt>
      <trkpt lat="46.16563" lon="6.30727">
        <ele>510</ele>
        <time>2021-04-03T15:23:30Z</time>
      </trkpt>
      <trkpt lat="46.16568" lon="6.30722">
        <ele>509.8</ele>
        <time>2021-04-03T15:23:31Z</time>
      </trkpt>
      <trkpt lat="46.16572" lon="6.30717">
        <ele>509.8</ele>
        <time>2021-04-03T15:23:32Z</time>
      </trkpt>
      <trkpt lat="46.16576" lon="6.30712">
        <ele>510</ele>
        <time>2021-04-03T15:23:33Z</time>
      </trkpt>
      <trkpt lat="46.1658" lon="6.30706">
        <ele>510.2</ele>
        <time>2021-04-03T15:23:34Z</time>
      </trkpt>
      <trkpt lat="46.16584" lon="6.307">
        <ele>510.4</ele>
        <time>2021-04-03T15:23:35Z</time>
      </trkpt>
      <trkpt lat="46.16588" lon="6.30695">
        <ele>510.4</ele>
        <time>2021-04-03T15:23:36Z</time>
      </trkpt>
      <trkpt lat="46.16591" lon="6.30689">
        <ele>510.8</ele>
        <time>2021-04-03T15:23:37Z</time>
      </trkpt>
      <trkpt lat="46.16595" lon="6.30684">
        <ele>511.4</ele>
        <time>2021-04-03T15:23:38Z</time>
      </trkpt>
      <trkpt lat="46.16599" lon="6.30678">
        <ele>511.8</ele>
        <time>2021-04-03T15:23:39Z</time>
      </trkpt>
      <trkpt lat="46.16603" lon="6.30672">
        <ele>512.2</ele>
        <time>2021-04-03T15:23:40Z</time>
      </trkpt>
      <trkpt lat="46.16607" lon="6.30666">
        <ele>512.2</ele>
        <time>2021-04-03T15:23:41Z</time>
      </trkpt>
      <trkpt lat="46.1661" lon="6.3066">
        <ele>512.4</ele>
        <time>2021-04-03T15:23:42Z</time>
      </trkpt>
      <trkpt lat="46.16613" lon="6.30654">
        <ele>512</ele>
        <time>2021-04-03T15:23:43Z</time>
      </trkpt>
      <trkpt lat="46.16616" lon="6.30647">
        <ele>511.6</ele>
        <time>2021-04-03T15:23:44Z</time>
      </trkpt>
      <trkpt lat="46.16619" lon="6.30639">
        <ele>511.2</ele>
        <time>2021-04-03T15:23:45Z</time>
      </trkpt>
      <trkpt lat="46.16622" lon="6.30632">
        <ele>511.2</ele>
        <time>2021-04-03T15:23:46Z</time>
      </trkpt>
      <trkpt lat="46.16624" lon="6.30623">
        <ele>511.2</ele>
        <time>2021-04-03T15:23:47Z</time>
      </trkpt>
      <trkpt lat="46.16627" lon="6.30615">
        <ele>511.4</ele>
        <time>2021-04-03T15:23:48Z</time>
      </trkpt>
      <trkpt lat="46.16629" lon="6.30606">
        <ele>511.6</ele>
        <time>2021-04-03T15:23:49Z</time>
      </trkpt>
      <trkpt lat="46.16632" lon="6.30598">
        <ele>512</ele>
        <time>2021-04-03T15:23:50Z</time>
      </trkpt>
      <trkpt lat="46.16634" lon="6.3059">
        <ele>512.2</ele>
        <time>2021-04-03T15:23:51Z</time>
      </trkpt>
      <trkpt lat="46.16637" lon="6.30583">
        <ele>512</ele>
        <time>2021-04-03T15:23:52Z</time>
      </trkpt>
      <trkpt lat="46.16639" lon="6.30575">
        <ele>512</ele>
        <time>2021-04-03T15:23:53Z</time>
      </trkpt>
      <trkpt lat="46.16642" lon="6.30567">
        <ele>511.8</ele>
        <time>2021-04-03T15:23:54Z</time>
      </trkpt>
      <trkpt lat="46.16643" lon="6.30559">
        <ele>511.6</ele>
        <time>2021-04-03T15:23:55Z</time>
      </trkpt>
      <trkpt lat="46.16643" lon="6.3055">
        <ele>511.4</ele>
        <time>2021-04-03T15:23:56Z</time>
      </trkpt>
      <trkpt lat="46.16642" lon="6.30541">
        <ele>511</ele>
        <time>2021-04-03T15:23:57Z</time>
      </trkpt>
      <trkpt lat="46.1664" lon="6.30532">
        <ele>510.8</ele>
        <time>2021-04-03T15:23:58Z</time>
      </trkpt>
      <trkpt lat="46.16636" lon="6.30524">
        <ele>510.4</ele>
        <time>2021-04-03T15:23:59Z</time>
      </trkpt>
      <trkpt lat="46.16632" lon="6.30516">
        <ele>510.4</ele>
        <time>2021-04-03T15:24:00Z</time>
      </trkpt>
      <trkpt lat="46.16627" lon="6.30509">
        <ele>510.6</ele>
        <time>2021-04-03T15:24:01Z</time>
      </trkpt>
      <trkpt lat="46.1662" lon="6.30502">
        <ele>510.4</ele>
        <time>2021-04-03T15:24:02Z</time>
      </trkpt>
      <trkpt lat="46.16612" lon="6.30495">
        <ele>510.4</ele>
        <time>2021-04-03T15:24:03Z</time>
      </trkpt>
      <trkpt lat="46.16602" lon="6.30487">
        <ele>509.6</ele>
        <time>2021-04-03T15:24:04Z</time>
      </trkpt>
      <trkpt lat="46.16593" lon="6.30479">
        <ele>509.2</ele>
        <time>2021-04-03T15:24:05Z</time>
      </trkpt>
      <trkpt lat="46.16584" lon="6.30469">
        <ele>508.6</ele>
        <time>2021-04-03T15:24:06Z</time>
      </trkpt>
      <trkpt lat="46.16576" lon="6.30457">
        <ele>508</ele>
        <time>2021-04-03T15:24:07Z</time>
      </trkpt>
      <trkpt lat="46.16568" lon="6.30445">
        <ele>507.8</ele>
        <time>2021-04-03T15:24:08Z</time>
      </trkpt>
      <trkpt lat="46.1656" lon="6.30432">
        <ele>507.4</ele>
        <time>2021-04-03T15:24:09Z</time>
      </trkpt>
      <trkpt lat="46.16552" lon="6.30418">
        <ele>507.4</ele>
        <time>2021-04-03T15:24:10Z</time>
      </trkpt>
      <trkpt lat="46.16545" lon="6.30406">
        <ele>506.8</ele>
        <time>2021-04-03T15:24:11Z</time>
      </trkpt>
      <trkpt lat="46.16538" lon="6.30392">
        <ele>506.8</ele>
        <time>2021-04-03T15:24:12Z</time>
      </trkpt>
      <trkpt lat="46.1653" lon="6.30379">
        <ele>506.6</ele>
        <time>2021-04-03T15:24:13Z</time>
      </trkpt>
      <trkpt lat="46.16523" lon="6.30366">
        <ele>505.6</ele>
        <time>2021-04-03T15:24:14Z</time>
      </trkpt>
      <trkpt lat="46.16516" lon="6.30353">
        <ele>504.6</ele>
        <time>2021-04-03T15:24:15Z</time>
      </trkpt>
      <trkpt lat="46.16509" lon="6.30341">
        <ele>503.2</ele>
        <time>2021-04-03T15:24:16Z</time>
      </trkpt>
      <trkpt lat="46.16502" lon="6.30328">
        <ele>502.2</ele>
        <time>2021-04-03T15:24:17Z</time>
      </trkpt>
      <trkpt lat="46.16494" lon="6.30316">
        <ele>501</ele>
        <time>2021-04-03T15:24:18Z</time>
      </trkpt>
      <trkpt lat="46.16487" lon="6.30303">
        <ele>500.2</ele>
        <time>2021-04-03T15:24:19Z</time>
      </trkpt>
      <trkpt lat="46.1648" lon="6.3029">
        <ele>498</ele>
        <time>2021-04-03T15:24:20Z</time>
      </trkpt>
      <trkpt lat="46.16472" lon="6.30278">
        <ele>496.2</ele>
        <time>2021-04-03T15:24:21Z</time>
      </trkpt>
      <trkpt lat="46.16465" lon="6.30265">
        <ele>495.4</ele>
        <time>2021-04-03T15:24:22Z</time>
      </trkpt>
      <trkpt lat="46.16457" lon="6.30252">
        <ele>495</ele>
        <time>2021-04-03T15:24:23Z</time>
      </trkpt>
      <trkpt lat="46.1645" lon="6.3024">
        <ele>494.6</ele>
        <time>2021-04-03T15:24:24Z</time>
      </trkpt>
      <trkpt lat="46.16442" lon="6.30227">
        <ele>494.2</ele>
        <time>2021-04-03T15:24:25Z</time>
      </trkpt>
      <trkpt lat="46.16435" lon="6.30215">
        <ele>494</ele>
        <time>2021-04-03T15:24:26Z</time>
      </trkpt>
      <trkpt lat="46.16427" lon="6.30203">
        <ele>493.8</ele>
        <time>2021-04-03T15:24:27Z</time>
      </trkpt>
      <trkpt lat="46.1642" lon="6.30191">
        <ele>493.8</ele>
        <time>2021-04-03T15:24:28Z</time>
      </trkpt>
      <trkpt lat="46.16412" lon="6.30178">
        <ele>493.6</ele>
        <time>2021-04-03T15:24:29Z</time>
      </trkpt>
      <trkpt lat="46.16405" lon="6.30166">
        <ele>493.4</ele>
        <time>2021-04-03T15:24:30Z</time>
      </trkpt>
      <trkpt lat="46.16397" lon="6.30154">
        <ele>493.4</ele>
        <time>2021-04-03T15:24:31Z</time>
      </trkpt>
      <trkpt lat="46.1639" lon="6.30142">
        <ele>493</ele>
        <time>2021-04-03T15:24:32Z</time>
      </trkpt>
      <trkpt lat="46.16383" lon="6.30131">
        <ele>493</ele>
        <time>2021-04-03T15:24:33Z</time>
      </trkpt>
      <trkpt lat="46.16376" lon="6.30119">
        <ele>492.6</ele>
        <time>2021-04-03T15:24:34Z</time>
      </trkpt>
      <trkpt lat="46.16368" lon="6.30108">
        <ele>492.2</ele>
        <time>2021-04-03T15:24:35Z</time>
      </trkpt>
      <trkpt lat="46.16361" lon="6.30096">
        <ele>492</ele>
        <time>2021-04-03T15:24:36Z</time>
      </trkpt>
      <trkpt lat="46.16354" lon="6.30085">
        <ele>491.8</ele>
        <time>2021-04-03T15:24:37Z</time>
      </trkpt>
      <trkpt lat="46.16347" lon="6.30073">
        <ele>491.4</ele>
        <time>2021-04-03T15:24:38Z</time>
      </trkpt>
      <trkpt lat="46.1634" lon="6.30062">
        <ele>491.2</ele>
        <time>2021-04-03T15:24:39Z</time>
      </trkpt>
      <trkpt lat="46.16333" lon="6.3005">
        <ele>490.8</ele>
        <time>2021-04-03T15:24:40Z</time>
      </trkpt>
      <trkpt lat="46.16326" lon="6.30038">
        <ele>490.6</ele>
        <time>2021-04-03T15:24:41Z</time>
      </trkpt>
      <trkpt lat="46.1632" lon="6.30026">
        <ele>490.6</ele>
        <time>2021-04-03T15:24:42Z</time>
      </trkpt>
      <trkpt lat="46.16313" lon="6.30014">
        <ele>490.4</ele>
        <time>2021-04-03T15:24:43Z</time>
      </trkpt>
      <trkpt lat="46.16307" lon="6.30002">
        <ele>490.2</ele>
        <time>2021-04-03T15:24:44Z</time>
      </trkpt>
      <trkpt lat="46.163" lon="6.29991">
        <ele>490</ele>
        <time>2021-04-03T15:24:45Z</time>
      </trkpt>
      <trkpt lat="46.16294" lon="6.29979">
        <ele>489.6</ele>
        <time>2021-04-03T15:24:46Z</time>
      </trkpt>
      <trkpt lat="46.16288" lon="6.29968">
        <ele>489.4</ele>
        <time>2021-04-03T15:24:47Z</time>
      </trkpt>
      <trkpt lat="46.16283" lon="6.29957">
        <ele>489.4</ele>
        <time>2021-04-03T15:24:48Z</time>
      </trkpt>
      <trkpt lat="46.16277" lon="6.29945">
        <ele>489</ele>
        <time>2021-04-03T15:24:49Z</time>
      </trkpt>
      <trkpt lat="46.16272" lon="6.29934">
        <ele>488.8</ele>
        <time>2021-04-03T15:24:50Z</time>
      </trkpt>
      <trkpt lat="46.16268" lon="6.29922">
        <ele>488.8</ele>
        <time>2021-04-03T15:24:51Z</time>
      </trkpt>
      <trkpt lat="46.16263" lon="6.29909">
        <ele>488.8</ele>
        <time>2021-04-03T15:24:52Z</time>
      </trkpt>
      <trkpt lat="46.16259" lon="6.29896">
        <ele>488.6</ele>
        <time>2021-04-03T15:24:53Z</time>
      </trkpt>
      <trkpt lat="46.16255" lon="6.29882">
        <ele>488.4</ele>
        <time>2021-04-03T15:24:54Z</time>
      </trkpt>
      <trkpt lat="46.16251" lon="6.29869">
        <ele>488.4</ele>
        <time>2021-04-03T15:24:55Z</time>
      </trkpt>
      <trkpt lat="46.16247" lon="6.29855">
        <ele>488.2</ele>
        <time>2021-04-03T15:24:56Z</time>
      </trkpt>
      <trkpt lat="46.16244" lon="6.29842">
        <ele>488</ele>
        <time>2021-04-03T15:24:57Z</time>
      </trkpt>
      <trkpt lat="46.1624" lon="6.29829">
        <ele>488</ele>
        <time>2021-04-03T15:24:58Z</time>
      </trkpt>
      <trkpt lat="46.16237" lon="6.29816">
        <ele>487.8</ele>
        <time>2021-04-03T15:24:59Z</time>
      </trkpt>
      <trkpt lat="46.16234" lon="6.29803">
        <ele>487.4</ele>
        <time>2021-04-03T15:25:00Z</time>
      </trkpt>
      <trkpt lat="46.16231" lon="6.29791">
        <ele>487.4</ele>
        <time>2021-04-03T15:25:01Z</time>
      </trkpt>
      <trkpt lat="46.16227" lon="6.29778">
        <ele>487.4</ele>
        <time>2021-04-03T15:25:02Z</time>
      </trkpt>
      <trkpt lat="46.16224" lon="6.29766">
        <ele>487.2</ele>
        <time>2021-04-03T15:25:03Z</time>
      </trkpt>
      <trkpt lat="46.16221" lon="6.29753">
        <ele>487</ele>
        <time>2021-04-03T15:25:04Z</time>
      </trkpt>
      <trkpt lat="46.16218" lon="6.29741">
        <ele>487</ele>
        <time>2021-04-03T15:25:05Z</time>
      </trkpt>
      <trkpt lat="46.16213" lon="6.29716">
        <ele>486.6</ele>
        <time>2021-04-03T15:25:07Z</time>
      </trkpt>
      <trkpt lat="46.16212" lon="6.29703">
        <ele>486.4</ele>
        <time>2021-04-03T15:25:08Z</time>
      </trkpt>
      <trkpt lat="46.16211" lon="6.2969">
        <ele>486.4</ele>
        <time>2021-04-03T15:25:09Z</time>
      </trkpt>
      <trkpt lat="46.16211" lon="6.29676">
        <ele>486.2</ele>
        <time>2021-04-03T15:25:10Z</time>
      </trkpt>
      <trkpt lat="46.16213" lon="6.29663">
        <ele>486.2</ele>
        <time>2021-04-03T15:25:11Z</time>
      </trkpt>
      <trkpt lat="46.16215" lon="6.29649">
        <ele>486.2</ele>
        <time>2021-04-03T15:25:12Z</time>
      </trkpt>
      <trkpt lat="46.16217" lon="6.29636">
        <ele>486.2</ele>
        <time>2021-04-03T15:25:13Z</time>
      </trkpt>
      <trkpt lat="46.16218" lon="6.29623">
        <ele>486</ele>
        <time>2021-04-03T15:25:14Z</time>
      </trkpt>
      <trkpt lat="46.1622" lon="6.2961">
        <ele>485.8</ele>
        <time>2021-04-03T15:25:15Z</time>
      </trkpt>
      <trkpt lat="46.16221" lon="6.29596">
        <ele>485.6</ele>
        <time>2021-04-03T15:25:16Z</time>
      </trkpt>
      <trkpt lat="46.16222" lon="6.29582">
        <ele>485.4</ele>
        <time>2021-04-03T15:25:17Z</time>
      </trkpt>
      <trkpt lat="46.16222" lon="6.29568">
        <ele>485.2</ele>
        <time>2021-04-03T15:25:18Z</time>
      </trkpt>
      <trkpt lat="46.16221" lon="6.29554">
        <ele>485.2</ele>
        <time>2021-04-03T15:25:19Z</time>
      </trkpt>
      <trkpt lat="46.16221" lon="6.29541">
        <ele>485.2</ele>
        <time>2021-04-03T15:25:20Z</time>
      </trkpt>
      <trkpt lat="46.1622" lon="6.29527">
        <ele>485</ele>
        <time>2021-04-03T15:25:21Z</time>
      </trkpt>
      <trkpt lat="46.16219" lon="6.29514">
        <ele>484.4</ele>
        <time>2021-04-03T15:25:22Z</time>
      </trkpt>
      <trkpt lat="46.16218" lon="6.29501">
        <ele>483.6</ele>
        <time>2021-04-03T15:25:23Z</time>
      </trkpt>
      <trkpt lat="46.16217" lon="6.29487">
        <ele>483</ele>
        <time>2021-04-03T15:25:24Z</time>
      </trkpt>
      <trkpt lat="46.16217" lon="6.29474">
        <ele>482.8</ele>
        <time>2021-04-03T15:25:25Z</time>
      </trkpt>
      <trkpt lat="46.16216" lon="6.29461">
        <ele>482.8</ele>
        <time>2021-04-03T15:25:26Z</time>
      </trkpt>
      <trkpt lat="46.16215" lon="6.29448">
        <ele>482.8</ele>
        <time>2021-04-03T15:25:27Z</time>
      </trkpt>
      <trkpt lat="46.16214" lon="6.29434">
        <ele>482.6</ele>
        <time>2021-04-03T15:25:28Z</time>
      </trkpt>
      <trkpt lat="46.16213" lon="6.29421">
        <ele>482.6</ele>
        <time>2021-04-03T15:25:29Z</time>
      </trkpt>
      <trkpt lat="46.16211" lon="6.29408">
        <ele>482.6</ele>
        <time>2021-04-03T15:25:30Z</time>
      </trkpt>
      <trkpt lat="46.16208" lon="6.29394">
        <ele>482.4</ele>
        <time>2021-04-03T15:25:31Z</time>
      </trkpt>
      <trkpt lat="46.16205" lon="6.29381">
        <ele>482.2</ele>
        <time>2021-04-03T15:25:32Z</time>
      </trkpt>
      <trkpt lat="46.16202" lon="6.29368">
        <ele>482.2</ele>
        <time>2021-04-03T15:25:33Z</time>
      </trkpt>
      <trkpt lat="46.16198" lon="6.29355">
        <ele>482</ele>
        <time>2021-04-03T15:25:34Z</time>
      </trkpt>
      <trkpt lat="46.16194" lon="6.29341">
        <ele>482.2</ele>
        <time>2021-04-03T15:25:35Z</time>
      </trkpt>
      <trkpt lat="46.16191" lon="6.29328">
        <ele>482</ele>
        <time>2021-04-03T15:25:36Z</time>
      </trkpt>
      <trkpt lat="46.16187" lon="6.29314">
        <ele>482.2</ele>
        <time>2021-04-03T15:25:37Z</time>
      </trkpt>
      <trkpt lat="46.16184" lon="6.293">
        <ele>482</ele>
        <time>2021-04-03T15:25:38Z</time>
      </trkpt>
      <trkpt lat="46.1618" lon="6.29287">
        <ele>482.2</ele>
        <time>2021-04-03T15:25:39Z</time>
      </trkpt>
      <trkpt lat="46.16177" lon="6.29273">
        <ele>482.2</ele>
        <time>2021-04-03T15:25:40Z</time>
      </trkpt>
      <trkpt lat="46.16173" lon="6.29259">
        <ele>482.2</ele>
        <time>2021-04-03T15:25:41Z</time>
      </trkpt>
      <trkpt lat="46.16169" lon="6.29245">
        <ele>482.2</ele>
        <time>2021-04-03T15:25:42Z</time>
      </trkpt>
      <trkpt lat="46.16165" lon="6.29231">
        <ele>482.2</ele>
        <time>2021-04-03T15:25:43Z</time>
      </trkpt>
      <trkpt lat="46.1616" lon="6.29217">
        <ele>481.8</ele>
        <time>2021-04-03T15:25:44Z</time>
      </trkpt>
      <trkpt lat="46.16156" lon="6.29203">
        <ele>481.8</ele>
        <time>2021-04-03T15:25:45Z</time>
      </trkpt>
      <trkpt lat="46.16153" lon="6.2919">
        <ele>481.4</ele>
        <time>2021-04-03T15:25:46Z</time>
      </trkpt>
      <trkpt lat="46.16149" lon="6.29176">
        <ele>480.6</ele>
        <time>2021-04-03T15:25:47Z</time>
      </trkpt>
      <trkpt lat="46.16145" lon="6.29163">
        <ele>479.6</ele>
        <time>2021-04-03T15:25:48Z</time>
      </trkpt>
      <trkpt lat="46.16142" lon="6.2915">
        <ele>479</ele>
        <time>2021-04-03T15:25:49Z</time>
      </trkpt>
      <trkpt lat="46.16138" lon="6.29137">
        <ele>478.8</ele>
        <time>2021-04-03T15:25:50Z</time>
      </trkpt>
      <trkpt lat="46.16135" lon="6.29124">
        <ele>478.6</ele>
        <time>2021-04-03T15:25:51Z</time>
      </trkpt>
      <trkpt lat="46.16131" lon="6.2911">
        <ele>478.6</ele>
        <time>2021-04-03T15:25:52Z</time>
      </trkpt>
      <trkpt lat="46.16128" lon="6.29097">
        <ele>478.4</ele>
        <time>2021-04-03T15:25:53Z</time>
      </trkpt>
      <trkpt lat="46.16124" lon="6.29083">
        <ele>478.2</ele>
        <time>2021-04-03T15:25:54Z</time>
      </trkpt>
      <trkpt lat="46.1612" lon="6.29069">
        <ele>478</ele>
        <time>2021-04-03T15:25:55Z</time>
      </trkpt>
      <trkpt lat="46.16117" lon="6.29055">
        <ele>477.8</ele>
        <time>2021-04-03T15:25:56Z</time>
      </trkpt>
      <trkpt lat="46.16113" lon="6.29041">
        <ele>477.6</ele>
        <time>2021-04-03T15:25:57Z</time>
      </trkpt>
      <trkpt lat="46.1611" lon="6.29027">
        <ele>477.4</ele>
        <time>2021-04-03T15:25:58Z</time>
      </trkpt>
      <trkpt lat="46.16106" lon="6.29014">
        <ele>477.2</ele>
        <time>2021-04-03T15:25:59Z</time>
      </trkpt>
      <trkpt lat="46.16102" lon="6.29">
        <ele>477</ele>
        <time>2021-04-03T15:26:00Z</time>
      </trkpt>
      <trkpt lat="46.16099" lon="6.28986">
        <ele>476.4</ele>
        <time>2021-04-03T15:26:01Z</time>
      </trkpt>
      <trkpt lat="46.16096" lon="6.28973">
        <ele>475.6</ele>
        <time>2021-04-03T15:26:02Z</time>
      </trkpt>
      <trkpt lat="46.16093" lon="6.2896">
        <ele>474.8</ele>
        <time>2021-04-03T15:26:03Z</time>
      </trkpt>
      <trkpt lat="46.16089" lon="6.28947">
        <ele>474.4</ele>
        <time>2021-04-03T15:26:04Z</time>
      </trkpt>
      <trkpt lat="46.16086" lon="6.28934">
        <ele>473.8</ele>
        <time>2021-04-03T15:26:05Z</time>
      </trkpt>
      <trkpt lat="46.16083" lon="6.28921">
        <ele>473</ele>
        <time>2021-04-03T15:26:06Z</time>
      </trkpt>
      <trkpt lat="46.1608" lon="6.28909">
        <ele>472.4</ele>
        <time>2021-04-03T15:26:07Z</time>
      </trkpt>
      <trkpt lat="46.16076" lon="6.28897">
        <ele>472.2</ele>
        <time>2021-04-03T15:26:08Z</time>
      </trkpt>
      <trkpt lat="46.16073" lon="6.28885">
        <ele>472</ele>
        <time>2021-04-03T15:26:09Z</time>
      </trkpt>
      <trkpt lat="46.16069" lon="6.28873">
        <ele>471.8</ele>
        <time>2021-04-03T15:26:10Z</time>
      </trkpt>
      <trkpt lat="46.16066" lon="6.28861">
        <ele>471.6</ele>
        <time>2021-04-03T15:26:11Z</time>
      </trkpt>
      <trkpt lat="46.16062" lon="6.28849">
        <ele>471.2</ele>
        <time>2021-04-03T15:26:12Z</time>
      </trkpt>
      <trkpt lat="46.16058" lon="6.28838">
        <ele>471.2</ele>
        <time>2021-04-03T15:26:13Z</time>
      </trkpt>
      <trkpt lat="46.16054" lon="6.28827">
        <ele>471</ele>
        <time>2021-04-03T15:26:14Z</time>
      </trkpt>
      <trkpt lat="46.1605" lon="6.28817">
        <ele>471</ele>
        <time>2021-04-03T15:26:15Z</time>
      </trkpt>
      <trkpt lat="46.16045" lon="6.28806">
        <ele>471</ele>
        <time>2021-04-03T15:26:16Z</time>
      </trkpt>
      <trkpt lat="46.16041" lon="6.28796">
        <ele>471</ele>
        <time>2021-04-03T15:26:17Z</time>
      </trkpt>
      <trkpt lat="46.16037" lon="6.28786">
        <ele>471</ele>
        <time>2021-04-03T15:26:18Z</time>
      </trkpt>
      <trkpt lat="46.16033" lon="6.28776">
        <ele>470.8</ele>
        <time>2021-04-03T15:26:19Z</time>
      </trkpt>
      <trkpt lat="46.16028" lon="6.28766">
        <ele>471</ele>
        <time>2021-04-03T15:26:20Z</time>
      </trkpt>
      <trkpt lat="46.16024" lon="6.28755">
        <ele>470.8</ele>
        <time>2021-04-03T15:26:21Z</time>
      </trkpt>
      <trkpt lat="46.16019" lon="6.28745">
        <ele>471</ele>
        <time>2021-04-03T15:26:22Z</time>
      </trkpt>
      <trkpt lat="46.16014" lon="6.28735">
        <ele>471.2</ele>
        <time>2021-04-03T15:26:23Z</time>
      </trkpt>
      <trkpt lat="46.16008" lon="6.28725">
        <ele>471.2</ele>
        <time>2021-04-03T15:26:24Z</time>
      </trkpt>
      <trkpt lat="46.16002" lon="6.28715">
        <ele>471.2</ele>
        <time>2021-04-03T15:26:25Z</time>
      </trkpt>
      <trkpt lat="46.15996" lon="6.28705">
        <ele>471.2</ele>
        <time>2021-04-03T15:26:26Z</time>
      </trkpt>
      <trkpt lat="46.1599" lon="6.28695">
        <ele>471.2</ele>
        <time>2021-04-03T15:26:27Z</time>
      </trkpt>
      <trkpt lat="46.15985" lon="6.28686">
        <ele>471.2</ele>
        <time>2021-04-03T15:26:28Z</time>
      </trkpt>
      <trkpt lat="46.15979" lon="6.28676">
        <ele>471.2</ele>
        <time>2021-04-03T15:26:29Z</time>
      </trkpt>
      <trkpt lat="46.15974" lon="6.28666">
        <ele>471.2</ele>
        <time>2021-04-03T15:26:30Z</time>
      </trkpt>
      <trkpt lat="46.15968" lon="6.28657">
        <ele>471.2</ele>
        <time>2021-04-03T15:26:31Z</time>
      </trkpt>
      <trkpt lat="46.15962" lon="6.28647">
        <ele>471.2</ele>
        <time>2021-04-03T15:26:32Z</time>
      </trkpt>
      <trkpt lat="46.15956" lon="6.28637">
        <ele>471</ele>
        <time>2021-04-03T15:26:33Z</time>
      </trkpt>
      <trkpt lat="46.15949" lon="6.28626">
        <ele>470.6</ele>
        <time>2021-04-03T15:26:34Z</time>
      </trkpt>
      <trkpt lat="46.15943" lon="6.28616">
        <ele>470.2</ele>
        <time>2021-04-03T15:26:35Z</time>
      </trkpt>
      <trkpt lat="46.15936" lon="6.28605">
        <ele>469.8</ele>
        <time>2021-04-03T15:26:36Z</time>
      </trkpt>
      <trkpt lat="46.1593" lon="6.28595">
        <ele>469.2</ele>
        <time>2021-04-03T15:26:37Z</time>
      </trkpt>
      <trkpt lat="46.15923" lon="6.28585">
        <ele>469</ele>
        <time>2021-04-03T15:26:38Z</time>
      </trkpt>
      <trkpt lat="46.15916" lon="6.28576">
        <ele>468.6</ele>
        <time>2021-04-03T15:26:39Z</time>
      </trkpt>
      <trkpt lat="46.15909" lon="6.28567">
        <ele>468.2</ele>
        <time>2021-04-03T15:26:40Z</time>
      </trkpt>
      <trkpt lat="46.15901" lon="6.28558">
        <ele>467.4</ele>
        <time>2021-04-03T15:26:41Z</time>
      </trkpt>
      <trkpt lat="46.15894" lon="6.28549">
        <ele>466.6</ele>
        <time>2021-04-03T15:26:42Z</time>
      </trkpt>
      <trkpt lat="46.15888" lon="6.2854">
        <ele>465.4</ele>
        <time>2021-04-03T15:26:43Z</time>
      </trkpt>
      <trkpt lat="46.15882" lon="6.28533">
        <ele>464.6</ele>
        <time>2021-04-03T15:26:44Z</time>
      </trkpt>
      <trkpt lat="46.15878" lon="6.28527">
        <ele>464.2</ele>
        <time>2021-04-03T15:26:45Z</time>
      </trkpt>
      <trkpt lat="46.15875" lon="6.28523">
        <ele>464</ele>
        <time>2021-04-03T15:26:46Z</time>
      </trkpt>
      <trkpt lat="46.15872" lon="6.28519">
        <ele>463.8</ele>
        <time>2021-04-03T15:26:47Z</time>
      </trkpt>
      <trkpt lat="46.15871" lon="6.28514">
        <ele>463.8</ele>
        <time>2021-04-03T15:26:48Z</time>
      </trkpt>
      <trkpt lat="46.1587" lon="6.28509">
        <ele>463.8</ele>
        <time>2021-04-03T15:26:49Z</time>
      </trkpt>
      <trkpt lat="46.15871" lon="6.28502">
        <ele>463.6</ele>
        <time>2021-04-03T15:26:50Z</time>
      </trkpt>
      <trkpt lat="46.15872" lon="6.28496">
        <ele>463.6</ele>
        <time>2021-04-03T15:26:51Z</time>
      </trkpt>
      <trkpt lat="46.15873" lon="6.28489">
        <ele>463.4</ele>
        <time>2021-04-03T15:26:52Z</time>
      </trkpt>
      <trkpt lat="46.15875" lon="6.28482">
        <ele>463.4</ele>
        <time>2021-04-03T15:26:53Z</time>
      </trkpt>
      <trkpt lat="46.15877" lon="6.28474">
        <ele>463.2</ele>
        <time>2021-04-03T15:26:54Z</time>
      </trkpt>
      <trkpt lat="46.15878" lon="6.28467">
        <ele>463</ele>
        <time>2021-04-03T15:26:55Z</time>
      </trkpt>
      <trkpt lat="46.1588" lon="6.28459">
        <ele>463</ele>
        <time>2021-04-03T15:26:56Z</time>
      </trkpt>
      <trkpt lat="46.15883" lon="6.28451">
        <ele>462.8</ele>
        <time>2021-04-03T15:26:57Z</time>
      </trkpt>
      <trkpt lat="46.15885" lon="6.28444">
        <ele>462.6</ele>
        <time>2021-04-03T15:26:58Z</time>
      </trkpt>
      <trkpt lat="46.15888" lon="6.28436">
        <ele>462.6</ele>
        <time>2021-04-03T15:26:59Z</time>
      </trkpt>
      <trkpt lat="46.1589" lon="6.28429">
        <ele>462.6</ele>
        <time>2021-04-03T15:27:00Z</time>
      </trkpt>
      <trkpt lat="46.15893" lon="6.28422">
        <ele>462.6</ele>
        <time>2021-04-03T15:27:01Z</time>
      </trkpt>
      <trkpt lat="46.15896" lon="6.28415">
        <ele>462.6</ele>
        <time>2021-04-03T15:27:02Z</time>
      </trkpt>
      <trkpt lat="46.15898" lon="6.28408">
        <ele>462.8</ele>
        <time>2021-04-03T15:27:03Z</time>
      </trkpt>
      <trkpt lat="46.15901" lon="6.28401">
        <ele>462.6</ele>
        <time>2021-04-03T15:27:04Z</time>
      </trkpt>
      <trkpt lat="46.15904" lon="6.28394">
        <ele>462.4</ele>
        <time>2021-04-03T15:27:05Z</time>
      </trkpt>
      <trkpt lat="46.15907" lon="6.28388">
        <ele>462.6</ele>
        <time>2021-04-03T15:27:06Z</time>
      </trkpt>
      <trkpt lat="46.1591" lon="6.28381">
        <ele>462.4</ele>
        <time>2021-04-03T15:27:07Z</time>
      </trkpt>
      <trkpt lat="46.15913" lon="6.28374">
        <ele>462.6</ele>
        <time>2021-04-03T15:27:08Z</time>
      </trkpt>
      <trkpt lat="46.15916" lon="6.28367">
        <ele>462.6</ele>
        <time>2021-04-03T15:27:09Z</time>
      </trkpt>
      <trkpt lat="46.15919" lon="6.28361">
        <ele>462.4</ele>
        <time>2021-04-03T15:27:10Z</time>
      </trkpt>
      <trkpt lat="46.15922" lon="6.28354">
        <ele>462.4</ele>
        <time>2021-04-03T15:27:11Z</time>
      </trkpt>
      <trkpt lat="46.15925" lon="6.28348">
        <ele>462.4</ele>
        <time>2021-04-03T15:27:12Z</time>
      </trkpt>
      <trkpt lat="46.15928" lon="6.28342">
        <ele>462.4</ele>
        <time>2021-04-03T15:27:13Z</time>
      </trkpt>
      <trkpt lat="46.15931" lon="6.28335">
        <ele>462.4</ele>
        <time>2021-04-03T15:27:14Z</time>
      </trkpt>
      <trkpt lat="46.15935" lon="6.28329">
        <ele>462.6</ele>
        <time>2021-04-03T15:27:15Z</time>
      </trkpt>
      <trkpt lat="46.15938" lon="6.28322">
        <ele>462.8</ele>
        <time>2021-04-03T15:27:16Z</time>
      </trkpt>
      <trkpt lat="46.15941" lon="6.28315">
        <ele>463.8</ele>
        <time>2021-04-03T15:27:17Z</time>
      </trkpt>
      <trkpt lat="46.15945" lon="6.28308">
        <ele>464</ele>
        <time>2021-04-03T15:27:18Z</time>
      </trkpt>
      <trkpt lat="46.15948" lon="6.28302">
        <ele>464.4</ele>
        <time>2021-04-03T15:27:19Z</time>
      </trkpt>
      <trkpt lat="46.15952" lon="6.28295">
        <ele>464.4</ele>
        <time>2021-04-03T15:27:20Z</time>
      </trkpt>
      <trkpt lat="46.15955" lon="6.28289">
        <ele>464.6</ele>
        <time>2021-04-03T15:27:21Z</time>
      </trkpt>
      <trkpt lat="46.15958" lon="6.28282">
        <ele>464.8</ele>
        <time>2021-04-03T15:27:22Z</time>
      </trkpt>
      <trkpt lat="46.15962" lon="6.28276">
        <ele>465.2</ele>
        <time>2021-04-03T15:27:23Z</time>
      </trkpt>
      <trkpt lat="46.15965" lon="6.28269">
        <ele>465.4</ele>
        <time>2021-04-03T15:27:24Z</time>
      </trkpt>
      <trkpt lat="46.15968" lon="6.28263">
        <ele>465.4</ele>
        <time>2021-04-03T15:27:25Z</time>
      </trkpt>
      <trkpt lat="46.15972" lon="6.28256">
        <ele>465.6</ele>
        <time>2021-04-03T15:27:26Z</time>
      </trkpt>
      <trkpt lat="46.15975" lon="6.2825">
        <ele>465.4</ele>
        <time>2021-04-03T15:27:27Z</time>
      </trkpt>
      <trkpt lat="46.15979" lon="6.28243">
        <ele>465.4</ele>
        <time>2021-04-03T15:27:28Z</time>
      </trkpt>
      <trkpt lat="46.15982" lon="6.28237">
        <ele>465.8</ele>
        <time>2021-04-03T15:27:29Z</time>
      </trkpt>
      <trkpt lat="46.15986" lon="6.2823">
        <ele>465.8</ele>
        <time>2021-04-03T15:27:30Z</time>
      </trkpt>
      <trkpt lat="46.1599" lon="6.28223">
        <ele>466</ele>
        <time>2021-04-03T15:27:31Z</time>
      </trkpt>
      <trkpt lat="46.15993" lon="6.28216">
        <ele>466.6</ele>
        <time>2021-04-03T15:27:32Z</time>
      </trkpt>
      <trkpt lat="46.15996" lon="6.28209">
        <ele>466.8</ele>
        <time>2021-04-03T15:27:33Z</time>
      </trkpt>
      <trkpt lat="46.16" lon="6.28202">
        <ele>467</ele>
        <time>2021-04-03T15:27:34Z</time>
      </trkpt>
      <trkpt lat="46.16002" lon="6.28195">
        <ele>467</ele>
        <time>2021-04-03T15:27:35Z</time>
      </trkpt>
      <trkpt lat="46.16005" lon="6.28187">
        <ele>467</ele>
        <time>2021-04-03T15:27:36Z</time>
      </trkpt>
      <trkpt lat="46.16009" lon="6.2818">
        <ele>467.2</ele>
        <time>2021-04-03T15:27:37Z</time>
      </trkpt>
      <trkpt lat="46.16012" lon="6.28173">
        <ele>467.2</ele>
        <time>2021-04-03T15:27:38Z</time>
      </trkpt>
      <trkpt lat="46.16014" lon="6.28165">
        <ele>467.2</ele>
        <time>2021-04-03T15:27:39Z</time>
      </trkpt>
      <trkpt lat="46.16017" lon="6.28157">
        <ele>467.2</ele>
        <time>2021-04-03T15:27:40Z</time>
      </trkpt>
      <trkpt lat="46.1602" lon="6.28149">
        <ele>467.4</ele>
        <time>2021-04-03T15:27:41Z</time>
      </trkpt>
      <trkpt lat="46.16023" lon="6.28141">
        <ele>467.2</ele>
        <time>2021-04-03T15:27:42Z</time>
      </trkpt>
      <trkpt lat="46.16026" lon="6.28133">
        <ele>467.4</ele>
        <time>2021-04-03T15:27:43Z</time>
      </trkpt>
      <trkpt lat="46.16029" lon="6.28125">
        <ele>467.6</ele>
        <time>2021-04-03T15:27:44Z</time>
      </trkpt>
      <trkpt lat="46.16032" lon="6.28117">
        <ele>467.8</ele>
        <time>2021-04-03T15:27:45Z</time>
      </trkpt>
      <trkpt lat="46.16035" lon="6.28109">
        <ele>468</ele>
        <time>2021-04-03T15:27:46Z</time>
      </trkpt>
      <trkpt lat="46.16039" lon="6.28101">
        <ele>468.2</ele>
        <time>2021-04-03T15:27:47Z</time>
      </trkpt>
      <trkpt lat="46.16042" lon="6.28093">
        <ele>468.6</ele>
        <time>2021-04-03T15:27:48Z</time>
      </trkpt>
      <trkpt lat="46.16045" lon="6.28085">
        <ele>468.6</ele>
        <time>2021-04-03T15:27:49Z</time>
      </trkpt>
      <trkpt lat="46.16048" lon="6.28077">
        <ele>468.8</ele>
        <time>2021-04-03T15:27:50Z</time>
      </trkpt>
      <trkpt lat="46.16051" lon="6.28069">
        <ele>469</ele>
        <time>2021-04-03T15:27:51Z</time>
      </trkpt>
      <trkpt lat="46.16054" lon="6.28061">
        <ele>469</ele>
        <time>2021-04-03T15:27:52Z</time>
      </trkpt>
      <trkpt lat="46.16057" lon="6.28053">
        <ele>469.2</ele>
        <time>2021-04-03T15:27:53Z</time>
      </trkpt>
      <trkpt lat="46.1606" lon="6.28045">
        <ele>469.2</ele>
        <time>2021-04-03T15:27:54Z</time>
      </trkpt>
      <trkpt lat="46.16063" lon="6.28037">
        <ele>469.2</ele>
        <time>2021-04-03T15:27:55Z</time>
      </trkpt>
      <trkpt lat="46.16066" lon="6.28029">
        <ele>469.4</ele>
        <time>2021-04-03T15:27:56Z</time>
      </trkpt>
      <trkpt lat="46.1607" lon="6.28021">
        <ele>469.6</ele>
        <time>2021-04-03T15:27:57Z</time>
      </trkpt>
      <trkpt lat="46.16073" lon="6.28013">
        <ele>469.4</ele>
        <time>2021-04-03T15:27:58Z</time>
      </trkpt>
      <trkpt lat="46.16076" lon="6.28005">
        <ele>469.4</ele>
        <time>2021-04-03T15:27:59Z</time>
      </trkpt>
      <trkpt lat="46.16079" lon="6.27997">
        <ele>469.2</ele>
        <time>2021-04-03T15:28:00Z</time>
      </trkpt>
      <trkpt lat="46.16082" lon="6.27989">
        <ele>469</ele>
        <time>2021-04-03T15:28:01Z</time>
      </trkpt>
      <trkpt lat="46.16085" lon="6.27981">
        <ele>469</ele>
        <time>2021-04-03T15:28:02Z</time>
      </trkpt>
      <trkpt lat="46.16088" lon="6.27973">
        <ele>469</ele>
        <time>2021-04-03T15:28:03Z</time>
      </trkpt>
      <trkpt lat="46.16091" lon="6.27965">
        <ele>468.8</ele>
        <time>2021-04-03T15:28:04Z</time>
      </trkpt>
      <trkpt lat="46.16094" lon="6.27957">
        <ele>468.8</ele>
        <time>2021-04-03T15:28:05Z</time>
      </trkpt>
      <trkpt lat="46.16097" lon="6.27949">
        <ele>468.8</ele>
        <time>2021-04-03T15:28:06Z</time>
      </trkpt>
      <trkpt lat="46.161" lon="6.27942">
        <ele>468.8</ele>
        <time>2021-04-03T15:28:07Z</time>
      </trkpt>
      <trkpt lat="46.16103" lon="6.27934">
        <ele>469</ele>
        <time>2021-04-03T15:28:08Z</time>
      </trkpt>
      <trkpt lat="46.16106" lon="6.27926">
        <ele>468.8</ele>
        <time>2021-04-03T15:28:09Z</time>
      </trkpt>
      <trkpt lat="46.16109" lon="6.27918">
        <ele>468.8</ele>
        <time>2021-04-03T15:28:10Z</time>
      </trkpt>
      <trkpt lat="46.16112" lon="6.2791">
        <ele>468.6</ele>
        <time>2021-04-03T15:28:11Z</time>
      </trkpt>
      <trkpt lat="46.16115" lon="6.27903">
        <ele>468.8</ele>
        <time>2021-04-03T15:28:12Z</time>
      </trkpt>
      <trkpt lat="46.16118" lon="6.27895">
        <ele>468.4</ele>
        <time>2021-04-03T15:28:13Z</time>
      </trkpt>
      <trkpt lat="46.16121" lon="6.27887">
        <ele>468.4</ele>
        <time>2021-04-03T15:28:14Z</time>
      </trkpt>
      <trkpt lat="46.16124" lon="6.2788">
        <ele>468.4</ele>
        <time>2021-04-03T15:28:15Z</time>
      </trkpt>
      <trkpt lat="46.16127" lon="6.27872">
        <ele>468.4</ele>
        <time>2021-04-03T15:28:16Z</time>
      </trkpt>
      <trkpt lat="46.1613" lon="6.27864">
        <ele>468.6</ele>
        <time>2021-04-03T15:28:17Z</time>
      </trkpt>
      <trkpt lat="46.16133" lon="6.27856">
        <ele>468.8</ele>
        <time>2021-04-03T15:28:18Z</time>
      </trkpt>
      <trkpt lat="46.16136" lon="6.27848">
        <ele>469</ele>
        <time>2021-04-03T15:28:19Z</time>
      </trkpt>
      <trkpt lat="46.16139" lon="6.2784">
        <ele>469</ele>
        <time>2021-04-03T15:28:20Z</time>
      </trkpt>
      <trkpt lat="46.16142" lon="6.27832">
        <ele>468.8</ele>
        <time>2021-04-03T15:28:21Z</time>
      </trkpt>
      <trkpt lat="46.16145" lon="6.27825">
        <ele>469</ele>
        <time>2021-04-03T15:28:22Z</time>
      </trkpt>
      <trkpt lat="46.16148" lon="6.27817">
        <ele>469.2</ele>
        <time>2021-04-03T15:28:23Z</time>
      </trkpt>
      <trkpt lat="46.16151" lon="6.27809">
        <ele>469.4</ele>
        <time>2021-04-03T15:28:24Z</time>
      </trkpt>
      <trkpt lat="46.16154" lon="6.27801">
        <ele>469.4</ele>
        <time>2021-04-03T15:28:25Z</time>
      </trkpt>
      <trkpt lat="46.16157" lon="6.27793">
        <ele>469.6</ele>
        <time>2021-04-03T15:28:26Z</time>
      </trkpt>
      <trkpt lat="46.1616" lon="6.27785">
        <ele>469.8</ele>
        <time>2021-04-03T15:28:27Z</time>
      </trkpt>
      <trkpt lat="46.16163" lon="6.27776">
        <ele>470</ele>
        <time>2021-04-03T15:28:28Z</time>
      </trkpt>
      <trkpt lat="46.16166" lon="6.27768">
        <ele>470</ele>
        <time>2021-04-03T15:28:29Z</time>
      </trkpt>
      <trkpt lat="46.16169" lon="6.2776">
        <ele>470.4</ele>
        <time>2021-04-03T15:28:30Z</time>
      </trkpt>
      <trkpt lat="46.16172" lon="6.27752">
        <ele>470.6</ele>
        <time>2021-04-03T15:28:31Z</time>
      </trkpt>
      <trkpt lat="46.16176" lon="6.27744">
        <ele>470.8</ele>
        <time>2021-04-03T15:28:32Z</time>
      </trkpt>
      <trkpt lat="46.16179" lon="6.27736">
        <ele>470.8</ele>
        <time>2021-04-03T15:28:33Z</time>
      </trkpt>
      <trkpt lat="46.16182" lon="6.27728">
        <ele>470.8</ele>
        <time>2021-04-03T15:28:34Z</time>
      </trkpt>
      <trkpt lat="46.16185" lon="6.2772">
        <ele>470.2</ele>
        <time>2021-04-03T15:28:35Z</time>
      </trkpt>
      <trkpt lat="46.16188" lon="6.27712">
        <ele>469.6</ele>
        <time>2021-04-03T15:28:36Z</time>
      </trkpt>
      <trkpt lat="46.1619" lon="6.27705">
        <ele>469.6</ele>
        <time>2021-04-03T15:28:37Z</time>
      </trkpt>
      <trkpt lat="46.16193" lon="6.27697">
        <ele>469.4</ele>
        <time>2021-04-03T15:28:38Z</time>
      </trkpt>
      <trkpt lat="46.16196" lon="6.2769">
        <ele>469.2</ele>
        <time>2021-04-03T15:28:39Z</time>
      </trkpt>
      <trkpt lat="46.16199" lon="6.27683">
        <ele>469.2</ele>
        <time>2021-04-03T15:28:40Z</time>
      </trkpt>
      <trkpt lat="46.16201" lon="6.27675">
        <ele>469.2</ele>
        <time>2021-04-03T15:28:41Z</time>
      </trkpt>
      <trkpt lat="46.16204" lon="6.27669">
        <ele>469.2</ele>
        <time>2021-04-03T15:28:42Z</time>
      </trkpt>
      <trkpt lat="46.16206" lon="6.27662">
        <ele>468.6</ele>
        <time>2021-04-03T15:28:43Z</time>
      </trkpt>
      <trkpt lat="46.16209" lon="6.27656">
        <ele>468.4</ele>
        <time>2021-04-03T15:28:44Z</time>
      </trkpt>
      <trkpt lat="46.16212" lon="6.2765">
        <ele>468.2</ele>
        <time>2021-04-03T15:28:45Z</time>
      </trkpt>
      <trkpt lat="46.16215" lon="6.27645">
        <ele>468.2</ele>
        <time>2021-04-03T15:28:46Z</time>
      </trkpt>
      <trkpt lat="46.16218" lon="6.2764">
        <ele>468.2</ele>
        <time>2021-04-03T15:28:47Z</time>
      </trkpt>
      <trkpt lat="46.16222" lon="6.27635">
        <ele>468.2</ele>
        <time>2021-04-03T15:28:48Z</time>
      </trkpt>
      <trkpt lat="46.16226" lon="6.27632">
        <ele>468.4</ele>
        <time>2021-04-03T15:28:49Z</time>
      </trkpt>
      <trkpt lat="46.1623" lon="6.27628">
        <ele>468.2</ele>
        <time>2021-04-03T15:28:50Z</time>
      </trkpt>
      <trkpt lat="46.16233" lon="6.27623">
        <ele>468.4</ele>
        <time>2021-04-03T15:28:51Z</time>
      </trkpt>
      <trkpt lat="46.16236" lon="6.27617">
        <ele>468.4</ele>
        <time>2021-04-03T15:28:52Z</time>
      </trkpt>
      <trkpt lat="46.16237" lon="6.2761">
        <ele>468.4</ele>
        <time>2021-04-03T15:28:53Z</time>
      </trkpt>
      <trkpt lat="46.16237" lon="6.27602">
        <ele>468.6</ele>
        <time>2021-04-03T15:28:54Z</time>
      </trkpt>
      <trkpt lat="46.16237" lon="6.27593">
        <ele>468.8</ele>
        <time>2021-04-03T15:28:55Z</time>
      </trkpt>
      <trkpt lat="46.16238" lon="6.27585">
        <ele>469.2</ele>
        <time>2021-04-03T15:28:56Z</time>
      </trkpt>
      <trkpt lat="46.1624" lon="6.27576">
        <ele>469.4</ele>
        <time>2021-04-03T15:28:57Z</time>
      </trkpt>
      <trkpt lat="46.16242" lon="6.27568">
        <ele>469.4</ele>
        <time>2021-04-03T15:28:58Z</time>
      </trkpt>
      <trkpt lat="46.16245" lon="6.2756">
        <ele>469.8</ele>
        <time>2021-04-03T15:28:59Z</time>
      </trkpt>
      <trkpt lat="46.16248" lon="6.27553">
        <ele>470</ele>
        <time>2021-04-03T15:29:00Z</time>
      </trkpt>
      <trkpt lat="46.1625" lon="6.27545">
        <ele>470.2</ele>
        <time>2021-04-03T15:29:01Z</time>
      </trkpt>
      <trkpt lat="46.16253" lon="6.27538">
        <ele>470.2</ele>
        <time>2021-04-03T15:29:02Z</time>
      </trkpt>
      <trkpt lat="46.16256" lon="6.2753">
        <ele>470.4</ele>
        <time>2021-04-03T15:29:03Z</time>
      </trkpt>
      <trkpt lat="46.16259" lon="6.27523">
        <ele>470.4</ele>
        <time>2021-04-03T15:29:04Z</time>
      </trkpt>
      <trkpt lat="46.16262" lon="6.27515">
        <ele>470.4</ele>
        <time>2021-04-03T15:29:05Z</time>
      </trkpt>
      <trkpt lat="46.16265" lon="6.27508">
        <ele>470.4</ele>
        <time>2021-04-03T15:29:06Z</time>
      </trkpt>
      <trkpt lat="46.16268" lon="6.275">
        <ele>470.6</ele>
        <time>2021-04-03T15:29:07Z</time>
      </trkpt>
      <trkpt lat="46.16271" lon="6.27492">
        <ele>470.6</ele>
        <time>2021-04-03T15:29:08Z</time>
      </trkpt>
      <trkpt lat="46.16274" lon="6.27485">
        <ele>470.8</ele>
        <time>2021-04-03T15:29:09Z</time>
      </trkpt>
      <trkpt lat="46.16277" lon="6.27478">
        <ele>470.8</ele>
        <time>2021-04-03T15:29:10Z</time>
      </trkpt>
      <trkpt lat="46.1628" lon="6.27471">
        <ele>471</ele>
        <time>2021-04-03T15:29:11Z</time>
      </trkpt>
      <trkpt lat="46.16283" lon="6.27463">
        <ele>471</ele>
        <time>2021-04-03T15:29:12Z</time>
      </trkpt>
      <trkpt lat="46.16286" lon="6.27456">
        <ele>471</ele>
        <time>2021-04-03T15:29:13Z</time>
      </trkpt>
      <trkpt lat="46.16288" lon="6.27448">
        <ele>471</ele>
        <time>2021-04-03T15:29:14Z</time>
      </trkpt>
      <trkpt lat="46.16291" lon="6.2744">
        <ele>471</ele>
        <time>2021-04-03T15:29:15Z</time>
      </trkpt>
      <trkpt lat="46.16294" lon="6.27433">
        <ele>471.2</ele>
        <time>2021-04-03T15:29:16Z</time>
      </trkpt>
      <trkpt lat="46.16297" lon="6.27425">
        <ele>471.2</ele>
        <time>2021-04-03T15:29:17Z</time>
      </trkpt>
      <trkpt lat="46.163" lon="6.27418">
        <ele>471.2</ele>
        <time>2021-04-03T15:29:18Z</time>
      </trkpt>
      <trkpt lat="46.16303" lon="6.2741">
        <ele>471.2</ele>
        <time>2021-04-03T15:29:19Z</time>
      </trkpt>
      <trkpt lat="46.16306" lon="6.27402">
        <ele>471.4</ele>
        <time>2021-04-03T15:29:20Z</time>
      </trkpt>
      <trkpt lat="46.16309" lon="6.27395">
        <ele>471.2</ele>
        <time>2021-04-03T15:29:21Z</time>
      </trkpt>
      <trkpt lat="46.16312" lon="6.27387">
        <ele>471.4</ele>
        <time>2021-04-03T15:29:22Z</time>
      </trkpt>
      <trkpt lat="46.16315" lon="6.27379">
        <ele>471.4</ele>
        <time>2021-04-03T15:29:23Z</time>
      </trkpt>
      <trkpt lat="46.16318" lon="6.27372">
        <ele>471.4</ele>
        <time>2021-04-03T15:29:24Z</time>
      </trkpt>
      <trkpt lat="46.16321" lon="6.27364">
        <ele>471.4</ele>
        <time>2021-04-03T15:29:25Z</time>
      </trkpt>
      <trkpt lat="46.16324" lon="6.27356">
        <ele>471.4</ele>
        <time>2021-04-03T15:29:26Z</time>
      </trkpt>
      <trkpt lat="46.16327" lon="6.27348">
        <ele>471.4</ele>
        <time>2021-04-03T15:29:27Z</time>
      </trkpt>
      <trkpt lat="46.1633" lon="6.2734">
        <ele>471.2</ele>
        <time>2021-04-03T15:29:28Z</time>
      </trkpt>
      <trkpt lat="46.16333" lon="6.27332">
        <ele>471.4</ele>
        <time>2021-04-03T15:29:29Z</time>
      </trkpt>
      <trkpt lat="46.16337" lon="6.27325">
        <ele>471.2</ele>
        <time>2021-04-03T15:29:30Z</time>
      </trkpt>
      <trkpt lat="46.1634" lon="6.27317">
        <ele>471.4</ele>
        <time>2021-04-03T15:29:31Z</time>
      </trkpt>
      <trkpt lat="46.16343" lon="6.27309">
        <ele>471.2</ele>
        <time>2021-04-03T15:29:32Z</time>
      </trkpt>
      <trkpt lat="46.16346" lon="6.27301">
        <ele>471.4</ele>
        <time>2021-04-03T15:29:33Z</time>
      </trkpt>
      <trkpt lat="46.1635" lon="6.27293">
        <ele>471.2</ele>
        <time>2021-04-03T15:29:34Z</time>
      </trkpt>
      <trkpt lat="46.16353" lon="6.27285">
        <ele>471.4</ele>
        <time>2021-04-03T15:29:35Z</time>
      </trkpt>
      <trkpt lat="46.16357" lon="6.27277">
        <ele>471.4</ele>
        <time>2021-04-03T15:29:36Z</time>
      </trkpt>
      <trkpt lat="46.16361" lon="6.2727">
        <ele>471.4</ele>
        <time>2021-04-03T15:29:37Z</time>
      </trkpt>
      <trkpt lat="46.16365" lon="6.27263">
        <ele>471.4</ele>
        <time>2021-04-03T15:29:38Z</time>
      </trkpt>
      <trkpt lat="46.1637" lon="6.27257">
        <ele>471.4</ele>
        <time>2021-04-03T15:29:39Z</time>
      </trkpt>
      <trkpt lat="46.16375" lon="6.27251">
        <ele>471.6</ele>
        <time>2021-04-03T15:29:40Z</time>
      </trkpt>
      <trkpt lat="46.16381" lon="6.27246">
        <ele>471.4</ele>
        <time>2021-04-03T15:29:41Z</time>
      </trkpt>
      <trkpt lat="46.16387" lon="6.27241">
        <ele>471.4</ele>
        <time>2021-04-03T15:29:42Z</time>
      </trkpt>
      <trkpt lat="46.16393" lon="6.27236">
        <ele>471.6</ele>
        <time>2021-04-03T15:29:43Z</time>
      </trkpt>
      <trkpt lat="46.164" lon="6.27232">
        <ele>471.6</ele>
        <time>2021-04-03T15:29:44Z</time>
      </trkpt>
      <trkpt lat="46.16407" lon="6.2723">
        <ele>471.4</ele>
        <time>2021-04-03T15:29:45Z</time>
      </trkpt>
      <trkpt lat="46.16415" lon="6.27228">
        <ele>471.4</ele>
        <time>2021-04-03T15:29:46Z</time>
      </trkpt>
      <trkpt lat="46.16422" lon="6.27228">
        <ele>471.4</ele>
        <time>2021-04-03T15:29:47Z</time>
      </trkpt>
      <trkpt lat="46.1643" lon="6.27228">
        <ele>471.4</ele>
        <time>2021-04-03T15:29:48Z</time>
      </trkpt>
      <trkpt lat="46.16438" lon="6.2723">
        <ele>471.2</ele>
        <time>2021-04-03T15:29:49Z</time>
      </trkpt>
      <trkpt lat="46.16446" lon="6.27231">
        <ele>470.8</ele>
        <time>2021-04-03T15:29:50Z</time>
      </trkpt>
      <trkpt lat="46.16453" lon="6.27233">
        <ele>470.4</ele>
        <time>2021-04-03T15:29:51Z</time>
      </trkpt>
      <trkpt lat="46.16461" lon="6.27235">
        <ele>469.8</ele>
        <time>2021-04-03T15:29:52Z</time>
      </trkpt>
      <trkpt lat="46.16468" lon="6.27238">
        <ele>468.8</ele>
        <time>2021-04-03T15:29:53Z</time>
      </trkpt>
      <trkpt lat="46.16476" lon="6.2724">
        <ele>468.2</ele>
        <time>2021-04-03T15:29:54Z</time>
      </trkpt>
      <trkpt lat="46.16484" lon="6.27243">
        <ele>467.6</ele>
        <time>2021-04-03T15:29:55Z</time>
      </trkpt>
      <trkpt lat="46.16492" lon="6.27246">
        <ele>467.4</ele>
        <time>2021-04-03T15:29:56Z</time>
      </trkpt>
      <trkpt lat="46.16501" lon="6.27249">
        <ele>467</ele>
        <time>2021-04-03T15:29:57Z</time>
      </trkpt>
      <trkpt lat="46.16509" lon="6.27252">
        <ele>466.6</ele>
        <time>2021-04-03T15:29:58Z</time>
      </trkpt>
      <trkpt lat="46.16518" lon="6.27255">
        <ele>466.2</ele>
        <time>2021-04-03T15:29:59Z</time>
      </trkpt>
      <trkpt lat="46.16526" lon="6.27257">
        <ele>465.8</ele>
        <time>2021-04-03T15:30:00Z</time>
      </trkpt>
      <trkpt lat="46.16535" lon="6.2726">
        <ele>465.8</ele>
        <time>2021-04-03T15:30:01Z</time>
      </trkpt>
      <trkpt lat="46.16543" lon="6.27263">
        <ele>465.4</ele>
        <time>2021-04-03T15:30:02Z</time>
      </trkpt>
      <trkpt lat="46.16551" lon="6.27266">
        <ele>465</ele>
        <time>2021-04-03T15:30:03Z</time>
      </trkpt>
      <trkpt lat="46.16559" lon="6.27269">
        <ele>464.6</ele>
        <time>2021-04-03T15:30:04Z</time>
      </trkpt>
      <trkpt lat="46.16567" lon="6.27273">
        <ele>464.4</ele>
        <time>2021-04-03T15:30:05Z</time>
      </trkpt>
      <trkpt lat="46.16575" lon="6.27278">
        <ele>464.4</ele>
        <time>2021-04-03T15:30:06Z</time>
      </trkpt>
      <trkpt lat="46.16582" lon="6.27285">
        <ele>464</ele>
        <time>2021-04-03T15:30:07Z</time>
      </trkpt>
      <trkpt lat="46.1659" lon="6.27292">
        <ele>463.4</ele>
        <time>2021-04-03T15:30:08Z</time>
      </trkpt>
      <trkpt lat="46.16597" lon="6.27299">
        <ele>463.4</ele>
        <time>2021-04-03T15:30:09Z</time>
      </trkpt>
      <trkpt lat="46.16604" lon="6.27307">
        <ele>463.2</ele>
        <time>2021-04-03T15:30:10Z</time>
      </trkpt>
      <trkpt lat="46.16611" lon="6.27315">
        <ele>463</ele>
        <time>2021-04-03T15:30:11Z</time>
      </trkpt>
      <trkpt lat="46.16619" lon="6.27322">
        <ele>462.6</ele>
        <time>2021-04-03T15:30:12Z</time>
      </trkpt>
      <trkpt lat="46.16626" lon="6.27329">
        <ele>461.4</ele>
        <time>2021-04-03T15:30:13Z</time>
      </trkpt>
      <trkpt lat="46.16634" lon="6.27335">
        <ele>460.6</ele>
        <time>2021-04-03T15:30:14Z</time>
      </trkpt>
      <trkpt lat="46.16642" lon="6.27339">
        <ele>460.2</ele>
        <time>2021-04-03T15:30:15Z</time>
      </trkpt>
      <trkpt lat="46.16651" lon="6.27343">
        <ele>460</ele>
        <time>2021-04-03T15:30:16Z</time>
      </trkpt>
      <trkpt lat="46.16659" lon="6.27346">
        <ele>460</ele>
        <time>2021-04-03T15:30:17Z</time>
      </trkpt>
      <trkpt lat="46.16668" lon="6.27348">
        <ele>459.6</ele>
        <time>2021-04-03T15:30:18Z</time>
      </trkpt>
      <trkpt lat="46.16677" lon="6.2735">
        <ele>459.6</ele>
        <time>2021-04-03T15:30:19Z</time>
      </trkpt>
      <trkpt lat="46.16685" lon="6.27352">
        <ele>459.2</ele>
        <time>2021-04-03T15:30:20Z</time>
      </trkpt>
      <trkpt lat="46.16694" lon="6.27354">
        <ele>458.2</ele>
        <time>2021-04-03T15:30:21Z</time>
      </trkpt>
      <trkpt lat="46.16702" lon="6.27356">
        <ele>457.8</ele>
        <time>2021-04-03T15:30:22Z</time>
      </trkpt>
      <trkpt lat="46.16711" lon="6.27358">
        <ele>457.4</ele>
        <time>2021-04-03T15:30:23Z</time>
      </trkpt>
      <trkpt lat="46.1672" lon="6.2736">
        <ele>457.2</ele>
        <time>2021-04-03T15:30:24Z</time>
      </trkpt>
      <trkpt lat="46.16729" lon="6.27362">
        <ele>457.2</ele>
        <time>2021-04-03T15:30:25Z</time>
      </trkpt>
      <trkpt lat="46.16746" lon="6.27365">
        <ele>456</ele>
        <time>2021-04-03T15:30:27Z</time>
      </trkpt>
      <trkpt lat="46.16755" lon="6.27367">
        <ele>455.4</ele>
        <time>2021-04-03T15:30:28Z</time>
      </trkpt>
      <trkpt lat="46.16763" lon="6.27368">
        <ele>454.6</ele>
        <time>2021-04-03T15:30:29Z</time>
      </trkpt>
      <trkpt lat="46.16772" lon="6.27369">
        <ele>454</ele>
        <time>2021-04-03T15:30:30Z</time>
      </trkpt>
      <trkpt lat="46.16789" lon="6.27369">
        <ele>453.6</ele>
        <time>2021-04-03T15:30:32Z</time>
      </trkpt>
      <trkpt lat="46.16798" lon="6.27367">
        <ele>453.4</ele>
        <time>2021-04-03T15:30:33Z</time>
      </trkpt>
      <trkpt lat="46.16806" lon="6.27363">
        <ele>453</ele>
        <time>2021-04-03T15:30:34Z</time>
      </trkpt>
      <trkpt lat="46.16814" lon="6.27357">
        <ele>452.8</ele>
        <time>2021-04-03T15:30:35Z</time>
      </trkpt>
      <trkpt lat="46.16821" lon="6.27349">
        <ele>452.4</ele>
        <time>2021-04-03T15:30:36Z</time>
      </trkpt>
      <trkpt lat="46.16827" lon="6.2734">
        <ele>452</ele>
        <time>2021-04-03T15:30:37Z</time>
      </trkpt>
      <trkpt lat="46.16833" lon="6.27329">
        <ele>451.6</ele>
        <time>2021-04-03T15:30:38Z</time>
      </trkpt>
      <trkpt lat="46.16838" lon="6.27317">
        <ele>451.4</ele>
        <time>2021-04-03T15:30:39Z</time>
      </trkpt>
      <trkpt lat="46.16841" lon="6.27305">
        <ele>451.4</ele>
        <time>2021-04-03T15:30:40Z</time>
      </trkpt>
      <trkpt lat="46.16845" lon="6.27279">
        <ele>451</ele>
        <time>2021-04-03T15:30:42Z</time>
      </trkpt>
      <trkpt lat="46.16849" lon="6.27243">
        <ele>449.8</ele>
        <time>2021-04-03T15:30:45Z</time>
      </trkpt>
      <trkpt lat="46.1685" lon="6.27231">
        <ele>449.6</ele>
        <time>2021-04-03T15:30:46Z</time>
      </trkpt>
      <trkpt lat="46.16851" lon="6.2722">
        <ele>449.6</ele>
        <time>2021-04-03T15:30:47Z</time>
      </trkpt>
      <trkpt lat="46.16853" lon="6.27209">
        <ele>449.2</ele>
        <time>2021-04-03T15:30:48Z</time>
      </trkpt>
      <trkpt lat="46.16854" lon="6.27198">
        <ele>449.2</ele>
        <time>2021-04-03T15:30:49Z</time>
      </trkpt>
      <trkpt lat="46.16855" lon="6.27188">
        <ele>449.2</ele>
        <time>2021-04-03T15:30:50Z</time>
      </trkpt>
      <trkpt lat="46.16856" lon="6.27177">
        <ele>449</ele>
        <time>2021-04-03T15:30:51Z</time>
      </trkpt>
      <trkpt lat="46.16855" lon="6.27167">
        <ele>449</ele>
        <time>2021-04-03T15:30:52Z</time>
      </trkpt>
      <trkpt lat="46.16853" lon="6.27157">
        <ele>449</ele>
        <time>2021-04-03T15:30:53Z</time>
      </trkpt>
      <trkpt lat="46.1685" lon="6.27148">
        <ele>449</ele>
        <time>2021-04-03T15:30:54Z</time>
      </trkpt>
      <trkpt lat="46.16846" lon="6.27141">
        <ele>448.8</ele>
        <time>2021-04-03T15:30:55Z</time>
      </trkpt>
      <trkpt lat="46.1684" lon="6.27135">
        <ele>448.8</ele>
        <time>2021-04-03T15:30:56Z</time>
      </trkpt>
      <trkpt lat="46.16833" lon="6.27131">
        <ele>448.6</ele>
        <time>2021-04-03T15:30:57Z</time>
      </trkpt>
      <trkpt lat="46.16825" lon="6.27128">
        <ele>448.4</ele>
        <time>2021-04-03T15:30:58Z</time>
      </trkpt>
      <trkpt lat="46.16818" lon="6.27125">
        <ele>448.4</ele>
        <time>2021-04-03T15:30:59Z</time>
      </trkpt>
      <trkpt lat="46.16811" lon="6.27121">
        <ele>448.4</ele>
        <time>2021-04-03T15:31:00Z</time>
      </trkpt>
      <trkpt lat="46.16804" lon="6.27119">
        <ele>448.2</ele>
        <time>2021-04-03T15:31:01Z</time>
      </trkpt>
      <trkpt lat="46.1679" lon="6.27116">
        <ele>448</ele>
        <time>2021-04-03T15:31:03Z</time>
      </trkpt>
      <trkpt lat="46.16784" lon="6.27114">
        <ele>448</ele>
        <time>2021-04-03T15:31:04Z</time>
      </trkpt>
      <trkpt lat="46.16773" lon="6.27106">
        <ele>448</ele>
        <time>2021-04-03T15:31:06Z</time>
      </trkpt>
      <trkpt lat="46.16765" lon="6.27097">
        <ele>448.2</ele>
        <time>2021-04-03T15:31:08Z</time>
      </trkpt>
      <trkpt lat="46.16759" lon="6.27089">
        <ele>448.4</ele>
        <time>2021-04-03T15:31:10Z</time>
      </trkpt>
      <trkpt lat="46.16755" lon="6.27081">
        <ele>448.4</ele>
        <time>2021-04-03T15:31:12Z</time>
      </trkpt>
      <trkpt lat="46.16754" lon="6.27078">
        <ele>448.8</ele>
        <time>2021-04-03T15:31:13Z</time>
      </trkpt>
      <trkpt lat="46.16752" lon="6.27075">
        <ele>449.2</ele>
        <time>2021-04-03T15:31:14Z</time>
      </trkpt>
      <trkpt lat="46.16748" lon="6.27068">
        <ele>450.4</ele>
        <time>2021-04-03T15:31:16Z</time>
      </trkpt>
      <trkpt lat="46.16744" lon="6.27061">
        <ele>451.6</ele>
        <time>2021-04-03T15:31:18Z</time>
      </trkpt>
      <trkpt lat="46.1674" lon="6.27055">
        <ele>452.8</ele>
        <time>2021-04-03T15:31:20Z</time>
      </trkpt>
      <trkpt lat="46.16737" lon="6.27052">
        <ele>453.2</ele>
        <time>2021-04-03T15:31:21Z</time>
      </trkpt>
      <trkpt lat="46.16736" lon="6.27048">
        <ele>453.8</ele>
        <time>2021-04-03T15:31:22Z</time>
      </trkpt>
      <trkpt lat="46.16729" lon="6.27042">
        <ele>454.8</ele>
        <time>2021-04-03T15:31:24Z</time>
      </trkpt>
      <trkpt lat="46.16727" lon="6.27038">
        <ele>455.2</ele>
        <time>2021-04-03T15:31:25Z</time>
      </trkpt>
      <trkpt lat="46.16726" lon="6.27034">
        <ele>455.2</ele>
        <time>2021-04-03T15:31:26Z</time>
      </trkpt>
      <trkpt lat="46.16726" lon="6.27025">
        <ele>455.8</ele>
        <time>2021-04-03T15:31:28Z</time>
      </trkpt>
      <trkpt lat="46.16727" lon="6.2702">
        <ele>456.2</ele>
        <time>2021-04-03T15:31:29Z</time>
      </trkpt>
      <trkpt lat="46.16728" lon="6.27016">
        <ele>456.4</ele>
        <time>2021-04-03T15:31:30Z</time>
      </trkpt>
      <trkpt lat="46.16731" lon="6.27006">
        <ele>457.2</ele>
        <time>2021-04-03T15:31:32Z</time>
      </trkpt>
      <trkpt lat="46.16734" lon="6.26998">
        <ele>457.8</ele>
        <time>2021-04-03T15:31:34Z</time>
      </trkpt>
      <trkpt lat="46.16738" lon="6.26991">
        <ele>458.2</ele>
        <time>2021-04-03T15:31:36Z</time>
      </trkpt>
      <trkpt lat="46.16741" lon="6.26987">
        <ele>458.6</ele>
        <time>2021-04-03T15:31:37Z</time>
      </trkpt>
      <trkpt lat="46.16743" lon="6.26984">
        <ele>459</ele>
        <time>2021-04-03T15:31:38Z</time>
      </trkpt>
      <trkpt lat="46.16746" lon="6.26981">
        <ele>459</ele>
        <time>2021-04-03T15:31:39Z</time>
      </trkpt>
      <trkpt lat="46.16748" lon="6.26978">
        <ele>459.6</ele>
        <time>2021-04-03T15:31:40Z</time>
      </trkpt>
      <trkpt lat="46.16751" lon="6.26975">
        <ele>459.6</ele>
        <time>2021-04-03T15:31:41Z</time>
      </trkpt>
      <trkpt lat="46.16754" lon="6.26972">
        <ele>459.8</ele>
        <time>2021-04-03T15:31:42Z</time>
      </trkpt>
      <trkpt lat="46.16757" lon="6.26969">
        <ele>460</ele>
        <time>2021-04-03T15:31:43Z</time>
      </trkpt>
      <trkpt lat="46.16759" lon="6.26966">
        <ele>460.2</ele>
        <time>2021-04-03T15:31:44Z</time>
      </trkpt>
      <trkpt lat="46.16762" lon="6.26963">
        <ele>460.4</ele>
        <time>2021-04-03T15:31:45Z</time>
      </trkpt>
      <trkpt lat="46.16764" lon="6.2696">
        <ele>460.6</ele>
        <time>2021-04-03T15:31:46Z</time>
      </trkpt>
      <trkpt lat="46.16767" lon="6.26957">
        <ele>460.8</ele>
        <time>2021-04-03T15:31:47Z</time>
      </trkpt>
      <trkpt lat="46.16769" lon="6.26954">
        <ele>460.8</ele>
        <time>2021-04-03T15:31:48Z</time>
      </trkpt>
      <trkpt lat="46.16772" lon="6.26951">
        <ele>461</ele>
        <time>2021-04-03T15:31:49Z</time>
      </trkpt>
      <trkpt lat="46.16774" lon="6.26948">
        <ele>461.4</ele>
        <time>2021-04-03T15:31:50Z</time>
      </trkpt>
      <trkpt lat="46.16777" lon="6.26945">
        <ele>461.6</ele>
        <time>2021-04-03T15:31:51Z</time>
      </trkpt>
      <trkpt lat="46.1678" lon="6.26943">
        <ele>462.4</ele>
        <time>2021-04-03T15:31:52Z</time>
      </trkpt>
      <trkpt lat="46.16783" lon="6.2694">
        <ele>463</ele>
        <time>2021-04-03T15:31:53Z</time>
      </trkpt>
      <trkpt lat="46.16786" lon="6.26938">
        <ele>463.4</ele>
        <time>2021-04-03T15:31:54Z</time>
      </trkpt>
      <trkpt lat="46.16788" lon="6.26936">
        <ele>463.6</ele>
        <time>2021-04-03T15:31:55Z</time>
      </trkpt>
      <trkpt lat="46.16791" lon="6.26934">
        <ele>463.6</ele>
        <time>2021-04-03T15:31:56Z</time>
      </trkpt>
      <trkpt lat="46.16794" lon="6.26931">
        <ele>464</ele>
        <time>2021-04-03T15:31:57Z</time>
      </trkpt>
      <trkpt lat="46.16797" lon="6.26929">
        <ele>463.8</ele>
        <time>2021-04-03T15:31:58Z</time>
      </trkpt>
      <trkpt lat="46.168" lon="6.26926">
        <ele>463.8</ele>
        <time>2021-04-03T15:31:59Z</time>
      </trkpt>
      <trkpt lat="46.16803" lon="6.26923">
        <ele>463.8</ele>
        <time>2021-04-03T15:32:00Z</time>
      </trkpt>
      <trkpt lat="46.16806" lon="6.26921">
        <ele>463.8</ele>
        <time>2021-04-03T15:32:01Z</time>
      </trkpt>
      <trkpt lat="46.16809" lon="6.26919">
        <ele>463.8</ele>
        <time>2021-04-03T15:32:02Z</time>
      </trkpt>
      <trkpt lat="46.16812" lon="6.26917">
        <ele>463.8</ele>
        <time>2021-04-03T15:32:03Z</time>
      </trkpt>
      <trkpt lat="46.16816" lon="6.26915">
        <ele>464</ele>
        <time>2021-04-03T15:32:04Z</time>
      </trkpt>
      <trkpt lat="46.16819" lon="6.26913">
        <ele>464.2</ele>
        <time>2021-04-03T15:32:05Z</time>
      </trkpt>
      <trkpt lat="46.16821" lon="6.26911">
        <ele>464.2</ele>
        <time>2021-04-03T15:32:06Z</time>
      </trkpt>
      <trkpt lat="46.16824" lon="6.26909">
        <ele>464.2</ele>
        <time>2021-04-03T15:32:07Z</time>
      </trkpt>
      <trkpt lat="46.16827" lon="6.26907">
        <ele>464.2</ele>
        <time>2021-04-03T15:32:08Z</time>
      </trkpt>
      <trkpt lat="46.1683" lon="6.26905">
        <ele>464.4</ele>
        <time>2021-04-03T15:32:09Z</time>
      </trkpt>
      <trkpt lat="46.16833" lon="6.26903">
        <ele>464.4</ele>
        <time>2021-04-03T15:32:10Z</time>
      </trkpt>
      <trkpt lat="46.16835" lon="6.269">
        <ele>464.6</ele>
        <time>2021-04-03T15:32:11Z</time>
      </trkpt>
      <trkpt lat="46.16838" lon="6.26898">
        <ele>464.6</ele>
        <time>2021-04-03T15:32:12Z</time>
      </trkpt>
      <trkpt lat="46.16841" lon="6.26895">
        <ele>465.4</ele>
        <time>2021-04-03T15:32:13Z</time>
      </trkpt>
      <trkpt lat="46.16845" lon="6.26892">
        <ele>466.2</ele>
        <time>2021-04-03T15:32:14Z</time>
      </trkpt>
      <trkpt lat="46.16848" lon="6.26889">
        <ele>467</ele>
        <time>2021-04-03T15:32:15Z</time>
      </trkpt>
      <trkpt lat="46.16851" lon="6.26885">
        <ele>467.2</ele>
        <time>2021-04-03T15:32:16Z</time>
      </trkpt>
      <trkpt lat="46.16854" lon="6.26882">
        <ele>467.4</ele>
        <time>2021-04-03T15:32:17Z</time>
      </trkpt>
      <trkpt lat="46.16857" lon="6.26878">
        <ele>467.6</ele>
        <time>2021-04-03T15:32:18Z</time>
      </trkpt>
      <trkpt lat="46.1686" lon="6.26875">
        <ele>467.6</ele>
        <time>2021-04-03T15:32:19Z</time>
      </trkpt>
      <trkpt lat="46.16863" lon="6.26871">
        <ele>467.8</ele>
        <time>2021-04-03T15:32:20Z</time>
      </trkpt>
      <trkpt lat="46.16866" lon="6.26867">
        <ele>468.4</ele>
        <time>2021-04-03T15:32:21Z</time>
      </trkpt>
      <trkpt lat="46.16868" lon="6.26863">
        <ele>468.8</ele>
        <time>2021-04-03T15:32:22Z</time>
      </trkpt>
      <trkpt lat="46.16871" lon="6.26859">
        <ele>469</ele>
        <time>2021-04-03T15:32:23Z</time>
      </trkpt>
      <trkpt lat="46.16874" lon="6.26855">
        <ele>469.2</ele>
        <time>2021-04-03T15:32:24Z</time>
      </trkpt>
      <trkpt lat="46.16877" lon="6.2685">
        <ele>469.4</ele>
        <time>2021-04-03T15:32:25Z</time>
      </trkpt>
      <trkpt lat="46.1688" lon="6.26846">
        <ele>469.4</ele>
        <time>2021-04-03T15:32:26Z</time>
      </trkpt>
      <trkpt lat="46.16883" lon="6.26842">
        <ele>469.6</ele>
        <time>2021-04-03T15:32:27Z</time>
      </trkpt>
      <trkpt lat="46.16885" lon="6.26837">
        <ele>469.6</ele>
        <time>2021-04-03T15:32:28Z</time>
      </trkpt>
      <trkpt lat="46.16888" lon="6.26833">
        <ele>469.6</ele>
        <time>2021-04-03T15:32:29Z</time>
      </trkpt>
      <trkpt lat="46.16891" lon="6.26828">
        <ele>469.8</ele>
        <time>2021-04-03T15:32:30Z</time>
      </trkpt>
      <trkpt lat="46.16893" lon="6.26823">
        <ele>469.8</ele>
        <time>2021-04-03T15:32:31Z</time>
      </trkpt>
      <trkpt lat="46.16895" lon="6.26818">
        <ele>470.6</ele>
        <time>2021-04-03T15:32:32Z</time>
      </trkpt>
      <trkpt lat="46.16897" lon="6.26812">
        <ele>471</ele>
        <time>2021-04-03T15:32:33Z</time>
      </trkpt>
      <trkpt lat="46.16899" lon="6.26806">
        <ele>471.4</ele>
        <time>2021-04-03T15:32:34Z</time>
      </trkpt>
      <trkpt lat="46.169" lon="6.268">
        <ele>471.8</ele>
        <time>2021-04-03T15:32:35Z</time>
      </trkpt>
      <trkpt lat="46.16902" lon="6.26795">
        <ele>472</ele>
        <time>2021-04-03T15:32:36Z</time>
      </trkpt>
      <trkpt lat="46.16904" lon="6.26789">
        <ele>472</ele>
        <time>2021-04-03T15:32:37Z</time>
      </trkpt>
      <trkpt lat="46.16906" lon="6.26784">
        <ele>472.2</ele>
        <time>2021-04-03T15:32:38Z</time>
      </trkpt>
      <trkpt lat="46.16907" lon="6.26778">
        <ele>472</ele>
        <time>2021-04-03T15:32:39Z</time>
      </trkpt>
      <trkpt lat="46.16908" lon="6.26771">
        <ele>472.2</ele>
        <time>2021-04-03T15:32:40Z</time>
      </trkpt>
      <trkpt lat="46.16909" lon="6.26764">
        <ele>472.2</ele>
        <time>2021-04-03T15:32:41Z</time>
      </trkpt>
      <trkpt lat="46.1691" lon="6.26757">
        <ele>472</ele>
        <time>2021-04-03T15:32:42Z</time>
      </trkpt>
      <trkpt lat="46.16911" lon="6.2675">
        <ele>472.2</ele>
        <time>2021-04-03T15:32:43Z</time>
      </trkpt>
      <trkpt lat="46.16912" lon="6.26743">
        <ele>472.4</ele>
        <time>2021-04-03T15:32:44Z</time>
      </trkpt>
      <trkpt lat="46.16914" lon="6.26736">
        <ele>472.6</ele>
        <time>2021-04-03T15:32:45Z</time>
      </trkpt>
      <trkpt lat="46.16915" lon="6.26729">
        <ele>472.4</ele>
        <time>2021-04-03T15:32:46Z</time>
      </trkpt>
      <trkpt lat="46.16917" lon="6.26721">
        <ele>472.6</ele>
        <time>2021-04-03T15:32:47Z</time>
      </trkpt>
      <trkpt lat="46.16918" lon="6.26715">
        <ele>472.6</ele>
        <time>2021-04-03T15:32:48Z</time>
      </trkpt>
      <trkpt lat="46.1692" lon="6.26707">
        <ele>472.6</ele>
        <time>2021-04-03T15:32:49Z</time>
      </trkpt>
      <trkpt lat="46.16921" lon="6.26699">
        <ele>472.8</ele>
        <time>2021-04-03T15:32:50Z</time>
      </trkpt>
      <trkpt lat="46.16924" lon="6.26692">
        <ele>473</ele>
        <time>2021-04-03T15:32:51Z</time>
      </trkpt>
      <trkpt lat="46.16926" lon="6.26684">
        <ele>473.2</ele>
        <time>2021-04-03T15:32:52Z</time>
      </trkpt>
      <trkpt lat="46.16928" lon="6.26676">
        <ele>473.2</ele>
        <time>2021-04-03T15:32:53Z</time>
      </trkpt>
      <trkpt lat="46.16931" lon="6.26668">
        <ele>473.4</ele>
        <time>2021-04-03T15:32:54Z</time>
      </trkpt>
      <trkpt lat="46.16934" lon="6.26661">
        <ele>473.2</ele>
        <time>2021-04-03T15:32:55Z</time>
      </trkpt>
      <trkpt lat="46.16938" lon="6.26654">
        <ele>473.2</ele>
        <time>2021-04-03T15:32:56Z</time>
      </trkpt>
      <trkpt lat="46.16942" lon="6.26648">
        <ele>473.2</ele>
        <time>2021-04-03T15:32:57Z</time>
      </trkpt>
      <trkpt lat="46.16946" lon="6.26641">
        <ele>473.2</ele>
        <time>2021-04-03T15:32:58Z</time>
      </trkpt>
      <trkpt lat="46.16949" lon="6.26635">
        <ele>473.4</ele>
        <time>2021-04-03T15:32:59Z</time>
      </trkpt>
      <trkpt lat="46.16953" lon="6.26628">
        <ele>473.2</ele>
        <time>2021-04-03T15:33:00Z</time>
      </trkpt>
      <trkpt lat="46.16957" lon="6.26621">
        <ele>473.2</ele>
        <time>2021-04-03T15:33:01Z</time>
      </trkpt>
      <trkpt lat="46.16961" lon="6.26614">
        <ele>473</ele>
        <time>2021-04-03T15:33:02Z</time>
      </trkpt>
      <trkpt lat="46.16965" lon="6.26607">
        <ele>472.8</ele>
        <time>2021-04-03T15:33:03Z</time>
      </trkpt>
      <trkpt lat="46.16969" lon="6.266">
        <ele>472.6</ele>
        <time>2021-04-03T15:33:04Z</time>
      </trkpt>
      <trkpt lat="46.16973" lon="6.26593">
        <ele>472.6</ele>
        <time>2021-04-03T15:33:05Z</time>
      </trkpt>
      <trkpt lat="46.16977" lon="6.26587">
        <ele>472.6</ele>
        <time>2021-04-03T15:33:06Z</time>
      </trkpt>
      <trkpt lat="46.16981" lon="6.2658">
        <ele>472.6</ele>
        <time>2021-04-03T15:33:07Z</time>
      </trkpt>
      <trkpt lat="46.16985" lon="6.26574">
        <ele>472.8</ele>
        <time>2021-04-03T15:33:08Z</time>
      </trkpt>
      <trkpt lat="46.16989" lon="6.26567">
        <ele>472.4</ele>
        <time>2021-04-03T15:33:09Z</time>
      </trkpt>
      <trkpt lat="46.16993" lon="6.26562">
        <ele>472.4</ele>
        <time>2021-04-03T15:33:10Z</time>
      </trkpt>
      <trkpt lat="46.16997" lon="6.26556">
        <ele>472.6</ele>
        <time>2021-04-03T15:33:11Z</time>
      </trkpt>
      <trkpt lat="46.17001" lon="6.2655">
        <ele>472.8</ele>
        <time>2021-04-03T15:33:12Z</time>
      </trkpt>
      <trkpt lat="46.17004" lon="6.26544">
        <ele>473.6</ele>
        <time>2021-04-03T15:33:13Z</time>
      </trkpt>
      <trkpt lat="46.17007" lon="6.26539">
        <ele>474.2</ele>
        <time>2021-04-03T15:33:14Z</time>
      </trkpt>
      <trkpt lat="46.1701" lon="6.26534">
        <ele>474.4</ele>
        <time>2021-04-03T15:33:15Z</time>
      </trkpt>
      <trkpt lat="46.17013" lon="6.26529">
        <ele>475</ele>
        <time>2021-04-03T15:33:16Z</time>
      </trkpt>
      <trkpt lat="46.17016" lon="6.26524">
        <ele>475.2</ele>
        <time>2021-04-03T15:33:17Z</time>
      </trkpt>
      <trkpt lat="46.17019" lon="6.2652">
        <ele>475.2</ele>
        <time>2021-04-03T15:33:18Z</time>
      </trkpt>
      <trkpt lat="46.17021" lon="6.26516">
        <ele>475.6</ele>
        <time>2021-04-03T15:33:19Z</time>
      </trkpt>
      <trkpt lat="46.17024" lon="6.26512">
        <ele>475.6</ele>
        <time>2021-04-03T15:33:20Z</time>
      </trkpt>
      <trkpt lat="46.17026" lon="6.26508">
        <ele>475.8</ele>
        <time>2021-04-03T15:33:21Z</time>
      </trkpt>
      <trkpt lat="46.17029" lon="6.26504">
        <ele>476.4</ele>
        <time>2021-04-03T15:33:22Z</time>
      </trkpt>
      <trkpt lat="46.17031" lon="6.265">
        <ele>477</ele>
        <time>2021-04-03T15:33:23Z</time>
      </trkpt>
      <trkpt lat="46.17033" lon="6.26496">
        <ele>477.8</ele>
        <time>2021-04-03T15:33:24Z</time>
      </trkpt>
      <trkpt lat="46.17035" lon="6.26492">
        <ele>478.2</ele>
        <time>2021-04-03T15:33:25Z</time>
      </trkpt>
      <trkpt lat="46.17038" lon="6.26488">
        <ele>478.8</ele>
        <time>2021-04-03T15:33:26Z</time>
      </trkpt>
      <trkpt lat="46.1704" lon="6.26484">
        <ele>479.2</ele>
        <time>2021-04-03T15:33:27Z</time>
      </trkpt>
      <trkpt lat="46.17043" lon="6.2648">
        <ele>479.6</ele>
        <time>2021-04-03T15:33:28Z</time>
      </trkpt>
      <trkpt lat="46.17045" lon="6.26477">
        <ele>479.8</ele>
        <time>2021-04-03T15:33:29Z</time>
      </trkpt>
      <trkpt lat="46.17047" lon="6.26473">
        <ele>480</ele>
        <time>2021-04-03T15:33:30Z</time>
      </trkpt>
      <trkpt lat="46.1705" lon="6.26469">
        <ele>480.4</ele>
        <time>2021-04-03T15:33:31Z</time>
      </trkpt>
      <trkpt lat="46.17052" lon="6.26465">
        <ele>480.8</ele>
        <time>2021-04-03T15:33:32Z</time>
      </trkpt>
      <trkpt lat="46.17055" lon="6.26461">
        <ele>480.8</ele>
        <time>2021-04-03T15:33:33Z</time>
      </trkpt>
      <trkpt lat="46.17057" lon="6.26457">
        <ele>481</ele>
        <time>2021-04-03T15:33:34Z</time>
      </trkpt>
      <trkpt lat="46.1706" lon="6.26453">
        <ele>481.2</ele>
        <time>2021-04-03T15:33:35Z</time>
      </trkpt>
      <trkpt lat="46.17062" lon="6.26449">
        <ele>481.4</ele>
        <time>2021-04-03T15:33:36Z</time>
      </trkpt>
      <trkpt lat="46.17064" lon="6.26445">
        <ele>482</ele>
        <time>2021-04-03T15:33:37Z</time>
      </trkpt>
      <trkpt lat="46.17067" lon="6.26441">
        <ele>482.2</ele>
        <time>2021-04-03T15:33:38Z</time>
      </trkpt>
      <trkpt lat="46.17069" lon="6.26437">
        <ele>482.4</ele>
        <time>2021-04-03T15:33:39Z</time>
      </trkpt>
      <trkpt lat="46.17071" lon="6.26433">
        <ele>482.6</ele>
        <time>2021-04-03T15:33:40Z</time>
      </trkpt>
      <trkpt lat="46.17073" lon="6.26429">
        <ele>482.8</ele>
        <time>2021-04-03T15:33:41Z</time>
      </trkpt>
      <trkpt lat="46.17076" lon="6.26425">
        <ele>482.8</ele>
        <time>2021-04-03T15:33:42Z</time>
      </trkpt>
      <trkpt lat="46.17078" lon="6.26421">
        <ele>483</ele>
        <time>2021-04-03T15:33:43Z</time>
      </trkpt>
      <trkpt lat="46.1708" lon="6.26418">
        <ele>483.4</ele>
        <time>2021-04-03T15:33:44Z</time>
      </trkpt>
      <trkpt lat="46.17082" lon="6.26414">
        <ele>483.4</ele>
        <time>2021-04-03T15:33:45Z</time>
      </trkpt>
      <trkpt lat="46.17084" lon="6.26411">
        <ele>483.6</ele>
        <time>2021-04-03T15:33:46Z</time>
      </trkpt>
      <trkpt lat="46.17086" lon="6.26408">
        <ele>483.6</ele>
        <time>2021-04-03T15:33:47Z</time>
      </trkpt>
      <trkpt lat="46.17088" lon="6.26405">
        <ele>483.8</ele>
        <time>2021-04-03T15:33:48Z</time>
      </trkpt>
      <trkpt lat="46.1709" lon="6.26401">
        <ele>483.8</ele>
        <time>2021-04-03T15:33:49Z</time>
      </trkpt>
      <trkpt lat="46.17093" lon="6.26398">
        <ele>484.2</ele>
        <time>2021-04-03T15:33:50Z</time>
      </trkpt>
      <trkpt lat="46.17096" lon="6.26393">
        <ele>484.6</ele>
        <time>2021-04-03T15:33:51Z</time>
      </trkpt>
      <trkpt lat="46.17099" lon="6.26389">
        <ele>484.8</ele>
        <time>2021-04-03T15:33:52Z</time>
      </trkpt>
      <trkpt lat="46.17101" lon="6.26384">
        <ele>485</ele>
        <time>2021-04-03T15:33:53Z</time>
      </trkpt>
      <trkpt lat="46.17104" lon="6.26379">
        <ele>485</ele>
        <time>2021-04-03T15:33:54Z</time>
      </trkpt>
      <trkpt lat="46.17107" lon="6.26374">
        <ele>485.4</ele>
        <time>2021-04-03T15:33:55Z</time>
      </trkpt>
      <trkpt lat="46.17111" lon="6.26368">
        <ele>485.4</ele>
        <time>2021-04-03T15:33:56Z</time>
      </trkpt>
      <trkpt lat="46.17114" lon="6.26363">
        <ele>485.6</ele>
        <time>2021-04-03T15:33:57Z</time>
      </trkpt>
      <trkpt lat="46.17117" lon="6.26357">
        <ele>485.8</ele>
        <time>2021-04-03T15:33:58Z</time>
      </trkpt>
      <trkpt lat="46.17121" lon="6.26352">
        <ele>485.8</ele>
        <time>2021-04-03T15:33:59Z</time>
      </trkpt>
      <trkpt lat="46.17124" lon="6.26346">
        <ele>485.6</ele>
        <time>2021-04-03T15:34:00Z</time>
      </trkpt>
      <trkpt lat="46.17127" lon="6.26341">
        <ele>485.8</ele>
        <time>2021-04-03T15:34:01Z</time>
      </trkpt>
      <trkpt lat="46.17131" lon="6.26336">
        <ele>485.6</ele>
        <time>2021-04-03T15:34:02Z</time>
      </trkpt>
      <trkpt lat="46.17134" lon="6.2633">
        <ele>485.8</ele>
        <time>2021-04-03T15:34:03Z</time>
      </trkpt>
      <trkpt lat="46.17137" lon="6.26325">
        <ele>485.8</ele>
        <time>2021-04-03T15:34:04Z</time>
      </trkpt>
      <trkpt lat="46.17141" lon="6.26319">
        <ele>486</ele>
        <time>2021-04-03T15:34:05Z</time>
      </trkpt>
      <trkpt lat="46.17144" lon="6.26313">
        <ele>486.2</ele>
        <time>2021-04-03T15:34:06Z</time>
      </trkpt>
      <trkpt lat="46.17147" lon="6.26308">
        <ele>486.4</ele>
        <time>2021-04-03T15:34:07Z</time>
      </trkpt>
      <trkpt lat="46.1715" lon="6.26302">
        <ele>486.4</ele>
        <time>2021-04-03T15:34:08Z</time>
      </trkpt>
      <trkpt lat="46.17154" lon="6.26296">
        <ele>486.4</ele>
        <time>2021-04-03T15:34:09Z</time>
      </trkpt>
      <trkpt lat="46.17157" lon="6.26291">
        <ele>486.4</ele>
        <time>2021-04-03T15:34:10Z</time>
      </trkpt>
      <trkpt lat="46.1716" lon="6.26286">
        <ele>486.4</ele>
        <time>2021-04-03T15:34:11Z</time>
      </trkpt>
      <trkpt lat="46.17164" lon="6.2628">
        <ele>486.4</ele>
        <time>2021-04-03T15:34:12Z</time>
      </trkpt>
      <trkpt lat="46.17167" lon="6.26275">
        <ele>486.4</ele>
        <time>2021-04-03T15:34:13Z</time>
      </trkpt>
      <trkpt lat="46.1717" lon="6.2627">
        <ele>486.4</ele>
        <time>2021-04-03T15:34:14Z</time>
      </trkpt>
      <trkpt lat="46.17174" lon="6.26264">
        <ele>486.4</ele>
        <time>2021-04-03T15:34:15Z</time>
      </trkpt>
      <trkpt lat="46.17177" lon="6.26258">
        <ele>486.2</ele>
        <time>2021-04-03T15:34:16Z</time>
      </trkpt>
      <trkpt lat="46.1718" lon="6.26253">
        <ele>486.2</ele>
        <time>2021-04-03T15:34:17Z</time>
      </trkpt>
      <trkpt lat="46.17184" lon="6.26248">
        <ele>486.4</ele>
        <time>2021-04-03T15:34:18Z</time>
      </trkpt>
      <trkpt lat="46.17187" lon="6.26242">
        <ele>486.4</ele>
        <time>2021-04-03T15:34:19Z</time>
      </trkpt>
      <trkpt lat="46.1719" lon="6.26236">
        <ele>486.6</ele>
        <time>2021-04-03T15:34:20Z</time>
      </trkpt>
      <trkpt lat="46.17193" lon="6.2623">
        <ele>486.4</ele>
        <time>2021-04-03T15:34:21Z</time>
      </trkpt>
      <trkpt lat="46.17196" lon="6.26225">
        <ele>486.4</ele>
        <time>2021-04-03T15:34:22Z</time>
      </trkpt>
      <trkpt lat="46.172" lon="6.26219">
        <ele>486.6</ele>
        <time>2021-04-03T15:34:23Z</time>
      </trkpt>
      <trkpt lat="46.17203" lon="6.26212">
        <ele>486.6</ele>
        <time>2021-04-03T15:34:24Z</time>
      </trkpt>
      <trkpt lat="46.17207" lon="6.26207">
        <ele>486.6</ele>
        <time>2021-04-03T15:34:25Z</time>
      </trkpt>
      <trkpt lat="46.1721" lon="6.26201">
        <ele>486.8</ele>
        <time>2021-04-03T15:34:26Z</time>
      </trkpt>
      <trkpt lat="46.17213" lon="6.26196">
        <ele>486.6</ele>
        <time>2021-04-03T15:34:27Z</time>
      </trkpt>
      <trkpt lat="46.17217" lon="6.2619">
        <ele>486.6</ele>
        <time>2021-04-03T15:34:28Z</time>
      </trkpt>
      <trkpt lat="46.1722" lon="6.26185">
        <ele>487</ele>
        <time>2021-04-03T15:34:29Z</time>
      </trkpt>
      <trkpt lat="46.17223" lon="6.2618">
        <ele>486.8</ele>
        <time>2021-04-03T15:34:30Z</time>
      </trkpt>
      <trkpt lat="46.17226" lon="6.26176">
        <ele>486.8</ele>
        <time>2021-04-03T15:34:31Z</time>
      </trkpt>
      <trkpt lat="46.17229" lon="6.26171">
        <ele>487</ele>
        <time>2021-04-03T15:34:32Z</time>
      </trkpt>
      <trkpt lat="46.17233" lon="6.26166">
        <ele>486.8</ele>
        <time>2021-04-03T15:34:33Z</time>
      </trkpt>
      <trkpt lat="46.17236" lon="6.2616">
        <ele>487</ele>
        <time>2021-04-03T15:34:34Z</time>
      </trkpt>
      <trkpt lat="46.17239" lon="6.26155">
        <ele>487</ele>
        <time>2021-04-03T15:34:35Z</time>
      </trkpt>
      <trkpt lat="46.17243" lon="6.2615">
        <ele>486.8</ele>
        <time>2021-04-03T15:34:36Z</time>
      </trkpt>
      <trkpt lat="46.17246" lon="6.26145">
        <ele>486.8</ele>
        <time>2021-04-03T15:34:37Z</time>
      </trkpt>
      <trkpt lat="46.17249" lon="6.2614">
        <ele>487</ele>
        <time>2021-04-03T15:34:38Z</time>
      </trkpt>
      <trkpt lat="46.17252" lon="6.26135">
        <ele>487.2</ele>
        <time>2021-04-03T15:34:39Z</time>
      </trkpt>
      <trkpt lat="46.17255" lon="6.2613">
        <ele>487</ele>
        <time>2021-04-03T15:34:40Z</time>
      </trkpt>
      <trkpt lat="46.17258" lon="6.26125">
        <ele>487.2</ele>
        <time>2021-04-03T15:34:41Z</time>
      </trkpt>
      <trkpt lat="46.17261" lon="6.2612">
        <ele>487</ele>
        <time>2021-04-03T15:34:42Z</time>
      </trkpt>
      <trkpt lat="46.17263" lon="6.26114">
        <ele>487</ele>
        <time>2021-04-03T15:34:43Z</time>
      </trkpt>
      <trkpt lat="46.17266" lon="6.26108">
        <ele>487</ele>
        <time>2021-04-03T15:34:44Z</time>
      </trkpt>
      <trkpt lat="46.17268" lon="6.26101">
        <ele>486.8</ele>
        <time>2021-04-03T15:34:45Z</time>
      </trkpt>
      <trkpt lat="46.1727" lon="6.26096">
        <ele>486.6</ele>
        <time>2021-04-03T15:34:46Z</time>
      </trkpt>
      <trkpt lat="46.17272" lon="6.26092">
        <ele>486.6</ele>
        <time>2021-04-03T15:34:47Z</time>
      </trkpt>
      <trkpt lat="46.17275" lon="6.26089">
        <ele>486.6</ele>
        <time>2021-04-03T15:34:48Z</time>
      </trkpt>
      <trkpt lat="46.17277" lon="6.26086">
        <ele>486.4</ele>
        <time>2021-04-03T15:34:49Z</time>
      </trkpt>
      <trkpt lat="46.17279" lon="6.26082">
        <ele>486.4</ele>
        <time>2021-04-03T15:34:50Z</time>
      </trkpt>
      <trkpt lat="46.17281" lon="6.26077">
        <ele>486.2</ele>
        <time>2021-04-03T15:34:51Z</time>
      </trkpt>
      <trkpt lat="46.17284" lon="6.26071">
        <ele>486.2</ele>
        <time>2021-04-03T15:34:52Z</time>
      </trkpt>
      <trkpt lat="46.17287" lon="6.26065">
        <ele>486.2</ele>
        <time>2021-04-03T15:34:53Z</time>
      </trkpt>
      <trkpt lat="46.17291" lon="6.26059">
        <ele>485.8</ele>
        <time>2021-04-03T15:34:54Z</time>
      </trkpt>
      <trkpt lat="46.17296" lon="6.26053">
        <ele>485.6</ele>
        <time>2021-04-03T15:34:55Z</time>
      </trkpt>
      <trkpt lat="46.173" lon="6.26046">
        <ele>485.4</ele>
        <time>2021-04-03T15:34:56Z</time>
      </trkpt>
      <trkpt lat="46.17304" lon="6.26038">
        <ele>485</ele>
        <time>2021-04-03T15:34:57Z</time>
      </trkpt>
      <trkpt lat="46.17308" lon="6.26029">
        <ele>484.2</ele>
        <time>2021-04-03T15:34:58Z</time>
      </trkpt>
      <trkpt lat="46.17312" lon="6.26021">
        <ele>483.6</ele>
        <time>2021-04-03T15:34:59Z</time>
      </trkpt>
      <trkpt lat="46.17316" lon="6.26012">
        <ele>483</ele>
        <time>2021-04-03T15:35:00Z</time>
      </trkpt>
      <trkpt lat="46.17319" lon="6.26003">
        <ele>482.4</ele>
        <time>2021-04-03T15:35:01Z</time>
      </trkpt>
      <trkpt lat="46.17323" lon="6.25994">
        <ele>481.2</ele>
        <time>2021-04-03T15:35:02Z</time>
      </trkpt>
      <trkpt lat="46.17327" lon="6.25985">
        <ele>480.2</ele>
        <time>2021-04-03T15:35:03Z</time>
      </trkpt>
      <trkpt lat="46.17332" lon="6.25977">
        <ele>479.6</ele>
        <time>2021-04-03T15:35:04Z</time>
      </trkpt>
      <trkpt lat="46.17336" lon="6.25968">
        <ele>479.4</ele>
        <time>2021-04-03T15:35:05Z</time>
      </trkpt>
      <trkpt lat="46.17341" lon="6.2596">
        <ele>479.4</ele>
        <time>2021-04-03T15:35:06Z</time>
      </trkpt>
      <trkpt lat="46.17345" lon="6.2595">
        <ele>479.2</ele>
        <time>2021-04-03T15:35:07Z</time>
      </trkpt>
      <trkpt lat="46.17348" lon="6.25941">
        <ele>479.2</ele>
        <time>2021-04-03T15:35:08Z</time>
      </trkpt>
      <trkpt lat="46.17352" lon="6.25931">
        <ele>479.2</ele>
        <time>2021-04-03T15:35:09Z</time>
      </trkpt>
      <trkpt lat="46.17355" lon="6.25922">
        <ele>479</ele>
        <time>2021-04-03T15:35:10Z</time>
      </trkpt>
      <trkpt lat="46.17359" lon="6.25912">
        <ele>479</ele>
        <time>2021-04-03T15:35:11Z</time>
      </trkpt>
      <trkpt lat="46.17362" lon="6.25902">
        <ele>479.2</ele>
        <time>2021-04-03T15:35:12Z</time>
      </trkpt>
      <trkpt lat="46.17366" lon="6.25893">
        <ele>479.2</ele>
        <time>2021-04-03T15:35:13Z</time>
      </trkpt>
      <trkpt lat="46.1737" lon="6.25884">
        <ele>479.6</ele>
        <time>2021-04-03T15:35:14Z</time>
      </trkpt>
      <trkpt lat="46.17375" lon="6.25877">
        <ele>480</ele>
        <time>2021-04-03T15:35:15Z</time>
      </trkpt>
      <trkpt lat="46.17381" lon="6.2587">
        <ele>480.2</ele>
        <time>2021-04-03T15:35:16Z</time>
      </trkpt>
      <trkpt lat="46.17386" lon="6.25864">
        <ele>480.4</ele>
        <time>2021-04-03T15:35:17Z</time>
      </trkpt>
      <trkpt lat="46.17391" lon="6.25858">
        <ele>480.6</ele>
        <time>2021-04-03T15:35:18Z</time>
      </trkpt>
      <trkpt lat="46.17397" lon="6.25853">
        <ele>480.6</ele>
        <time>2021-04-03T15:35:19Z</time>
      </trkpt>
      <trkpt lat="46.17402" lon="6.25847">
        <ele>480.8</ele>
        <time>2021-04-03T15:35:20Z</time>
      </trkpt>
      <trkpt lat="46.17407" lon="6.25843">
        <ele>481</ele>
        <time>2021-04-03T15:35:21Z</time>
      </trkpt>
      <trkpt lat="46.17412" lon="6.2584">
        <ele>481</ele>
        <time>2021-04-03T15:35:22Z</time>
      </trkpt>
      <trkpt lat="46.17417" lon="6.25839">
        <ele>481.4</ele>
        <time>2021-04-03T15:35:23Z</time>
      </trkpt>
      <trkpt lat="46.17421" lon="6.25839">
        <ele>481.6</ele>
        <time>2021-04-03T15:35:24Z</time>
      </trkpt>
      <trkpt lat="46.17424" lon="6.25838">
        <ele>481.8</ele>
        <time>2021-04-03T15:35:25Z</time>
      </trkpt>
      <trkpt lat="46.17427" lon="6.25835">
        <ele>482.2</ele>
        <time>2021-04-03T15:35:26Z</time>
      </trkpt>
      <trkpt lat="46.17428" lon="6.25831">
        <ele>482.6</ele>
        <time>2021-04-03T15:35:27Z</time>
      </trkpt>
      <trkpt lat="46.17429" lon="6.25827">
        <ele>483</ele>
        <time>2021-04-03T15:35:28Z</time>
      </trkpt>
      <trkpt lat="46.17429" lon="6.25822">
        <ele>483.4</ele>
        <time>2021-04-03T15:35:29Z</time>
      </trkpt>
      <trkpt lat="46.1743" lon="6.25817">
        <ele>483.8</ele>
        <time>2021-04-03T15:35:30Z</time>
      </trkpt>
      <trkpt lat="46.17432" lon="6.25814">
        <ele>483.8</ele>
        <time>2021-04-03T15:35:31Z</time>
      </trkpt>
      <trkpt lat="46.17434" lon="6.25815">
        <ele>483.8</ele>
        <time>2021-04-03T15:35:32Z</time>
      </trkpt>
      <trkpt lat="46.17435" lon="6.25817">
        <ele>484.2</ele>
        <time>2021-04-03T15:35:33Z</time>
      </trkpt>
      <trkpt lat="46.17435" lon="6.2582">
        <ele>484.8</ele>
        <time>2021-04-03T15:35:34Z</time>
      </trkpt>
      <trkpt lat="46.17435" lon="6.25823">
        <ele>485.4</ele>
        <time>2021-04-03T15:35:35Z</time>
      </trkpt>
      <trkpt lat="46.17435" lon="6.25826">
        <ele>486</ele>
        <time>2021-04-03T15:35:36Z</time>
      </trkpt>
      <trkpt lat="46.17436" lon="6.25828">
        <ele>486.4</ele>
        <time>2021-04-03T15:35:37Z</time>
      </trkpt>
      <trkpt lat="46.17436" lon="6.25829">
        <ele>486.6</ele>
        <time>2021-04-03T15:35:38Z</time>
      </trkpt>
      <trkpt lat="46.17435" lon="6.25829">
        <ele>486.6</ele>
        <time>2021-04-03T15:35:39Z</time>
      </trkpt>
      <trkpt lat="46.17435" lon="6.25829">
        <ele>487</ele>
        <time>2021-04-03T15:35:40Z</time>
      </trkpt>
      <trkpt lat="46.17436" lon="6.25829">
        <ele>486.8</ele>
        <time>2021-04-03T15:35:41Z</time>
      </trkpt>
      <trkpt lat="46.17436" lon="6.25829">
        <ele>487</ele>
        <time>2021-04-03T15:35:42Z</time>
      </trkpt>
      <trkpt lat="46.17436" lon="6.25829">
        <ele>487.2</ele>
        <time>2021-04-03T15:35:45Z</time>
      </trkpt>
      <trkpt lat="46.17436" lon="6.25829">
        <ele>487</ele>
        <time>2021-04-03T15:35:47Z</time>
      </trkpt>
      <trkpt lat="46.17436" lon="6.25828">
        <ele>487.2</ele>
        <time>2021-04-03T15:35:49Z</time>
      </trkpt>
      <trkpt lat="46.17436" lon="6.25828">
        <ele>487.2</ele>
        <time>2021-04-03T15:35:50Z</time>
      </trkpt>
      <trkpt lat="46.17436" lon="6.25829">
        <ele>487.2</ele>
        <time>2021-04-03T15:35:51Z</time>
      </trkpt>
      <trkpt lat="46.17436" lon="6.25829">
        <ele>487.2</ele>
        <time>2021-04-03T15:35:52Z</time>
      </trkpt>
      <trkpt lat="46.17436" lon="6.25829">
        <ele>487.4</ele>
        <time>2021-04-03T15:35:53Z</time>
      </trkpt>
      <trkpt lat="46.17437" lon="6.25829">
        <ele>487.4</ele>
        <time>2021-04-03T15:35:54Z</time>
      </trkpt>
      <trkpt lat="46.17436" lon="6.25829">
        <ele>487.2</ele>
        <time>2021-04-03T15:35:55Z</time>
      </trkpt>
      <trkpt lat="46.17437" lon="6.25829">
        <ele>487.4</ele>
        <time>2021-04-03T15:35:56Z</time>
      </trkpt>
      <trkpt lat="46.17437" lon="6.25829">
        <ele>487.2</ele>
        <time>2021-04-03T15:35:57Z</time>
      </trkpt>
      <trkpt lat="46.17437" lon="6.25829">
        <ele>487.2</ele>
        <time>2021-04-03T15:35:58Z</time>
      </trkpt>
      <trkpt lat="46.17437" lon="6.25829">
        <ele>487</ele>
        <time>2021-04-03T15:35:59Z</time>
      </trkpt>
      <trkpt lat="46.17437" lon="6.25829">
        <ele>487</ele>
        <time>2021-04-03T15:36:02Z</time>
      </trkpt>
      <trkpt lat="46.17437" lon="6.2583">
        <ele>487.2</ele>
        <time>2021-04-03T15:36:04Z</time>
      </trkpt>
      <trkpt lat="46.17437" lon="6.2583">
        <ele>487.2</ele>
        <time>2021-04-03T15:36:05Z</time>
      </trkpt>
      <trkpt lat="46.17437" lon="6.2583">
        <ele>487.2</ele>
        <time>2021-04-03T15:36:06Z</time>
      </trkpt>
      <trkpt lat="46.17437" lon="6.2583">
        <ele>487.2</ele>
        <time>2021-04-03T15:36:07Z</time>
      </trkpt>
      <trkpt lat="46.17436" lon="6.2583">
        <ele>487.2</ele>
        <time>2021-04-03T15:36:08Z</time>
      </trkpt>
      <trkpt lat="46.17436" lon="6.2583">
        <ele>487</ele>
        <time>2021-04-03T15:36:09Z</time>
      </trkpt>
      <trkpt lat="46.17436" lon="6.25831">
        <ele>487.2</ele>
        <time>2021-04-03T15:36:10Z</time>
      </trkpt>
      <trkpt lat="46.17436" lon="6.25831">
        <ele>487.2</ele>
        <time>2021-04-03T15:36:12Z</time>
      </trkpt>
      <trkpt lat="46.17436" lon="6.25831">
        <ele>487.2</ele>
        <time>2021-04-03T15:36:13Z</time>
      </trkpt>
      <trkpt lat="46.17436" lon="6.25831">
        <ele>487.2</ele>
        <time>2021-04-03T15:36:14Z</time>
      </trkpt>
      <trkpt lat="46.17436" lon="6.25831">
        <ele>487.4</ele>
        <time>2021-04-03T15:36:15Z</time>
      </trkpt>
      <trkpt lat="46.17436" lon="6.25831">
        <ele>487.4</ele>
        <time>2021-04-03T15:36:16Z</time>
      </trkpt>
      <trkpt lat="46.17436" lon="6.25831">
        <ele>487.4</ele>
        <time>2021-04-03T15:36:17Z</time>
      </trkpt>
      <trkpt lat="46.17436" lon="6.25831">
        <ele>487.6</ele>
        <time>2021-04-03T15:36:18Z</time>
      </trkpt>
      <trkpt lat="46.17436" lon="6.25831">
        <ele>487.6</ele>
        <time>2021-04-03T15:36:19Z</time>
      </trkpt>
      <trkpt lat="46.17436" lon="6.25831">
        <ele>487.6</ele>
        <time>2021-04-03T15:36:20Z</time>
      </trkpt>
      <trkpt lat="46.17436" lon="6.25831">
        <ele>487.8</ele>
        <time>2021-04-03T15:36:21Z</time>
      </trkpt>
      <trkpt lat="46.17436" lon="6.25831">
        <ele>488</ele>
        <time>2021-04-03T15:36:24Z</time>
      </trkpt>
      <trkpt lat="46.17436" lon="6.25831">
        <ele>488.2</ele>
        <time>2021-04-03T15:36:27Z</time>
      </trkpt>
      <trkpt lat="46.17436" lon="6.25831">
        <ele>488.2</ele>
        <time>2021-04-03T15:36:35Z</time>
      </trkpt>
      <trkpt lat="46.17436" lon="6.25831">
        <ele>487.2</ele>
        <time>2021-04-03T15:36:43Z</time>
      </trkpt>
      <trkpt lat="46.17436" lon="6.25831">
        <ele>486.6</ele>
        <time>2021-04-03T15:36:51Z</time>
      </trkpt>
      <trkpt lat="46.17436" lon="6.25831">
        <ele>487.8</ele>
        <time>2021-04-03T15:36:58Z</time>
      </trkpt>
      <trkpt lat="46.17436" lon="6.25831">
        <ele>488</ele>
        <time>2021-04-03T15:37:00Z</time>
      </trkpt>
      <trkpt lat="46.17436" lon="6.25831">
        <ele>488</ele>
        <time>2021-04-03T15:37:01Z</time>
      </trkpt>
      <trkpt lat="46.17436" lon="6.25831">
        <ele>488.2</ele>
        <time>2021-04-03T15:37:03Z</time>
      </trkpt>
      <trkpt lat="46.17436" lon="6.25831">
        <ele>488.4</ele>
        <time>2021-04-03T15:37:05Z</time>
      </trkpt>
      <trkpt lat="46.17436" lon="6.25831">
        <ele>488.2</ele>
        <time>2021-04-03T15:37:07Z</time>
      </trkpt>
      <trkpt lat="46.17436" lon="6.25831">
        <ele>488</ele>
        <time>2021-04-03T15:37:14Z</time>
      </trkpt>
      <trkpt lat="46.17436" lon="6.25831">
        <ele>487.6</ele>
        <time>2021-04-03T15:37:22Z</time>
      </trkpt>
      <trkpt lat="46.17436" lon="6.25831">
        <ele>487.6</ele>
        <time>2021-04-03T15:37:23Z</time>
      </trkpt>
      <trkpt lat="46.17436" lon="6.25831">
        <ele>487.6</ele>
        <time>2021-04-03T15:37:30Z</time>
      </trkpt>
      <trkpt lat="46.17436" lon="6.25831">
        <ele>487.6</ele>
        <time>2021-04-03T15:37:32Z</time>
      </trkpt>
      <trkpt lat="46.17436" lon="6.25831">
        <ele>487.8</ele>
        <time>2021-04-03T15:37:36Z</time>
      </trkpt>
      <trkpt lat="46.17436" lon="6.25831">
        <ele>487.8</ele>
        <time>2021-04-03T15:37:37Z</time>
      </trkpt>
      <trkpt lat="46.17436" lon="6.25831">
        <ele>487.6</ele>
        <time>2021-04-03T15:37:42Z</time>
      </trkpt>
      <trkpt lat="46.17436" lon="6.25831">
        <ele>487.6</ele>
        <time>2021-04-03T15:37:46Z</time>
      </trkpt>
      <trkpt lat="46.17436" lon="6.25831">
        <ele>487.6</ele>
        <time>2021-04-03T15:37:48Z</time>
      </trkpt>
      <trkpt lat="46.17436" lon="6.25831">
        <ele>487.6</ele>
        <time>2021-04-03T15:37:55Z</time>
      </trkpt>
      <trkpt lat="46.17436" lon="6.25831">
        <ele>487.6</ele>
        <time>2021-04-03T15:37:59Z</time>
      </trkpt>
      <trkpt lat="46.17436" lon="6.25831">
        <ele>487.8</ele>
        <time>2021-04-03T15:38:04Z</time>
      </trkpt>
      <trkpt lat="46.17436" lon="6.25831">
        <ele>487.8</ele>
        <time>2021-04-03T15:38:05Z</time>
      </trkpt>
      <trkpt lat="46.17436" lon="6.25831">
        <ele>487.8</ele>
        <time>2021-04-03T15:38:11Z</time>
      </trkpt>
      <trkpt lat="46.17436" lon="6.25831">
        <ele>487.8</ele>
        <time>2021-04-03T15:38:14Z</time>
      </trkpt>
      <trkpt lat="46.17436" lon="6.25831">
        <ele>487.8</ele>
        <time>2021-04-03T15:38:15Z</time>
      </trkpt>
      <trkpt lat="46.17436" lon="6.25831">
        <ele>487.8</ele>
        <time>2021-04-03T15:38:16Z</time>
      </trkpt>
      <trkpt lat="46.17436" lon="6.25831">
        <ele>487.6</ele>
        <time>2021-04-03T15:38:24Z</time>
      </trkpt>
      <trkpt lat="46.17436" lon="6.25831">
        <ele>487.4</ele>
        <time>2021-04-03T15:38:32Z</time>
      </trkpt>
      <trkpt lat="46.17436" lon="6.25832">
        <ele>487.4</ele>
        <time>2021-04-03T15:38:33Z</time>
      </trkpt>
      <trkpt lat="46.17437" lon="6.25833">
        <ele>487.4</ele>
        <time>2021-04-03T15:38:34Z</time>
      </trkpt>
      <trkpt lat="46.17437" lon="6.25834">
        <ele>487.4</ele>
        <time>2021-04-03T15:38:35Z</time>
      </trkpt>
      <trkpt lat="46.17438" lon="6.25836">
        <ele>487.4</ele>
        <time>2021-04-03T15:38:36Z</time>
      </trkpt>
      <trkpt lat="46.17438" lon="6.25838">
        <ele>487.4</ele>
        <time>2021-04-03T15:38:37Z</time>
      </trkpt>
      <trkpt lat="46.17439" lon="6.2584">
        <ele>487.4</ele>
        <time>2021-04-03T15:38:38Z</time>
      </trkpt>
      <trkpt lat="46.1744" lon="6.25843">
        <ele>487.4</ele>
        <time>2021-04-03T15:38:39Z</time>
      </trkpt>
      <trkpt lat="46.1744" lon="6.25846">
        <ele>487.4</ele>
        <time>2021-04-03T15:38:40Z</time>
      </trkpt>
      <trkpt lat="46.17441" lon="6.25849">
        <ele>487.6</ele>
        <time>2021-04-03T15:38:41Z</time>
      </trkpt>
      <trkpt lat="46.17441" lon="6.25852">
        <ele>487.6</ele>
        <time>2021-04-03T15:38:42Z</time>
      </trkpt>
      <trkpt lat="46.1744" lon="6.25854">
        <ele>487.6</ele>
        <time>2021-04-03T15:38:43Z</time>
      </trkpt>
      <trkpt lat="46.17439" lon="6.25856">
        <ele>487.6</ele>
        <time>2021-04-03T15:38:44Z</time>
      </trkpt>
      <trkpt lat="46.17436" lon="6.25856">
        <ele>487.6</ele>
        <time>2021-04-03T15:38:45Z</time>
      </trkpt>
      <trkpt lat="46.17434" lon="6.25855">
        <ele>487.4</ele>
        <time>2021-04-03T15:38:46Z</time>
      </trkpt>
      <trkpt lat="46.17431" lon="6.25852">
        <ele>487.4</ele>
        <time>2021-04-03T15:38:47Z</time>
      </trkpt>
      <trkpt lat="46.17428" lon="6.2585">
        <ele>487.6</ele>
        <time>2021-04-03T15:38:48Z</time>
      </trkpt>
      <trkpt lat="46.17426" lon="6.25847">
        <ele>487.4</ele>
        <time>2021-04-03T15:38:49Z</time>
      </trkpt>
      <trkpt lat="46.17423" lon="6.25845">
        <ele>487.4</ele>
        <time>2021-04-03T15:38:50Z</time>
      </trkpt>
      <trkpt lat="46.17421" lon="6.25842">
        <ele>487.4</ele>
        <time>2021-04-03T15:38:51Z</time>
      </trkpt>
      <trkpt lat="46.1742" lon="6.25838">
        <ele>487.4</ele>
        <time>2021-04-03T15:38:52Z</time>
      </trkpt>
      <trkpt lat="46.17419" lon="6.25835">
        <ele>487.6</ele>
        <time>2021-04-03T15:38:53Z</time>
      </trkpt>
      <trkpt lat="46.17419" lon="6.25833">
        <ele>487.6</ele>
        <time>2021-04-03T15:38:54Z</time>
      </trkpt>
      <trkpt lat="46.1742" lon="6.2583">
        <ele>487.4</ele>
        <time>2021-04-03T15:38:55Z</time>
      </trkpt>
      <trkpt lat="46.1742" lon="6.25827">
        <ele>487</ele>
        <time>2021-04-03T15:38:56Z</time>
      </trkpt>
      <trkpt lat="46.1742" lon="6.25824">
        <ele>486.8</ele>
        <time>2021-04-03T15:38:57Z</time>
      </trkpt>
      <trkpt lat="46.17421" lon="6.2582">
        <ele>486.8</ele>
        <time>2021-04-03T15:38:58Z</time>
      </trkpt>
      <trkpt lat="46.17421" lon="6.25816">
        <ele>486.6</ele>
        <time>2021-04-03T15:38:59Z</time>
      </trkpt>
      <trkpt lat="46.17422" lon="6.25811">
        <ele>486.6</ele>
        <time>2021-04-03T15:39:00Z</time>
      </trkpt>
      <trkpt lat="46.17422" lon="6.25807">
        <ele>486.4</ele>
        <time>2021-04-03T15:39:01Z</time>
      </trkpt>
      <trkpt lat="46.17423" lon="6.25802">
        <ele>486.4</ele>
        <time>2021-04-03T15:39:02Z</time>
      </trkpt>
      <trkpt lat="46.17424" lon="6.25796">
        <ele>486.2</ele>
        <time>2021-04-03T15:39:03Z</time>
      </trkpt>
      <trkpt lat="46.17426" lon="6.25792">
        <ele>486.2</ele>
        <time>2021-04-03T15:39:04Z</time>
      </trkpt>
      <trkpt lat="46.17429" lon="6.25788">
        <ele>486.2</ele>
        <time>2021-04-03T15:39:05Z</time>
      </trkpt>
      <trkpt lat="46.17433" lon="6.25785">
        <ele>486</ele>
        <time>2021-04-03T15:39:06Z</time>
      </trkpt>
      <trkpt lat="46.17436" lon="6.25781">
        <ele>486</ele>
        <time>2021-04-03T15:39:07Z</time>
      </trkpt>
      <trkpt lat="46.1744" lon="6.25777">
        <ele>486</ele>
        <time>2021-04-03T15:39:08Z</time>
      </trkpt>
      <trkpt lat="46.17443" lon="6.25772">
        <ele>486</ele>
        <time>2021-04-03T15:39:09Z</time>
      </trkpt>
      <trkpt lat="46.17446" lon="6.25767">
        <ele>485.8</ele>
        <time>2021-04-03T15:39:10Z</time>
      </trkpt>
      <trkpt lat="46.1745" lon="6.25762">
        <ele>485.6</ele>
        <time>2021-04-03T15:39:11Z</time>
      </trkpt>
      <trkpt lat="46.17454" lon="6.25758">
        <ele>485.6</ele>
        <time>2021-04-03T15:39:12Z</time>
      </trkpt>
      <trkpt lat="46.17458" lon="6.25753">
        <ele>485.6</ele>
        <time>2021-04-03T15:39:13Z</time>
      </trkpt>
      <trkpt lat="46.17463" lon="6.25749">
        <ele>485.4</ele>
        <time>2021-04-03T15:39:14Z</time>
      </trkpt>
      <trkpt lat="46.17469" lon="6.25744">
        <ele>485</ele>
        <time>2021-04-03T15:39:15Z</time>
      </trkpt>
      <trkpt lat="46.17475" lon="6.25739">
        <ele>485</ele>
        <time>2021-04-03T15:39:16Z</time>
      </trkpt>
      <trkpt lat="46.1748" lon="6.25733">
        <ele>484.8</ele>
        <time>2021-04-03T15:39:17Z</time>
      </trkpt>
      <trkpt lat="46.17486" lon="6.25728">
        <ele>484.2</ele>
        <time>2021-04-03T15:39:18Z</time>
      </trkpt>
      <trkpt lat="46.17498" lon="6.25718">
        <ele>483.6</ele>
        <time>2021-04-03T15:39:20Z</time>
      </trkpt>
      <trkpt lat="46.17505" lon="6.25713">
        <ele>483.2</ele>
        <time>2021-04-03T15:39:21Z</time>
      </trkpt>
      <trkpt lat="46.17511" lon="6.25708">
        <ele>483.2</ele>
        <time>2021-04-03T15:39:22Z</time>
      </trkpt>
      <trkpt lat="46.17518" lon="6.25702">
        <ele>483</ele>
        <time>2021-04-03T15:39:23Z</time>
      </trkpt>
      <trkpt lat="46.17524" lon="6.25696">
        <ele>482.8</ele>
        <time>2021-04-03T15:39:24Z</time>
      </trkpt>
      <trkpt lat="46.17531" lon="6.25689">
        <ele>481.6</ele>
        <time>2021-04-03T15:39:25Z</time>
      </trkpt>
      <trkpt lat="46.17539" lon="6.25683">
        <ele>481</ele>
        <time>2021-04-03T15:39:26Z</time>
      </trkpt>
      <trkpt lat="46.17546" lon="6.25676">
        <ele>480.6</ele>
        <time>2021-04-03T15:39:27Z</time>
      </trkpt>
      <trkpt lat="46.17554" lon="6.2567">
        <ele>480.4</ele>
        <time>2021-04-03T15:39:28Z</time>
      </trkpt>
      <trkpt lat="46.17563" lon="6.25664">
        <ele>480</ele>
        <time>2021-04-03T15:39:29Z</time>
      </trkpt>
      <trkpt lat="46.17571" lon="6.25658">
        <ele>479.4</ele>
        <time>2021-04-03T15:39:30Z</time>
      </trkpt>
      <trkpt lat="46.1758" lon="6.25653">
        <ele>479</ele>
        <time>2021-04-03T15:39:31Z</time>
      </trkpt>
      <trkpt lat="46.17589" lon="6.25649">
        <ele>478.6</ele>
        <time>2021-04-03T15:39:32Z</time>
      </trkpt>
      <trkpt lat="46.17598" lon="6.25644">
        <ele>477.8</ele>
        <time>2021-04-03T15:39:33Z</time>
      </trkpt>
      <trkpt lat="46.17606" lon="6.25639">
        <ele>477.2</ele>
        <time>2021-04-03T15:39:34Z</time>
      </trkpt>
      <trkpt lat="46.17615" lon="6.25634">
        <ele>476.8</ele>
        <time>2021-04-03T15:39:35Z</time>
      </trkpt>
      <trkpt lat="46.17623" lon="6.2563">
        <ele>476.4</ele>
        <time>2021-04-03T15:39:36Z</time>
      </trkpt>
      <trkpt lat="46.17631" lon="6.25625">
        <ele>475.8</ele>
        <time>2021-04-03T15:39:37Z</time>
      </trkpt>
      <trkpt lat="46.1764" lon="6.25621">
        <ele>475.2</ele>
        <time>2021-04-03T15:39:38Z</time>
      </trkpt>
      <trkpt lat="46.17647" lon="6.25617">
        <ele>474.8</ele>
        <time>2021-04-03T15:39:39Z</time>
      </trkpt>
      <trkpt lat="46.17655" lon="6.25613">
        <ele>474.4</ele>
        <time>2021-04-03T15:39:40Z</time>
      </trkpt>
      <trkpt lat="46.17663" lon="6.25609">
        <ele>473.8</ele>
        <time>2021-04-03T15:39:41Z</time>
      </trkpt>
      <trkpt lat="46.1767" lon="6.25605">
        <ele>473.4</ele>
        <time>2021-04-03T15:39:42Z</time>
      </trkpt>
      <trkpt lat="46.17677" lon="6.25601">
        <ele>473</ele>
        <time>2021-04-03T15:39:43Z</time>
      </trkpt>
      <trkpt lat="46.17684" lon="6.25597">
        <ele>472.6</ele>
        <time>2021-04-03T15:39:44Z</time>
      </trkpt>
      <trkpt lat="46.17691" lon="6.25593">
        <ele>472.4</ele>
        <time>2021-04-03T15:39:45Z</time>
      </trkpt>
      <trkpt lat="46.17699" lon="6.2559">
        <ele>472.2</ele>
        <time>2021-04-03T15:39:46Z</time>
      </trkpt>
      <trkpt lat="46.17706" lon="6.25586">
        <ele>472.2</ele>
        <time>2021-04-03T15:39:47Z</time>
      </trkpt>
      <trkpt lat="46.17713" lon="6.25582">
        <ele>472.2</ele>
        <time>2021-04-03T15:39:48Z</time>
      </trkpt>
      <trkpt lat="46.1772" lon="6.25579">
        <ele>471.8</ele>
        <time>2021-04-03T15:39:49Z</time>
      </trkpt>
      <trkpt lat="46.17726" lon="6.25575">
        <ele>471.8</ele>
        <time>2021-04-03T15:39:50Z</time>
      </trkpt>
      <trkpt lat="46.17733" lon="6.25572">
        <ele>471.8</ele>
        <time>2021-04-03T15:39:51Z</time>
      </trkpt>
      <trkpt lat="46.1774" lon="6.25568">
        <ele>471.8</ele>
        <time>2021-04-03T15:39:52Z</time>
      </trkpt>
      <trkpt lat="46.17747" lon="6.25564">
        <ele>471.4</ele>
        <time>2021-04-03T15:39:53Z</time>
      </trkpt>
      <trkpt lat="46.17754" lon="6.25561">
        <ele>471.2</ele>
        <time>2021-04-03T15:39:54Z</time>
      </trkpt>
      <trkpt lat="46.17761" lon="6.25558">
        <ele>471</ele>
        <time>2021-04-03T15:39:55Z</time>
      </trkpt>
      <trkpt lat="46.17768" lon="6.25556">
        <ele>470.8</ele>
        <time>2021-04-03T15:39:56Z</time>
      </trkpt>
      <trkpt lat="46.17774" lon="6.25555">
        <ele>470.8</ele>
        <time>2021-04-03T15:39:57Z</time>
      </trkpt>
      <trkpt lat="46.17781" lon="6.25553">
        <ele>470.6</ele>
        <time>2021-04-03T15:39:58Z</time>
      </trkpt>
      <trkpt lat="46.17786" lon="6.25552">
        <ele>470.4</ele>
        <time>2021-04-03T15:39:59Z</time>
      </trkpt>
      <trkpt lat="46.17792" lon="6.25551">
        <ele>470.6</ele>
        <time>2021-04-03T15:40:00Z</time>
      </trkpt>
      <trkpt lat="46.17798" lon="6.2555">
        <ele>470.4</ele>
        <time>2021-04-03T15:40:01Z</time>
      </trkpt>
      <trkpt lat="46.17803" lon="6.2555">
        <ele>470.6</ele>
        <time>2021-04-03T15:40:02Z</time>
      </trkpt>
      <trkpt lat="46.17809" lon="6.25549">
        <ele>470.4</ele>
        <time>2021-04-03T15:40:03Z</time>
      </trkpt>
      <trkpt lat="46.17814" lon="6.25549">
        <ele>470.6</ele>
        <time>2021-04-03T15:40:04Z</time>
      </trkpt>
      <trkpt lat="46.17819" lon="6.25549">
        <ele>470.6</ele>
        <time>2021-04-03T15:40:05Z</time>
      </trkpt>
      <trkpt lat="46.17825" lon="6.25549">
        <ele>470.6</ele>
        <time>2021-04-03T15:40:06Z</time>
      </trkpt>
      <trkpt lat="46.1783" lon="6.25549">
        <ele>470.2</ele>
        <time>2021-04-03T15:40:07Z</time>
      </trkpt>
      <trkpt lat="46.17839" lon="6.25549">
        <ele>470</ele>
        <time>2021-04-03T15:40:09Z</time>
      </trkpt>
      <trkpt lat="46.17844" lon="6.25549">
        <ele>470.2</ele>
        <time>2021-04-03T15:40:10Z</time>
      </trkpt>
      <trkpt lat="46.1785" lon="6.2555">
        <ele>470.2</ele>
        <time>2021-04-03T15:40:11Z</time>
      </trkpt>
      <trkpt lat="46.17855" lon="6.25551">
        <ele>470.2</ele>
        <time>2021-04-03T15:40:12Z</time>
      </trkpt>
      <trkpt lat="46.1786" lon="6.25552">
        <ele>470.4</ele>
        <time>2021-04-03T15:40:13Z</time>
      </trkpt>
      <trkpt lat="46.17865" lon="6.25553">
        <ele>470.4</ele>
        <time>2021-04-03T15:40:14Z</time>
      </trkpt>
      <trkpt lat="46.1787" lon="6.25554">
        <ele>470.4</ele>
        <time>2021-04-03T15:40:15Z</time>
      </trkpt>
      <trkpt lat="46.17876" lon="6.25555">
        <ele>470.8</ele>
        <time>2021-04-03T15:40:16Z</time>
      </trkpt>
      <trkpt lat="46.17881" lon="6.25556">
        <ele>470.6</ele>
        <time>2021-04-03T15:40:17Z</time>
      </trkpt>
      <trkpt lat="46.17887" lon="6.25556">
        <ele>471.2</ele>
        <time>2021-04-03T15:40:18Z</time>
      </trkpt>
      <trkpt lat="46.17892" lon="6.25557">
        <ele>471.4</ele>
        <time>2021-04-03T15:40:19Z</time>
      </trkpt>
      <trkpt lat="46.17897" lon="6.25556">
        <ele>471.4</ele>
        <time>2021-04-03T15:40:20Z</time>
      </trkpt>
      <trkpt lat="46.17902" lon="6.25556">
        <ele>472</ele>
        <time>2021-04-03T15:40:21Z</time>
      </trkpt>
      <trkpt lat="46.17907" lon="6.25556">
        <ele>472.4</ele>
        <time>2021-04-03T15:40:22Z</time>
      </trkpt>
      <trkpt lat="46.17913" lon="6.25555">
        <ele>472.6</ele>
        <time>2021-04-03T15:40:23Z</time>
      </trkpt>
      <trkpt lat="46.17918" lon="6.25555">
        <ele>472.6</ele>
        <time>2021-04-03T15:40:24Z</time>
      </trkpt>
      <trkpt lat="46.17923" lon="6.25553">
        <ele>472.8</ele>
        <time>2021-04-03T15:40:25Z</time>
      </trkpt>
      <trkpt lat="46.17928" lon="6.25552">
        <ele>473</ele>
        <time>2021-04-03T15:40:26Z</time>
      </trkpt>
      <trkpt lat="46.17933" lon="6.2555">
        <ele>473.4</ele>
        <time>2021-04-03T15:40:27Z</time>
      </trkpt>
      <trkpt lat="46.17938" lon="6.25549">
        <ele>473.8</ele>
        <time>2021-04-03T15:40:28Z</time>
      </trkpt>
      <trkpt lat="46.17943" lon="6.25548">
        <ele>474</ele>
        <time>2021-04-03T15:40:29Z</time>
      </trkpt>
      <trkpt lat="46.17948" lon="6.25547">
        <ele>474.4</ele>
        <time>2021-04-03T15:40:30Z</time>
      </trkpt>
      <trkpt lat="46.17953" lon="6.25545">
        <ele>474.6</ele>
        <time>2021-04-03T15:40:31Z</time>
      </trkpt>
      <trkpt lat="46.17958" lon="6.25543">
        <ele>475</ele>
        <time>2021-04-03T15:40:32Z</time>
      </trkpt>
      <trkpt lat="46.17964" lon="6.25542">
        <ele>475.4</ele>
        <time>2021-04-03T15:40:33Z</time>
      </trkpt>
      <trkpt lat="46.17969" lon="6.2554">
        <ele>475.4</ele>
        <time>2021-04-03T15:40:34Z</time>
      </trkpt>
      <trkpt lat="46.17975" lon="6.25538">
        <ele>475.6</ele>
        <time>2021-04-03T15:40:35Z</time>
      </trkpt>
      <trkpt lat="46.1798" lon="6.25535">
        <ele>476</ele>
        <time>2021-04-03T15:40:36Z</time>
      </trkpt>
      <trkpt lat="46.17986" lon="6.25532">
        <ele>476.2</ele>
        <time>2021-04-03T15:40:37Z</time>
      </trkpt>
      <trkpt lat="46.17991" lon="6.25529">
        <ele>476.6</ele>
        <time>2021-04-03T15:40:38Z</time>
      </trkpt>
      <trkpt lat="46.17997" lon="6.25525">
        <ele>476.6</ele>
        <time>2021-04-03T15:40:39Z</time>
      </trkpt>
      <trkpt lat="46.18002" lon="6.25521">
        <ele>476.8</ele>
        <time>2021-04-03T15:40:40Z</time>
      </trkpt>
      <trkpt lat="46.18008" lon="6.25517">
        <ele>476.8</ele>
        <time>2021-04-03T15:40:41Z</time>
      </trkpt>
      <trkpt lat="46.18013" lon="6.25513">
        <ele>476.8</ele>
        <time>2021-04-03T15:40:42Z</time>
      </trkpt>
      <trkpt lat="46.18019" lon="6.25508">
        <ele>477</ele>
        <time>2021-04-03T15:40:43Z</time>
      </trkpt>
      <trkpt lat="46.18024" lon="6.25503">
        <ele>476.8</ele>
        <time>2021-04-03T15:40:44Z</time>
      </trkpt>
      <trkpt lat="46.1803" lon="6.25498">
        <ele>476.8</ele>
        <time>2021-04-03T15:40:45Z</time>
      </trkpt>
      <trkpt lat="46.18035" lon="6.25493">
        <ele>477</ele>
        <time>2021-04-03T15:40:46Z</time>
      </trkpt>
      <trkpt lat="46.18041" lon="6.25486">
        <ele>476.8</ele>
        <time>2021-04-03T15:40:47Z</time>
      </trkpt>
      <trkpt lat="46.18046" lon="6.25479">
        <ele>476.8</ele>
        <time>2021-04-03T15:40:48Z</time>
      </trkpt>
      <trkpt lat="46.18051" lon="6.25472">
        <ele>476.8</ele>
        <time>2021-04-03T15:40:49Z</time>
      </trkpt>
      <trkpt lat="46.18055" lon="6.25464">
        <ele>476.6</ele>
        <time>2021-04-03T15:40:50Z</time>
      </trkpt>
      <trkpt lat="46.18061" lon="6.25456">
        <ele>476.6</ele>
        <time>2021-04-03T15:40:51Z</time>
      </trkpt>
      <trkpt lat="46.18066" lon="6.25448">
        <ele>476.4</ele>
        <time>2021-04-03T15:40:52Z</time>
      </trkpt>
      <trkpt lat="46.18072" lon="6.2544">
        <ele>476.2</ele>
        <time>2021-04-03T15:40:53Z</time>
      </trkpt>
      <trkpt lat="46.18078" lon="6.25431">
        <ele>476</ele>
        <time>2021-04-03T15:40:54Z</time>
      </trkpt>
      <trkpt lat="46.18085" lon="6.25423">
        <ele>475.8</ele>
        <time>2021-04-03T15:40:55Z</time>
      </trkpt>
      <trkpt lat="46.18092" lon="6.25416">
        <ele>475.6</ele>
        <time>2021-04-03T15:40:56Z</time>
      </trkpt>
      <trkpt lat="46.181" lon="6.25409">
        <ele>475.2</ele>
        <time>2021-04-03T15:40:57Z</time>
      </trkpt>
      <trkpt lat="46.18108" lon="6.25403">
        <ele>474.4</ele>
        <time>2021-04-03T15:40:58Z</time>
      </trkpt>
      <trkpt lat="46.18116" lon="6.25397">
        <ele>473.8</ele>
        <time>2021-04-03T15:40:59Z</time>
      </trkpt>
      <trkpt lat="46.18125" lon="6.25392">
        <ele>473.4</ele>
        <time>2021-04-03T15:41:00Z</time>
      </trkpt>
      <trkpt lat="46.18134" lon="6.25387">
        <ele>473.2</ele>
        <time>2021-04-03T15:41:01Z</time>
      </trkpt>
      <trkpt lat="46.18142" lon="6.25382">
        <ele>472.8</ele>
        <time>2021-04-03T15:41:02Z</time>
      </trkpt>
      <trkpt lat="46.1815" lon="6.25377">
        <ele>472.8</ele>
        <time>2021-04-03T15:41:03Z</time>
      </trkpt>
      <trkpt lat="46.18157" lon="6.25372">
        <ele>472.4</ele>
        <time>2021-04-03T15:41:04Z</time>
      </trkpt>
      <trkpt lat="46.18164" lon="6.25367">
        <ele>472.2</ele>
        <time>2021-04-03T15:41:05Z</time>
      </trkpt>
      <trkpt lat="46.18172" lon="6.25363">
        <ele>471.8</ele>
        <time>2021-04-03T15:41:06Z</time>
      </trkpt>
      <trkpt lat="46.1818" lon="6.25359">
        <ele>471</ele>
        <time>2021-04-03T15:41:07Z</time>
      </trkpt>
      <trkpt lat="46.18188" lon="6.25354">
        <ele>470.6</ele>
        <time>2021-04-03T15:41:08Z</time>
      </trkpt>
      <trkpt lat="46.18195" lon="6.2535">
        <ele>470.4</ele>
        <time>2021-04-03T15:41:09Z</time>
      </trkpt>
      <trkpt lat="46.18203" lon="6.25345">
        <ele>470.2</ele>
        <time>2021-04-03T15:41:10Z</time>
      </trkpt>
      <trkpt lat="46.18211" lon="6.2534">
        <ele>470.2</ele>
        <time>2021-04-03T15:41:11Z</time>
      </trkpt>
      <trkpt lat="46.18218" lon="6.25335">
        <ele>469.8</ele>
        <time>2021-04-03T15:41:12Z</time>
      </trkpt>
      <trkpt lat="46.18226" lon="6.2533">
        <ele>469.8</ele>
        <time>2021-04-03T15:41:13Z</time>
      </trkpt>
      <trkpt lat="46.18233" lon="6.25326">
        <ele>469.6</ele>
        <time>2021-04-03T15:41:14Z</time>
      </trkpt>
      <trkpt lat="46.1824" lon="6.25321">
        <ele>469.6</ele>
        <time>2021-04-03T15:41:15Z</time>
      </trkpt>
      <trkpt lat="46.18247" lon="6.25316">
        <ele>469.4</ele>
        <time>2021-04-03T15:41:16Z</time>
      </trkpt>
      <trkpt lat="46.18254" lon="6.25311">
        <ele>469.2</ele>
        <time>2021-04-03T15:41:17Z</time>
      </trkpt>
      <trkpt lat="46.1826" lon="6.25306">
        <ele>469.2</ele>
        <time>2021-04-03T15:41:18Z</time>
      </trkpt>
      <trkpt lat="46.18267" lon="6.25302">
        <ele>469</ele>
        <time>2021-04-03T15:41:19Z</time>
      </trkpt>
      <trkpt lat="46.18274" lon="6.25298">
        <ele>469</ele>
        <time>2021-04-03T15:41:20Z</time>
      </trkpt>
      <trkpt lat="46.1828" lon="6.25294">
        <ele>468.8</ele>
        <time>2021-04-03T15:41:21Z</time>
      </trkpt>
      <trkpt lat="46.18287" lon="6.2529">
        <ele>468.6</ele>
        <time>2021-04-03T15:41:22Z</time>
      </trkpt>
      <trkpt lat="46.18294" lon="6.25285">
        <ele>468.4</ele>
        <time>2021-04-03T15:41:23Z</time>
      </trkpt>
      <trkpt lat="46.18301" lon="6.25281">
        <ele>468.4</ele>
        <time>2021-04-03T15:41:24Z</time>
      </trkpt>
      <trkpt lat="46.18308" lon="6.25276">
        <ele>468.4</ele>
        <time>2021-04-03T15:41:25Z</time>
      </trkpt>
      <trkpt lat="46.18315" lon="6.25272">
        <ele>467.8</ele>
        <time>2021-04-03T15:41:26Z</time>
      </trkpt>
      <trkpt lat="46.18322" lon="6.25267">
        <ele>467.6</ele>
        <time>2021-04-03T15:41:27Z</time>
      </trkpt>
      <trkpt lat="46.1833" lon="6.25263">
        <ele>467.4</ele>
        <time>2021-04-03T15:41:28Z</time>
      </trkpt>
      <trkpt lat="46.18338" lon="6.25258">
        <ele>467.4</ele>
        <time>2021-04-03T15:41:29Z</time>
      </trkpt>
      <trkpt lat="46.18345" lon="6.25253">
        <ele>467.2</ele>
        <time>2021-04-03T15:41:30Z</time>
      </trkpt>
      <trkpt lat="46.18353" lon="6.25248">
        <ele>466.8</ele>
        <time>2021-04-03T15:41:31Z</time>
      </trkpt>
      <trkpt lat="46.1836" lon="6.25243">
        <ele>466.6</ele>
        <time>2021-04-03T15:41:32Z</time>
      </trkpt>
      <trkpt lat="46.18367" lon="6.25238">
        <ele>466.6</ele>
        <time>2021-04-03T15:41:33Z</time>
      </trkpt>
      <trkpt lat="46.18374" lon="6.25232">
        <ele>466.6</ele>
        <time>2021-04-03T15:41:34Z</time>
      </trkpt>
      <trkpt lat="46.18382" lon="6.25227">
        <ele>466.4</ele>
        <time>2021-04-03T15:41:35Z</time>
      </trkpt>
      <trkpt lat="46.1839" lon="6.25222">
        <ele>466.2</ele>
        <time>2021-04-03T15:41:36Z</time>
      </trkpt>
      <trkpt lat="46.18397" lon="6.25217">
        <ele>466</ele>
        <time>2021-04-03T15:41:37Z</time>
      </trkpt>
      <trkpt lat="46.18404" lon="6.25212">
        <ele>465.8</ele>
        <time>2021-04-03T15:41:38Z</time>
      </trkpt>
      <trkpt lat="46.18412" lon="6.25208">
        <ele>465.4</ele>
        <time>2021-04-03T15:41:39Z</time>
      </trkpt>
      <trkpt lat="46.18419" lon="6.25204">
        <ele>465</ele>
        <time>2021-04-03T15:41:40Z</time>
      </trkpt>
      <trkpt lat="46.18427" lon="6.252">
        <ele>464.4</ele>
        <time>2021-04-03T15:41:41Z</time>
      </trkpt>
      <trkpt lat="46.18434" lon="6.25197">
        <ele>464</ele>
        <time>2021-04-03T15:41:42Z</time>
      </trkpt>
      <trkpt lat="46.18442" lon="6.25194">
        <ele>463.8</ele>
        <time>2021-04-03T15:41:43Z</time>
      </trkpt>
      <trkpt lat="46.18449" lon="6.25191">
        <ele>463.4</ele>
        <time>2021-04-03T15:41:44Z</time>
      </trkpt>
      <trkpt lat="46.18456" lon="6.25188">
        <ele>463</ele>
        <time>2021-04-03T15:41:45Z</time>
      </trkpt>
      <trkpt lat="46.18464" lon="6.25186">
        <ele>462.6</ele>
        <time>2021-04-03T15:41:46Z</time>
      </trkpt>
      <trkpt lat="46.18471" lon="6.25183">
        <ele>462.2</ele>
        <time>2021-04-03T15:41:47Z</time>
      </trkpt>
      <trkpt lat="46.18479" lon="6.25182">
        <ele>462.2</ele>
        <time>2021-04-03T15:41:48Z</time>
      </trkpt>
      <trkpt lat="46.18487" lon="6.2518">
        <ele>462</ele>
        <time>2021-04-03T15:41:49Z</time>
      </trkpt>
      <trkpt lat="46.18494" lon="6.25178">
        <ele>461.8</ele>
        <time>2021-04-03T15:41:50Z</time>
      </trkpt>
      <trkpt lat="46.18502" lon="6.25176">
        <ele>461.6</ele>
        <time>2021-04-03T15:41:51Z</time>
      </trkpt>
      <trkpt lat="46.1851" lon="6.25175">
        <ele>461.6</ele>
        <time>2021-04-03T15:41:52Z</time>
      </trkpt>
      <trkpt lat="46.18517" lon="6.25173">
        <ele>461.4</ele>
        <time>2021-04-03T15:41:53Z</time>
      </trkpt>
      <trkpt lat="46.18524" lon="6.25171">
        <ele>461.2</ele>
        <time>2021-04-03T15:41:54Z</time>
      </trkpt>
      <trkpt lat="46.18531" lon="6.2517">
        <ele>461</ele>
        <time>2021-04-03T15:41:55Z</time>
      </trkpt>
      <trkpt lat="46.18538" lon="6.25168">
        <ele>460.8</ele>
        <time>2021-04-03T15:41:56Z</time>
      </trkpt>
      <trkpt lat="46.18545" lon="6.25167">
        <ele>460</ele>
        <time>2021-04-03T15:41:57Z</time>
      </trkpt>
      <trkpt lat="46.18552" lon="6.25165">
        <ele>459.6</ele>
        <time>2021-04-03T15:41:58Z</time>
      </trkpt>
      <trkpt lat="46.18559" lon="6.25164">
        <ele>459.4</ele>
        <time>2021-04-03T15:41:59Z</time>
      </trkpt>
      <trkpt lat="46.18565" lon="6.25163">
        <ele>459.2</ele>
        <time>2021-04-03T15:42:00Z</time>
      </trkpt>
      <trkpt lat="46.1857" lon="6.25162">
        <ele>459.2</ele>
        <time>2021-04-03T15:42:01Z</time>
      </trkpt>
      <trkpt lat="46.18575" lon="6.25161">
        <ele>459</ele>
        <time>2021-04-03T15:42:02Z</time>
      </trkpt>
      <trkpt lat="46.18579" lon="6.25159">
        <ele>459</ele>
        <time>2021-04-03T15:42:03Z</time>
      </trkpt>
      <trkpt lat="46.18584" lon="6.25158">
        <ele>458.8</ele>
        <time>2021-04-03T15:42:04Z</time>
      </trkpt>
      <trkpt lat="46.1859" lon="6.25157">
        <ele>458.8</ele>
        <time>2021-04-03T15:42:05Z</time>
      </trkpt>
      <trkpt lat="46.18595" lon="6.25156">
        <ele>458.8</ele>
        <time>2021-04-03T15:42:06Z</time>
      </trkpt>
      <trkpt lat="46.18601" lon="6.25154">
        <ele>458.8</ele>
        <time>2021-04-03T15:42:07Z</time>
      </trkpt>
      <trkpt lat="46.18607" lon="6.25153">
        <ele>458.6</ele>
        <time>2021-04-03T15:42:08Z</time>
      </trkpt>
      <trkpt lat="46.18613" lon="6.25152">
        <ele>458.4</ele>
        <time>2021-04-03T15:42:09Z</time>
      </trkpt>
      <trkpt lat="46.18619" lon="6.2515">
        <ele>458.4</ele>
        <time>2021-04-03T15:42:10Z</time>
      </trkpt>
      <trkpt lat="46.18625" lon="6.25148">
        <ele>458.2</ele>
        <time>2021-04-03T15:42:11Z</time>
      </trkpt>
      <trkpt lat="46.18631" lon="6.25145">
        <ele>458.2</ele>
        <time>2021-04-03T15:42:12Z</time>
      </trkpt>
      <trkpt lat="46.18636" lon="6.25142">
        <ele>458</ele>
        <time>2021-04-03T15:42:13Z</time>
      </trkpt>
      <trkpt lat="46.18642" lon="6.2514">
        <ele>458.2</ele>
        <time>2021-04-03T15:42:14Z</time>
      </trkpt>
      <trkpt lat="46.18649" lon="6.25137">
        <ele>458.2</ele>
        <time>2021-04-03T15:42:15Z</time>
      </trkpt>
      <trkpt lat="46.18655" lon="6.25135">
        <ele>458</ele>
        <time>2021-04-03T15:42:16Z</time>
      </trkpt>
      <trkpt lat="46.18661" lon="6.25133">
        <ele>457.8</ele>
        <time>2021-04-03T15:42:17Z</time>
      </trkpt>
      <trkpt lat="46.18668" lon="6.25131">
        <ele>457.8</ele>
        <time>2021-04-03T15:42:18Z</time>
      </trkpt>
      <trkpt lat="46.18674" lon="6.25129">
        <ele>457.8</ele>
        <time>2021-04-03T15:42:19Z</time>
      </trkpt>
      <trkpt lat="46.1868" lon="6.25127">
        <ele>457.6</ele>
        <time>2021-04-03T15:42:20Z</time>
      </trkpt>
      <trkpt lat="46.18687" lon="6.25124">
        <ele>457.4</ele>
        <time>2021-04-03T15:42:21Z</time>
      </trkpt>
      <trkpt lat="46.18692" lon="6.25122">
        <ele>456.8</ele>
        <time>2021-04-03T15:42:22Z</time>
      </trkpt>
      <trkpt lat="46.18699" lon="6.25119">
        <ele>456.4</ele>
        <time>2021-04-03T15:42:23Z</time>
      </trkpt>
      <trkpt lat="46.18705" lon="6.25116">
        <ele>456.2</ele>
        <time>2021-04-03T15:42:24Z</time>
      </trkpt>
      <trkpt lat="46.18711" lon="6.25113">
        <ele>456</ele>
        <time>2021-04-03T15:42:25Z</time>
      </trkpt>
      <trkpt lat="46.18717" lon="6.2511">
        <ele>455.8</ele>
        <time>2021-04-03T15:42:26Z</time>
      </trkpt>
      <trkpt lat="46.18723" lon="6.25108">
        <ele>455.6</ele>
        <time>2021-04-03T15:42:27Z</time>
      </trkpt>
      <trkpt lat="46.18729" lon="6.25106">
        <ele>455.6</ele>
        <time>2021-04-03T15:42:28Z</time>
      </trkpt>
      <trkpt lat="46.18735" lon="6.25104">
        <ele>455.6</ele>
        <time>2021-04-03T15:42:29Z</time>
      </trkpt>
      <trkpt lat="46.1874" lon="6.25101">
        <ele>455.4</ele>
        <time>2021-04-03T15:42:30Z</time>
      </trkpt>
      <trkpt lat="46.18746" lon="6.25099">
        <ele>455.2</ele>
        <time>2021-04-03T15:42:31Z</time>
      </trkpt>
      <trkpt lat="46.18752" lon="6.25097">
        <ele>455</ele>
        <time>2021-04-03T15:42:32Z</time>
      </trkpt>
      <trkpt lat="46.18758" lon="6.25095">
        <ele>454.8</ele>
        <time>2021-04-03T15:42:33Z</time>
      </trkpt>
      <trkpt lat="46.18764" lon="6.25093">
        <ele>454.8</ele>
        <time>2021-04-03T15:42:34Z</time>
      </trkpt>
      <trkpt lat="46.1877" lon="6.25091">
        <ele>454.4</ele>
        <time>2021-04-03T15:42:35Z</time>
      </trkpt>
      <trkpt lat="46.18776" lon="6.25089">
        <ele>454.2</ele>
        <time>2021-04-03T15:42:36Z</time>
      </trkpt>
      <trkpt lat="46.18781" lon="6.25087">
        <ele>453.8</ele>
        <time>2021-04-03T15:42:37Z</time>
      </trkpt>
      <trkpt lat="46.18787" lon="6.25086">
        <ele>453.6</ele>
        <time>2021-04-03T15:42:38Z</time>
      </trkpt>
      <trkpt lat="46.18794" lon="6.25085">
        <ele>453.2</ele>
        <time>2021-04-03T15:42:39Z</time>
      </trkpt>
      <trkpt lat="46.188" lon="6.25084">
        <ele>452.8</ele>
        <time>2021-04-03T15:42:40Z</time>
      </trkpt>
      <trkpt lat="46.18807" lon="6.25084">
        <ele>452.4</ele>
        <time>2021-04-03T15:42:41Z</time>
      </trkpt>
      <trkpt lat="46.18813" lon="6.25083">
        <ele>452.2</ele>
        <time>2021-04-03T15:42:42Z</time>
      </trkpt>
      <trkpt lat="46.1882" lon="6.25083">
        <ele>452.2</ele>
        <time>2021-04-03T15:42:43Z</time>
      </trkpt>
      <trkpt lat="46.18826" lon="6.25084">
        <ele>452</ele>
        <time>2021-04-03T15:42:44Z</time>
      </trkpt>
      <trkpt lat="46.18833" lon="6.25084">
        <ele>451.6</ele>
        <time>2021-04-03T15:42:45Z</time>
      </trkpt>
      <trkpt lat="46.1884" lon="6.25084">
        <ele>451.6</ele>
        <time>2021-04-03T15:42:46Z</time>
      </trkpt>
      <trkpt lat="46.18847" lon="6.25085">
        <ele>451.6</ele>
        <time>2021-04-03T15:42:47Z</time>
      </trkpt>
      <trkpt lat="46.18854" lon="6.25085">
        <ele>451.4</ele>
        <time>2021-04-03T15:42:48Z</time>
      </trkpt>
      <trkpt lat="46.1886" lon="6.25085">
        <ele>451.2</ele>
        <time>2021-04-03T15:42:49Z</time>
      </trkpt>
      <trkpt lat="46.18867" lon="6.25085">
        <ele>451.2</ele>
        <time>2021-04-03T15:42:50Z</time>
      </trkpt>
      <trkpt lat="46.18873" lon="6.25086">
        <ele>450.8</ele>
        <time>2021-04-03T15:42:51Z</time>
      </trkpt>
      <trkpt lat="46.1888" lon="6.25086">
        <ele>450.6</ele>
        <time>2021-04-03T15:42:52Z</time>
      </trkpt>
      <trkpt lat="46.18886" lon="6.25085">
        <ele>450.2</ele>
        <time>2021-04-03T15:42:53Z</time>
      </trkpt>
      <trkpt lat="46.18892" lon="6.25085">
        <ele>450</ele>
        <time>2021-04-03T15:42:54Z</time>
      </trkpt>
      <trkpt lat="46.18899" lon="6.25084">
        <ele>449.8</ele>
        <time>2021-04-03T15:42:55Z</time>
      </trkpt>
      <trkpt lat="46.18906" lon="6.25083">
        <ele>449.6</ele>
        <time>2021-04-03T15:42:56Z</time>
      </trkpt>
      <trkpt lat="46.18912" lon="6.25082">
        <ele>449.4</ele>
        <time>2021-04-03T15:42:57Z</time>
      </trkpt>
      <trkpt lat="46.1892" lon="6.25081">
        <ele>449.4</ele>
        <time>2021-04-03T15:42:58Z</time>
      </trkpt>
      <trkpt lat="46.18927" lon="6.2508">
        <ele>449.4</ele>
        <time>2021-04-03T15:42:59Z</time>
      </trkpt>
      <trkpt lat="46.18933" lon="6.25079">
        <ele>449.2</ele>
        <time>2021-04-03T15:43:00Z</time>
      </trkpt>
      <trkpt lat="46.1894" lon="6.25078">
        <ele>448.8</ele>
        <time>2021-04-03T15:43:01Z</time>
      </trkpt>
      <trkpt lat="46.18946" lon="6.25077">
        <ele>448.8</ele>
        <time>2021-04-03T15:43:02Z</time>
      </trkpt>
      <trkpt lat="46.18953" lon="6.25076">
        <ele>448.8</ele>
        <time>2021-04-03T15:43:03Z</time>
      </trkpt>
      <trkpt lat="46.18966" lon="6.25074">
        <ele>448.6</ele>
        <time>2021-04-03T15:43:05Z</time>
      </trkpt>
      <trkpt lat="46.18972" lon="6.25074">
        <ele>448.6</ele>
        <time>2021-04-03T15:43:06Z</time>
      </trkpt>
      <trkpt lat="46.18979" lon="6.25075">
        <ele>448.4</ele>
        <time>2021-04-03T15:43:07Z</time>
      </trkpt>
      <trkpt lat="46.18985" lon="6.25076">
        <ele>448.2</ele>
        <time>2021-04-03T15:43:08Z</time>
      </trkpt>
      <trkpt lat="46.18997" lon="6.25081">
        <ele>447.6</ele>
        <time>2021-04-03T15:43:10Z</time>
      </trkpt>
      <trkpt lat="46.19009" lon="6.25087">
        <ele>446.2</ele>
        <time>2021-04-03T15:43:12Z</time>
      </trkpt>
      <trkpt lat="46.19015" lon="6.2509">
        <ele>445.6</ele>
        <time>2021-04-03T15:43:13Z</time>
      </trkpt>
      <trkpt lat="46.19024" lon="6.25099">
        <ele>445</ele>
        <time>2021-04-03T15:43:15Z</time>
      </trkpt>
      <trkpt lat="46.19029" lon="6.25103">
        <ele>444.8</ele>
        <time>2021-04-03T15:43:16Z</time>
      </trkpt>
      <trkpt lat="46.19034" lon="6.25104">
        <ele>444.8</ele>
        <time>2021-04-03T15:43:17Z</time>
      </trkpt>
      <trkpt lat="46.1904" lon="6.25105">
        <ele>444.4</ele>
        <time>2021-04-03T15:43:18Z</time>
      </trkpt>
      <trkpt lat="46.19046" lon="6.25108">
        <ele>444</ele>
        <time>2021-04-03T15:43:19Z</time>
      </trkpt>
      <trkpt lat="46.19051" lon="6.25111">
        <ele>443.4</ele>
        <time>2021-04-03T15:43:20Z</time>
      </trkpt>
      <trkpt lat="46.19057" lon="6.25115">
        <ele>443.2</ele>
        <time>2021-04-03T15:43:21Z</time>
      </trkpt>
      <trkpt lat="46.19064" lon="6.25118">
        <ele>443</ele>
        <time>2021-04-03T15:43:22Z</time>
      </trkpt>
      <trkpt lat="46.19071" lon="6.25119">
        <ele>442.8</ele>
        <time>2021-04-03T15:43:23Z</time>
      </trkpt>
      <trkpt lat="46.19077" lon="6.2512">
        <ele>442.6</ele>
        <time>2021-04-03T15:43:24Z</time>
      </trkpt>
      <trkpt lat="46.19083" lon="6.2512">
        <ele>442.4</ele>
        <time>2021-04-03T15:43:25Z</time>
      </trkpt>
      <trkpt lat="46.19088" lon="6.25119">
        <ele>442.2</ele>
        <time>2021-04-03T15:43:26Z</time>
      </trkpt>
      <trkpt lat="46.19094" lon="6.25118">
        <ele>442</ele>
        <time>2021-04-03T15:43:27Z</time>
      </trkpt>
      <trkpt lat="46.19099" lon="6.25116">
        <ele>441.8</ele>
        <time>2021-04-03T15:43:28Z</time>
      </trkpt>
      <trkpt lat="46.19103" lon="6.25114">
        <ele>441.8</ele>
        <time>2021-04-03T15:43:29Z</time>
      </trkpt>
      <trkpt lat="46.19107" lon="6.25112">
        <ele>441.8</ele>
        <time>2021-04-03T15:43:30Z</time>
      </trkpt>
      <trkpt lat="46.1911" lon="6.2511">
        <ele>441.8</ele>
        <time>2021-04-03T15:43:31Z</time>
      </trkpt>
      <trkpt lat="46.19114" lon="6.25107">
        <ele>441.8</ele>
        <time>2021-04-03T15:43:32Z</time>
      </trkpt>
      <trkpt lat="46.19116" lon="6.25105">
        <ele>441.8</ele>
        <time>2021-04-03T15:43:33Z</time>
      </trkpt>
      <trkpt lat="46.19119" lon="6.25104">
        <ele>442</ele>
        <time>2021-04-03T15:43:34Z</time>
      </trkpt>
      <trkpt lat="46.19122" lon="6.25103">
        <ele>441.8</ele>
        <time>2021-04-03T15:43:35Z</time>
      </trkpt>
      <trkpt lat="46.19125" lon="6.25103">
        <ele>442.2</ele>
        <time>2021-04-03T15:43:36Z</time>
      </trkpt>
      <trkpt lat="46.19129" lon="6.25104">
        <ele>442.8</ele>
        <time>2021-04-03T15:43:37Z</time>
      </trkpt>
      <trkpt lat="46.19132" lon="6.25106">
        <ele>443.2</ele>
        <time>2021-04-03T15:43:38Z</time>
      </trkpt>
      <trkpt lat="46.19137" lon="6.25109">
        <ele>443.6</ele>
        <time>2021-04-03T15:43:39Z</time>
      </trkpt>
      <trkpt lat="46.19141" lon="6.2511">
        <ele>443.6</ele>
        <time>2021-04-03T15:43:40Z</time>
      </trkpt>
      <trkpt lat="46.19146" lon="6.2511">
        <ele>443.8</ele>
        <time>2021-04-03T15:43:41Z</time>
      </trkpt>
      <trkpt lat="46.19151" lon="6.25109">
        <ele>443.8</ele>
        <time>2021-04-03T15:43:42Z</time>
      </trkpt>
      <trkpt lat="46.19156" lon="6.25106">
        <ele>444</ele>
        <time>2021-04-03T15:43:43Z</time>
      </trkpt>
      <trkpt lat="46.19161" lon="6.25101">
        <ele>444.2</ele>
        <time>2021-04-03T15:43:44Z</time>
      </trkpt>
      <trkpt lat="46.19165" lon="6.25095">
        <ele>444.4</ele>
        <time>2021-04-03T15:43:45Z</time>
      </trkpt>
      <trkpt lat="46.19169" lon="6.25089">
        <ele>444.6</ele>
        <time>2021-04-03T15:43:46Z</time>
      </trkpt>
      <trkpt lat="46.19173" lon="6.25083">
        <ele>444.8</ele>
        <time>2021-04-03T15:43:47Z</time>
      </trkpt>
      <trkpt lat="46.19179" lon="6.25082">
        <ele>444.8</ele>
        <time>2021-04-03T15:43:48Z</time>
      </trkpt>
      <trkpt lat="46.19185" lon="6.25083">
        <ele>444.8</ele>
        <time>2021-04-03T15:43:49Z</time>
      </trkpt>
      <trkpt lat="46.1919" lon="6.25088">
        <ele>444.8</ele>
        <time>2021-04-03T15:43:50Z</time>
      </trkpt>
      <trkpt lat="46.19194" lon="6.25095">
        <ele>444.8</ele>
        <time>2021-04-03T15:43:51Z</time>
      </trkpt>
      <trkpt lat="46.19199" lon="6.25101">
        <ele>444.6</ele>
        <time>2021-04-03T15:43:52Z</time>
      </trkpt>
      <trkpt lat="46.19203" lon="6.25107">
        <ele>444.2</ele>
        <time>2021-04-03T15:43:53Z</time>
      </trkpt>
      <trkpt lat="46.19208" lon="6.25112">
        <ele>444</ele>
        <time>2021-04-03T15:43:54Z</time>
      </trkpt>
      <trkpt lat="46.19214" lon="6.25115">
        <ele>443.8</ele>
        <time>2021-04-03T15:43:55Z</time>
      </trkpt>
      <trkpt lat="46.1922" lon="6.25116">
        <ele>443.8</ele>
        <time>2021-04-03T15:43:56Z</time>
      </trkpt>
      <trkpt lat="46.19226" lon="6.25116">
        <ele>443.8</ele>
        <time>2021-04-03T15:43:57Z</time>
      </trkpt>
      <trkpt lat="46.19233" lon="6.25115">
        <ele>443.8</ele>
        <time>2021-04-03T15:43:58Z</time>
      </trkpt>
      <trkpt lat="46.1924" lon="6.25115">
        <ele>443.8</ele>
        <time>2021-04-03T15:43:59Z</time>
      </trkpt>
      <trkpt lat="46.19246" lon="6.25114">
        <ele>443.8</ele>
        <time>2021-04-03T15:44:00Z</time>
      </trkpt>
      <trkpt lat="46.19253" lon="6.25113">
        <ele>443.8</ele>
        <time>2021-04-03T15:44:01Z</time>
      </trkpt>
      <trkpt lat="46.1926" lon="6.25112">
        <ele>443.8</ele>
        <time>2021-04-03T15:44:02Z</time>
      </trkpt>
      <trkpt lat="46.19266" lon="6.25111">
        <ele>443.6</ele>
        <time>2021-04-03T15:44:03Z</time>
      </trkpt>
      <trkpt lat="46.19271" lon="6.2511">
        <ele>443.2</ele>
        <time>2021-04-03T15:44:04Z</time>
      </trkpt>
      <trkpt lat="46.19275" lon="6.25108">
        <ele>443</ele>
        <time>2021-04-03T15:44:05Z</time>
      </trkpt>
      <trkpt lat="46.19277" lon="6.25105">
        <ele>442.8</ele>
        <time>2021-04-03T15:44:06Z</time>
      </trkpt>
      <trkpt lat="46.19278" lon="6.25103">
        <ele>442.6</ele>
        <time>2021-04-03T15:44:07Z</time>
      </trkpt>
      <trkpt lat="46.19278" lon="6.251">
        <ele>442.4</ele>
        <time>2021-04-03T15:44:08Z</time>
      </trkpt>
      <trkpt lat="46.19278" lon="6.25098">
        <ele>441.6</ele>
        <time>2021-04-03T15:44:09Z</time>
      </trkpt>
      <trkpt lat="46.19278" lon="6.25098">
        <ele>441.4</ele>
        <time>2021-04-03T15:44:10Z</time>
      </trkpt>
      <trkpt lat="46.19278" lon="6.25098">
        <ele>441.2</ele>
        <time>2021-04-03T15:44:11Z</time>
      </trkpt>
      <trkpt lat="46.19278" lon="6.25099">
        <ele>441</ele>
        <time>2021-04-03T15:44:13Z</time>
      </trkpt>
      <trkpt lat="46.19278" lon="6.25099">
        <ele>441</ele>
        <time>2021-04-03T15:44:14Z</time>
      </trkpt>
      <trkpt lat="46.19278" lon="6.25099">
        <ele>441</ele>
        <time>2021-04-03T15:44:15Z</time>
      </trkpt>
      <trkpt lat="46.19278" lon="6.25099">
        <ele>441</ele>
        <time>2021-04-03T15:44:16Z</time>
      </trkpt>
      <trkpt lat="46.19278" lon="6.25099">
        <ele>441</ele>
        <time>2021-04-03T15:44:17Z</time>
      </trkpt>
      <trkpt lat="46.19278" lon="6.25099">
        <ele>441</ele>
        <time>2021-04-03T15:44:18Z</time>
      </trkpt>
      <trkpt lat="46.19278" lon="6.25099">
        <ele>441.2</ele>
        <time>2021-04-03T15:44:19Z</time>
      </trkpt>
      <trkpt lat="46.19278" lon="6.25099">
        <ele>441.2</ele>
        <time>2021-04-03T15:44:22Z</time>
      </trkpt>
      <trkpt lat="46.19278" lon="6.25099">
        <ele>441</ele>
        <time>2021-04-03T15:44:23Z</time>
      </trkpt>
      <trkpt lat="46.19279" lon="6.25098">
        <ele>441</ele>
        <time>2021-04-03T15:44:24Z</time>
      </trkpt>
      <trkpt lat="46.1928" lon="6.25097">
        <ele>441.2</ele>
        <time>2021-04-03T15:44:25Z</time>
      </trkpt>
      <trkpt lat="46.19281" lon="6.25096">
        <ele>441.4</ele>
        <time>2021-04-03T15:44:26Z</time>
      </trkpt>
      <trkpt lat="46.19281" lon="6.25094">
        <ele>441.2</ele>
        <time>2021-04-03T15:44:27Z</time>
      </trkpt>
      <trkpt lat="46.19281" lon="6.25091">
        <ele>441.2</ele>
        <time>2021-04-03T15:44:28Z</time>
      </trkpt>
      <trkpt lat="46.19281" lon="6.25087">
        <ele>441.2</ele>
        <time>2021-04-03T15:44:29Z</time>
      </trkpt>
      <trkpt lat="46.19281" lon="6.25084">
        <ele>441.4</ele>
        <time>2021-04-03T15:44:30Z</time>
      </trkpt>
      <trkpt lat="46.19282" lon="6.25081">
        <ele>441.4</ele>
        <time>2021-04-03T15:44:31Z</time>
      </trkpt>
      <trkpt lat="46.19283" lon="6.25077">
        <ele>441.4</ele>
        <time>2021-04-03T15:44:32Z</time>
      </trkpt>
      <trkpt lat="46.19284" lon="6.25072">
        <ele>441.4</ele>
        <time>2021-04-03T15:44:33Z</time>
      </trkpt>
      <trkpt lat="46.19285" lon="6.25067">
        <ele>441.2</ele>
        <time>2021-04-03T15:44:34Z</time>
      </trkpt>
      <trkpt lat="46.19286" lon="6.25062">
        <ele>441</ele>
        <time>2021-04-03T15:44:35Z</time>
      </trkpt>
      <trkpt lat="46.19288" lon="6.25057">
        <ele>441.2</ele>
        <time>2021-04-03T15:44:36Z</time>
      </trkpt>
      <trkpt lat="46.19288" lon="6.25051">
        <ele>441.2</ele>
        <time>2021-04-03T15:44:37Z</time>
      </trkpt>
      <trkpt lat="46.19289" lon="6.25046">
        <ele>441.2</ele>
        <time>2021-04-03T15:44:38Z</time>
      </trkpt>
      <trkpt lat="46.1929" lon="6.2504">
        <ele>441.2</ele>
        <time>2021-04-03T15:44:39Z</time>
      </trkpt>
      <trkpt lat="46.19291" lon="6.25035">
        <ele>441.2</ele>
        <time>2021-04-03T15:44:40Z</time>
      </trkpt>
      <trkpt lat="46.19293" lon="6.2503">
        <ele>441.4</ele>
        <time>2021-04-03T15:44:41Z</time>
      </trkpt>
      <trkpt lat="46.19294" lon="6.25026">
        <ele>441.4</ele>
        <time>2021-04-03T15:44:42Z</time>
      </trkpt>
      <trkpt lat="46.19296" lon="6.25024">
        <ele>441.4</ele>
        <time>2021-04-03T15:44:43Z</time>
      </trkpt>
      <trkpt lat="46.19298" lon="6.25023">
        <ele>441.4</ele>
        <time>2021-04-03T15:44:44Z</time>
      </trkpt>
      <trkpt lat="46.19299" lon="6.25024">
        <ele>441.4</ele>
        <time>2021-04-03T15:44:45Z</time>
      </trkpt>
      <trkpt lat="46.193" lon="6.25023">
        <ele>441.4</ele>
        <time>2021-04-03T15:44:46Z</time>
      </trkpt>
      <trkpt lat="46.193" lon="6.25023">
        <ele>441.4</ele>
        <time>2021-04-03T15:44:47Z</time>
      </trkpt>
      <trkpt lat="46.193" lon="6.25023">
        <ele>441.4</ele>
        <time>2021-04-03T15:44:48Z</time>
      </trkpt>
      <trkpt lat="46.193" lon="6.25023">
        <ele>441.4</ele>
        <time>2021-04-03T15:44:49Z</time>
      </trkpt>
      <trkpt lat="46.19299" lon="6.25023">
        <ele>441.4</ele>
        <time>2021-04-03T15:44:50Z</time>
      </trkpt>
      <trkpt lat="46.19299" lon="6.25023">
        <ele>441.4</ele>
        <time>2021-04-03T15:44:51Z</time>
      </trkpt>
      <trkpt lat="46.19299" lon="6.25023">
        <ele>441.4</ele>
        <time>2021-04-03T15:44:52Z</time>
      </trkpt>
      <trkpt lat="46.19298" lon="6.25023">
        <ele>441.4</ele>
        <time>2021-04-03T15:44:53Z</time>
      </trkpt>
      <trkpt lat="46.19299" lon="6.25023">
        <ele>441.4</ele>
        <time>2021-04-03T15:44:54Z</time>
      </trkpt>
      <trkpt lat="46.19299" lon="6.25023">
        <ele>441.2</ele>
        <time>2021-04-03T15:44:55Z</time>
      </trkpt>
    </trkseg>
  </trk>
</gpx>